<?xml version="1.0" encoding="UTF-8"?>
<gpx xmlns="http://www.topografix.com/GPX/1/1"
     creator="GpsDump 4.65"
     version="1.1"
     xmlns:xsi="http://www.w3.org/2001/XMLSchema-instance"
     xsi:schemaLocation="http://www.topografix.com/GPX/1/1 http://www.topografix.com/GPX/1/1/gpx.xsd">
  <metadata>
    <link href="http://www.gethome.no/stein.sorensen/">
      <text>GPS dump for www.flightlog.org</text>
    </link>
    <time>2014-07-06T21:58:12Z</time>
    <bounds minlat="40.421733" minlon="-5.301833" maxlat="40.889217" maxlon="-4.178233"/>
  </metadata>
  <trk>
    <name>Track 001</name>
    <trkseg>
      <trkpt lat="40.421733" lon="-5.301133">
        <ele>1926.0</ele>
        <time>2014-06-30T12:05:12Z</time>
      </trkpt>
      <trkpt lat="40.421767" lon="-5.301150">
        <ele>1926.0</ele>
        <time>2014-06-30T12:05:13Z</time>
      </trkpt>
      <trkpt lat="40.421817" lon="-5.301183">
        <ele>1926.0</ele>
        <time>2014-06-30T12:05:14Z</time>
      </trkpt>
      <trkpt lat="40.421850" lon="-5.301233">
        <ele>1926.0</ele>
        <time>2014-06-30T12:05:15Z</time>
      </trkpt>
      <trkpt lat="40.421867" lon="-5.301267">
        <ele>1926.0</ele>
        <time>2014-06-30T12:05:16Z</time>
      </trkpt>
      <trkpt lat="40.421917" lon="-5.301300">
        <ele>1926.0</ele>
        <time>2014-06-30T12:05:17Z</time>
      </trkpt>
      <trkpt lat="40.421950" lon="-5.301317">
        <ele>1926.0</ele>
        <time>2014-06-30T12:05:18Z</time>
      </trkpt>
      <trkpt lat="40.421983" lon="-5.301333">
        <ele>1925.0</ele>
        <time>2014-06-30T12:05:19Z</time>
      </trkpt>
      <trkpt lat="40.422033" lon="-5.301383">
        <ele>1925.0</ele>
        <time>2014-06-30T12:05:20Z</time>
      </trkpt>
      <trkpt lat="40.422083" lon="-5.301417">
        <ele>1924.0</ele>
        <time>2014-06-30T12:05:21Z</time>
      </trkpt>
      <trkpt lat="40.422117" lon="-5.301450">
        <ele>1925.0</ele>
        <time>2014-06-30T12:05:22Z</time>
      </trkpt>
      <trkpt lat="40.422150" lon="-5.301467">
        <ele>1926.0</ele>
        <time>2014-06-30T12:05:23Z</time>
      </trkpt>
      <trkpt lat="40.422183" lon="-5.301467">
        <ele>1926.0</ele>
        <time>2014-06-30T12:05:24Z</time>
      </trkpt>
      <trkpt lat="40.422217" lon="-5.301483">
        <ele>1926.0</ele>
        <time>2014-06-30T12:05:25Z</time>
      </trkpt>
      <trkpt lat="40.422267" lon="-5.301500">
        <ele>1926.0</ele>
        <time>2014-06-30T12:05:26Z</time>
      </trkpt>
      <trkpt lat="40.422300" lon="-5.301533">
        <ele>1926.0</ele>
        <time>2014-06-30T12:05:27Z</time>
      </trkpt>
      <trkpt lat="40.422333" lon="-5.301567">
        <ele>1926.0</ele>
        <time>2014-06-30T12:05:28Z</time>
      </trkpt>
      <trkpt lat="40.422367" lon="-5.301567">
        <ele>1926.0</ele>
        <time>2014-06-30T12:05:29Z</time>
      </trkpt>
      <trkpt lat="40.422400" lon="-5.301567">
        <ele>1925.0</ele>
        <time>2014-06-30T12:05:30Z</time>
      </trkpt>
      <trkpt lat="40.422433" lon="-5.301583">
        <ele>1925.0</ele>
        <time>2014-06-30T12:05:31Z</time>
      </trkpt>
      <trkpt lat="40.422467" lon="-5.301583">
        <ele>1924.0</ele>
        <time>2014-06-30T12:05:32Z</time>
      </trkpt>
      <trkpt lat="40.422500" lon="-5.301600">
        <ele>1924.0</ele>
        <time>2014-06-30T12:05:33Z</time>
      </trkpt>
      <trkpt lat="40.422533" lon="-5.301600">
        <ele>1923.0</ele>
        <time>2014-06-30T12:05:34Z</time>
      </trkpt>
      <trkpt lat="40.422583" lon="-5.301583">
        <ele>1922.0</ele>
        <time>2014-06-30T12:05:35Z</time>
      </trkpt>
      <trkpt lat="40.422633" lon="-5.301567">
        <ele>1921.0</ele>
        <time>2014-06-30T12:05:36Z</time>
      </trkpt>
      <trkpt lat="40.422683" lon="-5.301567">
        <ele>1920.0</ele>
        <time>2014-06-30T12:05:37Z</time>
      </trkpt>
      <trkpt lat="40.422733" lon="-5.301583">
        <ele>1919.0</ele>
        <time>2014-06-30T12:05:38Z</time>
      </trkpt>
      <trkpt lat="40.422767" lon="-5.301617">
        <ele>1919.0</ele>
        <time>2014-06-30T12:05:39Z</time>
      </trkpt>
      <trkpt lat="40.422800" lon="-5.301633">
        <ele>1918.0</ele>
        <time>2014-06-30T12:05:40Z</time>
      </trkpt>
      <trkpt lat="40.422833" lon="-5.301650">
        <ele>1918.0</ele>
        <time>2014-06-30T12:05:41Z</time>
      </trkpt>
      <trkpt lat="40.422883" lon="-5.301683">
        <ele>1917.0</ele>
        <time>2014-06-30T12:05:42Z</time>
      </trkpt>
      <trkpt lat="40.422933" lon="-5.301700">
        <ele>1917.0</ele>
        <time>2014-06-30T12:05:43Z</time>
      </trkpt>
      <trkpt lat="40.422983" lon="-5.301733">
        <ele>1917.0</ele>
        <time>2014-06-30T12:05:44Z</time>
      </trkpt>
      <trkpt lat="40.423017" lon="-5.301750">
        <ele>1918.0</ele>
        <time>2014-06-30T12:05:45Z</time>
      </trkpt>
      <trkpt lat="40.423050" lon="-5.301767">
        <ele>1918.0</ele>
        <time>2014-06-30T12:05:46Z</time>
      </trkpt>
      <trkpt lat="40.423100" lon="-5.301767">
        <ele>1916.0</ele>
        <time>2014-06-30T12:05:47Z</time>
      </trkpt>
      <trkpt lat="40.423167" lon="-5.301767">
        <ele>1914.0</ele>
        <time>2014-06-30T12:05:48Z</time>
      </trkpt>
      <trkpt lat="40.423217" lon="-5.301783">
        <ele>1912.0</ele>
        <time>2014-06-30T12:05:49Z</time>
      </trkpt>
      <trkpt lat="40.423283" lon="-5.301817">
        <ele>1911.0</ele>
        <time>2014-06-30T12:05:50Z</time>
      </trkpt>
      <trkpt lat="40.423317" lon="-5.301833">
        <ele>1910.0</ele>
        <time>2014-06-30T12:05:51Z</time>
      </trkpt>
      <trkpt lat="40.423367" lon="-5.301833">
        <ele>1910.0</ele>
        <time>2014-06-30T12:05:52Z</time>
      </trkpt>
      <trkpt lat="40.423417" lon="-5.301833">
        <ele>1909.0</ele>
        <time>2014-06-30T12:05:53Z</time>
      </trkpt>
      <trkpt lat="40.423467" lon="-5.301817">
        <ele>1908.0</ele>
        <time>2014-06-30T12:05:54Z</time>
      </trkpt>
      <trkpt lat="40.423517" lon="-5.301767">
        <ele>1907.0</ele>
        <time>2014-06-30T12:05:55Z</time>
      </trkpt>
      <trkpt lat="40.423583" lon="-5.301733">
        <ele>1905.0</ele>
        <time>2014-06-30T12:05:56Z</time>
      </trkpt>
      <trkpt lat="40.423650" lon="-5.301683">
        <ele>1904.0</ele>
        <time>2014-06-30T12:05:57Z</time>
      </trkpt>
      <trkpt lat="40.423700" lon="-5.301633">
        <ele>1904.0</ele>
        <time>2014-06-30T12:05:58Z</time>
      </trkpt>
      <trkpt lat="40.423767" lon="-5.301600">
        <ele>1903.0</ele>
        <time>2014-06-30T12:05:59Z</time>
      </trkpt>
      <trkpt lat="40.423817" lon="-5.301550">
        <ele>1902.0</ele>
        <time>2014-06-30T12:06:00Z</time>
      </trkpt>
      <trkpt lat="40.423883" lon="-5.301500">
        <ele>1901.0</ele>
        <time>2014-06-30T12:06:01Z</time>
      </trkpt>
      <trkpt lat="40.423950" lon="-5.301483">
        <ele>1899.0</ele>
        <time>2014-06-30T12:06:02Z</time>
      </trkpt>
      <trkpt lat="40.424033" lon="-5.301467">
        <ele>1897.0</ele>
        <time>2014-06-30T12:06:03Z</time>
      </trkpt>
      <trkpt lat="40.424100" lon="-5.301467">
        <ele>1897.0</ele>
        <time>2014-06-30T12:06:04Z</time>
      </trkpt>
      <trkpt lat="40.424167" lon="-5.301450">
        <ele>1897.0</ele>
        <time>2014-06-30T12:06:05Z</time>
      </trkpt>
      <trkpt lat="40.424217" lon="-5.301450">
        <ele>1896.0</ele>
        <time>2014-06-30T12:06:06Z</time>
      </trkpt>
      <trkpt lat="40.424283" lon="-5.301433">
        <ele>1895.0</ele>
        <time>2014-06-30T12:06:07Z</time>
      </trkpt>
      <trkpt lat="40.424367" lon="-5.301417">
        <ele>1894.0</ele>
        <time>2014-06-30T12:06:08Z</time>
      </trkpt>
      <trkpt lat="40.424433" lon="-5.301383">
        <ele>1893.0</ele>
        <time>2014-06-30T12:06:09Z</time>
      </trkpt>
      <trkpt lat="40.424500" lon="-5.301383">
        <ele>1894.0</ele>
        <time>2014-06-30T12:06:10Z</time>
      </trkpt>
      <trkpt lat="40.424550" lon="-5.301367">
        <ele>1895.0</ele>
        <time>2014-06-30T12:06:11Z</time>
      </trkpt>
      <trkpt lat="40.424583" lon="-5.301383">
        <ele>1895.0</ele>
        <time>2014-06-30T12:06:12Z</time>
      </trkpt>
      <trkpt lat="40.424633" lon="-5.301383">
        <ele>1894.0</ele>
        <time>2014-06-30T12:06:13Z</time>
      </trkpt>
      <trkpt lat="40.424700" lon="-5.301400">
        <ele>1893.0</ele>
        <time>2014-06-30T12:06:14Z</time>
      </trkpt>
      <trkpt lat="40.424767" lon="-5.301400">
        <ele>1891.0</ele>
        <time>2014-06-30T12:06:15Z</time>
      </trkpt>
      <trkpt lat="40.424850" lon="-5.301400">
        <ele>1889.0</ele>
        <time>2014-06-30T12:06:16Z</time>
      </trkpt>
      <trkpt lat="40.424933" lon="-5.301400">
        <ele>1888.0</ele>
        <time>2014-06-30T12:06:17Z</time>
      </trkpt>
      <trkpt lat="40.425000" lon="-5.301383">
        <ele>1887.0</ele>
        <time>2014-06-30T12:06:18Z</time>
      </trkpt>
      <trkpt lat="40.425067" lon="-5.301333">
        <ele>1887.0</ele>
        <time>2014-06-30T12:06:19Z</time>
      </trkpt>
      <trkpt lat="40.425150" lon="-5.301300">
        <ele>1886.0</ele>
        <time>2014-06-30T12:06:20Z</time>
      </trkpt>
      <trkpt lat="40.425233" lon="-5.301250">
        <ele>1886.0</ele>
        <time>2014-06-30T12:06:21Z</time>
      </trkpt>
      <trkpt lat="40.425300" lon="-5.301217">
        <ele>1885.0</ele>
        <time>2014-06-30T12:06:22Z</time>
      </trkpt>
      <trkpt lat="40.425383" lon="-5.301183">
        <ele>1885.0</ele>
        <time>2014-06-30T12:06:23Z</time>
      </trkpt>
      <trkpt lat="40.425467" lon="-5.301150">
        <ele>1885.0</ele>
        <time>2014-06-30T12:06:24Z</time>
      </trkpt>
      <trkpt lat="40.425550" lon="-5.301117">
        <ele>1884.0</ele>
        <time>2014-06-30T12:06:25Z</time>
      </trkpt>
      <trkpt lat="40.425633" lon="-5.301067">
        <ele>1884.0</ele>
        <time>2014-06-30T12:06:26Z</time>
      </trkpt>
      <trkpt lat="40.425733" lon="-5.301017">
        <ele>1883.0</ele>
        <time>2014-06-30T12:06:27Z</time>
      </trkpt>
      <trkpt lat="40.425817" lon="-5.300967">
        <ele>1884.0</ele>
        <time>2014-06-30T12:06:28Z</time>
      </trkpt>
      <trkpt lat="40.425917" lon="-5.300900">
        <ele>1885.0</ele>
        <time>2014-06-30T12:06:29Z</time>
      </trkpt>
      <trkpt lat="40.426017" lon="-5.300850">
        <ele>1886.0</ele>
        <time>2014-06-30T12:06:30Z</time>
      </trkpt>
      <trkpt lat="40.426100" lon="-5.300817">
        <ele>1887.0</ele>
        <time>2014-06-30T12:06:31Z</time>
      </trkpt>
      <trkpt lat="40.426183" lon="-5.300767">
        <ele>1889.0</ele>
        <time>2014-06-30T12:06:32Z</time>
      </trkpt>
      <trkpt lat="40.426267" lon="-5.300700">
        <ele>1890.0</ele>
        <time>2014-06-30T12:06:33Z</time>
      </trkpt>
      <trkpt lat="40.426333" lon="-5.300633">
        <ele>1891.0</ele>
        <time>2014-06-30T12:06:34Z</time>
      </trkpt>
      <trkpt lat="40.426417" lon="-5.300550">
        <ele>1891.0</ele>
        <time>2014-06-30T12:06:35Z</time>
      </trkpt>
      <trkpt lat="40.426483" lon="-5.300467">
        <ele>1890.0</ele>
        <time>2014-06-30T12:06:36Z</time>
      </trkpt>
      <trkpt lat="40.426567" lon="-5.300383">
        <ele>1890.0</ele>
        <time>2014-06-30T12:06:37Z</time>
      </trkpt>
      <trkpt lat="40.426650" lon="-5.300300">
        <ele>1890.0</ele>
        <time>2014-06-30T12:06:38Z</time>
      </trkpt>
      <trkpt lat="40.426733" lon="-5.300200">
        <ele>1890.0</ele>
        <time>2014-06-30T12:06:39Z</time>
      </trkpt>
      <trkpt lat="40.426783" lon="-5.300100">
        <ele>1891.0</ele>
        <time>2014-06-30T12:06:40Z</time>
      </trkpt>
      <trkpt lat="40.426850" lon="-5.300000">
        <ele>1892.0</ele>
        <time>2014-06-30T12:06:41Z</time>
      </trkpt>
      <trkpt lat="40.426933" lon="-5.299917">
        <ele>1892.0</ele>
        <time>2014-06-30T12:06:42Z</time>
      </trkpt>
      <trkpt lat="40.426983" lon="-5.299817">
        <ele>1892.0</ele>
        <time>2014-06-30T12:06:43Z</time>
      </trkpt>
      <trkpt lat="40.427050" lon="-5.299733">
        <ele>1892.0</ele>
        <time>2014-06-30T12:06:44Z</time>
      </trkpt>
      <trkpt lat="40.427133" lon="-5.299650">
        <ele>1892.0</ele>
        <time>2014-06-30T12:06:45Z</time>
      </trkpt>
      <trkpt lat="40.427217" lon="-5.299583">
        <ele>1892.0</ele>
        <time>2014-06-30T12:06:46Z</time>
      </trkpt>
      <trkpt lat="40.427300" lon="-5.299517">
        <ele>1891.0</ele>
        <time>2014-06-30T12:06:47Z</time>
      </trkpt>
      <trkpt lat="40.427383" lon="-5.299450">
        <ele>1892.0</ele>
        <time>2014-06-30T12:06:48Z</time>
      </trkpt>
      <trkpt lat="40.427467" lon="-5.299417">
        <ele>1892.0</ele>
        <time>2014-06-30T12:06:49Z</time>
      </trkpt>
      <trkpt lat="40.427550" lon="-5.299383">
        <ele>1892.0</ele>
        <time>2014-06-30T12:06:50Z</time>
      </trkpt>
      <trkpt lat="40.427633" lon="-5.299350">
        <ele>1892.0</ele>
        <time>2014-06-30T12:06:51Z</time>
      </trkpt>
      <trkpt lat="40.427717" lon="-5.299317">
        <ele>1893.0</ele>
        <time>2014-06-30T12:06:52Z</time>
      </trkpt>
      <trkpt lat="40.427817" lon="-5.299267">
        <ele>1895.0</ele>
        <time>2014-06-30T12:06:53Z</time>
      </trkpt>
      <trkpt lat="40.427883" lon="-5.299233">
        <ele>1897.0</ele>
        <time>2014-06-30T12:06:54Z</time>
      </trkpt>
      <trkpt lat="40.427967" lon="-5.299200">
        <ele>1899.0</ele>
        <time>2014-06-30T12:06:55Z</time>
      </trkpt>
      <trkpt lat="40.428033" lon="-5.299167">
        <ele>1901.0</ele>
        <time>2014-06-30T12:06:56Z</time>
      </trkpt>
      <trkpt lat="40.428100" lon="-5.299117">
        <ele>1902.0</ele>
        <time>2014-06-30T12:06:57Z</time>
      </trkpt>
      <trkpt lat="40.428167" lon="-5.299067">
        <ele>1903.0</ele>
        <time>2014-06-30T12:06:58Z</time>
      </trkpt>
      <trkpt lat="40.428217" lon="-5.299033">
        <ele>1905.0</ele>
        <time>2014-06-30T12:06:59Z</time>
      </trkpt>
      <trkpt lat="40.428267" lon="-5.299000">
        <ele>1907.0</ele>
        <time>2014-06-30T12:07:00Z</time>
      </trkpt>
      <trkpt lat="40.428333" lon="-5.298967">
        <ele>1909.0</ele>
        <time>2014-06-30T12:07:01Z</time>
      </trkpt>
      <trkpt lat="40.428383" lon="-5.298933">
        <ele>1911.0</ele>
        <time>2014-06-30T12:07:02Z</time>
      </trkpt>
      <trkpt lat="40.428433" lon="-5.298900">
        <ele>1912.0</ele>
        <time>2014-06-30T12:07:03Z</time>
      </trkpt>
      <trkpt lat="40.428500" lon="-5.298833">
        <ele>1913.0</ele>
        <time>2014-06-30T12:07:04Z</time>
      </trkpt>
      <trkpt lat="40.428550" lon="-5.298783">
        <ele>1914.0</ele>
        <time>2014-06-30T12:07:05Z</time>
      </trkpt>
      <trkpt lat="40.428600" lon="-5.298717">
        <ele>1915.0</ele>
        <time>2014-06-30T12:07:06Z</time>
      </trkpt>
      <trkpt lat="40.428633" lon="-5.298633">
        <ele>1916.0</ele>
        <time>2014-06-30T12:07:07Z</time>
      </trkpt>
      <trkpt lat="40.428667" lon="-5.298533">
        <ele>1917.0</ele>
        <time>2014-06-30T12:07:08Z</time>
      </trkpt>
      <trkpt lat="40.428700" lon="-5.298450">
        <ele>1918.0</ele>
        <time>2014-06-30T12:07:09Z</time>
      </trkpt>
      <trkpt lat="40.428700" lon="-5.298383">
        <ele>1920.0</ele>
        <time>2014-06-30T12:07:10Z</time>
      </trkpt>
      <trkpt lat="40.428717" lon="-5.298300">
        <ele>1921.0</ele>
        <time>2014-06-30T12:07:11Z</time>
      </trkpt>
      <trkpt lat="40.428717" lon="-5.298200">
        <ele>1922.0</ele>
        <time>2014-06-30T12:07:12Z</time>
      </trkpt>
      <trkpt lat="40.428717" lon="-5.298100">
        <ele>1924.0</ele>
        <time>2014-06-30T12:07:13Z</time>
      </trkpt>
      <trkpt lat="40.428700" lon="-5.298017">
        <ele>1926.0</ele>
        <time>2014-06-30T12:07:14Z</time>
      </trkpt>
      <trkpt lat="40.428633" lon="-5.297933">
        <ele>1928.0</ele>
        <time>2014-06-30T12:07:15Z</time>
      </trkpt>
      <trkpt lat="40.428550" lon="-5.297883">
        <ele>1931.0</ele>
        <time>2014-06-30T12:07:16Z</time>
      </trkpt>
      <trkpt lat="40.428433" lon="-5.297850">
        <ele>1933.0</ele>
        <time>2014-06-30T12:07:17Z</time>
      </trkpt>
      <trkpt lat="40.428317" lon="-5.297850">
        <ele>1935.0</ele>
        <time>2014-06-30T12:07:18Z</time>
      </trkpt>
      <trkpt lat="40.428200" lon="-5.297900">
        <ele>1936.0</ele>
        <time>2014-06-30T12:07:19Z</time>
      </trkpt>
      <trkpt lat="40.428117" lon="-5.298000">
        <ele>1938.0</ele>
        <time>2014-06-30T12:07:20Z</time>
      </trkpt>
      <trkpt lat="40.428050" lon="-5.298117">
        <ele>1940.0</ele>
        <time>2014-06-30T12:07:21Z</time>
      </trkpt>
      <trkpt lat="40.428033" lon="-5.298233">
        <ele>1941.0</ele>
        <time>2014-06-30T12:07:22Z</time>
      </trkpt>
      <trkpt lat="40.428033" lon="-5.298350">
        <ele>1943.0</ele>
        <time>2014-06-30T12:07:23Z</time>
      </trkpt>
      <trkpt lat="40.428033" lon="-5.298450">
        <ele>1947.0</ele>
        <time>2014-06-30T12:07:24Z</time>
      </trkpt>
      <trkpt lat="40.428067" lon="-5.298517">
        <ele>1949.0</ele>
        <time>2014-06-30T12:07:25Z</time>
      </trkpt>
      <trkpt lat="40.428100" lon="-5.298583">
        <ele>1950.0</ele>
        <time>2014-06-30T12:07:26Z</time>
      </trkpt>
      <trkpt lat="40.428150" lon="-5.298650">
        <ele>1950.0</ele>
        <time>2014-06-30T12:07:27Z</time>
      </trkpt>
      <trkpt lat="40.428217" lon="-5.298683">
        <ele>1951.0</ele>
        <time>2014-06-30T12:07:28Z</time>
      </trkpt>
      <trkpt lat="40.428267" lon="-5.298717">
        <ele>1952.0</ele>
        <time>2014-06-30T12:07:29Z</time>
      </trkpt>
      <trkpt lat="40.428317" lon="-5.298733">
        <ele>1953.0</ele>
        <time>2014-06-30T12:07:30Z</time>
      </trkpt>
      <trkpt lat="40.428367" lon="-5.298750">
        <ele>1955.0</ele>
        <time>2014-06-30T12:07:31Z</time>
      </trkpt>
      <trkpt lat="40.428417" lon="-5.298767">
        <ele>1956.0</ele>
        <time>2014-06-30T12:07:32Z</time>
      </trkpt>
      <trkpt lat="40.428483" lon="-5.298750">
        <ele>1956.0</ele>
        <time>2014-06-30T12:07:33Z</time>
      </trkpt>
      <trkpt lat="40.428533" lon="-5.298700">
        <ele>1958.0</ele>
        <time>2014-06-30T12:07:34Z</time>
      </trkpt>
      <trkpt lat="40.428567" lon="-5.298600">
        <ele>1960.0</ele>
        <time>2014-06-30T12:07:35Z</time>
      </trkpt>
      <trkpt lat="40.428600" lon="-5.298500">
        <ele>1961.0</ele>
        <time>2014-06-30T12:07:36Z</time>
      </trkpt>
      <trkpt lat="40.428600" lon="-5.298400">
        <ele>1963.0</ele>
        <time>2014-06-30T12:07:37Z</time>
      </trkpt>
      <trkpt lat="40.428600" lon="-5.298300">
        <ele>1966.0</ele>
        <time>2014-06-30T12:07:38Z</time>
      </trkpt>
      <trkpt lat="40.428583" lon="-5.298217">
        <ele>1968.0</ele>
        <time>2014-06-30T12:07:39Z</time>
      </trkpt>
      <trkpt lat="40.428583" lon="-5.298117">
        <ele>1971.0</ele>
        <time>2014-06-30T12:07:40Z</time>
      </trkpt>
      <trkpt lat="40.428567" lon="-5.298017">
        <ele>1971.0</ele>
        <time>2014-06-30T12:07:41Z</time>
      </trkpt>
      <trkpt lat="40.428533" lon="-5.297883">
        <ele>1970.0</ele>
        <time>2014-06-30T12:07:42Z</time>
      </trkpt>
      <trkpt lat="40.428467" lon="-5.297750">
        <ele>1970.0</ele>
        <time>2014-06-30T12:07:43Z</time>
      </trkpt>
      <trkpt lat="40.428367" lon="-5.297617">
        <ele>1970.0</ele>
        <time>2014-06-30T12:07:44Z</time>
      </trkpt>
      <trkpt lat="40.428233" lon="-5.297533">
        <ele>1969.0</ele>
        <time>2014-06-30T12:07:45Z</time>
      </trkpt>
      <trkpt lat="40.428083" lon="-5.297483">
        <ele>1969.0</ele>
        <time>2014-06-30T12:07:46Z</time>
      </trkpt>
      <trkpt lat="40.427950" lon="-5.297483">
        <ele>1970.0</ele>
        <time>2014-06-30T12:07:47Z</time>
      </trkpt>
      <trkpt lat="40.427850" lon="-5.297533">
        <ele>1972.0</ele>
        <time>2014-06-30T12:07:48Z</time>
      </trkpt>
      <trkpt lat="40.427750" lon="-5.297600">
        <ele>1974.0</ele>
        <time>2014-06-30T12:07:49Z</time>
      </trkpt>
      <trkpt lat="40.427683" lon="-5.297683">
        <ele>1977.0</ele>
        <time>2014-06-30T12:07:50Z</time>
      </trkpt>
      <trkpt lat="40.427633" lon="-5.297767">
        <ele>1979.0</ele>
        <time>2014-06-30T12:07:51Z</time>
      </trkpt>
      <trkpt lat="40.427600" lon="-5.297867">
        <ele>1980.0</ele>
        <time>2014-06-30T12:07:52Z</time>
      </trkpt>
      <trkpt lat="40.427583" lon="-5.297983">
        <ele>1982.0</ele>
        <time>2014-06-30T12:07:53Z</time>
      </trkpt>
      <trkpt lat="40.427583" lon="-5.298100">
        <ele>1984.0</ele>
        <time>2014-06-30T12:07:54Z</time>
      </trkpt>
      <trkpt lat="40.427583" lon="-5.298183">
        <ele>1987.0</ele>
        <time>2014-06-30T12:07:55Z</time>
      </trkpt>
      <trkpt lat="40.427600" lon="-5.298283">
        <ele>1991.0</ele>
        <time>2014-06-30T12:07:56Z</time>
      </trkpt>
      <trkpt lat="40.427633" lon="-5.298367">
        <ele>1993.0</ele>
        <time>2014-06-30T12:07:57Z</time>
      </trkpt>
      <trkpt lat="40.427683" lon="-5.298433">
        <ele>1995.0</ele>
        <time>2014-06-30T12:07:58Z</time>
      </trkpt>
      <trkpt lat="40.427733" lon="-5.298467">
        <ele>1997.0</ele>
        <time>2014-06-30T12:07:59Z</time>
      </trkpt>
      <trkpt lat="40.427800" lon="-5.298483">
        <ele>1998.0</ele>
        <time>2014-06-30T12:08:00Z</time>
      </trkpt>
      <trkpt lat="40.427867" lon="-5.298483">
        <ele>2000.0</ele>
        <time>2014-06-30T12:08:01Z</time>
      </trkpt>
      <trkpt lat="40.427933" lon="-5.298467">
        <ele>2003.0</ele>
        <time>2014-06-30T12:08:02Z</time>
      </trkpt>
      <trkpt lat="40.428000" lon="-5.298417">
        <ele>2005.0</ele>
        <time>2014-06-30T12:08:03Z</time>
      </trkpt>
      <trkpt lat="40.428050" lon="-5.298367">
        <ele>2009.0</ele>
        <time>2014-06-30T12:08:04Z</time>
      </trkpt>
      <trkpt lat="40.428083" lon="-5.298283">
        <ele>2014.0</ele>
        <time>2014-06-30T12:08:05Z</time>
      </trkpt>
      <trkpt lat="40.428117" lon="-5.298217">
        <ele>2019.0</ele>
        <time>2014-06-30T12:08:06Z</time>
      </trkpt>
      <trkpt lat="40.428167" lon="-5.298133">
        <ele>2023.0</ele>
        <time>2014-06-30T12:08:07Z</time>
      </trkpt>
      <trkpt lat="40.428183" lon="-5.298050">
        <ele>2026.0</ele>
        <time>2014-06-30T12:08:08Z</time>
      </trkpt>
      <trkpt lat="40.428217" lon="-5.297950">
        <ele>2026.0</ele>
        <time>2014-06-30T12:08:09Z</time>
      </trkpt>
      <trkpt lat="40.428217" lon="-5.297833">
        <ele>2026.0</ele>
        <time>2014-06-30T12:08:10Z</time>
      </trkpt>
      <trkpt lat="40.428217" lon="-5.297683">
        <ele>2026.0</ele>
        <time>2014-06-30T12:08:11Z</time>
      </trkpt>
      <trkpt lat="40.428167" lon="-5.297533">
        <ele>2025.0</ele>
        <time>2014-06-30T12:08:12Z</time>
      </trkpt>
      <trkpt lat="40.428067" lon="-5.297383">
        <ele>2024.0</ele>
        <time>2014-06-30T12:08:13Z</time>
      </trkpt>
      <trkpt lat="40.427933" lon="-5.297283">
        <ele>2023.0</ele>
        <time>2014-06-30T12:08:14Z</time>
      </trkpt>
      <trkpt lat="40.427800" lon="-5.297233">
        <ele>2023.0</ele>
        <time>2014-06-30T12:08:15Z</time>
      </trkpt>
      <trkpt lat="40.427667" lon="-5.297250">
        <ele>2022.0</ele>
        <time>2014-06-30T12:08:16Z</time>
      </trkpt>
      <trkpt lat="40.427533" lon="-5.297283">
        <ele>2022.0</ele>
        <time>2014-06-30T12:08:17Z</time>
      </trkpt>
      <trkpt lat="40.427433" lon="-5.297350">
        <ele>2021.0</ele>
        <time>2014-06-30T12:08:18Z</time>
      </trkpt>
      <trkpt lat="40.427367" lon="-5.297400">
        <ele>2021.0</ele>
        <time>2014-06-30T12:08:19Z</time>
      </trkpt>
      <trkpt lat="40.427300" lon="-5.297483">
        <ele>2023.0</ele>
        <time>2014-06-30T12:08:20Z</time>
      </trkpt>
      <trkpt lat="40.427250" lon="-5.297567">
        <ele>2024.0</ele>
        <time>2014-06-30T12:08:21Z</time>
      </trkpt>
      <trkpt lat="40.427217" lon="-5.297650">
        <ele>2026.0</ele>
        <time>2014-06-30T12:08:22Z</time>
      </trkpt>
      <trkpt lat="40.427217" lon="-5.297733">
        <ele>2028.0</ele>
        <time>2014-06-30T12:08:23Z</time>
      </trkpt>
      <trkpt lat="40.427217" lon="-5.297800">
        <ele>2027.0</ele>
        <time>2014-06-30T12:08:24Z</time>
      </trkpt>
      <trkpt lat="40.427233" lon="-5.297850">
        <ele>2027.0</ele>
        <time>2014-06-30T12:08:25Z</time>
      </trkpt>
      <trkpt lat="40.427250" lon="-5.297900">
        <ele>2028.0</ele>
        <time>2014-06-30T12:08:26Z</time>
      </trkpt>
      <trkpt lat="40.427300" lon="-5.297967">
        <ele>2031.0</ele>
        <time>2014-06-30T12:08:27Z</time>
      </trkpt>
      <trkpt lat="40.427350" lon="-5.297983">
        <ele>2035.0</ele>
        <time>2014-06-30T12:08:28Z</time>
      </trkpt>
      <trkpt lat="40.427417" lon="-5.298000">
        <ele>2038.0</ele>
        <time>2014-06-30T12:08:29Z</time>
      </trkpt>
      <trkpt lat="40.427483" lon="-5.298000">
        <ele>2041.0</ele>
        <time>2014-06-30T12:08:30Z</time>
      </trkpt>
      <trkpt lat="40.427567" lon="-5.297983">
        <ele>2044.0</ele>
        <time>2014-06-30T12:08:31Z</time>
      </trkpt>
      <trkpt lat="40.427617" lon="-5.297917">
        <ele>2049.0</ele>
        <time>2014-06-30T12:08:32Z</time>
      </trkpt>
      <trkpt lat="40.427667" lon="-5.297800">
        <ele>2053.0</ele>
        <time>2014-06-30T12:08:33Z</time>
      </trkpt>
      <trkpt lat="40.427667" lon="-5.297683">
        <ele>2057.0</ele>
        <time>2014-06-30T12:08:34Z</time>
      </trkpt>
      <trkpt lat="40.427650" lon="-5.297550">
        <ele>2059.0</ele>
        <time>2014-06-30T12:08:35Z</time>
      </trkpt>
      <trkpt lat="40.427650" lon="-5.297417">
        <ele>2061.0</ele>
        <time>2014-06-30T12:08:36Z</time>
      </trkpt>
      <trkpt lat="40.427633" lon="-5.297283">
        <ele>2062.0</ele>
        <time>2014-06-30T12:08:37Z</time>
      </trkpt>
      <trkpt lat="40.427600" lon="-5.297150">
        <ele>2062.0</ele>
        <time>2014-06-30T12:08:38Z</time>
      </trkpt>
      <trkpt lat="40.427550" lon="-5.297000">
        <ele>2062.0</ele>
        <time>2014-06-30T12:08:39Z</time>
      </trkpt>
      <trkpt lat="40.427450" lon="-5.296883">
        <ele>2062.0</ele>
        <time>2014-06-30T12:08:40Z</time>
      </trkpt>
      <trkpt lat="40.427300" lon="-5.296800">
        <ele>2062.0</ele>
        <time>2014-06-30T12:08:41Z</time>
      </trkpt>
      <trkpt lat="40.427167" lon="-5.296783">
        <ele>2062.0</ele>
        <time>2014-06-30T12:08:42Z</time>
      </trkpt>
      <trkpt lat="40.427050" lon="-5.296783">
        <ele>2062.0</ele>
        <time>2014-06-30T12:08:43Z</time>
      </trkpt>
      <trkpt lat="40.426933" lon="-5.296817">
        <ele>2063.0</ele>
        <time>2014-06-30T12:08:44Z</time>
      </trkpt>
      <trkpt lat="40.426817" lon="-5.296850">
        <ele>2064.0</ele>
        <time>2014-06-30T12:08:45Z</time>
      </trkpt>
      <trkpt lat="40.426700" lon="-5.296900">
        <ele>2065.0</ele>
        <time>2014-06-30T12:08:46Z</time>
      </trkpt>
      <trkpt lat="40.426633" lon="-5.296983">
        <ele>2067.0</ele>
        <time>2014-06-30T12:08:47Z</time>
      </trkpt>
      <trkpt lat="40.426583" lon="-5.297067">
        <ele>2069.0</ele>
        <time>2014-06-30T12:08:48Z</time>
      </trkpt>
      <trkpt lat="40.426583" lon="-5.297150">
        <ele>2070.0</ele>
        <time>2014-06-30T12:08:49Z</time>
      </trkpt>
      <trkpt lat="40.426583" lon="-5.297250">
        <ele>2072.0</ele>
        <time>2014-06-30T12:08:50Z</time>
      </trkpt>
      <trkpt lat="40.426617" lon="-5.297317">
        <ele>2073.0</ele>
        <time>2014-06-30T12:08:51Z</time>
      </trkpt>
      <trkpt lat="40.426667" lon="-5.297367">
        <ele>2078.0</ele>
        <time>2014-06-30T12:08:52Z</time>
      </trkpt>
      <trkpt lat="40.426717" lon="-5.297383">
        <ele>2084.0</ele>
        <time>2014-06-30T12:08:53Z</time>
      </trkpt>
      <trkpt lat="40.426783" lon="-5.297367">
        <ele>2089.0</ele>
        <time>2014-06-30T12:08:54Z</time>
      </trkpt>
      <trkpt lat="40.426833" lon="-5.297333">
        <ele>2093.0</ele>
        <time>2014-06-30T12:08:55Z</time>
      </trkpt>
      <trkpt lat="40.426900" lon="-5.297267">
        <ele>2096.0</ele>
        <time>2014-06-30T12:08:56Z</time>
      </trkpt>
      <trkpt lat="40.426933" lon="-5.297167">
        <ele>2100.0</ele>
        <time>2014-06-30T12:08:57Z</time>
      </trkpt>
      <trkpt lat="40.426950" lon="-5.297050">
        <ele>2104.0</ele>
        <time>2014-06-30T12:08:58Z</time>
      </trkpt>
      <trkpt lat="40.426933" lon="-5.296917">
        <ele>2107.0</ele>
        <time>2014-06-30T12:08:59Z</time>
      </trkpt>
      <trkpt lat="40.426883" lon="-5.296783">
        <ele>2110.0</ele>
        <time>2014-06-30T12:09:00Z</time>
      </trkpt>
      <trkpt lat="40.426800" lon="-5.296650">
        <ele>2112.0</ele>
        <time>2014-06-30T12:09:01Z</time>
      </trkpt>
      <trkpt lat="40.426700" lon="-5.296550">
        <ele>2113.0</ele>
        <time>2014-06-30T12:09:02Z</time>
      </trkpt>
      <trkpt lat="40.426583" lon="-5.296467">
        <ele>2114.0</ele>
        <time>2014-06-30T12:09:03Z</time>
      </trkpt>
      <trkpt lat="40.426467" lon="-5.296433">
        <ele>2116.0</ele>
        <time>2014-06-30T12:09:04Z</time>
      </trkpt>
      <trkpt lat="40.426350" lon="-5.296450">
        <ele>2119.0</ele>
        <time>2014-06-30T12:09:05Z</time>
      </trkpt>
      <trkpt lat="40.426283" lon="-5.296483">
        <ele>2122.0</ele>
        <time>2014-06-30T12:09:06Z</time>
      </trkpt>
      <trkpt lat="40.426217" lon="-5.296550">
        <ele>2126.0</ele>
        <time>2014-06-30T12:09:07Z</time>
      </trkpt>
      <trkpt lat="40.426183" lon="-5.296617">
        <ele>2129.0</ele>
        <time>2014-06-30T12:09:08Z</time>
      </trkpt>
      <trkpt lat="40.426133" lon="-5.296683">
        <ele>2132.0</ele>
        <time>2014-06-30T12:09:09Z</time>
      </trkpt>
      <trkpt lat="40.426067" lon="-5.296750">
        <ele>2135.0</ele>
        <time>2014-06-30T12:09:10Z</time>
      </trkpt>
      <trkpt lat="40.426017" lon="-5.296817">
        <ele>2138.0</ele>
        <time>2014-06-30T12:09:11Z</time>
      </trkpt>
      <trkpt lat="40.425950" lon="-5.296917">
        <ele>2140.0</ele>
        <time>2014-06-30T12:09:12Z</time>
      </trkpt>
      <trkpt lat="40.425917" lon="-5.297017">
        <ele>2143.0</ele>
        <time>2014-06-30T12:09:13Z</time>
      </trkpt>
      <trkpt lat="40.425917" lon="-5.297133">
        <ele>2146.0</ele>
        <time>2014-06-30T12:09:14Z</time>
      </trkpt>
      <trkpt lat="40.425933" lon="-5.297217">
        <ele>2151.0</ele>
        <time>2014-06-30T12:09:15Z</time>
      </trkpt>
      <trkpt lat="40.425967" lon="-5.297300">
        <ele>2156.0</ele>
        <time>2014-06-30T12:09:16Z</time>
      </trkpt>
      <trkpt lat="40.425983" lon="-5.297383">
        <ele>2160.0</ele>
        <time>2014-06-30T12:09:17Z</time>
      </trkpt>
      <trkpt lat="40.426017" lon="-5.297467">
        <ele>2164.0</ele>
        <time>2014-06-30T12:09:18Z</time>
      </trkpt>
      <trkpt lat="40.426067" lon="-5.297533">
        <ele>2167.0</ele>
        <time>2014-06-30T12:09:19Z</time>
      </trkpt>
      <trkpt lat="40.426117" lon="-5.297600">
        <ele>2170.0</ele>
        <time>2014-06-30T12:09:20Z</time>
      </trkpt>
      <trkpt lat="40.426183" lon="-5.297650">
        <ele>2173.0</ele>
        <time>2014-06-30T12:09:21Z</time>
      </trkpt>
      <trkpt lat="40.426267" lon="-5.297667">
        <ele>2175.0</ele>
        <time>2014-06-30T12:09:22Z</time>
      </trkpt>
      <trkpt lat="40.426350" lon="-5.297617">
        <ele>2177.0</ele>
        <time>2014-06-30T12:09:23Z</time>
      </trkpt>
      <trkpt lat="40.426433" lon="-5.297533">
        <ele>2178.0</ele>
        <time>2014-06-30T12:09:24Z</time>
      </trkpt>
      <trkpt lat="40.426500" lon="-5.297400">
        <ele>2179.0</ele>
        <time>2014-06-30T12:09:25Z</time>
      </trkpt>
      <trkpt lat="40.426533" lon="-5.297250">
        <ele>2181.0</ele>
        <time>2014-06-30T12:09:26Z</time>
      </trkpt>
      <trkpt lat="40.426567" lon="-5.297083">
        <ele>2184.0</ele>
        <time>2014-06-30T12:09:27Z</time>
      </trkpt>
      <trkpt lat="40.426567" lon="-5.296933">
        <ele>2187.0</ele>
        <time>2014-06-30T12:09:28Z</time>
      </trkpt>
      <trkpt lat="40.426550" lon="-5.296783">
        <ele>2191.0</ele>
        <time>2014-06-30T12:09:29Z</time>
      </trkpt>
      <trkpt lat="40.426517" lon="-5.296633">
        <ele>2195.0</ele>
        <time>2014-06-30T12:09:30Z</time>
      </trkpt>
      <trkpt lat="40.426450" lon="-5.296500">
        <ele>2198.0</ele>
        <time>2014-06-30T12:09:31Z</time>
      </trkpt>
      <trkpt lat="40.426400" lon="-5.296367">
        <ele>2201.0</ele>
        <time>2014-06-30T12:09:32Z</time>
      </trkpt>
      <trkpt lat="40.426350" lon="-5.296233">
        <ele>2204.0</ele>
        <time>2014-06-30T12:09:33Z</time>
      </trkpt>
      <trkpt lat="40.426283" lon="-5.296117">
        <ele>2207.0</ele>
        <time>2014-06-30T12:09:34Z</time>
      </trkpt>
      <trkpt lat="40.426217" lon="-5.296000">
        <ele>2210.0</ele>
        <time>2014-06-30T12:09:35Z</time>
      </trkpt>
      <trkpt lat="40.426133" lon="-5.295900">
        <ele>2213.0</ele>
        <time>2014-06-30T12:09:36Z</time>
      </trkpt>
      <trkpt lat="40.426050" lon="-5.295833">
        <ele>2216.0</ele>
        <time>2014-06-30T12:09:37Z</time>
      </trkpt>
      <trkpt lat="40.425950" lon="-5.295783">
        <ele>2219.0</ele>
        <time>2014-06-30T12:09:38Z</time>
      </trkpt>
      <trkpt lat="40.425867" lon="-5.295783">
        <ele>2222.0</ele>
        <time>2014-06-30T12:09:39Z</time>
      </trkpt>
      <trkpt lat="40.425783" lon="-5.295817">
        <ele>2225.0</ele>
        <time>2014-06-30T12:09:40Z</time>
      </trkpt>
      <trkpt lat="40.425733" lon="-5.295867">
        <ele>2228.0</ele>
        <time>2014-06-30T12:09:41Z</time>
      </trkpt>
      <trkpt lat="40.425683" lon="-5.295933">
        <ele>2230.0</ele>
        <time>2014-06-30T12:09:42Z</time>
      </trkpt>
      <trkpt lat="40.425667" lon="-5.296017">
        <ele>2231.0</ele>
        <time>2014-06-30T12:09:43Z</time>
      </trkpt>
      <trkpt lat="40.425633" lon="-5.296100">
        <ele>2234.0</ele>
        <time>2014-06-30T12:09:44Z</time>
      </trkpt>
      <trkpt lat="40.425617" lon="-5.296200">
        <ele>2236.0</ele>
        <time>2014-06-30T12:09:45Z</time>
      </trkpt>
      <trkpt lat="40.425617" lon="-5.296283">
        <ele>2238.0</ele>
        <time>2014-06-30T12:09:46Z</time>
      </trkpt>
      <trkpt lat="40.425600" lon="-5.296367">
        <ele>2242.0</ele>
        <time>2014-06-30T12:09:47Z</time>
      </trkpt>
      <trkpt lat="40.425600" lon="-5.296433">
        <ele>2246.0</ele>
        <time>2014-06-30T12:09:48Z</time>
      </trkpt>
      <trkpt lat="40.425617" lon="-5.296500">
        <ele>2248.0</ele>
        <time>2014-06-30T12:09:49Z</time>
      </trkpt>
      <trkpt lat="40.425633" lon="-5.296583">
        <ele>2250.0</ele>
        <time>2014-06-30T12:09:50Z</time>
      </trkpt>
      <trkpt lat="40.425667" lon="-5.296667">
        <ele>2251.0</ele>
        <time>2014-06-30T12:09:51Z</time>
      </trkpt>
      <trkpt lat="40.425700" lon="-5.296750">
        <ele>2253.0</ele>
        <time>2014-06-30T12:09:52Z</time>
      </trkpt>
      <trkpt lat="40.425750" lon="-5.296817">
        <ele>2256.0</ele>
        <time>2014-06-30T12:09:53Z</time>
      </trkpt>
      <trkpt lat="40.425817" lon="-5.296867">
        <ele>2258.0</ele>
        <time>2014-06-30T12:09:54Z</time>
      </trkpt>
      <trkpt lat="40.425883" lon="-5.296900">
        <ele>2261.0</ele>
        <time>2014-06-30T12:09:55Z</time>
      </trkpt>
      <trkpt lat="40.425967" lon="-5.296917">
        <ele>2264.0</ele>
        <time>2014-06-30T12:09:56Z</time>
      </trkpt>
      <trkpt lat="40.426033" lon="-5.296933">
        <ele>2266.0</ele>
        <time>2014-06-30T12:09:57Z</time>
      </trkpt>
      <trkpt lat="40.426117" lon="-5.296950">
        <ele>2268.0</ele>
        <time>2014-06-30T12:09:58Z</time>
      </trkpt>
      <trkpt lat="40.426200" lon="-5.296950">
        <ele>2270.0</ele>
        <time>2014-06-30T12:09:59Z</time>
      </trkpt>
      <trkpt lat="40.426283" lon="-5.296933">
        <ele>2272.0</ele>
        <time>2014-06-30T12:10:00Z</time>
      </trkpt>
      <trkpt lat="40.426383" lon="-5.296900">
        <ele>2274.0</ele>
        <time>2014-06-30T12:10:01Z</time>
      </trkpt>
      <trkpt lat="40.426467" lon="-5.296817">
        <ele>2278.0</ele>
        <time>2014-06-30T12:10:02Z</time>
      </trkpt>
      <trkpt lat="40.426517" lon="-5.296717">
        <ele>2283.0</ele>
        <time>2014-06-30T12:10:03Z</time>
      </trkpt>
      <trkpt lat="40.426567" lon="-5.296600">
        <ele>2287.0</ele>
        <time>2014-06-30T12:10:04Z</time>
      </trkpt>
      <trkpt lat="40.426600" lon="-5.296467">
        <ele>2290.0</ele>
        <time>2014-06-30T12:10:05Z</time>
      </trkpt>
      <trkpt lat="40.426617" lon="-5.296300">
        <ele>2292.0</ele>
        <time>2014-06-30T12:10:06Z</time>
      </trkpt>
      <trkpt lat="40.426617" lon="-5.296150">
        <ele>2293.0</ele>
        <time>2014-06-30T12:10:07Z</time>
      </trkpt>
      <trkpt lat="40.426633" lon="-5.295967">
        <ele>2294.0</ele>
        <time>2014-06-30T12:10:08Z</time>
      </trkpt>
      <trkpt lat="40.426600" lon="-5.295817">
        <ele>2295.0</ele>
        <time>2014-06-30T12:10:09Z</time>
      </trkpt>
      <trkpt lat="40.426550" lon="-5.295683">
        <ele>2297.0</ele>
        <time>2014-06-30T12:10:10Z</time>
      </trkpt>
      <trkpt lat="40.426500" lon="-5.295600">
        <ele>2299.0</ele>
        <time>2014-06-30T12:10:11Z</time>
      </trkpt>
      <trkpt lat="40.426450" lon="-5.295517">
        <ele>2301.0</ele>
        <time>2014-06-30T12:10:12Z</time>
      </trkpt>
      <trkpt lat="40.426433" lon="-5.295400">
        <ele>2301.0</ele>
        <time>2014-06-30T12:10:13Z</time>
      </trkpt>
      <trkpt lat="40.426400" lon="-5.295267">
        <ele>2301.0</ele>
        <time>2014-06-30T12:10:14Z</time>
      </trkpt>
      <trkpt lat="40.426350" lon="-5.295117">
        <ele>2299.0</ele>
        <time>2014-06-30T12:10:15Z</time>
      </trkpt>
      <trkpt lat="40.426267" lon="-5.294983">
        <ele>2299.0</ele>
        <time>2014-06-30T12:10:16Z</time>
      </trkpt>
      <trkpt lat="40.426167" lon="-5.294900">
        <ele>2299.0</ele>
        <time>2014-06-30T12:10:17Z</time>
      </trkpt>
      <trkpt lat="40.426083" lon="-5.294883">
        <ele>2299.0</ele>
        <time>2014-06-30T12:10:18Z</time>
      </trkpt>
      <trkpt lat="40.426000" lon="-5.294883">
        <ele>2301.0</ele>
        <time>2014-06-30T12:10:19Z</time>
      </trkpt>
      <trkpt lat="40.425950" lon="-5.294917">
        <ele>2304.0</ele>
        <time>2014-06-30T12:10:20Z</time>
      </trkpt>
      <trkpt lat="40.425917" lon="-5.294950">
        <ele>2307.0</ele>
        <time>2014-06-30T12:10:21Z</time>
      </trkpt>
      <trkpt lat="40.425883" lon="-5.295000">
        <ele>2308.0</ele>
        <time>2014-06-30T12:10:22Z</time>
      </trkpt>
      <trkpt lat="40.425833" lon="-5.295050">
        <ele>2309.0</ele>
        <time>2014-06-30T12:10:23Z</time>
      </trkpt>
      <trkpt lat="40.425800" lon="-5.295117">
        <ele>2310.0</ele>
        <time>2014-06-30T12:10:24Z</time>
      </trkpt>
      <trkpt lat="40.425783" lon="-5.295200">
        <ele>2312.0</ele>
        <time>2014-06-30T12:10:25Z</time>
      </trkpt>
      <trkpt lat="40.425783" lon="-5.295267">
        <ele>2313.0</ele>
        <time>2014-06-30T12:10:26Z</time>
      </trkpt>
      <trkpt lat="40.425817" lon="-5.295333">
        <ele>2314.0</ele>
        <time>2014-06-30T12:10:27Z</time>
      </trkpt>
      <trkpt lat="40.425850" lon="-5.295383">
        <ele>2316.0</ele>
        <time>2014-06-30T12:10:28Z</time>
      </trkpt>
      <trkpt lat="40.425917" lon="-5.295433">
        <ele>2317.0</ele>
        <time>2014-06-30T12:10:29Z</time>
      </trkpt>
      <trkpt lat="40.425967" lon="-5.295467">
        <ele>2319.0</ele>
        <time>2014-06-30T12:10:30Z</time>
      </trkpt>
      <trkpt lat="40.426033" lon="-5.295517">
        <ele>2321.0</ele>
        <time>2014-06-30T12:10:31Z</time>
      </trkpt>
      <trkpt lat="40.426100" lon="-5.295533">
        <ele>2322.0</ele>
        <time>2014-06-30T12:10:32Z</time>
      </trkpt>
      <trkpt lat="40.426183" lon="-5.295550">
        <ele>2324.0</ele>
        <time>2014-06-30T12:10:33Z</time>
      </trkpt>
      <trkpt lat="40.426267" lon="-5.295533">
        <ele>2325.0</ele>
        <time>2014-06-30T12:10:34Z</time>
      </trkpt>
      <trkpt lat="40.426350" lon="-5.295517">
        <ele>2327.0</ele>
        <time>2014-06-30T12:10:35Z</time>
      </trkpt>
      <trkpt lat="40.426433" lon="-5.295467">
        <ele>2328.0</ele>
        <time>2014-06-30T12:10:36Z</time>
      </trkpt>
      <trkpt lat="40.426517" lon="-5.295433">
        <ele>2329.0</ele>
        <time>2014-06-30T12:10:37Z</time>
      </trkpt>
      <trkpt lat="40.426617" lon="-5.295383">
        <ele>2330.0</ele>
        <time>2014-06-30T12:10:38Z</time>
      </trkpt>
      <trkpt lat="40.426700" lon="-5.295350">
        <ele>2331.0</ele>
        <time>2014-06-30T12:10:39Z</time>
      </trkpt>
      <trkpt lat="40.426783" lon="-5.295317">
        <ele>2331.0</ele>
        <time>2014-06-30T12:10:40Z</time>
      </trkpt>
      <trkpt lat="40.426850" lon="-5.295283">
        <ele>2331.0</ele>
        <time>2014-06-30T12:10:41Z</time>
      </trkpt>
      <trkpt lat="40.426917" lon="-5.295250">
        <ele>2332.0</ele>
        <time>2014-06-30T12:10:42Z</time>
      </trkpt>
      <trkpt lat="40.426967" lon="-5.295217">
        <ele>2333.0</ele>
        <time>2014-06-30T12:10:43Z</time>
      </trkpt>
      <trkpt lat="40.427033" lon="-5.295167">
        <ele>2332.0</ele>
        <time>2014-06-30T12:10:44Z</time>
      </trkpt>
      <trkpt lat="40.427100" lon="-5.295150">
        <ele>2331.0</ele>
        <time>2014-06-30T12:10:45Z</time>
      </trkpt>
      <trkpt lat="40.427167" lon="-5.295133">
        <ele>2329.0</ele>
        <time>2014-06-30T12:10:46Z</time>
      </trkpt>
      <trkpt lat="40.427233" lon="-5.295100">
        <ele>2326.0</ele>
        <time>2014-06-30T12:10:47Z</time>
      </trkpt>
      <trkpt lat="40.427300" lon="-5.295067">
        <ele>2323.0</ele>
        <time>2014-06-30T12:10:48Z</time>
      </trkpt>
      <trkpt lat="40.427383" lon="-5.295033">
        <ele>2321.0</ele>
        <time>2014-06-30T12:10:49Z</time>
      </trkpt>
      <trkpt lat="40.427467" lon="-5.295000">
        <ele>2317.0</ele>
        <time>2014-06-30T12:10:50Z</time>
      </trkpt>
      <trkpt lat="40.427550" lon="-5.294967">
        <ele>2315.0</ele>
        <time>2014-06-30T12:10:51Z</time>
      </trkpt>
      <trkpt lat="40.427633" lon="-5.294950">
        <ele>2314.0</ele>
        <time>2014-06-30T12:10:52Z</time>
      </trkpt>
      <trkpt lat="40.427717" lon="-5.294900">
        <ele>2312.0</ele>
        <time>2014-06-30T12:10:53Z</time>
      </trkpt>
      <trkpt lat="40.427783" lon="-5.294833">
        <ele>2310.0</ele>
        <time>2014-06-30T12:10:54Z</time>
      </trkpt>
      <trkpt lat="40.427850" lon="-5.294783">
        <ele>2308.0</ele>
        <time>2014-06-30T12:10:55Z</time>
      </trkpt>
      <trkpt lat="40.427917" lon="-5.294733">
        <ele>2306.0</ele>
        <time>2014-06-30T12:10:56Z</time>
      </trkpt>
      <trkpt lat="40.428000" lon="-5.294717">
        <ele>2303.0</ele>
        <time>2014-06-30T12:10:57Z</time>
      </trkpt>
      <trkpt lat="40.428083" lon="-5.294683">
        <ele>2300.0</ele>
        <time>2014-06-30T12:10:58Z</time>
      </trkpt>
      <trkpt lat="40.428167" lon="-5.294633">
        <ele>2297.0</ele>
        <time>2014-06-30T12:10:59Z</time>
      </trkpt>
      <trkpt lat="40.428250" lon="-5.294583">
        <ele>2293.0</ele>
        <time>2014-06-30T12:11:00Z</time>
      </trkpt>
      <trkpt lat="40.428333" lon="-5.294533">
        <ele>2290.0</ele>
        <time>2014-06-30T12:11:01Z</time>
      </trkpt>
      <trkpt lat="40.428417" lon="-5.294483">
        <ele>2287.0</ele>
        <time>2014-06-30T12:11:02Z</time>
      </trkpt>
      <trkpt lat="40.428483" lon="-5.294450">
        <ele>2284.0</ele>
        <time>2014-06-30T12:11:03Z</time>
      </trkpt>
      <trkpt lat="40.428567" lon="-5.294417">
        <ele>2282.0</ele>
        <time>2014-06-30T12:11:04Z</time>
      </trkpt>
      <trkpt lat="40.428633" lon="-5.294367">
        <ele>2280.0</ele>
        <time>2014-06-30T12:11:05Z</time>
      </trkpt>
      <trkpt lat="40.428717" lon="-5.294317">
        <ele>2278.0</ele>
        <time>2014-06-30T12:11:06Z</time>
      </trkpt>
      <trkpt lat="40.428800" lon="-5.294283">
        <ele>2277.0</ele>
        <time>2014-06-30T12:11:07Z</time>
      </trkpt>
      <trkpt lat="40.428883" lon="-5.294233">
        <ele>2275.0</ele>
        <time>2014-06-30T12:11:08Z</time>
      </trkpt>
      <trkpt lat="40.428950" lon="-5.294200">
        <ele>2273.0</ele>
        <time>2014-06-30T12:11:09Z</time>
      </trkpt>
      <trkpt lat="40.429033" lon="-5.294150">
        <ele>2272.0</ele>
        <time>2014-06-30T12:11:10Z</time>
      </trkpt>
      <trkpt lat="40.429117" lon="-5.294100">
        <ele>2270.0</ele>
        <time>2014-06-30T12:11:11Z</time>
      </trkpt>
      <trkpt lat="40.429200" lon="-5.294033">
        <ele>2269.0</ele>
        <time>2014-06-30T12:11:12Z</time>
      </trkpt>
      <trkpt lat="40.429283" lon="-5.293967">
        <ele>2267.0</ele>
        <time>2014-06-30T12:11:13Z</time>
      </trkpt>
      <trkpt lat="40.429383" lon="-5.293917">
        <ele>2264.0</ele>
        <time>2014-06-30T12:11:14Z</time>
      </trkpt>
      <trkpt lat="40.429483" lon="-5.293850">
        <ele>2262.0</ele>
        <time>2014-06-30T12:11:15Z</time>
      </trkpt>
      <trkpt lat="40.429583" lon="-5.293800">
        <ele>2260.0</ele>
        <time>2014-06-30T12:11:16Z</time>
      </trkpt>
      <trkpt lat="40.429683" lon="-5.293717">
        <ele>2259.0</ele>
        <time>2014-06-30T12:11:17Z</time>
      </trkpt>
      <trkpt lat="40.429783" lon="-5.293667">
        <ele>2257.0</ele>
        <time>2014-06-30T12:11:18Z</time>
      </trkpt>
      <trkpt lat="40.429867" lon="-5.293600">
        <ele>2255.0</ele>
        <time>2014-06-30T12:11:19Z</time>
      </trkpt>
      <trkpt lat="40.429967" lon="-5.293550">
        <ele>2253.0</ele>
        <time>2014-06-30T12:11:20Z</time>
      </trkpt>
      <trkpt lat="40.430083" lon="-5.293500">
        <ele>2250.0</ele>
        <time>2014-06-30T12:11:21Z</time>
      </trkpt>
      <trkpt lat="40.430183" lon="-5.293450">
        <ele>2248.0</ele>
        <time>2014-06-30T12:11:22Z</time>
      </trkpt>
      <trkpt lat="40.430283" lon="-5.293400">
        <ele>2246.0</ele>
        <time>2014-06-30T12:11:23Z</time>
      </trkpt>
      <trkpt lat="40.430383" lon="-5.293367">
        <ele>2245.0</ele>
        <time>2014-06-30T12:11:24Z</time>
      </trkpt>
      <trkpt lat="40.430483" lon="-5.293317">
        <ele>2244.0</ele>
        <time>2014-06-30T12:11:25Z</time>
      </trkpt>
      <trkpt lat="40.430583" lon="-5.293267">
        <ele>2242.0</ele>
        <time>2014-06-30T12:11:26Z</time>
      </trkpt>
      <trkpt lat="40.430683" lon="-5.293217">
        <ele>2241.0</ele>
        <time>2014-06-30T12:11:27Z</time>
      </trkpt>
      <trkpt lat="40.430783" lon="-5.293167">
        <ele>2239.0</ele>
        <time>2014-06-30T12:11:28Z</time>
      </trkpt>
      <trkpt lat="40.430883" lon="-5.293117">
        <ele>2237.0</ele>
        <time>2014-06-30T12:11:29Z</time>
      </trkpt>
      <trkpt lat="40.431000" lon="-5.293067">
        <ele>2235.0</ele>
        <time>2014-06-30T12:11:30Z</time>
      </trkpt>
      <trkpt lat="40.431100" lon="-5.293033">
        <ele>2233.0</ele>
        <time>2014-06-30T12:11:31Z</time>
      </trkpt>
      <trkpt lat="40.431200" lon="-5.292983">
        <ele>2231.0</ele>
        <time>2014-06-30T12:11:32Z</time>
      </trkpt>
      <trkpt lat="40.431300" lon="-5.292933">
        <ele>2228.0</ele>
        <time>2014-06-30T12:11:33Z</time>
      </trkpt>
      <trkpt lat="40.431400" lon="-5.292900">
        <ele>2227.0</ele>
        <time>2014-06-30T12:11:34Z</time>
      </trkpt>
      <trkpt lat="40.431500" lon="-5.292850">
        <ele>2225.0</ele>
        <time>2014-06-30T12:11:35Z</time>
      </trkpt>
      <trkpt lat="40.431600" lon="-5.292783">
        <ele>2222.0</ele>
        <time>2014-06-30T12:11:36Z</time>
      </trkpt>
      <trkpt lat="40.431683" lon="-5.292717">
        <ele>2220.0</ele>
        <time>2014-06-30T12:11:37Z</time>
      </trkpt>
      <trkpt lat="40.431783" lon="-5.292650">
        <ele>2218.0</ele>
        <time>2014-06-30T12:11:38Z</time>
      </trkpt>
      <trkpt lat="40.431867" lon="-5.292600">
        <ele>2216.0</ele>
        <time>2014-06-30T12:11:39Z</time>
      </trkpt>
      <trkpt lat="40.431950" lon="-5.292567">
        <ele>2214.0</ele>
        <time>2014-06-30T12:11:40Z</time>
      </trkpt>
      <trkpt lat="40.432050" lon="-5.292517">
        <ele>2211.0</ele>
        <time>2014-06-30T12:11:41Z</time>
      </trkpt>
      <trkpt lat="40.432133" lon="-5.292450">
        <ele>2209.0</ele>
        <time>2014-06-30T12:11:42Z</time>
      </trkpt>
      <trkpt lat="40.432250" lon="-5.292400">
        <ele>2206.0</ele>
        <time>2014-06-30T12:11:43Z</time>
      </trkpt>
      <trkpt lat="40.432350" lon="-5.292333">
        <ele>2202.0</ele>
        <time>2014-06-30T12:11:44Z</time>
      </trkpt>
      <trkpt lat="40.432433" lon="-5.292283">
        <ele>2200.0</ele>
        <time>2014-06-30T12:11:45Z</time>
      </trkpt>
      <trkpt lat="40.432533" lon="-5.292200">
        <ele>2197.0</ele>
        <time>2014-06-30T12:11:46Z</time>
      </trkpt>
      <trkpt lat="40.432600" lon="-5.292133">
        <ele>2195.0</ele>
        <time>2014-06-30T12:11:47Z</time>
      </trkpt>
      <trkpt lat="40.432683" lon="-5.292083">
        <ele>2193.0</ele>
        <time>2014-06-30T12:11:48Z</time>
      </trkpt>
      <trkpt lat="40.432750" lon="-5.292033">
        <ele>2191.0</ele>
        <time>2014-06-30T12:11:49Z</time>
      </trkpt>
      <trkpt lat="40.432817" lon="-5.292000">
        <ele>2189.0</ele>
        <time>2014-06-30T12:11:50Z</time>
      </trkpt>
      <trkpt lat="40.432900" lon="-5.291967">
        <ele>2186.0</ele>
        <time>2014-06-30T12:11:51Z</time>
      </trkpt>
      <trkpt lat="40.432983" lon="-5.291950">
        <ele>2183.0</ele>
        <time>2014-06-30T12:11:52Z</time>
      </trkpt>
      <trkpt lat="40.433067" lon="-5.291950">
        <ele>2180.0</ele>
        <time>2014-06-30T12:11:53Z</time>
      </trkpt>
      <trkpt lat="40.433133" lon="-5.291950">
        <ele>2178.0</ele>
        <time>2014-06-30T12:11:54Z</time>
      </trkpt>
      <trkpt lat="40.433217" lon="-5.291933">
        <ele>2176.0</ele>
        <time>2014-06-30T12:11:55Z</time>
      </trkpt>
      <trkpt lat="40.433283" lon="-5.291917">
        <ele>2174.0</ele>
        <time>2014-06-30T12:11:56Z</time>
      </trkpt>
      <trkpt lat="40.433367" lon="-5.291917">
        <ele>2171.0</ele>
        <time>2014-06-30T12:11:57Z</time>
      </trkpt>
      <trkpt lat="40.433450" lon="-5.291917">
        <ele>2169.0</ele>
        <time>2014-06-30T12:11:58Z</time>
      </trkpt>
      <trkpt lat="40.433533" lon="-5.291917">
        <ele>2166.0</ele>
        <time>2014-06-30T12:11:59Z</time>
      </trkpt>
      <trkpt lat="40.433633" lon="-5.291917">
        <ele>2162.0</ele>
        <time>2014-06-30T12:12:00Z</time>
      </trkpt>
      <trkpt lat="40.433733" lon="-5.291917">
        <ele>2159.0</ele>
        <time>2014-06-30T12:12:01Z</time>
      </trkpt>
      <trkpt lat="40.433833" lon="-5.291917">
        <ele>2156.0</ele>
        <time>2014-06-30T12:12:02Z</time>
      </trkpt>
      <trkpt lat="40.433917" lon="-5.291917">
        <ele>2154.0</ele>
        <time>2014-06-30T12:12:03Z</time>
      </trkpt>
      <trkpt lat="40.434017" lon="-5.291933">
        <ele>2152.0</ele>
        <time>2014-06-30T12:12:04Z</time>
      </trkpt>
      <trkpt lat="40.434117" lon="-5.291933">
        <ele>2149.0</ele>
        <time>2014-06-30T12:12:05Z</time>
      </trkpt>
      <trkpt lat="40.434200" lon="-5.291917">
        <ele>2147.0</ele>
        <time>2014-06-30T12:12:06Z</time>
      </trkpt>
      <trkpt lat="40.434300" lon="-5.291900">
        <ele>2145.0</ele>
        <time>2014-06-30T12:12:07Z</time>
      </trkpt>
      <trkpt lat="40.434400" lon="-5.291900">
        <ele>2144.0</ele>
        <time>2014-06-30T12:12:08Z</time>
      </trkpt>
      <trkpt lat="40.434483" lon="-5.291883">
        <ele>2141.0</ele>
        <time>2014-06-30T12:12:09Z</time>
      </trkpt>
      <trkpt lat="40.434583" lon="-5.291867">
        <ele>2139.0</ele>
        <time>2014-06-30T12:12:10Z</time>
      </trkpt>
      <trkpt lat="40.434667" lon="-5.291850">
        <ele>2137.0</ele>
        <time>2014-06-30T12:12:11Z</time>
      </trkpt>
      <trkpt lat="40.434750" lon="-5.291817">
        <ele>2135.0</ele>
        <time>2014-06-30T12:12:12Z</time>
      </trkpt>
      <trkpt lat="40.434850" lon="-5.291783">
        <ele>2133.0</ele>
        <time>2014-06-30T12:12:13Z</time>
      </trkpt>
      <trkpt lat="40.434950" lon="-5.291767">
        <ele>2130.0</ele>
        <time>2014-06-30T12:12:14Z</time>
      </trkpt>
      <trkpt lat="40.435050" lon="-5.291733">
        <ele>2128.0</ele>
        <time>2014-06-30T12:12:15Z</time>
      </trkpt>
      <trkpt lat="40.435133" lon="-5.291683">
        <ele>2128.0</ele>
        <time>2014-06-30T12:12:16Z</time>
      </trkpt>
      <trkpt lat="40.435217" lon="-5.291633">
        <ele>2127.0</ele>
        <time>2014-06-30T12:12:17Z</time>
      </trkpt>
      <trkpt lat="40.435283" lon="-5.291583">
        <ele>2127.0</ele>
        <time>2014-06-30T12:12:18Z</time>
      </trkpt>
      <trkpt lat="40.435350" lon="-5.291517">
        <ele>2126.0</ele>
        <time>2014-06-30T12:12:19Z</time>
      </trkpt>
      <trkpt lat="40.435417" lon="-5.291450">
        <ele>2125.0</ele>
        <time>2014-06-30T12:12:20Z</time>
      </trkpt>
      <trkpt lat="40.435483" lon="-5.291400">
        <ele>2123.0</ele>
        <time>2014-06-30T12:12:21Z</time>
      </trkpt>
      <trkpt lat="40.435550" lon="-5.291333">
        <ele>2121.0</ele>
        <time>2014-06-30T12:12:22Z</time>
      </trkpt>
      <trkpt lat="40.435633" lon="-5.291283">
        <ele>2118.0</ele>
        <time>2014-06-30T12:12:23Z</time>
      </trkpt>
      <trkpt lat="40.435717" lon="-5.291233">
        <ele>2115.0</ele>
        <time>2014-06-30T12:12:24Z</time>
      </trkpt>
      <trkpt lat="40.435800" lon="-5.291200">
        <ele>2113.0</ele>
        <time>2014-06-30T12:12:25Z</time>
      </trkpt>
      <trkpt lat="40.435867" lon="-5.291150">
        <ele>2111.0</ele>
        <time>2014-06-30T12:12:26Z</time>
      </trkpt>
      <trkpt lat="40.435950" lon="-5.291117">
        <ele>2110.0</ele>
        <time>2014-06-30T12:12:27Z</time>
      </trkpt>
      <trkpt lat="40.436017" lon="-5.291083">
        <ele>2108.0</ele>
        <time>2014-06-30T12:12:28Z</time>
      </trkpt>
      <trkpt lat="40.436083" lon="-5.291033">
        <ele>2106.0</ele>
        <time>2014-06-30T12:12:29Z</time>
      </trkpt>
      <trkpt lat="40.436167" lon="-5.291000">
        <ele>2103.0</ele>
        <time>2014-06-30T12:12:30Z</time>
      </trkpt>
      <trkpt lat="40.436250" lon="-5.290967">
        <ele>2101.0</ele>
        <time>2014-06-30T12:12:31Z</time>
      </trkpt>
      <trkpt lat="40.436350" lon="-5.290933">
        <ele>2099.0</ele>
        <time>2014-06-30T12:12:32Z</time>
      </trkpt>
      <trkpt lat="40.436433" lon="-5.290900">
        <ele>2098.0</ele>
        <time>2014-06-30T12:12:33Z</time>
      </trkpt>
      <trkpt lat="40.436500" lon="-5.290850">
        <ele>2100.0</ele>
        <time>2014-06-30T12:12:34Z</time>
      </trkpt>
      <trkpt lat="40.436567" lon="-5.290783">
        <ele>2101.0</ele>
        <time>2014-06-30T12:12:35Z</time>
      </trkpt>
      <trkpt lat="40.436633" lon="-5.290733">
        <ele>2101.0</ele>
        <time>2014-06-30T12:12:36Z</time>
      </trkpt>
      <trkpt lat="40.436717" lon="-5.290683">
        <ele>2101.0</ele>
        <time>2014-06-30T12:12:37Z</time>
      </trkpt>
      <trkpt lat="40.436800" lon="-5.290633">
        <ele>2100.0</ele>
        <time>2014-06-30T12:12:38Z</time>
      </trkpt>
      <trkpt lat="40.436867" lon="-5.290583">
        <ele>2099.0</ele>
        <time>2014-06-30T12:12:39Z</time>
      </trkpt>
      <trkpt lat="40.436950" lon="-5.290533">
        <ele>2098.0</ele>
        <time>2014-06-30T12:12:40Z</time>
      </trkpt>
      <trkpt lat="40.437000" lon="-5.290500">
        <ele>2096.0</ele>
        <time>2014-06-30T12:12:41Z</time>
      </trkpt>
      <trkpt lat="40.437083" lon="-5.290450">
        <ele>2094.0</ele>
        <time>2014-06-30T12:12:42Z</time>
      </trkpt>
      <trkpt lat="40.437167" lon="-5.290400">
        <ele>2091.0</ele>
        <time>2014-06-30T12:12:43Z</time>
      </trkpt>
      <trkpt lat="40.437267" lon="-5.290333">
        <ele>2088.0</ele>
        <time>2014-06-30T12:12:44Z</time>
      </trkpt>
      <trkpt lat="40.437367" lon="-5.290283">
        <ele>2085.0</ele>
        <time>2014-06-30T12:12:45Z</time>
      </trkpt>
      <trkpt lat="40.437467" lon="-5.290233">
        <ele>2083.0</ele>
        <time>2014-06-30T12:12:46Z</time>
      </trkpt>
      <trkpt lat="40.437550" lon="-5.290183">
        <ele>2082.0</ele>
        <time>2014-06-30T12:12:47Z</time>
      </trkpt>
      <trkpt lat="40.437633" lon="-5.290133">
        <ele>2080.0</ele>
        <time>2014-06-30T12:12:48Z</time>
      </trkpt>
      <trkpt lat="40.437733" lon="-5.290100">
        <ele>2078.0</ele>
        <time>2014-06-30T12:12:49Z</time>
      </trkpt>
      <trkpt lat="40.437850" lon="-5.290050">
        <ele>2076.0</ele>
        <time>2014-06-30T12:12:50Z</time>
      </trkpt>
      <trkpt lat="40.437950" lon="-5.289983">
        <ele>2074.0</ele>
        <time>2014-06-30T12:12:51Z</time>
      </trkpt>
      <trkpt lat="40.438050" lon="-5.289933">
        <ele>2072.0</ele>
        <time>2014-06-30T12:12:52Z</time>
      </trkpt>
      <trkpt lat="40.438133" lon="-5.289883">
        <ele>2070.0</ele>
        <time>2014-06-30T12:12:53Z</time>
      </trkpt>
      <trkpt lat="40.438233" lon="-5.289833">
        <ele>2068.0</ele>
        <time>2014-06-30T12:12:54Z</time>
      </trkpt>
      <trkpt lat="40.438317" lon="-5.289783">
        <ele>2066.0</ele>
        <time>2014-06-30T12:12:55Z</time>
      </trkpt>
      <trkpt lat="40.438417" lon="-5.289750">
        <ele>2064.0</ele>
        <time>2014-06-30T12:12:56Z</time>
      </trkpt>
      <trkpt lat="40.438500" lon="-5.289717">
        <ele>2062.0</ele>
        <time>2014-06-30T12:12:57Z</time>
      </trkpt>
      <trkpt lat="40.438583" lon="-5.289683">
        <ele>2061.0</ele>
        <time>2014-06-30T12:12:58Z</time>
      </trkpt>
      <trkpt lat="40.438667" lon="-5.289633">
        <ele>2061.0</ele>
        <time>2014-06-30T12:12:59Z</time>
      </trkpt>
      <trkpt lat="40.438750" lon="-5.289600">
        <ele>2060.0</ele>
        <time>2014-06-30T12:13:00Z</time>
      </trkpt>
      <trkpt lat="40.438833" lon="-5.289550">
        <ele>2059.0</ele>
        <time>2014-06-30T12:13:01Z</time>
      </trkpt>
      <trkpt lat="40.438917" lon="-5.289500">
        <ele>2058.0</ele>
        <time>2014-06-30T12:13:02Z</time>
      </trkpt>
      <trkpt lat="40.439017" lon="-5.289467">
        <ele>2057.0</ele>
        <time>2014-06-30T12:13:03Z</time>
      </trkpt>
      <trkpt lat="40.439117" lon="-5.289417">
        <ele>2056.0</ele>
        <time>2014-06-30T12:13:04Z</time>
      </trkpt>
      <trkpt lat="40.439217" lon="-5.289383">
        <ele>2056.0</ele>
        <time>2014-06-30T12:13:05Z</time>
      </trkpt>
      <trkpt lat="40.439317" lon="-5.289333">
        <ele>2056.0</ele>
        <time>2014-06-30T12:13:06Z</time>
      </trkpt>
      <trkpt lat="40.439383" lon="-5.289267">
        <ele>2057.0</ele>
        <time>2014-06-30T12:13:07Z</time>
      </trkpt>
      <trkpt lat="40.439467" lon="-5.289217">
        <ele>2057.0</ele>
        <time>2014-06-30T12:13:08Z</time>
      </trkpt>
      <trkpt lat="40.439533" lon="-5.289167">
        <ele>2057.0</ele>
        <time>2014-06-30T12:13:09Z</time>
      </trkpt>
      <trkpt lat="40.439633" lon="-5.289133">
        <ele>2055.0</ele>
        <time>2014-06-30T12:13:10Z</time>
      </trkpt>
      <trkpt lat="40.439733" lon="-5.289100">
        <ele>2053.0</ele>
        <time>2014-06-30T12:13:11Z</time>
      </trkpt>
      <trkpt lat="40.439833" lon="-5.289067">
        <ele>2051.0</ele>
        <time>2014-06-30T12:13:12Z</time>
      </trkpt>
      <trkpt lat="40.439933" lon="-5.289050">
        <ele>2049.0</ele>
        <time>2014-06-30T12:13:13Z</time>
      </trkpt>
      <trkpt lat="40.440017" lon="-5.289017">
        <ele>2047.0</ele>
        <time>2014-06-30T12:13:14Z</time>
      </trkpt>
      <trkpt lat="40.440100" lon="-5.288983">
        <ele>2045.0</ele>
        <time>2014-06-30T12:13:15Z</time>
      </trkpt>
      <trkpt lat="40.440200" lon="-5.288950">
        <ele>2042.0</ele>
        <time>2014-06-30T12:13:16Z</time>
      </trkpt>
      <trkpt lat="40.440300" lon="-5.288900">
        <ele>2040.0</ele>
        <time>2014-06-30T12:13:17Z</time>
      </trkpt>
      <trkpt lat="40.440400" lon="-5.288867">
        <ele>2037.0</ele>
        <time>2014-06-30T12:13:18Z</time>
      </trkpt>
      <trkpt lat="40.440500" lon="-5.288850">
        <ele>2034.0</ele>
        <time>2014-06-30T12:13:19Z</time>
      </trkpt>
      <trkpt lat="40.440600" lon="-5.288817">
        <ele>2031.0</ele>
        <time>2014-06-30T12:13:20Z</time>
      </trkpt>
      <trkpt lat="40.440700" lon="-5.288783">
        <ele>2028.0</ele>
        <time>2014-06-30T12:13:21Z</time>
      </trkpt>
      <trkpt lat="40.440800" lon="-5.288733">
        <ele>2025.0</ele>
        <time>2014-06-30T12:13:22Z</time>
      </trkpt>
      <trkpt lat="40.440917" lon="-5.288683">
        <ele>2022.0</ele>
        <time>2014-06-30T12:13:23Z</time>
      </trkpt>
      <trkpt lat="40.441017" lon="-5.288633">
        <ele>2019.0</ele>
        <time>2014-06-30T12:13:24Z</time>
      </trkpt>
      <trkpt lat="40.441100" lon="-5.288583">
        <ele>2017.0</ele>
        <time>2014-06-30T12:13:25Z</time>
      </trkpt>
      <trkpt lat="40.441183" lon="-5.288550">
        <ele>2015.0</ele>
        <time>2014-06-30T12:13:26Z</time>
      </trkpt>
      <trkpt lat="40.441267" lon="-5.288500">
        <ele>2012.0</ele>
        <time>2014-06-30T12:13:27Z</time>
      </trkpt>
      <trkpt lat="40.441367" lon="-5.288450">
        <ele>2009.0</ele>
        <time>2014-06-30T12:13:28Z</time>
      </trkpt>
      <trkpt lat="40.441467" lon="-5.288367">
        <ele>2006.0</ele>
        <time>2014-06-30T12:13:29Z</time>
      </trkpt>
      <trkpt lat="40.441533" lon="-5.288283">
        <ele>2004.0</ele>
        <time>2014-06-30T12:13:30Z</time>
      </trkpt>
      <trkpt lat="40.441600" lon="-5.288183">
        <ele>2002.0</ele>
        <time>2014-06-30T12:13:31Z</time>
      </trkpt>
      <trkpt lat="40.441667" lon="-5.288100">
        <ele>2000.0</ele>
        <time>2014-06-30T12:13:32Z</time>
      </trkpt>
      <trkpt lat="40.441733" lon="-5.288000">
        <ele>1998.0</ele>
        <time>2014-06-30T12:13:33Z</time>
      </trkpt>
      <trkpt lat="40.441800" lon="-5.287917">
        <ele>1996.0</ele>
        <time>2014-06-30T12:13:34Z</time>
      </trkpt>
      <trkpt lat="40.441867" lon="-5.287817">
        <ele>1993.0</ele>
        <time>2014-06-30T12:13:35Z</time>
      </trkpt>
      <trkpt lat="40.441933" lon="-5.287717">
        <ele>1991.0</ele>
        <time>2014-06-30T12:13:36Z</time>
      </trkpt>
      <trkpt lat="40.442000" lon="-5.287633">
        <ele>1988.0</ele>
        <time>2014-06-30T12:13:37Z</time>
      </trkpt>
      <trkpt lat="40.442067" lon="-5.287567">
        <ele>1986.0</ele>
        <time>2014-06-30T12:13:38Z</time>
      </trkpt>
      <trkpt lat="40.442133" lon="-5.287500">
        <ele>1982.0</ele>
        <time>2014-06-30T12:13:39Z</time>
      </trkpt>
      <trkpt lat="40.442200" lon="-5.287417">
        <ele>1978.0</ele>
        <time>2014-06-30T12:13:40Z</time>
      </trkpt>
      <trkpt lat="40.442283" lon="-5.287317">
        <ele>1975.0</ele>
        <time>2014-06-30T12:13:41Z</time>
      </trkpt>
      <trkpt lat="40.442367" lon="-5.287250">
        <ele>1971.0</ele>
        <time>2014-06-30T12:13:42Z</time>
      </trkpt>
      <trkpt lat="40.442467" lon="-5.287183">
        <ele>1969.0</ele>
        <time>2014-06-30T12:13:43Z</time>
      </trkpt>
      <trkpt lat="40.442567" lon="-5.287167">
        <ele>1967.0</ele>
        <time>2014-06-30T12:13:44Z</time>
      </trkpt>
      <trkpt lat="40.442667" lon="-5.287150">
        <ele>1969.0</ele>
        <time>2014-06-30T12:13:45Z</time>
      </trkpt>
      <trkpt lat="40.442733" lon="-5.287133">
        <ele>1970.0</ele>
        <time>2014-06-30T12:13:46Z</time>
      </trkpt>
      <trkpt lat="40.442817" lon="-5.287117">
        <ele>1970.0</ele>
        <time>2014-06-30T12:13:47Z</time>
      </trkpt>
      <trkpt lat="40.442900" lon="-5.287083">
        <ele>1970.0</ele>
        <time>2014-06-30T12:13:48Z</time>
      </trkpt>
      <trkpt lat="40.442983" lon="-5.287050">
        <ele>1970.0</ele>
        <time>2014-06-30T12:13:49Z</time>
      </trkpt>
      <trkpt lat="40.443083" lon="-5.287017">
        <ele>1971.0</ele>
        <time>2014-06-30T12:13:50Z</time>
      </trkpt>
      <trkpt lat="40.443167" lon="-5.287000">
        <ele>1972.0</ele>
        <time>2014-06-30T12:13:51Z</time>
      </trkpt>
      <trkpt lat="40.443250" lon="-5.286967">
        <ele>1973.0</ele>
        <time>2014-06-30T12:13:52Z</time>
      </trkpt>
      <trkpt lat="40.443333" lon="-5.286950">
        <ele>1976.0</ele>
        <time>2014-06-30T12:13:53Z</time>
      </trkpt>
      <trkpt lat="40.443383" lon="-5.286933">
        <ele>1978.0</ele>
        <time>2014-06-30T12:13:54Z</time>
      </trkpt>
      <trkpt lat="40.443450" lon="-5.286933">
        <ele>1979.0</ele>
        <time>2014-06-30T12:13:55Z</time>
      </trkpt>
      <trkpt lat="40.443517" lon="-5.286917">
        <ele>1979.0</ele>
        <time>2014-06-30T12:13:56Z</time>
      </trkpt>
      <trkpt lat="40.443600" lon="-5.286900">
        <ele>1979.0</ele>
        <time>2014-06-30T12:13:57Z</time>
      </trkpt>
      <trkpt lat="40.443667" lon="-5.286833">
        <ele>1980.0</ele>
        <time>2014-06-30T12:13:58Z</time>
      </trkpt>
      <trkpt lat="40.443733" lon="-5.286750">
        <ele>1980.0</ele>
        <time>2014-06-30T12:13:59Z</time>
      </trkpt>
      <trkpt lat="40.443767" lon="-5.286633">
        <ele>1981.0</ele>
        <time>2014-06-30T12:14:00Z</time>
      </trkpt>
      <trkpt lat="40.443767" lon="-5.286500">
        <ele>1981.0</ele>
        <time>2014-06-30T12:14:01Z</time>
      </trkpt>
      <trkpt lat="40.443750" lon="-5.286367">
        <ele>1982.0</ele>
        <time>2014-06-30T12:14:02Z</time>
      </trkpt>
      <trkpt lat="40.443700" lon="-5.286267">
        <ele>1983.0</ele>
        <time>2014-06-30T12:14:03Z</time>
      </trkpt>
      <trkpt lat="40.443617" lon="-5.286200">
        <ele>1984.0</ele>
        <time>2014-06-30T12:14:04Z</time>
      </trkpt>
      <trkpt lat="40.443517" lon="-5.286167">
        <ele>1985.0</ele>
        <time>2014-06-30T12:14:05Z</time>
      </trkpt>
      <trkpt lat="40.443433" lon="-5.286183">
        <ele>1986.0</ele>
        <time>2014-06-30T12:14:06Z</time>
      </trkpt>
      <trkpt lat="40.443350" lon="-5.286217">
        <ele>1987.0</ele>
        <time>2014-06-30T12:14:07Z</time>
      </trkpt>
      <trkpt lat="40.443283" lon="-5.286267">
        <ele>1988.0</ele>
        <time>2014-06-30T12:14:08Z</time>
      </trkpt>
      <trkpt lat="40.443217" lon="-5.286350">
        <ele>1988.0</ele>
        <time>2014-06-30T12:14:09Z</time>
      </trkpt>
      <trkpt lat="40.443183" lon="-5.286450">
        <ele>1989.0</ele>
        <time>2014-06-30T12:14:10Z</time>
      </trkpt>
      <trkpt lat="40.443167" lon="-5.286567">
        <ele>1990.0</ele>
        <time>2014-06-30T12:14:11Z</time>
      </trkpt>
      <trkpt lat="40.443183" lon="-5.286683">
        <ele>1991.0</ele>
        <time>2014-06-30T12:14:12Z</time>
      </trkpt>
      <trkpt lat="40.443217" lon="-5.286783">
        <ele>1991.0</ele>
        <time>2014-06-30T12:14:13Z</time>
      </trkpt>
      <trkpt lat="40.443267" lon="-5.286867">
        <ele>1993.0</ele>
        <time>2014-06-30T12:14:14Z</time>
      </trkpt>
      <trkpt lat="40.443333" lon="-5.286950">
        <ele>1993.0</ele>
        <time>2014-06-30T12:14:15Z</time>
      </trkpt>
      <trkpt lat="40.443400" lon="-5.287033">
        <ele>1994.0</ele>
        <time>2014-06-30T12:14:16Z</time>
      </trkpt>
      <trkpt lat="40.443467" lon="-5.287117">
        <ele>1995.0</ele>
        <time>2014-06-30T12:14:17Z</time>
      </trkpt>
      <trkpt lat="40.443533" lon="-5.287183">
        <ele>1995.0</ele>
        <time>2014-06-30T12:14:18Z</time>
      </trkpt>
      <trkpt lat="40.443617" lon="-5.287233">
        <ele>1996.0</ele>
        <time>2014-06-30T12:14:19Z</time>
      </trkpt>
      <trkpt lat="40.443717" lon="-5.287283">
        <ele>1998.0</ele>
        <time>2014-06-30T12:14:20Z</time>
      </trkpt>
      <trkpt lat="40.443800" lon="-5.287317">
        <ele>2000.0</ele>
        <time>2014-06-30T12:14:21Z</time>
      </trkpt>
      <trkpt lat="40.443883" lon="-5.287333">
        <ele>2003.0</ele>
        <time>2014-06-30T12:14:22Z</time>
      </trkpt>
      <trkpt lat="40.443967" lon="-5.287367">
        <ele>2005.0</ele>
        <time>2014-06-30T12:14:23Z</time>
      </trkpt>
      <trkpt lat="40.444050" lon="-5.287383">
        <ele>2007.0</ele>
        <time>2014-06-30T12:14:24Z</time>
      </trkpt>
      <trkpt lat="40.444133" lon="-5.287383">
        <ele>2008.0</ele>
        <time>2014-06-30T12:14:25Z</time>
      </trkpt>
      <trkpt lat="40.444217" lon="-5.287367">
        <ele>2011.0</ele>
        <time>2014-06-30T12:14:26Z</time>
      </trkpt>
      <trkpt lat="40.444283" lon="-5.287350">
        <ele>2013.0</ele>
        <time>2014-06-30T12:14:27Z</time>
      </trkpt>
      <trkpt lat="40.444367" lon="-5.287317">
        <ele>2015.0</ele>
        <time>2014-06-30T12:14:28Z</time>
      </trkpt>
      <trkpt lat="40.444433" lon="-5.287267">
        <ele>2017.0</ele>
        <time>2014-06-30T12:14:29Z</time>
      </trkpt>
      <trkpt lat="40.444500" lon="-5.287217">
        <ele>2019.0</ele>
        <time>2014-06-30T12:14:30Z</time>
      </trkpt>
      <trkpt lat="40.444567" lon="-5.287167">
        <ele>2021.0</ele>
        <time>2014-06-30T12:14:31Z</time>
      </trkpt>
      <trkpt lat="40.444633" lon="-5.287117">
        <ele>2023.0</ele>
        <time>2014-06-30T12:14:32Z</time>
      </trkpt>
      <trkpt lat="40.444683" lon="-5.287050">
        <ele>2025.0</ele>
        <time>2014-06-30T12:14:33Z</time>
      </trkpt>
      <trkpt lat="40.444750" lon="-5.287000">
        <ele>2027.0</ele>
        <time>2014-06-30T12:14:34Z</time>
      </trkpt>
      <trkpt lat="40.444817" lon="-5.286950">
        <ele>2029.0</ele>
        <time>2014-06-30T12:14:35Z</time>
      </trkpt>
      <trkpt lat="40.444883" lon="-5.286883">
        <ele>2030.0</ele>
        <time>2014-06-30T12:14:36Z</time>
      </trkpt>
      <trkpt lat="40.444933" lon="-5.286817">
        <ele>2032.0</ele>
        <time>2014-06-30T12:14:37Z</time>
      </trkpt>
      <trkpt lat="40.444983" lon="-5.286733">
        <ele>2034.0</ele>
        <time>2014-06-30T12:14:38Z</time>
      </trkpt>
      <trkpt lat="40.445000" lon="-5.286617">
        <ele>2036.0</ele>
        <time>2014-06-30T12:14:39Z</time>
      </trkpt>
      <trkpt lat="40.445000" lon="-5.286500">
        <ele>2037.0</ele>
        <time>2014-06-30T12:14:40Z</time>
      </trkpt>
      <trkpt lat="40.444967" lon="-5.286367">
        <ele>2038.0</ele>
        <time>2014-06-30T12:14:41Z</time>
      </trkpt>
      <trkpt lat="40.444933" lon="-5.286233">
        <ele>2039.0</ele>
        <time>2014-06-30T12:14:42Z</time>
      </trkpt>
      <trkpt lat="40.444883" lon="-5.286117">
        <ele>2041.0</ele>
        <time>2014-06-30T12:14:43Z</time>
      </trkpt>
      <trkpt lat="40.444817" lon="-5.286033">
        <ele>2042.0</ele>
        <time>2014-06-30T12:14:44Z</time>
      </trkpt>
      <trkpt lat="40.444733" lon="-5.285983">
        <ele>2044.0</ele>
        <time>2014-06-30T12:14:45Z</time>
      </trkpt>
      <trkpt lat="40.444650" lon="-5.285967">
        <ele>2046.0</ele>
        <time>2014-06-30T12:14:46Z</time>
      </trkpt>
      <trkpt lat="40.444583" lon="-5.285983">
        <ele>2048.0</ele>
        <time>2014-06-30T12:14:47Z</time>
      </trkpt>
      <trkpt lat="40.444533" lon="-5.286000">
        <ele>2050.0</ele>
        <time>2014-06-30T12:14:48Z</time>
      </trkpt>
      <trkpt lat="40.444500" lon="-5.286050">
        <ele>2051.0</ele>
        <time>2014-06-30T12:14:49Z</time>
      </trkpt>
      <trkpt lat="40.444450" lon="-5.286100">
        <ele>2052.0</ele>
        <time>2014-06-30T12:14:50Z</time>
      </trkpt>
      <trkpt lat="40.444367" lon="-5.286167">
        <ele>2053.0</ele>
        <time>2014-06-30T12:14:51Z</time>
      </trkpt>
      <trkpt lat="40.444317" lon="-5.286250">
        <ele>2054.0</ele>
        <time>2014-06-30T12:14:52Z</time>
      </trkpt>
      <trkpt lat="40.444283" lon="-5.286350">
        <ele>2055.0</ele>
        <time>2014-06-30T12:14:53Z</time>
      </trkpt>
      <trkpt lat="40.444300" lon="-5.286450">
        <ele>2057.0</ele>
        <time>2014-06-30T12:14:54Z</time>
      </trkpt>
      <trkpt lat="40.444333" lon="-5.286533">
        <ele>2059.0</ele>
        <time>2014-06-30T12:14:55Z</time>
      </trkpt>
      <trkpt lat="40.444367" lon="-5.286617">
        <ele>2061.0</ele>
        <time>2014-06-30T12:14:56Z</time>
      </trkpt>
      <trkpt lat="40.444417" lon="-5.286683">
        <ele>2063.0</ele>
        <time>2014-06-30T12:14:57Z</time>
      </trkpt>
      <trkpt lat="40.444467" lon="-5.286767">
        <ele>2065.0</ele>
        <time>2014-06-30T12:14:58Z</time>
      </trkpt>
      <trkpt lat="40.444517" lon="-5.286833">
        <ele>2067.0</ele>
        <time>2014-06-30T12:14:59Z</time>
      </trkpt>
      <trkpt lat="40.444583" lon="-5.286867">
        <ele>2070.0</ele>
        <time>2014-06-30T12:15:00Z</time>
      </trkpt>
      <trkpt lat="40.444667" lon="-5.286867">
        <ele>2072.0</ele>
        <time>2014-06-30T12:15:01Z</time>
      </trkpt>
      <trkpt lat="40.444733" lon="-5.286833">
        <ele>2074.0</ele>
        <time>2014-06-30T12:15:02Z</time>
      </trkpt>
      <trkpt lat="40.444817" lon="-5.286783">
        <ele>2077.0</ele>
        <time>2014-06-30T12:15:03Z</time>
      </trkpt>
      <trkpt lat="40.444883" lon="-5.286700">
        <ele>2079.0</ele>
        <time>2014-06-30T12:15:04Z</time>
      </trkpt>
      <trkpt lat="40.444950" lon="-5.286633">
        <ele>2082.0</ele>
        <time>2014-06-30T12:15:05Z</time>
      </trkpt>
      <trkpt lat="40.445000" lon="-5.286550">
        <ele>2085.0</ele>
        <time>2014-06-30T12:15:06Z</time>
      </trkpt>
      <trkpt lat="40.445033" lon="-5.286450">
        <ele>2088.0</ele>
        <time>2014-06-30T12:15:07Z</time>
      </trkpt>
      <trkpt lat="40.445067" lon="-5.286333">
        <ele>2090.0</ele>
        <time>2014-06-30T12:15:08Z</time>
      </trkpt>
      <trkpt lat="40.445100" lon="-5.286233">
        <ele>2091.0</ele>
        <time>2014-06-30T12:15:09Z</time>
      </trkpt>
      <trkpt lat="40.445133" lon="-5.286133">
        <ele>2092.0</ele>
        <time>2014-06-30T12:15:10Z</time>
      </trkpt>
      <trkpt lat="40.445133" lon="-5.286033">
        <ele>2093.0</ele>
        <time>2014-06-30T12:15:11Z</time>
      </trkpt>
      <trkpt lat="40.445100" lon="-5.285933">
        <ele>2093.0</ele>
        <time>2014-06-30T12:15:12Z</time>
      </trkpt>
      <trkpt lat="40.445050" lon="-5.285833">
        <ele>2093.0</ele>
        <time>2014-06-30T12:15:13Z</time>
      </trkpt>
      <trkpt lat="40.444983" lon="-5.285750">
        <ele>2093.0</ele>
        <time>2014-06-30T12:15:14Z</time>
      </trkpt>
      <trkpt lat="40.444900" lon="-5.285667">
        <ele>2092.0</ele>
        <time>2014-06-30T12:15:15Z</time>
      </trkpt>
      <trkpt lat="40.444817" lon="-5.285617">
        <ele>2092.0</ele>
        <time>2014-06-30T12:15:16Z</time>
      </trkpt>
      <trkpt lat="40.444717" lon="-5.285583">
        <ele>2092.0</ele>
        <time>2014-06-30T12:15:17Z</time>
      </trkpt>
      <trkpt lat="40.444617" lon="-5.285583">
        <ele>2094.0</ele>
        <time>2014-06-30T12:15:18Z</time>
      </trkpt>
      <trkpt lat="40.444533" lon="-5.285600">
        <ele>2095.0</ele>
        <time>2014-06-30T12:15:19Z</time>
      </trkpt>
      <trkpt lat="40.444483" lon="-5.285633">
        <ele>2096.0</ele>
        <time>2014-06-30T12:15:20Z</time>
      </trkpt>
      <trkpt lat="40.444417" lon="-5.285683">
        <ele>2097.0</ele>
        <time>2014-06-30T12:15:21Z</time>
      </trkpt>
      <trkpt lat="40.444367" lon="-5.285767">
        <ele>2098.0</ele>
        <time>2014-06-30T12:15:22Z</time>
      </trkpt>
      <trkpt lat="40.444333" lon="-5.285850">
        <ele>2098.0</ele>
        <time>2014-06-30T12:15:23Z</time>
      </trkpt>
      <trkpt lat="40.444317" lon="-5.285950">
        <ele>2099.0</ele>
        <time>2014-06-30T12:15:24Z</time>
      </trkpt>
      <trkpt lat="40.444317" lon="-5.286050">
        <ele>2099.0</ele>
        <time>2014-06-30T12:15:25Z</time>
      </trkpt>
      <trkpt lat="40.444350" lon="-5.286150">
        <ele>2101.0</ele>
        <time>2014-06-30T12:15:26Z</time>
      </trkpt>
      <trkpt lat="40.444383" lon="-5.286233">
        <ele>2104.0</ele>
        <time>2014-06-30T12:15:27Z</time>
      </trkpt>
      <trkpt lat="40.444400" lon="-5.286317">
        <ele>2110.0</ele>
        <time>2014-06-30T12:15:28Z</time>
      </trkpt>
      <trkpt lat="40.444433" lon="-5.286400">
        <ele>2113.0</ele>
        <time>2014-06-30T12:15:29Z</time>
      </trkpt>
      <trkpt lat="40.444467" lon="-5.286483">
        <ele>2117.0</ele>
        <time>2014-06-30T12:15:30Z</time>
      </trkpt>
      <trkpt lat="40.444517" lon="-5.286550">
        <ele>2121.0</ele>
        <time>2014-06-30T12:15:31Z</time>
      </trkpt>
      <trkpt lat="40.444567" lon="-5.286583">
        <ele>2126.0</ele>
        <time>2014-06-30T12:15:32Z</time>
      </trkpt>
      <trkpt lat="40.444633" lon="-5.286600">
        <ele>2129.0</ele>
        <time>2014-06-30T12:15:33Z</time>
      </trkpt>
      <trkpt lat="40.444717" lon="-5.286550">
        <ele>2132.0</ele>
        <time>2014-06-30T12:15:34Z</time>
      </trkpt>
      <trkpt lat="40.444783" lon="-5.286483">
        <ele>2135.0</ele>
        <time>2014-06-30T12:15:35Z</time>
      </trkpt>
      <trkpt lat="40.444817" lon="-5.286400">
        <ele>2138.0</ele>
        <time>2014-06-30T12:15:36Z</time>
      </trkpt>
      <trkpt lat="40.444833" lon="-5.286317">
        <ele>2141.0</ele>
        <time>2014-06-30T12:15:37Z</time>
      </trkpt>
      <trkpt lat="40.444850" lon="-5.286233">
        <ele>2143.0</ele>
        <time>2014-06-30T12:15:38Z</time>
      </trkpt>
      <trkpt lat="40.444883" lon="-5.286150">
        <ele>2144.0</ele>
        <time>2014-06-30T12:15:39Z</time>
      </trkpt>
      <trkpt lat="40.444917" lon="-5.286067">
        <ele>2145.0</ele>
        <time>2014-06-30T12:15:40Z</time>
      </trkpt>
      <trkpt lat="40.444917" lon="-5.285967">
        <ele>2145.0</ele>
        <time>2014-06-30T12:15:41Z</time>
      </trkpt>
      <trkpt lat="40.444900" lon="-5.285867">
        <ele>2145.0</ele>
        <time>2014-06-30T12:15:42Z</time>
      </trkpt>
      <trkpt lat="40.444850" lon="-5.285750">
        <ele>2145.0</ele>
        <time>2014-06-30T12:15:43Z</time>
      </trkpt>
      <trkpt lat="40.444800" lon="-5.285650">
        <ele>2144.0</ele>
        <time>2014-06-30T12:15:44Z</time>
      </trkpt>
      <trkpt lat="40.444750" lon="-5.285567">
        <ele>2144.0</ele>
        <time>2014-06-30T12:15:45Z</time>
      </trkpt>
      <trkpt lat="40.444667" lon="-5.285483">
        <ele>2144.0</ele>
        <time>2014-06-30T12:15:46Z</time>
      </trkpt>
      <trkpt lat="40.444567" lon="-5.285433">
        <ele>2144.0</ele>
        <time>2014-06-30T12:15:47Z</time>
      </trkpt>
      <trkpt lat="40.444450" lon="-5.285433">
        <ele>2143.0</ele>
        <time>2014-06-30T12:15:48Z</time>
      </trkpt>
      <trkpt lat="40.444350" lon="-5.285433">
        <ele>2143.0</ele>
        <time>2014-06-30T12:15:49Z</time>
      </trkpt>
      <trkpt lat="40.444250" lon="-5.285450">
        <ele>2145.0</ele>
        <time>2014-06-30T12:15:50Z</time>
      </trkpt>
      <trkpt lat="40.444150" lon="-5.285467">
        <ele>2149.0</ele>
        <time>2014-06-30T12:15:51Z</time>
      </trkpt>
      <trkpt lat="40.444083" lon="-5.285517">
        <ele>2152.0</ele>
        <time>2014-06-30T12:15:52Z</time>
      </trkpt>
      <trkpt lat="40.444017" lon="-5.285550">
        <ele>2155.0</ele>
        <time>2014-06-30T12:15:53Z</time>
      </trkpt>
      <trkpt lat="40.443950" lon="-5.285600">
        <ele>2156.0</ele>
        <time>2014-06-30T12:15:54Z</time>
      </trkpt>
      <trkpt lat="40.443883" lon="-5.285667">
        <ele>2158.0</ele>
        <time>2014-06-30T12:15:55Z</time>
      </trkpt>
      <trkpt lat="40.443817" lon="-5.285750">
        <ele>2159.0</ele>
        <time>2014-06-30T12:15:56Z</time>
      </trkpt>
      <trkpt lat="40.443750" lon="-5.285833">
        <ele>2161.0</ele>
        <time>2014-06-30T12:15:57Z</time>
      </trkpt>
      <trkpt lat="40.443700" lon="-5.285933">
        <ele>2162.0</ele>
        <time>2014-06-30T12:15:58Z</time>
      </trkpt>
      <trkpt lat="40.443667" lon="-5.286033">
        <ele>2163.0</ele>
        <time>2014-06-30T12:15:59Z</time>
      </trkpt>
      <trkpt lat="40.443650" lon="-5.286133">
        <ele>2165.0</ele>
        <time>2014-06-30T12:16:00Z</time>
      </trkpt>
      <trkpt lat="40.443650" lon="-5.286233">
        <ele>2167.0</ele>
        <time>2014-06-30T12:16:01Z</time>
      </trkpt>
      <trkpt lat="40.443667" lon="-5.286333">
        <ele>2169.0</ele>
        <time>2014-06-30T12:16:02Z</time>
      </trkpt>
      <trkpt lat="40.443683" lon="-5.286417">
        <ele>2170.0</ele>
        <time>2014-06-30T12:16:03Z</time>
      </trkpt>
      <trkpt lat="40.443733" lon="-5.286500">
        <ele>2171.0</ele>
        <time>2014-06-30T12:16:04Z</time>
      </trkpt>
      <trkpt lat="40.443783" lon="-5.286550">
        <ele>2173.0</ele>
        <time>2014-06-30T12:16:05Z</time>
      </trkpt>
      <trkpt lat="40.443867" lon="-5.286583">
        <ele>2176.0</ele>
        <time>2014-06-30T12:16:06Z</time>
      </trkpt>
      <trkpt lat="40.443950" lon="-5.286583">
        <ele>2178.0</ele>
        <time>2014-06-30T12:16:07Z</time>
      </trkpt>
      <trkpt lat="40.444017" lon="-5.286567">
        <ele>2181.0</ele>
        <time>2014-06-30T12:16:08Z</time>
      </trkpt>
      <trkpt lat="40.444083" lon="-5.286517">
        <ele>2185.0</ele>
        <time>2014-06-30T12:16:09Z</time>
      </trkpt>
      <trkpt lat="40.444150" lon="-5.286483">
        <ele>2187.0</ele>
        <time>2014-06-30T12:16:10Z</time>
      </trkpt>
      <trkpt lat="40.444217" lon="-5.286467">
        <ele>2189.0</ele>
        <time>2014-06-30T12:16:11Z</time>
      </trkpt>
      <trkpt lat="40.444300" lon="-5.286450">
        <ele>2191.0</ele>
        <time>2014-06-30T12:16:12Z</time>
      </trkpt>
      <trkpt lat="40.444367" lon="-5.286417">
        <ele>2193.0</ele>
        <time>2014-06-30T12:16:13Z</time>
      </trkpt>
      <trkpt lat="40.444433" lon="-5.286383">
        <ele>2195.0</ele>
        <time>2014-06-30T12:16:14Z</time>
      </trkpt>
      <trkpt lat="40.444500" lon="-5.286300">
        <ele>2196.0</ele>
        <time>2014-06-30T12:16:15Z</time>
      </trkpt>
      <trkpt lat="40.444550" lon="-5.286200">
        <ele>2196.0</ele>
        <time>2014-06-30T12:16:16Z</time>
      </trkpt>
      <trkpt lat="40.444583" lon="-5.286083">
        <ele>2197.0</ele>
        <time>2014-06-30T12:16:17Z</time>
      </trkpt>
      <trkpt lat="40.444600" lon="-5.285967">
        <ele>2198.0</ele>
        <time>2014-06-30T12:16:18Z</time>
      </trkpt>
      <trkpt lat="40.444600" lon="-5.285850">
        <ele>2199.0</ele>
        <time>2014-06-30T12:16:19Z</time>
      </trkpt>
      <trkpt lat="40.444567" lon="-5.285733">
        <ele>2200.0</ele>
        <time>2014-06-30T12:16:20Z</time>
      </trkpt>
      <trkpt lat="40.444533" lon="-5.285600">
        <ele>2201.0</ele>
        <time>2014-06-30T12:16:21Z</time>
      </trkpt>
      <trkpt lat="40.444483" lon="-5.285483">
        <ele>2201.0</ele>
        <time>2014-06-30T12:16:22Z</time>
      </trkpt>
      <trkpt lat="40.444417" lon="-5.285383">
        <ele>2201.0</ele>
        <time>2014-06-30T12:16:23Z</time>
      </trkpt>
      <trkpt lat="40.444333" lon="-5.285300">
        <ele>2201.0</ele>
        <time>2014-06-30T12:16:24Z</time>
      </trkpt>
      <trkpt lat="40.444233" lon="-5.285233">
        <ele>2201.0</ele>
        <time>2014-06-30T12:16:25Z</time>
      </trkpt>
      <trkpt lat="40.444117" lon="-5.285200">
        <ele>2201.0</ele>
        <time>2014-06-30T12:16:26Z</time>
      </trkpt>
      <trkpt lat="40.444000" lon="-5.285167">
        <ele>2202.0</ele>
        <time>2014-06-30T12:16:27Z</time>
      </trkpt>
      <trkpt lat="40.443900" lon="-5.285167">
        <ele>2205.0</ele>
        <time>2014-06-30T12:16:28Z</time>
      </trkpt>
      <trkpt lat="40.443800" lon="-5.285167">
        <ele>2205.0</ele>
        <time>2014-06-30T12:16:29Z</time>
      </trkpt>
      <trkpt lat="40.443700" lon="-5.285183">
        <ele>2207.0</ele>
        <time>2014-06-30T12:16:30Z</time>
      </trkpt>
      <trkpt lat="40.443600" lon="-5.285200">
        <ele>2208.0</ele>
        <time>2014-06-30T12:16:31Z</time>
      </trkpt>
      <trkpt lat="40.443500" lon="-5.285233">
        <ele>2209.0</ele>
        <time>2014-06-30T12:16:32Z</time>
      </trkpt>
      <trkpt lat="40.443400" lon="-5.285267">
        <ele>2210.0</ele>
        <time>2014-06-30T12:16:33Z</time>
      </trkpt>
      <trkpt lat="40.443333" lon="-5.285317">
        <ele>2212.0</ele>
        <time>2014-06-30T12:16:34Z</time>
      </trkpt>
      <trkpt lat="40.443250" lon="-5.285400">
        <ele>2214.0</ele>
        <time>2014-06-30T12:16:35Z</time>
      </trkpt>
      <trkpt lat="40.443200" lon="-5.285483">
        <ele>2217.0</ele>
        <time>2014-06-30T12:16:36Z</time>
      </trkpt>
      <trkpt lat="40.443150" lon="-5.285567">
        <ele>2220.0</ele>
        <time>2014-06-30T12:16:37Z</time>
      </trkpt>
      <trkpt lat="40.443117" lon="-5.285667">
        <ele>2222.0</ele>
        <time>2014-06-30T12:16:38Z</time>
      </trkpt>
      <trkpt lat="40.443117" lon="-5.285767">
        <ele>2224.0</ele>
        <time>2014-06-30T12:16:39Z</time>
      </trkpt>
      <trkpt lat="40.443133" lon="-5.285883">
        <ele>2225.0</ele>
        <time>2014-06-30T12:16:40Z</time>
      </trkpt>
      <trkpt lat="40.443167" lon="-5.285967">
        <ele>2227.0</ele>
        <time>2014-06-30T12:16:41Z</time>
      </trkpt>
      <trkpt lat="40.443217" lon="-5.286050">
        <ele>2229.0</ele>
        <time>2014-06-30T12:16:42Z</time>
      </trkpt>
      <trkpt lat="40.443267" lon="-5.286100">
        <ele>2231.0</ele>
        <time>2014-06-30T12:16:43Z</time>
      </trkpt>
      <trkpt lat="40.443333" lon="-5.286133">
        <ele>2234.0</ele>
        <time>2014-06-30T12:16:44Z</time>
      </trkpt>
      <trkpt lat="40.443383" lon="-5.286167">
        <ele>2237.0</ele>
        <time>2014-06-30T12:16:45Z</time>
      </trkpt>
      <trkpt lat="40.443450" lon="-5.286183">
        <ele>2239.0</ele>
        <time>2014-06-30T12:16:46Z</time>
      </trkpt>
      <trkpt lat="40.443533" lon="-5.286217">
        <ele>2240.0</ele>
        <time>2014-06-30T12:16:47Z</time>
      </trkpt>
      <trkpt lat="40.443617" lon="-5.286217">
        <ele>2241.0</ele>
        <time>2014-06-30T12:16:48Z</time>
      </trkpt>
      <trkpt lat="40.443700" lon="-5.286200">
        <ele>2243.0</ele>
        <time>2014-06-30T12:16:49Z</time>
      </trkpt>
      <trkpt lat="40.443767" lon="-5.286150">
        <ele>2245.0</ele>
        <time>2014-06-30T12:16:50Z</time>
      </trkpt>
      <trkpt lat="40.443833" lon="-5.286067">
        <ele>2247.0</ele>
        <time>2014-06-30T12:16:51Z</time>
      </trkpt>
      <trkpt lat="40.443883" lon="-5.285967">
        <ele>2248.0</ele>
        <time>2014-06-30T12:16:52Z</time>
      </trkpt>
      <trkpt lat="40.443917" lon="-5.285850">
        <ele>2250.0</ele>
        <time>2014-06-30T12:16:53Z</time>
      </trkpt>
      <trkpt lat="40.443950" lon="-5.285733">
        <ele>2251.0</ele>
        <time>2014-06-30T12:16:54Z</time>
      </trkpt>
      <trkpt lat="40.443950" lon="-5.285600">
        <ele>2252.0</ele>
        <time>2014-06-30T12:16:55Z</time>
      </trkpt>
      <trkpt lat="40.443950" lon="-5.285450">
        <ele>2254.0</ele>
        <time>2014-06-30T12:16:56Z</time>
      </trkpt>
      <trkpt lat="40.443917" lon="-5.285317">
        <ele>2255.0</ele>
        <time>2014-06-30T12:16:57Z</time>
      </trkpt>
      <trkpt lat="40.443833" lon="-5.285200">
        <ele>2256.0</ele>
        <time>2014-06-30T12:16:58Z</time>
      </trkpt>
      <trkpt lat="40.443750" lon="-5.285100">
        <ele>2257.0</ele>
        <time>2014-06-30T12:16:59Z</time>
      </trkpt>
      <trkpt lat="40.443650" lon="-5.285017">
        <ele>2257.0</ele>
        <time>2014-06-30T12:17:00Z</time>
      </trkpt>
      <trkpt lat="40.443533" lon="-5.284967">
        <ele>2258.0</ele>
        <time>2014-06-30T12:17:01Z</time>
      </trkpt>
      <trkpt lat="40.443417" lon="-5.284950">
        <ele>2259.0</ele>
        <time>2014-06-30T12:17:02Z</time>
      </trkpt>
      <trkpt lat="40.443317" lon="-5.284933">
        <ele>2260.0</ele>
        <time>2014-06-30T12:17:03Z</time>
      </trkpt>
      <trkpt lat="40.443233" lon="-5.284933">
        <ele>2263.0</ele>
        <time>2014-06-30T12:17:04Z</time>
      </trkpt>
      <trkpt lat="40.443133" lon="-5.284967">
        <ele>2264.0</ele>
        <time>2014-06-30T12:17:05Z</time>
      </trkpt>
      <trkpt lat="40.443050" lon="-5.285000">
        <ele>2266.0</ele>
        <time>2014-06-30T12:17:06Z</time>
      </trkpt>
      <trkpt lat="40.442967" lon="-5.285050">
        <ele>2267.0</ele>
        <time>2014-06-30T12:17:07Z</time>
      </trkpt>
      <trkpt lat="40.442900" lon="-5.285117">
        <ele>2269.0</ele>
        <time>2014-06-30T12:17:08Z</time>
      </trkpt>
      <trkpt lat="40.442833" lon="-5.285200">
        <ele>2272.0</ele>
        <time>2014-06-30T12:17:09Z</time>
      </trkpt>
      <trkpt lat="40.442783" lon="-5.285283">
        <ele>2273.0</ele>
        <time>2014-06-30T12:17:10Z</time>
      </trkpt>
      <trkpt lat="40.442750" lon="-5.285400">
        <ele>2275.0</ele>
        <time>2014-06-30T12:17:11Z</time>
      </trkpt>
      <trkpt lat="40.442717" lon="-5.285500">
        <ele>2278.0</ele>
        <time>2014-06-30T12:17:12Z</time>
      </trkpt>
      <trkpt lat="40.442733" lon="-5.285600">
        <ele>2280.0</ele>
        <time>2014-06-30T12:17:13Z</time>
      </trkpt>
      <trkpt lat="40.442750" lon="-5.285700">
        <ele>2281.0</ele>
        <time>2014-06-30T12:17:14Z</time>
      </trkpt>
      <trkpt lat="40.442767" lon="-5.285783">
        <ele>2283.0</ele>
        <time>2014-06-30T12:17:15Z</time>
      </trkpt>
      <trkpt lat="40.442800" lon="-5.285850">
        <ele>2286.0</ele>
        <time>2014-06-30T12:17:16Z</time>
      </trkpt>
      <trkpt lat="40.442833" lon="-5.285900">
        <ele>2289.0</ele>
        <time>2014-06-30T12:17:17Z</time>
      </trkpt>
      <trkpt lat="40.442867" lon="-5.285933">
        <ele>2292.0</ele>
        <time>2014-06-30T12:17:18Z</time>
      </trkpt>
      <trkpt lat="40.442917" lon="-5.285967">
        <ele>2293.0</ele>
        <time>2014-06-30T12:17:19Z</time>
      </trkpt>
      <trkpt lat="40.442967" lon="-5.285983">
        <ele>2295.0</ele>
        <time>2014-06-30T12:17:20Z</time>
      </trkpt>
      <trkpt lat="40.443017" lon="-5.286000">
        <ele>2296.0</ele>
        <time>2014-06-30T12:17:21Z</time>
      </trkpt>
      <trkpt lat="40.443083" lon="-5.286017">
        <ele>2297.0</ele>
        <time>2014-06-30T12:17:22Z</time>
      </trkpt>
      <trkpt lat="40.443150" lon="-5.286033">
        <ele>2298.0</ele>
        <time>2014-06-30T12:17:23Z</time>
      </trkpt>
      <trkpt lat="40.443217" lon="-5.286033">
        <ele>2298.0</ele>
        <time>2014-06-30T12:17:24Z</time>
      </trkpt>
      <trkpt lat="40.443283" lon="-5.286017">
        <ele>2299.0</ele>
        <time>2014-06-30T12:17:25Z</time>
      </trkpt>
      <trkpt lat="40.443350" lon="-5.285983">
        <ele>2299.0</ele>
        <time>2014-06-30T12:17:26Z</time>
      </trkpt>
      <trkpt lat="40.443417" lon="-5.285933">
        <ele>2298.0</ele>
        <time>2014-06-30T12:17:27Z</time>
      </trkpt>
      <trkpt lat="40.443500" lon="-5.285883">
        <ele>2298.0</ele>
        <time>2014-06-30T12:17:28Z</time>
      </trkpt>
      <trkpt lat="40.443583" lon="-5.285833">
        <ele>2298.0</ele>
        <time>2014-06-30T12:17:29Z</time>
      </trkpt>
      <trkpt lat="40.443650" lon="-5.285783">
        <ele>2297.0</ele>
        <time>2014-06-30T12:17:30Z</time>
      </trkpt>
      <trkpt lat="40.443733" lon="-5.285733">
        <ele>2297.0</ele>
        <time>2014-06-30T12:17:31Z</time>
      </trkpt>
      <trkpt lat="40.443800" lon="-5.285667">
        <ele>2297.0</ele>
        <time>2014-06-30T12:17:32Z</time>
      </trkpt>
      <trkpt lat="40.443867" lon="-5.285617">
        <ele>2297.0</ele>
        <time>2014-06-30T12:17:33Z</time>
      </trkpt>
      <trkpt lat="40.443950" lon="-5.285550">
        <ele>2296.0</ele>
        <time>2014-06-30T12:17:34Z</time>
      </trkpt>
      <trkpt lat="40.444033" lon="-5.285500">
        <ele>2295.0</ele>
        <time>2014-06-30T12:17:35Z</time>
      </trkpt>
      <trkpt lat="40.444100" lon="-5.285450">
        <ele>2296.0</ele>
        <time>2014-06-30T12:17:36Z</time>
      </trkpt>
      <trkpt lat="40.444183" lon="-5.285417">
        <ele>2296.0</ele>
        <time>2014-06-30T12:17:37Z</time>
      </trkpt>
      <trkpt lat="40.444267" lon="-5.285367">
        <ele>2297.0</ele>
        <time>2014-06-30T12:17:38Z</time>
      </trkpt>
      <trkpt lat="40.444333" lon="-5.285317">
        <ele>2297.0</ele>
        <time>2014-06-30T12:17:39Z</time>
      </trkpt>
      <trkpt lat="40.444417" lon="-5.285250">
        <ele>2298.0</ele>
        <time>2014-06-30T12:17:40Z</time>
      </trkpt>
      <trkpt lat="40.444483" lon="-5.285200">
        <ele>2300.0</ele>
        <time>2014-06-30T12:17:41Z</time>
      </trkpt>
      <trkpt lat="40.444550" lon="-5.285150">
        <ele>2303.0</ele>
        <time>2014-06-30T12:17:42Z</time>
      </trkpt>
      <trkpt lat="40.444617" lon="-5.285100">
        <ele>2305.0</ele>
        <time>2014-06-30T12:17:43Z</time>
      </trkpt>
      <trkpt lat="40.444667" lon="-5.285083">
        <ele>2307.0</ele>
        <time>2014-06-30T12:17:44Z</time>
      </trkpt>
      <trkpt lat="40.444733" lon="-5.285050">
        <ele>2309.0</ele>
        <time>2014-06-30T12:17:45Z</time>
      </trkpt>
      <trkpt lat="40.444800" lon="-5.285033">
        <ele>2310.0</ele>
        <time>2014-06-30T12:17:46Z</time>
      </trkpt>
      <trkpt lat="40.444867" lon="-5.285017">
        <ele>2312.0</ele>
        <time>2014-06-30T12:17:47Z</time>
      </trkpt>
      <trkpt lat="40.444933" lon="-5.284983">
        <ele>2314.0</ele>
        <time>2014-06-30T12:17:48Z</time>
      </trkpt>
      <trkpt lat="40.444983" lon="-5.284933">
        <ele>2315.0</ele>
        <time>2014-06-30T12:17:49Z</time>
      </trkpt>
      <trkpt lat="40.445050" lon="-5.284900">
        <ele>2316.0</ele>
        <time>2014-06-30T12:17:50Z</time>
      </trkpt>
      <trkpt lat="40.445133" lon="-5.284850">
        <ele>2317.0</ele>
        <time>2014-06-30T12:17:51Z</time>
      </trkpt>
      <trkpt lat="40.445200" lon="-5.284800">
        <ele>2317.0</ele>
        <time>2014-06-30T12:17:52Z</time>
      </trkpt>
      <trkpt lat="40.445283" lon="-5.284767">
        <ele>2318.0</ele>
        <time>2014-06-30T12:17:53Z</time>
      </trkpt>
      <trkpt lat="40.445367" lon="-5.284733">
        <ele>2320.0</ele>
        <time>2014-06-30T12:17:54Z</time>
      </trkpt>
      <trkpt lat="40.445433" lon="-5.284683">
        <ele>2322.0</ele>
        <time>2014-06-30T12:17:55Z</time>
      </trkpt>
      <trkpt lat="40.445500" lon="-5.284650">
        <ele>2324.0</ele>
        <time>2014-06-30T12:17:56Z</time>
      </trkpt>
      <trkpt lat="40.445583" lon="-5.284583">
        <ele>2325.0</ele>
        <time>2014-06-30T12:17:57Z</time>
      </trkpt>
      <trkpt lat="40.445650" lon="-5.284533">
        <ele>2327.0</ele>
        <time>2014-06-30T12:17:58Z</time>
      </trkpt>
      <trkpt lat="40.445717" lon="-5.284467">
        <ele>2328.0</ele>
        <time>2014-06-30T12:17:59Z</time>
      </trkpt>
      <trkpt lat="40.445783" lon="-5.284417">
        <ele>2329.0</ele>
        <time>2014-06-30T12:18:00Z</time>
      </trkpt>
      <trkpt lat="40.445850" lon="-5.284350">
        <ele>2330.0</ele>
        <time>2014-06-30T12:18:01Z</time>
      </trkpt>
      <trkpt lat="40.445900" lon="-5.284283">
        <ele>2330.0</ele>
        <time>2014-06-30T12:18:02Z</time>
      </trkpt>
      <trkpt lat="40.445983" lon="-5.284233">
        <ele>2330.0</ele>
        <time>2014-06-30T12:18:03Z</time>
      </trkpt>
      <trkpt lat="40.446067" lon="-5.284183">
        <ele>2330.0</ele>
        <time>2014-06-30T12:18:04Z</time>
      </trkpt>
      <trkpt lat="40.446133" lon="-5.284150">
        <ele>2331.0</ele>
        <time>2014-06-30T12:18:05Z</time>
      </trkpt>
      <trkpt lat="40.446217" lon="-5.284100">
        <ele>2332.0</ele>
        <time>2014-06-30T12:18:06Z</time>
      </trkpt>
      <trkpt lat="40.446300" lon="-5.284050">
        <ele>2333.0</ele>
        <time>2014-06-30T12:18:07Z</time>
      </trkpt>
      <trkpt lat="40.446367" lon="-5.284017">
        <ele>2334.0</ele>
        <time>2014-06-30T12:18:08Z</time>
      </trkpt>
      <trkpt lat="40.446433" lon="-5.283983">
        <ele>2335.0</ele>
        <time>2014-06-30T12:18:09Z</time>
      </trkpt>
      <trkpt lat="40.446500" lon="-5.283933">
        <ele>2335.0</ele>
        <time>2014-06-30T12:18:10Z</time>
      </trkpt>
      <trkpt lat="40.446583" lon="-5.283900">
        <ele>2336.0</ele>
        <time>2014-06-30T12:18:11Z</time>
      </trkpt>
      <trkpt lat="40.446667" lon="-5.283850">
        <ele>2336.0</ele>
        <time>2014-06-30T12:18:12Z</time>
      </trkpt>
      <trkpt lat="40.446750" lon="-5.283800">
        <ele>2337.0</ele>
        <time>2014-06-30T12:18:13Z</time>
      </trkpt>
      <trkpt lat="40.446833" lon="-5.283750">
        <ele>2338.0</ele>
        <time>2014-06-30T12:18:14Z</time>
      </trkpt>
      <trkpt lat="40.446900" lon="-5.283683">
        <ele>2340.0</ele>
        <time>2014-06-30T12:18:15Z</time>
      </trkpt>
      <trkpt lat="40.446967" lon="-5.283600">
        <ele>2342.0</ele>
        <time>2014-06-30T12:18:16Z</time>
      </trkpt>
      <trkpt lat="40.447050" lon="-5.283533">
        <ele>2343.0</ele>
        <time>2014-06-30T12:18:17Z</time>
      </trkpt>
      <trkpt lat="40.447133" lon="-5.283450">
        <ele>2344.0</ele>
        <time>2014-06-30T12:18:18Z</time>
      </trkpt>
      <trkpt lat="40.447217" lon="-5.283383">
        <ele>2346.0</ele>
        <time>2014-06-30T12:18:19Z</time>
      </trkpt>
      <trkpt lat="40.447300" lon="-5.283333">
        <ele>2347.0</ele>
        <time>2014-06-30T12:18:20Z</time>
      </trkpt>
      <trkpt lat="40.447400" lon="-5.283283">
        <ele>2348.0</ele>
        <time>2014-06-30T12:18:21Z</time>
      </trkpt>
      <trkpt lat="40.447483" lon="-5.283217">
        <ele>2349.0</ele>
        <time>2014-06-30T12:18:22Z</time>
      </trkpt>
      <trkpt lat="40.447567" lon="-5.283167">
        <ele>2351.0</ele>
        <time>2014-06-30T12:18:23Z</time>
      </trkpt>
      <trkpt lat="40.447650" lon="-5.283100">
        <ele>2351.0</ele>
        <time>2014-06-30T12:18:24Z</time>
      </trkpt>
      <trkpt lat="40.447733" lon="-5.283050">
        <ele>2351.0</ele>
        <time>2014-06-30T12:18:25Z</time>
      </trkpt>
      <trkpt lat="40.447817" lon="-5.282983">
        <ele>2351.0</ele>
        <time>2014-06-30T12:18:26Z</time>
      </trkpt>
      <trkpt lat="40.447900" lon="-5.282917">
        <ele>2351.0</ele>
        <time>2014-06-30T12:18:27Z</time>
      </trkpt>
      <trkpt lat="40.447983" lon="-5.282833">
        <ele>2351.0</ele>
        <time>2014-06-30T12:18:28Z</time>
      </trkpt>
      <trkpt lat="40.448050" lon="-5.282750">
        <ele>2351.0</ele>
        <time>2014-06-30T12:18:29Z</time>
      </trkpt>
      <trkpt lat="40.448117" lon="-5.282667">
        <ele>2350.0</ele>
        <time>2014-06-30T12:18:30Z</time>
      </trkpt>
      <trkpt lat="40.448183" lon="-5.282567">
        <ele>2350.0</ele>
        <time>2014-06-30T12:18:31Z</time>
      </trkpt>
      <trkpt lat="40.448250" lon="-5.282467">
        <ele>2348.0</ele>
        <time>2014-06-30T12:18:32Z</time>
      </trkpt>
      <trkpt lat="40.448333" lon="-5.282367">
        <ele>2346.0</ele>
        <time>2014-06-30T12:18:33Z</time>
      </trkpt>
      <trkpt lat="40.448400" lon="-5.282267">
        <ele>2344.0</ele>
        <time>2014-06-30T12:18:34Z</time>
      </trkpt>
      <trkpt lat="40.448483" lon="-5.282183">
        <ele>2343.0</ele>
        <time>2014-06-30T12:18:35Z</time>
      </trkpt>
      <trkpt lat="40.448550" lon="-5.282083">
        <ele>2342.0</ele>
        <time>2014-06-30T12:18:36Z</time>
      </trkpt>
      <trkpt lat="40.448617" lon="-5.281967">
        <ele>2341.0</ele>
        <time>2014-06-30T12:18:37Z</time>
      </trkpt>
      <trkpt lat="40.448700" lon="-5.281867">
        <ele>2339.0</ele>
        <time>2014-06-30T12:18:38Z</time>
      </trkpt>
      <trkpt lat="40.448767" lon="-5.281750">
        <ele>2338.0</ele>
        <time>2014-06-30T12:18:39Z</time>
      </trkpt>
      <trkpt lat="40.448833" lon="-5.281650">
        <ele>2337.0</ele>
        <time>2014-06-30T12:18:40Z</time>
      </trkpt>
      <trkpt lat="40.448900" lon="-5.281567">
        <ele>2335.0</ele>
        <time>2014-06-30T12:18:41Z</time>
      </trkpt>
      <trkpt lat="40.448967" lon="-5.281467">
        <ele>2334.0</ele>
        <time>2014-06-30T12:18:42Z</time>
      </trkpt>
      <trkpt lat="40.449033" lon="-5.281367">
        <ele>2332.0</ele>
        <time>2014-06-30T12:18:43Z</time>
      </trkpt>
      <trkpt lat="40.449100" lon="-5.281267">
        <ele>2331.0</ele>
        <time>2014-06-30T12:18:44Z</time>
      </trkpt>
      <trkpt lat="40.449167" lon="-5.281167">
        <ele>2330.0</ele>
        <time>2014-06-30T12:18:45Z</time>
      </trkpt>
      <trkpt lat="40.449233" lon="-5.281067">
        <ele>2329.0</ele>
        <time>2014-06-30T12:18:46Z</time>
      </trkpt>
      <trkpt lat="40.449283" lon="-5.280983">
        <ele>2329.0</ele>
        <time>2014-06-30T12:18:47Z</time>
      </trkpt>
      <trkpt lat="40.449333" lon="-5.280900">
        <ele>2329.0</ele>
        <time>2014-06-30T12:18:48Z</time>
      </trkpt>
      <trkpt lat="40.449400" lon="-5.280817">
        <ele>2328.0</ele>
        <time>2014-06-30T12:18:49Z</time>
      </trkpt>
      <trkpt lat="40.449467" lon="-5.280717">
        <ele>2327.0</ele>
        <time>2014-06-30T12:18:50Z</time>
      </trkpt>
      <trkpt lat="40.449550" lon="-5.280617">
        <ele>2325.0</ele>
        <time>2014-06-30T12:18:51Z</time>
      </trkpt>
      <trkpt lat="40.449617" lon="-5.280500">
        <ele>2324.0</ele>
        <time>2014-06-30T12:18:52Z</time>
      </trkpt>
      <trkpt lat="40.449683" lon="-5.280400">
        <ele>2323.0</ele>
        <time>2014-06-30T12:18:53Z</time>
      </trkpt>
      <trkpt lat="40.449750" lon="-5.280283">
        <ele>2322.0</ele>
        <time>2014-06-30T12:18:54Z</time>
      </trkpt>
      <trkpt lat="40.449817" lon="-5.280183">
        <ele>2322.0</ele>
        <time>2014-06-30T12:18:55Z</time>
      </trkpt>
      <trkpt lat="40.449883" lon="-5.280083">
        <ele>2320.0</ele>
        <time>2014-06-30T12:18:56Z</time>
      </trkpt>
      <trkpt lat="40.449950" lon="-5.280000">
        <ele>2318.0</ele>
        <time>2014-06-30T12:18:57Z</time>
      </trkpt>
      <trkpt lat="40.450033" lon="-5.279917">
        <ele>2315.0</ele>
        <time>2014-06-30T12:18:58Z</time>
      </trkpt>
      <trkpt lat="40.450117" lon="-5.279833">
        <ele>2313.0</ele>
        <time>2014-06-30T12:18:59Z</time>
      </trkpt>
      <trkpt lat="40.450200" lon="-5.279733">
        <ele>2310.0</ele>
        <time>2014-06-30T12:19:00Z</time>
      </trkpt>
      <trkpt lat="40.450267" lon="-5.279617">
        <ele>2308.0</ele>
        <time>2014-06-30T12:19:01Z</time>
      </trkpt>
      <trkpt lat="40.450333" lon="-5.279500">
        <ele>2305.0</ele>
        <time>2014-06-30T12:19:02Z</time>
      </trkpt>
      <trkpt lat="40.450400" lon="-5.279383">
        <ele>2303.0</ele>
        <time>2014-06-30T12:19:03Z</time>
      </trkpt>
      <trkpt lat="40.450467" lon="-5.279283">
        <ele>2301.0</ele>
        <time>2014-06-30T12:19:04Z</time>
      </trkpt>
      <trkpt lat="40.450533" lon="-5.279167">
        <ele>2299.0</ele>
        <time>2014-06-30T12:19:05Z</time>
      </trkpt>
      <trkpt lat="40.450583" lon="-5.279050">
        <ele>2297.0</ele>
        <time>2014-06-30T12:19:06Z</time>
      </trkpt>
      <trkpt lat="40.450650" lon="-5.278933">
        <ele>2295.0</ele>
        <time>2014-06-30T12:19:07Z</time>
      </trkpt>
      <trkpt lat="40.450717" lon="-5.278783">
        <ele>2292.0</ele>
        <time>2014-06-30T12:19:08Z</time>
      </trkpt>
      <trkpt lat="40.450767" lon="-5.278650">
        <ele>2290.0</ele>
        <time>2014-06-30T12:19:09Z</time>
      </trkpt>
      <trkpt lat="40.450833" lon="-5.278517">
        <ele>2288.0</ele>
        <time>2014-06-30T12:19:10Z</time>
      </trkpt>
      <trkpt lat="40.450900" lon="-5.278383">
        <ele>2286.0</ele>
        <time>2014-06-30T12:19:11Z</time>
      </trkpt>
      <trkpt lat="40.450967" lon="-5.278267">
        <ele>2284.0</ele>
        <time>2014-06-30T12:19:12Z</time>
      </trkpt>
      <trkpt lat="40.451033" lon="-5.278133">
        <ele>2282.0</ele>
        <time>2014-06-30T12:19:13Z</time>
      </trkpt>
      <trkpt lat="40.451083" lon="-5.278000">
        <ele>2279.0</ele>
        <time>2014-06-30T12:19:14Z</time>
      </trkpt>
      <trkpt lat="40.451150" lon="-5.277850">
        <ele>2276.0</ele>
        <time>2014-06-30T12:19:15Z</time>
      </trkpt>
      <trkpt lat="40.451217" lon="-5.277700">
        <ele>2273.0</ele>
        <time>2014-06-30T12:19:16Z</time>
      </trkpt>
      <trkpt lat="40.451267" lon="-5.277567">
        <ele>2270.0</ele>
        <time>2014-06-30T12:19:17Z</time>
      </trkpt>
      <trkpt lat="40.451333" lon="-5.277467">
        <ele>2266.0</ele>
        <time>2014-06-30T12:19:18Z</time>
      </trkpt>
      <trkpt lat="40.451400" lon="-5.277367">
        <ele>2263.0</ele>
        <time>2014-06-30T12:19:19Z</time>
      </trkpt>
      <trkpt lat="40.451467" lon="-5.277267">
        <ele>2260.0</ele>
        <time>2014-06-30T12:19:20Z</time>
      </trkpt>
      <trkpt lat="40.451517" lon="-5.277150">
        <ele>2257.0</ele>
        <time>2014-06-30T12:19:21Z</time>
      </trkpt>
      <trkpt lat="40.451583" lon="-5.277033">
        <ele>2253.0</ele>
        <time>2014-06-30T12:19:22Z</time>
      </trkpt>
      <trkpt lat="40.451633" lon="-5.276900">
        <ele>2248.0</ele>
        <time>2014-06-30T12:19:23Z</time>
      </trkpt>
      <trkpt lat="40.451683" lon="-5.276750">
        <ele>2243.0</ele>
        <time>2014-06-30T12:19:24Z</time>
      </trkpt>
      <trkpt lat="40.451733" lon="-5.276600">
        <ele>2238.0</ele>
        <time>2014-06-30T12:19:25Z</time>
      </trkpt>
      <trkpt lat="40.451800" lon="-5.276450">
        <ele>2235.0</ele>
        <time>2014-06-30T12:19:26Z</time>
      </trkpt>
      <trkpt lat="40.451883" lon="-5.276300">
        <ele>2233.0</ele>
        <time>2014-06-30T12:19:27Z</time>
      </trkpt>
      <trkpt lat="40.451950" lon="-5.276167">
        <ele>2232.0</ele>
        <time>2014-06-30T12:19:28Z</time>
      </trkpt>
      <trkpt lat="40.452000" lon="-5.276017">
        <ele>2232.0</ele>
        <time>2014-06-30T12:19:29Z</time>
      </trkpt>
      <trkpt lat="40.452067" lon="-5.275883">
        <ele>2231.0</ele>
        <time>2014-06-30T12:19:30Z</time>
      </trkpt>
      <trkpt lat="40.452133" lon="-5.275750">
        <ele>2229.0</ele>
        <time>2014-06-30T12:19:31Z</time>
      </trkpt>
      <trkpt lat="40.452183" lon="-5.275617">
        <ele>2228.0</ele>
        <time>2014-06-30T12:19:32Z</time>
      </trkpt>
      <trkpt lat="40.452217" lon="-5.275483">
        <ele>2227.0</ele>
        <time>2014-06-30T12:19:33Z</time>
      </trkpt>
      <trkpt lat="40.452267" lon="-5.275333">
        <ele>2225.0</ele>
        <time>2014-06-30T12:19:34Z</time>
      </trkpt>
      <trkpt lat="40.452317" lon="-5.275200">
        <ele>2223.0</ele>
        <time>2014-06-30T12:19:35Z</time>
      </trkpt>
      <trkpt lat="40.452367" lon="-5.275083">
        <ele>2222.0</ele>
        <time>2014-06-30T12:19:36Z</time>
      </trkpt>
      <trkpt lat="40.452417" lon="-5.274950">
        <ele>2222.0</ele>
        <time>2014-06-30T12:19:37Z</time>
      </trkpt>
      <trkpt lat="40.452450" lon="-5.274833">
        <ele>2222.0</ele>
        <time>2014-06-30T12:19:38Z</time>
      </trkpt>
      <trkpt lat="40.452483" lon="-5.274700">
        <ele>2222.0</ele>
        <time>2014-06-30T12:19:39Z</time>
      </trkpt>
      <trkpt lat="40.452500" lon="-5.274567">
        <ele>2221.0</ele>
        <time>2014-06-30T12:19:40Z</time>
      </trkpt>
      <trkpt lat="40.452517" lon="-5.274433">
        <ele>2220.0</ele>
        <time>2014-06-30T12:19:41Z</time>
      </trkpt>
      <trkpt lat="40.452517" lon="-5.274267">
        <ele>2219.0</ele>
        <time>2014-06-30T12:19:42Z</time>
      </trkpt>
      <trkpt lat="40.452517" lon="-5.274100">
        <ele>2218.0</ele>
        <time>2014-06-30T12:19:43Z</time>
      </trkpt>
      <trkpt lat="40.452533" lon="-5.273950">
        <ele>2218.0</ele>
        <time>2014-06-30T12:19:44Z</time>
      </trkpt>
      <trkpt lat="40.452517" lon="-5.273800">
        <ele>2218.0</ele>
        <time>2014-06-30T12:19:45Z</time>
      </trkpt>
      <trkpt lat="40.452500" lon="-5.273667">
        <ele>2218.0</ele>
        <time>2014-06-30T12:19:46Z</time>
      </trkpt>
      <trkpt lat="40.452483" lon="-5.273533">
        <ele>2218.0</ele>
        <time>2014-06-30T12:19:47Z</time>
      </trkpt>
      <trkpt lat="40.452467" lon="-5.273400">
        <ele>2218.0</ele>
        <time>2014-06-30T12:19:48Z</time>
      </trkpt>
      <trkpt lat="40.452467" lon="-5.273250">
        <ele>2218.0</ele>
        <time>2014-06-30T12:19:49Z</time>
      </trkpt>
      <trkpt lat="40.452450" lon="-5.273100">
        <ele>2217.0</ele>
        <time>2014-06-30T12:19:50Z</time>
      </trkpt>
      <trkpt lat="40.452433" lon="-5.272950">
        <ele>2216.0</ele>
        <time>2014-06-30T12:19:51Z</time>
      </trkpt>
      <trkpt lat="40.452433" lon="-5.272800">
        <ele>2215.0</ele>
        <time>2014-06-30T12:19:52Z</time>
      </trkpt>
      <trkpt lat="40.452417" lon="-5.272650">
        <ele>2215.0</ele>
        <time>2014-06-30T12:19:53Z</time>
      </trkpt>
      <trkpt lat="40.452383" lon="-5.272517">
        <ele>2214.0</ele>
        <time>2014-06-30T12:19:54Z</time>
      </trkpt>
      <trkpt lat="40.452367" lon="-5.272383">
        <ele>2213.0</ele>
        <time>2014-06-30T12:19:55Z</time>
      </trkpt>
      <trkpt lat="40.452350" lon="-5.272250">
        <ele>2212.0</ele>
        <time>2014-06-30T12:19:56Z</time>
      </trkpt>
      <trkpt lat="40.452350" lon="-5.272117">
        <ele>2211.0</ele>
        <time>2014-06-30T12:19:57Z</time>
      </trkpt>
      <trkpt lat="40.452350" lon="-5.271967">
        <ele>2209.0</ele>
        <time>2014-06-30T12:19:58Z</time>
      </trkpt>
      <trkpt lat="40.452333" lon="-5.271817">
        <ele>2208.0</ele>
        <time>2014-06-30T12:19:59Z</time>
      </trkpt>
      <trkpt lat="40.452333" lon="-5.271683">
        <ele>2208.0</ele>
        <time>2014-06-30T12:20:00Z</time>
      </trkpt>
      <trkpt lat="40.452333" lon="-5.271533">
        <ele>2207.0</ele>
        <time>2014-06-30T12:20:01Z</time>
      </trkpt>
      <trkpt lat="40.452333" lon="-5.271383">
        <ele>2207.0</ele>
        <time>2014-06-30T12:20:02Z</time>
      </trkpt>
      <trkpt lat="40.452333" lon="-5.271233">
        <ele>2206.0</ele>
        <time>2014-06-30T12:20:03Z</time>
      </trkpt>
      <trkpt lat="40.452333" lon="-5.271100">
        <ele>2206.0</ele>
        <time>2014-06-30T12:20:04Z</time>
      </trkpt>
      <trkpt lat="40.452333" lon="-5.270950">
        <ele>2206.0</ele>
        <time>2014-06-30T12:20:05Z</time>
      </trkpt>
      <trkpt lat="40.452317" lon="-5.270800">
        <ele>2206.0</ele>
        <time>2014-06-30T12:20:06Z</time>
      </trkpt>
      <trkpt lat="40.452317" lon="-5.270667">
        <ele>2206.0</ele>
        <time>2014-06-30T12:20:07Z</time>
      </trkpt>
      <trkpt lat="40.452317" lon="-5.270517">
        <ele>2205.0</ele>
        <time>2014-06-30T12:20:08Z</time>
      </trkpt>
      <trkpt lat="40.452317" lon="-5.270383">
        <ele>2204.0</ele>
        <time>2014-06-30T12:20:09Z</time>
      </trkpt>
      <trkpt lat="40.452317" lon="-5.270233">
        <ele>2202.0</ele>
        <time>2014-06-30T12:20:10Z</time>
      </trkpt>
      <trkpt lat="40.452317" lon="-5.270083">
        <ele>2201.0</ele>
        <time>2014-06-30T12:20:11Z</time>
      </trkpt>
      <trkpt lat="40.452300" lon="-5.269950">
        <ele>2200.0</ele>
        <time>2014-06-30T12:20:12Z</time>
      </trkpt>
      <trkpt lat="40.452300" lon="-5.269817">
        <ele>2200.0</ele>
        <time>2014-06-30T12:20:13Z</time>
      </trkpt>
      <trkpt lat="40.452283" lon="-5.269667">
        <ele>2199.0</ele>
        <time>2014-06-30T12:20:14Z</time>
      </trkpt>
      <trkpt lat="40.452267" lon="-5.269517">
        <ele>2199.0</ele>
        <time>2014-06-30T12:20:15Z</time>
      </trkpt>
      <trkpt lat="40.452267" lon="-5.269367">
        <ele>2198.0</ele>
        <time>2014-06-30T12:20:16Z</time>
      </trkpt>
      <trkpt lat="40.452250" lon="-5.269233">
        <ele>2199.0</ele>
        <time>2014-06-30T12:20:17Z</time>
      </trkpt>
      <trkpt lat="40.452217" lon="-5.269100">
        <ele>2199.0</ele>
        <time>2014-06-30T12:20:18Z</time>
      </trkpt>
      <trkpt lat="40.452183" lon="-5.268983">
        <ele>2200.0</ele>
        <time>2014-06-30T12:20:19Z</time>
      </trkpt>
      <trkpt lat="40.452133" lon="-5.268850">
        <ele>2201.0</ele>
        <time>2014-06-30T12:20:20Z</time>
      </trkpt>
      <trkpt lat="40.452050" lon="-5.268750">
        <ele>2201.0</ele>
        <time>2014-06-30T12:20:21Z</time>
      </trkpt>
      <trkpt lat="40.451967" lon="-5.268650">
        <ele>2202.0</ele>
        <time>2014-06-30T12:20:22Z</time>
      </trkpt>
      <trkpt lat="40.451850" lon="-5.268567">
        <ele>2202.0</ele>
        <time>2014-06-30T12:20:23Z</time>
      </trkpt>
      <trkpt lat="40.451750" lon="-5.268500">
        <ele>2202.0</ele>
        <time>2014-06-30T12:20:24Z</time>
      </trkpt>
      <trkpt lat="40.451650" lon="-5.268433">
        <ele>2202.0</ele>
        <time>2014-06-30T12:20:25Z</time>
      </trkpt>
      <trkpt lat="40.451583" lon="-5.268333">
        <ele>2204.0</ele>
        <time>2014-06-30T12:20:26Z</time>
      </trkpt>
      <trkpt lat="40.451517" lon="-5.268233">
        <ele>2207.0</ele>
        <time>2014-06-30T12:20:27Z</time>
      </trkpt>
      <trkpt lat="40.451467" lon="-5.268100">
        <ele>2209.0</ele>
        <time>2014-06-30T12:20:28Z</time>
      </trkpt>
      <trkpt lat="40.451433" lon="-5.267983">
        <ele>2210.0</ele>
        <time>2014-06-30T12:20:29Z</time>
      </trkpt>
      <trkpt lat="40.451417" lon="-5.267850">
        <ele>2211.0</ele>
        <time>2014-06-30T12:20:30Z</time>
      </trkpt>
      <trkpt lat="40.451433" lon="-5.267700">
        <ele>2212.0</ele>
        <time>2014-06-30T12:20:31Z</time>
      </trkpt>
      <trkpt lat="40.451467" lon="-5.267583">
        <ele>2211.0</ele>
        <time>2014-06-30T12:20:32Z</time>
      </trkpt>
      <trkpt lat="40.451550" lon="-5.267483">
        <ele>2212.0</ele>
        <time>2014-06-30T12:20:33Z</time>
      </trkpt>
      <trkpt lat="40.451617" lon="-5.267417">
        <ele>2213.0</ele>
        <time>2014-06-30T12:20:34Z</time>
      </trkpt>
      <trkpt lat="40.451683" lon="-5.267383">
        <ele>2215.0</ele>
        <time>2014-06-30T12:20:35Z</time>
      </trkpt>
      <trkpt lat="40.451750" lon="-5.267367">
        <ele>2217.0</ele>
        <time>2014-06-30T12:20:36Z</time>
      </trkpt>
      <trkpt lat="40.451800" lon="-5.267350">
        <ele>2218.0</ele>
        <time>2014-06-30T12:20:37Z</time>
      </trkpt>
      <trkpt lat="40.451867" lon="-5.267350">
        <ele>2218.0</ele>
        <time>2014-06-30T12:20:38Z</time>
      </trkpt>
      <trkpt lat="40.451917" lon="-5.267383">
        <ele>2219.0</ele>
        <time>2014-06-30T12:20:39Z</time>
      </trkpt>
      <trkpt lat="40.451933" lon="-5.267450">
        <ele>2219.0</ele>
        <time>2014-06-30T12:20:40Z</time>
      </trkpt>
      <trkpt lat="40.451950" lon="-5.267550">
        <ele>2219.0</ele>
        <time>2014-06-30T12:20:41Z</time>
      </trkpt>
      <trkpt lat="40.451933" lon="-5.267650">
        <ele>2218.0</ele>
        <time>2014-06-30T12:20:42Z</time>
      </trkpt>
      <trkpt lat="40.451917" lon="-5.267717">
        <ele>2218.0</ele>
        <time>2014-06-30T12:20:43Z</time>
      </trkpt>
      <trkpt lat="40.451867" lon="-5.267800">
        <ele>2218.0</ele>
        <time>2014-06-30T12:20:44Z</time>
      </trkpt>
      <trkpt lat="40.451800" lon="-5.267850">
        <ele>2217.0</ele>
        <time>2014-06-30T12:20:45Z</time>
      </trkpt>
      <trkpt lat="40.451700" lon="-5.267867">
        <ele>2215.0</ele>
        <time>2014-06-30T12:20:46Z</time>
      </trkpt>
      <trkpt lat="40.451600" lon="-5.267883">
        <ele>2214.0</ele>
        <time>2014-06-30T12:20:47Z</time>
      </trkpt>
      <trkpt lat="40.451483" lon="-5.267867">
        <ele>2213.0</ele>
        <time>2014-06-30T12:20:48Z</time>
      </trkpt>
      <trkpt lat="40.451383" lon="-5.267833">
        <ele>2212.0</ele>
        <time>2014-06-30T12:20:49Z</time>
      </trkpt>
      <trkpt lat="40.451283" lon="-5.267767">
        <ele>2212.0</ele>
        <time>2014-06-30T12:20:50Z</time>
      </trkpt>
      <trkpt lat="40.451183" lon="-5.267667">
        <ele>2212.0</ele>
        <time>2014-06-30T12:20:51Z</time>
      </trkpt>
      <trkpt lat="40.451100" lon="-5.267533">
        <ele>2211.0</ele>
        <time>2014-06-30T12:20:52Z</time>
      </trkpt>
      <trkpt lat="40.451033" lon="-5.267400">
        <ele>2210.0</ele>
        <time>2014-06-30T12:20:53Z</time>
      </trkpt>
      <trkpt lat="40.450983" lon="-5.267233">
        <ele>2211.0</ele>
        <time>2014-06-30T12:20:54Z</time>
      </trkpt>
      <trkpt lat="40.450967" lon="-5.267067">
        <ele>2213.0</ele>
        <time>2014-06-30T12:20:55Z</time>
      </trkpt>
      <trkpt lat="40.451000" lon="-5.266933">
        <ele>2213.0</ele>
        <time>2014-06-30T12:20:56Z</time>
      </trkpt>
      <trkpt lat="40.451033" lon="-5.266817">
        <ele>2214.0</ele>
        <time>2014-06-30T12:20:57Z</time>
      </trkpt>
      <trkpt lat="40.451067" lon="-5.266733">
        <ele>2215.0</ele>
        <time>2014-06-30T12:20:58Z</time>
      </trkpt>
      <trkpt lat="40.451117" lon="-5.266650">
        <ele>2215.0</ele>
        <time>2014-06-30T12:20:59Z</time>
      </trkpt>
      <trkpt lat="40.451167" lon="-5.266567">
        <ele>2215.0</ele>
        <time>2014-06-30T12:21:00Z</time>
      </trkpt>
      <trkpt lat="40.451233" lon="-5.266500">
        <ele>2215.0</ele>
        <time>2014-06-30T12:21:01Z</time>
      </trkpt>
      <trkpt lat="40.451300" lon="-5.266450">
        <ele>2213.0</ele>
        <time>2014-06-30T12:21:02Z</time>
      </trkpt>
      <trkpt lat="40.451383" lon="-5.266417">
        <ele>2213.0</ele>
        <time>2014-06-30T12:21:03Z</time>
      </trkpt>
      <trkpt lat="40.451467" lon="-5.266400">
        <ele>2212.0</ele>
        <time>2014-06-30T12:21:04Z</time>
      </trkpt>
      <trkpt lat="40.451550" lon="-5.266367">
        <ele>2212.0</ele>
        <time>2014-06-30T12:21:05Z</time>
      </trkpt>
      <trkpt lat="40.451633" lon="-5.266350">
        <ele>2212.0</ele>
        <time>2014-06-30T12:21:06Z</time>
      </trkpt>
      <trkpt lat="40.451700" lon="-5.266317">
        <ele>2213.0</ele>
        <time>2014-06-30T12:21:07Z</time>
      </trkpt>
      <trkpt lat="40.451767" lon="-5.266300">
        <ele>2214.0</ele>
        <time>2014-06-30T12:21:08Z</time>
      </trkpt>
      <trkpt lat="40.451850" lon="-5.266317">
        <ele>2213.0</ele>
        <time>2014-06-30T12:21:09Z</time>
      </trkpt>
      <trkpt lat="40.451917" lon="-5.266333">
        <ele>2213.0</ele>
        <time>2014-06-30T12:21:10Z</time>
      </trkpt>
      <trkpt lat="40.451983" lon="-5.266350">
        <ele>2213.0</ele>
        <time>2014-06-30T12:21:11Z</time>
      </trkpt>
      <trkpt lat="40.452050" lon="-5.266383">
        <ele>2213.0</ele>
        <time>2014-06-30T12:21:12Z</time>
      </trkpt>
      <trkpt lat="40.452100" lon="-5.266400">
        <ele>2212.0</ele>
        <time>2014-06-30T12:21:13Z</time>
      </trkpt>
      <trkpt lat="40.452150" lon="-5.266450">
        <ele>2212.0</ele>
        <time>2014-06-30T12:21:14Z</time>
      </trkpt>
      <trkpt lat="40.452167" lon="-5.266517">
        <ele>2211.0</ele>
        <time>2014-06-30T12:21:15Z</time>
      </trkpt>
      <trkpt lat="40.452183" lon="-5.266617">
        <ele>2209.0</ele>
        <time>2014-06-30T12:21:16Z</time>
      </trkpt>
      <trkpt lat="40.452183" lon="-5.266717">
        <ele>2208.0</ele>
        <time>2014-06-30T12:21:17Z</time>
      </trkpt>
      <trkpt lat="40.452183" lon="-5.266800">
        <ele>2208.0</ele>
        <time>2014-06-30T12:21:18Z</time>
      </trkpt>
      <trkpt lat="40.452183" lon="-5.266883">
        <ele>2207.0</ele>
        <time>2014-06-30T12:21:19Z</time>
      </trkpt>
      <trkpt lat="40.452167" lon="-5.266967">
        <ele>2207.0</ele>
        <time>2014-06-30T12:21:20Z</time>
      </trkpt>
      <trkpt lat="40.452150" lon="-5.267050">
        <ele>2206.0</ele>
        <time>2014-06-30T12:21:21Z</time>
      </trkpt>
      <trkpt lat="40.452150" lon="-5.267133">
        <ele>2206.0</ele>
        <time>2014-06-30T12:21:22Z</time>
      </trkpt>
      <trkpt lat="40.452117" lon="-5.267217">
        <ele>2205.0</ele>
        <time>2014-06-30T12:21:23Z</time>
      </trkpt>
      <trkpt lat="40.452083" lon="-5.267300">
        <ele>2204.0</ele>
        <time>2014-06-30T12:21:24Z</time>
      </trkpt>
      <trkpt lat="40.452017" lon="-5.267367">
        <ele>2203.0</ele>
        <time>2014-06-30T12:21:25Z</time>
      </trkpt>
      <trkpt lat="40.451933" lon="-5.267433">
        <ele>2202.0</ele>
        <time>2014-06-30T12:21:26Z</time>
      </trkpt>
      <trkpt lat="40.451833" lon="-5.267500">
        <ele>2200.0</ele>
        <time>2014-06-30T12:21:27Z</time>
      </trkpt>
      <trkpt lat="40.451733" lon="-5.267533">
        <ele>2199.0</ele>
        <time>2014-06-30T12:21:28Z</time>
      </trkpt>
      <trkpt lat="40.451633" lon="-5.267550">
        <ele>2199.0</ele>
        <time>2014-06-30T12:21:29Z</time>
      </trkpt>
      <trkpt lat="40.451517" lon="-5.267533">
        <ele>2198.0</ele>
        <time>2014-06-30T12:21:30Z</time>
      </trkpt>
      <trkpt lat="40.451417" lon="-5.267483">
        <ele>2196.0</ele>
        <time>2014-06-30T12:21:31Z</time>
      </trkpt>
      <trkpt lat="40.451300" lon="-5.267417">
        <ele>2195.0</ele>
        <time>2014-06-30T12:21:32Z</time>
      </trkpt>
      <trkpt lat="40.451200" lon="-5.267333">
        <ele>2194.0</ele>
        <time>2014-06-30T12:21:33Z</time>
      </trkpt>
      <trkpt lat="40.451117" lon="-5.267233">
        <ele>2193.0</ele>
        <time>2014-06-30T12:21:34Z</time>
      </trkpt>
      <trkpt lat="40.451050" lon="-5.267100">
        <ele>2191.0</ele>
        <time>2014-06-30T12:21:35Z</time>
      </trkpt>
      <trkpt lat="40.451017" lon="-5.266950">
        <ele>2189.0</ele>
        <time>2014-06-30T12:21:36Z</time>
      </trkpt>
      <trkpt lat="40.451017" lon="-5.266783">
        <ele>2186.0</ele>
        <time>2014-06-30T12:21:37Z</time>
      </trkpt>
      <trkpt lat="40.451033" lon="-5.266650">
        <ele>2185.0</ele>
        <time>2014-06-30T12:21:38Z</time>
      </trkpt>
      <trkpt lat="40.451083" lon="-5.266533">
        <ele>2183.0</ele>
        <time>2014-06-30T12:21:39Z</time>
      </trkpt>
      <trkpt lat="40.451133" lon="-5.266450">
        <ele>2184.0</ele>
        <time>2014-06-30T12:21:40Z</time>
      </trkpt>
      <trkpt lat="40.451167" lon="-5.266367">
        <ele>2185.0</ele>
        <time>2014-06-30T12:21:41Z</time>
      </trkpt>
      <trkpt lat="40.451233" lon="-5.266300">
        <ele>2186.0</ele>
        <time>2014-06-30T12:21:42Z</time>
      </trkpt>
      <trkpt lat="40.451283" lon="-5.266233">
        <ele>2186.0</ele>
        <time>2014-06-30T12:21:43Z</time>
      </trkpt>
      <trkpt lat="40.451350" lon="-5.266167">
        <ele>2185.0</ele>
        <time>2014-06-30T12:21:44Z</time>
      </trkpt>
      <trkpt lat="40.451417" lon="-5.266117">
        <ele>2185.0</ele>
        <time>2014-06-30T12:21:45Z</time>
      </trkpt>
      <trkpt lat="40.451483" lon="-5.266067">
        <ele>2185.0</ele>
        <time>2014-06-30T12:21:46Z</time>
      </trkpt>
      <trkpt lat="40.451533" lon="-5.266017">
        <ele>2185.0</ele>
        <time>2014-06-30T12:21:47Z</time>
      </trkpt>
      <trkpt lat="40.451600" lon="-5.265983">
        <ele>2184.0</ele>
        <time>2014-06-30T12:21:48Z</time>
      </trkpt>
      <trkpt lat="40.451667" lon="-5.265933">
        <ele>2183.0</ele>
        <time>2014-06-30T12:21:49Z</time>
      </trkpt>
      <trkpt lat="40.451733" lon="-5.265883">
        <ele>2182.0</ele>
        <time>2014-06-30T12:21:50Z</time>
      </trkpt>
      <trkpt lat="40.451817" lon="-5.265833">
        <ele>2181.0</ele>
        <time>2014-06-30T12:21:51Z</time>
      </trkpt>
      <trkpt lat="40.451883" lon="-5.265767">
        <ele>2181.0</ele>
        <time>2014-06-30T12:21:52Z</time>
      </trkpt>
      <trkpt lat="40.451950" lon="-5.265717">
        <ele>2181.0</ele>
        <time>2014-06-30T12:21:53Z</time>
      </trkpt>
      <trkpt lat="40.452017" lon="-5.265683">
        <ele>2180.0</ele>
        <time>2014-06-30T12:21:54Z</time>
      </trkpt>
      <trkpt lat="40.452083" lon="-5.265667">
        <ele>2180.0</ele>
        <time>2014-06-30T12:21:55Z</time>
      </trkpt>
      <trkpt lat="40.452150" lon="-5.265667">
        <ele>2179.0</ele>
        <time>2014-06-30T12:21:56Z</time>
      </trkpt>
      <trkpt lat="40.452217" lon="-5.265683">
        <ele>2178.0</ele>
        <time>2014-06-30T12:21:57Z</time>
      </trkpt>
      <trkpt lat="40.452267" lon="-5.265733">
        <ele>2179.0</ele>
        <time>2014-06-30T12:21:58Z</time>
      </trkpt>
      <trkpt lat="40.452317" lon="-5.265783">
        <ele>2179.0</ele>
        <time>2014-06-30T12:21:59Z</time>
      </trkpt>
      <trkpt lat="40.452367" lon="-5.265833">
        <ele>2179.0</ele>
        <time>2014-06-30T12:22:00Z</time>
      </trkpt>
      <trkpt lat="40.452433" lon="-5.265883">
        <ele>2179.0</ele>
        <time>2014-06-30T12:22:01Z</time>
      </trkpt>
      <trkpt lat="40.452483" lon="-5.265933">
        <ele>2178.0</ele>
        <time>2014-06-30T12:22:02Z</time>
      </trkpt>
      <trkpt lat="40.452517" lon="-5.266000">
        <ele>2177.0</ele>
        <time>2014-06-30T12:22:03Z</time>
      </trkpt>
      <trkpt lat="40.452567" lon="-5.266050">
        <ele>2175.0</ele>
        <time>2014-06-30T12:22:04Z</time>
      </trkpt>
      <trkpt lat="40.452617" lon="-5.266117">
        <ele>2173.0</ele>
        <time>2014-06-30T12:22:05Z</time>
      </trkpt>
      <trkpt lat="40.452667" lon="-5.266167">
        <ele>2171.0</ele>
        <time>2014-06-30T12:22:06Z</time>
      </trkpt>
      <trkpt lat="40.452717" lon="-5.266233">
        <ele>2168.0</ele>
        <time>2014-06-30T12:22:07Z</time>
      </trkpt>
      <trkpt lat="40.452783" lon="-5.266317">
        <ele>2165.0</ele>
        <time>2014-06-30T12:22:08Z</time>
      </trkpt>
      <trkpt lat="40.452817" lon="-5.266383">
        <ele>2163.0</ele>
        <time>2014-06-30T12:22:09Z</time>
      </trkpt>
      <trkpt lat="40.452867" lon="-5.266450">
        <ele>2161.0</ele>
        <time>2014-06-30T12:22:10Z</time>
      </trkpt>
      <trkpt lat="40.452917" lon="-5.266483">
        <ele>2161.0</ele>
        <time>2014-06-30T12:22:11Z</time>
      </trkpt>
      <trkpt lat="40.452950" lon="-5.266517">
        <ele>2159.0</ele>
        <time>2014-06-30T12:22:12Z</time>
      </trkpt>
      <trkpt lat="40.453000" lon="-5.266567">
        <ele>2157.0</ele>
        <time>2014-06-30T12:22:13Z</time>
      </trkpt>
      <trkpt lat="40.453050" lon="-5.266600">
        <ele>2154.0</ele>
        <time>2014-06-30T12:22:14Z</time>
      </trkpt>
      <trkpt lat="40.453083" lon="-5.266667">
        <ele>2152.0</ele>
        <time>2014-06-30T12:22:15Z</time>
      </trkpt>
      <trkpt lat="40.453117" lon="-5.266717">
        <ele>2150.0</ele>
        <time>2014-06-30T12:22:16Z</time>
      </trkpt>
      <trkpt lat="40.453150" lon="-5.266767">
        <ele>2148.0</ele>
        <time>2014-06-30T12:22:17Z</time>
      </trkpt>
      <trkpt lat="40.453183" lon="-5.266833">
        <ele>2146.0</ele>
        <time>2014-06-30T12:22:18Z</time>
      </trkpt>
      <trkpt lat="40.453217" lon="-5.266883">
        <ele>2144.0</ele>
        <time>2014-06-30T12:22:19Z</time>
      </trkpt>
      <trkpt lat="40.453250" lon="-5.266933">
        <ele>2142.0</ele>
        <time>2014-06-30T12:22:20Z</time>
      </trkpt>
      <trkpt lat="40.453283" lon="-5.267000">
        <ele>2140.0</ele>
        <time>2014-06-30T12:22:21Z</time>
      </trkpt>
      <trkpt lat="40.453317" lon="-5.267067">
        <ele>2137.0</ele>
        <time>2014-06-30T12:22:22Z</time>
      </trkpt>
      <trkpt lat="40.453367" lon="-5.267133">
        <ele>2135.0</ele>
        <time>2014-06-30T12:22:23Z</time>
      </trkpt>
      <trkpt lat="40.453417" lon="-5.267183">
        <ele>2133.0</ele>
        <time>2014-06-30T12:22:24Z</time>
      </trkpt>
      <trkpt lat="40.453467" lon="-5.267233">
        <ele>2132.0</ele>
        <time>2014-06-30T12:22:25Z</time>
      </trkpt>
      <trkpt lat="40.453533" lon="-5.267283">
        <ele>2130.0</ele>
        <time>2014-06-30T12:22:26Z</time>
      </trkpt>
      <trkpt lat="40.453583" lon="-5.267333">
        <ele>2129.0</ele>
        <time>2014-06-30T12:22:27Z</time>
      </trkpt>
      <trkpt lat="40.453633" lon="-5.267383">
        <ele>2128.0</ele>
        <time>2014-06-30T12:22:28Z</time>
      </trkpt>
      <trkpt lat="40.453683" lon="-5.267450">
        <ele>2127.0</ele>
        <time>2014-06-30T12:22:29Z</time>
      </trkpt>
      <trkpt lat="40.453750" lon="-5.267500">
        <ele>2126.0</ele>
        <time>2014-06-30T12:22:30Z</time>
      </trkpt>
      <trkpt lat="40.453817" lon="-5.267567">
        <ele>2125.0</ele>
        <time>2014-06-30T12:22:31Z</time>
      </trkpt>
      <trkpt lat="40.453867" lon="-5.267633">
        <ele>2125.0</ele>
        <time>2014-06-30T12:22:32Z</time>
      </trkpt>
      <trkpt lat="40.453917" lon="-5.267700">
        <ele>2125.0</ele>
        <time>2014-06-30T12:22:33Z</time>
      </trkpt>
      <trkpt lat="40.453967" lon="-5.267750">
        <ele>2125.0</ele>
        <time>2014-06-30T12:22:34Z</time>
      </trkpt>
      <trkpt lat="40.454017" lon="-5.267800">
        <ele>2126.0</ele>
        <time>2014-06-30T12:22:35Z</time>
      </trkpt>
      <trkpt lat="40.454050" lon="-5.267850">
        <ele>2126.0</ele>
        <time>2014-06-30T12:22:36Z</time>
      </trkpt>
      <trkpt lat="40.454100" lon="-5.267900">
        <ele>2126.0</ele>
        <time>2014-06-30T12:22:37Z</time>
      </trkpt>
      <trkpt lat="40.454150" lon="-5.267950">
        <ele>2127.0</ele>
        <time>2014-06-30T12:22:38Z</time>
      </trkpt>
      <trkpt lat="40.454183" lon="-5.267983">
        <ele>2127.0</ele>
        <time>2014-06-30T12:22:39Z</time>
      </trkpt>
      <trkpt lat="40.454233" lon="-5.268033">
        <ele>2128.0</ele>
        <time>2014-06-30T12:22:40Z</time>
      </trkpt>
      <trkpt lat="40.454267" lon="-5.268083">
        <ele>2128.0</ele>
        <time>2014-06-30T12:22:41Z</time>
      </trkpt>
      <trkpt lat="40.454317" lon="-5.268150">
        <ele>2128.0</ele>
        <time>2014-06-30T12:22:42Z</time>
      </trkpt>
      <trkpt lat="40.454350" lon="-5.268200">
        <ele>2129.0</ele>
        <time>2014-06-30T12:22:43Z</time>
      </trkpt>
      <trkpt lat="40.454400" lon="-5.268267">
        <ele>2129.0</ele>
        <time>2014-06-30T12:22:44Z</time>
      </trkpt>
      <trkpt lat="40.454433" lon="-5.268333">
        <ele>2130.0</ele>
        <time>2014-06-30T12:22:45Z</time>
      </trkpt>
      <trkpt lat="40.454483" lon="-5.268383">
        <ele>2131.0</ele>
        <time>2014-06-30T12:22:46Z</time>
      </trkpt>
      <trkpt lat="40.454517" lon="-5.268450">
        <ele>2132.0</ele>
        <time>2014-06-30T12:22:47Z</time>
      </trkpt>
      <trkpt lat="40.454567" lon="-5.268517">
        <ele>2132.0</ele>
        <time>2014-06-30T12:22:48Z</time>
      </trkpt>
      <trkpt lat="40.454600" lon="-5.268583">
        <ele>2132.0</ele>
        <time>2014-06-30T12:22:49Z</time>
      </trkpt>
      <trkpt lat="40.454633" lon="-5.268667">
        <ele>2132.0</ele>
        <time>2014-06-30T12:22:50Z</time>
      </trkpt>
      <trkpt lat="40.454683" lon="-5.268750">
        <ele>2132.0</ele>
        <time>2014-06-30T12:22:51Z</time>
      </trkpt>
      <trkpt lat="40.454733" lon="-5.268817">
        <ele>2132.0</ele>
        <time>2014-06-30T12:22:52Z</time>
      </trkpt>
      <trkpt lat="40.454783" lon="-5.268883">
        <ele>2133.0</ele>
        <time>2014-06-30T12:22:53Z</time>
      </trkpt>
      <trkpt lat="40.454833" lon="-5.268950">
        <ele>2134.0</ele>
        <time>2014-06-30T12:22:54Z</time>
      </trkpt>
      <trkpt lat="40.454883" lon="-5.269000">
        <ele>2135.0</ele>
        <time>2014-06-30T12:22:55Z</time>
      </trkpt>
      <trkpt lat="40.454917" lon="-5.269050">
        <ele>2135.0</ele>
        <time>2014-06-30T12:22:56Z</time>
      </trkpt>
      <trkpt lat="40.454967" lon="-5.269117">
        <ele>2136.0</ele>
        <time>2014-06-30T12:22:57Z</time>
      </trkpt>
      <trkpt lat="40.455033" lon="-5.269167">
        <ele>2136.0</ele>
        <time>2014-06-30T12:22:58Z</time>
      </trkpt>
      <trkpt lat="40.455100" lon="-5.269200">
        <ele>2138.0</ele>
        <time>2014-06-30T12:22:59Z</time>
      </trkpt>
      <trkpt lat="40.455167" lon="-5.269233">
        <ele>2140.0</ele>
        <time>2014-06-30T12:23:00Z</time>
      </trkpt>
      <trkpt lat="40.455233" lon="-5.269250">
        <ele>2143.0</ele>
        <time>2014-06-30T12:23:01Z</time>
      </trkpt>
      <trkpt lat="40.455283" lon="-5.269267">
        <ele>2144.0</ele>
        <time>2014-06-30T12:23:02Z</time>
      </trkpt>
      <trkpt lat="40.455350" lon="-5.269283">
        <ele>2145.0</ele>
        <time>2014-06-30T12:23:03Z</time>
      </trkpt>
      <trkpt lat="40.455417" lon="-5.269300">
        <ele>2146.0</ele>
        <time>2014-06-30T12:23:04Z</time>
      </trkpt>
      <trkpt lat="40.455483" lon="-5.269300">
        <ele>2146.0</ele>
        <time>2014-06-30T12:23:05Z</time>
      </trkpt>
      <trkpt lat="40.455550" lon="-5.269333">
        <ele>2147.0</ele>
        <time>2014-06-30T12:23:06Z</time>
      </trkpt>
      <trkpt lat="40.455617" lon="-5.269350">
        <ele>2148.0</ele>
        <time>2014-06-30T12:23:07Z</time>
      </trkpt>
      <trkpt lat="40.455667" lon="-5.269383">
        <ele>2149.0</ele>
        <time>2014-06-30T12:23:08Z</time>
      </trkpt>
      <trkpt lat="40.455717" lon="-5.269433">
        <ele>2150.0</ele>
        <time>2014-06-30T12:23:09Z</time>
      </trkpt>
      <trkpt lat="40.455767" lon="-5.269483">
        <ele>2151.0</ele>
        <time>2014-06-30T12:23:10Z</time>
      </trkpt>
      <trkpt lat="40.455817" lon="-5.269533">
        <ele>2151.0</ele>
        <time>2014-06-30T12:23:11Z</time>
      </trkpt>
      <trkpt lat="40.455883" lon="-5.269567">
        <ele>2151.0</ele>
        <time>2014-06-30T12:23:12Z</time>
      </trkpt>
      <trkpt lat="40.455967" lon="-5.269583">
        <ele>2151.0</ele>
        <time>2014-06-30T12:23:13Z</time>
      </trkpt>
      <trkpt lat="40.456033" lon="-5.269583">
        <ele>2152.0</ele>
        <time>2014-06-30T12:23:14Z</time>
      </trkpt>
      <trkpt lat="40.456100" lon="-5.269583">
        <ele>2153.0</ele>
        <time>2014-06-30T12:23:15Z</time>
      </trkpt>
      <trkpt lat="40.456183" lon="-5.269617">
        <ele>2154.0</ele>
        <time>2014-06-30T12:23:16Z</time>
      </trkpt>
      <trkpt lat="40.456250" lon="-5.269617">
        <ele>2154.0</ele>
        <time>2014-06-30T12:23:17Z</time>
      </trkpt>
      <trkpt lat="40.456333" lon="-5.269583">
        <ele>2156.0</ele>
        <time>2014-06-30T12:23:18Z</time>
      </trkpt>
      <trkpt lat="40.456400" lon="-5.269533">
        <ele>2157.0</ele>
        <time>2014-06-30T12:23:19Z</time>
      </trkpt>
      <trkpt lat="40.456467" lon="-5.269483">
        <ele>2159.0</ele>
        <time>2014-06-30T12:23:20Z</time>
      </trkpt>
      <trkpt lat="40.456517" lon="-5.269400">
        <ele>2160.0</ele>
        <time>2014-06-30T12:23:21Z</time>
      </trkpt>
      <trkpt lat="40.456567" lon="-5.269317">
        <ele>2161.0</ele>
        <time>2014-06-30T12:23:22Z</time>
      </trkpt>
      <trkpt lat="40.456600" lon="-5.269217">
        <ele>2162.0</ele>
        <time>2014-06-30T12:23:23Z</time>
      </trkpt>
      <trkpt lat="40.456633" lon="-5.269100">
        <ele>2163.0</ele>
        <time>2014-06-30T12:23:24Z</time>
      </trkpt>
      <trkpt lat="40.456633" lon="-5.268983">
        <ele>2163.0</ele>
        <time>2014-06-30T12:23:25Z</time>
      </trkpt>
      <trkpt lat="40.456617" lon="-5.268850">
        <ele>2164.0</ele>
        <time>2014-06-30T12:23:26Z</time>
      </trkpt>
      <trkpt lat="40.456583" lon="-5.268717">
        <ele>2165.0</ele>
        <time>2014-06-30T12:23:27Z</time>
      </trkpt>
      <trkpt lat="40.456550" lon="-5.268583">
        <ele>2166.0</ele>
        <time>2014-06-30T12:23:28Z</time>
      </trkpt>
      <trkpt lat="40.456483" lon="-5.268467">
        <ele>2167.0</ele>
        <time>2014-06-30T12:23:29Z</time>
      </trkpt>
      <trkpt lat="40.456417" lon="-5.268367">
        <ele>2167.0</ele>
        <time>2014-06-30T12:23:30Z</time>
      </trkpt>
      <trkpt lat="40.456333" lon="-5.268283">
        <ele>2168.0</ele>
        <time>2014-06-30T12:23:31Z</time>
      </trkpt>
      <trkpt lat="40.456233" lon="-5.268217">
        <ele>2168.0</ele>
        <time>2014-06-30T12:23:32Z</time>
      </trkpt>
      <trkpt lat="40.456100" lon="-5.268183">
        <ele>2169.0</ele>
        <time>2014-06-30T12:23:33Z</time>
      </trkpt>
      <trkpt lat="40.455983" lon="-5.268183">
        <ele>2169.0</ele>
        <time>2014-06-30T12:23:34Z</time>
      </trkpt>
      <trkpt lat="40.455883" lon="-5.268217">
        <ele>2171.0</ele>
        <time>2014-06-30T12:23:35Z</time>
      </trkpt>
      <trkpt lat="40.455800" lon="-5.268250">
        <ele>2174.0</ele>
        <time>2014-06-30T12:23:36Z</time>
      </trkpt>
      <trkpt lat="40.455733" lon="-5.268300">
        <ele>2176.0</ele>
        <time>2014-06-30T12:23:37Z</time>
      </trkpt>
      <trkpt lat="40.455683" lon="-5.268350">
        <ele>2178.0</ele>
        <time>2014-06-30T12:23:38Z</time>
      </trkpt>
      <trkpt lat="40.455617" lon="-5.268433">
        <ele>2179.0</ele>
        <time>2014-06-30T12:23:39Z</time>
      </trkpt>
      <trkpt lat="40.455550" lon="-5.268517">
        <ele>2180.0</ele>
        <time>2014-06-30T12:23:40Z</time>
      </trkpt>
      <trkpt lat="40.455500" lon="-5.268633">
        <ele>2182.0</ele>
        <time>2014-06-30T12:23:41Z</time>
      </trkpt>
      <trkpt lat="40.455483" lon="-5.268733">
        <ele>2183.0</ele>
        <time>2014-06-30T12:23:42Z</time>
      </trkpt>
      <trkpt lat="40.455483" lon="-5.268817">
        <ele>2185.0</ele>
        <time>2014-06-30T12:23:43Z</time>
      </trkpt>
      <trkpt lat="40.455533" lon="-5.268883">
        <ele>2186.0</ele>
        <time>2014-06-30T12:23:44Z</time>
      </trkpt>
      <trkpt lat="40.455567" lon="-5.268950">
        <ele>2188.0</ele>
        <time>2014-06-30T12:23:45Z</time>
      </trkpt>
      <trkpt lat="40.455633" lon="-5.268983">
        <ele>2189.0</ele>
        <time>2014-06-30T12:23:46Z</time>
      </trkpt>
      <trkpt lat="40.455667" lon="-5.269017">
        <ele>2191.0</ele>
        <time>2014-06-30T12:23:47Z</time>
      </trkpt>
      <trkpt lat="40.455733" lon="-5.269017">
        <ele>2191.0</ele>
        <time>2014-06-30T12:23:48Z</time>
      </trkpt>
      <trkpt lat="40.455783" lon="-5.269017">
        <ele>2192.0</ele>
        <time>2014-06-30T12:23:49Z</time>
      </trkpt>
      <trkpt lat="40.455850" lon="-5.269000">
        <ele>2193.0</ele>
        <time>2014-06-30T12:23:50Z</time>
      </trkpt>
      <trkpt lat="40.455917" lon="-5.268983">
        <ele>2193.0</ele>
        <time>2014-06-30T12:23:51Z</time>
      </trkpt>
      <trkpt lat="40.455983" lon="-5.268950">
        <ele>2194.0</ele>
        <time>2014-06-30T12:23:52Z</time>
      </trkpt>
      <trkpt lat="40.456050" lon="-5.268900">
        <ele>2195.0</ele>
        <time>2014-06-30T12:23:53Z</time>
      </trkpt>
      <trkpt lat="40.456117" lon="-5.268850">
        <ele>2196.0</ele>
        <time>2014-06-30T12:23:54Z</time>
      </trkpt>
      <trkpt lat="40.456183" lon="-5.268767">
        <ele>2196.0</ele>
        <time>2014-06-30T12:23:55Z</time>
      </trkpt>
      <trkpt lat="40.456267" lon="-5.268667">
        <ele>2196.0</ele>
        <time>2014-06-30T12:23:56Z</time>
      </trkpt>
      <trkpt lat="40.456333" lon="-5.268567">
        <ele>2195.0</ele>
        <time>2014-06-30T12:23:57Z</time>
      </trkpt>
      <trkpt lat="40.456383" lon="-5.268433">
        <ele>2196.0</ele>
        <time>2014-06-30T12:23:58Z</time>
      </trkpt>
      <trkpt lat="40.456417" lon="-5.268300">
        <ele>2197.0</ele>
        <time>2014-06-30T12:23:59Z</time>
      </trkpt>
      <trkpt lat="40.456433" lon="-5.268150">
        <ele>2197.0</ele>
        <time>2014-06-30T12:24:00Z</time>
      </trkpt>
      <trkpt lat="40.456433" lon="-5.268000">
        <ele>2198.0</ele>
        <time>2014-06-30T12:24:01Z</time>
      </trkpt>
      <trkpt lat="40.456400" lon="-5.267850">
        <ele>2198.0</ele>
        <time>2014-06-30T12:24:02Z</time>
      </trkpt>
      <trkpt lat="40.456367" lon="-5.267717">
        <ele>2199.0</ele>
        <time>2014-06-30T12:24:03Z</time>
      </trkpt>
      <trkpt lat="40.456300" lon="-5.267600">
        <ele>2201.0</ele>
        <time>2014-06-30T12:24:04Z</time>
      </trkpt>
      <trkpt lat="40.456217" lon="-5.267517">
        <ele>2201.0</ele>
        <time>2014-06-30T12:24:05Z</time>
      </trkpt>
      <trkpt lat="40.456117" lon="-5.267450">
        <ele>2202.0</ele>
        <time>2014-06-30T12:24:06Z</time>
      </trkpt>
      <trkpt lat="40.456000" lon="-5.267417">
        <ele>2203.0</ele>
        <time>2014-06-30T12:24:07Z</time>
      </trkpt>
      <trkpt lat="40.455900" lon="-5.267400">
        <ele>2203.0</ele>
        <time>2014-06-30T12:24:08Z</time>
      </trkpt>
      <trkpt lat="40.455800" lon="-5.267433">
        <ele>2205.0</ele>
        <time>2014-06-30T12:24:09Z</time>
      </trkpt>
      <trkpt lat="40.455733" lon="-5.267467">
        <ele>2207.0</ele>
        <time>2014-06-30T12:24:10Z</time>
      </trkpt>
      <trkpt lat="40.455667" lon="-5.267517">
        <ele>2208.0</ele>
        <time>2014-06-30T12:24:11Z</time>
      </trkpt>
      <trkpt lat="40.455617" lon="-5.267583">
        <ele>2209.0</ele>
        <time>2014-06-30T12:24:12Z</time>
      </trkpt>
      <trkpt lat="40.455550" lon="-5.267650">
        <ele>2209.0</ele>
        <time>2014-06-30T12:24:13Z</time>
      </trkpt>
      <trkpt lat="40.455500" lon="-5.267733">
        <ele>2209.0</ele>
        <time>2014-06-30T12:24:14Z</time>
      </trkpt>
      <trkpt lat="40.455467" lon="-5.267833">
        <ele>2209.0</ele>
        <time>2014-06-30T12:24:15Z</time>
      </trkpt>
      <trkpt lat="40.455450" lon="-5.267933">
        <ele>2208.0</ele>
        <time>2014-06-30T12:24:16Z</time>
      </trkpt>
      <trkpt lat="40.455467" lon="-5.268033">
        <ele>2210.0</ele>
        <time>2014-06-30T12:24:17Z</time>
      </trkpt>
      <trkpt lat="40.455483" lon="-5.268117">
        <ele>2211.0</ele>
        <time>2014-06-30T12:24:18Z</time>
      </trkpt>
      <trkpt lat="40.455517" lon="-5.268183">
        <ele>2214.0</ele>
        <time>2014-06-30T12:24:19Z</time>
      </trkpt>
      <trkpt lat="40.455533" lon="-5.268233">
        <ele>2215.0</ele>
        <time>2014-06-30T12:24:20Z</time>
      </trkpt>
      <trkpt lat="40.455567" lon="-5.268267">
        <ele>2215.0</ele>
        <time>2014-06-30T12:24:21Z</time>
      </trkpt>
      <trkpt lat="40.455600" lon="-5.268300">
        <ele>2215.0</ele>
        <time>2014-06-30T12:24:22Z</time>
      </trkpt>
      <trkpt lat="40.455650" lon="-5.268317">
        <ele>2215.0</ele>
        <time>2014-06-30T12:24:23Z</time>
      </trkpt>
      <trkpt lat="40.455700" lon="-5.268317">
        <ele>2215.0</ele>
        <time>2014-06-30T12:24:24Z</time>
      </trkpt>
      <trkpt lat="40.455783" lon="-5.268317">
        <ele>2215.0</ele>
        <time>2014-06-30T12:24:25Z</time>
      </trkpt>
      <trkpt lat="40.455850" lon="-5.268300">
        <ele>2215.0</ele>
        <time>2014-06-30T12:24:26Z</time>
      </trkpt>
      <trkpt lat="40.455900" lon="-5.268267">
        <ele>2216.0</ele>
        <time>2014-06-30T12:24:27Z</time>
      </trkpt>
      <trkpt lat="40.455967" lon="-5.268233">
        <ele>2217.0</ele>
        <time>2014-06-30T12:24:28Z</time>
      </trkpt>
      <trkpt lat="40.456033" lon="-5.268183">
        <ele>2218.0</ele>
        <time>2014-06-30T12:24:29Z</time>
      </trkpt>
      <trkpt lat="40.456100" lon="-5.268117">
        <ele>2218.0</ele>
        <time>2014-06-30T12:24:30Z</time>
      </trkpt>
      <trkpt lat="40.456183" lon="-5.268050">
        <ele>2219.0</ele>
        <time>2014-06-30T12:24:31Z</time>
      </trkpt>
      <trkpt lat="40.456267" lon="-5.267967">
        <ele>2219.0</ele>
        <time>2014-06-30T12:24:32Z</time>
      </trkpt>
      <trkpt lat="40.456350" lon="-5.267867">
        <ele>2219.0</ele>
        <time>2014-06-30T12:24:33Z</time>
      </trkpt>
      <trkpt lat="40.456417" lon="-5.267767">
        <ele>2221.0</ele>
        <time>2014-06-30T12:24:34Z</time>
      </trkpt>
      <trkpt lat="40.456483" lon="-5.267667">
        <ele>2222.0</ele>
        <time>2014-06-30T12:24:35Z</time>
      </trkpt>
      <trkpt lat="40.456550" lon="-5.267567">
        <ele>2222.0</ele>
        <time>2014-06-30T12:24:36Z</time>
      </trkpt>
      <trkpt lat="40.456633" lon="-5.267467">
        <ele>2223.0</ele>
        <time>2014-06-30T12:24:37Z</time>
      </trkpt>
      <trkpt lat="40.456683" lon="-5.267367">
        <ele>2224.0</ele>
        <time>2014-06-30T12:24:38Z</time>
      </trkpt>
      <trkpt lat="40.456733" lon="-5.267250">
        <ele>2225.0</ele>
        <time>2014-06-30T12:24:39Z</time>
      </trkpt>
      <trkpt lat="40.456783" lon="-5.267133">
        <ele>2227.0</ele>
        <time>2014-06-30T12:24:40Z</time>
      </trkpt>
      <trkpt lat="40.456800" lon="-5.267000">
        <ele>2228.0</ele>
        <time>2014-06-30T12:24:41Z</time>
      </trkpt>
      <trkpt lat="40.456817" lon="-5.266883">
        <ele>2229.0</ele>
        <time>2014-06-30T12:24:42Z</time>
      </trkpt>
      <trkpt lat="40.456817" lon="-5.266750">
        <ele>2230.0</ele>
        <time>2014-06-30T12:24:43Z</time>
      </trkpt>
      <trkpt lat="40.456783" lon="-5.266633">
        <ele>2231.0</ele>
        <time>2014-06-30T12:24:44Z</time>
      </trkpt>
      <trkpt lat="40.456733" lon="-5.266517">
        <ele>2232.0</ele>
        <time>2014-06-30T12:24:45Z</time>
      </trkpt>
      <trkpt lat="40.456667" lon="-5.266400">
        <ele>2232.0</ele>
        <time>2014-06-30T12:24:46Z</time>
      </trkpt>
      <trkpt lat="40.456583" lon="-5.266300">
        <ele>2232.0</ele>
        <time>2014-06-30T12:24:47Z</time>
      </trkpt>
      <trkpt lat="40.456500" lon="-5.266217">
        <ele>2233.0</ele>
        <time>2014-06-30T12:24:48Z</time>
      </trkpt>
      <trkpt lat="40.456417" lon="-5.266150">
        <ele>2233.0</ele>
        <time>2014-06-30T12:24:49Z</time>
      </trkpt>
      <trkpt lat="40.456317" lon="-5.266117">
        <ele>2234.0</ele>
        <time>2014-06-30T12:24:50Z</time>
      </trkpt>
      <trkpt lat="40.456217" lon="-5.266117">
        <ele>2234.0</ele>
        <time>2014-06-30T12:24:51Z</time>
      </trkpt>
      <trkpt lat="40.456133" lon="-5.266150">
        <ele>2234.0</ele>
        <time>2014-06-30T12:24:52Z</time>
      </trkpt>
      <trkpt lat="40.456033" lon="-5.266183">
        <ele>2233.0</ele>
        <time>2014-06-30T12:24:53Z</time>
      </trkpt>
      <trkpt lat="40.455950" lon="-5.266200">
        <ele>2233.0</ele>
        <time>2014-06-30T12:24:54Z</time>
      </trkpt>
      <trkpt lat="40.455850" lon="-5.266233">
        <ele>2233.0</ele>
        <time>2014-06-30T12:24:55Z</time>
      </trkpt>
      <trkpt lat="40.455783" lon="-5.266267">
        <ele>2234.0</ele>
        <time>2014-06-30T12:24:56Z</time>
      </trkpt>
      <trkpt lat="40.455717" lon="-5.266317">
        <ele>2235.0</ele>
        <time>2014-06-30T12:24:57Z</time>
      </trkpt>
      <trkpt lat="40.455667" lon="-5.266367">
        <ele>2235.0</ele>
        <time>2014-06-30T12:24:58Z</time>
      </trkpt>
      <trkpt lat="40.455617" lon="-5.266400">
        <ele>2234.0</ele>
        <time>2014-06-30T12:24:59Z</time>
      </trkpt>
      <trkpt lat="40.455550" lon="-5.266450">
        <ele>2234.0</ele>
        <time>2014-06-30T12:25:00Z</time>
      </trkpt>
      <trkpt lat="40.455500" lon="-5.266517">
        <ele>2232.0</ele>
        <time>2014-06-30T12:25:01Z</time>
      </trkpt>
      <trkpt lat="40.455483" lon="-5.266583">
        <ele>2231.0</ele>
        <time>2014-06-30T12:25:02Z</time>
      </trkpt>
      <trkpt lat="40.455483" lon="-5.266683">
        <ele>2229.0</ele>
        <time>2014-06-30T12:25:03Z</time>
      </trkpt>
      <trkpt lat="40.455517" lon="-5.266767">
        <ele>2228.0</ele>
        <time>2014-06-30T12:25:04Z</time>
      </trkpt>
      <trkpt lat="40.455567" lon="-5.266833">
        <ele>2227.0</ele>
        <time>2014-06-30T12:25:05Z</time>
      </trkpt>
      <trkpt lat="40.455617" lon="-5.266883">
        <ele>2228.0</ele>
        <time>2014-06-30T12:25:06Z</time>
      </trkpt>
      <trkpt lat="40.455667" lon="-5.266917">
        <ele>2230.0</ele>
        <time>2014-06-30T12:25:07Z</time>
      </trkpt>
      <trkpt lat="40.455717" lon="-5.266933">
        <ele>2233.0</ele>
        <time>2014-06-30T12:25:08Z</time>
      </trkpt>
      <trkpt lat="40.455767" lon="-5.266950">
        <ele>2234.0</ele>
        <time>2014-06-30T12:25:09Z</time>
      </trkpt>
      <trkpt lat="40.455817" lon="-5.266983">
        <ele>2235.0</ele>
        <time>2014-06-30T12:25:10Z</time>
      </trkpt>
      <trkpt lat="40.455867" lon="-5.267017">
        <ele>2236.0</ele>
        <time>2014-06-30T12:25:11Z</time>
      </trkpt>
      <trkpt lat="40.455917" lon="-5.267033">
        <ele>2238.0</ele>
        <time>2014-06-30T12:25:12Z</time>
      </trkpt>
      <trkpt lat="40.455967" lon="-5.267033">
        <ele>2240.0</ele>
        <time>2014-06-30T12:25:13Z</time>
      </trkpt>
      <trkpt lat="40.456033" lon="-5.267033">
        <ele>2241.0</ele>
        <time>2014-06-30T12:25:14Z</time>
      </trkpt>
      <trkpt lat="40.456083" lon="-5.267033">
        <ele>2242.0</ele>
        <time>2014-06-30T12:25:15Z</time>
      </trkpt>
      <trkpt lat="40.456150" lon="-5.267033">
        <ele>2242.0</ele>
        <time>2014-06-30T12:25:16Z</time>
      </trkpt>
      <trkpt lat="40.456233" lon="-5.267017">
        <ele>2243.0</ele>
        <time>2014-06-30T12:25:17Z</time>
      </trkpt>
      <trkpt lat="40.456317" lon="-5.267000">
        <ele>2243.0</ele>
        <time>2014-06-30T12:25:18Z</time>
      </trkpt>
      <trkpt lat="40.456383" lon="-5.266967">
        <ele>2244.0</ele>
        <time>2014-06-30T12:25:19Z</time>
      </trkpt>
      <trkpt lat="40.456467" lon="-5.266933">
        <ele>2245.0</ele>
        <time>2014-06-30T12:25:20Z</time>
      </trkpt>
      <trkpt lat="40.456533" lon="-5.266900">
        <ele>2246.0</ele>
        <time>2014-06-30T12:25:21Z</time>
      </trkpt>
      <trkpt lat="40.456617" lon="-5.266883">
        <ele>2246.0</ele>
        <time>2014-06-30T12:25:22Z</time>
      </trkpt>
      <trkpt lat="40.456700" lon="-5.266850">
        <ele>2247.0</ele>
        <time>2014-06-30T12:25:23Z</time>
      </trkpt>
      <trkpt lat="40.456783" lon="-5.266817">
        <ele>2247.0</ele>
        <time>2014-06-30T12:25:24Z</time>
      </trkpt>
      <trkpt lat="40.456883" lon="-5.266767">
        <ele>2248.0</ele>
        <time>2014-06-30T12:25:25Z</time>
      </trkpt>
      <trkpt lat="40.456967" lon="-5.266717">
        <ele>2248.0</ele>
        <time>2014-06-30T12:25:26Z</time>
      </trkpt>
      <trkpt lat="40.457033" lon="-5.266650">
        <ele>2249.0</ele>
        <time>2014-06-30T12:25:27Z</time>
      </trkpt>
      <trkpt lat="40.457100" lon="-5.266600">
        <ele>2249.0</ele>
        <time>2014-06-30T12:25:28Z</time>
      </trkpt>
      <trkpt lat="40.457167" lon="-5.266567">
        <ele>2249.0</ele>
        <time>2014-06-30T12:25:29Z</time>
      </trkpt>
      <trkpt lat="40.457217" lon="-5.266550">
        <ele>2249.0</ele>
        <time>2014-06-30T12:25:30Z</time>
      </trkpt>
      <trkpt lat="40.457300" lon="-5.266533">
        <ele>2248.0</ele>
        <time>2014-06-30T12:25:31Z</time>
      </trkpt>
      <trkpt lat="40.457367" lon="-5.266500">
        <ele>2247.0</ele>
        <time>2014-06-30T12:25:32Z</time>
      </trkpt>
      <trkpt lat="40.457433" lon="-5.266483">
        <ele>2246.0</ele>
        <time>2014-06-30T12:25:33Z</time>
      </trkpt>
      <trkpt lat="40.457517" lon="-5.266450">
        <ele>2244.0</ele>
        <time>2014-06-30T12:25:34Z</time>
      </trkpt>
      <trkpt lat="40.457583" lon="-5.266417">
        <ele>2243.0</ele>
        <time>2014-06-30T12:25:35Z</time>
      </trkpt>
      <trkpt lat="40.457650" lon="-5.266400">
        <ele>2241.0</ele>
        <time>2014-06-30T12:25:36Z</time>
      </trkpt>
      <trkpt lat="40.457717" lon="-5.266350">
        <ele>2241.0</ele>
        <time>2014-06-30T12:25:37Z</time>
      </trkpt>
      <trkpt lat="40.457783" lon="-5.266317">
        <ele>2240.0</ele>
        <time>2014-06-30T12:25:38Z</time>
      </trkpt>
      <trkpt lat="40.457867" lon="-5.266267">
        <ele>2238.0</ele>
        <time>2014-06-30T12:25:39Z</time>
      </trkpt>
      <trkpt lat="40.457967" lon="-5.266217">
        <ele>2236.0</ele>
        <time>2014-06-30T12:25:40Z</time>
      </trkpt>
      <trkpt lat="40.458050" lon="-5.266183">
        <ele>2235.0</ele>
        <time>2014-06-30T12:25:41Z</time>
      </trkpt>
      <trkpt lat="40.458133" lon="-5.266150">
        <ele>2235.0</ele>
        <time>2014-06-30T12:25:42Z</time>
      </trkpt>
      <trkpt lat="40.458217" lon="-5.266117">
        <ele>2235.0</ele>
        <time>2014-06-30T12:25:43Z</time>
      </trkpt>
      <trkpt lat="40.458300" lon="-5.266083">
        <ele>2234.0</ele>
        <time>2014-06-30T12:25:44Z</time>
      </trkpt>
      <trkpt lat="40.458383" lon="-5.266033">
        <ele>2234.0</ele>
        <time>2014-06-30T12:25:45Z</time>
      </trkpt>
      <trkpt lat="40.458467" lon="-5.265983">
        <ele>2233.0</ele>
        <time>2014-06-30T12:25:46Z</time>
      </trkpt>
      <trkpt lat="40.458567" lon="-5.265917">
        <ele>2232.0</ele>
        <time>2014-06-30T12:25:47Z</time>
      </trkpt>
      <trkpt lat="40.458650" lon="-5.265850">
        <ele>2231.0</ele>
        <time>2014-06-30T12:25:48Z</time>
      </trkpt>
      <trkpt lat="40.458750" lon="-5.265800">
        <ele>2230.0</ele>
        <time>2014-06-30T12:25:49Z</time>
      </trkpt>
      <trkpt lat="40.458833" lon="-5.265733">
        <ele>2229.0</ele>
        <time>2014-06-30T12:25:50Z</time>
      </trkpt>
      <trkpt lat="40.458917" lon="-5.265650">
        <ele>2228.0</ele>
        <time>2014-06-30T12:25:51Z</time>
      </trkpt>
      <trkpt lat="40.459000" lon="-5.265567">
        <ele>2227.0</ele>
        <time>2014-06-30T12:25:52Z</time>
      </trkpt>
      <trkpt lat="40.459100" lon="-5.265517">
        <ele>2225.0</ele>
        <time>2014-06-30T12:25:53Z</time>
      </trkpt>
      <trkpt lat="40.459183" lon="-5.265467">
        <ele>2224.0</ele>
        <time>2014-06-30T12:25:54Z</time>
      </trkpt>
      <trkpt lat="40.459283" lon="-5.265433">
        <ele>2224.0</ele>
        <time>2014-06-30T12:25:55Z</time>
      </trkpt>
      <trkpt lat="40.459367" lon="-5.265383">
        <ele>2225.0</ele>
        <time>2014-06-30T12:25:56Z</time>
      </trkpt>
      <trkpt lat="40.459433" lon="-5.265317">
        <ele>2226.0</ele>
        <time>2014-06-30T12:25:57Z</time>
      </trkpt>
      <trkpt lat="40.459500" lon="-5.265267">
        <ele>2226.0</ele>
        <time>2014-06-30T12:25:58Z</time>
      </trkpt>
      <trkpt lat="40.459583" lon="-5.265217">
        <ele>2225.0</ele>
        <time>2014-06-30T12:25:59Z</time>
      </trkpt>
      <trkpt lat="40.459667" lon="-5.265167">
        <ele>2223.0</ele>
        <time>2014-06-30T12:26:00Z</time>
      </trkpt>
      <trkpt lat="40.459767" lon="-5.265133">
        <ele>2222.0</ele>
        <time>2014-06-30T12:26:01Z</time>
      </trkpt>
      <trkpt lat="40.459867" lon="-5.265100">
        <ele>2221.0</ele>
        <time>2014-06-30T12:26:02Z</time>
      </trkpt>
      <trkpt lat="40.459950" lon="-5.265067">
        <ele>2221.0</ele>
        <time>2014-06-30T12:26:03Z</time>
      </trkpt>
      <trkpt lat="40.460033" lon="-5.265033">
        <ele>2221.0</ele>
        <time>2014-06-30T12:26:04Z</time>
      </trkpt>
      <trkpt lat="40.460117" lon="-5.264983">
        <ele>2221.0</ele>
        <time>2014-06-30T12:26:05Z</time>
      </trkpt>
      <trkpt lat="40.460200" lon="-5.264917">
        <ele>2221.0</ele>
        <time>2014-06-30T12:26:06Z</time>
      </trkpt>
      <trkpt lat="40.460267" lon="-5.264867">
        <ele>2220.0</ele>
        <time>2014-06-30T12:26:07Z</time>
      </trkpt>
      <trkpt lat="40.460367" lon="-5.264833">
        <ele>2219.0</ele>
        <time>2014-06-30T12:26:08Z</time>
      </trkpt>
      <trkpt lat="40.460450" lon="-5.264800">
        <ele>2218.0</ele>
        <time>2014-06-30T12:26:09Z</time>
      </trkpt>
      <trkpt lat="40.460533" lon="-5.264767">
        <ele>2216.0</ele>
        <time>2014-06-30T12:26:10Z</time>
      </trkpt>
      <trkpt lat="40.460600" lon="-5.264733">
        <ele>2215.0</ele>
        <time>2014-06-30T12:26:11Z</time>
      </trkpt>
      <trkpt lat="40.460683" lon="-5.264700">
        <ele>2213.0</ele>
        <time>2014-06-30T12:26:12Z</time>
      </trkpt>
      <trkpt lat="40.460783" lon="-5.264667">
        <ele>2211.0</ele>
        <time>2014-06-30T12:26:13Z</time>
      </trkpt>
      <trkpt lat="40.460883" lon="-5.264633">
        <ele>2208.0</ele>
        <time>2014-06-30T12:26:14Z</time>
      </trkpt>
      <trkpt lat="40.460983" lon="-5.264583">
        <ele>2206.0</ele>
        <time>2014-06-30T12:26:15Z</time>
      </trkpt>
      <trkpt lat="40.461100" lon="-5.264533">
        <ele>2203.0</ele>
        <time>2014-06-30T12:26:16Z</time>
      </trkpt>
      <trkpt lat="40.461200" lon="-5.264483">
        <ele>2201.0</ele>
        <time>2014-06-30T12:26:17Z</time>
      </trkpt>
      <trkpt lat="40.461283" lon="-5.264417">
        <ele>2200.0</ele>
        <time>2014-06-30T12:26:18Z</time>
      </trkpt>
      <trkpt lat="40.461383" lon="-5.264383">
        <ele>2199.0</ele>
        <time>2014-06-30T12:26:19Z</time>
      </trkpt>
      <trkpt lat="40.461467" lon="-5.264350">
        <ele>2197.0</ele>
        <time>2014-06-30T12:26:20Z</time>
      </trkpt>
      <trkpt lat="40.461567" lon="-5.264300">
        <ele>2195.0</ele>
        <time>2014-06-30T12:26:21Z</time>
      </trkpt>
      <trkpt lat="40.461667" lon="-5.264233">
        <ele>2193.0</ele>
        <time>2014-06-30T12:26:22Z</time>
      </trkpt>
      <trkpt lat="40.461767" lon="-5.264167">
        <ele>2191.0</ele>
        <time>2014-06-30T12:26:23Z</time>
      </trkpt>
      <trkpt lat="40.461883" lon="-5.264100">
        <ele>2188.0</ele>
        <time>2014-06-30T12:26:24Z</time>
      </trkpt>
      <trkpt lat="40.461983" lon="-5.264050">
        <ele>2186.0</ele>
        <time>2014-06-30T12:26:25Z</time>
      </trkpt>
      <trkpt lat="40.462100" lon="-5.264017">
        <ele>2184.0</ele>
        <time>2014-06-30T12:26:26Z</time>
      </trkpt>
      <trkpt lat="40.462200" lon="-5.263950">
        <ele>2182.0</ele>
        <time>2014-06-30T12:26:27Z</time>
      </trkpt>
      <trkpt lat="40.462300" lon="-5.263883">
        <ele>2180.0</ele>
        <time>2014-06-30T12:26:28Z</time>
      </trkpt>
      <trkpt lat="40.462383" lon="-5.263817">
        <ele>2177.0</ele>
        <time>2014-06-30T12:26:29Z</time>
      </trkpt>
      <trkpt lat="40.462483" lon="-5.263750">
        <ele>2175.0</ele>
        <time>2014-06-30T12:26:30Z</time>
      </trkpt>
      <trkpt lat="40.462583" lon="-5.263700">
        <ele>2173.0</ele>
        <time>2014-06-30T12:26:31Z</time>
      </trkpt>
      <trkpt lat="40.462683" lon="-5.263667">
        <ele>2170.0</ele>
        <time>2014-06-30T12:26:32Z</time>
      </trkpt>
      <trkpt lat="40.462783" lon="-5.263617">
        <ele>2167.0</ele>
        <time>2014-06-30T12:26:33Z</time>
      </trkpt>
      <trkpt lat="40.462883" lon="-5.263583">
        <ele>2166.0</ele>
        <time>2014-06-30T12:26:34Z</time>
      </trkpt>
      <trkpt lat="40.462967" lon="-5.263533">
        <ele>2165.0</ele>
        <time>2014-06-30T12:26:35Z</time>
      </trkpt>
      <trkpt lat="40.463067" lon="-5.263500">
        <ele>2163.0</ele>
        <time>2014-06-30T12:26:36Z</time>
      </trkpt>
      <trkpt lat="40.463167" lon="-5.263450">
        <ele>2161.0</ele>
        <time>2014-06-30T12:26:37Z</time>
      </trkpt>
      <trkpt lat="40.463267" lon="-5.263417">
        <ele>2158.0</ele>
        <time>2014-06-30T12:26:38Z</time>
      </trkpt>
      <trkpt lat="40.463367" lon="-5.263367">
        <ele>2156.0</ele>
        <time>2014-06-30T12:26:39Z</time>
      </trkpt>
      <trkpt lat="40.463483" lon="-5.263317">
        <ele>2154.0</ele>
        <time>2014-06-30T12:26:40Z</time>
      </trkpt>
      <trkpt lat="40.463567" lon="-5.263233">
        <ele>2152.0</ele>
        <time>2014-06-30T12:26:41Z</time>
      </trkpt>
      <trkpt lat="40.463667" lon="-5.263167">
        <ele>2151.0</ele>
        <time>2014-06-30T12:26:42Z</time>
      </trkpt>
      <trkpt lat="40.463750" lon="-5.263100">
        <ele>2149.0</ele>
        <time>2014-06-30T12:26:43Z</time>
      </trkpt>
      <trkpt lat="40.463850" lon="-5.263033">
        <ele>2147.0</ele>
        <time>2014-06-30T12:26:44Z</time>
      </trkpt>
      <trkpt lat="40.463950" lon="-5.262983">
        <ele>2145.0</ele>
        <time>2014-06-30T12:26:45Z</time>
      </trkpt>
      <trkpt lat="40.464050" lon="-5.262950">
        <ele>2143.0</ele>
        <time>2014-06-30T12:26:46Z</time>
      </trkpt>
      <trkpt lat="40.464150" lon="-5.262917">
        <ele>2142.0</ele>
        <time>2014-06-30T12:26:47Z</time>
      </trkpt>
      <trkpt lat="40.464250" lon="-5.262867">
        <ele>2140.0</ele>
        <time>2014-06-30T12:26:48Z</time>
      </trkpt>
      <trkpt lat="40.464333" lon="-5.262833">
        <ele>2139.0</ele>
        <time>2014-06-30T12:26:49Z</time>
      </trkpt>
      <trkpt lat="40.464433" lon="-5.262817">
        <ele>2138.0</ele>
        <time>2014-06-30T12:26:50Z</time>
      </trkpt>
      <trkpt lat="40.464533" lon="-5.262817">
        <ele>2137.0</ele>
        <time>2014-06-30T12:26:51Z</time>
      </trkpt>
      <trkpt lat="40.464633" lon="-5.262817">
        <ele>2135.0</ele>
        <time>2014-06-30T12:26:52Z</time>
      </trkpt>
      <trkpt lat="40.464733" lon="-5.262800">
        <ele>2133.0</ele>
        <time>2014-06-30T12:26:53Z</time>
      </trkpt>
      <trkpt lat="40.464850" lon="-5.262767">
        <ele>2131.0</ele>
        <time>2014-06-30T12:26:54Z</time>
      </trkpt>
      <trkpt lat="40.464950" lon="-5.262733">
        <ele>2130.0</ele>
        <time>2014-06-30T12:26:55Z</time>
      </trkpt>
      <trkpt lat="40.465050" lon="-5.262717">
        <ele>2129.0</ele>
        <time>2014-06-30T12:26:56Z</time>
      </trkpt>
      <trkpt lat="40.465167" lon="-5.262683">
        <ele>2127.0</ele>
        <time>2014-06-30T12:26:57Z</time>
      </trkpt>
      <trkpt lat="40.465267" lon="-5.262650">
        <ele>2126.0</ele>
        <time>2014-06-30T12:26:58Z</time>
      </trkpt>
      <trkpt lat="40.465367" lon="-5.262617">
        <ele>2125.0</ele>
        <time>2014-06-30T12:26:59Z</time>
      </trkpt>
      <trkpt lat="40.465483" lon="-5.262583">
        <ele>2123.0</ele>
        <time>2014-06-30T12:27:00Z</time>
      </trkpt>
      <trkpt lat="40.465583" lon="-5.262550">
        <ele>2121.0</ele>
        <time>2014-06-30T12:27:01Z</time>
      </trkpt>
      <trkpt lat="40.465667" lon="-5.262500">
        <ele>2121.0</ele>
        <time>2014-06-30T12:27:02Z</time>
      </trkpt>
      <trkpt lat="40.465750" lon="-5.262433">
        <ele>2121.0</ele>
        <time>2014-06-30T12:27:03Z</time>
      </trkpt>
      <trkpt lat="40.465817" lon="-5.262383">
        <ele>2122.0</ele>
        <time>2014-06-30T12:27:04Z</time>
      </trkpt>
      <trkpt lat="40.465883" lon="-5.262333">
        <ele>2122.0</ele>
        <time>2014-06-30T12:27:05Z</time>
      </trkpt>
      <trkpt lat="40.465950" lon="-5.262283">
        <ele>2121.0</ele>
        <time>2014-06-30T12:27:06Z</time>
      </trkpt>
      <trkpt lat="40.466050" lon="-5.262250">
        <ele>2118.0</ele>
        <time>2014-06-30T12:27:07Z</time>
      </trkpt>
      <trkpt lat="40.466133" lon="-5.262217">
        <ele>2116.0</ele>
        <time>2014-06-30T12:27:08Z</time>
      </trkpt>
      <trkpt lat="40.466233" lon="-5.262183">
        <ele>2115.0</ele>
        <time>2014-06-30T12:27:09Z</time>
      </trkpt>
      <trkpt lat="40.466317" lon="-5.262150">
        <ele>2114.0</ele>
        <time>2014-06-30T12:27:10Z</time>
      </trkpt>
      <trkpt lat="40.466400" lon="-5.262117">
        <ele>2113.0</ele>
        <time>2014-06-30T12:27:11Z</time>
      </trkpt>
      <trkpt lat="40.466483" lon="-5.262067">
        <ele>2112.0</ele>
        <time>2014-06-30T12:27:12Z</time>
      </trkpt>
      <trkpt lat="40.466583" lon="-5.262033">
        <ele>2110.0</ele>
        <time>2014-06-30T12:27:13Z</time>
      </trkpt>
      <trkpt lat="40.466683" lon="-5.262000">
        <ele>2108.0</ele>
        <time>2014-06-30T12:27:14Z</time>
      </trkpt>
      <trkpt lat="40.466800" lon="-5.261967">
        <ele>2106.0</ele>
        <time>2014-06-30T12:27:15Z</time>
      </trkpt>
      <trkpt lat="40.466900" lon="-5.261917">
        <ele>2104.0</ele>
        <time>2014-06-30T12:27:16Z</time>
      </trkpt>
      <trkpt lat="40.467000" lon="-5.261867">
        <ele>2103.0</ele>
        <time>2014-06-30T12:27:17Z</time>
      </trkpt>
      <trkpt lat="40.467100" lon="-5.261817">
        <ele>2101.0</ele>
        <time>2014-06-30T12:27:18Z</time>
      </trkpt>
      <trkpt lat="40.467200" lon="-5.261767">
        <ele>2099.0</ele>
        <time>2014-06-30T12:27:19Z</time>
      </trkpt>
      <trkpt lat="40.467300" lon="-5.261700">
        <ele>2098.0</ele>
        <time>2014-06-30T12:27:20Z</time>
      </trkpt>
      <trkpt lat="40.467417" lon="-5.261650">
        <ele>2096.0</ele>
        <time>2014-06-30T12:27:21Z</time>
      </trkpt>
      <trkpt lat="40.467517" lon="-5.261583">
        <ele>2094.0</ele>
        <time>2014-06-30T12:27:22Z</time>
      </trkpt>
      <trkpt lat="40.467633" lon="-5.261517">
        <ele>2092.0</ele>
        <time>2014-06-30T12:27:23Z</time>
      </trkpt>
      <trkpt lat="40.467733" lon="-5.261450">
        <ele>2090.0</ele>
        <time>2014-06-30T12:27:24Z</time>
      </trkpt>
      <trkpt lat="40.467833" lon="-5.261383">
        <ele>2089.0</ele>
        <time>2014-06-30T12:27:25Z</time>
      </trkpt>
      <trkpt lat="40.467917" lon="-5.261317">
        <ele>2087.0</ele>
        <time>2014-06-30T12:27:26Z</time>
      </trkpt>
      <trkpt lat="40.468000" lon="-5.261267">
        <ele>2085.0</ele>
        <time>2014-06-30T12:27:27Z</time>
      </trkpt>
      <trkpt lat="40.468100" lon="-5.261200">
        <ele>2083.0</ele>
        <time>2014-06-30T12:27:28Z</time>
      </trkpt>
      <trkpt lat="40.468183" lon="-5.261150">
        <ele>2079.0</ele>
        <time>2014-06-30T12:27:29Z</time>
      </trkpt>
      <trkpt lat="40.468283" lon="-5.261083">
        <ele>2076.0</ele>
        <time>2014-06-30T12:27:30Z</time>
      </trkpt>
      <trkpt lat="40.468400" lon="-5.261033">
        <ele>2073.0</ele>
        <time>2014-06-30T12:27:31Z</time>
      </trkpt>
      <trkpt lat="40.468517" lon="-5.260983">
        <ele>2070.0</ele>
        <time>2014-06-30T12:27:32Z</time>
      </trkpt>
      <trkpt lat="40.468617" lon="-5.260933">
        <ele>2068.0</ele>
        <time>2014-06-30T12:27:33Z</time>
      </trkpt>
      <trkpt lat="40.468733" lon="-5.260867">
        <ele>2065.0</ele>
        <time>2014-06-30T12:27:34Z</time>
      </trkpt>
      <trkpt lat="40.468833" lon="-5.260817">
        <ele>2063.0</ele>
        <time>2014-06-30T12:27:35Z</time>
      </trkpt>
      <trkpt lat="40.468933" lon="-5.260750">
        <ele>2061.0</ele>
        <time>2014-06-30T12:27:36Z</time>
      </trkpt>
      <trkpt lat="40.469033" lon="-5.260683">
        <ele>2058.0</ele>
        <time>2014-06-30T12:27:37Z</time>
      </trkpt>
      <trkpt lat="40.469150" lon="-5.260633">
        <ele>2056.0</ele>
        <time>2014-06-30T12:27:38Z</time>
      </trkpt>
      <trkpt lat="40.469250" lon="-5.260583">
        <ele>2054.0</ele>
        <time>2014-06-30T12:27:39Z</time>
      </trkpt>
      <trkpt lat="40.469367" lon="-5.260533">
        <ele>2052.0</ele>
        <time>2014-06-30T12:27:40Z</time>
      </trkpt>
      <trkpt lat="40.469467" lon="-5.260483">
        <ele>2050.0</ele>
        <time>2014-06-30T12:27:41Z</time>
      </trkpt>
      <trkpt lat="40.469567" lon="-5.260433">
        <ele>2047.0</ele>
        <time>2014-06-30T12:27:42Z</time>
      </trkpt>
      <trkpt lat="40.469683" lon="-5.260367">
        <ele>2045.0</ele>
        <time>2014-06-30T12:27:43Z</time>
      </trkpt>
      <trkpt lat="40.469783" lon="-5.260317">
        <ele>2042.0</ele>
        <time>2014-06-30T12:27:44Z</time>
      </trkpt>
      <trkpt lat="40.469900" lon="-5.260250">
        <ele>2039.0</ele>
        <time>2014-06-30T12:27:45Z</time>
      </trkpt>
      <trkpt lat="40.470017" lon="-5.260183">
        <ele>2036.0</ele>
        <time>2014-06-30T12:27:46Z</time>
      </trkpt>
      <trkpt lat="40.470117" lon="-5.260117">
        <ele>2034.0</ele>
        <time>2014-06-30T12:27:47Z</time>
      </trkpt>
      <trkpt lat="40.470217" lon="-5.260050">
        <ele>2032.0</ele>
        <time>2014-06-30T12:27:48Z</time>
      </trkpt>
      <trkpt lat="40.470333" lon="-5.259983">
        <ele>2029.0</ele>
        <time>2014-06-30T12:27:49Z</time>
      </trkpt>
      <trkpt lat="40.470433" lon="-5.259933">
        <ele>2029.0</ele>
        <time>2014-06-30T12:27:50Z</time>
      </trkpt>
      <trkpt lat="40.470533" lon="-5.259867">
        <ele>2022.0</ele>
        <time>2014-06-30T12:27:51Z</time>
      </trkpt>
      <trkpt lat="40.470633" lon="-5.259817">
        <ele>2019.0</ele>
        <time>2014-06-30T12:27:52Z</time>
      </trkpt>
      <trkpt lat="40.470750" lon="-5.259767">
        <ele>2016.0</ele>
        <time>2014-06-30T12:27:53Z</time>
      </trkpt>
      <trkpt lat="40.470850" lon="-5.259717">
        <ele>2013.0</ele>
        <time>2014-06-30T12:27:54Z</time>
      </trkpt>
      <trkpt lat="40.470950" lon="-5.259667">
        <ele>2010.0</ele>
        <time>2014-06-30T12:27:55Z</time>
      </trkpt>
      <trkpt lat="40.471067" lon="-5.259617">
        <ele>2007.0</ele>
        <time>2014-06-30T12:27:56Z</time>
      </trkpt>
      <trkpt lat="40.471167" lon="-5.259567">
        <ele>2004.0</ele>
        <time>2014-06-30T12:27:57Z</time>
      </trkpt>
      <trkpt lat="40.471283" lon="-5.259500">
        <ele>2001.0</ele>
        <time>2014-06-30T12:27:58Z</time>
      </trkpt>
      <trkpt lat="40.471383" lon="-5.259450">
        <ele>1999.0</ele>
        <time>2014-06-30T12:27:59Z</time>
      </trkpt>
      <trkpt lat="40.471483" lon="-5.259383">
        <ele>1996.0</ele>
        <time>2014-06-30T12:28:00Z</time>
      </trkpt>
      <trkpt lat="40.471583" lon="-5.259317">
        <ele>1994.0</ele>
        <time>2014-06-30T12:28:01Z</time>
      </trkpt>
      <trkpt lat="40.471683" lon="-5.259250">
        <ele>1991.0</ele>
        <time>2014-06-30T12:28:02Z</time>
      </trkpt>
      <trkpt lat="40.471767" lon="-5.259183">
        <ele>1989.0</ele>
        <time>2014-06-30T12:28:03Z</time>
      </trkpt>
      <trkpt lat="40.471867" lon="-5.259117">
        <ele>1986.0</ele>
        <time>2014-06-30T12:28:04Z</time>
      </trkpt>
      <trkpt lat="40.471967" lon="-5.259050">
        <ele>1984.0</ele>
        <time>2014-06-30T12:28:05Z</time>
      </trkpt>
      <trkpt lat="40.472050" lon="-5.258983">
        <ele>1982.0</ele>
        <time>2014-06-30T12:28:06Z</time>
      </trkpt>
      <trkpt lat="40.472150" lon="-5.258917">
        <ele>1979.0</ele>
        <time>2014-06-30T12:28:07Z</time>
      </trkpt>
      <trkpt lat="40.472233" lon="-5.258833">
        <ele>1976.0</ele>
        <time>2014-06-30T12:28:08Z</time>
      </trkpt>
      <trkpt lat="40.472317" lon="-5.258717">
        <ele>1972.0</ele>
        <time>2014-06-30T12:28:09Z</time>
      </trkpt>
      <trkpt lat="40.472400" lon="-5.258617">
        <ele>1969.0</ele>
        <time>2014-06-30T12:28:10Z</time>
      </trkpt>
      <trkpt lat="40.472500" lon="-5.258533">
        <ele>1967.0</ele>
        <time>2014-06-30T12:28:11Z</time>
      </trkpt>
      <trkpt lat="40.472600" lon="-5.258450">
        <ele>1965.0</ele>
        <time>2014-06-30T12:28:12Z</time>
      </trkpt>
      <trkpt lat="40.472700" lon="-5.258383">
        <ele>1963.0</ele>
        <time>2014-06-30T12:28:13Z</time>
      </trkpt>
      <trkpt lat="40.472800" lon="-5.258317">
        <ele>1962.0</ele>
        <time>2014-06-30T12:28:14Z</time>
      </trkpt>
      <trkpt lat="40.472900" lon="-5.258233">
        <ele>1960.0</ele>
        <time>2014-06-30T12:28:15Z</time>
      </trkpt>
      <trkpt lat="40.473017" lon="-5.258150">
        <ele>1958.0</ele>
        <time>2014-06-30T12:28:16Z</time>
      </trkpt>
      <trkpt lat="40.473117" lon="-5.258067">
        <ele>1956.0</ele>
        <time>2014-06-30T12:28:17Z</time>
      </trkpt>
      <trkpt lat="40.473233" lon="-5.258000">
        <ele>1954.0</ele>
        <time>2014-06-30T12:28:18Z</time>
      </trkpt>
      <trkpt lat="40.473333" lon="-5.257917">
        <ele>1953.0</ele>
        <time>2014-06-30T12:28:19Z</time>
      </trkpt>
      <trkpt lat="40.473433" lon="-5.257850">
        <ele>1952.0</ele>
        <time>2014-06-30T12:28:20Z</time>
      </trkpt>
      <trkpt lat="40.473550" lon="-5.257767">
        <ele>1950.0</ele>
        <time>2014-06-30T12:28:21Z</time>
      </trkpt>
      <trkpt lat="40.473667" lon="-5.257700">
        <ele>1948.0</ele>
        <time>2014-06-30T12:28:22Z</time>
      </trkpt>
      <trkpt lat="40.473767" lon="-5.257617">
        <ele>1945.0</ele>
        <time>2014-06-30T12:28:23Z</time>
      </trkpt>
      <trkpt lat="40.473883" lon="-5.257533">
        <ele>1943.0</ele>
        <time>2014-06-30T12:28:24Z</time>
      </trkpt>
      <trkpt lat="40.473967" lon="-5.257433">
        <ele>1942.0</ele>
        <time>2014-06-30T12:28:25Z</time>
      </trkpt>
      <trkpt lat="40.474067" lon="-5.257333">
        <ele>1939.0</ele>
        <time>2014-06-30T12:28:26Z</time>
      </trkpt>
      <trkpt lat="40.474150" lon="-5.257250">
        <ele>1936.0</ele>
        <time>2014-06-30T12:28:27Z</time>
      </trkpt>
      <trkpt lat="40.474267" lon="-5.257150">
        <ele>1933.0</ele>
        <time>2014-06-30T12:28:28Z</time>
      </trkpt>
      <trkpt lat="40.474350" lon="-5.257067">
        <ele>1929.0</ele>
        <time>2014-06-30T12:28:29Z</time>
      </trkpt>
      <trkpt lat="40.474450" lon="-5.256967">
        <ele>1927.0</ele>
        <time>2014-06-30T12:28:30Z</time>
      </trkpt>
      <trkpt lat="40.474550" lon="-5.256850">
        <ele>1924.0</ele>
        <time>2014-06-30T12:28:31Z</time>
      </trkpt>
      <trkpt lat="40.474633" lon="-5.256750">
        <ele>1921.0</ele>
        <time>2014-06-30T12:28:32Z</time>
      </trkpt>
      <trkpt lat="40.474733" lon="-5.256633">
        <ele>1919.0</ele>
        <time>2014-06-30T12:28:33Z</time>
      </trkpt>
      <trkpt lat="40.474850" lon="-5.256533">
        <ele>1916.0</ele>
        <time>2014-06-30T12:28:34Z</time>
      </trkpt>
      <trkpt lat="40.474950" lon="-5.256433">
        <ele>1914.0</ele>
        <time>2014-06-30T12:28:35Z</time>
      </trkpt>
      <trkpt lat="40.475050" lon="-5.256333">
        <ele>1912.0</ele>
        <time>2014-06-30T12:28:36Z</time>
      </trkpt>
      <trkpt lat="40.475150" lon="-5.256233">
        <ele>1911.0</ele>
        <time>2014-06-30T12:28:37Z</time>
      </trkpt>
      <trkpt lat="40.475233" lon="-5.256117">
        <ele>1910.0</ele>
        <time>2014-06-30T12:28:38Z</time>
      </trkpt>
      <trkpt lat="40.475333" lon="-5.256017">
        <ele>1909.0</ele>
        <time>2014-06-30T12:28:39Z</time>
      </trkpt>
      <trkpt lat="40.475433" lon="-5.255900">
        <ele>1908.0</ele>
        <time>2014-06-30T12:28:40Z</time>
      </trkpt>
      <trkpt lat="40.475517" lon="-5.255783">
        <ele>1906.0</ele>
        <time>2014-06-30T12:28:41Z</time>
      </trkpt>
      <trkpt lat="40.475617" lon="-5.255667">
        <ele>1905.0</ele>
        <time>2014-06-30T12:28:42Z</time>
      </trkpt>
      <trkpt lat="40.475700" lon="-5.255550">
        <ele>1904.0</ele>
        <time>2014-06-30T12:28:43Z</time>
      </trkpt>
      <trkpt lat="40.475800" lon="-5.255433">
        <ele>1903.0</ele>
        <time>2014-06-30T12:28:44Z</time>
      </trkpt>
      <trkpt lat="40.475883" lon="-5.255333">
        <ele>1902.0</ele>
        <time>2014-06-30T12:28:45Z</time>
      </trkpt>
      <trkpt lat="40.475967" lon="-5.255250">
        <ele>1901.0</ele>
        <time>2014-06-30T12:28:46Z</time>
      </trkpt>
      <trkpt lat="40.476083" lon="-5.255167">
        <ele>1900.0</ele>
        <time>2014-06-30T12:28:47Z</time>
      </trkpt>
      <trkpt lat="40.476183" lon="-5.255083">
        <ele>1898.0</ele>
        <time>2014-06-30T12:28:48Z</time>
      </trkpt>
      <trkpt lat="40.476300" lon="-5.254983">
        <ele>1897.0</ele>
        <time>2014-06-30T12:28:49Z</time>
      </trkpt>
      <trkpt lat="40.476400" lon="-5.254900">
        <ele>1896.0</ele>
        <time>2014-06-30T12:28:50Z</time>
      </trkpt>
      <trkpt lat="40.476483" lon="-5.254817">
        <ele>1895.0</ele>
        <time>2014-06-30T12:28:51Z</time>
      </trkpt>
      <trkpt lat="40.476583" lon="-5.254733">
        <ele>1895.0</ele>
        <time>2014-06-30T12:28:52Z</time>
      </trkpt>
      <trkpt lat="40.476667" lon="-5.254633">
        <ele>1895.0</ele>
        <time>2014-06-30T12:28:53Z</time>
      </trkpt>
      <trkpt lat="40.476767" lon="-5.254550">
        <ele>1894.0</ele>
        <time>2014-06-30T12:28:54Z</time>
      </trkpt>
      <trkpt lat="40.476867" lon="-5.254450">
        <ele>1893.0</ele>
        <time>2014-06-30T12:28:55Z</time>
      </trkpt>
      <trkpt lat="40.476967" lon="-5.254333">
        <ele>1892.0</ele>
        <time>2014-06-30T12:28:56Z</time>
      </trkpt>
      <trkpt lat="40.477050" lon="-5.254217">
        <ele>1890.0</ele>
        <time>2014-06-30T12:28:57Z</time>
      </trkpt>
      <trkpt lat="40.477150" lon="-5.254083">
        <ele>1889.0</ele>
        <time>2014-06-30T12:28:58Z</time>
      </trkpt>
      <trkpt lat="40.477233" lon="-5.253967">
        <ele>1888.0</ele>
        <time>2014-06-30T12:28:59Z</time>
      </trkpt>
      <trkpt lat="40.477317" lon="-5.253867">
        <ele>1887.0</ele>
        <time>2014-06-30T12:29:00Z</time>
      </trkpt>
      <trkpt lat="40.477417" lon="-5.253767">
        <ele>1886.0</ele>
        <time>2014-06-30T12:29:01Z</time>
      </trkpt>
      <trkpt lat="40.477517" lon="-5.253650">
        <ele>1885.0</ele>
        <time>2014-06-30T12:29:02Z</time>
      </trkpt>
      <trkpt lat="40.477600" lon="-5.253533">
        <ele>1885.0</ele>
        <time>2014-06-30T12:29:03Z</time>
      </trkpt>
      <trkpt lat="40.477683" lon="-5.253433">
        <ele>1884.0</ele>
        <time>2014-06-30T12:29:04Z</time>
      </trkpt>
      <trkpt lat="40.477783" lon="-5.253317">
        <ele>1884.0</ele>
        <time>2014-06-30T12:29:05Z</time>
      </trkpt>
      <trkpt lat="40.477867" lon="-5.253217">
        <ele>1884.0</ele>
        <time>2014-06-30T12:29:06Z</time>
      </trkpt>
      <trkpt lat="40.477967" lon="-5.253100">
        <ele>1883.0</ele>
        <time>2014-06-30T12:29:07Z</time>
      </trkpt>
      <trkpt lat="40.478067" lon="-5.253000">
        <ele>1883.0</ele>
        <time>2014-06-30T12:29:08Z</time>
      </trkpt>
      <trkpt lat="40.478167" lon="-5.252900">
        <ele>1883.0</ele>
        <time>2014-06-30T12:29:09Z</time>
      </trkpt>
      <trkpt lat="40.478267" lon="-5.252800">
        <ele>1883.0</ele>
        <time>2014-06-30T12:29:10Z</time>
      </trkpt>
      <trkpt lat="40.478383" lon="-5.252700">
        <ele>1883.0</ele>
        <time>2014-06-30T12:29:11Z</time>
      </trkpt>
      <trkpt lat="40.478500" lon="-5.252600">
        <ele>1885.0</ele>
        <time>2014-06-30T12:29:12Z</time>
      </trkpt>
      <trkpt lat="40.478600" lon="-5.252500">
        <ele>1887.0</ele>
        <time>2014-06-30T12:29:13Z</time>
      </trkpt>
      <trkpt lat="40.478700" lon="-5.252400">
        <ele>1889.0</ele>
        <time>2014-06-30T12:29:14Z</time>
      </trkpt>
      <trkpt lat="40.478800" lon="-5.252300">
        <ele>1892.0</ele>
        <time>2014-06-30T12:29:15Z</time>
      </trkpt>
      <trkpt lat="40.478917" lon="-5.252217">
        <ele>1893.0</ele>
        <time>2014-06-30T12:29:16Z</time>
      </trkpt>
      <trkpt lat="40.479017" lon="-5.252133">
        <ele>1894.0</ele>
        <time>2014-06-30T12:29:17Z</time>
      </trkpt>
      <trkpt lat="40.479133" lon="-5.252050">
        <ele>1894.0</ele>
        <time>2014-06-30T12:29:18Z</time>
      </trkpt>
      <trkpt lat="40.479267" lon="-5.251983">
        <ele>1894.0</ele>
        <time>2014-06-30T12:29:19Z</time>
      </trkpt>
      <trkpt lat="40.479383" lon="-5.251950">
        <ele>1896.0</ele>
        <time>2014-06-30T12:29:20Z</time>
      </trkpt>
      <trkpt lat="40.479467" lon="-5.251933">
        <ele>1899.0</ele>
        <time>2014-06-30T12:29:21Z</time>
      </trkpt>
      <trkpt lat="40.479533" lon="-5.251950">
        <ele>1900.0</ele>
        <time>2014-06-30T12:29:22Z</time>
      </trkpt>
      <trkpt lat="40.479600" lon="-5.251917">
        <ele>1900.0</ele>
        <time>2014-06-30T12:29:23Z</time>
      </trkpt>
      <trkpt lat="40.479683" lon="-5.251883">
        <ele>1900.0</ele>
        <time>2014-06-30T12:29:24Z</time>
      </trkpt>
      <trkpt lat="40.479767" lon="-5.251817">
        <ele>1900.0</ele>
        <time>2014-06-30T12:29:25Z</time>
      </trkpt>
      <trkpt lat="40.479850" lon="-5.251750">
        <ele>1899.0</ele>
        <time>2014-06-30T12:29:26Z</time>
      </trkpt>
      <trkpt lat="40.479950" lon="-5.251650">
        <ele>1897.0</ele>
        <time>2014-06-30T12:29:27Z</time>
      </trkpt>
      <trkpt lat="40.480050" lon="-5.251550">
        <ele>1895.0</ele>
        <time>2014-06-30T12:29:28Z</time>
      </trkpt>
      <trkpt lat="40.480133" lon="-5.251450">
        <ele>1894.0</ele>
        <time>2014-06-30T12:29:29Z</time>
      </trkpt>
      <trkpt lat="40.480233" lon="-5.251333">
        <ele>1893.0</ele>
        <time>2014-06-30T12:29:30Z</time>
      </trkpt>
      <trkpt lat="40.480300" lon="-5.251217">
        <ele>1892.0</ele>
        <time>2014-06-30T12:29:31Z</time>
      </trkpt>
      <trkpt lat="40.480383" lon="-5.251067">
        <ele>1890.0</ele>
        <time>2014-06-30T12:29:32Z</time>
      </trkpt>
      <trkpt lat="40.480467" lon="-5.250933">
        <ele>1887.0</ele>
        <time>2014-06-30T12:29:33Z</time>
      </trkpt>
      <trkpt lat="40.480550" lon="-5.250800">
        <ele>1885.0</ele>
        <time>2014-06-30T12:29:34Z</time>
      </trkpt>
      <trkpt lat="40.480633" lon="-5.250667">
        <ele>1884.0</ele>
        <time>2014-06-30T12:29:35Z</time>
      </trkpt>
      <trkpt lat="40.480700" lon="-5.250533">
        <ele>1883.0</ele>
        <time>2014-06-30T12:29:36Z</time>
      </trkpt>
      <trkpt lat="40.480750" lon="-5.250383">
        <ele>1883.0</ele>
        <time>2014-06-30T12:29:37Z</time>
      </trkpt>
      <trkpt lat="40.480800" lon="-5.250217">
        <ele>1881.0</ele>
        <time>2014-06-30T12:29:38Z</time>
      </trkpt>
      <trkpt lat="40.480867" lon="-5.250067">
        <ele>1880.0</ele>
        <time>2014-06-30T12:29:39Z</time>
      </trkpt>
      <trkpt lat="40.480917" lon="-5.249900">
        <ele>1880.0</ele>
        <time>2014-06-30T12:29:40Z</time>
      </trkpt>
      <trkpt lat="40.480950" lon="-5.249733">
        <ele>1879.0</ele>
        <time>2014-06-30T12:29:41Z</time>
      </trkpt>
      <trkpt lat="40.480983" lon="-5.249567">
        <ele>1879.0</ele>
        <time>2014-06-30T12:29:42Z</time>
      </trkpt>
      <trkpt lat="40.481000" lon="-5.249400">
        <ele>1880.0</ele>
        <time>2014-06-30T12:29:43Z</time>
      </trkpt>
      <trkpt lat="40.481033" lon="-5.249250">
        <ele>1879.0</ele>
        <time>2014-06-30T12:29:44Z</time>
      </trkpt>
      <trkpt lat="40.481067" lon="-5.249083">
        <ele>1879.0</ele>
        <time>2014-06-30T12:29:45Z</time>
      </trkpt>
      <trkpt lat="40.481100" lon="-5.248917">
        <ele>1878.0</ele>
        <time>2014-06-30T12:29:46Z</time>
      </trkpt>
      <trkpt lat="40.481150" lon="-5.248750">
        <ele>1877.0</ele>
        <time>2014-06-30T12:29:47Z</time>
      </trkpt>
      <trkpt lat="40.481200" lon="-5.248600">
        <ele>1876.0</ele>
        <time>2014-06-30T12:29:48Z</time>
      </trkpt>
      <trkpt lat="40.481250" lon="-5.248450">
        <ele>1876.0</ele>
        <time>2014-06-30T12:29:49Z</time>
      </trkpt>
      <trkpt lat="40.481317" lon="-5.248300">
        <ele>1875.0</ele>
        <time>2014-06-30T12:29:50Z</time>
      </trkpt>
      <trkpt lat="40.481367" lon="-5.248150">
        <ele>1875.0</ele>
        <time>2014-06-30T12:29:51Z</time>
      </trkpt>
      <trkpt lat="40.481417" lon="-5.248017">
        <ele>1875.0</ele>
        <time>2014-06-30T12:29:52Z</time>
      </trkpt>
      <trkpt lat="40.481483" lon="-5.247900">
        <ele>1875.0</ele>
        <time>2014-06-30T12:29:53Z</time>
      </trkpt>
      <trkpt lat="40.481533" lon="-5.247800">
        <ele>1875.0</ele>
        <time>2014-06-30T12:29:54Z</time>
      </trkpt>
      <trkpt lat="40.481617" lon="-5.247700">
        <ele>1875.0</ele>
        <time>2014-06-30T12:29:55Z</time>
      </trkpt>
      <trkpt lat="40.481683" lon="-5.247617">
        <ele>1875.0</ele>
        <time>2014-06-30T12:29:56Z</time>
      </trkpt>
      <trkpt lat="40.481750" lon="-5.247517">
        <ele>1875.0</ele>
        <time>2014-06-30T12:29:57Z</time>
      </trkpt>
      <trkpt lat="40.481800" lon="-5.247400">
        <ele>1875.0</ele>
        <time>2014-06-30T12:29:58Z</time>
      </trkpt>
      <trkpt lat="40.481850" lon="-5.247283">
        <ele>1874.0</ele>
        <time>2014-06-30T12:29:59Z</time>
      </trkpt>
      <trkpt lat="40.481900" lon="-5.247150">
        <ele>1872.0</ele>
        <time>2014-06-30T12:30:00Z</time>
      </trkpt>
      <trkpt lat="40.481950" lon="-5.247033">
        <ele>1871.0</ele>
        <time>2014-06-30T12:30:01Z</time>
      </trkpt>
      <trkpt lat="40.482000" lon="-5.246917">
        <ele>1871.0</ele>
        <time>2014-06-30T12:30:02Z</time>
      </trkpt>
      <trkpt lat="40.482067" lon="-5.246800">
        <ele>1870.0</ele>
        <time>2014-06-30T12:30:03Z</time>
      </trkpt>
      <trkpt lat="40.482117" lon="-5.246700">
        <ele>1870.0</ele>
        <time>2014-06-30T12:30:04Z</time>
      </trkpt>
      <trkpt lat="40.482167" lon="-5.246567">
        <ele>1869.0</ele>
        <time>2014-06-30T12:30:05Z</time>
      </trkpt>
      <trkpt lat="40.482217" lon="-5.246433">
        <ele>1867.0</ele>
        <time>2014-06-30T12:30:06Z</time>
      </trkpt>
      <trkpt lat="40.482233" lon="-5.246300">
        <ele>1867.0</ele>
        <time>2014-06-30T12:30:07Z</time>
      </trkpt>
      <trkpt lat="40.482267" lon="-5.246167">
        <ele>1866.0</ele>
        <time>2014-06-30T12:30:08Z</time>
      </trkpt>
      <trkpt lat="40.482317" lon="-5.246033">
        <ele>1866.0</ele>
        <time>2014-06-30T12:30:09Z</time>
      </trkpt>
      <trkpt lat="40.482350" lon="-5.245900">
        <ele>1865.0</ele>
        <time>2014-06-30T12:30:10Z</time>
      </trkpt>
      <trkpt lat="40.482383" lon="-5.245767">
        <ele>1865.0</ele>
        <time>2014-06-30T12:30:11Z</time>
      </trkpt>
      <trkpt lat="40.482417" lon="-5.245617">
        <ele>1864.0</ele>
        <time>2014-06-30T12:30:12Z</time>
      </trkpt>
      <trkpt lat="40.482450" lon="-5.245467">
        <ele>1863.0</ele>
        <time>2014-06-30T12:30:13Z</time>
      </trkpt>
      <trkpt lat="40.482483" lon="-5.245317">
        <ele>1862.0</ele>
        <time>2014-06-30T12:30:14Z</time>
      </trkpt>
      <trkpt lat="40.482517" lon="-5.245167">
        <ele>1860.0</ele>
        <time>2014-06-30T12:30:15Z</time>
      </trkpt>
      <trkpt lat="40.482550" lon="-5.245033">
        <ele>1860.0</ele>
        <time>2014-06-30T12:30:16Z</time>
      </trkpt>
      <trkpt lat="40.482600" lon="-5.244900">
        <ele>1860.0</ele>
        <time>2014-06-30T12:30:17Z</time>
      </trkpt>
      <trkpt lat="40.482667" lon="-5.244783">
        <ele>1860.0</ele>
        <time>2014-06-30T12:30:18Z</time>
      </trkpt>
      <trkpt lat="40.482733" lon="-5.244683">
        <ele>1860.0</ele>
        <time>2014-06-30T12:30:19Z</time>
      </trkpt>
      <trkpt lat="40.482800" lon="-5.244600">
        <ele>1860.0</ele>
        <time>2014-06-30T12:30:20Z</time>
      </trkpt>
      <trkpt lat="40.482883" lon="-5.244517">
        <ele>1859.0</ele>
        <time>2014-06-30T12:30:21Z</time>
      </trkpt>
      <trkpt lat="40.482967" lon="-5.244450">
        <ele>1858.0</ele>
        <time>2014-06-30T12:30:22Z</time>
      </trkpt>
      <trkpt lat="40.483067" lon="-5.244400">
        <ele>1858.0</ele>
        <time>2014-06-30T12:30:23Z</time>
      </trkpt>
      <trkpt lat="40.483150" lon="-5.244367">
        <ele>1858.0</ele>
        <time>2014-06-30T12:30:24Z</time>
      </trkpt>
      <trkpt lat="40.483233" lon="-5.244317">
        <ele>1858.0</ele>
        <time>2014-06-30T12:30:25Z</time>
      </trkpt>
      <trkpt lat="40.483300" lon="-5.244283">
        <ele>1858.0</ele>
        <time>2014-06-30T12:30:26Z</time>
      </trkpt>
      <trkpt lat="40.483383" lon="-5.244267">
        <ele>1857.0</ele>
        <time>2014-06-30T12:30:27Z</time>
      </trkpt>
      <trkpt lat="40.483483" lon="-5.244233">
        <ele>1855.0</ele>
        <time>2014-06-30T12:30:28Z</time>
      </trkpt>
      <trkpt lat="40.483583" lon="-5.244183">
        <ele>1854.0</ele>
        <time>2014-06-30T12:30:29Z</time>
      </trkpt>
      <trkpt lat="40.483683" lon="-5.244150">
        <ele>1852.0</ele>
        <time>2014-06-30T12:30:30Z</time>
      </trkpt>
      <trkpt lat="40.483783" lon="-5.244133">
        <ele>1851.0</ele>
        <time>2014-06-30T12:30:31Z</time>
      </trkpt>
      <trkpt lat="40.483867" lon="-5.244133">
        <ele>1850.0</ele>
        <time>2014-06-30T12:30:32Z</time>
      </trkpt>
      <trkpt lat="40.483967" lon="-5.244117">
        <ele>1849.0</ele>
        <time>2014-06-30T12:30:33Z</time>
      </trkpt>
      <trkpt lat="40.484050" lon="-5.244117">
        <ele>1848.0</ele>
        <time>2014-06-30T12:30:34Z</time>
      </trkpt>
      <trkpt lat="40.484150" lon="-5.244100">
        <ele>1846.0</ele>
        <time>2014-06-30T12:30:35Z</time>
      </trkpt>
      <trkpt lat="40.484233" lon="-5.244100">
        <ele>1844.0</ele>
        <time>2014-06-30T12:30:36Z</time>
      </trkpt>
      <trkpt lat="40.484333" lon="-5.244067">
        <ele>1842.0</ele>
        <time>2014-06-30T12:30:37Z</time>
      </trkpt>
      <trkpt lat="40.484433" lon="-5.244050">
        <ele>1841.0</ele>
        <time>2014-06-30T12:30:38Z</time>
      </trkpt>
      <trkpt lat="40.484533" lon="-5.244033">
        <ele>1840.0</ele>
        <time>2014-06-30T12:30:39Z</time>
      </trkpt>
      <trkpt lat="40.484617" lon="-5.244017">
        <ele>1839.0</ele>
        <time>2014-06-30T12:30:40Z</time>
      </trkpt>
      <trkpt lat="40.484717" lon="-5.243983">
        <ele>1838.0</ele>
        <time>2014-06-30T12:30:41Z</time>
      </trkpt>
      <trkpt lat="40.484800" lon="-5.243967">
        <ele>1837.0</ele>
        <time>2014-06-30T12:30:42Z</time>
      </trkpt>
      <trkpt lat="40.484883" lon="-5.243950">
        <ele>1837.0</ele>
        <time>2014-06-30T12:30:43Z</time>
      </trkpt>
      <trkpt lat="40.484967" lon="-5.243917">
        <ele>1835.0</ele>
        <time>2014-06-30T12:30:44Z</time>
      </trkpt>
      <trkpt lat="40.485067" lon="-5.243883">
        <ele>1834.0</ele>
        <time>2014-06-30T12:30:45Z</time>
      </trkpt>
      <trkpt lat="40.485133" lon="-5.243833">
        <ele>1833.0</ele>
        <time>2014-06-30T12:30:46Z</time>
      </trkpt>
      <trkpt lat="40.485217" lon="-5.243783">
        <ele>1832.0</ele>
        <time>2014-06-30T12:30:47Z</time>
      </trkpt>
      <trkpt lat="40.485283" lon="-5.243750">
        <ele>1831.0</ele>
        <time>2014-06-30T12:30:48Z</time>
      </trkpt>
      <trkpt lat="40.485367" lon="-5.243700">
        <ele>1830.0</ele>
        <time>2014-06-30T12:30:49Z</time>
      </trkpt>
      <trkpt lat="40.485433" lon="-5.243650">
        <ele>1828.0</ele>
        <time>2014-06-30T12:30:50Z</time>
      </trkpt>
      <trkpt lat="40.485517" lon="-5.243583">
        <ele>1826.0</ele>
        <time>2014-06-30T12:30:51Z</time>
      </trkpt>
      <trkpt lat="40.485583" lon="-5.243500">
        <ele>1823.0</ele>
        <time>2014-06-30T12:30:52Z</time>
      </trkpt>
      <trkpt lat="40.485650" lon="-5.243417">
        <ele>1821.0</ele>
        <time>2014-06-30T12:30:53Z</time>
      </trkpt>
      <trkpt lat="40.485717" lon="-5.243333">
        <ele>1819.0</ele>
        <time>2014-06-30T12:30:54Z</time>
      </trkpt>
      <trkpt lat="40.485800" lon="-5.243267">
        <ele>1817.0</ele>
        <time>2014-06-30T12:30:55Z</time>
      </trkpt>
      <trkpt lat="40.485867" lon="-5.243217">
        <ele>1815.0</ele>
        <time>2014-06-30T12:30:56Z</time>
      </trkpt>
      <trkpt lat="40.485950" lon="-5.243200">
        <ele>1813.0</ele>
        <time>2014-06-30T12:30:57Z</time>
      </trkpt>
      <trkpt lat="40.486017" lon="-5.243200">
        <ele>1811.0</ele>
        <time>2014-06-30T12:30:58Z</time>
      </trkpt>
      <trkpt lat="40.486067" lon="-5.243233">
        <ele>1809.0</ele>
        <time>2014-06-30T12:30:59Z</time>
      </trkpt>
      <trkpt lat="40.486117" lon="-5.243267">
        <ele>1806.0</ele>
        <time>2014-06-30T12:31:00Z</time>
      </trkpt>
      <trkpt lat="40.486167" lon="-5.243317">
        <ele>1805.0</ele>
        <time>2014-06-30T12:31:01Z</time>
      </trkpt>
      <trkpt lat="40.486233" lon="-5.243367">
        <ele>1803.0</ele>
        <time>2014-06-30T12:31:02Z</time>
      </trkpt>
      <trkpt lat="40.486283" lon="-5.243400">
        <ele>1802.0</ele>
        <time>2014-06-30T12:31:03Z</time>
      </trkpt>
      <trkpt lat="40.486333" lon="-5.243450">
        <ele>1801.0</ele>
        <time>2014-06-30T12:31:04Z</time>
      </trkpt>
      <trkpt lat="40.486383" lon="-5.243483">
        <ele>1800.0</ele>
        <time>2014-06-30T12:31:05Z</time>
      </trkpt>
      <trkpt lat="40.486450" lon="-5.243533">
        <ele>1799.0</ele>
        <time>2014-06-30T12:31:06Z</time>
      </trkpt>
      <trkpt lat="40.486500" lon="-5.243567">
        <ele>1797.0</ele>
        <time>2014-06-30T12:31:07Z</time>
      </trkpt>
      <trkpt lat="40.486567" lon="-5.243617">
        <ele>1795.0</ele>
        <time>2014-06-30T12:31:08Z</time>
      </trkpt>
      <trkpt lat="40.486617" lon="-5.243667">
        <ele>1794.0</ele>
        <time>2014-06-30T12:31:09Z</time>
      </trkpt>
      <trkpt lat="40.486683" lon="-5.243700">
        <ele>1793.0</ele>
        <time>2014-06-30T12:31:10Z</time>
      </trkpt>
      <trkpt lat="40.486733" lon="-5.243733">
        <ele>1792.0</ele>
        <time>2014-06-30T12:31:11Z</time>
      </trkpt>
      <trkpt lat="40.486783" lon="-5.243783">
        <ele>1790.0</ele>
        <time>2014-06-30T12:31:12Z</time>
      </trkpt>
      <trkpt lat="40.486850" lon="-5.243817">
        <ele>1789.0</ele>
        <time>2014-06-30T12:31:13Z</time>
      </trkpt>
      <trkpt lat="40.486900" lon="-5.243867">
        <ele>1787.0</ele>
        <time>2014-06-30T12:31:14Z</time>
      </trkpt>
      <trkpt lat="40.486967" lon="-5.243917">
        <ele>1786.0</ele>
        <time>2014-06-30T12:31:15Z</time>
      </trkpt>
      <trkpt lat="40.487017" lon="-5.243950">
        <ele>1785.0</ele>
        <time>2014-06-30T12:31:16Z</time>
      </trkpt>
      <trkpt lat="40.487067" lon="-5.243983">
        <ele>1784.0</ele>
        <time>2014-06-30T12:31:17Z</time>
      </trkpt>
      <trkpt lat="40.487117" lon="-5.244033">
        <ele>1783.0</ele>
        <time>2014-06-30T12:31:18Z</time>
      </trkpt>
      <trkpt lat="40.487167" lon="-5.244083">
        <ele>1781.0</ele>
        <time>2014-06-30T12:31:19Z</time>
      </trkpt>
      <trkpt lat="40.487233" lon="-5.244150">
        <ele>1780.0</ele>
        <time>2014-06-30T12:31:20Z</time>
      </trkpt>
      <trkpt lat="40.487283" lon="-5.244183">
        <ele>1779.0</ele>
        <time>2014-06-30T12:31:21Z</time>
      </trkpt>
      <trkpt lat="40.487350" lon="-5.244233">
        <ele>1779.0</ele>
        <time>2014-06-30T12:31:22Z</time>
      </trkpt>
      <trkpt lat="40.487400" lon="-5.244267">
        <ele>1778.0</ele>
        <time>2014-06-30T12:31:23Z</time>
      </trkpt>
      <trkpt lat="40.487467" lon="-5.244300">
        <ele>1778.0</ele>
        <time>2014-06-30T12:31:24Z</time>
      </trkpt>
      <trkpt lat="40.487517" lon="-5.244350">
        <ele>1777.0</ele>
        <time>2014-06-30T12:31:25Z</time>
      </trkpt>
      <trkpt lat="40.487583" lon="-5.244400">
        <ele>1776.0</ele>
        <time>2014-06-30T12:31:26Z</time>
      </trkpt>
      <trkpt lat="40.487633" lon="-5.244450">
        <ele>1775.0</ele>
        <time>2014-06-30T12:31:27Z</time>
      </trkpt>
      <trkpt lat="40.487700" lon="-5.244500">
        <ele>1773.0</ele>
        <time>2014-06-30T12:31:28Z</time>
      </trkpt>
      <trkpt lat="40.487767" lon="-5.244533">
        <ele>1772.0</ele>
        <time>2014-06-30T12:31:29Z</time>
      </trkpt>
      <trkpt lat="40.487833" lon="-5.244567">
        <ele>1770.0</ele>
        <time>2014-06-30T12:31:30Z</time>
      </trkpt>
      <trkpt lat="40.487900" lon="-5.244600">
        <ele>1769.0</ele>
        <time>2014-06-30T12:31:31Z</time>
      </trkpt>
      <trkpt lat="40.487967" lon="-5.244650">
        <ele>1767.0</ele>
        <time>2014-06-30T12:31:32Z</time>
      </trkpt>
      <trkpt lat="40.488033" lon="-5.244683">
        <ele>1765.0</ele>
        <time>2014-06-30T12:31:33Z</time>
      </trkpt>
      <trkpt lat="40.488100" lon="-5.244717">
        <ele>1763.0</ele>
        <time>2014-06-30T12:31:34Z</time>
      </trkpt>
      <trkpt lat="40.488183" lon="-5.244750">
        <ele>1761.0</ele>
        <time>2014-06-30T12:31:35Z</time>
      </trkpt>
      <trkpt lat="40.488267" lon="-5.244767">
        <ele>1759.0</ele>
        <time>2014-06-30T12:31:36Z</time>
      </trkpt>
      <trkpt lat="40.488333" lon="-5.244783">
        <ele>1757.0</ele>
        <time>2014-06-30T12:31:37Z</time>
      </trkpt>
      <trkpt lat="40.488417" lon="-5.244800">
        <ele>1755.0</ele>
        <time>2014-06-30T12:31:38Z</time>
      </trkpt>
      <trkpt lat="40.488500" lon="-5.244817">
        <ele>1752.0</ele>
        <time>2014-06-30T12:31:39Z</time>
      </trkpt>
      <trkpt lat="40.488583" lon="-5.244833">
        <ele>1750.0</ele>
        <time>2014-06-30T12:31:40Z</time>
      </trkpt>
      <trkpt lat="40.488683" lon="-5.244867">
        <ele>1748.0</ele>
        <time>2014-06-30T12:31:41Z</time>
      </trkpt>
      <trkpt lat="40.488767" lon="-5.244883">
        <ele>1746.0</ele>
        <time>2014-06-30T12:31:42Z</time>
      </trkpt>
      <trkpt lat="40.488850" lon="-5.244900">
        <ele>1745.0</ele>
        <time>2014-06-30T12:31:43Z</time>
      </trkpt>
      <trkpt lat="40.488933" lon="-5.244900">
        <ele>1744.0</ele>
        <time>2014-06-30T12:31:44Z</time>
      </trkpt>
      <trkpt lat="40.489000" lon="-5.244917">
        <ele>1742.0</ele>
        <time>2014-06-30T12:31:45Z</time>
      </trkpt>
      <trkpt lat="40.489083" lon="-5.244933">
        <ele>1740.0</ele>
        <time>2014-06-30T12:31:46Z</time>
      </trkpt>
      <trkpt lat="40.489150" lon="-5.244950">
        <ele>1738.0</ele>
        <time>2014-06-30T12:31:47Z</time>
      </trkpt>
      <trkpt lat="40.489217" lon="-5.244967">
        <ele>1736.0</ele>
        <time>2014-06-30T12:31:48Z</time>
      </trkpt>
      <trkpt lat="40.489283" lon="-5.245000">
        <ele>1733.0</ele>
        <time>2014-06-30T12:31:49Z</time>
      </trkpt>
      <trkpt lat="40.489350" lon="-5.245017">
        <ele>1731.0</ele>
        <time>2014-06-30T12:31:50Z</time>
      </trkpt>
      <trkpt lat="40.489433" lon="-5.245050">
        <ele>1728.0</ele>
        <time>2014-06-30T12:31:51Z</time>
      </trkpt>
      <trkpt lat="40.489500" lon="-5.245083">
        <ele>1727.0</ele>
        <time>2014-06-30T12:31:52Z</time>
      </trkpt>
      <trkpt lat="40.489567" lon="-5.245133">
        <ele>1726.0</ele>
        <time>2014-06-30T12:31:53Z</time>
      </trkpt>
      <trkpt lat="40.489633" lon="-5.245183">
        <ele>1727.0</ele>
        <time>2014-06-30T12:31:54Z</time>
      </trkpt>
      <trkpt lat="40.489683" lon="-5.245217">
        <ele>1728.0</ele>
        <time>2014-06-30T12:31:55Z</time>
      </trkpt>
      <trkpt lat="40.489750" lon="-5.245250">
        <ele>1729.0</ele>
        <time>2014-06-30T12:31:56Z</time>
      </trkpt>
      <trkpt lat="40.489817" lon="-5.245300">
        <ele>1729.0</ele>
        <time>2014-06-30T12:31:57Z</time>
      </trkpt>
      <trkpt lat="40.489883" lon="-5.245350">
        <ele>1729.0</ele>
        <time>2014-06-30T12:31:58Z</time>
      </trkpt>
      <trkpt lat="40.489933" lon="-5.245400">
        <ele>1729.0</ele>
        <time>2014-06-30T12:31:59Z</time>
      </trkpt>
      <trkpt lat="40.490000" lon="-5.245450">
        <ele>1729.0</ele>
        <time>2014-06-30T12:32:00Z</time>
      </trkpt>
      <trkpt lat="40.490067" lon="-5.245483">
        <ele>1728.0</ele>
        <time>2014-06-30T12:32:01Z</time>
      </trkpt>
      <trkpt lat="40.490133" lon="-5.245483">
        <ele>1728.0</ele>
        <time>2014-06-30T12:32:02Z</time>
      </trkpt>
      <trkpt lat="40.490217" lon="-5.245483">
        <ele>1728.0</ele>
        <time>2014-06-30T12:32:03Z</time>
      </trkpt>
      <trkpt lat="40.490300" lon="-5.245483">
        <ele>1728.0</ele>
        <time>2014-06-30T12:32:04Z</time>
      </trkpt>
      <trkpt lat="40.490383" lon="-5.245467">
        <ele>1727.0</ele>
        <time>2014-06-30T12:32:05Z</time>
      </trkpt>
      <trkpt lat="40.490467" lon="-5.245433">
        <ele>1727.0</ele>
        <time>2014-06-30T12:32:06Z</time>
      </trkpt>
      <trkpt lat="40.490550" lon="-5.245383">
        <ele>1726.0</ele>
        <time>2014-06-30T12:32:07Z</time>
      </trkpt>
      <trkpt lat="40.490617" lon="-5.245317">
        <ele>1726.0</ele>
        <time>2014-06-30T12:32:08Z</time>
      </trkpt>
      <trkpt lat="40.490700" lon="-5.245217">
        <ele>1725.0</ele>
        <time>2014-06-30T12:32:09Z</time>
      </trkpt>
      <trkpt lat="40.490767" lon="-5.245100">
        <ele>1724.0</ele>
        <time>2014-06-30T12:32:10Z</time>
      </trkpt>
      <trkpt lat="40.490833" lon="-5.244983">
        <ele>1723.0</ele>
        <time>2014-06-30T12:32:11Z</time>
      </trkpt>
      <trkpt lat="40.490883" lon="-5.244850">
        <ele>1723.0</ele>
        <time>2014-06-30T12:32:12Z</time>
      </trkpt>
      <trkpt lat="40.490917" lon="-5.244717">
        <ele>1722.0</ele>
        <time>2014-06-30T12:32:13Z</time>
      </trkpt>
      <trkpt lat="40.490933" lon="-5.244600">
        <ele>1722.0</ele>
        <time>2014-06-30T12:32:14Z</time>
      </trkpt>
      <trkpt lat="40.490983" lon="-5.244483">
        <ele>1720.0</ele>
        <time>2014-06-30T12:32:15Z</time>
      </trkpt>
      <trkpt lat="40.491067" lon="-5.244383">
        <ele>1718.0</ele>
        <time>2014-06-30T12:32:16Z</time>
      </trkpt>
      <trkpt lat="40.491167" lon="-5.244300">
        <ele>1716.0</ele>
        <time>2014-06-30T12:32:17Z</time>
      </trkpt>
      <trkpt lat="40.491267" lon="-5.244250">
        <ele>1714.0</ele>
        <time>2014-06-30T12:32:18Z</time>
      </trkpt>
      <trkpt lat="40.491367" lon="-5.244233">
        <ele>1713.0</ele>
        <time>2014-06-30T12:32:19Z</time>
      </trkpt>
      <trkpt lat="40.491450" lon="-5.244233">
        <ele>1713.0</ele>
        <time>2014-06-30T12:32:20Z</time>
      </trkpt>
      <trkpt lat="40.491533" lon="-5.244250">
        <ele>1712.0</ele>
        <time>2014-06-30T12:32:21Z</time>
      </trkpt>
      <trkpt lat="40.491600" lon="-5.244267">
        <ele>1711.0</ele>
        <time>2014-06-30T12:32:22Z</time>
      </trkpt>
      <trkpt lat="40.491700" lon="-5.244283">
        <ele>1710.0</ele>
        <time>2014-06-30T12:32:23Z</time>
      </trkpt>
      <trkpt lat="40.491800" lon="-5.244283">
        <ele>1707.0</ele>
        <time>2014-06-30T12:32:24Z</time>
      </trkpt>
      <trkpt lat="40.491900" lon="-5.244300">
        <ele>1705.0</ele>
        <time>2014-06-30T12:32:25Z</time>
      </trkpt>
      <trkpt lat="40.491983" lon="-5.244283">
        <ele>1703.0</ele>
        <time>2014-06-30T12:32:26Z</time>
      </trkpt>
      <trkpt lat="40.492067" lon="-5.244283">
        <ele>1701.0</ele>
        <time>2014-06-30T12:32:27Z</time>
      </trkpt>
      <trkpt lat="40.492150" lon="-5.244267">
        <ele>1700.0</ele>
        <time>2014-06-30T12:32:28Z</time>
      </trkpt>
      <trkpt lat="40.492250" lon="-5.244267">
        <ele>1698.0</ele>
        <time>2014-06-30T12:32:29Z</time>
      </trkpt>
      <trkpt lat="40.492333" lon="-5.244250">
        <ele>1696.0</ele>
        <time>2014-06-30T12:32:30Z</time>
      </trkpt>
      <trkpt lat="40.492433" lon="-5.244233">
        <ele>1694.0</ele>
        <time>2014-06-30T12:32:31Z</time>
      </trkpt>
      <trkpt lat="40.492517" lon="-5.244217">
        <ele>1692.0</ele>
        <time>2014-06-30T12:32:32Z</time>
      </trkpt>
      <trkpt lat="40.492600" lon="-5.244200">
        <ele>1691.0</ele>
        <time>2014-06-30T12:32:33Z</time>
      </trkpt>
      <trkpt lat="40.492683" lon="-5.244200">
        <ele>1689.0</ele>
        <time>2014-06-30T12:32:34Z</time>
      </trkpt>
      <trkpt lat="40.492783" lon="-5.244183">
        <ele>1686.0</ele>
        <time>2014-06-30T12:32:35Z</time>
      </trkpt>
      <trkpt lat="40.492867" lon="-5.244150">
        <ele>1684.0</ele>
        <time>2014-06-30T12:32:36Z</time>
      </trkpt>
      <trkpt lat="40.492950" lon="-5.244100">
        <ele>1682.0</ele>
        <time>2014-06-30T12:32:37Z</time>
      </trkpt>
      <trkpt lat="40.493033" lon="-5.244050">
        <ele>1680.0</ele>
        <time>2014-06-30T12:32:38Z</time>
      </trkpt>
      <trkpt lat="40.493100" lon="-5.243983">
        <ele>1678.0</ele>
        <time>2014-06-30T12:32:39Z</time>
      </trkpt>
      <trkpt lat="40.493183" lon="-5.243933">
        <ele>1676.0</ele>
        <time>2014-06-30T12:32:40Z</time>
      </trkpt>
      <trkpt lat="40.493267" lon="-5.243883">
        <ele>1674.0</ele>
        <time>2014-06-30T12:32:41Z</time>
      </trkpt>
      <trkpt lat="40.493367" lon="-5.243817">
        <ele>1671.0</ele>
        <time>2014-06-30T12:32:42Z</time>
      </trkpt>
      <trkpt lat="40.493450" lon="-5.243750">
        <ele>1668.0</ele>
        <time>2014-06-30T12:32:43Z</time>
      </trkpt>
      <trkpt lat="40.493550" lon="-5.243683">
        <ele>1666.0</ele>
        <time>2014-06-30T12:32:44Z</time>
      </trkpt>
      <trkpt lat="40.493650" lon="-5.243633">
        <ele>1664.0</ele>
        <time>2014-06-30T12:32:45Z</time>
      </trkpt>
      <trkpt lat="40.493750" lon="-5.243600">
        <ele>1663.0</ele>
        <time>2014-06-30T12:32:46Z</time>
      </trkpt>
      <trkpt lat="40.493850" lon="-5.243550">
        <ele>1661.0</ele>
        <time>2014-06-30T12:32:47Z</time>
      </trkpt>
      <trkpt lat="40.493950" lon="-5.243517">
        <ele>1658.0</ele>
        <time>2014-06-30T12:32:48Z</time>
      </trkpt>
      <trkpt lat="40.494067" lon="-5.243467">
        <ele>1656.0</ele>
        <time>2014-06-30T12:32:49Z</time>
      </trkpt>
      <trkpt lat="40.494183" lon="-5.243433">
        <ele>1653.0</ele>
        <time>2014-06-30T12:32:50Z</time>
      </trkpt>
      <trkpt lat="40.494283" lon="-5.243400">
        <ele>1652.0</ele>
        <time>2014-06-30T12:32:51Z</time>
      </trkpt>
      <trkpt lat="40.494383" lon="-5.243383">
        <ele>1651.0</ele>
        <time>2014-06-30T12:32:52Z</time>
      </trkpt>
      <trkpt lat="40.494483" lon="-5.243350">
        <ele>1650.0</ele>
        <time>2014-06-30T12:32:53Z</time>
      </trkpt>
      <trkpt lat="40.494567" lon="-5.243317">
        <ele>1648.0</ele>
        <time>2014-06-30T12:32:54Z</time>
      </trkpt>
      <trkpt lat="40.494667" lon="-5.243300">
        <ele>1647.0</ele>
        <time>2014-06-30T12:32:55Z</time>
      </trkpt>
      <trkpt lat="40.494783" lon="-5.243267">
        <ele>1645.0</ele>
        <time>2014-06-30T12:32:56Z</time>
      </trkpt>
      <trkpt lat="40.494883" lon="-5.243233">
        <ele>1643.0</ele>
        <time>2014-06-30T12:32:57Z</time>
      </trkpt>
      <trkpt lat="40.495000" lon="-5.243200">
        <ele>1641.0</ele>
        <time>2014-06-30T12:32:58Z</time>
      </trkpt>
      <trkpt lat="40.495100" lon="-5.243150">
        <ele>1639.0</ele>
        <time>2014-06-30T12:32:59Z</time>
      </trkpt>
      <trkpt lat="40.495183" lon="-5.243100">
        <ele>1637.0</ele>
        <time>2014-06-30T12:33:00Z</time>
      </trkpt>
      <trkpt lat="40.495283" lon="-5.243050">
        <ele>1634.0</ele>
        <time>2014-06-30T12:33:01Z</time>
      </trkpt>
      <trkpt lat="40.495383" lon="-5.243000">
        <ele>1631.0</ele>
        <time>2014-06-30T12:33:02Z</time>
      </trkpt>
      <trkpt lat="40.495500" lon="-5.242950">
        <ele>1628.0</ele>
        <time>2014-06-30T12:33:03Z</time>
      </trkpt>
      <trkpt lat="40.495600" lon="-5.242900">
        <ele>1625.0</ele>
        <time>2014-06-30T12:33:04Z</time>
      </trkpt>
      <trkpt lat="40.495700" lon="-5.242850">
        <ele>1623.0</ele>
        <time>2014-06-30T12:33:05Z</time>
      </trkpt>
      <trkpt lat="40.495800" lon="-5.242817">
        <ele>1620.0</ele>
        <time>2014-06-30T12:33:06Z</time>
      </trkpt>
      <trkpt lat="40.495900" lon="-5.242767">
        <ele>1618.0</ele>
        <time>2014-06-30T12:33:07Z</time>
      </trkpt>
      <trkpt lat="40.496000" lon="-5.242700">
        <ele>1615.0</ele>
        <time>2014-06-30T12:33:08Z</time>
      </trkpt>
      <trkpt lat="40.496100" lon="-5.242650">
        <ele>1612.0</ele>
        <time>2014-06-30T12:33:09Z</time>
      </trkpt>
      <trkpt lat="40.496200" lon="-5.242583">
        <ele>1609.0</ele>
        <time>2014-06-30T12:33:10Z</time>
      </trkpt>
      <trkpt lat="40.496300" lon="-5.242517">
        <ele>1606.0</ele>
        <time>2014-06-30T12:33:11Z</time>
      </trkpt>
      <trkpt lat="40.496417" lon="-5.242450">
        <ele>1604.0</ele>
        <time>2014-06-30T12:33:12Z</time>
      </trkpt>
      <trkpt lat="40.496517" lon="-5.242383">
        <ele>1602.0</ele>
        <time>2014-06-30T12:33:13Z</time>
      </trkpt>
      <trkpt lat="40.496600" lon="-5.242300">
        <ele>1599.0</ele>
        <time>2014-06-30T12:33:14Z</time>
      </trkpt>
      <trkpt lat="40.496700" lon="-5.242217">
        <ele>1597.0</ele>
        <time>2014-06-30T12:33:15Z</time>
      </trkpt>
      <trkpt lat="40.496800" lon="-5.242133">
        <ele>1595.0</ele>
        <time>2014-06-30T12:33:16Z</time>
      </trkpt>
      <trkpt lat="40.496900" lon="-5.242033">
        <ele>1592.0</ele>
        <time>2014-06-30T12:33:17Z</time>
      </trkpt>
      <trkpt lat="40.497000" lon="-5.241933">
        <ele>1589.0</ele>
        <time>2014-06-30T12:33:18Z</time>
      </trkpt>
      <trkpt lat="40.497100" lon="-5.241850">
        <ele>1587.0</ele>
        <time>2014-06-30T12:33:19Z</time>
      </trkpt>
      <trkpt lat="40.497200" lon="-5.241750">
        <ele>1584.0</ele>
        <time>2014-06-30T12:33:20Z</time>
      </trkpt>
      <trkpt lat="40.497283" lon="-5.241667">
        <ele>1582.0</ele>
        <time>2014-06-30T12:33:21Z</time>
      </trkpt>
      <trkpt lat="40.497383" lon="-5.241567">
        <ele>1580.0</ele>
        <time>2014-06-30T12:33:22Z</time>
      </trkpt>
      <trkpt lat="40.497483" lon="-5.241467">
        <ele>1577.0</ele>
        <time>2014-06-30T12:33:23Z</time>
      </trkpt>
      <trkpt lat="40.497567" lon="-5.241367">
        <ele>1575.0</ele>
        <time>2014-06-30T12:33:24Z</time>
      </trkpt>
      <trkpt lat="40.497667" lon="-5.241267">
        <ele>1571.0</ele>
        <time>2014-06-30T12:33:25Z</time>
      </trkpt>
      <trkpt lat="40.497750" lon="-5.241150">
        <ele>1568.0</ele>
        <time>2014-06-30T12:33:26Z</time>
      </trkpt>
      <trkpt lat="40.497850" lon="-5.241033">
        <ele>1565.0</ele>
        <time>2014-06-30T12:33:27Z</time>
      </trkpt>
      <trkpt lat="40.497950" lon="-5.240933">
        <ele>1561.0</ele>
        <time>2014-06-30T12:33:28Z</time>
      </trkpt>
      <trkpt lat="40.498033" lon="-5.240800">
        <ele>1558.0</ele>
        <time>2014-06-30T12:33:29Z</time>
      </trkpt>
      <trkpt lat="40.498133" lon="-5.240683">
        <ele>1556.0</ele>
        <time>2014-06-30T12:33:30Z</time>
      </trkpt>
      <trkpt lat="40.498217" lon="-5.240550">
        <ele>1553.0</ele>
        <time>2014-06-30T12:33:31Z</time>
      </trkpt>
      <trkpt lat="40.498317" lon="-5.240433">
        <ele>1550.0</ele>
        <time>2014-06-30T12:33:32Z</time>
      </trkpt>
      <trkpt lat="40.498400" lon="-5.240300">
        <ele>1547.0</ele>
        <time>2014-06-30T12:33:33Z</time>
      </trkpt>
      <trkpt lat="40.498500" lon="-5.240183">
        <ele>1545.0</ele>
        <time>2014-06-30T12:33:34Z</time>
      </trkpt>
      <trkpt lat="40.498583" lon="-5.240083">
        <ele>1542.0</ele>
        <time>2014-06-30T12:33:35Z</time>
      </trkpt>
      <trkpt lat="40.498683" lon="-5.239983">
        <ele>1539.0</ele>
        <time>2014-06-30T12:33:36Z</time>
      </trkpt>
      <trkpt lat="40.498783" lon="-5.239900">
        <ele>1535.0</ele>
        <time>2014-06-30T12:33:37Z</time>
      </trkpt>
      <trkpt lat="40.498900" lon="-5.239817">
        <ele>1532.0</ele>
        <time>2014-06-30T12:33:38Z</time>
      </trkpt>
      <trkpt lat="40.499000" lon="-5.239733">
        <ele>1528.0</ele>
        <time>2014-06-30T12:33:39Z</time>
      </trkpt>
      <trkpt lat="40.499100" lon="-5.239667">
        <ele>1525.0</ele>
        <time>2014-06-30T12:33:40Z</time>
      </trkpt>
      <trkpt lat="40.499200" lon="-5.239617">
        <ele>1522.0</ele>
        <time>2014-06-30T12:33:41Z</time>
      </trkpt>
      <trkpt lat="40.499317" lon="-5.239550">
        <ele>1518.0</ele>
        <time>2014-06-30T12:33:42Z</time>
      </trkpt>
      <trkpt lat="40.499433" lon="-5.239483">
        <ele>1514.0</ele>
        <time>2014-06-30T12:33:43Z</time>
      </trkpt>
      <trkpt lat="40.499533" lon="-5.239433">
        <ele>1510.0</ele>
        <time>2014-06-30T12:33:44Z</time>
      </trkpt>
      <trkpt lat="40.499633" lon="-5.239367">
        <ele>1508.0</ele>
        <time>2014-06-30T12:33:45Z</time>
      </trkpt>
      <trkpt lat="40.499733" lon="-5.239317">
        <ele>1505.0</ele>
        <time>2014-06-30T12:33:46Z</time>
      </trkpt>
      <trkpt lat="40.499833" lon="-5.239267">
        <ele>1503.0</ele>
        <time>2014-06-30T12:33:47Z</time>
      </trkpt>
      <trkpt lat="40.499933" lon="-5.239217">
        <ele>1498.0</ele>
        <time>2014-06-30T12:33:48Z</time>
      </trkpt>
      <trkpt lat="40.500033" lon="-5.239167">
        <ele>1494.0</ele>
        <time>2014-06-30T12:33:49Z</time>
      </trkpt>
      <trkpt lat="40.500133" lon="-5.239100">
        <ele>1490.0</ele>
        <time>2014-06-30T12:33:50Z</time>
      </trkpt>
      <trkpt lat="40.500233" lon="-5.239050">
        <ele>1487.0</ele>
        <time>2014-06-30T12:33:51Z</time>
      </trkpt>
      <trkpt lat="40.500333" lon="-5.239000">
        <ele>1483.0</ele>
        <time>2014-06-30T12:33:52Z</time>
      </trkpt>
      <trkpt lat="40.500417" lon="-5.238950">
        <ele>1480.0</ele>
        <time>2014-06-30T12:33:53Z</time>
      </trkpt>
      <trkpt lat="40.500517" lon="-5.238900">
        <ele>1476.0</ele>
        <time>2014-06-30T12:33:54Z</time>
      </trkpt>
      <trkpt lat="40.500617" lon="-5.238833">
        <ele>1472.0</ele>
        <time>2014-06-30T12:33:55Z</time>
      </trkpt>
      <trkpt lat="40.500717" lon="-5.238750">
        <ele>1468.0</ele>
        <time>2014-06-30T12:33:56Z</time>
      </trkpt>
      <trkpt lat="40.500817" lon="-5.238683">
        <ele>1464.0</ele>
        <time>2014-06-30T12:33:57Z</time>
      </trkpt>
      <trkpt lat="40.500917" lon="-5.238617">
        <ele>1459.0</ele>
        <time>2014-06-30T12:33:58Z</time>
      </trkpt>
      <trkpt lat="40.501000" lon="-5.238533">
        <ele>1455.0</ele>
        <time>2014-06-30T12:33:59Z</time>
      </trkpt>
      <trkpt lat="40.501100" lon="-5.238467">
        <ele>1450.0</ele>
        <time>2014-06-30T12:34:00Z</time>
      </trkpt>
      <trkpt lat="40.501200" lon="-5.238383">
        <ele>1445.0</ele>
        <time>2014-06-30T12:34:01Z</time>
      </trkpt>
      <trkpt lat="40.501300" lon="-5.238300">
        <ele>1440.0</ele>
        <time>2014-06-30T12:34:02Z</time>
      </trkpt>
      <trkpt lat="40.501400" lon="-5.238200">
        <ele>1436.0</ele>
        <time>2014-06-30T12:34:03Z</time>
      </trkpt>
      <trkpt lat="40.501500" lon="-5.238117">
        <ele>1431.0</ele>
        <time>2014-06-30T12:34:04Z</time>
      </trkpt>
      <trkpt lat="40.501583" lon="-5.238017">
        <ele>1427.0</ele>
        <time>2014-06-30T12:34:05Z</time>
      </trkpt>
      <trkpt lat="40.501683" lon="-5.237933">
        <ele>1423.0</ele>
        <time>2014-06-30T12:34:06Z</time>
      </trkpt>
      <trkpt lat="40.501783" lon="-5.237850">
        <ele>1419.0</ele>
        <time>2014-06-30T12:34:07Z</time>
      </trkpt>
      <trkpt lat="40.501883" lon="-5.237767">
        <ele>1416.0</ele>
        <time>2014-06-30T12:34:08Z</time>
      </trkpt>
      <trkpt lat="40.501983" lon="-5.237667">
        <ele>1415.0</ele>
        <time>2014-06-30T12:34:09Z</time>
      </trkpt>
      <trkpt lat="40.502067" lon="-5.237550">
        <ele>1415.0</ele>
        <time>2014-06-30T12:34:10Z</time>
      </trkpt>
      <trkpt lat="40.502133" lon="-5.237467">
        <ele>1416.0</ele>
        <time>2014-06-30T12:34:11Z</time>
      </trkpt>
      <trkpt lat="40.502200" lon="-5.237367">
        <ele>1417.0</ele>
        <time>2014-06-30T12:34:12Z</time>
      </trkpt>
      <trkpt lat="40.502267" lon="-5.237283">
        <ele>1418.0</ele>
        <time>2014-06-30T12:34:13Z</time>
      </trkpt>
      <trkpt lat="40.502350" lon="-5.237183">
        <ele>1418.0</ele>
        <time>2014-06-30T12:34:14Z</time>
      </trkpt>
      <trkpt lat="40.502433" lon="-5.237083">
        <ele>1418.0</ele>
        <time>2014-06-30T12:34:15Z</time>
      </trkpt>
      <trkpt lat="40.502500" lon="-5.236967">
        <ele>1419.0</ele>
        <time>2014-06-30T12:34:16Z</time>
      </trkpt>
      <trkpt lat="40.502583" lon="-5.236850">
        <ele>1421.0</ele>
        <time>2014-06-30T12:34:17Z</time>
      </trkpt>
      <trkpt lat="40.502650" lon="-5.236717">
        <ele>1422.0</ele>
        <time>2014-06-30T12:34:18Z</time>
      </trkpt>
      <trkpt lat="40.502700" lon="-5.236567">
        <ele>1424.0</ele>
        <time>2014-06-30T12:34:19Z</time>
      </trkpt>
      <trkpt lat="40.502750" lon="-5.236417">
        <ele>1425.0</ele>
        <time>2014-06-30T12:34:20Z</time>
      </trkpt>
      <trkpt lat="40.502817" lon="-5.236250">
        <ele>1427.0</ele>
        <time>2014-06-30T12:34:21Z</time>
      </trkpt>
      <trkpt lat="40.502867" lon="-5.236117">
        <ele>1430.0</ele>
        <time>2014-06-30T12:34:22Z</time>
      </trkpt>
      <trkpt lat="40.502917" lon="-5.235983">
        <ele>1432.0</ele>
        <time>2014-06-30T12:34:23Z</time>
      </trkpt>
      <trkpt lat="40.502967" lon="-5.235850">
        <ele>1435.0</ele>
        <time>2014-06-30T12:34:24Z</time>
      </trkpt>
      <trkpt lat="40.503017" lon="-5.235733">
        <ele>1438.0</ele>
        <time>2014-06-30T12:34:25Z</time>
      </trkpt>
      <trkpt lat="40.503050" lon="-5.235583">
        <ele>1439.0</ele>
        <time>2014-06-30T12:34:26Z</time>
      </trkpt>
      <trkpt lat="40.503067" lon="-5.235417">
        <ele>1441.0</ele>
        <time>2014-06-30T12:34:27Z</time>
      </trkpt>
      <trkpt lat="40.503050" lon="-5.235267">
        <ele>1443.0</ele>
        <time>2014-06-30T12:34:28Z</time>
      </trkpt>
      <trkpt lat="40.502983" lon="-5.235150">
        <ele>1444.0</ele>
        <time>2014-06-30T12:34:29Z</time>
      </trkpt>
      <trkpt lat="40.502917" lon="-5.235067">
        <ele>1445.0</ele>
        <time>2014-06-30T12:34:30Z</time>
      </trkpt>
      <trkpt lat="40.502850" lon="-5.235050">
        <ele>1446.0</ele>
        <time>2014-06-30T12:34:31Z</time>
      </trkpt>
      <trkpt lat="40.502783" lon="-5.235067">
        <ele>1447.0</ele>
        <time>2014-06-30T12:34:32Z</time>
      </trkpt>
      <trkpt lat="40.502750" lon="-5.235117">
        <ele>1448.0</ele>
        <time>2014-06-30T12:34:33Z</time>
      </trkpt>
      <trkpt lat="40.502717" lon="-5.235167">
        <ele>1448.0</ele>
        <time>2014-06-30T12:34:34Z</time>
      </trkpt>
      <trkpt lat="40.502717" lon="-5.235233">
        <ele>1445.0</ele>
        <time>2014-06-30T12:34:35Z</time>
      </trkpt>
      <trkpt lat="40.502733" lon="-5.235283">
        <ele>1445.0</ele>
        <time>2014-06-30T12:34:36Z</time>
      </trkpt>
      <trkpt lat="40.502783" lon="-5.235333">
        <ele>1445.0</ele>
        <time>2014-06-30T12:34:37Z</time>
      </trkpt>
      <trkpt lat="40.502833" lon="-5.235383">
        <ele>1446.0</ele>
        <time>2014-06-30T12:34:38Z</time>
      </trkpt>
      <trkpt lat="40.502900" lon="-5.235400">
        <ele>1447.0</ele>
        <time>2014-06-30T12:34:39Z</time>
      </trkpt>
      <trkpt lat="40.502967" lon="-5.235400">
        <ele>1450.0</ele>
        <time>2014-06-30T12:34:40Z</time>
      </trkpt>
      <trkpt lat="40.503033" lon="-5.235400">
        <ele>1453.0</ele>
        <time>2014-06-30T12:34:41Z</time>
      </trkpt>
      <trkpt lat="40.503100" lon="-5.235383">
        <ele>1456.0</ele>
        <time>2014-06-30T12:34:42Z</time>
      </trkpt>
      <trkpt lat="40.503183" lon="-5.235367">
        <ele>1458.0</ele>
        <time>2014-06-30T12:34:43Z</time>
      </trkpt>
      <trkpt lat="40.503267" lon="-5.235333">
        <ele>1461.0</ele>
        <time>2014-06-30T12:34:44Z</time>
      </trkpt>
      <trkpt lat="40.503350" lon="-5.235283">
        <ele>1463.0</ele>
        <time>2014-06-30T12:34:45Z</time>
      </trkpt>
      <trkpt lat="40.503433" lon="-5.235217">
        <ele>1465.0</ele>
        <time>2014-06-30T12:34:46Z</time>
      </trkpt>
      <trkpt lat="40.503533" lon="-5.235117">
        <ele>1468.0</ele>
        <time>2014-06-30T12:34:47Z</time>
      </trkpt>
      <trkpt lat="40.503617" lon="-5.235000">
        <ele>1470.0</ele>
        <time>2014-06-30T12:34:48Z</time>
      </trkpt>
      <trkpt lat="40.503667" lon="-5.234850">
        <ele>1476.0</ele>
        <time>2014-06-30T12:34:49Z</time>
      </trkpt>
      <trkpt lat="40.503700" lon="-5.234700">
        <ele>1480.0</ele>
        <time>2014-06-30T12:34:50Z</time>
      </trkpt>
      <trkpt lat="40.503733" lon="-5.234533">
        <ele>1483.0</ele>
        <time>2014-06-30T12:34:51Z</time>
      </trkpt>
      <trkpt lat="40.503750" lon="-5.234367">
        <ele>1486.0</ele>
        <time>2014-06-30T12:34:52Z</time>
      </trkpt>
      <trkpt lat="40.503783" lon="-5.234200">
        <ele>1488.0</ele>
        <time>2014-06-30T12:34:53Z</time>
      </trkpt>
      <trkpt lat="40.503817" lon="-5.234033">
        <ele>1491.0</ele>
        <time>2014-06-30T12:34:54Z</time>
      </trkpt>
      <trkpt lat="40.503850" lon="-5.233833">
        <ele>1493.0</ele>
        <time>2014-06-30T12:34:55Z</time>
      </trkpt>
      <trkpt lat="40.503850" lon="-5.233650">
        <ele>1496.0</ele>
        <time>2014-06-30T12:34:56Z</time>
      </trkpt>
      <trkpt lat="40.503817" lon="-5.233500">
        <ele>1499.0</ele>
        <time>2014-06-30T12:34:57Z</time>
      </trkpt>
      <trkpt lat="40.503750" lon="-5.233367">
        <ele>1501.0</ele>
        <time>2014-06-30T12:34:58Z</time>
      </trkpt>
      <trkpt lat="40.503667" lon="-5.233283">
        <ele>1504.0</ele>
        <time>2014-06-30T12:34:59Z</time>
      </trkpt>
      <trkpt lat="40.503600" lon="-5.233233">
        <ele>1506.0</ele>
        <time>2014-06-30T12:35:00Z</time>
      </trkpt>
      <trkpt lat="40.503517" lon="-5.233217">
        <ele>1509.0</ele>
        <time>2014-06-30T12:35:01Z</time>
      </trkpt>
      <trkpt lat="40.503433" lon="-5.233250">
        <ele>1510.0</ele>
        <time>2014-06-30T12:35:02Z</time>
      </trkpt>
      <trkpt lat="40.503383" lon="-5.233300">
        <ele>1512.0</ele>
        <time>2014-06-30T12:35:03Z</time>
      </trkpt>
      <trkpt lat="40.503350" lon="-5.233383">
        <ele>1514.0</ele>
        <time>2014-06-30T12:35:04Z</time>
      </trkpt>
      <trkpt lat="40.503333" lon="-5.233450">
        <ele>1516.0</ele>
        <time>2014-06-30T12:35:05Z</time>
      </trkpt>
      <trkpt lat="40.503367" lon="-5.233517">
        <ele>1518.0</ele>
        <time>2014-06-30T12:35:06Z</time>
      </trkpt>
      <trkpt lat="40.503383" lon="-5.233583">
        <ele>1520.0</ele>
        <time>2014-06-30T12:35:07Z</time>
      </trkpt>
      <trkpt lat="40.503417" lon="-5.233633">
        <ele>1521.0</ele>
        <time>2014-06-30T12:35:08Z</time>
      </trkpt>
      <trkpt lat="40.503450" lon="-5.233683">
        <ele>1522.0</ele>
        <time>2014-06-30T12:35:09Z</time>
      </trkpt>
      <trkpt lat="40.503483" lon="-5.233733">
        <ele>1525.0</ele>
        <time>2014-06-30T12:35:10Z</time>
      </trkpt>
      <trkpt lat="40.503517" lon="-5.233767">
        <ele>1526.0</ele>
        <time>2014-06-30T12:35:11Z</time>
      </trkpt>
      <trkpt lat="40.503583" lon="-5.233783">
        <ele>1529.0</ele>
        <time>2014-06-30T12:35:12Z</time>
      </trkpt>
      <trkpt lat="40.503650" lon="-5.233767">
        <ele>1531.0</ele>
        <time>2014-06-30T12:35:13Z</time>
      </trkpt>
      <trkpt lat="40.503733" lon="-5.233733">
        <ele>1534.0</ele>
        <time>2014-06-30T12:35:14Z</time>
      </trkpt>
      <trkpt lat="40.503817" lon="-5.233667">
        <ele>1536.0</ele>
        <time>2014-06-30T12:35:15Z</time>
      </trkpt>
      <trkpt lat="40.503917" lon="-5.233583">
        <ele>1538.0</ele>
        <time>2014-06-30T12:35:16Z</time>
      </trkpt>
      <trkpt lat="40.504017" lon="-5.233500">
        <ele>1540.0</ele>
        <time>2014-06-30T12:35:17Z</time>
      </trkpt>
      <trkpt lat="40.504100" lon="-5.233400">
        <ele>1543.0</ele>
        <time>2014-06-30T12:35:18Z</time>
      </trkpt>
      <trkpt lat="40.504167" lon="-5.233283">
        <ele>1546.0</ele>
        <time>2014-06-30T12:35:19Z</time>
      </trkpt>
      <trkpt lat="40.504217" lon="-5.233150">
        <ele>1549.0</ele>
        <time>2014-06-30T12:35:20Z</time>
      </trkpt>
      <trkpt lat="40.504267" lon="-5.233017">
        <ele>1550.0</ele>
        <time>2014-06-30T12:35:21Z</time>
      </trkpt>
      <trkpt lat="40.504300" lon="-5.232850">
        <ele>1552.0</ele>
        <time>2014-06-30T12:35:22Z</time>
      </trkpt>
      <trkpt lat="40.504333" lon="-5.232683">
        <ele>1553.0</ele>
        <time>2014-06-30T12:35:23Z</time>
      </trkpt>
      <trkpt lat="40.504333" lon="-5.232517">
        <ele>1554.0</ele>
        <time>2014-06-30T12:35:24Z</time>
      </trkpt>
      <trkpt lat="40.504300" lon="-5.232350">
        <ele>1556.0</ele>
        <time>2014-06-30T12:35:25Z</time>
      </trkpt>
      <trkpt lat="40.504267" lon="-5.232217">
        <ele>1559.0</ele>
        <time>2014-06-30T12:35:26Z</time>
      </trkpt>
      <trkpt lat="40.504200" lon="-5.232117">
        <ele>1561.0</ele>
        <time>2014-06-30T12:35:27Z</time>
      </trkpt>
      <trkpt lat="40.504133" lon="-5.232050">
        <ele>1563.0</ele>
        <time>2014-06-30T12:35:28Z</time>
      </trkpt>
      <trkpt lat="40.504050" lon="-5.232017">
        <ele>1565.0</ele>
        <time>2014-06-30T12:35:29Z</time>
      </trkpt>
      <trkpt lat="40.503967" lon="-5.232017">
        <ele>1567.0</ele>
        <time>2014-06-30T12:35:30Z</time>
      </trkpt>
      <trkpt lat="40.503900" lon="-5.232033">
        <ele>1569.0</ele>
        <time>2014-06-30T12:35:31Z</time>
      </trkpt>
      <trkpt lat="40.503850" lon="-5.232083">
        <ele>1570.0</ele>
        <time>2014-06-30T12:35:32Z</time>
      </trkpt>
      <trkpt lat="40.503817" lon="-5.232117">
        <ele>1572.0</ele>
        <time>2014-06-30T12:35:33Z</time>
      </trkpt>
      <trkpt lat="40.503817" lon="-5.232167">
        <ele>1574.0</ele>
        <time>2014-06-30T12:35:34Z</time>
      </trkpt>
      <trkpt lat="40.503833" lon="-5.232217">
        <ele>1576.0</ele>
        <time>2014-06-30T12:35:35Z</time>
      </trkpt>
      <trkpt lat="40.503867" lon="-5.232250">
        <ele>1578.0</ele>
        <time>2014-06-30T12:35:36Z</time>
      </trkpt>
      <trkpt lat="40.503883" lon="-5.232300">
        <ele>1579.0</ele>
        <time>2014-06-30T12:35:37Z</time>
      </trkpt>
      <trkpt lat="40.503900" lon="-5.232350">
        <ele>1580.0</ele>
        <time>2014-06-30T12:35:38Z</time>
      </trkpt>
      <trkpt lat="40.503933" lon="-5.232417">
        <ele>1580.0</ele>
        <time>2014-06-30T12:35:39Z</time>
      </trkpt>
      <trkpt lat="40.503967" lon="-5.232467">
        <ele>1581.0</ele>
        <time>2014-06-30T12:35:40Z</time>
      </trkpt>
      <trkpt lat="40.504017" lon="-5.232500">
        <ele>1582.0</ele>
        <time>2014-06-30T12:35:41Z</time>
      </trkpt>
      <trkpt lat="40.504083" lon="-5.232533">
        <ele>1584.0</ele>
        <time>2014-06-30T12:35:42Z</time>
      </trkpt>
      <trkpt lat="40.504133" lon="-5.232550">
        <ele>1586.0</ele>
        <time>2014-06-30T12:35:43Z</time>
      </trkpt>
      <trkpt lat="40.504200" lon="-5.232550">
        <ele>1588.0</ele>
        <time>2014-06-30T12:35:44Z</time>
      </trkpt>
      <trkpt lat="40.504267" lon="-5.232550">
        <ele>1590.0</ele>
        <time>2014-06-30T12:35:45Z</time>
      </trkpt>
      <trkpt lat="40.504350" lon="-5.232517">
        <ele>1592.0</ele>
        <time>2014-06-30T12:35:46Z</time>
      </trkpt>
      <trkpt lat="40.504433" lon="-5.232483">
        <ele>1595.0</ele>
        <time>2014-06-30T12:35:47Z</time>
      </trkpt>
      <trkpt lat="40.504517" lon="-5.232433">
        <ele>1598.0</ele>
        <time>2014-06-30T12:35:48Z</time>
      </trkpt>
      <trkpt lat="40.504600" lon="-5.232400">
        <ele>1602.0</ele>
        <time>2014-06-30T12:35:49Z</time>
      </trkpt>
      <trkpt lat="40.504683" lon="-5.232367">
        <ele>1605.0</ele>
        <time>2014-06-30T12:35:50Z</time>
      </trkpt>
      <trkpt lat="40.504750" lon="-5.232333">
        <ele>1608.0</ele>
        <time>2014-06-30T12:35:51Z</time>
      </trkpt>
      <trkpt lat="40.504833" lon="-5.232283">
        <ele>1610.0</ele>
        <time>2014-06-30T12:35:52Z</time>
      </trkpt>
      <trkpt lat="40.504917" lon="-5.232183">
        <ele>1612.0</ele>
        <time>2014-06-30T12:35:53Z</time>
      </trkpt>
      <trkpt lat="40.505000" lon="-5.232067">
        <ele>1613.0</ele>
        <time>2014-06-30T12:35:54Z</time>
      </trkpt>
      <trkpt lat="40.505050" lon="-5.231917">
        <ele>1613.0</ele>
        <time>2014-06-30T12:35:55Z</time>
      </trkpt>
      <trkpt lat="40.505083" lon="-5.231767">
        <ele>1613.0</ele>
        <time>2014-06-30T12:35:56Z</time>
      </trkpt>
      <trkpt lat="40.505083" lon="-5.231617">
        <ele>1615.0</ele>
        <time>2014-06-30T12:35:57Z</time>
      </trkpt>
      <trkpt lat="40.505067" lon="-5.231483">
        <ele>1617.0</ele>
        <time>2014-06-30T12:35:58Z</time>
      </trkpt>
      <trkpt lat="40.505033" lon="-5.231367">
        <ele>1619.0</ele>
        <time>2014-06-30T12:35:59Z</time>
      </trkpt>
      <trkpt lat="40.504967" lon="-5.231267">
        <ele>1623.0</ele>
        <time>2014-06-30T12:36:00Z</time>
      </trkpt>
      <trkpt lat="40.504917" lon="-5.231200">
        <ele>1626.0</ele>
        <time>2014-06-30T12:36:01Z</time>
      </trkpt>
      <trkpt lat="40.504850" lon="-5.231133">
        <ele>1629.0</ele>
        <time>2014-06-30T12:36:02Z</time>
      </trkpt>
      <trkpt lat="40.504767" lon="-5.231100">
        <ele>1632.0</ele>
        <time>2014-06-30T12:36:03Z</time>
      </trkpt>
      <trkpt lat="40.504700" lon="-5.231083">
        <ele>1635.0</ele>
        <time>2014-06-30T12:36:04Z</time>
      </trkpt>
      <trkpt lat="40.504650" lon="-5.231100">
        <ele>1637.0</ele>
        <time>2014-06-30T12:36:05Z</time>
      </trkpt>
      <trkpt lat="40.504600" lon="-5.231133">
        <ele>1640.0</ele>
        <time>2014-06-30T12:36:06Z</time>
      </trkpt>
      <trkpt lat="40.504567" lon="-5.231183">
        <ele>1644.0</ele>
        <time>2014-06-30T12:36:07Z</time>
      </trkpt>
      <trkpt lat="40.504550" lon="-5.231233">
        <ele>1647.0</ele>
        <time>2014-06-30T12:36:08Z</time>
      </trkpt>
      <trkpt lat="40.504533" lon="-5.231283">
        <ele>1651.0</ele>
        <time>2014-06-30T12:36:09Z</time>
      </trkpt>
      <trkpt lat="40.504533" lon="-5.231317">
        <ele>1655.0</ele>
        <time>2014-06-30T12:36:10Z</time>
      </trkpt>
      <trkpt lat="40.504550" lon="-5.231350">
        <ele>1659.0</ele>
        <time>2014-06-30T12:36:11Z</time>
      </trkpt>
      <trkpt lat="40.504583" lon="-5.231383">
        <ele>1661.0</ele>
        <time>2014-06-30T12:36:12Z</time>
      </trkpt>
      <trkpt lat="40.504633" lon="-5.231417">
        <ele>1663.0</ele>
        <time>2014-06-30T12:36:13Z</time>
      </trkpt>
      <trkpt lat="40.504683" lon="-5.231450">
        <ele>1665.0</ele>
        <time>2014-06-30T12:36:14Z</time>
      </trkpt>
      <trkpt lat="40.504767" lon="-5.231433">
        <ele>1668.0</ele>
        <time>2014-06-30T12:36:15Z</time>
      </trkpt>
      <trkpt lat="40.504850" lon="-5.231400">
        <ele>1670.0</ele>
        <time>2014-06-30T12:36:16Z</time>
      </trkpt>
      <trkpt lat="40.504933" lon="-5.231350">
        <ele>1672.0</ele>
        <time>2014-06-30T12:36:17Z</time>
      </trkpt>
      <trkpt lat="40.505017" lon="-5.231267">
        <ele>1673.0</ele>
        <time>2014-06-30T12:36:18Z</time>
      </trkpt>
      <trkpt lat="40.505100" lon="-5.231183">
        <ele>1675.0</ele>
        <time>2014-06-30T12:36:19Z</time>
      </trkpt>
      <trkpt lat="40.505167" lon="-5.231100">
        <ele>1677.0</ele>
        <time>2014-06-30T12:36:20Z</time>
      </trkpt>
      <trkpt lat="40.505233" lon="-5.230983">
        <ele>1677.0</ele>
        <time>2014-06-30T12:36:21Z</time>
      </trkpt>
      <trkpt lat="40.505283" lon="-5.230833">
        <ele>1676.0</ele>
        <time>2014-06-30T12:36:22Z</time>
      </trkpt>
      <trkpt lat="40.505317" lon="-5.230667">
        <ele>1676.0</ele>
        <time>2014-06-30T12:36:23Z</time>
      </trkpt>
      <trkpt lat="40.505333" lon="-5.230517">
        <ele>1676.0</ele>
        <time>2014-06-30T12:36:24Z</time>
      </trkpt>
      <trkpt lat="40.505317" lon="-5.230350">
        <ele>1677.0</ele>
        <time>2014-06-30T12:36:25Z</time>
      </trkpt>
      <trkpt lat="40.505283" lon="-5.230217">
        <ele>1678.0</ele>
        <time>2014-06-30T12:36:26Z</time>
      </trkpt>
      <trkpt lat="40.505217" lon="-5.230117">
        <ele>1680.0</ele>
        <time>2014-06-30T12:36:27Z</time>
      </trkpt>
      <trkpt lat="40.505150" lon="-5.230033">
        <ele>1683.0</ele>
        <time>2014-06-30T12:36:28Z</time>
      </trkpt>
      <trkpt lat="40.505100" lon="-5.229983">
        <ele>1686.0</ele>
        <time>2014-06-30T12:36:29Z</time>
      </trkpt>
      <trkpt lat="40.505033" lon="-5.229950">
        <ele>1688.0</ele>
        <time>2014-06-30T12:36:30Z</time>
      </trkpt>
      <trkpt lat="40.504950" lon="-5.229950">
        <ele>1690.0</ele>
        <time>2014-06-30T12:36:31Z</time>
      </trkpt>
      <trkpt lat="40.504883" lon="-5.229967">
        <ele>1691.0</ele>
        <time>2014-06-30T12:36:32Z</time>
      </trkpt>
      <trkpt lat="40.504833" lon="-5.230000">
        <ele>1693.0</ele>
        <time>2014-06-30T12:36:33Z</time>
      </trkpt>
      <trkpt lat="40.504800" lon="-5.230083">
        <ele>1695.0</ele>
        <time>2014-06-30T12:36:34Z</time>
      </trkpt>
      <trkpt lat="40.504800" lon="-5.230150">
        <ele>1697.0</ele>
        <time>2014-06-30T12:36:35Z</time>
      </trkpt>
      <trkpt lat="40.504833" lon="-5.230217">
        <ele>1699.0</ele>
        <time>2014-06-30T12:36:36Z</time>
      </trkpt>
      <trkpt lat="40.504883" lon="-5.230267">
        <ele>1702.0</ele>
        <time>2014-06-30T12:36:37Z</time>
      </trkpt>
      <trkpt lat="40.504967" lon="-5.230283">
        <ele>1704.0</ele>
        <time>2014-06-30T12:36:38Z</time>
      </trkpt>
      <trkpt lat="40.505033" lon="-5.230283">
        <ele>1707.0</ele>
        <time>2014-06-30T12:36:39Z</time>
      </trkpt>
      <trkpt lat="40.505133" lon="-5.230267">
        <ele>1709.0</ele>
        <time>2014-06-30T12:36:40Z</time>
      </trkpt>
      <trkpt lat="40.505217" lon="-5.230233">
        <ele>1712.0</ele>
        <time>2014-06-30T12:36:41Z</time>
      </trkpt>
      <trkpt lat="40.505300" lon="-5.230217">
        <ele>1714.0</ele>
        <time>2014-06-30T12:36:42Z</time>
      </trkpt>
      <trkpt lat="40.505383" lon="-5.230167">
        <ele>1715.0</ele>
        <time>2014-06-30T12:36:43Z</time>
      </trkpt>
      <trkpt lat="40.505467" lon="-5.230067">
        <ele>1714.0</ele>
        <time>2014-06-30T12:36:44Z</time>
      </trkpt>
      <trkpt lat="40.505567" lon="-5.229933">
        <ele>1711.0</ele>
        <time>2014-06-30T12:36:45Z</time>
      </trkpt>
      <trkpt lat="40.505633" lon="-5.229783">
        <ele>1711.0</ele>
        <time>2014-06-30T12:36:46Z</time>
      </trkpt>
      <trkpt lat="40.505683" lon="-5.229633">
        <ele>1712.0</ele>
        <time>2014-06-30T12:36:47Z</time>
      </trkpt>
      <trkpt lat="40.505717" lon="-5.229483">
        <ele>1713.0</ele>
        <time>2014-06-30T12:36:48Z</time>
      </trkpt>
      <trkpt lat="40.505733" lon="-5.229350">
        <ele>1714.0</ele>
        <time>2014-06-30T12:36:49Z</time>
      </trkpt>
      <trkpt lat="40.505717" lon="-5.229217">
        <ele>1718.0</ele>
        <time>2014-06-30T12:36:50Z</time>
      </trkpt>
      <trkpt lat="40.505717" lon="-5.229100">
        <ele>1720.0</ele>
        <time>2014-06-30T12:36:51Z</time>
      </trkpt>
      <trkpt lat="40.505700" lon="-5.228983">
        <ele>1723.0</ele>
        <time>2014-06-30T12:36:52Z</time>
      </trkpt>
      <trkpt lat="40.505683" lon="-5.228883">
        <ele>1726.0</ele>
        <time>2014-06-30T12:36:53Z</time>
      </trkpt>
      <trkpt lat="40.505667" lon="-5.228783">
        <ele>1729.0</ele>
        <time>2014-06-30T12:36:54Z</time>
      </trkpt>
      <trkpt lat="40.505633" lon="-5.228683">
        <ele>1732.0</ele>
        <time>2014-06-30T12:36:55Z</time>
      </trkpt>
      <trkpt lat="40.505583" lon="-5.228617">
        <ele>1735.0</ele>
        <time>2014-06-30T12:36:56Z</time>
      </trkpt>
      <trkpt lat="40.505533" lon="-5.228583">
        <ele>1738.0</ele>
        <time>2014-06-30T12:36:57Z</time>
      </trkpt>
      <trkpt lat="40.505467" lon="-5.228550">
        <ele>1741.0</ele>
        <time>2014-06-30T12:36:58Z</time>
      </trkpt>
      <trkpt lat="40.505400" lon="-5.228533">
        <ele>1744.0</ele>
        <time>2014-06-30T12:36:59Z</time>
      </trkpt>
      <trkpt lat="40.505317" lon="-5.228550">
        <ele>1746.0</ele>
        <time>2014-06-30T12:37:00Z</time>
      </trkpt>
      <trkpt lat="40.505250" lon="-5.228567">
        <ele>1750.0</ele>
        <time>2014-06-30T12:37:01Z</time>
      </trkpt>
      <trkpt lat="40.505217" lon="-5.228600">
        <ele>1753.0</ele>
        <time>2014-06-30T12:37:02Z</time>
      </trkpt>
      <trkpt lat="40.505183" lon="-5.228633">
        <ele>1756.0</ele>
        <time>2014-06-30T12:37:03Z</time>
      </trkpt>
      <trkpt lat="40.505150" lon="-5.228683">
        <ele>1758.0</ele>
        <time>2014-06-30T12:37:04Z</time>
      </trkpt>
      <trkpt lat="40.505117" lon="-5.228733">
        <ele>1760.0</ele>
        <time>2014-06-30T12:37:05Z</time>
      </trkpt>
      <trkpt lat="40.505083" lon="-5.228783">
        <ele>1761.0</ele>
        <time>2014-06-30T12:37:06Z</time>
      </trkpt>
      <trkpt lat="40.505067" lon="-5.228833">
        <ele>1763.0</ele>
        <time>2014-06-30T12:37:07Z</time>
      </trkpt>
      <trkpt lat="40.505083" lon="-5.228900">
        <ele>1765.0</ele>
        <time>2014-06-30T12:37:08Z</time>
      </trkpt>
      <trkpt lat="40.505133" lon="-5.228950">
        <ele>1766.0</ele>
        <time>2014-06-30T12:37:09Z</time>
      </trkpt>
      <trkpt lat="40.505183" lon="-5.229017">
        <ele>1766.0</ele>
        <time>2014-06-30T12:37:10Z</time>
      </trkpt>
      <trkpt lat="40.505233" lon="-5.229067">
        <ele>1767.0</ele>
        <time>2014-06-30T12:37:11Z</time>
      </trkpt>
      <trkpt lat="40.505267" lon="-5.229100">
        <ele>1769.0</ele>
        <time>2014-06-30T12:37:12Z</time>
      </trkpt>
      <trkpt lat="40.505317" lon="-5.229133">
        <ele>1771.0</ele>
        <time>2014-06-30T12:37:13Z</time>
      </trkpt>
      <trkpt lat="40.505350" lon="-5.229150">
        <ele>1773.0</ele>
        <time>2014-06-30T12:37:14Z</time>
      </trkpt>
      <trkpt lat="40.505400" lon="-5.229183">
        <ele>1774.0</ele>
        <time>2014-06-30T12:37:15Z</time>
      </trkpt>
      <trkpt lat="40.505467" lon="-5.229217">
        <ele>1775.0</ele>
        <time>2014-06-30T12:37:16Z</time>
      </trkpt>
      <trkpt lat="40.505500" lon="-5.229250">
        <ele>1775.0</ele>
        <time>2014-06-30T12:37:17Z</time>
      </trkpt>
      <trkpt lat="40.505550" lon="-5.229283">
        <ele>1775.0</ele>
        <time>2014-06-30T12:37:18Z</time>
      </trkpt>
      <trkpt lat="40.505600" lon="-5.229300">
        <ele>1774.0</ele>
        <time>2014-06-30T12:37:19Z</time>
      </trkpt>
      <trkpt lat="40.505667" lon="-5.229333">
        <ele>1774.0</ele>
        <time>2014-06-30T12:37:20Z</time>
      </trkpt>
      <trkpt lat="40.505733" lon="-5.229350">
        <ele>1773.0</ele>
        <time>2014-06-30T12:37:21Z</time>
      </trkpt>
      <trkpt lat="40.505817" lon="-5.229367">
        <ele>1772.0</ele>
        <time>2014-06-30T12:37:22Z</time>
      </trkpt>
      <trkpt lat="40.505883" lon="-5.229383">
        <ele>1772.0</ele>
        <time>2014-06-30T12:37:23Z</time>
      </trkpt>
      <trkpt lat="40.505950" lon="-5.229400">
        <ele>1772.0</ele>
        <time>2014-06-30T12:37:24Z</time>
      </trkpt>
      <trkpt lat="40.506000" lon="-5.229433">
        <ele>1773.0</ele>
        <time>2014-06-30T12:37:25Z</time>
      </trkpt>
      <trkpt lat="40.506050" lon="-5.229467">
        <ele>1773.0</ele>
        <time>2014-06-30T12:37:26Z</time>
      </trkpt>
      <trkpt lat="40.506117" lon="-5.229500">
        <ele>1774.0</ele>
        <time>2014-06-30T12:37:27Z</time>
      </trkpt>
      <trkpt lat="40.506167" lon="-5.229533">
        <ele>1774.0</ele>
        <time>2014-06-30T12:37:28Z</time>
      </trkpt>
      <trkpt lat="40.506217" lon="-5.229583">
        <ele>1775.0</ele>
        <time>2014-06-30T12:37:29Z</time>
      </trkpt>
      <trkpt lat="40.506250" lon="-5.229617">
        <ele>1775.0</ele>
        <time>2014-06-30T12:37:30Z</time>
      </trkpt>
      <trkpt lat="40.506300" lon="-5.229650">
        <ele>1774.0</ele>
        <time>2014-06-30T12:37:31Z</time>
      </trkpt>
      <trkpt lat="40.506367" lon="-5.229700">
        <ele>1773.0</ele>
        <time>2014-06-30T12:37:32Z</time>
      </trkpt>
      <trkpt lat="40.506417" lon="-5.229733">
        <ele>1772.0</ele>
        <time>2014-06-30T12:37:33Z</time>
      </trkpt>
      <trkpt lat="40.506500" lon="-5.229783">
        <ele>1771.0</ele>
        <time>2014-06-30T12:37:34Z</time>
      </trkpt>
      <trkpt lat="40.506583" lon="-5.229817">
        <ele>1769.0</ele>
        <time>2014-06-30T12:37:35Z</time>
      </trkpt>
      <trkpt lat="40.506667" lon="-5.229850">
        <ele>1769.0</ele>
        <time>2014-06-30T12:37:36Z</time>
      </trkpt>
      <trkpt lat="40.506750" lon="-5.229850">
        <ele>1770.0</ele>
        <time>2014-06-30T12:37:37Z</time>
      </trkpt>
      <trkpt lat="40.506833" lon="-5.229833">
        <ele>1770.0</ele>
        <time>2014-06-30T12:37:38Z</time>
      </trkpt>
      <trkpt lat="40.506917" lon="-5.229800">
        <ele>1771.0</ele>
        <time>2014-06-30T12:37:39Z</time>
      </trkpt>
      <trkpt lat="40.507000" lon="-5.229750">
        <ele>1772.0</ele>
        <time>2014-06-30T12:37:40Z</time>
      </trkpt>
      <trkpt lat="40.507100" lon="-5.229667">
        <ele>1772.0</ele>
        <time>2014-06-30T12:37:41Z</time>
      </trkpt>
      <trkpt lat="40.507167" lon="-5.229600">
        <ele>1774.0</ele>
        <time>2014-06-30T12:37:42Z</time>
      </trkpt>
      <trkpt lat="40.507233" lon="-5.229533">
        <ele>1777.0</ele>
        <time>2014-06-30T12:37:43Z</time>
      </trkpt>
      <trkpt lat="40.507300" lon="-5.229433">
        <ele>1778.0</ele>
        <time>2014-06-30T12:37:44Z</time>
      </trkpt>
      <trkpt lat="40.507350" lon="-5.229350">
        <ele>1780.0</ele>
        <time>2014-06-30T12:37:45Z</time>
      </trkpt>
      <trkpt lat="40.507400" lon="-5.229233">
        <ele>1782.0</ele>
        <time>2014-06-30T12:37:46Z</time>
      </trkpt>
      <trkpt lat="40.507450" lon="-5.229117">
        <ele>1783.0</ele>
        <time>2014-06-30T12:37:47Z</time>
      </trkpt>
      <trkpt lat="40.507500" lon="-5.228983">
        <ele>1784.0</ele>
        <time>2014-06-30T12:37:48Z</time>
      </trkpt>
      <trkpt lat="40.507533" lon="-5.228833">
        <ele>1785.0</ele>
        <time>2014-06-30T12:37:49Z</time>
      </trkpt>
      <trkpt lat="40.507550" lon="-5.228700">
        <ele>1787.0</ele>
        <time>2014-06-30T12:37:50Z</time>
      </trkpt>
      <trkpt lat="40.507567" lon="-5.228567">
        <ele>1788.0</ele>
        <time>2014-06-30T12:37:51Z</time>
      </trkpt>
      <trkpt lat="40.507550" lon="-5.228450">
        <ele>1790.0</ele>
        <time>2014-06-30T12:37:52Z</time>
      </trkpt>
      <trkpt lat="40.507550" lon="-5.228300">
        <ele>1791.0</ele>
        <time>2014-06-30T12:37:53Z</time>
      </trkpt>
      <trkpt lat="40.507517" lon="-5.228167">
        <ele>1792.0</ele>
        <time>2014-06-30T12:37:54Z</time>
      </trkpt>
      <trkpt lat="40.507483" lon="-5.228017">
        <ele>1794.0</ele>
        <time>2014-06-30T12:37:55Z</time>
      </trkpt>
      <trkpt lat="40.507450" lon="-5.227900">
        <ele>1796.0</ele>
        <time>2014-06-30T12:37:56Z</time>
      </trkpt>
      <trkpt lat="40.507400" lon="-5.227800">
        <ele>1798.0</ele>
        <time>2014-06-30T12:37:57Z</time>
      </trkpt>
      <trkpt lat="40.507367" lon="-5.227683">
        <ele>1800.0</ele>
        <time>2014-06-30T12:37:58Z</time>
      </trkpt>
      <trkpt lat="40.507300" lon="-5.227600">
        <ele>1802.0</ele>
        <time>2014-06-30T12:37:59Z</time>
      </trkpt>
      <trkpt lat="40.507233" lon="-5.227533">
        <ele>1804.0</ele>
        <time>2014-06-30T12:38:00Z</time>
      </trkpt>
      <trkpt lat="40.507150" lon="-5.227483">
        <ele>1805.0</ele>
        <time>2014-06-30T12:38:01Z</time>
      </trkpt>
      <trkpt lat="40.507067" lon="-5.227433">
        <ele>1806.0</ele>
        <time>2014-06-30T12:38:02Z</time>
      </trkpt>
      <trkpt lat="40.506983" lon="-5.227417">
        <ele>1807.0</ele>
        <time>2014-06-30T12:38:03Z</time>
      </trkpt>
      <trkpt lat="40.506917" lon="-5.227417">
        <ele>1809.0</ele>
        <time>2014-06-30T12:38:04Z</time>
      </trkpt>
      <trkpt lat="40.506850" lon="-5.227450">
        <ele>1811.0</ele>
        <time>2014-06-30T12:38:05Z</time>
      </trkpt>
      <trkpt lat="40.506800" lon="-5.227483">
        <ele>1813.0</ele>
        <time>2014-06-30T12:38:06Z</time>
      </trkpt>
      <trkpt lat="40.506767" lon="-5.227533">
        <ele>1814.0</ele>
        <time>2014-06-30T12:38:07Z</time>
      </trkpt>
      <trkpt lat="40.506750" lon="-5.227583">
        <ele>1816.0</ele>
        <time>2014-06-30T12:38:08Z</time>
      </trkpt>
      <trkpt lat="40.506750" lon="-5.227633">
        <ele>1817.0</ele>
        <time>2014-06-30T12:38:09Z</time>
      </trkpt>
      <trkpt lat="40.506783" lon="-5.227700">
        <ele>1818.0</ele>
        <time>2014-06-30T12:38:10Z</time>
      </trkpt>
      <trkpt lat="40.506817" lon="-5.227750">
        <ele>1819.0</ele>
        <time>2014-06-30T12:38:11Z</time>
      </trkpt>
      <trkpt lat="40.506883" lon="-5.227800">
        <ele>1819.0</ele>
        <time>2014-06-30T12:38:12Z</time>
      </trkpt>
      <trkpt lat="40.506950" lon="-5.227850">
        <ele>1819.0</ele>
        <time>2014-06-30T12:38:13Z</time>
      </trkpt>
      <trkpt lat="40.507033" lon="-5.227883">
        <ele>1819.0</ele>
        <time>2014-06-30T12:38:14Z</time>
      </trkpt>
      <trkpt lat="40.507117" lon="-5.227883">
        <ele>1820.0</ele>
        <time>2014-06-30T12:38:15Z</time>
      </trkpt>
      <trkpt lat="40.507217" lon="-5.227883">
        <ele>1820.0</ele>
        <time>2014-06-30T12:38:16Z</time>
      </trkpt>
      <trkpt lat="40.507317" lon="-5.227867">
        <ele>1821.0</ele>
        <time>2014-06-30T12:38:17Z</time>
      </trkpt>
      <trkpt lat="40.507417" lon="-5.227833">
        <ele>1822.0</ele>
        <time>2014-06-30T12:38:18Z</time>
      </trkpt>
      <trkpt lat="40.507500" lon="-5.227783">
        <ele>1824.0</ele>
        <time>2014-06-30T12:38:19Z</time>
      </trkpt>
      <trkpt lat="40.507583" lon="-5.227733">
        <ele>1824.0</ele>
        <time>2014-06-30T12:38:20Z</time>
      </trkpt>
      <trkpt lat="40.507683" lon="-5.227667">
        <ele>1824.0</ele>
        <time>2014-06-30T12:38:21Z</time>
      </trkpt>
      <trkpt lat="40.507767" lon="-5.227583">
        <ele>1824.0</ele>
        <time>2014-06-30T12:38:22Z</time>
      </trkpt>
      <trkpt lat="40.507850" lon="-5.227500">
        <ele>1825.0</ele>
        <time>2014-06-30T12:38:23Z</time>
      </trkpt>
      <trkpt lat="40.507933" lon="-5.227400">
        <ele>1827.0</ele>
        <time>2014-06-30T12:38:24Z</time>
      </trkpt>
      <trkpt lat="40.508000" lon="-5.227283">
        <ele>1829.0</ele>
        <time>2014-06-30T12:38:25Z</time>
      </trkpt>
      <trkpt lat="40.508050" lon="-5.227183">
        <ele>1831.0</ele>
        <time>2014-06-30T12:38:26Z</time>
      </trkpt>
      <trkpt lat="40.508117" lon="-5.227083">
        <ele>1834.0</ele>
        <time>2014-06-30T12:38:27Z</time>
      </trkpt>
      <trkpt lat="40.508167" lon="-5.226983">
        <ele>1837.0</ele>
        <time>2014-06-30T12:38:28Z</time>
      </trkpt>
      <trkpt lat="40.508233" lon="-5.226867">
        <ele>1840.0</ele>
        <time>2014-06-30T12:38:29Z</time>
      </trkpt>
      <trkpt lat="40.508283" lon="-5.226767">
        <ele>1843.0</ele>
        <time>2014-06-30T12:38:30Z</time>
      </trkpt>
      <trkpt lat="40.508300" lon="-5.226633">
        <ele>1846.0</ele>
        <time>2014-06-30T12:38:31Z</time>
      </trkpt>
      <trkpt lat="40.508300" lon="-5.226483">
        <ele>1848.0</ele>
        <time>2014-06-30T12:38:32Z</time>
      </trkpt>
      <trkpt lat="40.508283" lon="-5.226367">
        <ele>1851.0</ele>
        <time>2014-06-30T12:38:33Z</time>
      </trkpt>
      <trkpt lat="40.508233" lon="-5.226250">
        <ele>1853.0</ele>
        <time>2014-06-30T12:38:34Z</time>
      </trkpt>
      <trkpt lat="40.508167" lon="-5.226167">
        <ele>1856.0</ele>
        <time>2014-06-30T12:38:35Z</time>
      </trkpt>
      <trkpt lat="40.508100" lon="-5.226117">
        <ele>1859.0</ele>
        <time>2014-06-30T12:38:36Z</time>
      </trkpt>
      <trkpt lat="40.508033" lon="-5.226083">
        <ele>1861.0</ele>
        <time>2014-06-30T12:38:37Z</time>
      </trkpt>
      <trkpt lat="40.507967" lon="-5.226083">
        <ele>1863.0</ele>
        <time>2014-06-30T12:38:38Z</time>
      </trkpt>
      <trkpt lat="40.507900" lon="-5.226133">
        <ele>1864.0</ele>
        <time>2014-06-30T12:38:39Z</time>
      </trkpt>
      <trkpt lat="40.507850" lon="-5.226183">
        <ele>1866.0</ele>
        <time>2014-06-30T12:38:40Z</time>
      </trkpt>
      <trkpt lat="40.507833" lon="-5.226267">
        <ele>1868.0</ele>
        <time>2014-06-30T12:38:41Z</time>
      </trkpt>
      <trkpt lat="40.507833" lon="-5.226350">
        <ele>1869.0</ele>
        <time>2014-06-30T12:38:42Z</time>
      </trkpt>
      <trkpt lat="40.507833" lon="-5.226433">
        <ele>1872.0</ele>
        <time>2014-06-30T12:38:43Z</time>
      </trkpt>
      <trkpt lat="40.507850" lon="-5.226517">
        <ele>1874.0</ele>
        <time>2014-06-30T12:38:44Z</time>
      </trkpt>
      <trkpt lat="40.507883" lon="-5.226600">
        <ele>1877.0</ele>
        <time>2014-06-30T12:38:45Z</time>
      </trkpt>
      <trkpt lat="40.507933" lon="-5.226667">
        <ele>1880.0</ele>
        <time>2014-06-30T12:38:46Z</time>
      </trkpt>
      <trkpt lat="40.507983" lon="-5.226733">
        <ele>1882.0</ele>
        <time>2014-06-30T12:38:47Z</time>
      </trkpt>
      <trkpt lat="40.508067" lon="-5.226783">
        <ele>1883.0</ele>
        <time>2014-06-30T12:38:48Z</time>
      </trkpt>
      <trkpt lat="40.508150" lon="-5.226833">
        <ele>1885.0</ele>
        <time>2014-06-30T12:38:49Z</time>
      </trkpt>
      <trkpt lat="40.508250" lon="-5.226850">
        <ele>1886.0</ele>
        <time>2014-06-30T12:38:50Z</time>
      </trkpt>
      <trkpt lat="40.508367" lon="-5.226833">
        <ele>1888.0</ele>
        <time>2014-06-30T12:38:51Z</time>
      </trkpt>
      <trkpt lat="40.508467" lon="-5.226800">
        <ele>1890.0</ele>
        <time>2014-06-30T12:38:52Z</time>
      </trkpt>
      <trkpt lat="40.508567" lon="-5.226750">
        <ele>1894.0</ele>
        <time>2014-06-30T12:38:53Z</time>
      </trkpt>
      <trkpt lat="40.508633" lon="-5.226683">
        <ele>1898.0</ele>
        <time>2014-06-30T12:38:54Z</time>
      </trkpt>
      <trkpt lat="40.508683" lon="-5.226600">
        <ele>1901.0</ele>
        <time>2014-06-30T12:38:55Z</time>
      </trkpt>
      <trkpt lat="40.508700" lon="-5.226500">
        <ele>1902.0</ele>
        <time>2014-06-30T12:38:56Z</time>
      </trkpt>
      <trkpt lat="40.508733" lon="-5.226383">
        <ele>1901.0</ele>
        <time>2014-06-30T12:38:57Z</time>
      </trkpt>
      <trkpt lat="40.508767" lon="-5.226250">
        <ele>1900.0</ele>
        <time>2014-06-30T12:38:58Z</time>
      </trkpt>
      <trkpt lat="40.508800" lon="-5.226100">
        <ele>1899.0</ele>
        <time>2014-06-30T12:38:59Z</time>
      </trkpt>
      <trkpt lat="40.508817" lon="-5.225950">
        <ele>1899.0</ele>
        <time>2014-06-30T12:39:00Z</time>
      </trkpt>
      <trkpt lat="40.508800" lon="-5.225800">
        <ele>1900.0</ele>
        <time>2014-06-30T12:39:01Z</time>
      </trkpt>
      <trkpt lat="40.508750" lon="-5.225667">
        <ele>1900.0</ele>
        <time>2014-06-30T12:39:02Z</time>
      </trkpt>
      <trkpt lat="40.508700" lon="-5.225550">
        <ele>1902.0</ele>
        <time>2014-06-30T12:39:03Z</time>
      </trkpt>
      <trkpt lat="40.508633" lon="-5.225467">
        <ele>1902.0</ele>
        <time>2014-06-30T12:39:04Z</time>
      </trkpt>
      <trkpt lat="40.508550" lon="-5.225367">
        <ele>1903.0</ele>
        <time>2014-06-30T12:39:05Z</time>
      </trkpt>
      <trkpt lat="40.508483" lon="-5.225267">
        <ele>1905.0</ele>
        <time>2014-06-30T12:39:06Z</time>
      </trkpt>
      <trkpt lat="40.508400" lon="-5.225217">
        <ele>1906.0</ele>
        <time>2014-06-30T12:39:07Z</time>
      </trkpt>
      <trkpt lat="40.508317" lon="-5.225183">
        <ele>1908.0</ele>
        <time>2014-06-30T12:39:08Z</time>
      </trkpt>
      <trkpt lat="40.508233" lon="-5.225183">
        <ele>1909.0</ele>
        <time>2014-06-30T12:39:09Z</time>
      </trkpt>
      <trkpt lat="40.508167" lon="-5.225200">
        <ele>1912.0</ele>
        <time>2014-06-30T12:39:10Z</time>
      </trkpt>
      <trkpt lat="40.508100" lon="-5.225217">
        <ele>1912.0</ele>
        <time>2014-06-30T12:39:11Z</time>
      </trkpt>
      <trkpt lat="40.508050" lon="-5.225250">
        <ele>1917.0</ele>
        <time>2014-06-30T12:39:12Z</time>
      </trkpt>
      <trkpt lat="40.508000" lon="-5.225283">
        <ele>1920.0</ele>
        <time>2014-06-30T12:39:13Z</time>
      </trkpt>
      <trkpt lat="40.507967" lon="-5.225317">
        <ele>1923.0</ele>
        <time>2014-06-30T12:39:14Z</time>
      </trkpt>
      <trkpt lat="40.507950" lon="-5.225350">
        <ele>1925.0</ele>
        <time>2014-06-30T12:39:15Z</time>
      </trkpt>
      <trkpt lat="40.507950" lon="-5.225400">
        <ele>1928.0</ele>
        <time>2014-06-30T12:39:16Z</time>
      </trkpt>
      <trkpt lat="40.507950" lon="-5.225450">
        <ele>1931.0</ele>
        <time>2014-06-30T12:39:17Z</time>
      </trkpt>
      <trkpt lat="40.507967" lon="-5.225500">
        <ele>1934.0</ele>
        <time>2014-06-30T12:39:18Z</time>
      </trkpt>
      <trkpt lat="40.507983" lon="-5.225550">
        <ele>1935.0</ele>
        <time>2014-06-30T12:39:19Z</time>
      </trkpt>
      <trkpt lat="40.508017" lon="-5.225617">
        <ele>1934.0</ele>
        <time>2014-06-30T12:39:20Z</time>
      </trkpt>
      <trkpt lat="40.508067" lon="-5.225683">
        <ele>1935.0</ele>
        <time>2014-06-30T12:39:21Z</time>
      </trkpt>
      <trkpt lat="40.508133" lon="-5.225750">
        <ele>1934.0</ele>
        <time>2014-06-30T12:39:22Z</time>
      </trkpt>
      <trkpt lat="40.508217" lon="-5.225817">
        <ele>1934.0</ele>
        <time>2014-06-30T12:39:23Z</time>
      </trkpt>
      <trkpt lat="40.508333" lon="-5.225883">
        <ele>1934.0</ele>
        <time>2014-06-30T12:39:24Z</time>
      </trkpt>
      <trkpt lat="40.508450" lon="-5.225917">
        <ele>1935.0</ele>
        <time>2014-06-30T12:39:25Z</time>
      </trkpt>
      <trkpt lat="40.508550" lon="-5.225933">
        <ele>1939.0</ele>
        <time>2014-06-30T12:39:26Z</time>
      </trkpt>
      <trkpt lat="40.508633" lon="-5.225933">
        <ele>1942.0</ele>
        <time>2014-06-30T12:39:27Z</time>
      </trkpt>
      <trkpt lat="40.508733" lon="-5.225900">
        <ele>1945.0</ele>
        <time>2014-06-30T12:39:28Z</time>
      </trkpt>
      <trkpt lat="40.508817" lon="-5.225850">
        <ele>1947.0</ele>
        <time>2014-06-30T12:39:29Z</time>
      </trkpt>
      <trkpt lat="40.508900" lon="-5.225800">
        <ele>1948.0</ele>
        <time>2014-06-30T12:39:30Z</time>
      </trkpt>
      <trkpt lat="40.508983" lon="-5.225717">
        <ele>1950.0</ele>
        <time>2014-06-30T12:39:31Z</time>
      </trkpt>
      <trkpt lat="40.509050" lon="-5.225617">
        <ele>1951.0</ele>
        <time>2014-06-30T12:39:32Z</time>
      </trkpt>
      <trkpt lat="40.509100" lon="-5.225500">
        <ele>1953.0</ele>
        <time>2014-06-30T12:39:33Z</time>
      </trkpt>
      <trkpt lat="40.509150" lon="-5.225350">
        <ele>1953.0</ele>
        <time>2014-06-30T12:39:34Z</time>
      </trkpt>
      <trkpt lat="40.509183" lon="-5.225200">
        <ele>1953.0</ele>
        <time>2014-06-30T12:39:35Z</time>
      </trkpt>
      <trkpt lat="40.509183" lon="-5.225067">
        <ele>1954.0</ele>
        <time>2014-06-30T12:39:36Z</time>
      </trkpt>
      <trkpt lat="40.509167" lon="-5.224917">
        <ele>1955.0</ele>
        <time>2014-06-30T12:39:37Z</time>
      </trkpt>
      <trkpt lat="40.509150" lon="-5.224783">
        <ele>1955.0</ele>
        <time>2014-06-30T12:39:38Z</time>
      </trkpt>
      <trkpt lat="40.509117" lon="-5.224650">
        <ele>1953.0</ele>
        <time>2014-06-30T12:39:39Z</time>
      </trkpt>
      <trkpt lat="40.509050" lon="-5.224517">
        <ele>1951.0</ele>
        <time>2014-06-30T12:39:40Z</time>
      </trkpt>
      <trkpt lat="40.508983" lon="-5.224383">
        <ele>1950.0</ele>
        <time>2014-06-30T12:39:41Z</time>
      </trkpt>
      <trkpt lat="40.508883" lon="-5.224267">
        <ele>1949.0</ele>
        <time>2014-06-30T12:39:42Z</time>
      </trkpt>
      <trkpt lat="40.508783" lon="-5.224200">
        <ele>1948.0</ele>
        <time>2014-06-30T12:39:43Z</time>
      </trkpt>
      <trkpt lat="40.508683" lon="-5.224183">
        <ele>1948.0</ele>
        <time>2014-06-30T12:39:44Z</time>
      </trkpt>
      <trkpt lat="40.508583" lon="-5.224183">
        <ele>1948.0</ele>
        <time>2014-06-30T12:39:45Z</time>
      </trkpt>
      <trkpt lat="40.508500" lon="-5.224183">
        <ele>1949.0</ele>
        <time>2014-06-30T12:39:46Z</time>
      </trkpt>
      <trkpt lat="40.508400" lon="-5.224167">
        <ele>1950.0</ele>
        <time>2014-06-30T12:39:47Z</time>
      </trkpt>
      <trkpt lat="40.508300" lon="-5.224167">
        <ele>1951.0</ele>
        <time>2014-06-30T12:39:48Z</time>
      </trkpt>
      <trkpt lat="40.508217" lon="-5.224167">
        <ele>1952.0</ele>
        <time>2014-06-30T12:39:49Z</time>
      </trkpt>
      <trkpt lat="40.508150" lon="-5.224200">
        <ele>1954.0</ele>
        <time>2014-06-30T12:39:50Z</time>
      </trkpt>
      <trkpt lat="40.508100" lon="-5.224233">
        <ele>1956.0</ele>
        <time>2014-06-30T12:39:51Z</time>
      </trkpt>
      <trkpt lat="40.508067" lon="-5.224267">
        <ele>1958.0</ele>
        <time>2014-06-30T12:39:52Z</time>
      </trkpt>
      <trkpt lat="40.508050" lon="-5.224283">
        <ele>1960.0</ele>
        <time>2014-06-30T12:39:53Z</time>
      </trkpt>
      <trkpt lat="40.508033" lon="-5.224317">
        <ele>1961.0</ele>
        <time>2014-06-30T12:39:54Z</time>
      </trkpt>
      <trkpt lat="40.508000" lon="-5.224350">
        <ele>1961.0</ele>
        <time>2014-06-30T12:39:55Z</time>
      </trkpt>
      <trkpt lat="40.507983" lon="-5.224400">
        <ele>1961.0</ele>
        <time>2014-06-30T12:39:56Z</time>
      </trkpt>
      <trkpt lat="40.507950" lon="-5.224483">
        <ele>1958.0</ele>
        <time>2014-06-30T12:39:57Z</time>
      </trkpt>
      <trkpt lat="40.507917" lon="-5.224550">
        <ele>1957.0</ele>
        <time>2014-06-30T12:39:58Z</time>
      </trkpt>
      <trkpt lat="40.507933" lon="-5.224633">
        <ele>1956.0</ele>
        <time>2014-06-30T12:39:59Z</time>
      </trkpt>
      <trkpt lat="40.507967" lon="-5.224717">
        <ele>1956.0</ele>
        <time>2014-06-30T12:40:00Z</time>
      </trkpt>
      <trkpt lat="40.508017" lon="-5.224783">
        <ele>1955.0</ele>
        <time>2014-06-30T12:40:01Z</time>
      </trkpt>
      <trkpt lat="40.508083" lon="-5.224850">
        <ele>1954.0</ele>
        <time>2014-06-30T12:40:02Z</time>
      </trkpt>
      <trkpt lat="40.508150" lon="-5.224933">
        <ele>1954.0</ele>
        <time>2014-06-30T12:40:03Z</time>
      </trkpt>
      <trkpt lat="40.508233" lon="-5.225000">
        <ele>1954.0</ele>
        <time>2014-06-30T12:40:04Z</time>
      </trkpt>
      <trkpt lat="40.508300" lon="-5.225067">
        <ele>1953.0</ele>
        <time>2014-06-30T12:40:05Z</time>
      </trkpt>
      <trkpt lat="40.508383" lon="-5.225133">
        <ele>1953.0</ele>
        <time>2014-06-30T12:40:06Z</time>
      </trkpt>
      <trkpt lat="40.508483" lon="-5.225200">
        <ele>1954.0</ele>
        <time>2014-06-30T12:40:07Z</time>
      </trkpt>
      <trkpt lat="40.508567" lon="-5.225233">
        <ele>1954.0</ele>
        <time>2014-06-30T12:40:08Z</time>
      </trkpt>
      <trkpt lat="40.508650" lon="-5.225267">
        <ele>1954.0</ele>
        <time>2014-06-30T12:40:09Z</time>
      </trkpt>
      <trkpt lat="40.508750" lon="-5.225283">
        <ele>1953.0</ele>
        <time>2014-06-30T12:40:10Z</time>
      </trkpt>
      <trkpt lat="40.508867" lon="-5.225267">
        <ele>1952.0</ele>
        <time>2014-06-30T12:40:11Z</time>
      </trkpt>
      <trkpt lat="40.508983" lon="-5.225233">
        <ele>1951.0</ele>
        <time>2014-06-30T12:40:12Z</time>
      </trkpt>
      <trkpt lat="40.509083" lon="-5.225200">
        <ele>1950.0</ele>
        <time>2014-06-30T12:40:13Z</time>
      </trkpt>
      <trkpt lat="40.509167" lon="-5.225133">
        <ele>1950.0</ele>
        <time>2014-06-30T12:40:14Z</time>
      </trkpt>
      <trkpt lat="40.509250" lon="-5.225067">
        <ele>1952.0</ele>
        <time>2014-06-30T12:40:15Z</time>
      </trkpt>
      <trkpt lat="40.509333" lon="-5.224983">
        <ele>1952.0</ele>
        <time>2014-06-30T12:40:16Z</time>
      </trkpt>
      <trkpt lat="40.509400" lon="-5.224883">
        <ele>1952.0</ele>
        <time>2014-06-30T12:40:17Z</time>
      </trkpt>
      <trkpt lat="40.509467" lon="-5.224783">
        <ele>1952.0</ele>
        <time>2014-06-30T12:40:18Z</time>
      </trkpt>
      <trkpt lat="40.509517" lon="-5.224667">
        <ele>1953.0</ele>
        <time>2014-06-30T12:40:19Z</time>
      </trkpt>
      <trkpt lat="40.509567" lon="-5.224533">
        <ele>1953.0</ele>
        <time>2014-06-30T12:40:20Z</time>
      </trkpt>
      <trkpt lat="40.509583" lon="-5.224400">
        <ele>1952.0</ele>
        <time>2014-06-30T12:40:21Z</time>
      </trkpt>
      <trkpt lat="40.509617" lon="-5.224267">
        <ele>1952.0</ele>
        <time>2014-06-30T12:40:22Z</time>
      </trkpt>
      <trkpt lat="40.509650" lon="-5.224133">
        <ele>1952.0</ele>
        <time>2014-06-30T12:40:23Z</time>
      </trkpt>
      <trkpt lat="40.509667" lon="-5.224000">
        <ele>1952.0</ele>
        <time>2014-06-30T12:40:24Z</time>
      </trkpt>
      <trkpt lat="40.509683" lon="-5.223867">
        <ele>1952.0</ele>
        <time>2014-06-30T12:40:25Z</time>
      </trkpt>
      <trkpt lat="40.509683" lon="-5.223733">
        <ele>1952.0</ele>
        <time>2014-06-30T12:40:26Z</time>
      </trkpt>
      <trkpt lat="40.509700" lon="-5.223600">
        <ele>1953.0</ele>
        <time>2014-06-30T12:40:27Z</time>
      </trkpt>
      <trkpt lat="40.509700" lon="-5.223467">
        <ele>1952.0</ele>
        <time>2014-06-30T12:40:28Z</time>
      </trkpt>
      <trkpt lat="40.509717" lon="-5.223333">
        <ele>1951.0</ele>
        <time>2014-06-30T12:40:29Z</time>
      </trkpt>
      <trkpt lat="40.509717" lon="-5.223200">
        <ele>1950.0</ele>
        <time>2014-06-30T12:40:30Z</time>
      </trkpt>
      <trkpt lat="40.509700" lon="-5.223067">
        <ele>1949.0</ele>
        <time>2014-06-30T12:40:31Z</time>
      </trkpt>
      <trkpt lat="40.509667" lon="-5.222917">
        <ele>1948.0</ele>
        <time>2014-06-30T12:40:32Z</time>
      </trkpt>
      <trkpt lat="40.509617" lon="-5.222767">
        <ele>1948.0</ele>
        <time>2014-06-30T12:40:33Z</time>
      </trkpt>
      <trkpt lat="40.509550" lon="-5.222617">
        <ele>1949.0</ele>
        <time>2014-06-30T12:40:34Z</time>
      </trkpt>
      <trkpt lat="40.509500" lon="-5.222500">
        <ele>1951.0</ele>
        <time>2014-06-30T12:40:35Z</time>
      </trkpt>
      <trkpt lat="40.509450" lon="-5.222383">
        <ele>1952.0</ele>
        <time>2014-06-30T12:40:36Z</time>
      </trkpt>
      <trkpt lat="40.509417" lon="-5.222283">
        <ele>1954.0</ele>
        <time>2014-06-30T12:40:37Z</time>
      </trkpt>
      <trkpt lat="40.509383" lon="-5.222183">
        <ele>1955.0</ele>
        <time>2014-06-30T12:40:38Z</time>
      </trkpt>
      <trkpt lat="40.509350" lon="-5.222067">
        <ele>1956.0</ele>
        <time>2014-06-30T12:40:39Z</time>
      </trkpt>
      <trkpt lat="40.509300" lon="-5.221950">
        <ele>1956.0</ele>
        <time>2014-06-30T12:40:40Z</time>
      </trkpt>
      <trkpt lat="40.509250" lon="-5.221833">
        <ele>1957.0</ele>
        <time>2014-06-30T12:40:41Z</time>
      </trkpt>
      <trkpt lat="40.509183" lon="-5.221733">
        <ele>1957.0</ele>
        <time>2014-06-30T12:40:42Z</time>
      </trkpt>
      <trkpt lat="40.509100" lon="-5.221650">
        <ele>1957.0</ele>
        <time>2014-06-30T12:40:43Z</time>
      </trkpt>
      <trkpt lat="40.509033" lon="-5.221600">
        <ele>1959.0</ele>
        <time>2014-06-30T12:40:44Z</time>
      </trkpt>
      <trkpt lat="40.508950" lon="-5.221583">
        <ele>1961.0</ele>
        <time>2014-06-30T12:40:45Z</time>
      </trkpt>
      <trkpt lat="40.508883" lon="-5.221600">
        <ele>1961.0</ele>
        <time>2014-06-30T12:40:46Z</time>
      </trkpt>
      <trkpt lat="40.508817" lon="-5.221650">
        <ele>1962.0</ele>
        <time>2014-06-30T12:40:47Z</time>
      </trkpt>
      <trkpt lat="40.508733" lon="-5.221683">
        <ele>1962.0</ele>
        <time>2014-06-30T12:40:48Z</time>
      </trkpt>
      <trkpt lat="40.508667" lon="-5.221733">
        <ele>1963.0</ele>
        <time>2014-06-30T12:40:49Z</time>
      </trkpt>
      <trkpt lat="40.508633" lon="-5.221767">
        <ele>1964.0</ele>
        <time>2014-06-30T12:40:50Z</time>
      </trkpt>
      <trkpt lat="40.508583" lon="-5.221800">
        <ele>1966.0</ele>
        <time>2014-06-30T12:40:51Z</time>
      </trkpt>
      <trkpt lat="40.508567" lon="-5.221850">
        <ele>1966.0</ele>
        <time>2014-06-30T12:40:52Z</time>
      </trkpt>
      <trkpt lat="40.508533" lon="-5.221917">
        <ele>1965.0</ele>
        <time>2014-06-30T12:40:53Z</time>
      </trkpt>
      <trkpt lat="40.508500" lon="-5.221983">
        <ele>1965.0</ele>
        <time>2014-06-30T12:40:54Z</time>
      </trkpt>
      <trkpt lat="40.508467" lon="-5.222050">
        <ele>1964.0</ele>
        <time>2014-06-30T12:40:55Z</time>
      </trkpt>
      <trkpt lat="40.508450" lon="-5.222100">
        <ele>1964.0</ele>
        <time>2014-06-30T12:40:56Z</time>
      </trkpt>
      <trkpt lat="40.508450" lon="-5.222150">
        <ele>1962.0</ele>
        <time>2014-06-30T12:40:57Z</time>
      </trkpt>
      <trkpt lat="40.508467" lon="-5.222200">
        <ele>1959.0</ele>
        <time>2014-06-30T12:40:58Z</time>
      </trkpt>
      <trkpt lat="40.508500" lon="-5.222267">
        <ele>1955.0</ele>
        <time>2014-06-30T12:40:59Z</time>
      </trkpt>
      <trkpt lat="40.508533" lon="-5.222333">
        <ele>1951.0</ele>
        <time>2014-06-30T12:41:00Z</time>
      </trkpt>
      <trkpt lat="40.508583" lon="-5.222400">
        <ele>1947.0</ele>
        <time>2014-06-30T12:41:01Z</time>
      </trkpt>
      <trkpt lat="40.508633" lon="-5.222467">
        <ele>1945.0</ele>
        <time>2014-06-30T12:41:02Z</time>
      </trkpt>
      <trkpt lat="40.508683" lon="-5.222517">
        <ele>1944.0</ele>
        <time>2014-06-30T12:41:03Z</time>
      </trkpt>
      <trkpt lat="40.508733" lon="-5.222583">
        <ele>1943.0</ele>
        <time>2014-06-30T12:41:04Z</time>
      </trkpt>
      <trkpt lat="40.508767" lon="-5.222650">
        <ele>1942.0</ele>
        <time>2014-06-30T12:41:05Z</time>
      </trkpt>
      <trkpt lat="40.508817" lon="-5.222733">
        <ele>1942.0</ele>
        <time>2014-06-30T12:41:06Z</time>
      </trkpt>
      <trkpt lat="40.508850" lon="-5.222817">
        <ele>1941.0</ele>
        <time>2014-06-30T12:41:07Z</time>
      </trkpt>
      <trkpt lat="40.508900" lon="-5.222900">
        <ele>1940.0</ele>
        <time>2014-06-30T12:41:08Z</time>
      </trkpt>
      <trkpt lat="40.508950" lon="-5.222950">
        <ele>1939.0</ele>
        <time>2014-06-30T12:41:09Z</time>
      </trkpt>
      <trkpt lat="40.509017" lon="-5.222983">
        <ele>1938.0</ele>
        <time>2014-06-30T12:41:10Z</time>
      </trkpt>
      <trkpt lat="40.509100" lon="-5.223017">
        <ele>1937.0</ele>
        <time>2014-06-30T12:41:11Z</time>
      </trkpt>
      <trkpt lat="40.509167" lon="-5.223033">
        <ele>1937.0</ele>
        <time>2014-06-30T12:41:12Z</time>
      </trkpt>
      <trkpt lat="40.509250" lon="-5.223050">
        <ele>1937.0</ele>
        <time>2014-06-30T12:41:13Z</time>
      </trkpt>
      <trkpt lat="40.509317" lon="-5.223067">
        <ele>1937.0</ele>
        <time>2014-06-30T12:41:14Z</time>
      </trkpt>
      <trkpt lat="40.509383" lon="-5.223067">
        <ele>1938.0</ele>
        <time>2014-06-30T12:41:15Z</time>
      </trkpt>
      <trkpt lat="40.509450" lon="-5.223050">
        <ele>1938.0</ele>
        <time>2014-06-30T12:41:16Z</time>
      </trkpt>
      <trkpt lat="40.509517" lon="-5.223033">
        <ele>1937.0</ele>
        <time>2014-06-30T12:41:17Z</time>
      </trkpt>
      <trkpt lat="40.509600" lon="-5.223017">
        <ele>1935.0</ele>
        <time>2014-06-30T12:41:18Z</time>
      </trkpt>
      <trkpt lat="40.509683" lon="-5.223000">
        <ele>1934.0</ele>
        <time>2014-06-30T12:41:19Z</time>
      </trkpt>
      <trkpt lat="40.509783" lon="-5.222967">
        <ele>1932.0</ele>
        <time>2014-06-30T12:41:20Z</time>
      </trkpt>
      <trkpt lat="40.509867" lon="-5.222933">
        <ele>1930.0</ele>
        <time>2014-06-30T12:41:21Z</time>
      </trkpt>
      <trkpt lat="40.509950" lon="-5.222883">
        <ele>1928.0</ele>
        <time>2014-06-30T12:41:22Z</time>
      </trkpt>
      <trkpt lat="40.510050" lon="-5.222783">
        <ele>1925.0</ele>
        <time>2014-06-30T12:41:23Z</time>
      </trkpt>
      <trkpt lat="40.510133" lon="-5.222667">
        <ele>1922.0</ele>
        <time>2014-06-30T12:41:24Z</time>
      </trkpt>
      <trkpt lat="40.510217" lon="-5.222533">
        <ele>1921.0</ele>
        <time>2014-06-30T12:41:25Z</time>
      </trkpt>
      <trkpt lat="40.510283" lon="-5.222400">
        <ele>1921.0</ele>
        <time>2014-06-30T12:41:26Z</time>
      </trkpt>
      <trkpt lat="40.510333" lon="-5.222283">
        <ele>1921.0</ele>
        <time>2014-06-30T12:41:27Z</time>
      </trkpt>
      <trkpt lat="40.510350" lon="-5.222167">
        <ele>1921.0</ele>
        <time>2014-06-30T12:41:28Z</time>
      </trkpt>
      <trkpt lat="40.510367" lon="-5.222033">
        <ele>1921.0</ele>
        <time>2014-06-30T12:41:29Z</time>
      </trkpt>
      <trkpt lat="40.510383" lon="-5.221900">
        <ele>1920.0</ele>
        <time>2014-06-30T12:41:30Z</time>
      </trkpt>
      <trkpt lat="40.510383" lon="-5.221750">
        <ele>1918.0</ele>
        <time>2014-06-30T12:41:31Z</time>
      </trkpt>
      <trkpt lat="40.510383" lon="-5.221617">
        <ele>1916.0</ele>
        <time>2014-06-30T12:41:32Z</time>
      </trkpt>
      <trkpt lat="40.510383" lon="-5.221483">
        <ele>1915.0</ele>
        <time>2014-06-30T12:41:33Z</time>
      </trkpt>
      <trkpt lat="40.510383" lon="-5.221350">
        <ele>1915.0</ele>
        <time>2014-06-30T12:41:34Z</time>
      </trkpt>
      <trkpt lat="40.510367" lon="-5.221233">
        <ele>1914.0</ele>
        <time>2014-06-30T12:41:35Z</time>
      </trkpt>
      <trkpt lat="40.510333" lon="-5.221117">
        <ele>1913.0</ele>
        <time>2014-06-30T12:41:36Z</time>
      </trkpt>
      <trkpt lat="40.510283" lon="-5.221017">
        <ele>1910.0</ele>
        <time>2014-06-30T12:41:37Z</time>
      </trkpt>
      <trkpt lat="40.510217" lon="-5.220883">
        <ele>1908.0</ele>
        <time>2014-06-30T12:41:38Z</time>
      </trkpt>
      <trkpt lat="40.510150" lon="-5.220767">
        <ele>1906.0</ele>
        <time>2014-06-30T12:41:39Z</time>
      </trkpt>
      <trkpt lat="40.510100" lon="-5.220667">
        <ele>1904.0</ele>
        <time>2014-06-30T12:41:40Z</time>
      </trkpt>
      <trkpt lat="40.510050" lon="-5.220583">
        <ele>1903.0</ele>
        <time>2014-06-30T12:41:41Z</time>
      </trkpt>
      <trkpt lat="40.510000" lon="-5.220500">
        <ele>1901.0</ele>
        <time>2014-06-30T12:41:42Z</time>
      </trkpt>
      <trkpt lat="40.509950" lon="-5.220417">
        <ele>1900.0</ele>
        <time>2014-06-30T12:41:43Z</time>
      </trkpt>
      <trkpt lat="40.509900" lon="-5.220317">
        <ele>1899.0</ele>
        <time>2014-06-30T12:41:44Z</time>
      </trkpt>
      <trkpt lat="40.509867" lon="-5.220217">
        <ele>1898.0</ele>
        <time>2014-06-30T12:41:45Z</time>
      </trkpt>
      <trkpt lat="40.509817" lon="-5.220117">
        <ele>1899.0</ele>
        <time>2014-06-30T12:41:46Z</time>
      </trkpt>
      <trkpt lat="40.509783" lon="-5.220017">
        <ele>1900.0</ele>
        <time>2014-06-30T12:41:47Z</time>
      </trkpt>
      <trkpt lat="40.509717" lon="-5.219933">
        <ele>1900.0</ele>
        <time>2014-06-30T12:41:48Z</time>
      </trkpt>
      <trkpt lat="40.509667" lon="-5.219833">
        <ele>1900.0</ele>
        <time>2014-06-30T12:41:49Z</time>
      </trkpt>
      <trkpt lat="40.509600" lon="-5.219750">
        <ele>1900.0</ele>
        <time>2014-06-30T12:41:50Z</time>
      </trkpt>
      <trkpt lat="40.509550" lon="-5.219667">
        <ele>1902.0</ele>
        <time>2014-06-30T12:41:51Z</time>
      </trkpt>
      <trkpt lat="40.509483" lon="-5.219600">
        <ele>1904.0</ele>
        <time>2014-06-30T12:41:52Z</time>
      </trkpt>
      <trkpt lat="40.509417" lon="-5.219550">
        <ele>1905.0</ele>
        <time>2014-06-30T12:41:53Z</time>
      </trkpt>
      <trkpt lat="40.509350" lon="-5.219517">
        <ele>1906.0</ele>
        <time>2014-06-30T12:41:54Z</time>
      </trkpt>
      <trkpt lat="40.509267" lon="-5.219467">
        <ele>1905.0</ele>
        <time>2014-06-30T12:41:55Z</time>
      </trkpt>
      <trkpt lat="40.509167" lon="-5.219400">
        <ele>1903.0</ele>
        <time>2014-06-30T12:41:56Z</time>
      </trkpt>
      <trkpt lat="40.509083" lon="-5.219333">
        <ele>1901.0</ele>
        <time>2014-06-30T12:41:57Z</time>
      </trkpt>
      <trkpt lat="40.508983" lon="-5.219250">
        <ele>1901.0</ele>
        <time>2014-06-30T12:41:58Z</time>
      </trkpt>
      <trkpt lat="40.508900" lon="-5.219183">
        <ele>1902.0</ele>
        <time>2014-06-30T12:41:59Z</time>
      </trkpt>
      <trkpt lat="40.508817" lon="-5.219117">
        <ele>1903.0</ele>
        <time>2014-06-30T12:42:00Z</time>
      </trkpt>
      <trkpt lat="40.508733" lon="-5.219050">
        <ele>1903.0</ele>
        <time>2014-06-30T12:42:01Z</time>
      </trkpt>
      <trkpt lat="40.508650" lon="-5.219017">
        <ele>1903.0</ele>
        <time>2014-06-30T12:42:02Z</time>
      </trkpt>
      <trkpt lat="40.508550" lon="-5.218983">
        <ele>1903.0</ele>
        <time>2014-06-30T12:42:03Z</time>
      </trkpt>
      <trkpt lat="40.508467" lon="-5.218950">
        <ele>1903.0</ele>
        <time>2014-06-30T12:42:04Z</time>
      </trkpt>
      <trkpt lat="40.508400" lon="-5.218933">
        <ele>1904.0</ele>
        <time>2014-06-30T12:42:05Z</time>
      </trkpt>
      <trkpt lat="40.508333" lon="-5.218900">
        <ele>1905.0</ele>
        <time>2014-06-30T12:42:06Z</time>
      </trkpt>
      <trkpt lat="40.508267" lon="-5.218850">
        <ele>1905.0</ele>
        <time>2014-06-30T12:42:07Z</time>
      </trkpt>
      <trkpt lat="40.508200" lon="-5.218800">
        <ele>1905.0</ele>
        <time>2014-06-30T12:42:08Z</time>
      </trkpt>
      <trkpt lat="40.508133" lon="-5.218750">
        <ele>1904.0</ele>
        <time>2014-06-30T12:42:09Z</time>
      </trkpt>
      <trkpt lat="40.508067" lon="-5.218733">
        <ele>1903.0</ele>
        <time>2014-06-30T12:42:10Z</time>
      </trkpt>
      <trkpt lat="40.508017" lon="-5.218717">
        <ele>1902.0</ele>
        <time>2014-06-30T12:42:11Z</time>
      </trkpt>
      <trkpt lat="40.507983" lon="-5.218700">
        <ele>1901.0</ele>
        <time>2014-06-30T12:42:12Z</time>
      </trkpt>
      <trkpt lat="40.507933" lon="-5.218700">
        <ele>1899.0</ele>
        <time>2014-06-30T12:42:13Z</time>
      </trkpt>
      <trkpt lat="40.507883" lon="-5.218683">
        <ele>1896.0</ele>
        <time>2014-06-30T12:42:14Z</time>
      </trkpt>
      <trkpt lat="40.507833" lon="-5.218667">
        <ele>1893.0</ele>
        <time>2014-06-30T12:42:15Z</time>
      </trkpt>
      <trkpt lat="40.507783" lon="-5.218683">
        <ele>1890.0</ele>
        <time>2014-06-30T12:42:16Z</time>
      </trkpt>
      <trkpt lat="40.507733" lon="-5.218733">
        <ele>1888.0</ele>
        <time>2014-06-30T12:42:17Z</time>
      </trkpt>
      <trkpt lat="40.507717" lon="-5.218817">
        <ele>1885.0</ele>
        <time>2014-06-30T12:42:18Z</time>
      </trkpt>
      <trkpt lat="40.507717" lon="-5.218900">
        <ele>1882.0</ele>
        <time>2014-06-30T12:42:19Z</time>
      </trkpt>
      <trkpt lat="40.507700" lon="-5.218967">
        <ele>1879.0</ele>
        <time>2014-06-30T12:42:20Z</time>
      </trkpt>
      <trkpt lat="40.507700" lon="-5.219017">
        <ele>1876.0</ele>
        <time>2014-06-30T12:42:21Z</time>
      </trkpt>
      <trkpt lat="40.507700" lon="-5.219067">
        <ele>1874.0</ele>
        <time>2014-06-30T12:42:22Z</time>
      </trkpt>
      <trkpt lat="40.507717" lon="-5.219117">
        <ele>1871.0</ele>
        <time>2014-06-30T12:42:23Z</time>
      </trkpt>
      <trkpt lat="40.507767" lon="-5.219183">
        <ele>1867.0</ele>
        <time>2014-06-30T12:42:24Z</time>
      </trkpt>
      <trkpt lat="40.507833" lon="-5.219233">
        <ele>1862.0</ele>
        <time>2014-06-30T12:42:25Z</time>
      </trkpt>
      <trkpt lat="40.507917" lon="-5.219283">
        <ele>1857.0</ele>
        <time>2014-06-30T12:42:26Z</time>
      </trkpt>
      <trkpt lat="40.508000" lon="-5.219300">
        <ele>1853.0</ele>
        <time>2014-06-30T12:42:27Z</time>
      </trkpt>
      <trkpt lat="40.508100" lon="-5.219300">
        <ele>1849.0</ele>
        <time>2014-06-30T12:42:28Z</time>
      </trkpt>
      <trkpt lat="40.508183" lon="-5.219283">
        <ele>1846.0</ele>
        <time>2014-06-30T12:42:29Z</time>
      </trkpt>
      <trkpt lat="40.508267" lon="-5.219267">
        <ele>1842.0</ele>
        <time>2014-06-30T12:42:30Z</time>
      </trkpt>
      <trkpt lat="40.508350" lon="-5.219283">
        <ele>1839.0</ele>
        <time>2014-06-30T12:42:31Z</time>
      </trkpt>
      <trkpt lat="40.508433" lon="-5.219300">
        <ele>1833.0</ele>
        <time>2014-06-30T12:42:32Z</time>
      </trkpt>
      <trkpt lat="40.508533" lon="-5.219317">
        <ele>1829.0</ele>
        <time>2014-06-30T12:42:33Z</time>
      </trkpt>
      <trkpt lat="40.508617" lon="-5.219317">
        <ele>1826.0</ele>
        <time>2014-06-30T12:42:34Z</time>
      </trkpt>
      <trkpt lat="40.508717" lon="-5.219283">
        <ele>1822.0</ele>
        <time>2014-06-30T12:42:35Z</time>
      </trkpt>
      <trkpt lat="40.508817" lon="-5.219250">
        <ele>1818.0</ele>
        <time>2014-06-30T12:42:36Z</time>
      </trkpt>
      <trkpt lat="40.508917" lon="-5.219200">
        <ele>1815.0</ele>
        <time>2014-06-30T12:42:37Z</time>
      </trkpt>
      <trkpt lat="40.509017" lon="-5.219150">
        <ele>1811.0</ele>
        <time>2014-06-30T12:42:38Z</time>
      </trkpt>
      <trkpt lat="40.509117" lon="-5.219100">
        <ele>1808.0</ele>
        <time>2014-06-30T12:42:39Z</time>
      </trkpt>
      <trkpt lat="40.509200" lon="-5.219050">
        <ele>1806.0</ele>
        <time>2014-06-30T12:42:40Z</time>
      </trkpt>
      <trkpt lat="40.509300" lon="-5.218983">
        <ele>1805.0</ele>
        <time>2014-06-30T12:42:41Z</time>
      </trkpt>
      <trkpt lat="40.509400" lon="-5.218917">
        <ele>1802.0</ele>
        <time>2014-06-30T12:42:42Z</time>
      </trkpt>
      <trkpt lat="40.509500" lon="-5.218850">
        <ele>1799.0</ele>
        <time>2014-06-30T12:42:43Z</time>
      </trkpt>
      <trkpt lat="40.509600" lon="-5.218767">
        <ele>1796.0</ele>
        <time>2014-06-30T12:42:44Z</time>
      </trkpt>
      <trkpt lat="40.509700" lon="-5.218683">
        <ele>1793.0</ele>
        <time>2014-06-30T12:42:45Z</time>
      </trkpt>
      <trkpt lat="40.509800" lon="-5.218583">
        <ele>1790.0</ele>
        <time>2014-06-30T12:42:46Z</time>
      </trkpt>
      <trkpt lat="40.509900" lon="-5.218500">
        <ele>1788.0</ele>
        <time>2014-06-30T12:42:47Z</time>
      </trkpt>
      <trkpt lat="40.510000" lon="-5.218433">
        <ele>1787.0</ele>
        <time>2014-06-30T12:42:48Z</time>
      </trkpt>
      <trkpt lat="40.510083" lon="-5.218400">
        <ele>1786.0</ele>
        <time>2014-06-30T12:42:49Z</time>
      </trkpt>
      <trkpt lat="40.510150" lon="-5.218350">
        <ele>1785.0</ele>
        <time>2014-06-30T12:42:50Z</time>
      </trkpt>
      <trkpt lat="40.510217" lon="-5.218300">
        <ele>1784.0</ele>
        <time>2014-06-30T12:42:51Z</time>
      </trkpt>
      <trkpt lat="40.510300" lon="-5.218250">
        <ele>1782.0</ele>
        <time>2014-06-30T12:42:52Z</time>
      </trkpt>
      <trkpt lat="40.510383" lon="-5.218200">
        <ele>1779.0</ele>
        <time>2014-06-30T12:42:53Z</time>
      </trkpt>
      <trkpt lat="40.510467" lon="-5.218167">
        <ele>1775.0</ele>
        <time>2014-06-30T12:42:54Z</time>
      </trkpt>
      <trkpt lat="40.510567" lon="-5.218150">
        <ele>1772.0</ele>
        <time>2014-06-30T12:42:55Z</time>
      </trkpt>
      <trkpt lat="40.510650" lon="-5.218117">
        <ele>1770.0</ele>
        <time>2014-06-30T12:42:56Z</time>
      </trkpt>
      <trkpt lat="40.510733" lon="-5.218083">
        <ele>1769.0</ele>
        <time>2014-06-30T12:42:57Z</time>
      </trkpt>
      <trkpt lat="40.510817" lon="-5.218050">
        <ele>1767.0</ele>
        <time>2014-06-30T12:42:58Z</time>
      </trkpt>
      <trkpt lat="40.510917" lon="-5.218000">
        <ele>1764.0</ele>
        <time>2014-06-30T12:42:59Z</time>
      </trkpt>
      <trkpt lat="40.511017" lon="-5.217983">
        <ele>1761.0</ele>
        <time>2014-06-30T12:43:00Z</time>
      </trkpt>
      <trkpt lat="40.511117" lon="-5.217950">
        <ele>1757.0</ele>
        <time>2014-06-30T12:43:01Z</time>
      </trkpt>
      <trkpt lat="40.511200" lon="-5.217933">
        <ele>1755.0</ele>
        <time>2014-06-30T12:43:02Z</time>
      </trkpt>
      <trkpt lat="40.511283" lon="-5.217883">
        <ele>1753.0</ele>
        <time>2014-06-30T12:43:03Z</time>
      </trkpt>
      <trkpt lat="40.511350" lon="-5.217833">
        <ele>1751.0</ele>
        <time>2014-06-30T12:43:04Z</time>
      </trkpt>
      <trkpt lat="40.511417" lon="-5.217783">
        <ele>1749.0</ele>
        <time>2014-06-30T12:43:05Z</time>
      </trkpt>
      <trkpt lat="40.511483" lon="-5.217750">
        <ele>1746.0</ele>
        <time>2014-06-30T12:43:06Z</time>
      </trkpt>
      <trkpt lat="40.511567" lon="-5.217683">
        <ele>1741.0</ele>
        <time>2014-06-30T12:43:07Z</time>
      </trkpt>
      <trkpt lat="40.511667" lon="-5.217633">
        <ele>1737.0</ele>
        <time>2014-06-30T12:43:08Z</time>
      </trkpt>
      <trkpt lat="40.511750" lon="-5.217567">
        <ele>1733.0</ele>
        <time>2014-06-30T12:43:09Z</time>
      </trkpt>
      <trkpt lat="40.511833" lon="-5.217483">
        <ele>1729.0</ele>
        <time>2014-06-30T12:43:10Z</time>
      </trkpt>
      <trkpt lat="40.511917" lon="-5.217417">
        <ele>1725.0</ele>
        <time>2014-06-30T12:43:11Z</time>
      </trkpt>
      <trkpt lat="40.512017" lon="-5.217333">
        <ele>1720.0</ele>
        <time>2014-06-30T12:43:12Z</time>
      </trkpt>
      <trkpt lat="40.512117" lon="-5.217250">
        <ele>1716.0</ele>
        <time>2014-06-30T12:43:13Z</time>
      </trkpt>
      <trkpt lat="40.512200" lon="-5.217167">
        <ele>1713.0</ele>
        <time>2014-06-30T12:43:14Z</time>
      </trkpt>
      <trkpt lat="40.512283" lon="-5.217100">
        <ele>1711.0</ele>
        <time>2014-06-30T12:43:15Z</time>
      </trkpt>
      <trkpt lat="40.512367" lon="-5.217017">
        <ele>1709.0</ele>
        <time>2014-06-30T12:43:16Z</time>
      </trkpt>
      <trkpt lat="40.512433" lon="-5.216933">
        <ele>1706.0</ele>
        <time>2014-06-30T12:43:17Z</time>
      </trkpt>
      <trkpt lat="40.512500" lon="-5.216817">
        <ele>1703.0</ele>
        <time>2014-06-30T12:43:18Z</time>
      </trkpt>
      <trkpt lat="40.512583" lon="-5.216683">
        <ele>1700.0</ele>
        <time>2014-06-30T12:43:19Z</time>
      </trkpt>
      <trkpt lat="40.512667" lon="-5.216567">
        <ele>1697.0</ele>
        <time>2014-06-30T12:43:20Z</time>
      </trkpt>
      <trkpt lat="40.512750" lon="-5.216450">
        <ele>1695.0</ele>
        <time>2014-06-30T12:43:21Z</time>
      </trkpt>
      <trkpt lat="40.512833" lon="-5.216333">
        <ele>1693.0</ele>
        <time>2014-06-30T12:43:22Z</time>
      </trkpt>
      <trkpt lat="40.512917" lon="-5.216217">
        <ele>1692.0</ele>
        <time>2014-06-30T12:43:23Z</time>
      </trkpt>
      <trkpt lat="40.513000" lon="-5.216100">
        <ele>1691.0</ele>
        <time>2014-06-30T12:43:24Z</time>
      </trkpt>
      <trkpt lat="40.513083" lon="-5.216000">
        <ele>1692.0</ele>
        <time>2014-06-30T12:43:25Z</time>
      </trkpt>
      <trkpt lat="40.513133" lon="-5.215900">
        <ele>1694.0</ele>
        <time>2014-06-30T12:43:26Z</time>
      </trkpt>
      <trkpt lat="40.513183" lon="-5.215800">
        <ele>1696.0</ele>
        <time>2014-06-30T12:43:27Z</time>
      </trkpt>
      <trkpt lat="40.513233" lon="-5.215717">
        <ele>1698.0</ele>
        <time>2014-06-30T12:43:28Z</time>
      </trkpt>
      <trkpt lat="40.513300" lon="-5.215650">
        <ele>1700.0</ele>
        <time>2014-06-30T12:43:29Z</time>
      </trkpt>
      <trkpt lat="40.513383" lon="-5.215583">
        <ele>1701.0</ele>
        <time>2014-06-30T12:43:30Z</time>
      </trkpt>
      <trkpt lat="40.513467" lon="-5.215517">
        <ele>1702.0</ele>
        <time>2014-06-30T12:43:31Z</time>
      </trkpt>
      <trkpt lat="40.513533" lon="-5.215417">
        <ele>1703.0</ele>
        <time>2014-06-30T12:43:32Z</time>
      </trkpt>
      <trkpt lat="40.513583" lon="-5.215317">
        <ele>1704.0</ele>
        <time>2014-06-30T12:43:33Z</time>
      </trkpt>
      <trkpt lat="40.513633" lon="-5.215183">
        <ele>1705.0</ele>
        <time>2014-06-30T12:43:34Z</time>
      </trkpt>
      <trkpt lat="40.513650" lon="-5.215033">
        <ele>1705.0</ele>
        <time>2014-06-30T12:43:35Z</time>
      </trkpt>
      <trkpt lat="40.513617" lon="-5.214850">
        <ele>1705.0</ele>
        <time>2014-06-30T12:43:36Z</time>
      </trkpt>
      <trkpt lat="40.513517" lon="-5.214717">
        <ele>1705.0</ele>
        <time>2014-06-30T12:43:37Z</time>
      </trkpt>
      <trkpt lat="40.513417" lon="-5.214633">
        <ele>1707.0</ele>
        <time>2014-06-30T12:43:38Z</time>
      </trkpt>
      <trkpt lat="40.513333" lon="-5.214600">
        <ele>1711.0</ele>
        <time>2014-06-30T12:43:39Z</time>
      </trkpt>
      <trkpt lat="40.513267" lon="-5.214550">
        <ele>1716.0</ele>
        <time>2014-06-30T12:43:40Z</time>
      </trkpt>
      <trkpt lat="40.513217" lon="-5.214500">
        <ele>1720.0</ele>
        <time>2014-06-30T12:43:41Z</time>
      </trkpt>
      <trkpt lat="40.513150" lon="-5.214433">
        <ele>1722.0</ele>
        <time>2014-06-30T12:43:42Z</time>
      </trkpt>
      <trkpt lat="40.513067" lon="-5.214383">
        <ele>1724.0</ele>
        <time>2014-06-30T12:43:43Z</time>
      </trkpt>
      <trkpt lat="40.512967" lon="-5.214350">
        <ele>1725.0</ele>
        <time>2014-06-30T12:43:44Z</time>
      </trkpt>
      <trkpt lat="40.512883" lon="-5.214367">
        <ele>1728.0</ele>
        <time>2014-06-30T12:43:45Z</time>
      </trkpt>
      <trkpt lat="40.512817" lon="-5.214417">
        <ele>1730.0</ele>
        <time>2014-06-30T12:43:46Z</time>
      </trkpt>
      <trkpt lat="40.512750" lon="-5.214483">
        <ele>1733.0</ele>
        <time>2014-06-30T12:43:47Z</time>
      </trkpt>
      <trkpt lat="40.512700" lon="-5.214550">
        <ele>1736.0</ele>
        <time>2014-06-30T12:43:48Z</time>
      </trkpt>
      <trkpt lat="40.512633" lon="-5.214600">
        <ele>1739.0</ele>
        <time>2014-06-30T12:43:49Z</time>
      </trkpt>
      <trkpt lat="40.512550" lon="-5.214617">
        <ele>1742.0</ele>
        <time>2014-06-30T12:43:50Z</time>
      </trkpt>
      <trkpt lat="40.512450" lon="-5.214583">
        <ele>1744.0</ele>
        <time>2014-06-30T12:43:51Z</time>
      </trkpt>
      <trkpt lat="40.512350" lon="-5.214500">
        <ele>1744.0</ele>
        <time>2014-06-30T12:43:52Z</time>
      </trkpt>
      <trkpt lat="40.512283" lon="-5.214367">
        <ele>1746.0</ele>
        <time>2014-06-30T12:43:53Z</time>
      </trkpt>
      <trkpt lat="40.512267" lon="-5.214233">
        <ele>1747.0</ele>
        <time>2014-06-30T12:43:54Z</time>
      </trkpt>
      <trkpt lat="40.512283" lon="-5.214100">
        <ele>1749.0</ele>
        <time>2014-06-30T12:43:55Z</time>
      </trkpt>
      <trkpt lat="40.512333" lon="-5.214000">
        <ele>1751.0</ele>
        <time>2014-06-30T12:43:56Z</time>
      </trkpt>
      <trkpt lat="40.512383" lon="-5.213917">
        <ele>1754.0</ele>
        <time>2014-06-30T12:43:57Z</time>
      </trkpt>
      <trkpt lat="40.512433" lon="-5.213850">
        <ele>1756.0</ele>
        <time>2014-06-30T12:43:58Z</time>
      </trkpt>
      <trkpt lat="40.512500" lon="-5.213767">
        <ele>1759.0</ele>
        <time>2014-06-30T12:43:59Z</time>
      </trkpt>
      <trkpt lat="40.512550" lon="-5.213667">
        <ele>1761.0</ele>
        <time>2014-06-30T12:44:00Z</time>
      </trkpt>
      <trkpt lat="40.512600" lon="-5.213583">
        <ele>1763.0</ele>
        <time>2014-06-30T12:44:01Z</time>
      </trkpt>
      <trkpt lat="40.512667" lon="-5.213533">
        <ele>1766.0</ele>
        <time>2014-06-30T12:44:02Z</time>
      </trkpt>
      <trkpt lat="40.512733" lon="-5.213517">
        <ele>1768.0</ele>
        <time>2014-06-30T12:44:03Z</time>
      </trkpt>
      <trkpt lat="40.512800" lon="-5.213517">
        <ele>1769.0</ele>
        <time>2014-06-30T12:44:04Z</time>
      </trkpt>
      <trkpt lat="40.512867" lon="-5.213533">
        <ele>1771.0</ele>
        <time>2014-06-30T12:44:05Z</time>
      </trkpt>
      <trkpt lat="40.512933" lon="-5.213567">
        <ele>1773.0</ele>
        <time>2014-06-30T12:44:06Z</time>
      </trkpt>
      <trkpt lat="40.512950" lon="-5.213633">
        <ele>1776.0</ele>
        <time>2014-06-30T12:44:07Z</time>
      </trkpt>
      <trkpt lat="40.512950" lon="-5.213717">
        <ele>1777.0</ele>
        <time>2014-06-30T12:44:08Z</time>
      </trkpt>
      <trkpt lat="40.512917" lon="-5.213817">
        <ele>1778.0</ele>
        <time>2014-06-30T12:44:09Z</time>
      </trkpt>
      <trkpt lat="40.512850" lon="-5.213867">
        <ele>1779.0</ele>
        <time>2014-06-30T12:44:10Z</time>
      </trkpt>
      <trkpt lat="40.512767" lon="-5.213867">
        <ele>1781.0</ele>
        <time>2014-06-30T12:44:11Z</time>
      </trkpt>
      <trkpt lat="40.512667" lon="-5.213833">
        <ele>1782.0</ele>
        <time>2014-06-30T12:44:12Z</time>
      </trkpt>
      <trkpt lat="40.512567" lon="-5.213733">
        <ele>1783.0</ele>
        <time>2014-06-30T12:44:13Z</time>
      </trkpt>
      <trkpt lat="40.512483" lon="-5.213633">
        <ele>1785.0</ele>
        <time>2014-06-30T12:44:14Z</time>
      </trkpt>
      <trkpt lat="40.512417" lon="-5.213500">
        <ele>1786.0</ele>
        <time>2014-06-30T12:44:15Z</time>
      </trkpt>
      <trkpt lat="40.512367" lon="-5.213367">
        <ele>1790.0</ele>
        <time>2014-06-30T12:44:16Z</time>
      </trkpt>
      <trkpt lat="40.512350" lon="-5.213233">
        <ele>1792.0</ele>
        <time>2014-06-30T12:44:17Z</time>
      </trkpt>
      <trkpt lat="40.512350" lon="-5.213100">
        <ele>1795.0</ele>
        <time>2014-06-30T12:44:18Z</time>
      </trkpt>
      <trkpt lat="40.512350" lon="-5.212983">
        <ele>1797.0</ele>
        <time>2014-06-30T12:44:19Z</time>
      </trkpt>
      <trkpt lat="40.512350" lon="-5.212850">
        <ele>1800.0</ele>
        <time>2014-06-30T12:44:20Z</time>
      </trkpt>
      <trkpt lat="40.512367" lon="-5.212733">
        <ele>1802.0</ele>
        <time>2014-06-30T12:44:21Z</time>
      </trkpt>
      <trkpt lat="40.512417" lon="-5.212633">
        <ele>1804.0</ele>
        <time>2014-06-30T12:44:22Z</time>
      </trkpt>
      <trkpt lat="40.512483" lon="-5.212567">
        <ele>1805.0</ele>
        <time>2014-06-30T12:44:23Z</time>
      </trkpt>
      <trkpt lat="40.512550" lon="-5.212517">
        <ele>1806.0</ele>
        <time>2014-06-30T12:44:24Z</time>
      </trkpt>
      <trkpt lat="40.512633" lon="-5.212517">
        <ele>1807.0</ele>
        <time>2014-06-30T12:44:25Z</time>
      </trkpt>
      <trkpt lat="40.512683" lon="-5.212550">
        <ele>1809.0</ele>
        <time>2014-06-30T12:44:26Z</time>
      </trkpt>
      <trkpt lat="40.512733" lon="-5.212617">
        <ele>1811.0</ele>
        <time>2014-06-30T12:44:27Z</time>
      </trkpt>
      <trkpt lat="40.512767" lon="-5.212683">
        <ele>1813.0</ele>
        <time>2014-06-30T12:44:28Z</time>
      </trkpt>
      <trkpt lat="40.512750" lon="-5.212750">
        <ele>1816.0</ele>
        <time>2014-06-30T12:44:29Z</time>
      </trkpt>
      <trkpt lat="40.512717" lon="-5.212817">
        <ele>1818.0</ele>
        <time>2014-06-30T12:44:30Z</time>
      </trkpt>
      <trkpt lat="40.512683" lon="-5.212883">
        <ele>1819.0</ele>
        <time>2014-06-30T12:44:31Z</time>
      </trkpt>
      <trkpt lat="40.512633" lon="-5.212950">
        <ele>1821.0</ele>
        <time>2014-06-30T12:44:32Z</time>
      </trkpt>
      <trkpt lat="40.512567" lon="-5.212983">
        <ele>1823.0</ele>
        <time>2014-06-30T12:44:33Z</time>
      </trkpt>
      <trkpt lat="40.512500" lon="-5.213017">
        <ele>1824.0</ele>
        <time>2014-06-30T12:44:34Z</time>
      </trkpt>
      <trkpt lat="40.512417" lon="-5.213000">
        <ele>1825.0</ele>
        <time>2014-06-30T12:44:35Z</time>
      </trkpt>
      <trkpt lat="40.512317" lon="-5.212983">
        <ele>1825.0</ele>
        <time>2014-06-30T12:44:36Z</time>
      </trkpt>
      <trkpt lat="40.512217" lon="-5.212917">
        <ele>1824.0</ele>
        <time>2014-06-30T12:44:37Z</time>
      </trkpt>
      <trkpt lat="40.512150" lon="-5.212817">
        <ele>1824.0</ele>
        <time>2014-06-30T12:44:38Z</time>
      </trkpt>
      <trkpt lat="40.512100" lon="-5.212700">
        <ele>1824.0</ele>
        <time>2014-06-30T12:44:39Z</time>
      </trkpt>
      <trkpt lat="40.512083" lon="-5.212550">
        <ele>1823.0</ele>
        <time>2014-06-30T12:44:40Z</time>
      </trkpt>
      <trkpt lat="40.512083" lon="-5.212433">
        <ele>1825.0</ele>
        <time>2014-06-30T12:44:41Z</time>
      </trkpt>
      <trkpt lat="40.512083" lon="-5.212333">
        <ele>1826.0</ele>
        <time>2014-06-30T12:44:42Z</time>
      </trkpt>
      <trkpt lat="40.512100" lon="-5.212233">
        <ele>1828.0</ele>
        <time>2014-06-30T12:44:43Z</time>
      </trkpt>
      <trkpt lat="40.512133" lon="-5.212117">
        <ele>1829.0</ele>
        <time>2014-06-30T12:44:44Z</time>
      </trkpt>
      <trkpt lat="40.512167" lon="-5.212033">
        <ele>1831.0</ele>
        <time>2014-06-30T12:44:45Z</time>
      </trkpt>
      <trkpt lat="40.512217" lon="-5.211950">
        <ele>1833.0</ele>
        <time>2014-06-30T12:44:46Z</time>
      </trkpt>
      <trkpt lat="40.512283" lon="-5.211900">
        <ele>1833.0</ele>
        <time>2014-06-30T12:44:47Z</time>
      </trkpt>
      <trkpt lat="40.512367" lon="-5.211867">
        <ele>1834.0</ele>
        <time>2014-06-30T12:44:48Z</time>
      </trkpt>
      <trkpt lat="40.512433" lon="-5.211833">
        <ele>1835.0</ele>
        <time>2014-06-30T12:44:49Z</time>
      </trkpt>
      <trkpt lat="40.512517" lon="-5.211817">
        <ele>1836.0</ele>
        <time>2014-06-30T12:44:50Z</time>
      </trkpt>
      <trkpt lat="40.512583" lon="-5.211817">
        <ele>1838.0</ele>
        <time>2014-06-30T12:44:51Z</time>
      </trkpt>
      <trkpt lat="40.512650" lon="-5.211817">
        <ele>1840.0</ele>
        <time>2014-06-30T12:44:52Z</time>
      </trkpt>
      <trkpt lat="40.512717" lon="-5.211850">
        <ele>1841.0</ele>
        <time>2014-06-30T12:44:53Z</time>
      </trkpt>
      <trkpt lat="40.512783" lon="-5.211900">
        <ele>1841.0</ele>
        <time>2014-06-30T12:44:54Z</time>
      </trkpt>
      <trkpt lat="40.512833" lon="-5.211950">
        <ele>1841.0</ele>
        <time>2014-06-30T12:44:55Z</time>
      </trkpt>
      <trkpt lat="40.512883" lon="-5.212033">
        <ele>1841.0</ele>
        <time>2014-06-30T12:44:56Z</time>
      </trkpt>
      <trkpt lat="40.512900" lon="-5.212117">
        <ele>1841.0</ele>
        <time>2014-06-30T12:44:57Z</time>
      </trkpt>
      <trkpt lat="40.512900" lon="-5.212183">
        <ele>1840.0</ele>
        <time>2014-06-30T12:44:58Z</time>
      </trkpt>
      <trkpt lat="40.512867" lon="-5.212250">
        <ele>1840.0</ele>
        <time>2014-06-30T12:44:59Z</time>
      </trkpt>
      <trkpt lat="40.512800" lon="-5.212267">
        <ele>1839.0</ele>
        <time>2014-06-30T12:45:00Z</time>
      </trkpt>
      <trkpt lat="40.512700" lon="-5.212250">
        <ele>1836.0</ele>
        <time>2014-06-30T12:45:01Z</time>
      </trkpt>
      <trkpt lat="40.512600" lon="-5.212200">
        <ele>1831.0</ele>
        <time>2014-06-30T12:45:02Z</time>
      </trkpt>
      <trkpt lat="40.512500" lon="-5.212133">
        <ele>1826.0</ele>
        <time>2014-06-30T12:45:03Z</time>
      </trkpt>
      <trkpt lat="40.512400" lon="-5.212033">
        <ele>1823.0</ele>
        <time>2014-06-30T12:45:04Z</time>
      </trkpt>
      <trkpt lat="40.512317" lon="-5.211900">
        <ele>1819.0</ele>
        <time>2014-06-30T12:45:05Z</time>
      </trkpt>
      <trkpt lat="40.512233" lon="-5.211767">
        <ele>1816.0</ele>
        <time>2014-06-30T12:45:06Z</time>
      </trkpt>
      <trkpt lat="40.512150" lon="-5.211617">
        <ele>1814.0</ele>
        <time>2014-06-30T12:45:07Z</time>
      </trkpt>
      <trkpt lat="40.512067" lon="-5.211483">
        <ele>1812.0</ele>
        <time>2014-06-30T12:45:08Z</time>
      </trkpt>
      <trkpt lat="40.511983" lon="-5.211333">
        <ele>1813.0</ele>
        <time>2014-06-30T12:45:09Z</time>
      </trkpt>
      <trkpt lat="40.511933" lon="-5.211200">
        <ele>1815.0</ele>
        <time>2014-06-30T12:45:10Z</time>
      </trkpt>
      <trkpt lat="40.511900" lon="-5.211050">
        <ele>1817.0</ele>
        <time>2014-06-30T12:45:11Z</time>
      </trkpt>
      <trkpt lat="40.511900" lon="-5.210917">
        <ele>1817.0</ele>
        <time>2014-06-30T12:45:12Z</time>
      </trkpt>
      <trkpt lat="40.511917" lon="-5.210767">
        <ele>1818.0</ele>
        <time>2014-06-30T12:45:13Z</time>
      </trkpt>
      <trkpt lat="40.511900" lon="-5.210633">
        <ele>1819.0</ele>
        <time>2014-06-30T12:45:14Z</time>
      </trkpt>
      <trkpt lat="40.511900" lon="-5.210517">
        <ele>1819.0</ele>
        <time>2014-06-30T12:45:15Z</time>
      </trkpt>
      <trkpt lat="40.511883" lon="-5.210383">
        <ele>1821.0</ele>
        <time>2014-06-30T12:45:16Z</time>
      </trkpt>
      <trkpt lat="40.511883" lon="-5.210250">
        <ele>1821.0</ele>
        <time>2014-06-30T12:45:17Z</time>
      </trkpt>
      <trkpt lat="40.511900" lon="-5.210117">
        <ele>1822.0</ele>
        <time>2014-06-30T12:45:18Z</time>
      </trkpt>
      <trkpt lat="40.511917" lon="-5.209983">
        <ele>1823.0</ele>
        <time>2014-06-30T12:45:19Z</time>
      </trkpt>
      <trkpt lat="40.511950" lon="-5.209867">
        <ele>1824.0</ele>
        <time>2014-06-30T12:45:20Z</time>
      </trkpt>
      <trkpt lat="40.512000" lon="-5.209767">
        <ele>1825.0</ele>
        <time>2014-06-30T12:45:21Z</time>
      </trkpt>
      <trkpt lat="40.512033" lon="-5.209683">
        <ele>1827.0</ele>
        <time>2014-06-30T12:45:22Z</time>
      </trkpt>
      <trkpt lat="40.512083" lon="-5.209633">
        <ele>1828.0</ele>
        <time>2014-06-30T12:45:23Z</time>
      </trkpt>
      <trkpt lat="40.512133" lon="-5.209600">
        <ele>1829.0</ele>
        <time>2014-06-30T12:45:24Z</time>
      </trkpt>
      <trkpt lat="40.512183" lon="-5.209583">
        <ele>1830.0</ele>
        <time>2014-06-30T12:45:25Z</time>
      </trkpt>
      <trkpt lat="40.512233" lon="-5.209567">
        <ele>1831.0</ele>
        <time>2014-06-30T12:45:26Z</time>
      </trkpt>
      <trkpt lat="40.512283" lon="-5.209567">
        <ele>1833.0</ele>
        <time>2014-06-30T12:45:27Z</time>
      </trkpt>
      <trkpt lat="40.512333" lon="-5.209583">
        <ele>1834.0</ele>
        <time>2014-06-30T12:45:28Z</time>
      </trkpt>
      <trkpt lat="40.512367" lon="-5.209617">
        <ele>1836.0</ele>
        <time>2014-06-30T12:45:29Z</time>
      </trkpt>
      <trkpt lat="40.512400" lon="-5.209667">
        <ele>1838.0</ele>
        <time>2014-06-30T12:45:30Z</time>
      </trkpt>
      <trkpt lat="40.512417" lon="-5.209733">
        <ele>1839.0</ele>
        <time>2014-06-30T12:45:31Z</time>
      </trkpt>
      <trkpt lat="40.512417" lon="-5.209800">
        <ele>1841.0</ele>
        <time>2014-06-30T12:45:32Z</time>
      </trkpt>
      <trkpt lat="40.512417" lon="-5.209867">
        <ele>1842.0</ele>
        <time>2014-06-30T12:45:33Z</time>
      </trkpt>
      <trkpt lat="40.512417" lon="-5.209933">
        <ele>1844.0</ele>
        <time>2014-06-30T12:45:34Z</time>
      </trkpt>
      <trkpt lat="40.512417" lon="-5.210000">
        <ele>1846.0</ele>
        <time>2014-06-30T12:45:35Z</time>
      </trkpt>
      <trkpt lat="40.512400" lon="-5.210050">
        <ele>1847.0</ele>
        <time>2014-06-30T12:45:36Z</time>
      </trkpt>
      <trkpt lat="40.512367" lon="-5.210100">
        <ele>1848.0</ele>
        <time>2014-06-30T12:45:37Z</time>
      </trkpt>
      <trkpt lat="40.512300" lon="-5.210100">
        <ele>1848.0</ele>
        <time>2014-06-30T12:45:38Z</time>
      </trkpt>
      <trkpt lat="40.512217" lon="-5.210033">
        <ele>1847.0</ele>
        <time>2014-06-30T12:45:39Z</time>
      </trkpt>
      <trkpt lat="40.512133" lon="-5.209950">
        <ele>1845.0</ele>
        <time>2014-06-30T12:45:40Z</time>
      </trkpt>
      <trkpt lat="40.512067" lon="-5.209817">
        <ele>1844.0</ele>
        <time>2014-06-30T12:45:41Z</time>
      </trkpt>
      <trkpt lat="40.512033" lon="-5.209700">
        <ele>1843.0</ele>
        <time>2014-06-30T12:45:42Z</time>
      </trkpt>
      <trkpt lat="40.512000" lon="-5.209567">
        <ele>1844.0</ele>
        <time>2014-06-30T12:45:43Z</time>
      </trkpt>
      <trkpt lat="40.511983" lon="-5.209433">
        <ele>1844.0</ele>
        <time>2014-06-30T12:45:44Z</time>
      </trkpt>
      <trkpt lat="40.511983" lon="-5.209267">
        <ele>1844.0</ele>
        <time>2014-06-30T12:45:45Z</time>
      </trkpt>
      <trkpt lat="40.511983" lon="-5.209100">
        <ele>1844.0</ele>
        <time>2014-06-30T12:45:46Z</time>
      </trkpt>
      <trkpt lat="40.511983" lon="-5.208933">
        <ele>1845.0</ele>
        <time>2014-06-30T12:45:47Z</time>
      </trkpt>
      <trkpt lat="40.512017" lon="-5.208767">
        <ele>1846.0</ele>
        <time>2014-06-30T12:45:48Z</time>
      </trkpt>
      <trkpt lat="40.512050" lon="-5.208633">
        <ele>1848.0</ele>
        <time>2014-06-30T12:45:49Z</time>
      </trkpt>
      <trkpt lat="40.512083" lon="-5.208500">
        <ele>1849.0</ele>
        <time>2014-06-30T12:45:50Z</time>
      </trkpt>
      <trkpt lat="40.512133" lon="-5.208383">
        <ele>1850.0</ele>
        <time>2014-06-30T12:45:51Z</time>
      </trkpt>
      <trkpt lat="40.512200" lon="-5.208283">
        <ele>1851.0</ele>
        <time>2014-06-30T12:45:52Z</time>
      </trkpt>
      <trkpt lat="40.512250" lon="-5.208200">
        <ele>1853.0</ele>
        <time>2014-06-30T12:45:53Z</time>
      </trkpt>
      <trkpt lat="40.512317" lon="-5.208117">
        <ele>1855.0</ele>
        <time>2014-06-30T12:45:54Z</time>
      </trkpt>
      <trkpt lat="40.512367" lon="-5.208067">
        <ele>1857.0</ele>
        <time>2014-06-30T12:45:55Z</time>
      </trkpt>
      <trkpt lat="40.512433" lon="-5.208050">
        <ele>1859.0</ele>
        <time>2014-06-30T12:45:56Z</time>
      </trkpt>
      <trkpt lat="40.512483" lon="-5.208050">
        <ele>1861.0</ele>
        <time>2014-06-30T12:45:57Z</time>
      </trkpt>
      <trkpt lat="40.512533" lon="-5.208083">
        <ele>1863.0</ele>
        <time>2014-06-30T12:45:58Z</time>
      </trkpt>
      <trkpt lat="40.512550" lon="-5.208117">
        <ele>1865.0</ele>
        <time>2014-06-30T12:45:59Z</time>
      </trkpt>
      <trkpt lat="40.512550" lon="-5.208183">
        <ele>1867.0</ele>
        <time>2014-06-30T12:46:00Z</time>
      </trkpt>
      <trkpt lat="40.512550" lon="-5.208250">
        <ele>1868.0</ele>
        <time>2014-06-30T12:46:01Z</time>
      </trkpt>
      <trkpt lat="40.512517" lon="-5.208317">
        <ele>1869.0</ele>
        <time>2014-06-30T12:46:02Z</time>
      </trkpt>
      <trkpt lat="40.512467" lon="-5.208367">
        <ele>1866.0</ele>
        <time>2014-06-30T12:46:03Z</time>
      </trkpt>
      <trkpt lat="40.512417" lon="-5.208400">
        <ele>1866.0</ele>
        <time>2014-06-30T12:46:04Z</time>
      </trkpt>
      <trkpt lat="40.512367" lon="-5.208417">
        <ele>1866.0</ele>
        <time>2014-06-30T12:46:05Z</time>
      </trkpt>
      <trkpt lat="40.512300" lon="-5.208450">
        <ele>1866.0</ele>
        <time>2014-06-30T12:46:06Z</time>
      </trkpt>
      <trkpt lat="40.512233" lon="-5.208467">
        <ele>1866.0</ele>
        <time>2014-06-30T12:46:07Z</time>
      </trkpt>
      <trkpt lat="40.512167" lon="-5.208450">
        <ele>1866.0</ele>
        <time>2014-06-30T12:46:08Z</time>
      </trkpt>
      <trkpt lat="40.512100" lon="-5.208400">
        <ele>1867.0</ele>
        <time>2014-06-30T12:46:09Z</time>
      </trkpt>
      <trkpt lat="40.512033" lon="-5.208300">
        <ele>1866.0</ele>
        <time>2014-06-30T12:46:10Z</time>
      </trkpt>
      <trkpt lat="40.511967" lon="-5.208167">
        <ele>1865.0</ele>
        <time>2014-06-30T12:46:11Z</time>
      </trkpt>
      <trkpt lat="40.511900" lon="-5.208017">
        <ele>1865.0</ele>
        <time>2014-06-30T12:46:12Z</time>
      </trkpt>
      <trkpt lat="40.511850" lon="-5.207883">
        <ele>1866.0</ele>
        <time>2014-06-30T12:46:13Z</time>
      </trkpt>
      <trkpt lat="40.511800" lon="-5.207767">
        <ele>1869.0</ele>
        <time>2014-06-30T12:46:14Z</time>
      </trkpt>
      <trkpt lat="40.511750" lon="-5.207633">
        <ele>1871.0</ele>
        <time>2014-06-30T12:46:15Z</time>
      </trkpt>
      <trkpt lat="40.511683" lon="-5.207483">
        <ele>1871.0</ele>
        <time>2014-06-30T12:46:16Z</time>
      </trkpt>
      <trkpt lat="40.511617" lon="-5.207350">
        <ele>1872.0</ele>
        <time>2014-06-30T12:46:17Z</time>
      </trkpt>
      <trkpt lat="40.511567" lon="-5.207200">
        <ele>1873.0</ele>
        <time>2014-06-30T12:46:18Z</time>
      </trkpt>
      <trkpt lat="40.511500" lon="-5.207050">
        <ele>1875.0</ele>
        <time>2014-06-30T12:46:19Z</time>
      </trkpt>
      <trkpt lat="40.511433" lon="-5.206917">
        <ele>1876.0</ele>
        <time>2014-06-30T12:46:20Z</time>
      </trkpt>
      <trkpt lat="40.511400" lon="-5.206767">
        <ele>1876.0</ele>
        <time>2014-06-30T12:46:21Z</time>
      </trkpt>
      <trkpt lat="40.511367" lon="-5.206617">
        <ele>1876.0</ele>
        <time>2014-06-30T12:46:22Z</time>
      </trkpt>
      <trkpt lat="40.511333" lon="-5.206450">
        <ele>1876.0</ele>
        <time>2014-06-30T12:46:23Z</time>
      </trkpt>
      <trkpt lat="40.511333" lon="-5.206283">
        <ele>1875.0</ele>
        <time>2014-06-30T12:46:24Z</time>
      </trkpt>
      <trkpt lat="40.511333" lon="-5.206117">
        <ele>1875.0</ele>
        <time>2014-06-30T12:46:25Z</time>
      </trkpt>
      <trkpt lat="40.511367" lon="-5.205967">
        <ele>1875.0</ele>
        <time>2014-06-30T12:46:26Z</time>
      </trkpt>
      <trkpt lat="40.511400" lon="-5.205833">
        <ele>1876.0</ele>
        <time>2014-06-30T12:46:27Z</time>
      </trkpt>
      <trkpt lat="40.511450" lon="-5.205717">
        <ele>1877.0</ele>
        <time>2014-06-30T12:46:28Z</time>
      </trkpt>
      <trkpt lat="40.511500" lon="-5.205617">
        <ele>1878.0</ele>
        <time>2014-06-30T12:46:29Z</time>
      </trkpt>
      <trkpt lat="40.511567" lon="-5.205533">
        <ele>1878.0</ele>
        <time>2014-06-30T12:46:30Z</time>
      </trkpt>
      <trkpt lat="40.511633" lon="-5.205467">
        <ele>1878.0</ele>
        <time>2014-06-30T12:46:31Z</time>
      </trkpt>
      <trkpt lat="40.511683" lon="-5.205433">
        <ele>1879.0</ele>
        <time>2014-06-30T12:46:32Z</time>
      </trkpt>
      <trkpt lat="40.511733" lon="-5.205400">
        <ele>1879.0</ele>
        <time>2014-06-30T12:46:33Z</time>
      </trkpt>
      <trkpt lat="40.511783" lon="-5.205400">
        <ele>1880.0</ele>
        <time>2014-06-30T12:46:34Z</time>
      </trkpt>
      <trkpt lat="40.511833" lon="-5.205417">
        <ele>1880.0</ele>
        <time>2014-06-30T12:46:35Z</time>
      </trkpt>
      <trkpt lat="40.511867" lon="-5.205433">
        <ele>1880.0</ele>
        <time>2014-06-30T12:46:36Z</time>
      </trkpt>
      <trkpt lat="40.511900" lon="-5.205467">
        <ele>1880.0</ele>
        <time>2014-06-30T12:46:37Z</time>
      </trkpt>
      <trkpt lat="40.511933" lon="-5.205500">
        <ele>1880.0</ele>
        <time>2014-06-30T12:46:38Z</time>
      </trkpt>
      <trkpt lat="40.511950" lon="-5.205550">
        <ele>1880.0</ele>
        <time>2014-06-30T12:46:39Z</time>
      </trkpt>
      <trkpt lat="40.511967" lon="-5.205583">
        <ele>1882.0</ele>
        <time>2014-06-30T12:46:40Z</time>
      </trkpt>
      <trkpt lat="40.512000" lon="-5.205617">
        <ele>1883.0</ele>
        <time>2014-06-30T12:46:41Z</time>
      </trkpt>
      <trkpt lat="40.512017" lon="-5.205650">
        <ele>1883.0</ele>
        <time>2014-06-30T12:46:42Z</time>
      </trkpt>
      <trkpt lat="40.512050" lon="-5.205700">
        <ele>1884.0</ele>
        <time>2014-06-30T12:46:43Z</time>
      </trkpt>
      <trkpt lat="40.512067" lon="-5.205750">
        <ele>1885.0</ele>
        <time>2014-06-30T12:46:44Z</time>
      </trkpt>
      <trkpt lat="40.512100" lon="-5.205800">
        <ele>1887.0</ele>
        <time>2014-06-30T12:46:45Z</time>
      </trkpt>
      <trkpt lat="40.512133" lon="-5.205833">
        <ele>1888.0</ele>
        <time>2014-06-30T12:46:46Z</time>
      </trkpt>
      <trkpt lat="40.512150" lon="-5.205867">
        <ele>1890.0</ele>
        <time>2014-06-30T12:46:47Z</time>
      </trkpt>
      <trkpt lat="40.512183" lon="-5.205883">
        <ele>1891.0</ele>
        <time>2014-06-30T12:46:48Z</time>
      </trkpt>
      <trkpt lat="40.512217" lon="-5.205900">
        <ele>1891.0</ele>
        <time>2014-06-30T12:46:49Z</time>
      </trkpt>
      <trkpt lat="40.512233" lon="-5.205933">
        <ele>1891.0</ele>
        <time>2014-06-30T12:46:50Z</time>
      </trkpt>
      <trkpt lat="40.512233" lon="-5.205967">
        <ele>1889.0</ele>
        <time>2014-06-30T12:46:51Z</time>
      </trkpt>
      <trkpt lat="40.512200" lon="-5.206000">
        <ele>1889.0</ele>
        <time>2014-06-30T12:46:52Z</time>
      </trkpt>
      <trkpt lat="40.512133" lon="-5.206017">
        <ele>1888.0</ele>
        <time>2014-06-30T12:46:53Z</time>
      </trkpt>
      <trkpt lat="40.512050" lon="-5.206000">
        <ele>1887.0</ele>
        <time>2014-06-30T12:46:54Z</time>
      </trkpt>
      <trkpt lat="40.511967" lon="-5.205917">
        <ele>1885.0</ele>
        <time>2014-06-30T12:46:55Z</time>
      </trkpt>
      <trkpt lat="40.511900" lon="-5.205783">
        <ele>1885.0</ele>
        <time>2014-06-30T12:46:56Z</time>
      </trkpt>
      <trkpt lat="40.511833" lon="-5.205633">
        <ele>1883.0</ele>
        <time>2014-06-30T12:46:57Z</time>
      </trkpt>
      <trkpt lat="40.511767" lon="-5.205467">
        <ele>1882.0</ele>
        <time>2014-06-30T12:46:58Z</time>
      </trkpt>
      <trkpt lat="40.511717" lon="-5.205300">
        <ele>1881.0</ele>
        <time>2014-06-30T12:46:59Z</time>
      </trkpt>
      <trkpt lat="40.511667" lon="-5.205133">
        <ele>1881.0</ele>
        <time>2014-06-30T12:47:00Z</time>
      </trkpt>
      <trkpt lat="40.511617" lon="-5.204967">
        <ele>1882.0</ele>
        <time>2014-06-30T12:47:01Z</time>
      </trkpt>
      <trkpt lat="40.511583" lon="-5.204783">
        <ele>1883.0</ele>
        <time>2014-06-30T12:47:02Z</time>
      </trkpt>
      <trkpt lat="40.511567" lon="-5.204617">
        <ele>1883.0</ele>
        <time>2014-06-30T12:47:03Z</time>
      </trkpt>
      <trkpt lat="40.511533" lon="-5.204467">
        <ele>1885.0</ele>
        <time>2014-06-30T12:47:04Z</time>
      </trkpt>
      <trkpt lat="40.511517" lon="-5.204300">
        <ele>1886.0</ele>
        <time>2014-06-30T12:47:05Z</time>
      </trkpt>
      <trkpt lat="40.511517" lon="-5.204150">
        <ele>1887.0</ele>
        <time>2014-06-30T12:47:06Z</time>
      </trkpt>
      <trkpt lat="40.511500" lon="-5.203983">
        <ele>1887.0</ele>
        <time>2014-06-30T12:47:07Z</time>
      </trkpt>
      <trkpt lat="40.511517" lon="-5.203817">
        <ele>1887.0</ele>
        <time>2014-06-30T12:47:08Z</time>
      </trkpt>
      <trkpt lat="40.511533" lon="-5.203667">
        <ele>1887.0</ele>
        <time>2014-06-30T12:47:09Z</time>
      </trkpt>
      <trkpt lat="40.511583" lon="-5.203517">
        <ele>1887.0</ele>
        <time>2014-06-30T12:47:10Z</time>
      </trkpt>
      <trkpt lat="40.511650" lon="-5.203400">
        <ele>1887.0</ele>
        <time>2014-06-30T12:47:11Z</time>
      </trkpt>
      <trkpt lat="40.511717" lon="-5.203283">
        <ele>1888.0</ele>
        <time>2014-06-30T12:47:12Z</time>
      </trkpt>
      <trkpt lat="40.511800" lon="-5.203183">
        <ele>1889.0</ele>
        <time>2014-06-30T12:47:13Z</time>
      </trkpt>
      <trkpt lat="40.511850" lon="-5.203083">
        <ele>1892.0</ele>
        <time>2014-06-30T12:47:14Z</time>
      </trkpt>
      <trkpt lat="40.511917" lon="-5.202983">
        <ele>1894.0</ele>
        <time>2014-06-30T12:47:15Z</time>
      </trkpt>
      <trkpt lat="40.511983" lon="-5.202883">
        <ele>1896.0</ele>
        <time>2014-06-30T12:47:16Z</time>
      </trkpt>
      <trkpt lat="40.512067" lon="-5.202817">
        <ele>1897.0</ele>
        <time>2014-06-30T12:47:17Z</time>
      </trkpt>
      <trkpt lat="40.512150" lon="-5.202800">
        <ele>1899.0</ele>
        <time>2014-06-30T12:47:18Z</time>
      </trkpt>
      <trkpt lat="40.512217" lon="-5.202800">
        <ele>1900.0</ele>
        <time>2014-06-30T12:47:19Z</time>
      </trkpt>
      <trkpt lat="40.512267" lon="-5.202817">
        <ele>1904.0</ele>
        <time>2014-06-30T12:47:20Z</time>
      </trkpt>
      <trkpt lat="40.512300" lon="-5.202817">
        <ele>1907.0</ele>
        <time>2014-06-30T12:47:21Z</time>
      </trkpt>
      <trkpt lat="40.512350" lon="-5.202817">
        <ele>1910.0</ele>
        <time>2014-06-30T12:47:22Z</time>
      </trkpt>
      <trkpt lat="40.512417" lon="-5.202817">
        <ele>1913.0</ele>
        <time>2014-06-30T12:47:23Z</time>
      </trkpt>
      <trkpt lat="40.512467" lon="-5.202833">
        <ele>1915.0</ele>
        <time>2014-06-30T12:47:24Z</time>
      </trkpt>
      <trkpt lat="40.512483" lon="-5.202883">
        <ele>1917.0</ele>
        <time>2014-06-30T12:47:25Z</time>
      </trkpt>
      <trkpt lat="40.512483" lon="-5.202917">
        <ele>1918.0</ele>
        <time>2014-06-30T12:47:26Z</time>
      </trkpt>
      <trkpt lat="40.512433" lon="-5.202967">
        <ele>1918.0</ele>
        <time>2014-06-30T12:47:27Z</time>
      </trkpt>
      <trkpt lat="40.512383" lon="-5.203000">
        <ele>1919.0</ele>
        <time>2014-06-30T12:47:28Z</time>
      </trkpt>
      <trkpt lat="40.512300" lon="-5.203017">
        <ele>1920.0</ele>
        <time>2014-06-30T12:47:29Z</time>
      </trkpt>
      <trkpt lat="40.512183" lon="-5.202967">
        <ele>1921.0</ele>
        <time>2014-06-30T12:47:30Z</time>
      </trkpt>
      <trkpt lat="40.512067" lon="-5.202867">
        <ele>1921.0</ele>
        <time>2014-06-30T12:47:31Z</time>
      </trkpt>
      <trkpt lat="40.511950" lon="-5.202717">
        <ele>1920.0</ele>
        <time>2014-06-30T12:47:32Z</time>
      </trkpt>
      <trkpt lat="40.511867" lon="-5.202550">
        <ele>1920.0</ele>
        <time>2014-06-30T12:47:33Z</time>
      </trkpt>
      <trkpt lat="40.511817" lon="-5.202367">
        <ele>1921.0</ele>
        <time>2014-06-30T12:47:34Z</time>
      </trkpt>
      <trkpt lat="40.511800" lon="-5.202200">
        <ele>1922.0</ele>
        <time>2014-06-30T12:47:35Z</time>
      </trkpt>
      <trkpt lat="40.511800" lon="-5.202067">
        <ele>1922.0</ele>
        <time>2014-06-30T12:47:36Z</time>
      </trkpt>
      <trkpt lat="40.511800" lon="-5.201917">
        <ele>1923.0</ele>
        <time>2014-06-30T12:47:37Z</time>
      </trkpt>
      <trkpt lat="40.511800" lon="-5.201750">
        <ele>1922.0</ele>
        <time>2014-06-30T12:47:38Z</time>
      </trkpt>
      <trkpt lat="40.511833" lon="-5.201583">
        <ele>1921.0</ele>
        <time>2014-06-30T12:47:39Z</time>
      </trkpt>
      <trkpt lat="40.511900" lon="-5.201450">
        <ele>1922.0</ele>
        <time>2014-06-30T12:47:40Z</time>
      </trkpt>
      <trkpt lat="40.511967" lon="-5.201333">
        <ele>1922.0</ele>
        <time>2014-06-30T12:47:41Z</time>
      </trkpt>
      <trkpt lat="40.512017" lon="-5.201233">
        <ele>1923.0</ele>
        <time>2014-06-30T12:47:42Z</time>
      </trkpt>
      <trkpt lat="40.512083" lon="-5.201133">
        <ele>1924.0</ele>
        <time>2014-06-30T12:47:43Z</time>
      </trkpt>
      <trkpt lat="40.512150" lon="-5.201050">
        <ele>1925.0</ele>
        <time>2014-06-30T12:47:44Z</time>
      </trkpt>
      <trkpt lat="40.512200" lon="-5.200983">
        <ele>1926.0</ele>
        <time>2014-06-30T12:47:45Z</time>
      </trkpt>
      <trkpt lat="40.512267" lon="-5.200967">
        <ele>1926.0</ele>
        <time>2014-06-30T12:47:46Z</time>
      </trkpt>
      <trkpt lat="40.512317" lon="-5.200967">
        <ele>1924.0</ele>
        <time>2014-06-30T12:47:47Z</time>
      </trkpt>
      <trkpt lat="40.512367" lon="-5.200983">
        <ele>1924.0</ele>
        <time>2014-06-30T12:47:48Z</time>
      </trkpt>
      <trkpt lat="40.512400" lon="-5.201017">
        <ele>1923.0</ele>
        <time>2014-06-30T12:47:49Z</time>
      </trkpt>
      <trkpt lat="40.512433" lon="-5.201050">
        <ele>1923.0</ele>
        <time>2014-06-30T12:47:50Z</time>
      </trkpt>
      <trkpt lat="40.512417" lon="-5.201100">
        <ele>1923.0</ele>
        <time>2014-06-30T12:47:51Z</time>
      </trkpt>
      <trkpt lat="40.512383" lon="-5.201167">
        <ele>1924.0</ele>
        <time>2014-06-30T12:47:52Z</time>
      </trkpt>
      <trkpt lat="40.512317" lon="-5.201200">
        <ele>1924.0</ele>
        <time>2014-06-30T12:47:53Z</time>
      </trkpt>
      <trkpt lat="40.512250" lon="-5.201233">
        <ele>1925.0</ele>
        <time>2014-06-30T12:47:54Z</time>
      </trkpt>
      <trkpt lat="40.512167" lon="-5.201250">
        <ele>1926.0</ele>
        <time>2014-06-30T12:47:55Z</time>
      </trkpt>
      <trkpt lat="40.512083" lon="-5.201250">
        <ele>1926.0</ele>
        <time>2014-06-30T12:47:56Z</time>
      </trkpt>
      <trkpt lat="40.512000" lon="-5.201233">
        <ele>1927.0</ele>
        <time>2014-06-30T12:47:57Z</time>
      </trkpt>
      <trkpt lat="40.511900" lon="-5.201200">
        <ele>1927.0</ele>
        <time>2014-06-30T12:47:58Z</time>
      </trkpt>
      <trkpt lat="40.511783" lon="-5.201133">
        <ele>1927.0</ele>
        <time>2014-06-30T12:47:59Z</time>
      </trkpt>
      <trkpt lat="40.511667" lon="-5.201017">
        <ele>1926.0</ele>
        <time>2014-06-30T12:48:00Z</time>
      </trkpt>
      <trkpt lat="40.511583" lon="-5.200850">
        <ele>1927.0</ele>
        <time>2014-06-30T12:48:01Z</time>
      </trkpt>
      <trkpt lat="40.511517" lon="-5.200667">
        <ele>1929.0</ele>
        <time>2014-06-30T12:48:02Z</time>
      </trkpt>
      <trkpt lat="40.511483" lon="-5.200467">
        <ele>1930.0</ele>
        <time>2014-06-30T12:48:03Z</time>
      </trkpt>
      <trkpt lat="40.511467" lon="-5.200283">
        <ele>1931.0</ele>
        <time>2014-06-30T12:48:04Z</time>
      </trkpt>
      <trkpt lat="40.511467" lon="-5.200117">
        <ele>1932.0</ele>
        <time>2014-06-30T12:48:05Z</time>
      </trkpt>
      <trkpt lat="40.511483" lon="-5.199950">
        <ele>1932.0</ele>
        <time>2014-06-30T12:48:06Z</time>
      </trkpt>
      <trkpt lat="40.511517" lon="-5.199800">
        <ele>1931.0</ele>
        <time>2014-06-30T12:48:07Z</time>
      </trkpt>
      <trkpt lat="40.511567" lon="-5.199650">
        <ele>1930.0</ele>
        <time>2014-06-30T12:48:08Z</time>
      </trkpt>
      <trkpt lat="40.511650" lon="-5.199550">
        <ele>1929.0</ele>
        <time>2014-06-30T12:48:09Z</time>
      </trkpt>
      <trkpt lat="40.511733" lon="-5.199483">
        <ele>1928.0</ele>
        <time>2014-06-30T12:48:10Z</time>
      </trkpt>
      <trkpt lat="40.511800" lon="-5.199433">
        <ele>1929.0</ele>
        <time>2014-06-30T12:48:11Z</time>
      </trkpt>
      <trkpt lat="40.511867" lon="-5.199400">
        <ele>1929.0</ele>
        <time>2014-06-30T12:48:12Z</time>
      </trkpt>
      <trkpt lat="40.511950" lon="-5.199383">
        <ele>1928.0</ele>
        <time>2014-06-30T12:48:13Z</time>
      </trkpt>
      <trkpt lat="40.512017" lon="-5.199383">
        <ele>1926.0</ele>
        <time>2014-06-30T12:48:14Z</time>
      </trkpt>
      <trkpt lat="40.512100" lon="-5.199433">
        <ele>1924.0</ele>
        <time>2014-06-30T12:48:15Z</time>
      </trkpt>
      <trkpt lat="40.512150" lon="-5.199483">
        <ele>1924.0</ele>
        <time>2014-06-30T12:48:16Z</time>
      </trkpt>
      <trkpt lat="40.512150" lon="-5.199550">
        <ele>1924.0</ele>
        <time>2014-06-30T12:48:17Z</time>
      </trkpt>
      <trkpt lat="40.512150" lon="-5.199600">
        <ele>1926.0</ele>
        <time>2014-06-30T12:48:18Z</time>
      </trkpt>
      <trkpt lat="40.512150" lon="-5.199617">
        <ele>1928.0</ele>
        <time>2014-06-30T12:48:19Z</time>
      </trkpt>
      <trkpt lat="40.512150" lon="-5.199617">
        <ele>1929.0</ele>
        <time>2014-06-30T12:48:20Z</time>
      </trkpt>
      <trkpt lat="40.512167" lon="-5.199650">
        <ele>1929.0</ele>
        <time>2014-06-30T12:48:21Z</time>
      </trkpt>
      <trkpt lat="40.512167" lon="-5.199667">
        <ele>1930.0</ele>
        <time>2014-06-30T12:48:22Z</time>
      </trkpt>
      <trkpt lat="40.512150" lon="-5.199700">
        <ele>1931.0</ele>
        <time>2014-06-30T12:48:23Z</time>
      </trkpt>
      <trkpt lat="40.512100" lon="-5.199733">
        <ele>1931.0</ele>
        <time>2014-06-30T12:48:24Z</time>
      </trkpt>
      <trkpt lat="40.512050" lon="-5.199767">
        <ele>1931.0</ele>
        <time>2014-06-30T12:48:25Z</time>
      </trkpt>
      <trkpt lat="40.512000" lon="-5.199783">
        <ele>1932.0</ele>
        <time>2014-06-30T12:48:26Z</time>
      </trkpt>
      <trkpt lat="40.511967" lon="-5.199817">
        <ele>1932.0</ele>
        <time>2014-06-30T12:48:27Z</time>
      </trkpt>
      <trkpt lat="40.511917" lon="-5.199833">
        <ele>1932.0</ele>
        <time>2014-06-30T12:48:28Z</time>
      </trkpt>
      <trkpt lat="40.511850" lon="-5.199833">
        <ele>1932.0</ele>
        <time>2014-06-30T12:48:29Z</time>
      </trkpt>
      <trkpt lat="40.511767" lon="-5.199833">
        <ele>1933.0</ele>
        <time>2014-06-30T12:48:30Z</time>
      </trkpt>
      <trkpt lat="40.511667" lon="-5.199817">
        <ele>1933.0</ele>
        <time>2014-06-30T12:48:31Z</time>
      </trkpt>
      <trkpt lat="40.511583" lon="-5.199800">
        <ele>1933.0</ele>
        <time>2014-06-30T12:48:32Z</time>
      </trkpt>
      <trkpt lat="40.511500" lon="-5.199783">
        <ele>1935.0</ele>
        <time>2014-06-30T12:48:33Z</time>
      </trkpt>
      <trkpt lat="40.511400" lon="-5.199717">
        <ele>1937.0</ele>
        <time>2014-06-30T12:48:34Z</time>
      </trkpt>
      <trkpt lat="40.511317" lon="-5.199633">
        <ele>1937.0</ele>
        <time>2014-06-30T12:48:35Z</time>
      </trkpt>
      <trkpt lat="40.511217" lon="-5.199500">
        <ele>1937.0</ele>
        <time>2014-06-30T12:48:36Z</time>
      </trkpt>
      <trkpt lat="40.511150" lon="-5.199350">
        <ele>1938.0</ele>
        <time>2014-06-30T12:48:37Z</time>
      </trkpt>
      <trkpt lat="40.511100" lon="-5.199183">
        <ele>1939.0</ele>
        <time>2014-06-30T12:48:38Z</time>
      </trkpt>
      <trkpt lat="40.511067" lon="-5.199017">
        <ele>1940.0</ele>
        <time>2014-06-30T12:48:39Z</time>
      </trkpt>
      <trkpt lat="40.511083" lon="-5.198850">
        <ele>1941.0</ele>
        <time>2014-06-30T12:48:40Z</time>
      </trkpt>
      <trkpt lat="40.511100" lon="-5.198683">
        <ele>1942.0</ele>
        <time>2014-06-30T12:48:41Z</time>
      </trkpt>
      <trkpt lat="40.511133" lon="-5.198533">
        <ele>1942.0</ele>
        <time>2014-06-30T12:48:42Z</time>
      </trkpt>
      <trkpt lat="40.511167" lon="-5.198367">
        <ele>1942.0</ele>
        <time>2014-06-30T12:48:43Z</time>
      </trkpt>
      <trkpt lat="40.511217" lon="-5.198217">
        <ele>1942.0</ele>
        <time>2014-06-30T12:48:44Z</time>
      </trkpt>
      <trkpt lat="40.511250" lon="-5.198067">
        <ele>1942.0</ele>
        <time>2014-06-30T12:48:45Z</time>
      </trkpt>
      <trkpt lat="40.511300" lon="-5.197917">
        <ele>1942.0</ele>
        <time>2014-06-30T12:48:46Z</time>
      </trkpt>
      <trkpt lat="40.511350" lon="-5.197783">
        <ele>1942.0</ele>
        <time>2014-06-30T12:48:47Z</time>
      </trkpt>
      <trkpt lat="40.511417" lon="-5.197683">
        <ele>1942.0</ele>
        <time>2014-06-30T12:48:48Z</time>
      </trkpt>
      <trkpt lat="40.511500" lon="-5.197600">
        <ele>1942.0</ele>
        <time>2014-06-30T12:48:49Z</time>
      </trkpt>
      <trkpt lat="40.511583" lon="-5.197533">
        <ele>1942.0</ele>
        <time>2014-06-30T12:48:50Z</time>
      </trkpt>
      <trkpt lat="40.511650" lon="-5.197467">
        <ele>1943.0</ele>
        <time>2014-06-30T12:48:51Z</time>
      </trkpt>
      <trkpt lat="40.511717" lon="-5.197400">
        <ele>1944.0</ele>
        <time>2014-06-30T12:48:52Z</time>
      </trkpt>
      <trkpt lat="40.511750" lon="-5.197350">
        <ele>1946.0</ele>
        <time>2014-06-30T12:48:53Z</time>
      </trkpt>
      <trkpt lat="40.511800" lon="-5.197283">
        <ele>1946.0</ele>
        <time>2014-06-30T12:48:54Z</time>
      </trkpt>
      <trkpt lat="40.511850" lon="-5.197250">
        <ele>1946.0</ele>
        <time>2014-06-30T12:48:55Z</time>
      </trkpt>
      <trkpt lat="40.511900" lon="-5.197217">
        <ele>1945.0</ele>
        <time>2014-06-30T12:48:56Z</time>
      </trkpt>
      <trkpt lat="40.511967" lon="-5.197200">
        <ele>1942.0</ele>
        <time>2014-06-30T12:48:57Z</time>
      </trkpt>
      <trkpt lat="40.512050" lon="-5.197167">
        <ele>1940.0</ele>
        <time>2014-06-30T12:48:58Z</time>
      </trkpt>
      <trkpt lat="40.512117" lon="-5.197167">
        <ele>1940.0</ele>
        <time>2014-06-30T12:48:59Z</time>
      </trkpt>
      <trkpt lat="40.512200" lon="-5.197167">
        <ele>1940.0</ele>
        <time>2014-06-30T12:49:00Z</time>
      </trkpt>
      <trkpt lat="40.512250" lon="-5.197150">
        <ele>1942.0</ele>
        <time>2014-06-30T12:49:01Z</time>
      </trkpt>
      <trkpt lat="40.512300" lon="-5.197100">
        <ele>1944.0</ele>
        <time>2014-06-30T12:49:02Z</time>
      </trkpt>
      <trkpt lat="40.512350" lon="-5.197067">
        <ele>1946.0</ele>
        <time>2014-06-30T12:49:03Z</time>
      </trkpt>
      <trkpt lat="40.512417" lon="-5.197017">
        <ele>1947.0</ele>
        <time>2014-06-30T12:49:04Z</time>
      </trkpt>
      <trkpt lat="40.512467" lon="-5.196983">
        <ele>1947.0</ele>
        <time>2014-06-30T12:49:05Z</time>
      </trkpt>
      <trkpt lat="40.512533" lon="-5.196933">
        <ele>1948.0</ele>
        <time>2014-06-30T12:49:06Z</time>
      </trkpt>
      <trkpt lat="40.512600" lon="-5.196900">
        <ele>1948.0</ele>
        <time>2014-06-30T12:49:07Z</time>
      </trkpt>
      <trkpt lat="40.512683" lon="-5.196850">
        <ele>1948.0</ele>
        <time>2014-06-30T12:49:08Z</time>
      </trkpt>
      <trkpt lat="40.512750" lon="-5.196800">
        <ele>1948.0</ele>
        <time>2014-06-30T12:49:09Z</time>
      </trkpt>
      <trkpt lat="40.512817" lon="-5.196750">
        <ele>1947.0</ele>
        <time>2014-06-30T12:49:10Z</time>
      </trkpt>
      <trkpt lat="40.512883" lon="-5.196700">
        <ele>1947.0</ele>
        <time>2014-06-30T12:49:11Z</time>
      </trkpt>
      <trkpt lat="40.512967" lon="-5.196667">
        <ele>1946.0</ele>
        <time>2014-06-30T12:49:12Z</time>
      </trkpt>
      <trkpt lat="40.513050" lon="-5.196650">
        <ele>1946.0</ele>
        <time>2014-06-30T12:49:13Z</time>
      </trkpt>
      <trkpt lat="40.513133" lon="-5.196633">
        <ele>1946.0</ele>
        <time>2014-06-30T12:49:14Z</time>
      </trkpt>
      <trkpt lat="40.513233" lon="-5.196600">
        <ele>1946.0</ele>
        <time>2014-06-30T12:49:15Z</time>
      </trkpt>
      <trkpt lat="40.513317" lon="-5.196583">
        <ele>1946.0</ele>
        <time>2014-06-30T12:49:16Z</time>
      </trkpt>
      <trkpt lat="40.513417" lon="-5.196550">
        <ele>1947.0</ele>
        <time>2014-06-30T12:49:17Z</time>
      </trkpt>
      <trkpt lat="40.513517" lon="-5.196517">
        <ele>1948.0</ele>
        <time>2014-06-30T12:49:18Z</time>
      </trkpt>
      <trkpt lat="40.513600" lon="-5.196517">
        <ele>1949.0</ele>
        <time>2014-06-30T12:49:19Z</time>
      </trkpt>
      <trkpt lat="40.513683" lon="-5.196533">
        <ele>1950.0</ele>
        <time>2014-06-30T12:49:20Z</time>
      </trkpt>
      <trkpt lat="40.513767" lon="-5.196567">
        <ele>1952.0</ele>
        <time>2014-06-30T12:49:21Z</time>
      </trkpt>
      <trkpt lat="40.513833" lon="-5.196633">
        <ele>1953.0</ele>
        <time>2014-06-30T12:49:22Z</time>
      </trkpt>
      <trkpt lat="40.513917" lon="-5.196717">
        <ele>1953.0</ele>
        <time>2014-06-30T12:49:23Z</time>
      </trkpt>
      <trkpt lat="40.513983" lon="-5.196783">
        <ele>1955.0</ele>
        <time>2014-06-30T12:49:24Z</time>
      </trkpt>
      <trkpt lat="40.514033" lon="-5.196850">
        <ele>1958.0</ele>
        <time>2014-06-30T12:49:25Z</time>
      </trkpt>
      <trkpt lat="40.514100" lon="-5.196933">
        <ele>1960.0</ele>
        <time>2014-06-30T12:49:26Z</time>
      </trkpt>
      <trkpt lat="40.514150" lon="-5.197000">
        <ele>1962.0</ele>
        <time>2014-06-30T12:49:27Z</time>
      </trkpt>
      <trkpt lat="40.514200" lon="-5.197067">
        <ele>1964.0</ele>
        <time>2014-06-30T12:49:28Z</time>
      </trkpt>
      <trkpt lat="40.514267" lon="-5.197133">
        <ele>1967.0</ele>
        <time>2014-06-30T12:49:29Z</time>
      </trkpt>
      <trkpt lat="40.514317" lon="-5.197200">
        <ele>1970.0</ele>
        <time>2014-06-30T12:49:30Z</time>
      </trkpt>
      <trkpt lat="40.514383" lon="-5.197250">
        <ele>1972.0</ele>
        <time>2014-06-30T12:49:31Z</time>
      </trkpt>
      <trkpt lat="40.514450" lon="-5.197283">
        <ele>1975.0</ele>
        <time>2014-06-30T12:49:32Z</time>
      </trkpt>
      <trkpt lat="40.514500" lon="-5.197333">
        <ele>1977.0</ele>
        <time>2014-06-30T12:49:33Z</time>
      </trkpt>
      <trkpt lat="40.514567" lon="-5.197383">
        <ele>1979.0</ele>
        <time>2014-06-30T12:49:34Z</time>
      </trkpt>
      <trkpt lat="40.514633" lon="-5.197417">
        <ele>1981.0</ele>
        <time>2014-06-30T12:49:35Z</time>
      </trkpt>
      <trkpt lat="40.514683" lon="-5.197450">
        <ele>1984.0</ele>
        <time>2014-06-30T12:49:36Z</time>
      </trkpt>
      <trkpt lat="40.514767" lon="-5.197467">
        <ele>1986.0</ele>
        <time>2014-06-30T12:49:37Z</time>
      </trkpt>
      <trkpt lat="40.514833" lon="-5.197500">
        <ele>1988.0</ele>
        <time>2014-06-30T12:49:38Z</time>
      </trkpt>
      <trkpt lat="40.514900" lon="-5.197517">
        <ele>1990.0</ele>
        <time>2014-06-30T12:49:39Z</time>
      </trkpt>
      <trkpt lat="40.514967" lon="-5.197533">
        <ele>1993.0</ele>
        <time>2014-06-30T12:49:40Z</time>
      </trkpt>
      <trkpt lat="40.515017" lon="-5.197550">
        <ele>1997.0</ele>
        <time>2014-06-30T12:49:41Z</time>
      </trkpt>
      <trkpt lat="40.515083" lon="-5.197550">
        <ele>2000.0</ele>
        <time>2014-06-30T12:49:42Z</time>
      </trkpt>
      <trkpt lat="40.515133" lon="-5.197550">
        <ele>2003.0</ele>
        <time>2014-06-30T12:49:43Z</time>
      </trkpt>
      <trkpt lat="40.515200" lon="-5.197567">
        <ele>2005.0</ele>
        <time>2014-06-30T12:49:44Z</time>
      </trkpt>
      <trkpt lat="40.515267" lon="-5.197567">
        <ele>2008.0</ele>
        <time>2014-06-30T12:49:45Z</time>
      </trkpt>
      <trkpt lat="40.515350" lon="-5.197567">
        <ele>2011.0</ele>
        <time>2014-06-30T12:49:46Z</time>
      </trkpt>
      <trkpt lat="40.515417" lon="-5.197583">
        <ele>2014.0</ele>
        <time>2014-06-30T12:49:47Z</time>
      </trkpt>
      <trkpt lat="40.515500" lon="-5.197583">
        <ele>2017.0</ele>
        <time>2014-06-30T12:49:48Z</time>
      </trkpt>
      <trkpt lat="40.515583" lon="-5.197567">
        <ele>2020.0</ele>
        <time>2014-06-30T12:49:49Z</time>
      </trkpt>
      <trkpt lat="40.515683" lon="-5.197550">
        <ele>2023.0</ele>
        <time>2014-06-30T12:49:50Z</time>
      </trkpt>
      <trkpt lat="40.515767" lon="-5.197500">
        <ele>2026.0</ele>
        <time>2014-06-30T12:49:51Z</time>
      </trkpt>
      <trkpt lat="40.515850" lon="-5.197450">
        <ele>2029.0</ele>
        <time>2014-06-30T12:49:52Z</time>
      </trkpt>
      <trkpt lat="40.515933" lon="-5.197350">
        <ele>2031.0</ele>
        <time>2014-06-30T12:49:53Z</time>
      </trkpt>
      <trkpt lat="40.516017" lon="-5.197233">
        <ele>2033.0</ele>
        <time>2014-06-30T12:49:54Z</time>
      </trkpt>
      <trkpt lat="40.516067" lon="-5.197083">
        <ele>2035.0</ele>
        <time>2014-06-30T12:49:55Z</time>
      </trkpt>
      <trkpt lat="40.516117" lon="-5.196933">
        <ele>2036.0</ele>
        <time>2014-06-30T12:49:56Z</time>
      </trkpt>
      <trkpt lat="40.516117" lon="-5.196783">
        <ele>2039.0</ele>
        <time>2014-06-30T12:49:57Z</time>
      </trkpt>
      <trkpt lat="40.516117" lon="-5.196667">
        <ele>2042.0</ele>
        <time>2014-06-30T12:49:58Z</time>
      </trkpt>
      <trkpt lat="40.516083" lon="-5.196567">
        <ele>2046.0</ele>
        <time>2014-06-30T12:49:59Z</time>
      </trkpt>
      <trkpt lat="40.516050" lon="-5.196483">
        <ele>2049.0</ele>
        <time>2014-06-30T12:50:00Z</time>
      </trkpt>
      <trkpt lat="40.516000" lon="-5.196400">
        <ele>2052.0</ele>
        <time>2014-06-30T12:50:01Z</time>
      </trkpt>
      <trkpt lat="40.515933" lon="-5.196333">
        <ele>2055.0</ele>
        <time>2014-06-30T12:50:02Z</time>
      </trkpt>
      <trkpt lat="40.515883" lon="-5.196283">
        <ele>2059.0</ele>
        <time>2014-06-30T12:50:03Z</time>
      </trkpt>
      <trkpt lat="40.515817" lon="-5.196283">
        <ele>2062.0</ele>
        <time>2014-06-30T12:50:04Z</time>
      </trkpt>
      <trkpt lat="40.515767" lon="-5.196300">
        <ele>2065.0</ele>
        <time>2014-06-30T12:50:05Z</time>
      </trkpt>
      <trkpt lat="40.515717" lon="-5.196333">
        <ele>2068.0</ele>
        <time>2014-06-30T12:50:06Z</time>
      </trkpt>
      <trkpt lat="40.515667" lon="-5.196400">
        <ele>2072.0</ele>
        <time>2014-06-30T12:50:07Z</time>
      </trkpt>
      <trkpt lat="40.515633" lon="-5.196450">
        <ele>2075.0</ele>
        <time>2014-06-30T12:50:08Z</time>
      </trkpt>
      <trkpt lat="40.515600" lon="-5.196517">
        <ele>2079.0</ele>
        <time>2014-06-30T12:50:09Z</time>
      </trkpt>
      <trkpt lat="40.515600" lon="-5.196600">
        <ele>2083.0</ele>
        <time>2014-06-30T12:50:10Z</time>
      </trkpt>
      <trkpt lat="40.515600" lon="-5.196667">
        <ele>2087.0</ele>
        <time>2014-06-30T12:50:11Z</time>
      </trkpt>
      <trkpt lat="40.515617" lon="-5.196750">
        <ele>2091.0</ele>
        <time>2014-06-30T12:50:12Z</time>
      </trkpt>
      <trkpt lat="40.515617" lon="-5.196800">
        <ele>2094.0</ele>
        <time>2014-06-30T12:50:13Z</time>
      </trkpt>
      <trkpt lat="40.515633" lon="-5.196833">
        <ele>2097.0</ele>
        <time>2014-06-30T12:50:14Z</time>
      </trkpt>
      <trkpt lat="40.515650" lon="-5.196867">
        <ele>2099.0</ele>
        <time>2014-06-30T12:50:15Z</time>
      </trkpt>
      <trkpt lat="40.515650" lon="-5.196900">
        <ele>2100.0</ele>
        <time>2014-06-30T12:50:16Z</time>
      </trkpt>
      <trkpt lat="40.515667" lon="-5.196933">
        <ele>2100.0</ele>
        <time>2014-06-30T12:50:17Z</time>
      </trkpt>
      <trkpt lat="40.515700" lon="-5.196983">
        <ele>2100.0</ele>
        <time>2014-06-30T12:50:18Z</time>
      </trkpt>
      <trkpt lat="40.515750" lon="-5.197017">
        <ele>2101.0</ele>
        <time>2014-06-30T12:50:19Z</time>
      </trkpt>
      <trkpt lat="40.515817" lon="-5.197033">
        <ele>2101.0</ele>
        <time>2014-06-30T12:50:20Z</time>
      </trkpt>
      <trkpt lat="40.515883" lon="-5.197033">
        <ele>2102.0</ele>
        <time>2014-06-30T12:50:21Z</time>
      </trkpt>
      <trkpt lat="40.515967" lon="-5.196983">
        <ele>2103.0</ele>
        <time>2014-06-30T12:50:22Z</time>
      </trkpt>
      <trkpt lat="40.516050" lon="-5.196933">
        <ele>2104.0</ele>
        <time>2014-06-30T12:50:23Z</time>
      </trkpt>
      <trkpt lat="40.516133" lon="-5.196867">
        <ele>2104.0</ele>
        <time>2014-06-30T12:50:24Z</time>
      </trkpt>
      <trkpt lat="40.516217" lon="-5.196817">
        <ele>2103.0</ele>
        <time>2014-06-30T12:50:25Z</time>
      </trkpt>
      <trkpt lat="40.516317" lon="-5.196750">
        <ele>2102.0</ele>
        <time>2014-06-30T12:50:26Z</time>
      </trkpt>
      <trkpt lat="40.516383" lon="-5.196650">
        <ele>2103.0</ele>
        <time>2014-06-30T12:50:27Z</time>
      </trkpt>
      <trkpt lat="40.516433" lon="-5.196533">
        <ele>2103.0</ele>
        <time>2014-06-30T12:50:28Z</time>
      </trkpt>
      <trkpt lat="40.516483" lon="-5.196383">
        <ele>2103.0</ele>
        <time>2014-06-30T12:50:29Z</time>
      </trkpt>
      <trkpt lat="40.516517" lon="-5.196217">
        <ele>2103.0</ele>
        <time>2014-06-30T12:50:30Z</time>
      </trkpt>
      <trkpt lat="40.516533" lon="-5.196050">
        <ele>2103.0</ele>
        <time>2014-06-30T12:50:31Z</time>
      </trkpt>
      <trkpt lat="40.516550" lon="-5.195883">
        <ele>2103.0</ele>
        <time>2014-06-30T12:50:32Z</time>
      </trkpt>
      <trkpt lat="40.516567" lon="-5.195717">
        <ele>2104.0</ele>
        <time>2014-06-30T12:50:33Z</time>
      </trkpt>
      <trkpt lat="40.516567" lon="-5.195550">
        <ele>2106.0</ele>
        <time>2014-06-30T12:50:34Z</time>
      </trkpt>
      <trkpt lat="40.516533" lon="-5.195400">
        <ele>2108.0</ele>
        <time>2014-06-30T12:50:35Z</time>
      </trkpt>
      <trkpt lat="40.516517" lon="-5.195267">
        <ele>2111.0</ele>
        <time>2014-06-30T12:50:36Z</time>
      </trkpt>
      <trkpt lat="40.516483" lon="-5.195150">
        <ele>2114.0</ele>
        <time>2014-06-30T12:50:37Z</time>
      </trkpt>
      <trkpt lat="40.516467" lon="-5.195017">
        <ele>2117.0</ele>
        <time>2014-06-30T12:50:38Z</time>
      </trkpt>
      <trkpt lat="40.516450" lon="-5.194883">
        <ele>2120.0</ele>
        <time>2014-06-30T12:50:39Z</time>
      </trkpt>
      <trkpt lat="40.516433" lon="-5.194750">
        <ele>2123.0</ele>
        <time>2014-06-30T12:50:40Z</time>
      </trkpt>
      <trkpt lat="40.516400" lon="-5.194617">
        <ele>2126.0</ele>
        <time>2014-06-30T12:50:41Z</time>
      </trkpt>
      <trkpt lat="40.516383" lon="-5.194483">
        <ele>2128.0</ele>
        <time>2014-06-30T12:50:42Z</time>
      </trkpt>
      <trkpt lat="40.516383" lon="-5.194333">
        <ele>2132.0</ele>
        <time>2014-06-30T12:50:43Z</time>
      </trkpt>
      <trkpt lat="40.516417" lon="-5.194183">
        <ele>2134.0</ele>
        <time>2014-06-30T12:50:44Z</time>
      </trkpt>
      <trkpt lat="40.516467" lon="-5.194033">
        <ele>2136.0</ele>
        <time>2014-06-30T12:50:45Z</time>
      </trkpt>
      <trkpt lat="40.516533" lon="-5.193900">
        <ele>2137.0</ele>
        <time>2014-06-30T12:50:46Z</time>
      </trkpt>
      <trkpt lat="40.516600" lon="-5.193767">
        <ele>2137.0</ele>
        <time>2014-06-30T12:50:47Z</time>
      </trkpt>
      <trkpt lat="40.516700" lon="-5.193667">
        <ele>2136.0</ele>
        <time>2014-06-30T12:50:48Z</time>
      </trkpt>
      <trkpt lat="40.516783" lon="-5.193600">
        <ele>2135.0</ele>
        <time>2014-06-30T12:50:49Z</time>
      </trkpt>
      <trkpt lat="40.516883" lon="-5.193583">
        <ele>2133.0</ele>
        <time>2014-06-30T12:50:50Z</time>
      </trkpt>
      <trkpt lat="40.516967" lon="-5.193600">
        <ele>2131.0</ele>
        <time>2014-06-30T12:50:51Z</time>
      </trkpt>
      <trkpt lat="40.517050" lon="-5.193617">
        <ele>2129.0</ele>
        <time>2014-06-30T12:50:52Z</time>
      </trkpt>
      <trkpt lat="40.517117" lon="-5.193667">
        <ele>2128.0</ele>
        <time>2014-06-30T12:50:53Z</time>
      </trkpt>
      <trkpt lat="40.517133" lon="-5.193717">
        <ele>2127.0</ele>
        <time>2014-06-30T12:50:54Z</time>
      </trkpt>
      <trkpt lat="40.517133" lon="-5.193767">
        <ele>2126.0</ele>
        <time>2014-06-30T12:50:55Z</time>
      </trkpt>
      <trkpt lat="40.517100" lon="-5.193833">
        <ele>2125.0</ele>
        <time>2014-06-30T12:50:56Z</time>
      </trkpt>
      <trkpt lat="40.517067" lon="-5.193883">
        <ele>2124.0</ele>
        <time>2014-06-30T12:50:57Z</time>
      </trkpt>
      <trkpt lat="40.517033" lon="-5.193950">
        <ele>2123.0</ele>
        <time>2014-06-30T12:50:58Z</time>
      </trkpt>
      <trkpt lat="40.517000" lon="-5.194017">
        <ele>2122.0</ele>
        <time>2014-06-30T12:50:59Z</time>
      </trkpt>
      <trkpt lat="40.516983" lon="-5.194083">
        <ele>2122.0</ele>
        <time>2014-06-30T12:51:00Z</time>
      </trkpt>
      <trkpt lat="40.516950" lon="-5.194150">
        <ele>2121.0</ele>
        <time>2014-06-30T12:51:01Z</time>
      </trkpt>
      <trkpt lat="40.516917" lon="-5.194200">
        <ele>2121.0</ele>
        <time>2014-06-30T12:51:02Z</time>
      </trkpt>
      <trkpt lat="40.516867" lon="-5.194233">
        <ele>2121.0</ele>
        <time>2014-06-30T12:51:03Z</time>
      </trkpt>
      <trkpt lat="40.516833" lon="-5.194267">
        <ele>2122.0</ele>
        <time>2014-06-30T12:51:04Z</time>
      </trkpt>
      <trkpt lat="40.516800" lon="-5.194300">
        <ele>2124.0</ele>
        <time>2014-06-30T12:51:05Z</time>
      </trkpt>
      <trkpt lat="40.516750" lon="-5.194317">
        <ele>2126.0</ele>
        <time>2014-06-30T12:51:06Z</time>
      </trkpt>
      <trkpt lat="40.516717" lon="-5.194300">
        <ele>2127.0</ele>
        <time>2014-06-30T12:51:07Z</time>
      </trkpt>
      <trkpt lat="40.516650" lon="-5.194283">
        <ele>2128.0</ele>
        <time>2014-06-30T12:51:08Z</time>
      </trkpt>
      <trkpt lat="40.516583" lon="-5.194217">
        <ele>2130.0</ele>
        <time>2014-06-30T12:51:09Z</time>
      </trkpt>
      <trkpt lat="40.516533" lon="-5.194133">
        <ele>2131.0</ele>
        <time>2014-06-30T12:51:10Z</time>
      </trkpt>
      <trkpt lat="40.516500" lon="-5.194033">
        <ele>2132.0</ele>
        <time>2014-06-30T12:51:11Z</time>
      </trkpt>
      <trkpt lat="40.516467" lon="-5.193917">
        <ele>2133.0</ele>
        <time>2014-06-30T12:51:12Z</time>
      </trkpt>
      <trkpt lat="40.516450" lon="-5.193783">
        <ele>2135.0</ele>
        <time>2014-06-30T12:51:13Z</time>
      </trkpt>
      <trkpt lat="40.516467" lon="-5.193650">
        <ele>2137.0</ele>
        <time>2014-06-30T12:51:14Z</time>
      </trkpt>
      <trkpt lat="40.516483" lon="-5.193500">
        <ele>2137.0</ele>
        <time>2014-06-30T12:51:15Z</time>
      </trkpt>
      <trkpt lat="40.516533" lon="-5.193350">
        <ele>2138.0</ele>
        <time>2014-06-30T12:51:16Z</time>
      </trkpt>
      <trkpt lat="40.516600" lon="-5.193200">
        <ele>2139.0</ele>
        <time>2014-06-30T12:51:17Z</time>
      </trkpt>
      <trkpt lat="40.516683" lon="-5.193083">
        <ele>2140.0</ele>
        <time>2014-06-30T12:51:18Z</time>
      </trkpt>
      <trkpt lat="40.516783" lon="-5.192967">
        <ele>2140.0</ele>
        <time>2014-06-30T12:51:19Z</time>
      </trkpt>
      <trkpt lat="40.516867" lon="-5.192850">
        <ele>2140.0</ele>
        <time>2014-06-30T12:51:20Z</time>
      </trkpt>
      <trkpt lat="40.516950" lon="-5.192767">
        <ele>2141.0</ele>
        <time>2014-06-30T12:51:21Z</time>
      </trkpt>
      <trkpt lat="40.517033" lon="-5.192700">
        <ele>2140.0</ele>
        <time>2014-06-30T12:51:22Z</time>
      </trkpt>
      <trkpt lat="40.517100" lon="-5.192617">
        <ele>2140.0</ele>
        <time>2014-06-30T12:51:23Z</time>
      </trkpt>
      <trkpt lat="40.517200" lon="-5.192550">
        <ele>2139.0</ele>
        <time>2014-06-30T12:51:24Z</time>
      </trkpt>
      <trkpt lat="40.517283" lon="-5.192517">
        <ele>2137.0</ele>
        <time>2014-06-30T12:51:25Z</time>
      </trkpt>
      <trkpt lat="40.517383" lon="-5.192533">
        <ele>2135.0</ele>
        <time>2014-06-30T12:51:26Z</time>
      </trkpt>
      <trkpt lat="40.517450" lon="-5.192567">
        <ele>2133.0</ele>
        <time>2014-06-30T12:51:27Z</time>
      </trkpt>
      <trkpt lat="40.517517" lon="-5.192617">
        <ele>2131.0</ele>
        <time>2014-06-30T12:51:28Z</time>
      </trkpt>
      <trkpt lat="40.517550" lon="-5.192683">
        <ele>2130.0</ele>
        <time>2014-06-30T12:51:29Z</time>
      </trkpt>
      <trkpt lat="40.517583" lon="-5.192767">
        <ele>2130.0</ele>
        <time>2014-06-30T12:51:30Z</time>
      </trkpt>
      <trkpt lat="40.517600" lon="-5.192833">
        <ele>2129.0</ele>
        <time>2014-06-30T12:51:31Z</time>
      </trkpt>
      <trkpt lat="40.517633" lon="-5.192900">
        <ele>2129.0</ele>
        <time>2014-06-30T12:51:32Z</time>
      </trkpt>
      <trkpt lat="40.517650" lon="-5.192967">
        <ele>2128.0</ele>
        <time>2014-06-30T12:51:33Z</time>
      </trkpt>
      <trkpt lat="40.517667" lon="-5.193033">
        <ele>2127.0</ele>
        <time>2014-06-30T12:51:34Z</time>
      </trkpt>
      <trkpt lat="40.517667" lon="-5.193100">
        <ele>2127.0</ele>
        <time>2014-06-30T12:51:35Z</time>
      </trkpt>
      <trkpt lat="40.517633" lon="-5.193167">
        <ele>2126.0</ele>
        <time>2014-06-30T12:51:36Z</time>
      </trkpt>
      <trkpt lat="40.517583" lon="-5.193233">
        <ele>2125.0</ele>
        <time>2014-06-30T12:51:37Z</time>
      </trkpt>
      <trkpt lat="40.517533" lon="-5.193283">
        <ele>2124.0</ele>
        <time>2014-06-30T12:51:38Z</time>
      </trkpt>
      <trkpt lat="40.517483" lon="-5.193350">
        <ele>2124.0</ele>
        <time>2014-06-30T12:51:39Z</time>
      </trkpt>
      <trkpt lat="40.517433" lon="-5.193400">
        <ele>2124.0</ele>
        <time>2014-06-30T12:51:40Z</time>
      </trkpt>
      <trkpt lat="40.517367" lon="-5.193450">
        <ele>2124.0</ele>
        <time>2014-06-30T12:51:41Z</time>
      </trkpt>
      <trkpt lat="40.517317" lon="-5.193517">
        <ele>2125.0</ele>
        <time>2014-06-30T12:51:42Z</time>
      </trkpt>
      <trkpt lat="40.517267" lon="-5.193550">
        <ele>2125.0</ele>
        <time>2014-06-30T12:51:43Z</time>
      </trkpt>
      <trkpt lat="40.517200" lon="-5.193600">
        <ele>2126.0</ele>
        <time>2014-06-30T12:51:44Z</time>
      </trkpt>
      <trkpt lat="40.517150" lon="-5.193650">
        <ele>2128.0</ele>
        <time>2014-06-30T12:51:45Z</time>
      </trkpt>
      <trkpt lat="40.517117" lon="-5.193683">
        <ele>2129.0</ele>
        <time>2014-06-30T12:51:46Z</time>
      </trkpt>
      <trkpt lat="40.517067" lon="-5.193733">
        <ele>2131.0</ele>
        <time>2014-06-30T12:51:47Z</time>
      </trkpt>
      <trkpt lat="40.517000" lon="-5.193767">
        <ele>2133.0</ele>
        <time>2014-06-30T12:51:48Z</time>
      </trkpt>
      <trkpt lat="40.516950" lon="-5.193800">
        <ele>2134.0</ele>
        <time>2014-06-30T12:51:49Z</time>
      </trkpt>
      <trkpt lat="40.516883" lon="-5.193817">
        <ele>2136.0</ele>
        <time>2014-06-30T12:51:50Z</time>
      </trkpt>
      <trkpt lat="40.516833" lon="-5.193833">
        <ele>2137.0</ele>
        <time>2014-06-30T12:51:51Z</time>
      </trkpt>
      <trkpt lat="40.516767" lon="-5.193817">
        <ele>2140.0</ele>
        <time>2014-06-30T12:51:52Z</time>
      </trkpt>
      <trkpt lat="40.516700" lon="-5.193783">
        <ele>2141.0</ele>
        <time>2014-06-30T12:51:53Z</time>
      </trkpt>
      <trkpt lat="40.516633" lon="-5.193767">
        <ele>2143.0</ele>
        <time>2014-06-30T12:51:54Z</time>
      </trkpt>
      <trkpt lat="40.516583" lon="-5.193783">
        <ele>2142.0</ele>
        <time>2014-06-30T12:51:55Z</time>
      </trkpt>
      <trkpt lat="40.516550" lon="-5.193833">
        <ele>2142.0</ele>
        <time>2014-06-30T12:51:56Z</time>
      </trkpt>
      <trkpt lat="40.516533" lon="-5.193900">
        <ele>2141.0</ele>
        <time>2014-06-30T12:51:57Z</time>
      </trkpt>
      <trkpt lat="40.516550" lon="-5.193983">
        <ele>2141.0</ele>
        <time>2014-06-30T12:51:58Z</time>
      </trkpt>
      <trkpt lat="40.516583" lon="-5.194033">
        <ele>2142.0</ele>
        <time>2014-06-30T12:51:59Z</time>
      </trkpt>
      <trkpt lat="40.516633" lon="-5.194050">
        <ele>2143.0</ele>
        <time>2014-06-30T12:52:00Z</time>
      </trkpt>
      <trkpt lat="40.516700" lon="-5.194033">
        <ele>2144.0</ele>
        <time>2014-06-30T12:52:01Z</time>
      </trkpt>
      <trkpt lat="40.516783" lon="-5.193983">
        <ele>2144.0</ele>
        <time>2014-06-30T12:52:02Z</time>
      </trkpt>
      <trkpt lat="40.516867" lon="-5.193933">
        <ele>2145.0</ele>
        <time>2014-06-30T12:52:03Z</time>
      </trkpt>
      <trkpt lat="40.516950" lon="-5.193867">
        <ele>2145.0</ele>
        <time>2014-06-30T12:52:04Z</time>
      </trkpt>
      <trkpt lat="40.517033" lon="-5.193800">
        <ele>2146.0</ele>
        <time>2014-06-30T12:52:05Z</time>
      </trkpt>
      <trkpt lat="40.517083" lon="-5.193717">
        <ele>2146.0</ele>
        <time>2014-06-30T12:52:06Z</time>
      </trkpt>
      <trkpt lat="40.517150" lon="-5.193617">
        <ele>2146.0</ele>
        <time>2014-06-30T12:52:07Z</time>
      </trkpt>
      <trkpt lat="40.517217" lon="-5.193517">
        <ele>2147.0</ele>
        <time>2014-06-30T12:52:08Z</time>
      </trkpt>
      <trkpt lat="40.517267" lon="-5.193400">
        <ele>2147.0</ele>
        <time>2014-06-30T12:52:09Z</time>
      </trkpt>
      <trkpt lat="40.517300" lon="-5.193250">
        <ele>2147.0</ele>
        <time>2014-06-30T12:52:10Z</time>
      </trkpt>
      <trkpt lat="40.517333" lon="-5.193117">
        <ele>2148.0</ele>
        <time>2014-06-30T12:52:11Z</time>
      </trkpt>
      <trkpt lat="40.517333" lon="-5.192983">
        <ele>2149.0</ele>
        <time>2014-06-30T12:52:12Z</time>
      </trkpt>
      <trkpt lat="40.517333" lon="-5.192867">
        <ele>2151.0</ele>
        <time>2014-06-30T12:52:13Z</time>
      </trkpt>
      <trkpt lat="40.517317" lon="-5.192767">
        <ele>2153.0</ele>
        <time>2014-06-30T12:52:14Z</time>
      </trkpt>
      <trkpt lat="40.517300" lon="-5.192650">
        <ele>2153.0</ele>
        <time>2014-06-30T12:52:15Z</time>
      </trkpt>
      <trkpt lat="40.517267" lon="-5.192533">
        <ele>2154.0</ele>
        <time>2014-06-30T12:52:16Z</time>
      </trkpt>
      <trkpt lat="40.517217" lon="-5.192417">
        <ele>2155.0</ele>
        <time>2014-06-30T12:52:17Z</time>
      </trkpt>
      <trkpt lat="40.517167" lon="-5.192317">
        <ele>2156.0</ele>
        <time>2014-06-30T12:52:18Z</time>
      </trkpt>
      <trkpt lat="40.517100" lon="-5.192250">
        <ele>2157.0</ele>
        <time>2014-06-30T12:52:19Z</time>
      </trkpt>
      <trkpt lat="40.517033" lon="-5.192217">
        <ele>2159.0</ele>
        <time>2014-06-30T12:52:20Z</time>
      </trkpt>
      <trkpt lat="40.516967" lon="-5.192200">
        <ele>2160.0</ele>
        <time>2014-06-30T12:52:21Z</time>
      </trkpt>
      <trkpt lat="40.516883" lon="-5.192233">
        <ele>2161.0</ele>
        <time>2014-06-30T12:52:22Z</time>
      </trkpt>
      <trkpt lat="40.516817" lon="-5.192267">
        <ele>2161.0</ele>
        <time>2014-06-30T12:52:23Z</time>
      </trkpt>
      <trkpt lat="40.516767" lon="-5.192317">
        <ele>2162.0</ele>
        <time>2014-06-30T12:52:24Z</time>
      </trkpt>
      <trkpt lat="40.516733" lon="-5.192367">
        <ele>2162.0</ele>
        <time>2014-06-30T12:52:25Z</time>
      </trkpt>
      <trkpt lat="40.516717" lon="-5.192433">
        <ele>2162.0</ele>
        <time>2014-06-30T12:52:26Z</time>
      </trkpt>
      <trkpt lat="40.516700" lon="-5.192517">
        <ele>2162.0</ele>
        <time>2014-06-30T12:52:27Z</time>
      </trkpt>
      <trkpt lat="40.516717" lon="-5.192600">
        <ele>2161.0</ele>
        <time>2014-06-30T12:52:28Z</time>
      </trkpt>
      <trkpt lat="40.516733" lon="-5.192683">
        <ele>2160.0</ele>
        <time>2014-06-30T12:52:29Z</time>
      </trkpt>
      <trkpt lat="40.516767" lon="-5.192750">
        <ele>2160.0</ele>
        <time>2014-06-30T12:52:30Z</time>
      </trkpt>
      <trkpt lat="40.516800" lon="-5.192800">
        <ele>2160.0</ele>
        <time>2014-06-30T12:52:31Z</time>
      </trkpt>
      <trkpt lat="40.516833" lon="-5.192883">
        <ele>2159.0</ele>
        <time>2014-06-30T12:52:32Z</time>
      </trkpt>
      <trkpt lat="40.516883" lon="-5.192967">
        <ele>2159.0</ele>
        <time>2014-06-30T12:52:33Z</time>
      </trkpt>
      <trkpt lat="40.516917" lon="-5.193033">
        <ele>2159.0</ele>
        <time>2014-06-30T12:52:34Z</time>
      </trkpt>
      <trkpt lat="40.516967" lon="-5.193083">
        <ele>2160.0</ele>
        <time>2014-06-30T12:52:35Z</time>
      </trkpt>
      <trkpt lat="40.517050" lon="-5.193100">
        <ele>2160.0</ele>
        <time>2014-06-30T12:52:36Z</time>
      </trkpt>
      <trkpt lat="40.517133" lon="-5.193083">
        <ele>2159.0</ele>
        <time>2014-06-30T12:52:37Z</time>
      </trkpt>
      <trkpt lat="40.517217" lon="-5.193067">
        <ele>2159.0</ele>
        <time>2014-06-30T12:52:38Z</time>
      </trkpt>
      <trkpt lat="40.517317" lon="-5.193033">
        <ele>2159.0</ele>
        <time>2014-06-30T12:52:39Z</time>
      </trkpt>
      <trkpt lat="40.517383" lon="-5.192967">
        <ele>2160.0</ele>
        <time>2014-06-30T12:52:40Z</time>
      </trkpt>
      <trkpt lat="40.517467" lon="-5.192917">
        <ele>2160.0</ele>
        <time>2014-06-30T12:52:41Z</time>
      </trkpt>
      <trkpt lat="40.517533" lon="-5.192833">
        <ele>2159.0</ele>
        <time>2014-06-30T12:52:42Z</time>
      </trkpt>
      <trkpt lat="40.517617" lon="-5.192750">
        <ele>2159.0</ele>
        <time>2014-06-30T12:52:43Z</time>
      </trkpt>
      <trkpt lat="40.517683" lon="-5.192650">
        <ele>2159.0</ele>
        <time>2014-06-30T12:52:44Z</time>
      </trkpt>
      <trkpt lat="40.517750" lon="-5.192533">
        <ele>2159.0</ele>
        <time>2014-06-30T12:52:45Z</time>
      </trkpt>
      <trkpt lat="40.517817" lon="-5.192433">
        <ele>2160.0</ele>
        <time>2014-06-30T12:52:46Z</time>
      </trkpt>
      <trkpt lat="40.517883" lon="-5.192317">
        <ele>2162.0</ele>
        <time>2014-06-30T12:52:47Z</time>
      </trkpt>
      <trkpt lat="40.517950" lon="-5.192183">
        <ele>2165.0</ele>
        <time>2014-06-30T12:52:48Z</time>
      </trkpt>
      <trkpt lat="40.518000" lon="-5.192067">
        <ele>2168.0</ele>
        <time>2014-06-30T12:52:49Z</time>
      </trkpt>
      <trkpt lat="40.518050" lon="-5.191950">
        <ele>2170.0</ele>
        <time>2014-06-30T12:52:50Z</time>
      </trkpt>
      <trkpt lat="40.518100" lon="-5.191817">
        <ele>2173.0</ele>
        <time>2014-06-30T12:52:51Z</time>
      </trkpt>
      <trkpt lat="40.518167" lon="-5.191700">
        <ele>2174.0</ele>
        <time>2014-06-30T12:52:52Z</time>
      </trkpt>
      <trkpt lat="40.518233" lon="-5.191583">
        <ele>2175.0</ele>
        <time>2014-06-30T12:52:53Z</time>
      </trkpt>
      <trkpt lat="40.518300" lon="-5.191467">
        <ele>2177.0</ele>
        <time>2014-06-30T12:52:54Z</time>
      </trkpt>
      <trkpt lat="40.518367" lon="-5.191350">
        <ele>2178.0</ele>
        <time>2014-06-30T12:52:55Z</time>
      </trkpt>
      <trkpt lat="40.518433" lon="-5.191250">
        <ele>2179.0</ele>
        <time>2014-06-30T12:52:56Z</time>
      </trkpt>
      <trkpt lat="40.518500" lon="-5.191133">
        <ele>2181.0</ele>
        <time>2014-06-30T12:52:57Z</time>
      </trkpt>
      <trkpt lat="40.518567" lon="-5.191033">
        <ele>2182.0</ele>
        <time>2014-06-30T12:52:58Z</time>
      </trkpt>
      <trkpt lat="40.518617" lon="-5.190900">
        <ele>2183.0</ele>
        <time>2014-06-30T12:52:59Z</time>
      </trkpt>
      <trkpt lat="40.518650" lon="-5.190783">
        <ele>2184.0</ele>
        <time>2014-06-30T12:53:00Z</time>
      </trkpt>
      <trkpt lat="40.518650" lon="-5.190650">
        <ele>2185.0</ele>
        <time>2014-06-30T12:53:01Z</time>
      </trkpt>
      <trkpt lat="40.518633" lon="-5.190533">
        <ele>2185.0</ele>
        <time>2014-06-30T12:53:02Z</time>
      </trkpt>
      <trkpt lat="40.518600" lon="-5.190417">
        <ele>2183.0</ele>
        <time>2014-06-30T12:53:03Z</time>
      </trkpt>
      <trkpt lat="40.518533" lon="-5.190333">
        <ele>2183.0</ele>
        <time>2014-06-30T12:53:04Z</time>
      </trkpt>
      <trkpt lat="40.518467" lon="-5.190283">
        <ele>2182.0</ele>
        <time>2014-06-30T12:53:05Z</time>
      </trkpt>
      <trkpt lat="40.518417" lon="-5.190283">
        <ele>2181.0</ele>
        <time>2014-06-30T12:53:06Z</time>
      </trkpt>
      <trkpt lat="40.518367" lon="-5.190333">
        <ele>2181.0</ele>
        <time>2014-06-30T12:53:07Z</time>
      </trkpt>
      <trkpt lat="40.518333" lon="-5.190383">
        <ele>2181.0</ele>
        <time>2014-06-30T12:53:08Z</time>
      </trkpt>
      <trkpt lat="40.518317" lon="-5.190433">
        <ele>2181.0</ele>
        <time>2014-06-30T12:53:09Z</time>
      </trkpt>
      <trkpt lat="40.518300" lon="-5.190483">
        <ele>2181.0</ele>
        <time>2014-06-30T12:53:10Z</time>
      </trkpt>
      <trkpt lat="40.518300" lon="-5.190533">
        <ele>2180.0</ele>
        <time>2014-06-30T12:53:11Z</time>
      </trkpt>
      <trkpt lat="40.518317" lon="-5.190617">
        <ele>2180.0</ele>
        <time>2014-06-30T12:53:12Z</time>
      </trkpt>
      <trkpt lat="40.518333" lon="-5.190700">
        <ele>2179.0</ele>
        <time>2014-06-30T12:53:13Z</time>
      </trkpt>
      <trkpt lat="40.518367" lon="-5.190800">
        <ele>2179.0</ele>
        <time>2014-06-30T12:53:14Z</time>
      </trkpt>
      <trkpt lat="40.518417" lon="-5.190900">
        <ele>2179.0</ele>
        <time>2014-06-30T12:53:15Z</time>
      </trkpt>
      <trkpt lat="40.518467" lon="-5.190967">
        <ele>2184.0</ele>
        <time>2014-06-30T12:53:16Z</time>
      </trkpt>
      <trkpt lat="40.518500" lon="-5.191017">
        <ele>2187.0</ele>
        <time>2014-06-30T12:53:17Z</time>
      </trkpt>
      <trkpt lat="40.518550" lon="-5.191050">
        <ele>2189.0</ele>
        <time>2014-06-30T12:53:18Z</time>
      </trkpt>
      <trkpt lat="40.518617" lon="-5.191083">
        <ele>2191.0</ele>
        <time>2014-06-30T12:53:19Z</time>
      </trkpt>
      <trkpt lat="40.518667" lon="-5.191117">
        <ele>2192.0</ele>
        <time>2014-06-30T12:53:20Z</time>
      </trkpt>
      <trkpt lat="40.518750" lon="-5.191167">
        <ele>2192.0</ele>
        <time>2014-06-30T12:53:21Z</time>
      </trkpt>
      <trkpt lat="40.518800" lon="-5.191200">
        <ele>2193.0</ele>
        <time>2014-06-30T12:53:22Z</time>
      </trkpt>
      <trkpt lat="40.518850" lon="-5.191250">
        <ele>2195.0</ele>
        <time>2014-06-30T12:53:23Z</time>
      </trkpt>
      <trkpt lat="40.518867" lon="-5.191317">
        <ele>2196.0</ele>
        <time>2014-06-30T12:53:24Z</time>
      </trkpt>
      <trkpt lat="40.518850" lon="-5.191417">
        <ele>2195.0</ele>
        <time>2014-06-30T12:53:25Z</time>
      </trkpt>
      <trkpt lat="40.518833" lon="-5.191500">
        <ele>2195.0</ele>
        <time>2014-06-30T12:53:26Z</time>
      </trkpt>
      <trkpt lat="40.518783" lon="-5.191567">
        <ele>2195.0</ele>
        <time>2014-06-30T12:53:27Z</time>
      </trkpt>
      <trkpt lat="40.518717" lon="-5.191583">
        <ele>2196.0</ele>
        <time>2014-06-30T12:53:28Z</time>
      </trkpt>
      <trkpt lat="40.518617" lon="-5.191567">
        <ele>2196.0</ele>
        <time>2014-06-30T12:53:29Z</time>
      </trkpt>
      <trkpt lat="40.518517" lon="-5.191533">
        <ele>2195.0</ele>
        <time>2014-06-30T12:53:30Z</time>
      </trkpt>
      <trkpt lat="40.518417" lon="-5.191467">
        <ele>2194.0</ele>
        <time>2014-06-30T12:53:31Z</time>
      </trkpt>
      <trkpt lat="40.518317" lon="-5.191367">
        <ele>2195.0</ele>
        <time>2014-06-30T12:53:32Z</time>
      </trkpt>
      <trkpt lat="40.518233" lon="-5.191283">
        <ele>2195.0</ele>
        <time>2014-06-30T12:53:33Z</time>
      </trkpt>
      <trkpt lat="40.518150" lon="-5.191183">
        <ele>2196.0</ele>
        <time>2014-06-30T12:53:34Z</time>
      </trkpt>
      <trkpt lat="40.518083" lon="-5.191083">
        <ele>2197.0</ele>
        <time>2014-06-30T12:53:35Z</time>
      </trkpt>
      <trkpt lat="40.518017" lon="-5.190967">
        <ele>2197.0</ele>
        <time>2014-06-30T12:53:36Z</time>
      </trkpt>
      <trkpt lat="40.517967" lon="-5.190850">
        <ele>2197.0</ele>
        <time>2014-06-30T12:53:37Z</time>
      </trkpt>
      <trkpt lat="40.517917" lon="-5.190717">
        <ele>2197.0</ele>
        <time>2014-06-30T12:53:38Z</time>
      </trkpt>
      <trkpt lat="40.517900" lon="-5.190567">
        <ele>2198.0</ele>
        <time>2014-06-30T12:53:39Z</time>
      </trkpt>
      <trkpt lat="40.517900" lon="-5.190433">
        <ele>2199.0</ele>
        <time>2014-06-30T12:53:40Z</time>
      </trkpt>
      <trkpt lat="40.517900" lon="-5.190317">
        <ele>2200.0</ele>
        <time>2014-06-30T12:53:41Z</time>
      </trkpt>
      <trkpt lat="40.517933" lon="-5.190200">
        <ele>2201.0</ele>
        <time>2014-06-30T12:53:42Z</time>
      </trkpt>
      <trkpt lat="40.517967" lon="-5.190100">
        <ele>2202.0</ele>
        <time>2014-06-30T12:53:43Z</time>
      </trkpt>
      <trkpt lat="40.518017" lon="-5.190000">
        <ele>2202.0</ele>
        <time>2014-06-30T12:53:44Z</time>
      </trkpt>
      <trkpt lat="40.518067" lon="-5.189917">
        <ele>2203.0</ele>
        <time>2014-06-30T12:53:45Z</time>
      </trkpt>
      <trkpt lat="40.518150" lon="-5.189850">
        <ele>2203.0</ele>
        <time>2014-06-30T12:53:46Z</time>
      </trkpt>
      <trkpt lat="40.518233" lon="-5.189800">
        <ele>2203.0</ele>
        <time>2014-06-30T12:53:47Z</time>
      </trkpt>
      <trkpt lat="40.518333" lon="-5.189783">
        <ele>2203.0</ele>
        <time>2014-06-30T12:53:48Z</time>
      </trkpt>
      <trkpt lat="40.518433" lon="-5.189800">
        <ele>2203.0</ele>
        <time>2014-06-30T12:53:49Z</time>
      </trkpt>
      <trkpt lat="40.518517" lon="-5.189833">
        <ele>2203.0</ele>
        <time>2014-06-30T12:53:50Z</time>
      </trkpt>
      <trkpt lat="40.518600" lon="-5.189900">
        <ele>2203.0</ele>
        <time>2014-06-30T12:53:51Z</time>
      </trkpt>
      <trkpt lat="40.518650" lon="-5.189967">
        <ele>2203.0</ele>
        <time>2014-06-30T12:53:52Z</time>
      </trkpt>
      <trkpt lat="40.518683" lon="-5.190067">
        <ele>2204.0</ele>
        <time>2014-06-30T12:53:53Z</time>
      </trkpt>
      <trkpt lat="40.518700" lon="-5.190150">
        <ele>2205.0</ele>
        <time>2014-06-30T12:53:54Z</time>
      </trkpt>
      <trkpt lat="40.518717" lon="-5.190250">
        <ele>2207.0</ele>
        <time>2014-06-30T12:53:55Z</time>
      </trkpt>
      <trkpt lat="40.518733" lon="-5.190317">
        <ele>2209.0</ele>
        <time>2014-06-30T12:53:56Z</time>
      </trkpt>
      <trkpt lat="40.518750" lon="-5.190400">
        <ele>2209.0</ele>
        <time>2014-06-30T12:53:57Z</time>
      </trkpt>
      <trkpt lat="40.518767" lon="-5.190467">
        <ele>2209.0</ele>
        <time>2014-06-30T12:53:58Z</time>
      </trkpt>
      <trkpt lat="40.518783" lon="-5.190533">
        <ele>2210.0</ele>
        <time>2014-06-30T12:53:59Z</time>
      </trkpt>
      <trkpt lat="40.518767" lon="-5.190600">
        <ele>2210.0</ele>
        <time>2014-06-30T12:54:00Z</time>
      </trkpt>
      <trkpt lat="40.518750" lon="-5.190650">
        <ele>2209.0</ele>
        <time>2014-06-30T12:54:01Z</time>
      </trkpt>
      <trkpt lat="40.518700" lon="-5.190717">
        <ele>2209.0</ele>
        <time>2014-06-30T12:54:02Z</time>
      </trkpt>
      <trkpt lat="40.518633" lon="-5.190783">
        <ele>2209.0</ele>
        <time>2014-06-30T12:54:03Z</time>
      </trkpt>
      <trkpt lat="40.518550" lon="-5.190800">
        <ele>2209.0</ele>
        <time>2014-06-30T12:54:04Z</time>
      </trkpt>
      <trkpt lat="40.518450" lon="-5.190800">
        <ele>2209.0</ele>
        <time>2014-06-30T12:54:05Z</time>
      </trkpt>
      <trkpt lat="40.518350" lon="-5.190750">
        <ele>2207.0</ele>
        <time>2014-06-30T12:54:06Z</time>
      </trkpt>
      <trkpt lat="40.518250" lon="-5.190683">
        <ele>2206.0</ele>
        <time>2014-06-30T12:54:07Z</time>
      </trkpt>
      <trkpt lat="40.518167" lon="-5.190583">
        <ele>2205.0</ele>
        <time>2014-06-30T12:54:08Z</time>
      </trkpt>
      <trkpt lat="40.518083" lon="-5.190467">
        <ele>2204.0</ele>
        <time>2014-06-30T12:54:09Z</time>
      </trkpt>
      <trkpt lat="40.518017" lon="-5.190367">
        <ele>2204.0</ele>
        <time>2014-06-30T12:54:10Z</time>
      </trkpt>
      <trkpt lat="40.517967" lon="-5.190250">
        <ele>2203.0</ele>
        <time>2014-06-30T12:54:11Z</time>
      </trkpt>
      <trkpt lat="40.517933" lon="-5.190117">
        <ele>2202.0</ele>
        <time>2014-06-30T12:54:12Z</time>
      </trkpt>
      <trkpt lat="40.517917" lon="-5.189967">
        <ele>2200.0</ele>
        <time>2014-06-30T12:54:13Z</time>
      </trkpt>
      <trkpt lat="40.517900" lon="-5.189800">
        <ele>2198.0</ele>
        <time>2014-06-30T12:54:14Z</time>
      </trkpt>
      <trkpt lat="40.517900" lon="-5.189633">
        <ele>2197.0</ele>
        <time>2014-06-30T12:54:15Z</time>
      </trkpt>
      <trkpt lat="40.517900" lon="-5.189500">
        <ele>2198.0</ele>
        <time>2014-06-30T12:54:16Z</time>
      </trkpt>
      <trkpt lat="40.517900" lon="-5.189383">
        <ele>2198.0</ele>
        <time>2014-06-30T12:54:17Z</time>
      </trkpt>
      <trkpt lat="40.517917" lon="-5.189283">
        <ele>2198.0</ele>
        <time>2014-06-30T12:54:18Z</time>
      </trkpt>
      <trkpt lat="40.517933" lon="-5.189167">
        <ele>2197.0</ele>
        <time>2014-06-30T12:54:19Z</time>
      </trkpt>
      <trkpt lat="40.517950" lon="-5.189050">
        <ele>2196.0</ele>
        <time>2014-06-30T12:54:20Z</time>
      </trkpt>
      <trkpt lat="40.518000" lon="-5.188933">
        <ele>2195.0</ele>
        <time>2014-06-30T12:54:21Z</time>
      </trkpt>
      <trkpt lat="40.518033" lon="-5.188800">
        <ele>2193.0</ele>
        <time>2014-06-30T12:54:22Z</time>
      </trkpt>
      <trkpt lat="40.518083" lon="-5.188683">
        <ele>2192.0</ele>
        <time>2014-06-30T12:54:23Z</time>
      </trkpt>
      <trkpt lat="40.518133" lon="-5.188583">
        <ele>2192.0</ele>
        <time>2014-06-30T12:54:24Z</time>
      </trkpt>
      <trkpt lat="40.518183" lon="-5.188483">
        <ele>2191.0</ele>
        <time>2014-06-30T12:54:25Z</time>
      </trkpt>
      <trkpt lat="40.518250" lon="-5.188417">
        <ele>2190.0</ele>
        <time>2014-06-30T12:54:26Z</time>
      </trkpt>
      <trkpt lat="40.518317" lon="-5.188333">
        <ele>2188.0</ele>
        <time>2014-06-30T12:54:27Z</time>
      </trkpt>
      <trkpt lat="40.518367" lon="-5.188233">
        <ele>2186.0</ele>
        <time>2014-06-30T12:54:28Z</time>
      </trkpt>
      <trkpt lat="40.518433" lon="-5.188150">
        <ele>2184.0</ele>
        <time>2014-06-30T12:54:29Z</time>
      </trkpt>
      <trkpt lat="40.518467" lon="-5.188067">
        <ele>2182.0</ele>
        <time>2014-06-30T12:54:30Z</time>
      </trkpt>
      <trkpt lat="40.518500" lon="-5.187983">
        <ele>2181.0</ele>
        <time>2014-06-30T12:54:31Z</time>
      </trkpt>
      <trkpt lat="40.518550" lon="-5.187917">
        <ele>2179.0</ele>
        <time>2014-06-30T12:54:32Z</time>
      </trkpt>
      <trkpt lat="40.518617" lon="-5.187867">
        <ele>2176.0</ele>
        <time>2014-06-30T12:54:33Z</time>
      </trkpt>
      <trkpt lat="40.518700" lon="-5.187833">
        <ele>2174.0</ele>
        <time>2014-06-30T12:54:34Z</time>
      </trkpt>
      <trkpt lat="40.518783" lon="-5.187817">
        <ele>2171.0</ele>
        <time>2014-06-30T12:54:35Z</time>
      </trkpt>
      <trkpt lat="40.518883" lon="-5.187817">
        <ele>2168.0</ele>
        <time>2014-06-30T12:54:36Z</time>
      </trkpt>
      <trkpt lat="40.518983" lon="-5.187833">
        <ele>2165.0</ele>
        <time>2014-06-30T12:54:37Z</time>
      </trkpt>
      <trkpt lat="40.519083" lon="-5.187867">
        <ele>2165.0</ele>
        <time>2014-06-30T12:54:38Z</time>
      </trkpt>
      <trkpt lat="40.519150" lon="-5.187917">
        <ele>2166.0</ele>
        <time>2014-06-30T12:54:39Z</time>
      </trkpt>
      <trkpt lat="40.519200" lon="-5.187967">
        <ele>2166.0</ele>
        <time>2014-06-30T12:54:40Z</time>
      </trkpt>
      <trkpt lat="40.519250" lon="-5.188017">
        <ele>2165.0</ele>
        <time>2014-06-30T12:54:41Z</time>
      </trkpt>
      <trkpt lat="40.519317" lon="-5.188083">
        <ele>2164.0</ele>
        <time>2014-06-30T12:54:42Z</time>
      </trkpt>
      <trkpt lat="40.519400" lon="-5.188133">
        <ele>2162.0</ele>
        <time>2014-06-30T12:54:43Z</time>
      </trkpt>
      <trkpt lat="40.519467" lon="-5.188183">
        <ele>2161.0</ele>
        <time>2014-06-30T12:54:44Z</time>
      </trkpt>
      <trkpt lat="40.519550" lon="-5.188217">
        <ele>2160.0</ele>
        <time>2014-06-30T12:54:45Z</time>
      </trkpt>
      <trkpt lat="40.519617" lon="-5.188267">
        <ele>2159.0</ele>
        <time>2014-06-30T12:54:46Z</time>
      </trkpt>
      <trkpt lat="40.519667" lon="-5.188300">
        <ele>2159.0</ele>
        <time>2014-06-30T12:54:47Z</time>
      </trkpt>
      <trkpt lat="40.519717" lon="-5.188367">
        <ele>2158.0</ele>
        <time>2014-06-30T12:54:48Z</time>
      </trkpt>
      <trkpt lat="40.519767" lon="-5.188450">
        <ele>2154.0</ele>
        <time>2014-06-30T12:54:49Z</time>
      </trkpt>
      <trkpt lat="40.519800" lon="-5.188550">
        <ele>2150.0</ele>
        <time>2014-06-30T12:54:50Z</time>
      </trkpt>
      <trkpt lat="40.519833" lon="-5.188650">
        <ele>2147.0</ele>
        <time>2014-06-30T12:54:51Z</time>
      </trkpt>
      <trkpt lat="40.519867" lon="-5.188767">
        <ele>2145.0</ele>
        <time>2014-06-30T12:54:52Z</time>
      </trkpt>
      <trkpt lat="40.519883" lon="-5.188883">
        <ele>2144.0</ele>
        <time>2014-06-30T12:54:53Z</time>
      </trkpt>
      <trkpt lat="40.519917" lon="-5.189000">
        <ele>2144.0</ele>
        <time>2014-06-30T12:54:54Z</time>
      </trkpt>
      <trkpt lat="40.519950" lon="-5.189100">
        <ele>2145.0</ele>
        <time>2014-06-30T12:54:55Z</time>
      </trkpt>
      <trkpt lat="40.519983" lon="-5.189183">
        <ele>2146.0</ele>
        <time>2014-06-30T12:54:56Z</time>
      </trkpt>
      <trkpt lat="40.520033" lon="-5.189233">
        <ele>2147.0</ele>
        <time>2014-06-30T12:54:57Z</time>
      </trkpt>
      <trkpt lat="40.520083" lon="-5.189283">
        <ele>2148.0</ele>
        <time>2014-06-30T12:54:58Z</time>
      </trkpt>
      <trkpt lat="40.520133" lon="-5.189317">
        <ele>2149.0</ele>
        <time>2014-06-30T12:54:59Z</time>
      </trkpt>
      <trkpt lat="40.520183" lon="-5.189367">
        <ele>2148.0</ele>
        <time>2014-06-30T12:55:00Z</time>
      </trkpt>
      <trkpt lat="40.520233" lon="-5.189417">
        <ele>2148.0</ele>
        <time>2014-06-30T12:55:01Z</time>
      </trkpt>
      <trkpt lat="40.520283" lon="-5.189467">
        <ele>2147.0</ele>
        <time>2014-06-30T12:55:02Z</time>
      </trkpt>
      <trkpt lat="40.520350" lon="-5.189517">
        <ele>2147.0</ele>
        <time>2014-06-30T12:55:03Z</time>
      </trkpt>
      <trkpt lat="40.520400" lon="-5.189567">
        <ele>2147.0</ele>
        <time>2014-06-30T12:55:04Z</time>
      </trkpt>
      <trkpt lat="40.520450" lon="-5.189600">
        <ele>2147.0</ele>
        <time>2014-06-30T12:55:05Z</time>
      </trkpt>
      <trkpt lat="40.520500" lon="-5.189650">
        <ele>2146.0</ele>
        <time>2014-06-30T12:55:06Z</time>
      </trkpt>
      <trkpt lat="40.520533" lon="-5.189700">
        <ele>2144.0</ele>
        <time>2014-06-30T12:55:07Z</time>
      </trkpt>
      <trkpt lat="40.520583" lon="-5.189750">
        <ele>2143.0</ele>
        <time>2014-06-30T12:55:08Z</time>
      </trkpt>
      <trkpt lat="40.520650" lon="-5.189800">
        <ele>2141.0</ele>
        <time>2014-06-30T12:55:09Z</time>
      </trkpt>
      <trkpt lat="40.520700" lon="-5.189833">
        <ele>2140.0</ele>
        <time>2014-06-30T12:55:10Z</time>
      </trkpt>
      <trkpt lat="40.520767" lon="-5.189867">
        <ele>2138.0</ele>
        <time>2014-06-30T12:55:11Z</time>
      </trkpt>
      <trkpt lat="40.520817" lon="-5.189917">
        <ele>2135.0</ele>
        <time>2014-06-30T12:55:12Z</time>
      </trkpt>
      <trkpt lat="40.520883" lon="-5.189950">
        <ele>2133.0</ele>
        <time>2014-06-30T12:55:13Z</time>
      </trkpt>
      <trkpt lat="40.520933" lon="-5.189983">
        <ele>2131.0</ele>
        <time>2014-06-30T12:55:14Z</time>
      </trkpt>
      <trkpt lat="40.520983" lon="-5.190017">
        <ele>2129.0</ele>
        <time>2014-06-30T12:55:15Z</time>
      </trkpt>
      <trkpt lat="40.521033" lon="-5.190050">
        <ele>2125.0</ele>
        <time>2014-06-30T12:55:16Z</time>
      </trkpt>
      <trkpt lat="40.521083" lon="-5.190117">
        <ele>2122.0</ele>
        <time>2014-06-30T12:55:17Z</time>
      </trkpt>
      <trkpt lat="40.521100" lon="-5.190183">
        <ele>2118.0</ele>
        <time>2014-06-30T12:55:18Z</time>
      </trkpt>
      <trkpt lat="40.521100" lon="-5.190267">
        <ele>2115.0</ele>
        <time>2014-06-30T12:55:19Z</time>
      </trkpt>
      <trkpt lat="40.521067" lon="-5.190350">
        <ele>2111.0</ele>
        <time>2014-06-30T12:55:20Z</time>
      </trkpt>
      <trkpt lat="40.521017" lon="-5.190417">
        <ele>2108.0</ele>
        <time>2014-06-30T12:55:21Z</time>
      </trkpt>
      <trkpt lat="40.520933" lon="-5.190433">
        <ele>2104.0</ele>
        <time>2014-06-30T12:55:22Z</time>
      </trkpt>
      <trkpt lat="40.520833" lon="-5.190400">
        <ele>2100.0</ele>
        <time>2014-06-30T12:55:23Z</time>
      </trkpt>
      <trkpt lat="40.520750" lon="-5.190333">
        <ele>2096.0</ele>
        <time>2014-06-30T12:55:24Z</time>
      </trkpt>
      <trkpt lat="40.520683" lon="-5.190217">
        <ele>2092.0</ele>
        <time>2014-06-30T12:55:25Z</time>
      </trkpt>
      <trkpt lat="40.520633" lon="-5.190083">
        <ele>2088.0</ele>
        <time>2014-06-30T12:55:26Z</time>
      </trkpt>
      <trkpt lat="40.520600" lon="-5.189933">
        <ele>2084.0</ele>
        <time>2014-06-30T12:55:27Z</time>
      </trkpt>
      <trkpt lat="40.520600" lon="-5.189783">
        <ele>2080.0</ele>
        <time>2014-06-30T12:55:28Z</time>
      </trkpt>
      <trkpt lat="40.520600" lon="-5.189633">
        <ele>2077.0</ele>
        <time>2014-06-30T12:55:29Z</time>
      </trkpt>
      <trkpt lat="40.520600" lon="-5.189500">
        <ele>2073.0</ele>
        <time>2014-06-30T12:55:30Z</time>
      </trkpt>
      <trkpt lat="40.520617" lon="-5.189350">
        <ele>2069.0</ele>
        <time>2014-06-30T12:55:31Z</time>
      </trkpt>
      <trkpt lat="40.520633" lon="-5.189200">
        <ele>2066.0</ele>
        <time>2014-06-30T12:55:32Z</time>
      </trkpt>
      <trkpt lat="40.520633" lon="-5.189033">
        <ele>2062.0</ele>
        <time>2014-06-30T12:55:33Z</time>
      </trkpt>
      <trkpt lat="40.520667" lon="-5.188883">
        <ele>2060.0</ele>
        <time>2014-06-30T12:55:34Z</time>
      </trkpt>
      <trkpt lat="40.520683" lon="-5.188733">
        <ele>2058.0</ele>
        <time>2014-06-30T12:55:35Z</time>
      </trkpt>
      <trkpt lat="40.520733" lon="-5.188583">
        <ele>2057.0</ele>
        <time>2014-06-30T12:55:36Z</time>
      </trkpt>
      <trkpt lat="40.520767" lon="-5.188433">
        <ele>2056.0</ele>
        <time>2014-06-30T12:55:37Z</time>
      </trkpt>
      <trkpt lat="40.520817" lon="-5.188300">
        <ele>2055.0</ele>
        <time>2014-06-30T12:55:38Z</time>
      </trkpt>
      <trkpt lat="40.520867" lon="-5.188167">
        <ele>2053.0</ele>
        <time>2014-06-30T12:55:39Z</time>
      </trkpt>
      <trkpt lat="40.520917" lon="-5.188017">
        <ele>2052.0</ele>
        <time>2014-06-30T12:55:40Z</time>
      </trkpt>
      <trkpt lat="40.520967" lon="-5.187883">
        <ele>2050.0</ele>
        <time>2014-06-30T12:55:41Z</time>
      </trkpt>
      <trkpt lat="40.521017" lon="-5.187750">
        <ele>2048.0</ele>
        <time>2014-06-30T12:55:42Z</time>
      </trkpt>
      <trkpt lat="40.521067" lon="-5.187617">
        <ele>2047.0</ele>
        <time>2014-06-30T12:55:43Z</time>
      </trkpt>
      <trkpt lat="40.521133" lon="-5.187483">
        <ele>2046.0</ele>
        <time>2014-06-30T12:55:44Z</time>
      </trkpt>
      <trkpt lat="40.521200" lon="-5.187333">
        <ele>2046.0</ele>
        <time>2014-06-30T12:55:45Z</time>
      </trkpt>
      <trkpt lat="40.521267" lon="-5.187183">
        <ele>2046.0</ele>
        <time>2014-06-30T12:55:46Z</time>
      </trkpt>
      <trkpt lat="40.521333" lon="-5.187050">
        <ele>2047.0</ele>
        <time>2014-06-30T12:55:47Z</time>
      </trkpt>
      <trkpt lat="40.521383" lon="-5.186917">
        <ele>2047.0</ele>
        <time>2014-06-30T12:55:48Z</time>
      </trkpt>
      <trkpt lat="40.521433" lon="-5.186767">
        <ele>2047.0</ele>
        <time>2014-06-30T12:55:49Z</time>
      </trkpt>
      <trkpt lat="40.521467" lon="-5.186617">
        <ele>2047.0</ele>
        <time>2014-06-30T12:55:50Z</time>
      </trkpt>
      <trkpt lat="40.521517" lon="-5.186467">
        <ele>2046.0</ele>
        <time>2014-06-30T12:55:51Z</time>
      </trkpt>
      <trkpt lat="40.521550" lon="-5.186317">
        <ele>2047.0</ele>
        <time>2014-06-30T12:55:52Z</time>
      </trkpt>
      <trkpt lat="40.521600" lon="-5.186150">
        <ele>2046.0</ele>
        <time>2014-06-30T12:55:53Z</time>
      </trkpt>
      <trkpt lat="40.521650" lon="-5.185983">
        <ele>2046.0</ele>
        <time>2014-06-30T12:55:54Z</time>
      </trkpt>
      <trkpt lat="40.521700" lon="-5.185817">
        <ele>2047.0</ele>
        <time>2014-06-30T12:55:55Z</time>
      </trkpt>
      <trkpt lat="40.521717" lon="-5.185650">
        <ele>2048.0</ele>
        <time>2014-06-30T12:55:56Z</time>
      </trkpt>
      <trkpt lat="40.521733" lon="-5.185483">
        <ele>2048.0</ele>
        <time>2014-06-30T12:55:57Z</time>
      </trkpt>
      <trkpt lat="40.521750" lon="-5.185333">
        <ele>2048.0</ele>
        <time>2014-06-30T12:55:58Z</time>
      </trkpt>
      <trkpt lat="40.521783" lon="-5.185167">
        <ele>2049.0</ele>
        <time>2014-06-30T12:55:59Z</time>
      </trkpt>
      <trkpt lat="40.521800" lon="-5.185000">
        <ele>2050.0</ele>
        <time>2014-06-30T12:56:00Z</time>
      </trkpt>
      <trkpt lat="40.521817" lon="-5.184817">
        <ele>2052.0</ele>
        <time>2014-06-30T12:56:01Z</time>
      </trkpt>
      <trkpt lat="40.521833" lon="-5.184650">
        <ele>2055.0</ele>
        <time>2014-06-30T12:56:02Z</time>
      </trkpt>
      <trkpt lat="40.521833" lon="-5.184500">
        <ele>2058.0</ele>
        <time>2014-06-30T12:56:03Z</time>
      </trkpt>
      <trkpt lat="40.521850" lon="-5.184350">
        <ele>2061.0</ele>
        <time>2014-06-30T12:56:04Z</time>
      </trkpt>
      <trkpt lat="40.521883" lon="-5.184200">
        <ele>2064.0</ele>
        <time>2014-06-30T12:56:05Z</time>
      </trkpt>
      <trkpt lat="40.521917" lon="-5.184050">
        <ele>2066.0</ele>
        <time>2014-06-30T12:56:06Z</time>
      </trkpt>
      <trkpt lat="40.521950" lon="-5.183883">
        <ele>2068.0</ele>
        <time>2014-06-30T12:56:07Z</time>
      </trkpt>
      <trkpt lat="40.521983" lon="-5.183733">
        <ele>2070.0</ele>
        <time>2014-06-30T12:56:08Z</time>
      </trkpt>
      <trkpt lat="40.521983" lon="-5.183567">
        <ele>2071.0</ele>
        <time>2014-06-30T12:56:09Z</time>
      </trkpt>
      <trkpt lat="40.521967" lon="-5.183417">
        <ele>2072.0</ele>
        <time>2014-06-30T12:56:10Z</time>
      </trkpt>
      <trkpt lat="40.521917" lon="-5.183300">
        <ele>2073.0</ele>
        <time>2014-06-30T12:56:11Z</time>
      </trkpt>
      <trkpt lat="40.521850" lon="-5.183183">
        <ele>2074.0</ele>
        <time>2014-06-30T12:56:12Z</time>
      </trkpt>
      <trkpt lat="40.521783" lon="-5.183100">
        <ele>2075.0</ele>
        <time>2014-06-30T12:56:13Z</time>
      </trkpt>
      <trkpt lat="40.521717" lon="-5.183000">
        <ele>2079.0</ele>
        <time>2014-06-30T12:56:14Z</time>
      </trkpt>
      <trkpt lat="40.521667" lon="-5.182917">
        <ele>2081.0</ele>
        <time>2014-06-30T12:56:15Z</time>
      </trkpt>
      <trkpt lat="40.521617" lon="-5.182833">
        <ele>2083.0</ele>
        <time>2014-06-30T12:56:16Z</time>
      </trkpt>
      <trkpt lat="40.521550" lon="-5.182783">
        <ele>2084.0</ele>
        <time>2014-06-30T12:56:17Z</time>
      </trkpt>
      <trkpt lat="40.521500" lon="-5.182750">
        <ele>2086.0</ele>
        <time>2014-06-30T12:56:18Z</time>
      </trkpt>
      <trkpt lat="40.521433" lon="-5.182750">
        <ele>2088.0</ele>
        <time>2014-06-30T12:56:19Z</time>
      </trkpt>
      <trkpt lat="40.521383" lon="-5.182750">
        <ele>2089.0</ele>
        <time>2014-06-30T12:56:20Z</time>
      </trkpt>
      <trkpt lat="40.521350" lon="-5.182783">
        <ele>2090.0</ele>
        <time>2014-06-30T12:56:21Z</time>
      </trkpt>
      <trkpt lat="40.521333" lon="-5.182800">
        <ele>2091.0</ele>
        <time>2014-06-30T12:56:22Z</time>
      </trkpt>
      <trkpt lat="40.521317" lon="-5.182850">
        <ele>2091.0</ele>
        <time>2014-06-30T12:56:23Z</time>
      </trkpt>
      <trkpt lat="40.521333" lon="-5.182917">
        <ele>2091.0</ele>
        <time>2014-06-30T12:56:24Z</time>
      </trkpt>
      <trkpt lat="40.521333" lon="-5.182983">
        <ele>2092.0</ele>
        <time>2014-06-30T12:56:25Z</time>
      </trkpt>
      <trkpt lat="40.521367" lon="-5.183067">
        <ele>2093.0</ele>
        <time>2014-06-30T12:56:26Z</time>
      </trkpt>
      <trkpt lat="40.521383" lon="-5.183133">
        <ele>2094.0</ele>
        <time>2014-06-30T12:56:27Z</time>
      </trkpt>
      <trkpt lat="40.521417" lon="-5.183183">
        <ele>2096.0</ele>
        <time>2014-06-30T12:56:28Z</time>
      </trkpt>
      <trkpt lat="40.521467" lon="-5.183217">
        <ele>2098.0</ele>
        <time>2014-06-30T12:56:29Z</time>
      </trkpt>
      <trkpt lat="40.521517" lon="-5.183217">
        <ele>2100.0</ele>
        <time>2014-06-30T12:56:30Z</time>
      </trkpt>
      <trkpt lat="40.521567" lon="-5.183217">
        <ele>2101.0</ele>
        <time>2014-06-30T12:56:31Z</time>
      </trkpt>
      <trkpt lat="40.521650" lon="-5.183167">
        <ele>2102.0</ele>
        <time>2014-06-30T12:56:32Z</time>
      </trkpt>
      <trkpt lat="40.521750" lon="-5.183117">
        <ele>2103.0</ele>
        <time>2014-06-30T12:56:33Z</time>
      </trkpt>
      <trkpt lat="40.521850" lon="-5.183033">
        <ele>2104.0</ele>
        <time>2014-06-30T12:56:34Z</time>
      </trkpt>
      <trkpt lat="40.521933" lon="-5.182933">
        <ele>2105.0</ele>
        <time>2014-06-30T12:56:35Z</time>
      </trkpt>
      <trkpt lat="40.522000" lon="-5.182833">
        <ele>2107.0</ele>
        <time>2014-06-30T12:56:36Z</time>
      </trkpt>
      <trkpt lat="40.522050" lon="-5.182700">
        <ele>2110.0</ele>
        <time>2014-06-30T12:56:37Z</time>
      </trkpt>
      <trkpt lat="40.522100" lon="-5.182567">
        <ele>2111.0</ele>
        <time>2014-06-30T12:56:38Z</time>
      </trkpt>
      <trkpt lat="40.522117" lon="-5.182417">
        <ele>2112.0</ele>
        <time>2014-06-30T12:56:39Z</time>
      </trkpt>
      <trkpt lat="40.522133" lon="-5.182267">
        <ele>2114.0</ele>
        <time>2014-06-30T12:56:40Z</time>
      </trkpt>
      <trkpt lat="40.522133" lon="-5.182117">
        <ele>2115.0</ele>
        <time>2014-06-30T12:56:41Z</time>
      </trkpt>
      <trkpt lat="40.522117" lon="-5.181983">
        <ele>2117.0</ele>
        <time>2014-06-30T12:56:42Z</time>
      </trkpt>
      <trkpt lat="40.522083" lon="-5.181850">
        <ele>2118.0</ele>
        <time>2014-06-30T12:56:43Z</time>
      </trkpt>
      <trkpt lat="40.522033" lon="-5.181767">
        <ele>2120.0</ele>
        <time>2014-06-30T12:56:44Z</time>
      </trkpt>
      <trkpt lat="40.521967" lon="-5.181700">
        <ele>2121.0</ele>
        <time>2014-06-30T12:56:45Z</time>
      </trkpt>
      <trkpt lat="40.521917" lon="-5.181650">
        <ele>2122.0</ele>
        <time>2014-06-30T12:56:46Z</time>
      </trkpt>
      <trkpt lat="40.521850" lon="-5.181633">
        <ele>2122.0</ele>
        <time>2014-06-30T12:56:47Z</time>
      </trkpt>
      <trkpt lat="40.521783" lon="-5.181650">
        <ele>2123.0</ele>
        <time>2014-06-30T12:56:48Z</time>
      </trkpt>
      <trkpt lat="40.521750" lon="-5.181700">
        <ele>2124.0</ele>
        <time>2014-06-30T12:56:49Z</time>
      </trkpt>
      <trkpt lat="40.521717" lon="-5.181750">
        <ele>2124.0</ele>
        <time>2014-06-30T12:56:50Z</time>
      </trkpt>
      <trkpt lat="40.521700" lon="-5.181817">
        <ele>2124.0</ele>
        <time>2014-06-30T12:56:51Z</time>
      </trkpt>
      <trkpt lat="40.521700" lon="-5.181883">
        <ele>2125.0</ele>
        <time>2014-06-30T12:56:52Z</time>
      </trkpt>
      <trkpt lat="40.521700" lon="-5.181933">
        <ele>2126.0</ele>
        <time>2014-06-30T12:56:53Z</time>
      </trkpt>
      <trkpt lat="40.521733" lon="-5.181983">
        <ele>2127.0</ele>
        <time>2014-06-30T12:56:54Z</time>
      </trkpt>
      <trkpt lat="40.521783" lon="-5.182017">
        <ele>2128.0</ele>
        <time>2014-06-30T12:56:55Z</time>
      </trkpt>
      <trkpt lat="40.521850" lon="-5.182050">
        <ele>2129.0</ele>
        <time>2014-06-30T12:56:56Z</time>
      </trkpt>
      <trkpt lat="40.521933" lon="-5.182050">
        <ele>2130.0</ele>
        <time>2014-06-30T12:56:57Z</time>
      </trkpt>
      <trkpt lat="40.522033" lon="-5.182050">
        <ele>2130.0</ele>
        <time>2014-06-30T12:56:58Z</time>
      </trkpt>
      <trkpt lat="40.522117" lon="-5.182017">
        <ele>2132.0</ele>
        <time>2014-06-30T12:56:59Z</time>
      </trkpt>
      <trkpt lat="40.522217" lon="-5.181967">
        <ele>2134.0</ele>
        <time>2014-06-30T12:57:00Z</time>
      </trkpt>
      <trkpt lat="40.522317" lon="-5.181900">
        <ele>2136.0</ele>
        <time>2014-06-30T12:57:01Z</time>
      </trkpt>
      <trkpt lat="40.522400" lon="-5.181833">
        <ele>2139.0</ele>
        <time>2014-06-30T12:57:02Z</time>
      </trkpt>
      <trkpt lat="40.522483" lon="-5.181750">
        <ele>2141.0</ele>
        <time>2014-06-30T12:57:03Z</time>
      </trkpt>
      <trkpt lat="40.522567" lon="-5.181667">
        <ele>2142.0</ele>
        <time>2014-06-30T12:57:04Z</time>
      </trkpt>
      <trkpt lat="40.522650" lon="-5.181550">
        <ele>2143.0</ele>
        <time>2014-06-30T12:57:05Z</time>
      </trkpt>
      <trkpt lat="40.522700" lon="-5.181417">
        <ele>2145.0</ele>
        <time>2014-06-30T12:57:06Z</time>
      </trkpt>
      <trkpt lat="40.522733" lon="-5.181267">
        <ele>2146.0</ele>
        <time>2014-06-30T12:57:07Z</time>
      </trkpt>
      <trkpt lat="40.522767" lon="-5.181117">
        <ele>2147.0</ele>
        <time>2014-06-30T12:57:08Z</time>
      </trkpt>
      <trkpt lat="40.522767" lon="-5.180967">
        <ele>2149.0</ele>
        <time>2014-06-30T12:57:09Z</time>
      </trkpt>
      <trkpt lat="40.522767" lon="-5.180817">
        <ele>2150.0</ele>
        <time>2014-06-30T12:57:10Z</time>
      </trkpt>
      <trkpt lat="40.522733" lon="-5.180683">
        <ele>2151.0</ele>
        <time>2014-06-30T12:57:11Z</time>
      </trkpt>
      <trkpt lat="40.522683" lon="-5.180567">
        <ele>2153.0</ele>
        <time>2014-06-30T12:57:12Z</time>
      </trkpt>
      <trkpt lat="40.522633" lon="-5.180483">
        <ele>2154.0</ele>
        <time>2014-06-30T12:57:13Z</time>
      </trkpt>
      <trkpt lat="40.522567" lon="-5.180467">
        <ele>2155.0</ele>
        <time>2014-06-30T12:57:14Z</time>
      </trkpt>
      <trkpt lat="40.522500" lon="-5.180467">
        <ele>2152.0</ele>
        <time>2014-06-30T12:57:15Z</time>
      </trkpt>
      <trkpt lat="40.522450" lon="-5.180483">
        <ele>2153.0</ele>
        <time>2014-06-30T12:57:16Z</time>
      </trkpt>
      <trkpt lat="40.522417" lon="-5.180533">
        <ele>2154.0</ele>
        <time>2014-06-30T12:57:17Z</time>
      </trkpt>
      <trkpt lat="40.522417" lon="-5.180600">
        <ele>2154.0</ele>
        <time>2014-06-30T12:57:18Z</time>
      </trkpt>
      <trkpt lat="40.522417" lon="-5.180683">
        <ele>2154.0</ele>
        <time>2014-06-30T12:57:19Z</time>
      </trkpt>
      <trkpt lat="40.522417" lon="-5.180750">
        <ele>2155.0</ele>
        <time>2014-06-30T12:57:20Z</time>
      </trkpt>
      <trkpt lat="40.522433" lon="-5.180817">
        <ele>2155.0</ele>
        <time>2014-06-30T12:57:21Z</time>
      </trkpt>
      <trkpt lat="40.522467" lon="-5.180867">
        <ele>2156.0</ele>
        <time>2014-06-30T12:57:22Z</time>
      </trkpt>
      <trkpt lat="40.522517" lon="-5.180917">
        <ele>2157.0</ele>
        <time>2014-06-30T12:57:23Z</time>
      </trkpt>
      <trkpt lat="40.522583" lon="-5.180967">
        <ele>2158.0</ele>
        <time>2014-06-30T12:57:24Z</time>
      </trkpt>
      <trkpt lat="40.522650" lon="-5.181000">
        <ele>2161.0</ele>
        <time>2014-06-30T12:57:25Z</time>
      </trkpt>
      <trkpt lat="40.522717" lon="-5.181017">
        <ele>2163.0</ele>
        <time>2014-06-30T12:57:26Z</time>
      </trkpt>
      <trkpt lat="40.522783" lon="-5.181033">
        <ele>2165.0</ele>
        <time>2014-06-30T12:57:27Z</time>
      </trkpt>
      <trkpt lat="40.522850" lon="-5.181033">
        <ele>2166.0</ele>
        <time>2014-06-30T12:57:28Z</time>
      </trkpt>
      <trkpt lat="40.522933" lon="-5.181017">
        <ele>2168.0</ele>
        <time>2014-06-30T12:57:29Z</time>
      </trkpt>
      <trkpt lat="40.523017" lon="-5.181017">
        <ele>2169.0</ele>
        <time>2014-06-30T12:57:30Z</time>
      </trkpt>
      <trkpt lat="40.523100" lon="-5.181000">
        <ele>2171.0</ele>
        <time>2014-06-30T12:57:31Z</time>
      </trkpt>
      <trkpt lat="40.523200" lon="-5.180967">
        <ele>2172.0</ele>
        <time>2014-06-30T12:57:32Z</time>
      </trkpt>
      <trkpt lat="40.523300" lon="-5.180900">
        <ele>2174.0</ele>
        <time>2014-06-30T12:57:33Z</time>
      </trkpt>
      <trkpt lat="40.523383" lon="-5.180800">
        <ele>2176.0</ele>
        <time>2014-06-30T12:57:34Z</time>
      </trkpt>
      <trkpt lat="40.523467" lon="-5.180683">
        <ele>2177.0</ele>
        <time>2014-06-30T12:57:35Z</time>
      </trkpt>
      <trkpt lat="40.523550" lon="-5.180550">
        <ele>2178.0</ele>
        <time>2014-06-30T12:57:36Z</time>
      </trkpt>
      <trkpt lat="40.523600" lon="-5.180417">
        <ele>2179.0</ele>
        <time>2014-06-30T12:57:37Z</time>
      </trkpt>
      <trkpt lat="40.523650" lon="-5.180283">
        <ele>2181.0</ele>
        <time>2014-06-30T12:57:38Z</time>
      </trkpt>
      <trkpt lat="40.523683" lon="-5.180133">
        <ele>2182.0</ele>
        <time>2014-06-30T12:57:39Z</time>
      </trkpt>
      <trkpt lat="40.523667" lon="-5.180000">
        <ele>2184.0</ele>
        <time>2014-06-30T12:57:40Z</time>
      </trkpt>
      <trkpt lat="40.523650" lon="-5.179867">
        <ele>2185.0</ele>
        <time>2014-06-30T12:57:41Z</time>
      </trkpt>
      <trkpt lat="40.523617" lon="-5.179767">
        <ele>2186.0</ele>
        <time>2014-06-30T12:57:42Z</time>
      </trkpt>
      <trkpt lat="40.523567" lon="-5.179650">
        <ele>2187.0</ele>
        <time>2014-06-30T12:57:43Z</time>
      </trkpt>
      <trkpt lat="40.523517" lon="-5.179550">
        <ele>2188.0</ele>
        <time>2014-06-30T12:57:44Z</time>
      </trkpt>
      <trkpt lat="40.523450" lon="-5.179467">
        <ele>2190.0</ele>
        <time>2014-06-30T12:57:45Z</time>
      </trkpt>
      <trkpt lat="40.523383" lon="-5.179400">
        <ele>2191.0</ele>
        <time>2014-06-30T12:57:46Z</time>
      </trkpt>
      <trkpt lat="40.523300" lon="-5.179367">
        <ele>2192.0</ele>
        <time>2014-06-30T12:57:47Z</time>
      </trkpt>
      <trkpt lat="40.523250" lon="-5.179350">
        <ele>2193.0</ele>
        <time>2014-06-30T12:57:48Z</time>
      </trkpt>
      <trkpt lat="40.523183" lon="-5.179350">
        <ele>2194.0</ele>
        <time>2014-06-30T12:57:49Z</time>
      </trkpt>
      <trkpt lat="40.523133" lon="-5.179383">
        <ele>2195.0</ele>
        <time>2014-06-30T12:57:50Z</time>
      </trkpt>
      <trkpt lat="40.523083" lon="-5.179417">
        <ele>2196.0</ele>
        <time>2014-06-30T12:57:51Z</time>
      </trkpt>
      <trkpt lat="40.523033" lon="-5.179483">
        <ele>2196.0</ele>
        <time>2014-06-30T12:57:52Z</time>
      </trkpt>
      <trkpt lat="40.523017" lon="-5.179550">
        <ele>2197.0</ele>
        <time>2014-06-30T12:57:53Z</time>
      </trkpt>
      <trkpt lat="40.523033" lon="-5.179617">
        <ele>2197.0</ele>
        <time>2014-06-30T12:57:54Z</time>
      </trkpt>
      <trkpt lat="40.523050" lon="-5.179683">
        <ele>2198.0</ele>
        <time>2014-06-30T12:57:55Z</time>
      </trkpt>
      <trkpt lat="40.523100" lon="-5.179750">
        <ele>2199.0</ele>
        <time>2014-06-30T12:57:56Z</time>
      </trkpt>
      <trkpt lat="40.523167" lon="-5.179783">
        <ele>2200.0</ele>
        <time>2014-06-30T12:57:57Z</time>
      </trkpt>
      <trkpt lat="40.523250" lon="-5.179800">
        <ele>2201.0</ele>
        <time>2014-06-30T12:57:58Z</time>
      </trkpt>
      <trkpt lat="40.523333" lon="-5.179800">
        <ele>2202.0</ele>
        <time>2014-06-30T12:57:59Z</time>
      </trkpt>
      <trkpt lat="40.523417" lon="-5.179783">
        <ele>2203.0</ele>
        <time>2014-06-30T12:58:00Z</time>
      </trkpt>
      <trkpt lat="40.523500" lon="-5.179767">
        <ele>2203.0</ele>
        <time>2014-06-30T12:58:01Z</time>
      </trkpt>
      <trkpt lat="40.523600" lon="-5.179750">
        <ele>2203.0</ele>
        <time>2014-06-30T12:58:02Z</time>
      </trkpt>
      <trkpt lat="40.523683" lon="-5.179733">
        <ele>2205.0</ele>
        <time>2014-06-30T12:58:03Z</time>
      </trkpt>
      <trkpt lat="40.523783" lon="-5.179717">
        <ele>2206.0</ele>
        <time>2014-06-30T12:58:04Z</time>
      </trkpt>
      <trkpt lat="40.523867" lon="-5.179667">
        <ele>2207.0</ele>
        <time>2014-06-30T12:58:05Z</time>
      </trkpt>
      <trkpt lat="40.523967" lon="-5.179617">
        <ele>2208.0</ele>
        <time>2014-06-30T12:58:06Z</time>
      </trkpt>
      <trkpt lat="40.524050" lon="-5.179550">
        <ele>2208.0</ele>
        <time>2014-06-30T12:58:07Z</time>
      </trkpt>
      <trkpt lat="40.524150" lon="-5.179467">
        <ele>2208.0</ele>
        <time>2014-06-30T12:58:08Z</time>
      </trkpt>
      <trkpt lat="40.524233" lon="-5.179333">
        <ele>2209.0</ele>
        <time>2014-06-30T12:58:09Z</time>
      </trkpt>
      <trkpt lat="40.524300" lon="-5.179217">
        <ele>2209.0</ele>
        <time>2014-06-30T12:58:10Z</time>
      </trkpt>
      <trkpt lat="40.524350" lon="-5.179067">
        <ele>2210.0</ele>
        <time>2014-06-30T12:58:11Z</time>
      </trkpt>
      <trkpt lat="40.524383" lon="-5.178917">
        <ele>2210.0</ele>
        <time>2014-06-30T12:58:12Z</time>
      </trkpt>
      <trkpt lat="40.524400" lon="-5.178767">
        <ele>2211.0</ele>
        <time>2014-06-30T12:58:13Z</time>
      </trkpt>
      <trkpt lat="40.524400" lon="-5.178617">
        <ele>2212.0</ele>
        <time>2014-06-30T12:58:14Z</time>
      </trkpt>
      <trkpt lat="40.524383" lon="-5.178483">
        <ele>2212.0</ele>
        <time>2014-06-30T12:58:15Z</time>
      </trkpt>
      <trkpt lat="40.524383" lon="-5.178350">
        <ele>2213.0</ele>
        <time>2014-06-30T12:58:16Z</time>
      </trkpt>
      <trkpt lat="40.524350" lon="-5.178233">
        <ele>2214.0</ele>
        <time>2014-06-30T12:58:17Z</time>
      </trkpt>
      <trkpt lat="40.524333" lon="-5.178133">
        <ele>2215.0</ele>
        <time>2014-06-30T12:58:18Z</time>
      </trkpt>
      <trkpt lat="40.524283" lon="-5.178033">
        <ele>2215.0</ele>
        <time>2014-06-30T12:58:19Z</time>
      </trkpt>
      <trkpt lat="40.524233" lon="-5.177950">
        <ele>2216.0</ele>
        <time>2014-06-30T12:58:20Z</time>
      </trkpt>
      <trkpt lat="40.524183" lon="-5.177850">
        <ele>2216.0</ele>
        <time>2014-06-30T12:58:21Z</time>
      </trkpt>
      <trkpt lat="40.524117" lon="-5.177783">
        <ele>2216.0</ele>
        <time>2014-06-30T12:58:22Z</time>
      </trkpt>
      <trkpt lat="40.524050" lon="-5.177717">
        <ele>2216.0</ele>
        <time>2014-06-30T12:58:23Z</time>
      </trkpt>
      <trkpt lat="40.523983" lon="-5.177683">
        <ele>2216.0</ele>
        <time>2014-06-30T12:58:24Z</time>
      </trkpt>
      <trkpt lat="40.523917" lon="-5.177650">
        <ele>2216.0</ele>
        <time>2014-06-30T12:58:25Z</time>
      </trkpt>
      <trkpt lat="40.523833" lon="-5.177650">
        <ele>2216.0</ele>
        <time>2014-06-30T12:58:26Z</time>
      </trkpt>
      <trkpt lat="40.523750" lon="-5.177650">
        <ele>2216.0</ele>
        <time>2014-06-30T12:58:27Z</time>
      </trkpt>
      <trkpt lat="40.523667" lon="-5.177667">
        <ele>2217.0</ele>
        <time>2014-06-30T12:58:28Z</time>
      </trkpt>
      <trkpt lat="40.523600" lon="-5.177700">
        <ele>2218.0</ele>
        <time>2014-06-30T12:58:29Z</time>
      </trkpt>
      <trkpt lat="40.523550" lon="-5.177733">
        <ele>2221.0</ele>
        <time>2014-06-30T12:58:30Z</time>
      </trkpt>
      <trkpt lat="40.523517" lon="-5.177783">
        <ele>2222.0</ele>
        <time>2014-06-30T12:58:31Z</time>
      </trkpt>
      <trkpt lat="40.523500" lon="-5.177850">
        <ele>2223.0</ele>
        <time>2014-06-30T12:58:32Z</time>
      </trkpt>
      <trkpt lat="40.523500" lon="-5.177917">
        <ele>2223.0</ele>
        <time>2014-06-30T12:58:33Z</time>
      </trkpt>
      <trkpt lat="40.523517" lon="-5.177983">
        <ele>2223.0</ele>
        <time>2014-06-30T12:58:34Z</time>
      </trkpt>
      <trkpt lat="40.523533" lon="-5.178050">
        <ele>2224.0</ele>
        <time>2014-06-30T12:58:35Z</time>
      </trkpt>
      <trkpt lat="40.523583" lon="-5.178117">
        <ele>2223.0</ele>
        <time>2014-06-30T12:58:36Z</time>
      </trkpt>
      <trkpt lat="40.523633" lon="-5.178183">
        <ele>2223.0</ele>
        <time>2014-06-30T12:58:37Z</time>
      </trkpt>
      <trkpt lat="40.523700" lon="-5.178233">
        <ele>2223.0</ele>
        <time>2014-06-30T12:58:38Z</time>
      </trkpt>
      <trkpt lat="40.523783" lon="-5.178267">
        <ele>2224.0</ele>
        <time>2014-06-30T12:58:39Z</time>
      </trkpt>
      <trkpt lat="40.523850" lon="-5.178250">
        <ele>2225.0</ele>
        <time>2014-06-30T12:58:40Z</time>
      </trkpt>
      <trkpt lat="40.523950" lon="-5.178217">
        <ele>2226.0</ele>
        <time>2014-06-30T12:58:41Z</time>
      </trkpt>
      <trkpt lat="40.524033" lon="-5.178150">
        <ele>2227.0</ele>
        <time>2014-06-30T12:58:42Z</time>
      </trkpt>
      <trkpt lat="40.524117" lon="-5.178033">
        <ele>2227.0</ele>
        <time>2014-06-30T12:58:43Z</time>
      </trkpt>
      <trkpt lat="40.524167" lon="-5.177900">
        <ele>2227.0</ele>
        <time>2014-06-30T12:58:44Z</time>
      </trkpt>
      <trkpt lat="40.524200" lon="-5.177750">
        <ele>2226.0</ele>
        <time>2014-06-30T12:58:45Z</time>
      </trkpt>
      <trkpt lat="40.524200" lon="-5.177583">
        <ele>2226.0</ele>
        <time>2014-06-30T12:58:46Z</time>
      </trkpt>
      <trkpt lat="40.524167" lon="-5.177450">
        <ele>2226.0</ele>
        <time>2014-06-30T12:58:47Z</time>
      </trkpt>
      <trkpt lat="40.524133" lon="-5.177317">
        <ele>2226.0</ele>
        <time>2014-06-30T12:58:48Z</time>
      </trkpt>
      <trkpt lat="40.524100" lon="-5.177183">
        <ele>2227.0</ele>
        <time>2014-06-30T12:58:49Z</time>
      </trkpt>
      <trkpt lat="40.524067" lon="-5.177083">
        <ele>2229.0</ele>
        <time>2014-06-30T12:58:50Z</time>
      </trkpt>
      <trkpt lat="40.524000" lon="-5.176983">
        <ele>2229.0</ele>
        <time>2014-06-30T12:58:51Z</time>
      </trkpt>
      <trkpt lat="40.523950" lon="-5.176917">
        <ele>2230.0</ele>
        <time>2014-06-30T12:58:52Z</time>
      </trkpt>
      <trkpt lat="40.523867" lon="-5.176850">
        <ele>2230.0</ele>
        <time>2014-06-30T12:58:53Z</time>
      </trkpt>
      <trkpt lat="40.523800" lon="-5.176833">
        <ele>2230.0</ele>
        <time>2014-06-30T12:58:54Z</time>
      </trkpt>
      <trkpt lat="40.523717" lon="-5.176817">
        <ele>2230.0</ele>
        <time>2014-06-30T12:58:55Z</time>
      </trkpt>
      <trkpt lat="40.523650" lon="-5.176850">
        <ele>2230.0</ele>
        <time>2014-06-30T12:58:56Z</time>
      </trkpt>
      <trkpt lat="40.523583" lon="-5.176900">
        <ele>2230.0</ele>
        <time>2014-06-30T12:58:57Z</time>
      </trkpt>
      <trkpt lat="40.523533" lon="-5.176950">
        <ele>2231.0</ele>
        <time>2014-06-30T12:58:58Z</time>
      </trkpt>
      <trkpt lat="40.523483" lon="-5.177000">
        <ele>2232.0</ele>
        <time>2014-06-30T12:58:59Z</time>
      </trkpt>
      <trkpt lat="40.523433" lon="-5.177050">
        <ele>2233.0</ele>
        <time>2014-06-30T12:59:00Z</time>
      </trkpt>
      <trkpt lat="40.523367" lon="-5.177083">
        <ele>2234.0</ele>
        <time>2014-06-30T12:59:01Z</time>
      </trkpt>
      <trkpt lat="40.523300" lon="-5.177117">
        <ele>2236.0</ele>
        <time>2014-06-30T12:59:02Z</time>
      </trkpt>
      <trkpt lat="40.523217" lon="-5.177150">
        <ele>2237.0</ele>
        <time>2014-06-30T12:59:03Z</time>
      </trkpt>
      <trkpt lat="40.523150" lon="-5.177167">
        <ele>2239.0</ele>
        <time>2014-06-30T12:59:04Z</time>
      </trkpt>
      <trkpt lat="40.523067" lon="-5.177183">
        <ele>2240.0</ele>
        <time>2014-06-30T12:59:05Z</time>
      </trkpt>
      <trkpt lat="40.523017" lon="-5.177200">
        <ele>2241.0</ele>
        <time>2014-06-30T12:59:06Z</time>
      </trkpt>
      <trkpt lat="40.522967" lon="-5.177233">
        <ele>2242.0</ele>
        <time>2014-06-30T12:59:07Z</time>
      </trkpt>
      <trkpt lat="40.522950" lon="-5.177283">
        <ele>2242.0</ele>
        <time>2014-06-30T12:59:08Z</time>
      </trkpt>
      <trkpt lat="40.522950" lon="-5.177317">
        <ele>2241.0</ele>
        <time>2014-06-30T12:59:09Z</time>
      </trkpt>
      <trkpt lat="40.522967" lon="-5.177367">
        <ele>2240.0</ele>
        <time>2014-06-30T12:59:10Z</time>
      </trkpt>
      <trkpt lat="40.523017" lon="-5.177400">
        <ele>2238.0</ele>
        <time>2014-06-30T12:59:11Z</time>
      </trkpt>
      <trkpt lat="40.523100" lon="-5.177400">
        <ele>2237.0</ele>
        <time>2014-06-30T12:59:12Z</time>
      </trkpt>
      <trkpt lat="40.523200" lon="-5.177383">
        <ele>2235.0</ele>
        <time>2014-06-30T12:59:13Z</time>
      </trkpt>
      <trkpt lat="40.523283" lon="-5.177333">
        <ele>2234.0</ele>
        <time>2014-06-30T12:59:14Z</time>
      </trkpt>
      <trkpt lat="40.523367" lon="-5.177250">
        <ele>2234.0</ele>
        <time>2014-06-30T12:59:15Z</time>
      </trkpt>
      <trkpt lat="40.523450" lon="-5.177167">
        <ele>2234.0</ele>
        <time>2014-06-30T12:59:16Z</time>
      </trkpt>
      <trkpt lat="40.523533" lon="-5.177050">
        <ele>2233.0</ele>
        <time>2014-06-30T12:59:17Z</time>
      </trkpt>
      <trkpt lat="40.523617" lon="-5.176917">
        <ele>2233.0</ele>
        <time>2014-06-30T12:59:18Z</time>
      </trkpt>
      <trkpt lat="40.523683" lon="-5.176783">
        <ele>2232.0</ele>
        <time>2014-06-30T12:59:19Z</time>
      </trkpt>
      <trkpt lat="40.523750" lon="-5.176633">
        <ele>2234.0</ele>
        <time>2014-06-30T12:59:20Z</time>
      </trkpt>
      <trkpt lat="40.523800" lon="-5.176467">
        <ele>2236.0</ele>
        <time>2014-06-30T12:59:21Z</time>
      </trkpt>
      <trkpt lat="40.523833" lon="-5.176317">
        <ele>2236.0</ele>
        <time>2014-06-30T12:59:22Z</time>
      </trkpt>
      <trkpt lat="40.523867" lon="-5.176150">
        <ele>2236.0</ele>
        <time>2014-06-30T12:59:23Z</time>
      </trkpt>
      <trkpt lat="40.523900" lon="-5.175983">
        <ele>2236.0</ele>
        <time>2014-06-30T12:59:24Z</time>
      </trkpt>
      <trkpt lat="40.523950" lon="-5.175833">
        <ele>2237.0</ele>
        <time>2014-06-30T12:59:25Z</time>
      </trkpt>
      <trkpt lat="40.524000" lon="-5.175683">
        <ele>2239.0</ele>
        <time>2014-06-30T12:59:26Z</time>
      </trkpt>
      <trkpt lat="40.524033" lon="-5.175550">
        <ele>2240.0</ele>
        <time>2014-06-30T12:59:27Z</time>
      </trkpt>
      <trkpt lat="40.524083" lon="-5.175400">
        <ele>2241.0</ele>
        <time>2014-06-30T12:59:28Z</time>
      </trkpt>
      <trkpt lat="40.524133" lon="-5.175233">
        <ele>2241.0</ele>
        <time>2014-06-30T12:59:29Z</time>
      </trkpt>
      <trkpt lat="40.524167" lon="-5.175067">
        <ele>2242.0</ele>
        <time>2014-06-30T12:59:30Z</time>
      </trkpt>
      <trkpt lat="40.524200" lon="-5.174883">
        <ele>2243.0</ele>
        <time>2014-06-30T12:59:31Z</time>
      </trkpt>
      <trkpt lat="40.524183" lon="-5.174700">
        <ele>2245.0</ele>
        <time>2014-06-30T12:59:32Z</time>
      </trkpt>
      <trkpt lat="40.524167" lon="-5.174517">
        <ele>2245.0</ele>
        <time>2014-06-30T12:59:33Z</time>
      </trkpt>
      <trkpt lat="40.524133" lon="-5.174333">
        <ele>2247.0</ele>
        <time>2014-06-30T12:59:34Z</time>
      </trkpt>
      <trkpt lat="40.524117" lon="-5.174167">
        <ele>2249.0</ele>
        <time>2014-06-30T12:59:35Z</time>
      </trkpt>
      <trkpt lat="40.524117" lon="-5.174000">
        <ele>2250.0</ele>
        <time>2014-06-30T12:59:36Z</time>
      </trkpt>
      <trkpt lat="40.524100" lon="-5.173833">
        <ele>2250.0</ele>
        <time>2014-06-30T12:59:37Z</time>
      </trkpt>
      <trkpt lat="40.524067" lon="-5.173683">
        <ele>2249.0</ele>
        <time>2014-06-30T12:59:38Z</time>
      </trkpt>
      <trkpt lat="40.524000" lon="-5.173533">
        <ele>2250.0</ele>
        <time>2014-06-30T12:59:39Z</time>
      </trkpt>
      <trkpt lat="40.523933" lon="-5.173417">
        <ele>2249.0</ele>
        <time>2014-06-30T12:59:40Z</time>
      </trkpt>
      <trkpt lat="40.523833" lon="-5.173317">
        <ele>2249.0</ele>
        <time>2014-06-30T12:59:41Z</time>
      </trkpt>
      <trkpt lat="40.523750" lon="-5.173233">
        <ele>2248.0</ele>
        <time>2014-06-30T12:59:42Z</time>
      </trkpt>
      <trkpt lat="40.523683" lon="-5.173150">
        <ele>2249.0</ele>
        <time>2014-06-30T12:59:43Z</time>
      </trkpt>
      <trkpt lat="40.523600" lon="-5.173100">
        <ele>2249.0</ele>
        <time>2014-06-30T12:59:44Z</time>
      </trkpt>
      <trkpt lat="40.523533" lon="-5.173050">
        <ele>2249.0</ele>
        <time>2014-06-30T12:59:45Z</time>
      </trkpt>
      <trkpt lat="40.523467" lon="-5.173017">
        <ele>2250.0</ele>
        <time>2014-06-30T12:59:46Z</time>
      </trkpt>
      <trkpt lat="40.523400" lon="-5.173017">
        <ele>2250.0</ele>
        <time>2014-06-30T12:59:47Z</time>
      </trkpt>
      <trkpt lat="40.523333" lon="-5.173017">
        <ele>2250.0</ele>
        <time>2014-06-30T12:59:48Z</time>
      </trkpt>
      <trkpt lat="40.523267" lon="-5.173017">
        <ele>2250.0</ele>
        <time>2014-06-30T12:59:49Z</time>
      </trkpt>
      <trkpt lat="40.523183" lon="-5.173000">
        <ele>2250.0</ele>
        <time>2014-06-30T12:59:50Z</time>
      </trkpt>
      <trkpt lat="40.523117" lon="-5.173000">
        <ele>2251.0</ele>
        <time>2014-06-30T12:59:51Z</time>
      </trkpt>
      <trkpt lat="40.523067" lon="-5.173017">
        <ele>2251.0</ele>
        <time>2014-06-30T12:59:52Z</time>
      </trkpt>
      <trkpt lat="40.523017" lon="-5.173050">
        <ele>2251.0</ele>
        <time>2014-06-30T12:59:53Z</time>
      </trkpt>
      <trkpt lat="40.522950" lon="-5.173067">
        <ele>2251.0</ele>
        <time>2014-06-30T12:59:54Z</time>
      </trkpt>
      <trkpt lat="40.522883" lon="-5.173067">
        <ele>2251.0</ele>
        <time>2014-06-30T12:59:55Z</time>
      </trkpt>
      <trkpt lat="40.522817" lon="-5.173083">
        <ele>2252.0</ele>
        <time>2014-06-30T12:59:56Z</time>
      </trkpt>
      <trkpt lat="40.522767" lon="-5.173100">
        <ele>2252.0</ele>
        <time>2014-06-30T12:59:57Z</time>
      </trkpt>
      <trkpt lat="40.522717" lon="-5.173133">
        <ele>2253.0</ele>
        <time>2014-06-30T12:59:58Z</time>
      </trkpt>
      <trkpt lat="40.522700" lon="-5.173183">
        <ele>2254.0</ele>
        <time>2014-06-30T12:59:59Z</time>
      </trkpt>
      <trkpt lat="40.522700" lon="-5.173233">
        <ele>2254.0</ele>
        <time>2014-06-30T13:00:00Z</time>
      </trkpt>
      <trkpt lat="40.522683" lon="-5.173283">
        <ele>2254.0</ele>
        <time>2014-06-30T13:00:01Z</time>
      </trkpt>
      <trkpt lat="40.522683" lon="-5.173317">
        <ele>2254.0</ele>
        <time>2014-06-30T13:00:02Z</time>
      </trkpt>
      <trkpt lat="40.522683" lon="-5.173383">
        <ele>2255.0</ele>
        <time>2014-06-30T13:00:03Z</time>
      </trkpt>
      <trkpt lat="40.522700" lon="-5.173433">
        <ele>2256.0</ele>
        <time>2014-06-30T13:00:04Z</time>
      </trkpt>
      <trkpt lat="40.522717" lon="-5.173500">
        <ele>2256.0</ele>
        <time>2014-06-30T13:00:05Z</time>
      </trkpt>
      <trkpt lat="40.522750" lon="-5.173567">
        <ele>2257.0</ele>
        <time>2014-06-30T13:00:06Z</time>
      </trkpt>
      <trkpt lat="40.522800" lon="-5.173617">
        <ele>2258.0</ele>
        <time>2014-06-30T13:00:07Z</time>
      </trkpt>
      <trkpt lat="40.522833" lon="-5.173650">
        <ele>2261.0</ele>
        <time>2014-06-30T13:00:08Z</time>
      </trkpt>
      <trkpt lat="40.522883" lon="-5.173650">
        <ele>2262.0</ele>
        <time>2014-06-30T13:00:09Z</time>
      </trkpt>
      <trkpt lat="40.522917" lon="-5.173633">
        <ele>2264.0</ele>
        <time>2014-06-30T13:00:10Z</time>
      </trkpt>
      <trkpt lat="40.522983" lon="-5.173617">
        <ele>2264.0</ele>
        <time>2014-06-30T13:00:11Z</time>
      </trkpt>
      <trkpt lat="40.523050" lon="-5.173583">
        <ele>2264.0</ele>
        <time>2014-06-30T13:00:12Z</time>
      </trkpt>
      <trkpt lat="40.523100" lon="-5.173567">
        <ele>2264.0</ele>
        <time>2014-06-30T13:00:13Z</time>
      </trkpt>
      <trkpt lat="40.523167" lon="-5.173550">
        <ele>2264.0</ele>
        <time>2014-06-30T13:00:14Z</time>
      </trkpt>
      <trkpt lat="40.523250" lon="-5.173500">
        <ele>2265.0</ele>
        <time>2014-06-30T13:00:15Z</time>
      </trkpt>
      <trkpt lat="40.523333" lon="-5.173433">
        <ele>2266.0</ele>
        <time>2014-06-30T13:00:16Z</time>
      </trkpt>
      <trkpt lat="40.523400" lon="-5.173333">
        <ele>2268.0</ele>
        <time>2014-06-30T13:00:17Z</time>
      </trkpt>
      <trkpt lat="40.523450" lon="-5.173217">
        <ele>2269.0</ele>
        <time>2014-06-30T13:00:18Z</time>
      </trkpt>
      <trkpt lat="40.523483" lon="-5.173067">
        <ele>2270.0</ele>
        <time>2014-06-30T13:00:19Z</time>
      </trkpt>
      <trkpt lat="40.523517" lon="-5.172917">
        <ele>2271.0</ele>
        <time>2014-06-30T13:00:20Z</time>
      </trkpt>
      <trkpt lat="40.523533" lon="-5.172767">
        <ele>2272.0</ele>
        <time>2014-06-30T13:00:21Z</time>
      </trkpt>
      <trkpt lat="40.523517" lon="-5.172583">
        <ele>2272.0</ele>
        <time>2014-06-30T13:00:22Z</time>
      </trkpt>
      <trkpt lat="40.523517" lon="-5.172417">
        <ele>2272.0</ele>
        <time>2014-06-30T13:00:23Z</time>
      </trkpt>
      <trkpt lat="40.523467" lon="-5.172233">
        <ele>2272.0</ele>
        <time>2014-06-30T13:00:24Z</time>
      </trkpt>
      <trkpt lat="40.523417" lon="-5.172083">
        <ele>2272.0</ele>
        <time>2014-06-30T13:00:25Z</time>
      </trkpt>
      <trkpt lat="40.523333" lon="-5.171933">
        <ele>2273.0</ele>
        <time>2014-06-30T13:00:26Z</time>
      </trkpt>
      <trkpt lat="40.523250" lon="-5.171850">
        <ele>2275.0</ele>
        <time>2014-06-30T13:00:27Z</time>
      </trkpt>
      <trkpt lat="40.523167" lon="-5.171767">
        <ele>2276.0</ele>
        <time>2014-06-30T13:00:28Z</time>
      </trkpt>
      <trkpt lat="40.523067" lon="-5.171717">
        <ele>2277.0</ele>
        <time>2014-06-30T13:00:29Z</time>
      </trkpt>
      <trkpt lat="40.522983" lon="-5.171683">
        <ele>2278.0</ele>
        <time>2014-06-30T13:00:30Z</time>
      </trkpt>
      <trkpt lat="40.522883" lon="-5.171667">
        <ele>2278.0</ele>
        <time>2014-06-30T13:00:31Z</time>
      </trkpt>
      <trkpt lat="40.522817" lon="-5.171683">
        <ele>2279.0</ele>
        <time>2014-06-30T13:00:32Z</time>
      </trkpt>
      <trkpt lat="40.522767" lon="-5.171700">
        <ele>2279.0</ele>
        <time>2014-06-30T13:00:33Z</time>
      </trkpt>
      <trkpt lat="40.522733" lon="-5.171733">
        <ele>2280.0</ele>
        <time>2014-06-30T13:00:34Z</time>
      </trkpt>
      <trkpt lat="40.522733" lon="-5.171767">
        <ele>2280.0</ele>
        <time>2014-06-30T13:00:35Z</time>
      </trkpt>
      <trkpt lat="40.522733" lon="-5.171800">
        <ele>2280.0</ele>
        <time>2014-06-30T13:00:36Z</time>
      </trkpt>
      <trkpt lat="40.522750" lon="-5.171833">
        <ele>2281.0</ele>
        <time>2014-06-30T13:00:37Z</time>
      </trkpt>
      <trkpt lat="40.522800" lon="-5.171850">
        <ele>2281.0</ele>
        <time>2014-06-30T13:00:38Z</time>
      </trkpt>
      <trkpt lat="40.522833" lon="-5.171850">
        <ele>2282.0</ele>
        <time>2014-06-30T13:00:39Z</time>
      </trkpt>
      <trkpt lat="40.522900" lon="-5.171833">
        <ele>2283.0</ele>
        <time>2014-06-30T13:00:40Z</time>
      </trkpt>
      <trkpt lat="40.522950" lon="-5.171817">
        <ele>2283.0</ele>
        <time>2014-06-30T13:00:41Z</time>
      </trkpt>
      <trkpt lat="40.523017" lon="-5.171800">
        <ele>2284.0</ele>
        <time>2014-06-30T13:00:42Z</time>
      </trkpt>
      <trkpt lat="40.523083" lon="-5.171767">
        <ele>2285.0</ele>
        <time>2014-06-30T13:00:43Z</time>
      </trkpt>
      <trkpt lat="40.523133" lon="-5.171717">
        <ele>2286.0</ele>
        <time>2014-06-30T13:00:44Z</time>
      </trkpt>
      <trkpt lat="40.523200" lon="-5.171667">
        <ele>2286.0</ele>
        <time>2014-06-30T13:00:45Z</time>
      </trkpt>
      <trkpt lat="40.523267" lon="-5.171583">
        <ele>2286.0</ele>
        <time>2014-06-30T13:00:46Z</time>
      </trkpt>
      <trkpt lat="40.523333" lon="-5.171500">
        <ele>2284.0</ele>
        <time>2014-06-30T13:00:47Z</time>
      </trkpt>
      <trkpt lat="40.523417" lon="-5.171383">
        <ele>2283.0</ele>
        <time>2014-06-30T13:00:48Z</time>
      </trkpt>
      <trkpt lat="40.523500" lon="-5.171267">
        <ele>2282.0</ele>
        <time>2014-06-30T13:00:49Z</time>
      </trkpt>
      <trkpt lat="40.523567" lon="-5.171117">
        <ele>2281.0</ele>
        <time>2014-06-30T13:00:50Z</time>
      </trkpt>
      <trkpt lat="40.523617" lon="-5.170950">
        <ele>2281.0</ele>
        <time>2014-06-30T13:00:51Z</time>
      </trkpt>
      <trkpt lat="40.523650" lon="-5.170783">
        <ele>2280.0</ele>
        <time>2014-06-30T13:00:52Z</time>
      </trkpt>
      <trkpt lat="40.523650" lon="-5.170583">
        <ele>2279.0</ele>
        <time>2014-06-30T13:00:53Z</time>
      </trkpt>
      <trkpt lat="40.523633" lon="-5.170400">
        <ele>2278.0</ele>
        <time>2014-06-30T13:00:54Z</time>
      </trkpt>
      <trkpt lat="40.523633" lon="-5.170217">
        <ele>2277.0</ele>
        <time>2014-06-30T13:00:55Z</time>
      </trkpt>
      <trkpt lat="40.523617" lon="-5.170033">
        <ele>2277.0</ele>
        <time>2014-06-30T13:00:56Z</time>
      </trkpt>
      <trkpt lat="40.523600" lon="-5.169833">
        <ele>2278.0</ele>
        <time>2014-06-30T13:00:57Z</time>
      </trkpt>
      <trkpt lat="40.523600" lon="-5.169650">
        <ele>2279.0</ele>
        <time>2014-06-30T13:00:58Z</time>
      </trkpt>
      <trkpt lat="40.523583" lon="-5.169467">
        <ele>2279.0</ele>
        <time>2014-06-30T13:00:59Z</time>
      </trkpt>
      <trkpt lat="40.523583" lon="-5.169283">
        <ele>2280.0</ele>
        <time>2014-06-30T13:01:00Z</time>
      </trkpt>
      <trkpt lat="40.523583" lon="-5.169100">
        <ele>2281.0</ele>
        <time>2014-06-30T13:01:01Z</time>
      </trkpt>
      <trkpt lat="40.523567" lon="-5.168900">
        <ele>2282.0</ele>
        <time>2014-06-30T13:01:02Z</time>
      </trkpt>
      <trkpt lat="40.523533" lon="-5.168733">
        <ele>2283.0</ele>
        <time>2014-06-30T13:01:03Z</time>
      </trkpt>
      <trkpt lat="40.523500" lon="-5.168567">
        <ele>2285.0</ele>
        <time>2014-06-30T13:01:04Z</time>
      </trkpt>
      <trkpt lat="40.523450" lon="-5.168417">
        <ele>2286.0</ele>
        <time>2014-06-30T13:01:05Z</time>
      </trkpt>
      <trkpt lat="40.523400" lon="-5.168267">
        <ele>2287.0</ele>
        <time>2014-06-30T13:01:06Z</time>
      </trkpt>
      <trkpt lat="40.523350" lon="-5.168117">
        <ele>2287.0</ele>
        <time>2014-06-30T13:01:07Z</time>
      </trkpt>
      <trkpt lat="40.523267" lon="-5.167967">
        <ele>2288.0</ele>
        <time>2014-06-30T13:01:08Z</time>
      </trkpt>
      <trkpt lat="40.523183" lon="-5.167833">
        <ele>2289.0</ele>
        <time>2014-06-30T13:01:09Z</time>
      </trkpt>
      <trkpt lat="40.523100" lon="-5.167750">
        <ele>2290.0</ele>
        <time>2014-06-30T13:01:10Z</time>
      </trkpt>
      <trkpt lat="40.523017" lon="-5.167700">
        <ele>2291.0</ele>
        <time>2014-06-30T13:01:11Z</time>
      </trkpt>
      <trkpt lat="40.522933" lon="-5.167667">
        <ele>2292.0</ele>
        <time>2014-06-30T13:01:12Z</time>
      </trkpt>
      <trkpt lat="40.522850" lon="-5.167667">
        <ele>2293.0</ele>
        <time>2014-06-30T13:01:13Z</time>
      </trkpt>
      <trkpt lat="40.522783" lon="-5.167667">
        <ele>2294.0</ele>
        <time>2014-06-30T13:01:14Z</time>
      </trkpt>
      <trkpt lat="40.522733" lon="-5.167683">
        <ele>2294.0</ele>
        <time>2014-06-30T13:01:15Z</time>
      </trkpt>
      <trkpt lat="40.522717" lon="-5.167717">
        <ele>2293.0</ele>
        <time>2014-06-30T13:01:16Z</time>
      </trkpt>
      <trkpt lat="40.522717" lon="-5.167767">
        <ele>2292.0</ele>
        <time>2014-06-30T13:01:17Z</time>
      </trkpt>
      <trkpt lat="40.522733" lon="-5.167817">
        <ele>2292.0</ele>
        <time>2014-06-30T13:01:18Z</time>
      </trkpt>
      <trkpt lat="40.522750" lon="-5.167867">
        <ele>2291.0</ele>
        <time>2014-06-30T13:01:19Z</time>
      </trkpt>
      <trkpt lat="40.522783" lon="-5.167917">
        <ele>2290.0</ele>
        <time>2014-06-30T13:01:20Z</time>
      </trkpt>
      <trkpt lat="40.522833" lon="-5.167967">
        <ele>2290.0</ele>
        <time>2014-06-30T13:01:21Z</time>
      </trkpt>
      <trkpt lat="40.522883" lon="-5.168017">
        <ele>2290.0</ele>
        <time>2014-06-30T13:01:22Z</time>
      </trkpt>
      <trkpt lat="40.522900" lon="-5.168050">
        <ele>2292.0</ele>
        <time>2014-06-30T13:01:23Z</time>
      </trkpt>
      <trkpt lat="40.522933" lon="-5.168050">
        <ele>2292.0</ele>
        <time>2014-06-30T13:01:24Z</time>
      </trkpt>
      <trkpt lat="40.522950" lon="-5.168050">
        <ele>2293.0</ele>
        <time>2014-06-30T13:01:25Z</time>
      </trkpt>
      <trkpt lat="40.522967" lon="-5.168050">
        <ele>2293.0</ele>
        <time>2014-06-30T13:01:26Z</time>
      </trkpt>
      <trkpt lat="40.523000" lon="-5.168067">
        <ele>2291.0</ele>
        <time>2014-06-30T13:01:27Z</time>
      </trkpt>
      <trkpt lat="40.523017" lon="-5.168100">
        <ele>2290.0</ele>
        <time>2014-06-30T13:01:28Z</time>
      </trkpt>
      <trkpt lat="40.523050" lon="-5.168133">
        <ele>2286.0</ele>
        <time>2014-06-30T13:01:29Z</time>
      </trkpt>
      <trkpt lat="40.523100" lon="-5.168167">
        <ele>2285.0</ele>
        <time>2014-06-30T13:01:30Z</time>
      </trkpt>
      <trkpt lat="40.523150" lon="-5.168167">
        <ele>2284.0</ele>
        <time>2014-06-30T13:01:31Z</time>
      </trkpt>
      <trkpt lat="40.523217" lon="-5.168167">
        <ele>2284.0</ele>
        <time>2014-06-30T13:01:32Z</time>
      </trkpt>
      <trkpt lat="40.523283" lon="-5.168150">
        <ele>2284.0</ele>
        <time>2014-06-30T13:01:33Z</time>
      </trkpt>
      <trkpt lat="40.523350" lon="-5.168150">
        <ele>2285.0</ele>
        <time>2014-06-30T13:01:34Z</time>
      </trkpt>
      <trkpt lat="40.523400" lon="-5.168150">
        <ele>2287.0</ele>
        <time>2014-06-30T13:01:35Z</time>
      </trkpt>
      <trkpt lat="40.523467" lon="-5.168133">
        <ele>2288.0</ele>
        <time>2014-06-30T13:01:36Z</time>
      </trkpt>
      <trkpt lat="40.523517" lon="-5.168117">
        <ele>2289.0</ele>
        <time>2014-06-30T13:01:37Z</time>
      </trkpt>
      <trkpt lat="40.523583" lon="-5.168083">
        <ele>2289.0</ele>
        <time>2014-06-30T13:01:38Z</time>
      </trkpt>
      <trkpt lat="40.523650" lon="-5.168033">
        <ele>2290.0</ele>
        <time>2014-06-30T13:01:39Z</time>
      </trkpt>
      <trkpt lat="40.523733" lon="-5.167983">
        <ele>2291.0</ele>
        <time>2014-06-30T13:01:40Z</time>
      </trkpt>
      <trkpt lat="40.523817" lon="-5.167900">
        <ele>2292.0</ele>
        <time>2014-06-30T13:01:41Z</time>
      </trkpt>
      <trkpt lat="40.523883" lon="-5.167833">
        <ele>2294.0</ele>
        <time>2014-06-30T13:01:42Z</time>
      </trkpt>
      <trkpt lat="40.523967" lon="-5.167733">
        <ele>2296.0</ele>
        <time>2014-06-30T13:01:43Z</time>
      </trkpt>
      <trkpt lat="40.524050" lon="-5.167650">
        <ele>2298.0</ele>
        <time>2014-06-30T13:01:44Z</time>
      </trkpt>
      <trkpt lat="40.524117" lon="-5.167550">
        <ele>2300.0</ele>
        <time>2014-06-30T13:01:45Z</time>
      </trkpt>
      <trkpt lat="40.524200" lon="-5.167433">
        <ele>2303.0</ele>
        <time>2014-06-30T13:01:46Z</time>
      </trkpt>
      <trkpt lat="40.524267" lon="-5.167317">
        <ele>2306.0</ele>
        <time>2014-06-30T13:01:47Z</time>
      </trkpt>
      <trkpt lat="40.524300" lon="-5.167150">
        <ele>2308.0</ele>
        <time>2014-06-30T13:01:48Z</time>
      </trkpt>
      <trkpt lat="40.524317" lon="-5.166983">
        <ele>2308.0</ele>
        <time>2014-06-30T13:01:49Z</time>
      </trkpt>
      <trkpt lat="40.524317" lon="-5.166800">
        <ele>2307.0</ele>
        <time>2014-06-30T13:01:50Z</time>
      </trkpt>
      <trkpt lat="40.524300" lon="-5.166633">
        <ele>2307.0</ele>
        <time>2014-06-30T13:01:51Z</time>
      </trkpt>
      <trkpt lat="40.524250" lon="-5.166500">
        <ele>2307.0</ele>
        <time>2014-06-30T13:01:52Z</time>
      </trkpt>
      <trkpt lat="40.524183" lon="-5.166383">
        <ele>2307.0</ele>
        <time>2014-06-30T13:01:53Z</time>
      </trkpt>
      <trkpt lat="40.524100" lon="-5.166317">
        <ele>2306.0</ele>
        <time>2014-06-30T13:01:54Z</time>
      </trkpt>
      <trkpt lat="40.524017" lon="-5.166283">
        <ele>2305.0</ele>
        <time>2014-06-30T13:01:55Z</time>
      </trkpt>
      <trkpt lat="40.523950" lon="-5.166283">
        <ele>2306.0</ele>
        <time>2014-06-30T13:01:56Z</time>
      </trkpt>
      <trkpt lat="40.523900" lon="-5.166300">
        <ele>2306.0</ele>
        <time>2014-06-30T13:01:57Z</time>
      </trkpt>
      <trkpt lat="40.523850" lon="-5.166333">
        <ele>2306.0</ele>
        <time>2014-06-30T13:01:58Z</time>
      </trkpt>
      <trkpt lat="40.523800" lon="-5.166367">
        <ele>2306.0</ele>
        <time>2014-06-30T13:01:59Z</time>
      </trkpt>
      <trkpt lat="40.523783" lon="-5.166400">
        <ele>2306.0</ele>
        <time>2014-06-30T13:02:00Z</time>
      </trkpt>
      <trkpt lat="40.523750" lon="-5.166433">
        <ele>2306.0</ele>
        <time>2014-06-30T13:02:01Z</time>
      </trkpt>
      <trkpt lat="40.523733" lon="-5.166450">
        <ele>2306.0</ele>
        <time>2014-06-30T13:02:02Z</time>
      </trkpt>
      <trkpt lat="40.523717" lon="-5.166467">
        <ele>2307.0</ele>
        <time>2014-06-30T13:02:03Z</time>
      </trkpt>
      <trkpt lat="40.523717" lon="-5.166483">
        <ele>2307.0</ele>
        <time>2014-06-30T13:02:04Z</time>
      </trkpt>
      <trkpt lat="40.523717" lon="-5.166500">
        <ele>2307.0</ele>
        <time>2014-06-30T13:02:05Z</time>
      </trkpt>
      <trkpt lat="40.523717" lon="-5.166533">
        <ele>2308.0</ele>
        <time>2014-06-30T13:02:06Z</time>
      </trkpt>
      <trkpt lat="40.523750" lon="-5.166567">
        <ele>2309.0</ele>
        <time>2014-06-30T13:02:07Z</time>
      </trkpt>
      <trkpt lat="40.523800" lon="-5.166583">
        <ele>2309.0</ele>
        <time>2014-06-30T13:02:08Z</time>
      </trkpt>
      <trkpt lat="40.523850" lon="-5.166583">
        <ele>2310.0</ele>
        <time>2014-06-30T13:02:09Z</time>
      </trkpt>
      <trkpt lat="40.523917" lon="-5.166550">
        <ele>2312.0</ele>
        <time>2014-06-30T13:02:10Z</time>
      </trkpt>
      <trkpt lat="40.523983" lon="-5.166533">
        <ele>2314.0</ele>
        <time>2014-06-30T13:02:11Z</time>
      </trkpt>
      <trkpt lat="40.524050" lon="-5.166500">
        <ele>2315.0</ele>
        <time>2014-06-30T13:02:12Z</time>
      </trkpt>
      <trkpt lat="40.524117" lon="-5.166467">
        <ele>2316.0</ele>
        <time>2014-06-30T13:02:13Z</time>
      </trkpt>
      <trkpt lat="40.524200" lon="-5.166400">
        <ele>2316.0</ele>
        <time>2014-06-30T13:02:14Z</time>
      </trkpt>
      <trkpt lat="40.524300" lon="-5.166317">
        <ele>2316.0</ele>
        <time>2014-06-30T13:02:15Z</time>
      </trkpt>
      <trkpt lat="40.524400" lon="-5.166217">
        <ele>2316.0</ele>
        <time>2014-06-30T13:02:16Z</time>
      </trkpt>
      <trkpt lat="40.524500" lon="-5.166117">
        <ele>2316.0</ele>
        <time>2014-06-30T13:02:17Z</time>
      </trkpt>
      <trkpt lat="40.524583" lon="-5.166033">
        <ele>2317.0</ele>
        <time>2014-06-30T13:02:18Z</time>
      </trkpt>
      <trkpt lat="40.524667" lon="-5.165967">
        <ele>2319.0</ele>
        <time>2014-06-30T13:02:19Z</time>
      </trkpt>
      <trkpt lat="40.524750" lon="-5.165917">
        <ele>2320.0</ele>
        <time>2014-06-30T13:02:20Z</time>
      </trkpt>
      <trkpt lat="40.524817" lon="-5.165833">
        <ele>2321.0</ele>
        <time>2014-06-30T13:02:21Z</time>
      </trkpt>
      <trkpt lat="40.524883" lon="-5.165733">
        <ele>2321.0</ele>
        <time>2014-06-30T13:02:22Z</time>
      </trkpt>
      <trkpt lat="40.524950" lon="-5.165617">
        <ele>2320.0</ele>
        <time>2014-06-30T13:02:23Z</time>
      </trkpt>
      <trkpt lat="40.525017" lon="-5.165467">
        <ele>2318.0</ele>
        <time>2014-06-30T13:02:24Z</time>
      </trkpt>
      <trkpt lat="40.525083" lon="-5.165317">
        <ele>2315.0</ele>
        <time>2014-06-30T13:02:25Z</time>
      </trkpt>
      <trkpt lat="40.525150" lon="-5.165150">
        <ele>2314.0</ele>
        <time>2014-06-30T13:02:26Z</time>
      </trkpt>
      <trkpt lat="40.525183" lon="-5.164950">
        <ele>2312.0</ele>
        <time>2014-06-30T13:02:27Z</time>
      </trkpt>
      <trkpt lat="40.525183" lon="-5.164767">
        <ele>2310.0</ele>
        <time>2014-06-30T13:02:28Z</time>
      </trkpt>
      <trkpt lat="40.525167" lon="-5.164583">
        <ele>2308.0</ele>
        <time>2014-06-30T13:02:29Z</time>
      </trkpt>
      <trkpt lat="40.525133" lon="-5.164417">
        <ele>2305.0</ele>
        <time>2014-06-30T13:02:30Z</time>
      </trkpt>
      <trkpt lat="40.525067" lon="-5.164250">
        <ele>2303.0</ele>
        <time>2014-06-30T13:02:31Z</time>
      </trkpt>
      <trkpt lat="40.525017" lon="-5.164117">
        <ele>2301.0</ele>
        <time>2014-06-30T13:02:32Z</time>
      </trkpt>
      <trkpt lat="40.524967" lon="-5.163967">
        <ele>2299.0</ele>
        <time>2014-06-30T13:02:33Z</time>
      </trkpt>
      <trkpt lat="40.524917" lon="-5.163817">
        <ele>2297.0</ele>
        <time>2014-06-30T13:02:34Z</time>
      </trkpt>
      <trkpt lat="40.524867" lon="-5.163667">
        <ele>2295.0</ele>
        <time>2014-06-30T13:02:35Z</time>
      </trkpt>
      <trkpt lat="40.524800" lon="-5.163500">
        <ele>2293.0</ele>
        <time>2014-06-30T13:02:36Z</time>
      </trkpt>
      <trkpt lat="40.524733" lon="-5.163383">
        <ele>2293.0</ele>
        <time>2014-06-30T13:02:37Z</time>
      </trkpt>
      <trkpt lat="40.524650" lon="-5.163250">
        <ele>2294.0</ele>
        <time>2014-06-30T13:02:38Z</time>
      </trkpt>
      <trkpt lat="40.524583" lon="-5.163150">
        <ele>2296.0</ele>
        <time>2014-06-30T13:02:39Z</time>
      </trkpt>
      <trkpt lat="40.524533" lon="-5.163017">
        <ele>2296.0</ele>
        <time>2014-06-30T13:02:40Z</time>
      </trkpt>
      <trkpt lat="40.524483" lon="-5.162900">
        <ele>2295.0</ele>
        <time>2014-06-30T13:02:41Z</time>
      </trkpt>
      <trkpt lat="40.524417" lon="-5.162767">
        <ele>2294.0</ele>
        <time>2014-06-30T13:02:42Z</time>
      </trkpt>
      <trkpt lat="40.524350" lon="-5.162650">
        <ele>2293.0</ele>
        <time>2014-06-30T13:02:43Z</time>
      </trkpt>
      <trkpt lat="40.524267" lon="-5.162550">
        <ele>2292.0</ele>
        <time>2014-06-30T13:02:44Z</time>
      </trkpt>
      <trkpt lat="40.524200" lon="-5.162517">
        <ele>2291.0</ele>
        <time>2014-06-30T13:02:45Z</time>
      </trkpt>
      <trkpt lat="40.524133" lon="-5.162533">
        <ele>2289.0</ele>
        <time>2014-06-30T13:02:46Z</time>
      </trkpt>
      <trkpt lat="40.524067" lon="-5.162567">
        <ele>2288.0</ele>
        <time>2014-06-30T13:02:47Z</time>
      </trkpt>
      <trkpt lat="40.524000" lon="-5.162617">
        <ele>2286.0</ele>
        <time>2014-06-30T13:02:48Z</time>
      </trkpt>
      <trkpt lat="40.523950" lon="-5.162683">
        <ele>2288.0</ele>
        <time>2014-06-30T13:02:49Z</time>
      </trkpt>
      <trkpt lat="40.523917" lon="-5.162750">
        <ele>2289.0</ele>
        <time>2014-06-30T13:02:50Z</time>
      </trkpt>
      <trkpt lat="40.523883" lon="-5.162800">
        <ele>2289.0</ele>
        <time>2014-06-30T13:02:51Z</time>
      </trkpt>
      <trkpt lat="40.523850" lon="-5.162850">
        <ele>2289.0</ele>
        <time>2014-06-30T13:02:52Z</time>
      </trkpt>
      <trkpt lat="40.523833" lon="-5.162917">
        <ele>2289.0</ele>
        <time>2014-06-30T13:02:53Z</time>
      </trkpt>
      <trkpt lat="40.523833" lon="-5.162983">
        <ele>2290.0</ele>
        <time>2014-06-30T13:02:54Z</time>
      </trkpt>
      <trkpt lat="40.523817" lon="-5.163067">
        <ele>2290.0</ele>
        <time>2014-06-30T13:02:55Z</time>
      </trkpt>
      <trkpt lat="40.523800" lon="-5.163133">
        <ele>2291.0</ele>
        <time>2014-06-30T13:02:56Z</time>
      </trkpt>
      <trkpt lat="40.523800" lon="-5.163200">
        <ele>2292.0</ele>
        <time>2014-06-30T13:02:57Z</time>
      </trkpt>
      <trkpt lat="40.523800" lon="-5.163250">
        <ele>2294.0</ele>
        <time>2014-06-30T13:02:58Z</time>
      </trkpt>
      <trkpt lat="40.523817" lon="-5.163300">
        <ele>2295.0</ele>
        <time>2014-06-30T13:02:59Z</time>
      </trkpt>
      <trkpt lat="40.523850" lon="-5.163333">
        <ele>2296.0</ele>
        <time>2014-06-30T13:03:00Z</time>
      </trkpt>
      <trkpt lat="40.523900" lon="-5.163367">
        <ele>2297.0</ele>
        <time>2014-06-30T13:03:01Z</time>
      </trkpt>
      <trkpt lat="40.523950" lon="-5.163383">
        <ele>2299.0</ele>
        <time>2014-06-30T13:03:02Z</time>
      </trkpt>
      <trkpt lat="40.524017" lon="-5.163383">
        <ele>2300.0</ele>
        <time>2014-06-30T13:03:03Z</time>
      </trkpt>
      <trkpt lat="40.524083" lon="-5.163333">
        <ele>2301.0</ele>
        <time>2014-06-30T13:03:04Z</time>
      </trkpt>
      <trkpt lat="40.524167" lon="-5.163250">
        <ele>2301.0</ele>
        <time>2014-06-30T13:03:05Z</time>
      </trkpt>
      <trkpt lat="40.524250" lon="-5.163117">
        <ele>2301.0</ele>
        <time>2014-06-30T13:03:06Z</time>
      </trkpt>
      <trkpt lat="40.524300" lon="-5.162967">
        <ele>2301.0</ele>
        <time>2014-06-30T13:03:07Z</time>
      </trkpt>
      <trkpt lat="40.524317" lon="-5.162817">
        <ele>2302.0</ele>
        <time>2014-06-30T13:03:08Z</time>
      </trkpt>
      <trkpt lat="40.524317" lon="-5.162667">
        <ele>2302.0</ele>
        <time>2014-06-30T13:03:09Z</time>
      </trkpt>
      <trkpt lat="40.524300" lon="-5.162517">
        <ele>2301.0</ele>
        <time>2014-06-30T13:03:10Z</time>
      </trkpt>
      <trkpt lat="40.524283" lon="-5.162367">
        <ele>2301.0</ele>
        <time>2014-06-30T13:03:11Z</time>
      </trkpt>
      <trkpt lat="40.524250" lon="-5.162217">
        <ele>2300.0</ele>
        <time>2014-06-30T13:03:12Z</time>
      </trkpt>
      <trkpt lat="40.524200" lon="-5.162083">
        <ele>2300.0</ele>
        <time>2014-06-30T13:03:13Z</time>
      </trkpt>
      <trkpt lat="40.524133" lon="-5.161950">
        <ele>2299.0</ele>
        <time>2014-06-30T13:03:14Z</time>
      </trkpt>
      <trkpt lat="40.524050" lon="-5.161850">
        <ele>2298.0</ele>
        <time>2014-06-30T13:03:15Z</time>
      </trkpt>
      <trkpt lat="40.523950" lon="-5.161767">
        <ele>2297.0</ele>
        <time>2014-06-30T13:03:16Z</time>
      </trkpt>
      <trkpt lat="40.523850" lon="-5.161683">
        <ele>2295.0</ele>
        <time>2014-06-30T13:03:17Z</time>
      </trkpt>
      <trkpt lat="40.523733" lon="-5.161617">
        <ele>2295.0</ele>
        <time>2014-06-30T13:03:18Z</time>
      </trkpt>
      <trkpt lat="40.523633" lon="-5.161550">
        <ele>2294.0</ele>
        <time>2014-06-30T13:03:19Z</time>
      </trkpt>
      <trkpt lat="40.523517" lon="-5.161483">
        <ele>2295.0</ele>
        <time>2014-06-30T13:03:20Z</time>
      </trkpt>
      <trkpt lat="40.523417" lon="-5.161433">
        <ele>2298.0</ele>
        <time>2014-06-30T13:03:21Z</time>
      </trkpt>
      <trkpt lat="40.523350" lon="-5.161367">
        <ele>2299.0</ele>
        <time>2014-06-30T13:03:22Z</time>
      </trkpt>
      <trkpt lat="40.523250" lon="-5.161317">
        <ele>2301.0</ele>
        <time>2014-06-30T13:03:23Z</time>
      </trkpt>
      <trkpt lat="40.523167" lon="-5.161267">
        <ele>2302.0</ele>
        <time>2014-06-30T13:03:24Z</time>
      </trkpt>
      <trkpt lat="40.523067" lon="-5.161217">
        <ele>2303.0</ele>
        <time>2014-06-30T13:03:25Z</time>
      </trkpt>
      <trkpt lat="40.522983" lon="-5.161183">
        <ele>2303.0</ele>
        <time>2014-06-30T13:03:26Z</time>
      </trkpt>
      <trkpt lat="40.522883" lon="-5.161167">
        <ele>2304.0</ele>
        <time>2014-06-30T13:03:27Z</time>
      </trkpt>
      <trkpt lat="40.522800" lon="-5.161167">
        <ele>2304.0</ele>
        <time>2014-06-30T13:03:28Z</time>
      </trkpt>
      <trkpt lat="40.522733" lon="-5.161200">
        <ele>2305.0</ele>
        <time>2014-06-30T13:03:29Z</time>
      </trkpt>
      <trkpt lat="40.522667" lon="-5.161233">
        <ele>2304.0</ele>
        <time>2014-06-30T13:03:30Z</time>
      </trkpt>
      <trkpt lat="40.522617" lon="-5.161267">
        <ele>2304.0</ele>
        <time>2014-06-30T13:03:31Z</time>
      </trkpt>
      <trkpt lat="40.522567" lon="-5.161317">
        <ele>2304.0</ele>
        <time>2014-06-30T13:03:32Z</time>
      </trkpt>
      <trkpt lat="40.522550" lon="-5.161350">
        <ele>2303.0</ele>
        <time>2014-06-30T13:03:33Z</time>
      </trkpt>
      <trkpt lat="40.522550" lon="-5.161400">
        <ele>2302.0</ele>
        <time>2014-06-30T13:03:34Z</time>
      </trkpt>
      <trkpt lat="40.522567" lon="-5.161433">
        <ele>2301.0</ele>
        <time>2014-06-30T13:03:35Z</time>
      </trkpt>
      <trkpt lat="40.522567" lon="-5.161483">
        <ele>2300.0</ele>
        <time>2014-06-30T13:03:36Z</time>
      </trkpt>
      <trkpt lat="40.522583" lon="-5.161533">
        <ele>2301.0</ele>
        <time>2014-06-30T13:03:37Z</time>
      </trkpt>
      <trkpt lat="40.522600" lon="-5.161550">
        <ele>2302.0</ele>
        <time>2014-06-30T13:03:38Z</time>
      </trkpt>
      <trkpt lat="40.522600" lon="-5.161583">
        <ele>2303.0</ele>
        <time>2014-06-30T13:03:39Z</time>
      </trkpt>
      <trkpt lat="40.522633" lon="-5.161583">
        <ele>2302.0</ele>
        <time>2014-06-30T13:03:40Z</time>
      </trkpt>
      <trkpt lat="40.522667" lon="-5.161600">
        <ele>2301.0</ele>
        <time>2014-06-30T13:03:41Z</time>
      </trkpt>
      <trkpt lat="40.522700" lon="-5.161600">
        <ele>2300.0</ele>
        <time>2014-06-30T13:03:42Z</time>
      </trkpt>
      <trkpt lat="40.522750" lon="-5.161583">
        <ele>2299.0</ele>
        <time>2014-06-30T13:03:43Z</time>
      </trkpt>
      <trkpt lat="40.522800" lon="-5.161567">
        <ele>2298.0</ele>
        <time>2014-06-30T13:03:44Z</time>
      </trkpt>
      <trkpt lat="40.522867" lon="-5.161533">
        <ele>2296.0</ele>
        <time>2014-06-30T13:03:45Z</time>
      </trkpt>
      <trkpt lat="40.522917" lon="-5.161517">
        <ele>2295.0</ele>
        <time>2014-06-30T13:03:46Z</time>
      </trkpt>
      <trkpt lat="40.522983" lon="-5.161500">
        <ele>2294.0</ele>
        <time>2014-06-30T13:03:47Z</time>
      </trkpt>
      <trkpt lat="40.523033" lon="-5.161483">
        <ele>2294.0</ele>
        <time>2014-06-30T13:03:48Z</time>
      </trkpt>
      <trkpt lat="40.523083" lon="-5.161483">
        <ele>2294.0</ele>
        <time>2014-06-30T13:03:49Z</time>
      </trkpt>
      <trkpt lat="40.523133" lon="-5.161483">
        <ele>2293.0</ele>
        <time>2014-06-30T13:03:50Z</time>
      </trkpt>
      <trkpt lat="40.523183" lon="-5.161450">
        <ele>2292.0</ele>
        <time>2014-06-30T13:03:51Z</time>
      </trkpt>
      <trkpt lat="40.523250" lon="-5.161417">
        <ele>2292.0</ele>
        <time>2014-06-30T13:03:52Z</time>
      </trkpt>
      <trkpt lat="40.523300" lon="-5.161383">
        <ele>2291.0</ele>
        <time>2014-06-30T13:03:53Z</time>
      </trkpt>
      <trkpt lat="40.523350" lon="-5.161350">
        <ele>2290.0</ele>
        <time>2014-06-30T13:03:54Z</time>
      </trkpt>
      <trkpt lat="40.523417" lon="-5.161317">
        <ele>2289.0</ele>
        <time>2014-06-30T13:03:55Z</time>
      </trkpt>
      <trkpt lat="40.523483" lon="-5.161267">
        <ele>2287.0</ele>
        <time>2014-06-30T13:03:56Z</time>
      </trkpt>
      <trkpt lat="40.523533" lon="-5.161200">
        <ele>2286.0</ele>
        <time>2014-06-30T13:03:57Z</time>
      </trkpt>
      <trkpt lat="40.523600" lon="-5.161150">
        <ele>2284.0</ele>
        <time>2014-06-30T13:03:58Z</time>
      </trkpt>
      <trkpt lat="40.523667" lon="-5.161100">
        <ele>2282.0</ele>
        <time>2014-06-30T13:03:59Z</time>
      </trkpt>
      <trkpt lat="40.523733" lon="-5.161033">
        <ele>2280.0</ele>
        <time>2014-06-30T13:04:00Z</time>
      </trkpt>
      <trkpt lat="40.523800" lon="-5.160933">
        <ele>2278.0</ele>
        <time>2014-06-30T13:04:01Z</time>
      </trkpt>
      <trkpt lat="40.523867" lon="-5.160783">
        <ele>2276.0</ele>
        <time>2014-06-30T13:04:02Z</time>
      </trkpt>
      <trkpt lat="40.523917" lon="-5.160600">
        <ele>2275.0</ele>
        <time>2014-06-30T13:04:03Z</time>
      </trkpt>
      <trkpt lat="40.523950" lon="-5.160400">
        <ele>2274.0</ele>
        <time>2014-06-30T13:04:04Z</time>
      </trkpt>
      <trkpt lat="40.523983" lon="-5.160233">
        <ele>2275.0</ele>
        <time>2014-06-30T13:04:05Z</time>
      </trkpt>
      <trkpt lat="40.523983" lon="-5.160050">
        <ele>2277.0</ele>
        <time>2014-06-30T13:04:06Z</time>
      </trkpt>
      <trkpt lat="40.523983" lon="-5.159883">
        <ele>2278.0</ele>
        <time>2014-06-30T13:04:07Z</time>
      </trkpt>
      <trkpt lat="40.523967" lon="-5.159717">
        <ele>2279.0</ele>
        <time>2014-06-30T13:04:08Z</time>
      </trkpt>
      <trkpt lat="40.523950" lon="-5.159533">
        <ele>2279.0</ele>
        <time>2014-06-30T13:04:09Z</time>
      </trkpt>
      <trkpt lat="40.523933" lon="-5.159317">
        <ele>2279.0</ele>
        <time>2014-06-30T13:04:10Z</time>
      </trkpt>
      <trkpt lat="40.523917" lon="-5.159100">
        <ele>2279.0</ele>
        <time>2014-06-30T13:04:11Z</time>
      </trkpt>
      <trkpt lat="40.523900" lon="-5.158883">
        <ele>2280.0</ele>
        <time>2014-06-30T13:04:12Z</time>
      </trkpt>
      <trkpt lat="40.523867" lon="-5.158700">
        <ele>2281.0</ele>
        <time>2014-06-30T13:04:13Z</time>
      </trkpt>
      <trkpt lat="40.523833" lon="-5.158550">
        <ele>2284.0</ele>
        <time>2014-06-30T13:04:14Z</time>
      </trkpt>
      <trkpt lat="40.523767" lon="-5.158417">
        <ele>2286.0</ele>
        <time>2014-06-30T13:04:15Z</time>
      </trkpt>
      <trkpt lat="40.523683" lon="-5.158283">
        <ele>2286.0</ele>
        <time>2014-06-30T13:04:16Z</time>
      </trkpt>
      <trkpt lat="40.523583" lon="-5.158167">
        <ele>2287.0</ele>
        <time>2014-06-30T13:04:17Z</time>
      </trkpt>
      <trkpt lat="40.523467" lon="-5.158083">
        <ele>2288.0</ele>
        <time>2014-06-30T13:04:18Z</time>
      </trkpt>
      <trkpt lat="40.523383" lon="-5.158000">
        <ele>2289.0</ele>
        <time>2014-06-30T13:04:19Z</time>
      </trkpt>
      <trkpt lat="40.523300" lon="-5.157933">
        <ele>2291.0</ele>
        <time>2014-06-30T13:04:20Z</time>
      </trkpt>
      <trkpt lat="40.523217" lon="-5.157850">
        <ele>2292.0</ele>
        <time>2014-06-30T13:04:21Z</time>
      </trkpt>
      <trkpt lat="40.523133" lon="-5.157767">
        <ele>2293.0</ele>
        <time>2014-06-30T13:04:22Z</time>
      </trkpt>
      <trkpt lat="40.523033" lon="-5.157700">
        <ele>2293.0</ele>
        <time>2014-06-30T13:04:23Z</time>
      </trkpt>
      <trkpt lat="40.522950" lon="-5.157667">
        <ele>2294.0</ele>
        <time>2014-06-30T13:04:24Z</time>
      </trkpt>
      <trkpt lat="40.522850" lon="-5.157683">
        <ele>2295.0</ele>
        <time>2014-06-30T13:04:25Z</time>
      </trkpt>
      <trkpt lat="40.522783" lon="-5.157717">
        <ele>2295.0</ele>
        <time>2014-06-30T13:04:26Z</time>
      </trkpt>
      <trkpt lat="40.522750" lon="-5.157783">
        <ele>2296.0</ele>
        <time>2014-06-30T13:04:27Z</time>
      </trkpt>
      <trkpt lat="40.522717" lon="-5.157850">
        <ele>2296.0</ele>
        <time>2014-06-30T13:04:28Z</time>
      </trkpt>
      <trkpt lat="40.522717" lon="-5.157900">
        <ele>2297.0</ele>
        <time>2014-06-30T13:04:29Z</time>
      </trkpt>
      <trkpt lat="40.522733" lon="-5.157950">
        <ele>2298.0</ele>
        <time>2014-06-30T13:04:30Z</time>
      </trkpt>
      <trkpt lat="40.522767" lon="-5.157983">
        <ele>2298.0</ele>
        <time>2014-06-30T13:04:31Z</time>
      </trkpt>
      <trkpt lat="40.522800" lon="-5.158017">
        <ele>2299.0</ele>
        <time>2014-06-30T13:04:32Z</time>
      </trkpt>
      <trkpt lat="40.522833" lon="-5.158033">
        <ele>2300.0</ele>
        <time>2014-06-30T13:04:33Z</time>
      </trkpt>
      <trkpt lat="40.522867" lon="-5.158050">
        <ele>2298.0</ele>
        <time>2014-06-30T13:04:34Z</time>
      </trkpt>
      <trkpt lat="40.522900" lon="-5.158050">
        <ele>2298.0</ele>
        <time>2014-06-30T13:04:35Z</time>
      </trkpt>
      <trkpt lat="40.522950" lon="-5.158050">
        <ele>2296.0</ele>
        <time>2014-06-30T13:04:36Z</time>
      </trkpt>
      <trkpt lat="40.523000" lon="-5.158033">
        <ele>2295.0</ele>
        <time>2014-06-30T13:04:37Z</time>
      </trkpt>
      <trkpt lat="40.523067" lon="-5.158017">
        <ele>2294.0</ele>
        <time>2014-06-30T13:04:38Z</time>
      </trkpt>
      <trkpt lat="40.523150" lon="-5.158000">
        <ele>2294.0</ele>
        <time>2014-06-30T13:04:39Z</time>
      </trkpt>
      <trkpt lat="40.523217" lon="-5.157967">
        <ele>2295.0</ele>
        <time>2014-06-30T13:04:40Z</time>
      </trkpt>
      <trkpt lat="40.523283" lon="-5.157933">
        <ele>2297.0</ele>
        <time>2014-06-30T13:04:41Z</time>
      </trkpt>
      <trkpt lat="40.523333" lon="-5.157883">
        <ele>2298.0</ele>
        <time>2014-06-30T13:04:42Z</time>
      </trkpt>
      <trkpt lat="40.523383" lon="-5.157850">
        <ele>2299.0</ele>
        <time>2014-06-30T13:04:43Z</time>
      </trkpt>
      <trkpt lat="40.523450" lon="-5.157833">
        <ele>2298.0</ele>
        <time>2014-06-30T13:04:44Z</time>
      </trkpt>
      <trkpt lat="40.523550" lon="-5.157783">
        <ele>2298.0</ele>
        <time>2014-06-30T13:04:45Z</time>
      </trkpt>
      <trkpt lat="40.523633" lon="-5.157733">
        <ele>2297.0</ele>
        <time>2014-06-30T13:04:46Z</time>
      </trkpt>
      <trkpt lat="40.523717" lon="-5.157633">
        <ele>2297.0</ele>
        <time>2014-06-30T13:04:47Z</time>
      </trkpt>
      <trkpt lat="40.523783" lon="-5.157517">
        <ele>2297.0</ele>
        <time>2014-06-30T13:04:48Z</time>
      </trkpt>
      <trkpt lat="40.523833" lon="-5.157367">
        <ele>2297.0</ele>
        <time>2014-06-30T13:04:49Z</time>
      </trkpt>
      <trkpt lat="40.523883" lon="-5.157217">
        <ele>2297.0</ele>
        <time>2014-06-30T13:04:50Z</time>
      </trkpt>
      <trkpt lat="40.523933" lon="-5.157050">
        <ele>2297.0</ele>
        <time>2014-06-30T13:04:51Z</time>
      </trkpt>
      <trkpt lat="40.524000" lon="-5.156917">
        <ele>2297.0</ele>
        <time>2014-06-30T13:04:52Z</time>
      </trkpt>
      <trkpt lat="40.524050" lon="-5.156783">
        <ele>2298.0</ele>
        <time>2014-06-30T13:04:53Z</time>
      </trkpt>
      <trkpt lat="40.524133" lon="-5.156667">
        <ele>2298.0</ele>
        <time>2014-06-30T13:04:54Z</time>
      </trkpt>
      <trkpt lat="40.524200" lon="-5.156550">
        <ele>2298.0</ele>
        <time>2014-06-30T13:04:55Z</time>
      </trkpt>
      <trkpt lat="40.524267" lon="-5.156400">
        <ele>2298.0</ele>
        <time>2014-06-30T13:04:56Z</time>
      </trkpt>
      <trkpt lat="40.524300" lon="-5.156233">
        <ele>2298.0</ele>
        <time>2014-06-30T13:04:57Z</time>
      </trkpt>
      <trkpt lat="40.524317" lon="-5.156050">
        <ele>2297.0</ele>
        <time>2014-06-30T13:04:58Z</time>
      </trkpt>
      <trkpt lat="40.524300" lon="-5.155867">
        <ele>2297.0</ele>
        <time>2014-06-30T13:04:59Z</time>
      </trkpt>
      <trkpt lat="40.524267" lon="-5.155683">
        <ele>2297.0</ele>
        <time>2014-06-30T13:05:00Z</time>
      </trkpt>
      <trkpt lat="40.524233" lon="-5.155533">
        <ele>2297.0</ele>
        <time>2014-06-30T13:05:01Z</time>
      </trkpt>
      <trkpt lat="40.524183" lon="-5.155400">
        <ele>2296.0</ele>
        <time>2014-06-30T13:05:02Z</time>
      </trkpt>
      <trkpt lat="40.524100" lon="-5.155267">
        <ele>2296.0</ele>
        <time>2014-06-30T13:05:03Z</time>
      </trkpt>
      <trkpt lat="40.524017" lon="-5.155183">
        <ele>2296.0</ele>
        <time>2014-06-30T13:05:04Z</time>
      </trkpt>
      <trkpt lat="40.523917" lon="-5.155117">
        <ele>2295.0</ele>
        <time>2014-06-30T13:05:05Z</time>
      </trkpt>
      <trkpt lat="40.523817" lon="-5.155067">
        <ele>2295.0</ele>
        <time>2014-06-30T13:05:06Z</time>
      </trkpt>
      <trkpt lat="40.523733" lon="-5.155000">
        <ele>2295.0</ele>
        <time>2014-06-30T13:05:07Z</time>
      </trkpt>
      <trkpt lat="40.523667" lon="-5.154917">
        <ele>2295.0</ele>
        <time>2014-06-30T13:05:08Z</time>
      </trkpt>
      <trkpt lat="40.523600" lon="-5.154800">
        <ele>2294.0</ele>
        <time>2014-06-30T13:05:09Z</time>
      </trkpt>
      <trkpt lat="40.523533" lon="-5.154683">
        <ele>2292.0</ele>
        <time>2014-06-30T13:05:10Z</time>
      </trkpt>
      <trkpt lat="40.523450" lon="-5.154567">
        <ele>2290.0</ele>
        <time>2014-06-30T13:05:11Z</time>
      </trkpt>
      <trkpt lat="40.523367" lon="-5.154433">
        <ele>2288.0</ele>
        <time>2014-06-30T13:05:12Z</time>
      </trkpt>
      <trkpt lat="40.523300" lon="-5.154283">
        <ele>2286.0</ele>
        <time>2014-06-30T13:05:13Z</time>
      </trkpt>
      <trkpt lat="40.523233" lon="-5.154150">
        <ele>2285.0</ele>
        <time>2014-06-30T13:05:14Z</time>
      </trkpt>
      <trkpt lat="40.523167" lon="-5.154033">
        <ele>2284.0</ele>
        <time>2014-06-30T13:05:15Z</time>
      </trkpt>
      <trkpt lat="40.523100" lon="-5.153900">
        <ele>2283.0</ele>
        <time>2014-06-30T13:05:16Z</time>
      </trkpt>
      <trkpt lat="40.523033" lon="-5.153783">
        <ele>2284.0</ele>
        <time>2014-06-30T13:05:17Z</time>
      </trkpt>
      <trkpt lat="40.522967" lon="-5.153667">
        <ele>2285.0</ele>
        <time>2014-06-30T13:05:18Z</time>
      </trkpt>
      <trkpt lat="40.522917" lon="-5.153567">
        <ele>2286.0</ele>
        <time>2014-06-30T13:05:19Z</time>
      </trkpt>
      <trkpt lat="40.522883" lon="-5.153450">
        <ele>2287.0</ele>
        <time>2014-06-30T13:05:20Z</time>
      </trkpt>
      <trkpt lat="40.522833" lon="-5.153317">
        <ele>2286.0</ele>
        <time>2014-06-30T13:05:21Z</time>
      </trkpt>
      <trkpt lat="40.522800" lon="-5.153167">
        <ele>2285.0</ele>
        <time>2014-06-30T13:05:22Z</time>
      </trkpt>
      <trkpt lat="40.522750" lon="-5.153017">
        <ele>2285.0</ele>
        <time>2014-06-30T13:05:23Z</time>
      </trkpt>
      <trkpt lat="40.522667" lon="-5.152900">
        <ele>2286.0</ele>
        <time>2014-06-30T13:05:24Z</time>
      </trkpt>
      <trkpt lat="40.522600" lon="-5.152817">
        <ele>2288.0</ele>
        <time>2014-06-30T13:05:25Z</time>
      </trkpt>
      <trkpt lat="40.522517" lon="-5.152767">
        <ele>2290.0</ele>
        <time>2014-06-30T13:05:26Z</time>
      </trkpt>
      <trkpt lat="40.522450" lon="-5.152767">
        <ele>2291.0</ele>
        <time>2014-06-30T13:05:27Z</time>
      </trkpt>
      <trkpt lat="40.522400" lon="-5.152783">
        <ele>2292.0</ele>
        <time>2014-06-30T13:05:28Z</time>
      </trkpt>
      <trkpt lat="40.522333" lon="-5.152817">
        <ele>2293.0</ele>
        <time>2014-06-30T13:05:29Z</time>
      </trkpt>
      <trkpt lat="40.522300" lon="-5.152883">
        <ele>2293.0</ele>
        <time>2014-06-30T13:05:30Z</time>
      </trkpt>
      <trkpt lat="40.522250" lon="-5.152950">
        <ele>2294.0</ele>
        <time>2014-06-30T13:05:31Z</time>
      </trkpt>
      <trkpt lat="40.522217" lon="-5.153017">
        <ele>2294.0</ele>
        <time>2014-06-30T13:05:32Z</time>
      </trkpt>
      <trkpt lat="40.522217" lon="-5.153100">
        <ele>2295.0</ele>
        <time>2014-06-30T13:05:33Z</time>
      </trkpt>
      <trkpt lat="40.522217" lon="-5.153150">
        <ele>2295.0</ele>
        <time>2014-06-30T13:05:34Z</time>
      </trkpt>
      <trkpt lat="40.522250" lon="-5.153217">
        <ele>2294.0</ele>
        <time>2014-06-30T13:05:35Z</time>
      </trkpt>
      <trkpt lat="40.522283" lon="-5.153283">
        <ele>2294.0</ele>
        <time>2014-06-30T13:05:36Z</time>
      </trkpt>
      <trkpt lat="40.522317" lon="-5.153350">
        <ele>2294.0</ele>
        <time>2014-06-30T13:05:37Z</time>
      </trkpt>
      <trkpt lat="40.522367" lon="-5.153417">
        <ele>2294.0</ele>
        <time>2014-06-30T13:05:38Z</time>
      </trkpt>
      <trkpt lat="40.522417" lon="-5.153467">
        <ele>2295.0</ele>
        <time>2014-06-30T13:05:39Z</time>
      </trkpt>
      <trkpt lat="40.522467" lon="-5.153500">
        <ele>2296.0</ele>
        <time>2014-06-30T13:05:40Z</time>
      </trkpt>
      <trkpt lat="40.522533" lon="-5.153500">
        <ele>2296.0</ele>
        <time>2014-06-30T13:05:41Z</time>
      </trkpt>
      <trkpt lat="40.522600" lon="-5.153500">
        <ele>2297.0</ele>
        <time>2014-06-30T13:05:42Z</time>
      </trkpt>
      <trkpt lat="40.522683" lon="-5.153483">
        <ele>2297.0</ele>
        <time>2014-06-30T13:05:43Z</time>
      </trkpt>
      <trkpt lat="40.522750" lon="-5.153433">
        <ele>2296.0</ele>
        <time>2014-06-30T13:05:44Z</time>
      </trkpt>
      <trkpt lat="40.522833" lon="-5.153383">
        <ele>2295.0</ele>
        <time>2014-06-30T13:05:45Z</time>
      </trkpt>
      <trkpt lat="40.522900" lon="-5.153283">
        <ele>2295.0</ele>
        <time>2014-06-30T13:05:46Z</time>
      </trkpt>
      <trkpt lat="40.522950" lon="-5.153167">
        <ele>2294.0</ele>
        <time>2014-06-30T13:05:47Z</time>
      </trkpt>
      <trkpt lat="40.523017" lon="-5.153017">
        <ele>2292.0</ele>
        <time>2014-06-30T13:05:48Z</time>
      </trkpt>
      <trkpt lat="40.523050" lon="-5.152867">
        <ele>2291.0</ele>
        <time>2014-06-30T13:05:49Z</time>
      </trkpt>
      <trkpt lat="40.523083" lon="-5.152733">
        <ele>2290.0</ele>
        <time>2014-06-30T13:05:50Z</time>
      </trkpt>
      <trkpt lat="40.523100" lon="-5.152600">
        <ele>2290.0</ele>
        <time>2014-06-30T13:05:51Z</time>
      </trkpt>
      <trkpt lat="40.523083" lon="-5.152467">
        <ele>2290.0</ele>
        <time>2014-06-30T13:05:52Z</time>
      </trkpt>
      <trkpt lat="40.523067" lon="-5.152333">
        <ele>2289.0</ele>
        <time>2014-06-30T13:05:53Z</time>
      </trkpt>
      <trkpt lat="40.523033" lon="-5.152200">
        <ele>2288.0</ele>
        <time>2014-06-30T13:05:54Z</time>
      </trkpt>
      <trkpt lat="40.522983" lon="-5.152050">
        <ele>2286.0</ele>
        <time>2014-06-30T13:05:55Z</time>
      </trkpt>
      <trkpt lat="40.522933" lon="-5.151917">
        <ele>2286.0</ele>
        <time>2014-06-30T13:05:56Z</time>
      </trkpt>
      <trkpt lat="40.522867" lon="-5.151783">
        <ele>2286.0</ele>
        <time>2014-06-30T13:05:57Z</time>
      </trkpt>
      <trkpt lat="40.522817" lon="-5.151667">
        <ele>2287.0</ele>
        <time>2014-06-30T13:05:58Z</time>
      </trkpt>
      <trkpt lat="40.522767" lon="-5.151583">
        <ele>2288.0</ele>
        <time>2014-06-30T13:05:59Z</time>
      </trkpt>
      <trkpt lat="40.522717" lon="-5.151500">
        <ele>2290.0</ele>
        <time>2014-06-30T13:06:00Z</time>
      </trkpt>
      <trkpt lat="40.522667" lon="-5.151417">
        <ele>2291.0</ele>
        <time>2014-06-30T13:06:01Z</time>
      </trkpt>
      <trkpt lat="40.522617" lon="-5.151300">
        <ele>2292.0</ele>
        <time>2014-06-30T13:06:02Z</time>
      </trkpt>
      <trkpt lat="40.522600" lon="-5.151183">
        <ele>2292.0</ele>
        <time>2014-06-30T13:06:03Z</time>
      </trkpt>
      <trkpt lat="40.522567" lon="-5.151067">
        <ele>2292.0</ele>
        <time>2014-06-30T13:06:04Z</time>
      </trkpt>
      <trkpt lat="40.522533" lon="-5.150933">
        <ele>2292.0</ele>
        <time>2014-06-30T13:06:05Z</time>
      </trkpt>
      <trkpt lat="40.522483" lon="-5.150833">
        <ele>2292.0</ele>
        <time>2014-06-30T13:06:06Z</time>
      </trkpt>
      <trkpt lat="40.522400" lon="-5.150750">
        <ele>2292.0</ele>
        <time>2014-06-30T13:06:07Z</time>
      </trkpt>
      <trkpt lat="40.522317" lon="-5.150717">
        <ele>2291.0</ele>
        <time>2014-06-30T13:06:08Z</time>
      </trkpt>
      <trkpt lat="40.522233" lon="-5.150717">
        <ele>2291.0</ele>
        <time>2014-06-30T13:06:09Z</time>
      </trkpt>
      <trkpt lat="40.522150" lon="-5.150717">
        <ele>2291.0</ele>
        <time>2014-06-30T13:06:10Z</time>
      </trkpt>
      <trkpt lat="40.522100" lon="-5.150783">
        <ele>2292.0</ele>
        <time>2014-06-30T13:06:11Z</time>
      </trkpt>
      <trkpt lat="40.522067" lon="-5.150850">
        <ele>2291.0</ele>
        <time>2014-06-30T13:06:12Z</time>
      </trkpt>
      <trkpt lat="40.522067" lon="-5.150933">
        <ele>2290.0</ele>
        <time>2014-06-30T13:06:13Z</time>
      </trkpt>
      <trkpt lat="40.522083" lon="-5.151017">
        <ele>2290.0</ele>
        <time>2014-06-30T13:06:14Z</time>
      </trkpt>
      <trkpt lat="40.522100" lon="-5.151083">
        <ele>2290.0</ele>
        <time>2014-06-30T13:06:15Z</time>
      </trkpt>
      <trkpt lat="40.522133" lon="-5.151133">
        <ele>2291.0</ele>
        <time>2014-06-30T13:06:16Z</time>
      </trkpt>
      <trkpt lat="40.522167" lon="-5.151183">
        <ele>2291.0</ele>
        <time>2014-06-30T13:06:17Z</time>
      </trkpt>
      <trkpt lat="40.522200" lon="-5.151250">
        <ele>2290.0</ele>
        <time>2014-06-30T13:06:18Z</time>
      </trkpt>
      <trkpt lat="40.522250" lon="-5.151300">
        <ele>2289.0</ele>
        <time>2014-06-30T13:06:19Z</time>
      </trkpt>
      <trkpt lat="40.522317" lon="-5.151350">
        <ele>2289.0</ele>
        <time>2014-06-30T13:06:20Z</time>
      </trkpt>
      <trkpt lat="40.522400" lon="-5.151383">
        <ele>2288.0</ele>
        <time>2014-06-30T13:06:21Z</time>
      </trkpt>
      <trkpt lat="40.522467" lon="-5.151400">
        <ele>2287.0</ele>
        <time>2014-06-30T13:06:22Z</time>
      </trkpt>
      <trkpt lat="40.522550" lon="-5.151400">
        <ele>2286.0</ele>
        <time>2014-06-30T13:06:23Z</time>
      </trkpt>
      <trkpt lat="40.522633" lon="-5.151400">
        <ele>2286.0</ele>
        <time>2014-06-30T13:06:24Z</time>
      </trkpt>
      <trkpt lat="40.522717" lon="-5.151367">
        <ele>2286.0</ele>
        <time>2014-06-30T13:06:25Z</time>
      </trkpt>
      <trkpt lat="40.522800" lon="-5.151333">
        <ele>2285.0</ele>
        <time>2014-06-30T13:06:26Z</time>
      </trkpt>
      <trkpt lat="40.522867" lon="-5.151283">
        <ele>2285.0</ele>
        <time>2014-06-30T13:06:27Z</time>
      </trkpt>
      <trkpt lat="40.522950" lon="-5.151217">
        <ele>2285.0</ele>
        <time>2014-06-30T13:06:28Z</time>
      </trkpt>
      <trkpt lat="40.523033" lon="-5.151117">
        <ele>2284.0</ele>
        <time>2014-06-30T13:06:29Z</time>
      </trkpt>
      <trkpt lat="40.523117" lon="-5.151000">
        <ele>2283.0</ele>
        <time>2014-06-30T13:06:30Z</time>
      </trkpt>
      <trkpt lat="40.523167" lon="-5.150850">
        <ele>2282.0</ele>
        <time>2014-06-30T13:06:31Z</time>
      </trkpt>
      <trkpt lat="40.523233" lon="-5.150733">
        <ele>2281.0</ele>
        <time>2014-06-30T13:06:32Z</time>
      </trkpt>
      <trkpt lat="40.523300" lon="-5.150617">
        <ele>2280.0</ele>
        <time>2014-06-30T13:06:33Z</time>
      </trkpt>
      <trkpt lat="40.523383" lon="-5.150533">
        <ele>2278.0</ele>
        <time>2014-06-30T13:06:34Z</time>
      </trkpt>
      <trkpt lat="40.523483" lon="-5.150433">
        <ele>2277.0</ele>
        <time>2014-06-30T13:06:35Z</time>
      </trkpt>
      <trkpt lat="40.523567" lon="-5.150333">
        <ele>2276.0</ele>
        <time>2014-06-30T13:06:36Z</time>
      </trkpt>
      <trkpt lat="40.523633" lon="-5.150233">
        <ele>2275.0</ele>
        <time>2014-06-30T13:06:37Z</time>
      </trkpt>
      <trkpt lat="40.523683" lon="-5.150117">
        <ele>2275.0</ele>
        <time>2014-06-30T13:06:38Z</time>
      </trkpt>
      <trkpt lat="40.523717" lon="-5.149983">
        <ele>2274.0</ele>
        <time>2014-06-30T13:06:39Z</time>
      </trkpt>
      <trkpt lat="40.523733" lon="-5.149850">
        <ele>2273.0</ele>
        <time>2014-06-30T13:06:40Z</time>
      </trkpt>
      <trkpt lat="40.523767" lon="-5.149717">
        <ele>2272.0</ele>
        <time>2014-06-30T13:06:41Z</time>
      </trkpt>
      <trkpt lat="40.523767" lon="-5.149567">
        <ele>2271.0</ele>
        <time>2014-06-30T13:06:42Z</time>
      </trkpt>
      <trkpt lat="40.523783" lon="-5.149417">
        <ele>2270.0</ele>
        <time>2014-06-30T13:06:43Z</time>
      </trkpt>
      <trkpt lat="40.523800" lon="-5.149250">
        <ele>2269.0</ele>
        <time>2014-06-30T13:06:44Z</time>
      </trkpt>
      <trkpt lat="40.523833" lon="-5.149117">
        <ele>2269.0</ele>
        <time>2014-06-30T13:06:45Z</time>
      </trkpt>
      <trkpt lat="40.523867" lon="-5.148983">
        <ele>2268.0</ele>
        <time>2014-06-30T13:06:46Z</time>
      </trkpt>
      <trkpt lat="40.523900" lon="-5.148850">
        <ele>2268.0</ele>
        <time>2014-06-30T13:06:47Z</time>
      </trkpt>
      <trkpt lat="40.523933" lon="-5.148700">
        <ele>2267.0</ele>
        <time>2014-06-30T13:06:48Z</time>
      </trkpt>
      <trkpt lat="40.524000" lon="-5.148567">
        <ele>2267.0</ele>
        <time>2014-06-30T13:06:49Z</time>
      </trkpt>
      <trkpt lat="40.524067" lon="-5.148450">
        <ele>2265.0</ele>
        <time>2014-06-30T13:06:50Z</time>
      </trkpt>
      <trkpt lat="40.524150" lon="-5.148350">
        <ele>2264.0</ele>
        <time>2014-06-30T13:06:51Z</time>
      </trkpt>
      <trkpt lat="40.524217" lon="-5.148250">
        <ele>2264.0</ele>
        <time>2014-06-30T13:06:52Z</time>
      </trkpt>
      <trkpt lat="40.524300" lon="-5.148133">
        <ele>2263.0</ele>
        <time>2014-06-30T13:06:53Z</time>
      </trkpt>
      <trkpt lat="40.524367" lon="-5.148050">
        <ele>2263.0</ele>
        <time>2014-06-30T13:06:54Z</time>
      </trkpt>
      <trkpt lat="40.524433" lon="-5.147967">
        <ele>2263.0</ele>
        <time>2014-06-30T13:06:55Z</time>
      </trkpt>
      <trkpt lat="40.524517" lon="-5.147883">
        <ele>2262.0</ele>
        <time>2014-06-30T13:06:56Z</time>
      </trkpt>
      <trkpt lat="40.524600" lon="-5.147800">
        <ele>2262.0</ele>
        <time>2014-06-30T13:06:57Z</time>
      </trkpt>
      <trkpt lat="40.524683" lon="-5.147733">
        <ele>2261.0</ele>
        <time>2014-06-30T13:06:58Z</time>
      </trkpt>
      <trkpt lat="40.524767" lon="-5.147633">
        <ele>2259.0</ele>
        <time>2014-06-30T13:06:59Z</time>
      </trkpt>
      <trkpt lat="40.524850" lon="-5.147517">
        <ele>2257.0</ele>
        <time>2014-06-30T13:07:00Z</time>
      </trkpt>
      <trkpt lat="40.524917" lon="-5.147400">
        <ele>2256.0</ele>
        <time>2014-06-30T13:07:01Z</time>
      </trkpt>
      <trkpt lat="40.525000" lon="-5.147267">
        <ele>2255.0</ele>
        <time>2014-06-30T13:07:02Z</time>
      </trkpt>
      <trkpt lat="40.525067" lon="-5.147150">
        <ele>2254.0</ele>
        <time>2014-06-30T13:07:03Z</time>
      </trkpt>
      <trkpt lat="40.525150" lon="-5.147017">
        <ele>2253.0</ele>
        <time>2014-06-30T13:07:04Z</time>
      </trkpt>
      <trkpt lat="40.525233" lon="-5.146883">
        <ele>2252.0</ele>
        <time>2014-06-30T13:07:05Z</time>
      </trkpt>
      <trkpt lat="40.525300" lon="-5.146750">
        <ele>2250.0</ele>
        <time>2014-06-30T13:07:06Z</time>
      </trkpt>
      <trkpt lat="40.525383" lon="-5.146600">
        <ele>2249.0</ele>
        <time>2014-06-30T13:07:07Z</time>
      </trkpt>
      <trkpt lat="40.525450" lon="-5.146467">
        <ele>2249.0</ele>
        <time>2014-06-30T13:07:08Z</time>
      </trkpt>
      <trkpt lat="40.525533" lon="-5.146333">
        <ele>2249.0</ele>
        <time>2014-06-30T13:07:09Z</time>
      </trkpt>
      <trkpt lat="40.525617" lon="-5.146217">
        <ele>2248.0</ele>
        <time>2014-06-30T13:07:10Z</time>
      </trkpt>
      <trkpt lat="40.525700" lon="-5.146067">
        <ele>2247.0</ele>
        <time>2014-06-30T13:07:11Z</time>
      </trkpt>
      <trkpt lat="40.525783" lon="-5.145933">
        <ele>2245.0</ele>
        <time>2014-06-30T13:07:12Z</time>
      </trkpt>
      <trkpt lat="40.525867" lon="-5.145800">
        <ele>2244.0</ele>
        <time>2014-06-30T13:07:13Z</time>
      </trkpt>
      <trkpt lat="40.525950" lon="-5.145667">
        <ele>2245.0</ele>
        <time>2014-06-30T13:07:14Z</time>
      </trkpt>
      <trkpt lat="40.526033" lon="-5.145533">
        <ele>2246.0</ele>
        <time>2014-06-30T13:07:15Z</time>
      </trkpt>
      <trkpt lat="40.526117" lon="-5.145417">
        <ele>2247.0</ele>
        <time>2014-06-30T13:07:16Z</time>
      </trkpt>
      <trkpt lat="40.526183" lon="-5.145283">
        <ele>2247.0</ele>
        <time>2014-06-30T13:07:17Z</time>
      </trkpt>
      <trkpt lat="40.526267" lon="-5.145150">
        <ele>2247.0</ele>
        <time>2014-06-30T13:07:18Z</time>
      </trkpt>
      <trkpt lat="40.526333" lon="-5.145017">
        <ele>2247.0</ele>
        <time>2014-06-30T13:07:19Z</time>
      </trkpt>
      <trkpt lat="40.526433" lon="-5.144883">
        <ele>2246.0</ele>
        <time>2014-06-30T13:07:20Z</time>
      </trkpt>
      <trkpt lat="40.526533" lon="-5.144750">
        <ele>2246.0</ele>
        <time>2014-06-30T13:07:21Z</time>
      </trkpt>
      <trkpt lat="40.526633" lon="-5.144617">
        <ele>2245.0</ele>
        <time>2014-06-30T13:07:22Z</time>
      </trkpt>
      <trkpt lat="40.526733" lon="-5.144483">
        <ele>2246.0</ele>
        <time>2014-06-30T13:07:23Z</time>
      </trkpt>
      <trkpt lat="40.526817" lon="-5.144350">
        <ele>2247.0</ele>
        <time>2014-06-30T13:07:24Z</time>
      </trkpt>
      <trkpt lat="40.526883" lon="-5.144233">
        <ele>2249.0</ele>
        <time>2014-06-30T13:07:25Z</time>
      </trkpt>
      <trkpt lat="40.526950" lon="-5.144133">
        <ele>2250.0</ele>
        <time>2014-06-30T13:07:26Z</time>
      </trkpt>
      <trkpt lat="40.527033" lon="-5.144017">
        <ele>2251.0</ele>
        <time>2014-06-30T13:07:27Z</time>
      </trkpt>
      <trkpt lat="40.527133" lon="-5.143883">
        <ele>2250.0</ele>
        <time>2014-06-30T13:07:28Z</time>
      </trkpt>
      <trkpt lat="40.527233" lon="-5.143750">
        <ele>2249.0</ele>
        <time>2014-06-30T13:07:29Z</time>
      </trkpt>
      <trkpt lat="40.527333" lon="-5.143617">
        <ele>2249.0</ele>
        <time>2014-06-30T13:07:30Z</time>
      </trkpt>
      <trkpt lat="40.527433" lon="-5.143483">
        <ele>2249.0</ele>
        <time>2014-06-30T13:07:31Z</time>
      </trkpt>
      <trkpt lat="40.527517" lon="-5.143367">
        <ele>2250.0</ele>
        <time>2014-06-30T13:07:32Z</time>
      </trkpt>
      <trkpt lat="40.527600" lon="-5.143233">
        <ele>2250.0</ele>
        <time>2014-06-30T13:07:33Z</time>
      </trkpt>
      <trkpt lat="40.527683" lon="-5.143117">
        <ele>2250.0</ele>
        <time>2014-06-30T13:07:34Z</time>
      </trkpt>
      <trkpt lat="40.527783" lon="-5.142983">
        <ele>2250.0</ele>
        <time>2014-06-30T13:07:35Z</time>
      </trkpt>
      <trkpt lat="40.527883" lon="-5.142850">
        <ele>2251.0</ele>
        <time>2014-06-30T13:07:36Z</time>
      </trkpt>
      <trkpt lat="40.527967" lon="-5.142717">
        <ele>2254.0</ele>
        <time>2014-06-30T13:07:37Z</time>
      </trkpt>
      <trkpt lat="40.528050" lon="-5.142600">
        <ele>2257.0</ele>
        <time>2014-06-30T13:07:38Z</time>
      </trkpt>
      <trkpt lat="40.528117" lon="-5.142467">
        <ele>2260.0</ele>
        <time>2014-06-30T13:07:39Z</time>
      </trkpt>
      <trkpt lat="40.528183" lon="-5.142350">
        <ele>2262.0</ele>
        <time>2014-06-30T13:07:40Z</time>
      </trkpt>
      <trkpt lat="40.528267" lon="-5.142233">
        <ele>2264.0</ele>
        <time>2014-06-30T13:07:41Z</time>
      </trkpt>
      <trkpt lat="40.528333" lon="-5.142117">
        <ele>2265.0</ele>
        <time>2014-06-30T13:07:42Z</time>
      </trkpt>
      <trkpt lat="40.528417" lon="-5.141983">
        <ele>2266.0</ele>
        <time>2014-06-30T13:07:43Z</time>
      </trkpt>
      <trkpt lat="40.528467" lon="-5.141833">
        <ele>2267.0</ele>
        <time>2014-06-30T13:07:44Z</time>
      </trkpt>
      <trkpt lat="40.528500" lon="-5.141683">
        <ele>2267.0</ele>
        <time>2014-06-30T13:07:45Z</time>
      </trkpt>
      <trkpt lat="40.528517" lon="-5.141500">
        <ele>2268.0</ele>
        <time>2014-06-30T13:07:46Z</time>
      </trkpt>
      <trkpt lat="40.528483" lon="-5.141300">
        <ele>2267.0</ele>
        <time>2014-06-30T13:07:47Z</time>
      </trkpt>
      <trkpt lat="40.528433" lon="-5.141117">
        <ele>2265.0</ele>
        <time>2014-06-30T13:07:48Z</time>
      </trkpt>
      <trkpt lat="40.528350" lon="-5.140950">
        <ele>2263.0</ele>
        <time>2014-06-30T13:07:49Z</time>
      </trkpt>
      <trkpt lat="40.528250" lon="-5.140817">
        <ele>2261.0</ele>
        <time>2014-06-30T13:07:50Z</time>
      </trkpt>
      <trkpt lat="40.528150" lon="-5.140750">
        <ele>2260.0</ele>
        <time>2014-06-30T13:07:51Z</time>
      </trkpt>
      <trkpt lat="40.528050" lon="-5.140717">
        <ele>2259.0</ele>
        <time>2014-06-30T13:07:52Z</time>
      </trkpt>
      <trkpt lat="40.527950" lon="-5.140700">
        <ele>2259.0</ele>
        <time>2014-06-30T13:07:53Z</time>
      </trkpt>
      <trkpt lat="40.527900" lon="-5.140683">
        <ele>2263.0</ele>
        <time>2014-06-30T13:07:54Z</time>
      </trkpt>
      <trkpt lat="40.527833" lon="-5.140633">
        <ele>2265.0</ele>
        <time>2014-06-30T13:07:55Z</time>
      </trkpt>
      <trkpt lat="40.527783" lon="-5.140583">
        <ele>2267.0</ele>
        <time>2014-06-30T13:07:56Z</time>
      </trkpt>
      <trkpt lat="40.527717" lon="-5.140550">
        <ele>2267.0</ele>
        <time>2014-06-30T13:07:57Z</time>
      </trkpt>
      <trkpt lat="40.527650" lon="-5.140550">
        <ele>2265.0</ele>
        <time>2014-06-30T13:07:58Z</time>
      </trkpt>
      <trkpt lat="40.527617" lon="-5.140583">
        <ele>2265.0</ele>
        <time>2014-06-30T13:07:59Z</time>
      </trkpt>
      <trkpt lat="40.527600" lon="-5.140617">
        <ele>2265.0</ele>
        <time>2014-06-30T13:08:00Z</time>
      </trkpt>
      <trkpt lat="40.527617" lon="-5.140667">
        <ele>2265.0</ele>
        <time>2014-06-30T13:08:01Z</time>
      </trkpt>
      <trkpt lat="40.527667" lon="-5.140700">
        <ele>2265.0</ele>
        <time>2014-06-30T13:08:02Z</time>
      </trkpt>
      <trkpt lat="40.527717" lon="-5.140700">
        <ele>2265.0</ele>
        <time>2014-06-30T13:08:03Z</time>
      </trkpt>
      <trkpt lat="40.527783" lon="-5.140717">
        <ele>2266.0</ele>
        <time>2014-06-30T13:08:04Z</time>
      </trkpt>
      <trkpt lat="40.527850" lon="-5.140733">
        <ele>2265.0</ele>
        <time>2014-06-30T13:08:05Z</time>
      </trkpt>
      <trkpt lat="40.527933" lon="-5.140733">
        <ele>2265.0</ele>
        <time>2014-06-30T13:08:06Z</time>
      </trkpt>
      <trkpt lat="40.528000" lon="-5.140717">
        <ele>2265.0</ele>
        <time>2014-06-30T13:08:07Z</time>
      </trkpt>
      <trkpt lat="40.528083" lon="-5.140700">
        <ele>2266.0</ele>
        <time>2014-06-30T13:08:08Z</time>
      </trkpt>
      <trkpt lat="40.528167" lon="-5.140667">
        <ele>2267.0</ele>
        <time>2014-06-30T13:08:09Z</time>
      </trkpt>
      <trkpt lat="40.528233" lon="-5.140617">
        <ele>2268.0</ele>
        <time>2014-06-30T13:08:10Z</time>
      </trkpt>
      <trkpt lat="40.528317" lon="-5.140583">
        <ele>2269.0</ele>
        <time>2014-06-30T13:08:11Z</time>
      </trkpt>
      <trkpt lat="40.528400" lon="-5.140533">
        <ele>2270.0</ele>
        <time>2014-06-30T13:08:12Z</time>
      </trkpt>
      <trkpt lat="40.528467" lon="-5.140483">
        <ele>2271.0</ele>
        <time>2014-06-30T13:08:13Z</time>
      </trkpt>
      <trkpt lat="40.528550" lon="-5.140400">
        <ele>2272.0</ele>
        <time>2014-06-30T13:08:14Z</time>
      </trkpt>
      <trkpt lat="40.528617" lon="-5.140317">
        <ele>2273.0</ele>
        <time>2014-06-30T13:08:15Z</time>
      </trkpt>
      <trkpt lat="40.528700" lon="-5.140250">
        <ele>2273.0</ele>
        <time>2014-06-30T13:08:16Z</time>
      </trkpt>
      <trkpt lat="40.528800" lon="-5.140167">
        <ele>2273.0</ele>
        <time>2014-06-30T13:08:17Z</time>
      </trkpt>
      <trkpt lat="40.528883" lon="-5.140100">
        <ele>2273.0</ele>
        <time>2014-06-30T13:08:18Z</time>
      </trkpt>
      <trkpt lat="40.528983" lon="-5.140017">
        <ele>2274.0</ele>
        <time>2014-06-30T13:08:19Z</time>
      </trkpt>
      <trkpt lat="40.529083" lon="-5.139933">
        <ele>2275.0</ele>
        <time>2014-06-30T13:08:20Z</time>
      </trkpt>
      <trkpt lat="40.529167" lon="-5.139833">
        <ele>2277.0</ele>
        <time>2014-06-30T13:08:21Z</time>
      </trkpt>
      <trkpt lat="40.529233" lon="-5.139717">
        <ele>2280.0</ele>
        <time>2014-06-30T13:08:22Z</time>
      </trkpt>
      <trkpt lat="40.529317" lon="-5.139600">
        <ele>2281.0</ele>
        <time>2014-06-30T13:08:23Z</time>
      </trkpt>
      <trkpt lat="40.529400" lon="-5.139483">
        <ele>2283.0</ele>
        <time>2014-06-30T13:08:24Z</time>
      </trkpt>
      <trkpt lat="40.529483" lon="-5.139367">
        <ele>2285.0</ele>
        <time>2014-06-30T13:08:25Z</time>
      </trkpt>
      <trkpt lat="40.529550" lon="-5.139233">
        <ele>2287.0</ele>
        <time>2014-06-30T13:08:26Z</time>
      </trkpt>
      <trkpt lat="40.529600" lon="-5.139117">
        <ele>2289.0</ele>
        <time>2014-06-30T13:08:27Z</time>
      </trkpt>
      <trkpt lat="40.529650" lon="-5.138967">
        <ele>2290.0</ele>
        <time>2014-06-30T13:08:28Z</time>
      </trkpt>
      <trkpt lat="40.529700" lon="-5.138800">
        <ele>2291.0</ele>
        <time>2014-06-30T13:08:29Z</time>
      </trkpt>
      <trkpt lat="40.529733" lon="-5.138633">
        <ele>2292.0</ele>
        <time>2014-06-30T13:08:30Z</time>
      </trkpt>
      <trkpt lat="40.529783" lon="-5.138450">
        <ele>2293.0</ele>
        <time>2014-06-30T13:08:31Z</time>
      </trkpt>
      <trkpt lat="40.529817" lon="-5.138267">
        <ele>2294.0</ele>
        <time>2014-06-30T13:08:32Z</time>
      </trkpt>
      <trkpt lat="40.529817" lon="-5.138083">
        <ele>2295.0</ele>
        <time>2014-06-30T13:08:33Z</time>
      </trkpt>
      <trkpt lat="40.529783" lon="-5.137917">
        <ele>2296.0</ele>
        <time>2014-06-30T13:08:34Z</time>
      </trkpt>
      <trkpt lat="40.529733" lon="-5.137783">
        <ele>2296.0</ele>
        <time>2014-06-30T13:08:35Z</time>
      </trkpt>
      <trkpt lat="40.529650" lon="-5.137683">
        <ele>2296.0</ele>
        <time>2014-06-30T13:08:36Z</time>
      </trkpt>
      <trkpt lat="40.529583" lon="-5.137633">
        <ele>2296.0</ele>
        <time>2014-06-30T13:08:37Z</time>
      </trkpt>
      <trkpt lat="40.529500" lon="-5.137633">
        <ele>2296.0</ele>
        <time>2014-06-30T13:08:38Z</time>
      </trkpt>
      <trkpt lat="40.529433" lon="-5.137633">
        <ele>2297.0</ele>
        <time>2014-06-30T13:08:39Z</time>
      </trkpt>
      <trkpt lat="40.529383" lon="-5.137633">
        <ele>2298.0</ele>
        <time>2014-06-30T13:08:40Z</time>
      </trkpt>
      <trkpt lat="40.529333" lon="-5.137667">
        <ele>2300.0</ele>
        <time>2014-06-30T13:08:41Z</time>
      </trkpt>
      <trkpt lat="40.529300" lon="-5.137700">
        <ele>2302.0</ele>
        <time>2014-06-30T13:08:42Z</time>
      </trkpt>
      <trkpt lat="40.529300" lon="-5.137733">
        <ele>2303.0</ele>
        <time>2014-06-30T13:08:43Z</time>
      </trkpt>
      <trkpt lat="40.529317" lon="-5.137767">
        <ele>2304.0</ele>
        <time>2014-06-30T13:08:44Z</time>
      </trkpt>
      <trkpt lat="40.529350" lon="-5.137800">
        <ele>2300.0</ele>
        <time>2014-06-30T13:08:45Z</time>
      </trkpt>
      <trkpt lat="40.529383" lon="-5.137850">
        <ele>2301.0</ele>
        <time>2014-06-30T13:08:46Z</time>
      </trkpt>
      <trkpt lat="40.529417" lon="-5.137883">
        <ele>2301.0</ele>
        <time>2014-06-30T13:08:47Z</time>
      </trkpt>
      <trkpt lat="40.529467" lon="-5.137933">
        <ele>2302.0</ele>
        <time>2014-06-30T13:08:48Z</time>
      </trkpt>
      <trkpt lat="40.529517" lon="-5.137950">
        <ele>2303.0</ele>
        <time>2014-06-30T13:08:49Z</time>
      </trkpt>
      <trkpt lat="40.529583" lon="-5.137967">
        <ele>2303.0</ele>
        <time>2014-06-30T13:08:50Z</time>
      </trkpt>
      <trkpt lat="40.529650" lon="-5.137967">
        <ele>2303.0</ele>
        <time>2014-06-30T13:08:51Z</time>
      </trkpt>
      <trkpt lat="40.529733" lon="-5.137950">
        <ele>2304.0</ele>
        <time>2014-06-30T13:08:52Z</time>
      </trkpt>
      <trkpt lat="40.529800" lon="-5.137933">
        <ele>2304.0</ele>
        <time>2014-06-30T13:08:53Z</time>
      </trkpt>
      <trkpt lat="40.529883" lon="-5.137900">
        <ele>2305.0</ele>
        <time>2014-06-30T13:08:54Z</time>
      </trkpt>
      <trkpt lat="40.529983" lon="-5.137867">
        <ele>2306.0</ele>
        <time>2014-06-30T13:08:55Z</time>
      </trkpt>
      <trkpt lat="40.530083" lon="-5.137850">
        <ele>2307.0</ele>
        <time>2014-06-30T13:08:56Z</time>
      </trkpt>
      <trkpt lat="40.530183" lon="-5.137817">
        <ele>2309.0</ele>
        <time>2014-06-30T13:08:57Z</time>
      </trkpt>
      <trkpt lat="40.530283" lon="-5.137767">
        <ele>2311.0</ele>
        <time>2014-06-30T13:08:58Z</time>
      </trkpt>
      <trkpt lat="40.530383" lon="-5.137717">
        <ele>2314.0</ele>
        <time>2014-06-30T13:08:59Z</time>
      </trkpt>
      <trkpt lat="40.530483" lon="-5.137650">
        <ele>2317.0</ele>
        <time>2014-06-30T13:09:00Z</time>
      </trkpt>
      <trkpt lat="40.530567" lon="-5.137567">
        <ele>2319.0</ele>
        <time>2014-06-30T13:09:01Z</time>
      </trkpt>
      <trkpt lat="40.530650" lon="-5.137483">
        <ele>2322.0</ele>
        <time>2014-06-30T13:09:02Z</time>
      </trkpt>
      <trkpt lat="40.530750" lon="-5.137400">
        <ele>2322.0</ele>
        <time>2014-06-30T13:09:03Z</time>
      </trkpt>
      <trkpt lat="40.530850" lon="-5.137333">
        <ele>2323.0</ele>
        <time>2014-06-30T13:09:04Z</time>
      </trkpt>
      <trkpt lat="40.530950" lon="-5.137250">
        <ele>2323.0</ele>
        <time>2014-06-30T13:09:05Z</time>
      </trkpt>
      <trkpt lat="40.531050" lon="-5.137183">
        <ele>2324.0</ele>
        <time>2014-06-30T13:09:06Z</time>
      </trkpt>
      <trkpt lat="40.531167" lon="-5.137117">
        <ele>2324.0</ele>
        <time>2014-06-30T13:09:07Z</time>
      </trkpt>
      <trkpt lat="40.531267" lon="-5.137033">
        <ele>2326.0</ele>
        <time>2014-06-30T13:09:08Z</time>
      </trkpt>
      <trkpt lat="40.531350" lon="-5.136933">
        <ele>2327.0</ele>
        <time>2014-06-30T13:09:09Z</time>
      </trkpt>
      <trkpt lat="40.531433" lon="-5.136800">
        <ele>2328.0</ele>
        <time>2014-06-30T13:09:10Z</time>
      </trkpt>
      <trkpt lat="40.531500" lon="-5.136650">
        <ele>2329.0</ele>
        <time>2014-06-30T13:09:11Z</time>
      </trkpt>
      <trkpt lat="40.531550" lon="-5.136500">
        <ele>2329.0</ele>
        <time>2014-06-30T13:09:12Z</time>
      </trkpt>
      <trkpt lat="40.531583" lon="-5.136317">
        <ele>2329.0</ele>
        <time>2014-06-30T13:09:13Z</time>
      </trkpt>
      <trkpt lat="40.531583" lon="-5.136150">
        <ele>2330.0</ele>
        <time>2014-06-30T13:09:14Z</time>
      </trkpt>
      <trkpt lat="40.531567" lon="-5.135983">
        <ele>2330.0</ele>
        <time>2014-06-30T13:09:15Z</time>
      </trkpt>
      <trkpt lat="40.531533" lon="-5.135850">
        <ele>2331.0</ele>
        <time>2014-06-30T13:09:16Z</time>
      </trkpt>
      <trkpt lat="40.531483" lon="-5.135733">
        <ele>2332.0</ele>
        <time>2014-06-30T13:09:17Z</time>
      </trkpt>
      <trkpt lat="40.531433" lon="-5.135633">
        <ele>2332.0</ele>
        <time>2014-06-30T13:09:18Z</time>
      </trkpt>
      <trkpt lat="40.531367" lon="-5.135550">
        <ele>2333.0</ele>
        <time>2014-06-30T13:09:19Z</time>
      </trkpt>
      <trkpt lat="40.531300" lon="-5.135517">
        <ele>2334.0</ele>
        <time>2014-06-30T13:09:20Z</time>
      </trkpt>
      <trkpt lat="40.531267" lon="-5.135517">
        <ele>2334.0</ele>
        <time>2014-06-30T13:09:21Z</time>
      </trkpt>
      <trkpt lat="40.531233" lon="-5.135567">
        <ele>2333.0</ele>
        <time>2014-06-30T13:09:22Z</time>
      </trkpt>
      <trkpt lat="40.531233" lon="-5.135617">
        <ele>2332.0</ele>
        <time>2014-06-30T13:09:23Z</time>
      </trkpt>
      <trkpt lat="40.531250" lon="-5.135683">
        <ele>2331.0</ele>
        <time>2014-06-30T13:09:24Z</time>
      </trkpt>
      <trkpt lat="40.531300" lon="-5.135750">
        <ele>2330.0</ele>
        <time>2014-06-30T13:09:25Z</time>
      </trkpt>
      <trkpt lat="40.531350" lon="-5.135817">
        <ele>2330.0</ele>
        <time>2014-06-30T13:09:26Z</time>
      </trkpt>
      <trkpt lat="40.531433" lon="-5.135850">
        <ele>2329.0</ele>
        <time>2014-06-30T13:09:27Z</time>
      </trkpt>
      <trkpt lat="40.531533" lon="-5.135833">
        <ele>2329.0</ele>
        <time>2014-06-30T13:09:28Z</time>
      </trkpt>
      <trkpt lat="40.531617" lon="-5.135800">
        <ele>2329.0</ele>
        <time>2014-06-30T13:09:29Z</time>
      </trkpt>
      <trkpt lat="40.531717" lon="-5.135733">
        <ele>2329.0</ele>
        <time>2014-06-30T13:09:30Z</time>
      </trkpt>
      <trkpt lat="40.531817" lon="-5.135633">
        <ele>2328.0</ele>
        <time>2014-06-30T13:09:31Z</time>
      </trkpt>
      <trkpt lat="40.531917" lon="-5.135533">
        <ele>2327.0</ele>
        <time>2014-06-30T13:09:32Z</time>
      </trkpt>
      <trkpt lat="40.532000" lon="-5.135417">
        <ele>2326.0</ele>
        <time>2014-06-30T13:09:33Z</time>
      </trkpt>
      <trkpt lat="40.532100" lon="-5.135300">
        <ele>2326.0</ele>
        <time>2014-06-30T13:09:34Z</time>
      </trkpt>
      <trkpt lat="40.532200" lon="-5.135183">
        <ele>2325.0</ele>
        <time>2014-06-30T13:09:35Z</time>
      </trkpt>
      <trkpt lat="40.532283" lon="-5.135050">
        <ele>2325.0</ele>
        <time>2014-06-30T13:09:36Z</time>
      </trkpt>
      <trkpt lat="40.532367" lon="-5.134900">
        <ele>2324.0</ele>
        <time>2014-06-30T13:09:37Z</time>
      </trkpt>
      <trkpt lat="40.532450" lon="-5.134750">
        <ele>2324.0</ele>
        <time>2014-06-30T13:09:38Z</time>
      </trkpt>
      <trkpt lat="40.532517" lon="-5.134617">
        <ele>2325.0</ele>
        <time>2014-06-30T13:09:39Z</time>
      </trkpt>
      <trkpt lat="40.532617" lon="-5.134483">
        <ele>2325.0</ele>
        <time>2014-06-30T13:09:40Z</time>
      </trkpt>
      <trkpt lat="40.532717" lon="-5.134383">
        <ele>2325.0</ele>
        <time>2014-06-30T13:09:41Z</time>
      </trkpt>
      <trkpt lat="40.532817" lon="-5.134283">
        <ele>2326.0</ele>
        <time>2014-06-30T13:09:42Z</time>
      </trkpt>
      <trkpt lat="40.532917" lon="-5.134183">
        <ele>2326.0</ele>
        <time>2014-06-30T13:09:43Z</time>
      </trkpt>
      <trkpt lat="40.533017" lon="-5.134067">
        <ele>2327.0</ele>
        <time>2014-06-30T13:09:44Z</time>
      </trkpt>
      <trkpt lat="40.533100" lon="-5.133933">
        <ele>2328.0</ele>
        <time>2014-06-30T13:09:45Z</time>
      </trkpt>
      <trkpt lat="40.533183" lon="-5.133800">
        <ele>2328.0</ele>
        <time>2014-06-30T13:09:46Z</time>
      </trkpt>
      <trkpt lat="40.533267" lon="-5.133683">
        <ele>2329.0</ele>
        <time>2014-06-30T13:09:47Z</time>
      </trkpt>
      <trkpt lat="40.533367" lon="-5.133550">
        <ele>2330.0</ele>
        <time>2014-06-30T13:09:48Z</time>
      </trkpt>
      <trkpt lat="40.533450" lon="-5.133433">
        <ele>2330.0</ele>
        <time>2014-06-30T13:09:49Z</time>
      </trkpt>
      <trkpt lat="40.533533" lon="-5.133333">
        <ele>2330.0</ele>
        <time>2014-06-30T13:09:50Z</time>
      </trkpt>
      <trkpt lat="40.533617" lon="-5.133217">
        <ele>2330.0</ele>
        <time>2014-06-30T13:09:51Z</time>
      </trkpt>
      <trkpt lat="40.533683" lon="-5.133083">
        <ele>2330.0</ele>
        <time>2014-06-30T13:09:52Z</time>
      </trkpt>
      <trkpt lat="40.533733" lon="-5.132933">
        <ele>2330.0</ele>
        <time>2014-06-30T13:09:53Z</time>
      </trkpt>
      <trkpt lat="40.533783" lon="-5.132767">
        <ele>2330.0</ele>
        <time>2014-06-30T13:09:54Z</time>
      </trkpt>
      <trkpt lat="40.533817" lon="-5.132600">
        <ele>2330.0</ele>
        <time>2014-06-30T13:09:55Z</time>
      </trkpt>
      <trkpt lat="40.533850" lon="-5.132433">
        <ele>2330.0</ele>
        <time>2014-06-30T13:09:56Z</time>
      </trkpt>
      <trkpt lat="40.533883" lon="-5.132250">
        <ele>2330.0</ele>
        <time>2014-06-30T13:09:57Z</time>
      </trkpt>
      <trkpt lat="40.533900" lon="-5.132083">
        <ele>2329.0</ele>
        <time>2014-06-30T13:09:58Z</time>
      </trkpt>
      <trkpt lat="40.533900" lon="-5.131883">
        <ele>2326.0</ele>
        <time>2014-06-30T13:09:59Z</time>
      </trkpt>
      <trkpt lat="40.533900" lon="-5.131700">
        <ele>2325.0</ele>
        <time>2014-06-30T13:10:00Z</time>
      </trkpt>
      <trkpt lat="40.533917" lon="-5.131533">
        <ele>2324.0</ele>
        <time>2014-06-30T13:10:01Z</time>
      </trkpt>
      <trkpt lat="40.533933" lon="-5.131367">
        <ele>2323.0</ele>
        <time>2014-06-30T13:10:02Z</time>
      </trkpt>
      <trkpt lat="40.533967" lon="-5.131217">
        <ele>2321.0</ele>
        <time>2014-06-30T13:10:03Z</time>
      </trkpt>
      <trkpt lat="40.534000" lon="-5.131050">
        <ele>2319.0</ele>
        <time>2014-06-30T13:10:04Z</time>
      </trkpt>
      <trkpt lat="40.534050" lon="-5.130867">
        <ele>2317.0</ele>
        <time>2014-06-30T13:10:05Z</time>
      </trkpt>
      <trkpt lat="40.534100" lon="-5.130667">
        <ele>2315.0</ele>
        <time>2014-06-30T13:10:06Z</time>
      </trkpt>
      <trkpt lat="40.534167" lon="-5.130467">
        <ele>2313.0</ele>
        <time>2014-06-30T13:10:07Z</time>
      </trkpt>
      <trkpt lat="40.534233" lon="-5.130267">
        <ele>2311.0</ele>
        <time>2014-06-30T13:10:08Z</time>
      </trkpt>
      <trkpt lat="40.534300" lon="-5.130100">
        <ele>2310.0</ele>
        <time>2014-06-30T13:10:09Z</time>
      </trkpt>
      <trkpt lat="40.534383" lon="-5.129933">
        <ele>2308.0</ele>
        <time>2014-06-30T13:10:10Z</time>
      </trkpt>
      <trkpt lat="40.534483" lon="-5.129767">
        <ele>2304.0</ele>
        <time>2014-06-30T13:10:11Z</time>
      </trkpt>
      <trkpt lat="40.534583" lon="-5.129583">
        <ele>2300.0</ele>
        <time>2014-06-30T13:10:12Z</time>
      </trkpt>
      <trkpt lat="40.534683" lon="-5.129417">
        <ele>2296.0</ele>
        <time>2014-06-30T13:10:13Z</time>
      </trkpt>
      <trkpt lat="40.534783" lon="-5.129233">
        <ele>2293.0</ele>
        <time>2014-06-30T13:10:14Z</time>
      </trkpt>
      <trkpt lat="40.534883" lon="-5.129050">
        <ele>2291.0</ele>
        <time>2014-06-30T13:10:15Z</time>
      </trkpt>
      <trkpt lat="40.534983" lon="-5.128900">
        <ele>2289.0</ele>
        <time>2014-06-30T13:10:16Z</time>
      </trkpt>
      <trkpt lat="40.535083" lon="-5.128750">
        <ele>2286.0</ele>
        <time>2014-06-30T13:10:17Z</time>
      </trkpt>
      <trkpt lat="40.535200" lon="-5.128650">
        <ele>2283.0</ele>
        <time>2014-06-30T13:10:18Z</time>
      </trkpt>
      <trkpt lat="40.535333" lon="-5.128550">
        <ele>2279.0</ele>
        <time>2014-06-30T13:10:19Z</time>
      </trkpt>
      <trkpt lat="40.535467" lon="-5.128450">
        <ele>2275.0</ele>
        <time>2014-06-30T13:10:20Z</time>
      </trkpt>
      <trkpt lat="40.535617" lon="-5.128350">
        <ele>2271.0</ele>
        <time>2014-06-30T13:10:21Z</time>
      </trkpt>
      <trkpt lat="40.535750" lon="-5.128250">
        <ele>2267.0</ele>
        <time>2014-06-30T13:10:22Z</time>
      </trkpt>
      <trkpt lat="40.535883" lon="-5.128150">
        <ele>2264.0</ele>
        <time>2014-06-30T13:10:23Z</time>
      </trkpt>
      <trkpt lat="40.536000" lon="-5.128067">
        <ele>2263.0</ele>
        <time>2014-06-30T13:10:24Z</time>
      </trkpt>
      <trkpt lat="40.536100" lon="-5.127983">
        <ele>2261.0</ele>
        <time>2014-06-30T13:10:25Z</time>
      </trkpt>
      <trkpt lat="40.536217" lon="-5.127883">
        <ele>2258.0</ele>
        <time>2014-06-30T13:10:26Z</time>
      </trkpt>
      <trkpt lat="40.536333" lon="-5.127800">
        <ele>2254.0</ele>
        <time>2014-06-30T13:10:27Z</time>
      </trkpt>
      <trkpt lat="40.536467" lon="-5.127717">
        <ele>2249.0</ele>
        <time>2014-06-30T13:10:28Z</time>
      </trkpt>
      <trkpt lat="40.536600" lon="-5.127617">
        <ele>2246.0</ele>
        <time>2014-06-30T13:10:29Z</time>
      </trkpt>
      <trkpt lat="40.536733" lon="-5.127517">
        <ele>2244.0</ele>
        <time>2014-06-30T13:10:30Z</time>
      </trkpt>
      <trkpt lat="40.536850" lon="-5.127433">
        <ele>2243.0</ele>
        <time>2014-06-30T13:10:31Z</time>
      </trkpt>
      <trkpt lat="40.536950" lon="-5.127333">
        <ele>2242.0</ele>
        <time>2014-06-30T13:10:32Z</time>
      </trkpt>
      <trkpt lat="40.537050" lon="-5.127233">
        <ele>2241.0</ele>
        <time>2014-06-30T13:10:33Z</time>
      </trkpt>
      <trkpt lat="40.537150" lon="-5.127117">
        <ele>2239.0</ele>
        <time>2014-06-30T13:10:34Z</time>
      </trkpt>
      <trkpt lat="40.537267" lon="-5.127017">
        <ele>2238.0</ele>
        <time>2014-06-30T13:10:35Z</time>
      </trkpt>
      <trkpt lat="40.537383" lon="-5.126917">
        <ele>2235.0</ele>
        <time>2014-06-30T13:10:36Z</time>
      </trkpt>
      <trkpt lat="40.537500" lon="-5.126817">
        <ele>2234.0</ele>
        <time>2014-06-30T13:10:37Z</time>
      </trkpt>
      <trkpt lat="40.537617" lon="-5.126700">
        <ele>2232.0</ele>
        <time>2014-06-30T13:10:38Z</time>
      </trkpt>
      <trkpt lat="40.537717" lon="-5.126600">
        <ele>2232.0</ele>
        <time>2014-06-30T13:10:39Z</time>
      </trkpt>
      <trkpt lat="40.537817" lon="-5.126517">
        <ele>2231.0</ele>
        <time>2014-06-30T13:10:40Z</time>
      </trkpt>
      <trkpt lat="40.537917" lon="-5.126433">
        <ele>2229.0</ele>
        <time>2014-06-30T13:10:41Z</time>
      </trkpt>
      <trkpt lat="40.538017" lon="-5.126333">
        <ele>2226.0</ele>
        <time>2014-06-30T13:10:42Z</time>
      </trkpt>
      <trkpt lat="40.538150" lon="-5.126250">
        <ele>2222.0</ele>
        <time>2014-06-30T13:10:43Z</time>
      </trkpt>
      <trkpt lat="40.538283" lon="-5.126167">
        <ele>2217.0</ele>
        <time>2014-06-30T13:10:44Z</time>
      </trkpt>
      <trkpt lat="40.538417" lon="-5.126083">
        <ele>2214.0</ele>
        <time>2014-06-30T13:10:45Z</time>
      </trkpt>
      <trkpt lat="40.538550" lon="-5.126000">
        <ele>2212.0</ele>
        <time>2014-06-30T13:10:46Z</time>
      </trkpt>
      <trkpt lat="40.538667" lon="-5.125917">
        <ele>2210.0</ele>
        <time>2014-06-30T13:10:47Z</time>
      </trkpt>
      <trkpt lat="40.538767" lon="-5.125817">
        <ele>2209.0</ele>
        <time>2014-06-30T13:10:48Z</time>
      </trkpt>
      <trkpt lat="40.538850" lon="-5.125717">
        <ele>2208.0</ele>
        <time>2014-06-30T13:10:49Z</time>
      </trkpt>
      <trkpt lat="40.538933" lon="-5.125617">
        <ele>2206.0</ele>
        <time>2014-06-30T13:10:50Z</time>
      </trkpt>
      <trkpt lat="40.539033" lon="-5.125533">
        <ele>2203.0</ele>
        <time>2014-06-30T13:10:51Z</time>
      </trkpt>
      <trkpt lat="40.539133" lon="-5.125450">
        <ele>2200.0</ele>
        <time>2014-06-30T13:10:52Z</time>
      </trkpt>
      <trkpt lat="40.539233" lon="-5.125383">
        <ele>2197.0</ele>
        <time>2014-06-30T13:10:53Z</time>
      </trkpt>
      <trkpt lat="40.539350" lon="-5.125300">
        <ele>2195.0</ele>
        <time>2014-06-30T13:10:54Z</time>
      </trkpt>
      <trkpt lat="40.539450" lon="-5.125250">
        <ele>2194.0</ele>
        <time>2014-06-30T13:10:55Z</time>
      </trkpt>
      <trkpt lat="40.539533" lon="-5.125200">
        <ele>2194.0</ele>
        <time>2014-06-30T13:10:56Z</time>
      </trkpt>
      <trkpt lat="40.539617" lon="-5.125133">
        <ele>2195.0</ele>
        <time>2014-06-30T13:10:57Z</time>
      </trkpt>
      <trkpt lat="40.539700" lon="-5.125083">
        <ele>2195.0</ele>
        <time>2014-06-30T13:10:58Z</time>
      </trkpt>
      <trkpt lat="40.539783" lon="-5.125033">
        <ele>2195.0</ele>
        <time>2014-06-30T13:10:59Z</time>
      </trkpt>
      <trkpt lat="40.539867" lon="-5.125017">
        <ele>2195.0</ele>
        <time>2014-06-30T13:11:00Z</time>
      </trkpt>
      <trkpt lat="40.539950" lon="-5.125017">
        <ele>2194.0</ele>
        <time>2014-06-30T13:11:01Z</time>
      </trkpt>
      <trkpt lat="40.540033" lon="-5.125000">
        <ele>2194.0</ele>
        <time>2014-06-30T13:11:02Z</time>
      </trkpt>
      <trkpt lat="40.540117" lon="-5.124983">
        <ele>2193.0</ele>
        <time>2014-06-30T13:11:03Z</time>
      </trkpt>
      <trkpt lat="40.540217" lon="-5.124967">
        <ele>2192.0</ele>
        <time>2014-06-30T13:11:04Z</time>
      </trkpt>
      <trkpt lat="40.540300" lon="-5.124933">
        <ele>2190.0</ele>
        <time>2014-06-30T13:11:05Z</time>
      </trkpt>
      <trkpt lat="40.540400" lon="-5.124917">
        <ele>2188.0</ele>
        <time>2014-06-30T13:11:06Z</time>
      </trkpt>
      <trkpt lat="40.540483" lon="-5.124883">
        <ele>2186.0</ele>
        <time>2014-06-30T13:11:07Z</time>
      </trkpt>
      <trkpt lat="40.540583" lon="-5.124867">
        <ele>2185.0</ele>
        <time>2014-06-30T13:11:08Z</time>
      </trkpt>
      <trkpt lat="40.540683" lon="-5.124833">
        <ele>2183.0</ele>
        <time>2014-06-30T13:11:09Z</time>
      </trkpt>
      <trkpt lat="40.540783" lon="-5.124817">
        <ele>2182.0</ele>
        <time>2014-06-30T13:11:10Z</time>
      </trkpt>
      <trkpt lat="40.540883" lon="-5.124783">
        <ele>2181.0</ele>
        <time>2014-06-30T13:11:11Z</time>
      </trkpt>
      <trkpt lat="40.540983" lon="-5.124767">
        <ele>2180.0</ele>
        <time>2014-06-30T13:11:12Z</time>
      </trkpt>
      <trkpt lat="40.541083" lon="-5.124750">
        <ele>2181.0</ele>
        <time>2014-06-30T13:11:13Z</time>
      </trkpt>
      <trkpt lat="40.541167" lon="-5.124717">
        <ele>2182.0</ele>
        <time>2014-06-30T13:11:14Z</time>
      </trkpt>
      <trkpt lat="40.541250" lon="-5.124683">
        <ele>2182.0</ele>
        <time>2014-06-30T13:11:15Z</time>
      </trkpt>
      <trkpt lat="40.541333" lon="-5.124650">
        <ele>2181.0</ele>
        <time>2014-06-30T13:11:16Z</time>
      </trkpt>
      <trkpt lat="40.541400" lon="-5.124617">
        <ele>2179.0</ele>
        <time>2014-06-30T13:11:17Z</time>
      </trkpt>
      <trkpt lat="40.541483" lon="-5.124600">
        <ele>2177.0</ele>
        <time>2014-06-30T13:11:18Z</time>
      </trkpt>
      <trkpt lat="40.541567" lon="-5.124567">
        <ele>2174.0</ele>
        <time>2014-06-30T13:11:19Z</time>
      </trkpt>
      <trkpt lat="40.541667" lon="-5.124533">
        <ele>2172.0</ele>
        <time>2014-06-30T13:11:20Z</time>
      </trkpt>
      <trkpt lat="40.541783" lon="-5.124500">
        <ele>2170.0</ele>
        <time>2014-06-30T13:11:21Z</time>
      </trkpt>
      <trkpt lat="40.541883" lon="-5.124450">
        <ele>2169.0</ele>
        <time>2014-06-30T13:11:22Z</time>
      </trkpt>
      <trkpt lat="40.541967" lon="-5.124383">
        <ele>2169.0</ele>
        <time>2014-06-30T13:11:23Z</time>
      </trkpt>
      <trkpt lat="40.542067" lon="-5.124350">
        <ele>2169.0</ele>
        <time>2014-06-30T13:11:24Z</time>
      </trkpt>
      <trkpt lat="40.542150" lon="-5.124317">
        <ele>2168.0</ele>
        <time>2014-06-30T13:11:25Z</time>
      </trkpt>
      <trkpt lat="40.542250" lon="-5.124267">
        <ele>2166.0</ele>
        <time>2014-06-30T13:11:26Z</time>
      </trkpt>
      <trkpt lat="40.542350" lon="-5.124233">
        <ele>2165.0</ele>
        <time>2014-06-30T13:11:27Z</time>
      </trkpt>
      <trkpt lat="40.542450" lon="-5.124200">
        <ele>2163.0</ele>
        <time>2014-06-30T13:11:28Z</time>
      </trkpt>
      <trkpt lat="40.542550" lon="-5.124167">
        <ele>2160.0</ele>
        <time>2014-06-30T13:11:29Z</time>
      </trkpt>
      <trkpt lat="40.542650" lon="-5.124150">
        <ele>2158.0</ele>
        <time>2014-06-30T13:11:30Z</time>
      </trkpt>
      <trkpt lat="40.542750" lon="-5.124117">
        <ele>2155.0</ele>
        <time>2014-06-30T13:11:31Z</time>
      </trkpt>
      <trkpt lat="40.542833" lon="-5.124100">
        <ele>2153.0</ele>
        <time>2014-06-30T13:11:32Z</time>
      </trkpt>
      <trkpt lat="40.542933" lon="-5.124050">
        <ele>2150.0</ele>
        <time>2014-06-30T13:11:33Z</time>
      </trkpt>
      <trkpt lat="40.543033" lon="-5.124017">
        <ele>2147.0</ele>
        <time>2014-06-30T13:11:34Z</time>
      </trkpt>
      <trkpt lat="40.543150" lon="-5.123983">
        <ele>2144.0</ele>
        <time>2014-06-30T13:11:35Z</time>
      </trkpt>
      <trkpt lat="40.543267" lon="-5.123950">
        <ele>2141.0</ele>
        <time>2014-06-30T13:11:36Z</time>
      </trkpt>
      <trkpt lat="40.543367" lon="-5.123900">
        <ele>2139.0</ele>
        <time>2014-06-30T13:11:37Z</time>
      </trkpt>
      <trkpt lat="40.543483" lon="-5.123850">
        <ele>2137.0</ele>
        <time>2014-06-30T13:11:38Z</time>
      </trkpt>
      <trkpt lat="40.543600" lon="-5.123800">
        <ele>2136.0</ele>
        <time>2014-06-30T13:11:39Z</time>
      </trkpt>
      <trkpt lat="40.543700" lon="-5.123750">
        <ele>2134.0</ele>
        <time>2014-06-30T13:11:40Z</time>
      </trkpt>
      <trkpt lat="40.543817" lon="-5.123683">
        <ele>2134.0</ele>
        <time>2014-06-30T13:11:41Z</time>
      </trkpt>
      <trkpt lat="40.543933" lon="-5.123617">
        <ele>2133.0</ele>
        <time>2014-06-30T13:11:42Z</time>
      </trkpt>
      <trkpt lat="40.544033" lon="-5.123533">
        <ele>2133.0</ele>
        <time>2014-06-30T13:11:43Z</time>
      </trkpt>
      <trkpt lat="40.544133" lon="-5.123450">
        <ele>2133.0</ele>
        <time>2014-06-30T13:11:44Z</time>
      </trkpt>
      <trkpt lat="40.544250" lon="-5.123367">
        <ele>2132.0</ele>
        <time>2014-06-30T13:11:45Z</time>
      </trkpt>
      <trkpt lat="40.544350" lon="-5.123283">
        <ele>2130.0</ele>
        <time>2014-06-30T13:11:46Z</time>
      </trkpt>
      <trkpt lat="40.544467" lon="-5.123200">
        <ele>2129.0</ele>
        <time>2014-06-30T13:11:47Z</time>
      </trkpt>
      <trkpt lat="40.544583" lon="-5.123150">
        <ele>2127.0</ele>
        <time>2014-06-30T13:11:48Z</time>
      </trkpt>
      <trkpt lat="40.544700" lon="-5.123083">
        <ele>2126.0</ele>
        <time>2014-06-30T13:11:49Z</time>
      </trkpt>
      <trkpt lat="40.544783" lon="-5.123017">
        <ele>2125.0</ele>
        <time>2014-06-30T13:11:50Z</time>
      </trkpt>
      <trkpt lat="40.544883" lon="-5.122967">
        <ele>2124.0</ele>
        <time>2014-06-30T13:11:51Z</time>
      </trkpt>
      <trkpt lat="40.544983" lon="-5.122900">
        <ele>2122.0</ele>
        <time>2014-06-30T13:11:52Z</time>
      </trkpt>
      <trkpt lat="40.545100" lon="-5.122850">
        <ele>2120.0</ele>
        <time>2014-06-30T13:11:53Z</time>
      </trkpt>
      <trkpt lat="40.545200" lon="-5.122800">
        <ele>2117.0</ele>
        <time>2014-06-30T13:11:54Z</time>
      </trkpt>
      <trkpt lat="40.545317" lon="-5.122750">
        <ele>2114.0</ele>
        <time>2014-06-30T13:11:55Z</time>
      </trkpt>
      <trkpt lat="40.545433" lon="-5.122667">
        <ele>2112.0</ele>
        <time>2014-06-30T13:11:56Z</time>
      </trkpt>
      <trkpt lat="40.545550" lon="-5.122600">
        <ele>2111.0</ele>
        <time>2014-06-30T13:11:57Z</time>
      </trkpt>
      <trkpt lat="40.545650" lon="-5.122533">
        <ele>2111.0</ele>
        <time>2014-06-30T13:11:58Z</time>
      </trkpt>
      <trkpt lat="40.545750" lon="-5.122450">
        <ele>2110.0</ele>
        <time>2014-06-30T13:11:59Z</time>
      </trkpt>
      <trkpt lat="40.545867" lon="-5.122383">
        <ele>2108.0</ele>
        <time>2014-06-30T13:12:00Z</time>
      </trkpt>
      <trkpt lat="40.545983" lon="-5.122300">
        <ele>2106.0</ele>
        <time>2014-06-30T13:12:01Z</time>
      </trkpt>
      <trkpt lat="40.546100" lon="-5.122217">
        <ele>2104.0</ele>
        <time>2014-06-30T13:12:02Z</time>
      </trkpt>
      <trkpt lat="40.546200" lon="-5.122117">
        <ele>2103.0</ele>
        <time>2014-06-30T13:12:03Z</time>
      </trkpt>
      <trkpt lat="40.546300" lon="-5.122017">
        <ele>2102.0</ele>
        <time>2014-06-30T13:12:04Z</time>
      </trkpt>
      <trkpt lat="40.546400" lon="-5.121900">
        <ele>2102.0</ele>
        <time>2014-06-30T13:12:05Z</time>
      </trkpt>
      <trkpt lat="40.546467" lon="-5.121800">
        <ele>2103.0</ele>
        <time>2014-06-30T13:12:06Z</time>
      </trkpt>
      <trkpt lat="40.546550" lon="-5.121717">
        <ele>2103.0</ele>
        <time>2014-06-30T13:12:07Z</time>
      </trkpt>
      <trkpt lat="40.546633" lon="-5.121633">
        <ele>2104.0</ele>
        <time>2014-06-30T13:12:08Z</time>
      </trkpt>
      <trkpt lat="40.546717" lon="-5.121567">
        <ele>2105.0</ele>
        <time>2014-06-30T13:12:09Z</time>
      </trkpt>
      <trkpt lat="40.546817" lon="-5.121500">
        <ele>2105.0</ele>
        <time>2014-06-30T13:12:10Z</time>
      </trkpt>
      <trkpt lat="40.546883" lon="-5.121467">
        <ele>2105.0</ele>
        <time>2014-06-30T13:12:11Z</time>
      </trkpt>
      <trkpt lat="40.546967" lon="-5.121433">
        <ele>2105.0</ele>
        <time>2014-06-30T13:12:12Z</time>
      </trkpt>
      <trkpt lat="40.547050" lon="-5.121400">
        <ele>2106.0</ele>
        <time>2014-06-30T13:12:13Z</time>
      </trkpt>
      <trkpt lat="40.547133" lon="-5.121367">
        <ele>2106.0</ele>
        <time>2014-06-30T13:12:14Z</time>
      </trkpt>
      <trkpt lat="40.547217" lon="-5.121333">
        <ele>2107.0</ele>
        <time>2014-06-30T13:12:15Z</time>
      </trkpt>
      <trkpt lat="40.547300" lon="-5.121317">
        <ele>2107.0</ele>
        <time>2014-06-30T13:12:16Z</time>
      </trkpt>
      <trkpt lat="40.547367" lon="-5.121300">
        <ele>2107.0</ele>
        <time>2014-06-30T13:12:17Z</time>
      </trkpt>
      <trkpt lat="40.547450" lon="-5.121267">
        <ele>2107.0</ele>
        <time>2014-06-30T13:12:18Z</time>
      </trkpt>
      <trkpt lat="40.547550" lon="-5.121233">
        <ele>2106.0</ele>
        <time>2014-06-30T13:12:19Z</time>
      </trkpt>
      <trkpt lat="40.547650" lon="-5.121183">
        <ele>2105.0</ele>
        <time>2014-06-30T13:12:20Z</time>
      </trkpt>
      <trkpt lat="40.547750" lon="-5.121117">
        <ele>2105.0</ele>
        <time>2014-06-30T13:12:21Z</time>
      </trkpt>
      <trkpt lat="40.547850" lon="-5.121067">
        <ele>2106.0</ele>
        <time>2014-06-30T13:12:22Z</time>
      </trkpt>
      <trkpt lat="40.547933" lon="-5.121000">
        <ele>2106.0</ele>
        <time>2014-06-30T13:12:23Z</time>
      </trkpt>
      <trkpt lat="40.548033" lon="-5.120933">
        <ele>2105.0</ele>
        <time>2014-06-30T13:12:24Z</time>
      </trkpt>
      <trkpt lat="40.548133" lon="-5.120833">
        <ele>2105.0</ele>
        <time>2014-06-30T13:12:25Z</time>
      </trkpt>
      <trkpt lat="40.548233" lon="-5.120717">
        <ele>2105.0</ele>
        <time>2014-06-30T13:12:26Z</time>
      </trkpt>
      <trkpt lat="40.548350" lon="-5.120617">
        <ele>2105.0</ele>
        <time>2014-06-30T13:12:27Z</time>
      </trkpt>
      <trkpt lat="40.548450" lon="-5.120500">
        <ele>2108.0</ele>
        <time>2014-06-30T13:12:28Z</time>
      </trkpt>
      <trkpt lat="40.548533" lon="-5.120400">
        <ele>2113.0</ele>
        <time>2014-06-30T13:12:29Z</time>
      </trkpt>
      <trkpt lat="40.548600" lon="-5.120283">
        <ele>2115.0</ele>
        <time>2014-06-30T13:12:30Z</time>
      </trkpt>
      <trkpt lat="40.548667" lon="-5.120167">
        <ele>2117.0</ele>
        <time>2014-06-30T13:12:31Z</time>
      </trkpt>
      <trkpt lat="40.548717" lon="-5.120017">
        <ele>2117.0</ele>
        <time>2014-06-30T13:12:32Z</time>
      </trkpt>
      <trkpt lat="40.548767" lon="-5.119850">
        <ele>2118.0</ele>
        <time>2014-06-30T13:12:33Z</time>
      </trkpt>
      <trkpt lat="40.548800" lon="-5.119667">
        <ele>2117.0</ele>
        <time>2014-06-30T13:12:34Z</time>
      </trkpt>
      <trkpt lat="40.548800" lon="-5.119500">
        <ele>2116.0</ele>
        <time>2014-06-30T13:12:35Z</time>
      </trkpt>
      <trkpt lat="40.548767" lon="-5.119333">
        <ele>2116.0</ele>
        <time>2014-06-30T13:12:36Z</time>
      </trkpt>
      <trkpt lat="40.548733" lon="-5.119183">
        <ele>2115.0</ele>
        <time>2014-06-30T13:12:37Z</time>
      </trkpt>
      <trkpt lat="40.548683" lon="-5.119050">
        <ele>2115.0</ele>
        <time>2014-06-30T13:12:38Z</time>
      </trkpt>
      <trkpt lat="40.548633" lon="-5.118933">
        <ele>2116.0</ele>
        <time>2014-06-30T13:12:39Z</time>
      </trkpt>
      <trkpt lat="40.548583" lon="-5.118850">
        <ele>2116.0</ele>
        <time>2014-06-30T13:12:40Z</time>
      </trkpt>
      <trkpt lat="40.548517" lon="-5.118783">
        <ele>2117.0</ele>
        <time>2014-06-30T13:12:41Z</time>
      </trkpt>
      <trkpt lat="40.548450" lon="-5.118733">
        <ele>2118.0</ele>
        <time>2014-06-30T13:12:42Z</time>
      </trkpt>
      <trkpt lat="40.548383" lon="-5.118717">
        <ele>2118.0</ele>
        <time>2014-06-30T13:12:43Z</time>
      </trkpt>
      <trkpt lat="40.548300" lon="-5.118700">
        <ele>2118.0</ele>
        <time>2014-06-30T13:12:44Z</time>
      </trkpt>
      <trkpt lat="40.548233" lon="-5.118700">
        <ele>2120.0</ele>
        <time>2014-06-30T13:12:45Z</time>
      </trkpt>
      <trkpt lat="40.548183" lon="-5.118717">
        <ele>2121.0</ele>
        <time>2014-06-30T13:12:46Z</time>
      </trkpt>
      <trkpt lat="40.548133" lon="-5.118733">
        <ele>2122.0</ele>
        <time>2014-06-30T13:12:47Z</time>
      </trkpt>
      <trkpt lat="40.548083" lon="-5.118750">
        <ele>2121.0</ele>
        <time>2014-06-30T13:12:48Z</time>
      </trkpt>
      <trkpt lat="40.548033" lon="-5.118800">
        <ele>2121.0</ele>
        <time>2014-06-30T13:12:49Z</time>
      </trkpt>
      <trkpt lat="40.548000" lon="-5.118850">
        <ele>2120.0</ele>
        <time>2014-06-30T13:12:50Z</time>
      </trkpt>
      <trkpt lat="40.547967" lon="-5.118900">
        <ele>2120.0</ele>
        <time>2014-06-30T13:12:51Z</time>
      </trkpt>
      <trkpt lat="40.547967" lon="-5.118950">
        <ele>2122.0</ele>
        <time>2014-06-30T13:12:52Z</time>
      </trkpt>
      <trkpt lat="40.547983" lon="-5.118983">
        <ele>2122.0</ele>
        <time>2014-06-30T13:12:53Z</time>
      </trkpt>
      <trkpt lat="40.548017" lon="-5.118983">
        <ele>2121.0</ele>
        <time>2014-06-30T13:12:54Z</time>
      </trkpt>
      <trkpt lat="40.548067" lon="-5.119000">
        <ele>2120.0</ele>
        <time>2014-06-30T13:12:55Z</time>
      </trkpt>
      <trkpt lat="40.548133" lon="-5.119017">
        <ele>2118.0</ele>
        <time>2014-06-30T13:12:56Z</time>
      </trkpt>
      <trkpt lat="40.548217" lon="-5.119033">
        <ele>2116.0</ele>
        <time>2014-06-30T13:12:57Z</time>
      </trkpt>
      <trkpt lat="40.548317" lon="-5.119050">
        <ele>2114.0</ele>
        <time>2014-06-30T13:12:58Z</time>
      </trkpt>
      <trkpt lat="40.548400" lon="-5.119033">
        <ele>2113.0</ele>
        <time>2014-06-30T13:12:59Z</time>
      </trkpt>
      <trkpt lat="40.548500" lon="-5.119017">
        <ele>2111.0</ele>
        <time>2014-06-30T13:13:00Z</time>
      </trkpt>
      <trkpt lat="40.548583" lon="-5.118967">
        <ele>2110.0</ele>
        <time>2014-06-30T13:13:01Z</time>
      </trkpt>
      <trkpt lat="40.548667" lon="-5.118933">
        <ele>2109.0</ele>
        <time>2014-06-30T13:13:02Z</time>
      </trkpt>
      <trkpt lat="40.548767" lon="-5.118883">
        <ele>2107.0</ele>
        <time>2014-06-30T13:13:03Z</time>
      </trkpt>
      <trkpt lat="40.548867" lon="-5.118833">
        <ele>2105.0</ele>
        <time>2014-06-30T13:13:04Z</time>
      </trkpt>
      <trkpt lat="40.548967" lon="-5.118783">
        <ele>2104.0</ele>
        <time>2014-06-30T13:13:05Z</time>
      </trkpt>
      <trkpt lat="40.549067" lon="-5.118717">
        <ele>2104.0</ele>
        <time>2014-06-30T13:13:06Z</time>
      </trkpt>
      <trkpt lat="40.549150" lon="-5.118633">
        <ele>2104.0</ele>
        <time>2014-06-30T13:13:07Z</time>
      </trkpt>
      <trkpt lat="40.549217" lon="-5.118533">
        <ele>2104.0</ele>
        <time>2014-06-30T13:13:08Z</time>
      </trkpt>
      <trkpt lat="40.549283" lon="-5.118450">
        <ele>2104.0</ele>
        <time>2014-06-30T13:13:09Z</time>
      </trkpt>
      <trkpt lat="40.549350" lon="-5.118367">
        <ele>2104.0</ele>
        <time>2014-06-30T13:13:10Z</time>
      </trkpt>
      <trkpt lat="40.549417" lon="-5.118267">
        <ele>2103.0</ele>
        <time>2014-06-30T13:13:11Z</time>
      </trkpt>
      <trkpt lat="40.549500" lon="-5.118167">
        <ele>2101.0</ele>
        <time>2014-06-30T13:13:12Z</time>
      </trkpt>
      <trkpt lat="40.549583" lon="-5.118067">
        <ele>2100.0</ele>
        <time>2014-06-30T13:13:13Z</time>
      </trkpt>
      <trkpt lat="40.549667" lon="-5.117983">
        <ele>2100.0</ele>
        <time>2014-06-30T13:13:14Z</time>
      </trkpt>
      <trkpt lat="40.549767" lon="-5.117900">
        <ele>2097.0</ele>
        <time>2014-06-30T13:13:15Z</time>
      </trkpt>
      <trkpt lat="40.549867" lon="-5.117800">
        <ele>2096.0</ele>
        <time>2014-06-30T13:13:16Z</time>
      </trkpt>
      <trkpt lat="40.549950" lon="-5.117700">
        <ele>2095.0</ele>
        <time>2014-06-30T13:13:17Z</time>
      </trkpt>
      <trkpt lat="40.550033" lon="-5.117567">
        <ele>2094.0</ele>
        <time>2014-06-30T13:13:18Z</time>
      </trkpt>
      <trkpt lat="40.550083" lon="-5.117417">
        <ele>2092.0</ele>
        <time>2014-06-30T13:13:19Z</time>
      </trkpt>
      <trkpt lat="40.550133" lon="-5.117250">
        <ele>2091.0</ele>
        <time>2014-06-30T13:13:20Z</time>
      </trkpt>
      <trkpt lat="40.550167" lon="-5.117083">
        <ele>2089.0</ele>
        <time>2014-06-30T13:13:21Z</time>
      </trkpt>
      <trkpt lat="40.550183" lon="-5.116900">
        <ele>2086.0</ele>
        <time>2014-06-30T13:13:22Z</time>
      </trkpt>
      <trkpt lat="40.550217" lon="-5.116717">
        <ele>2084.0</ele>
        <time>2014-06-30T13:13:23Z</time>
      </trkpt>
      <trkpt lat="40.550217" lon="-5.116550">
        <ele>2082.0</ele>
        <time>2014-06-30T13:13:24Z</time>
      </trkpt>
      <trkpt lat="40.550233" lon="-5.116383">
        <ele>2081.0</ele>
        <time>2014-06-30T13:13:25Z</time>
      </trkpt>
      <trkpt lat="40.550217" lon="-5.116217">
        <ele>2079.0</ele>
        <time>2014-06-30T13:13:26Z</time>
      </trkpt>
      <trkpt lat="40.550167" lon="-5.116050">
        <ele>2077.0</ele>
        <time>2014-06-30T13:13:27Z</time>
      </trkpt>
      <trkpt lat="40.550117" lon="-5.115883">
        <ele>2074.0</ele>
        <time>2014-06-30T13:13:28Z</time>
      </trkpt>
      <trkpt lat="40.550067" lon="-5.115733">
        <ele>2071.0</ele>
        <time>2014-06-30T13:13:29Z</time>
      </trkpt>
      <trkpt lat="40.550000" lon="-5.115567">
        <ele>2069.0</ele>
        <time>2014-06-30T13:13:30Z</time>
      </trkpt>
      <trkpt lat="40.549933" lon="-5.115383">
        <ele>2067.0</ele>
        <time>2014-06-30T13:13:31Z</time>
      </trkpt>
      <trkpt lat="40.549883" lon="-5.115233">
        <ele>2065.0</ele>
        <time>2014-06-30T13:13:32Z</time>
      </trkpt>
      <trkpt lat="40.549817" lon="-5.115083">
        <ele>2065.0</ele>
        <time>2014-06-30T13:13:33Z</time>
      </trkpt>
      <trkpt lat="40.549750" lon="-5.114967">
        <ele>2064.0</ele>
        <time>2014-06-30T13:13:34Z</time>
      </trkpt>
      <trkpt lat="40.549667" lon="-5.114867">
        <ele>2063.0</ele>
        <time>2014-06-30T13:13:35Z</time>
      </trkpt>
      <trkpt lat="40.549583" lon="-5.114767">
        <ele>2062.0</ele>
        <time>2014-06-30T13:13:36Z</time>
      </trkpt>
      <trkpt lat="40.549500" lon="-5.114650">
        <ele>2062.0</ele>
        <time>2014-06-30T13:13:37Z</time>
      </trkpt>
      <trkpt lat="40.549417" lon="-5.114550">
        <ele>2062.0</ele>
        <time>2014-06-30T13:13:38Z</time>
      </trkpt>
      <trkpt lat="40.549333" lon="-5.114467">
        <ele>2062.0</ele>
        <time>2014-06-30T13:13:39Z</time>
      </trkpt>
      <trkpt lat="40.549250" lon="-5.114417">
        <ele>2062.0</ele>
        <time>2014-06-30T13:13:40Z</time>
      </trkpt>
      <trkpt lat="40.549183" lon="-5.114367">
        <ele>2062.0</ele>
        <time>2014-06-30T13:13:41Z</time>
      </trkpt>
      <trkpt lat="40.549100" lon="-5.114333">
        <ele>2062.0</ele>
        <time>2014-06-30T13:13:42Z</time>
      </trkpt>
      <trkpt lat="40.549017" lon="-5.114300">
        <ele>2062.0</ele>
        <time>2014-06-30T13:13:43Z</time>
      </trkpt>
      <trkpt lat="40.548933" lon="-5.114283">
        <ele>2061.0</ele>
        <time>2014-06-30T13:13:44Z</time>
      </trkpt>
      <trkpt lat="40.548867" lon="-5.114250">
        <ele>2062.0</ele>
        <time>2014-06-30T13:13:45Z</time>
      </trkpt>
      <trkpt lat="40.548800" lon="-5.114233">
        <ele>2062.0</ele>
        <time>2014-06-30T13:13:46Z</time>
      </trkpt>
      <trkpt lat="40.548750" lon="-5.114200">
        <ele>2062.0</ele>
        <time>2014-06-30T13:13:47Z</time>
      </trkpt>
      <trkpt lat="40.548717" lon="-5.114183">
        <ele>2063.0</ele>
        <time>2014-06-30T13:13:48Z</time>
      </trkpt>
      <trkpt lat="40.548667" lon="-5.114167">
        <ele>2062.0</ele>
        <time>2014-06-30T13:13:49Z</time>
      </trkpt>
      <trkpt lat="40.548633" lon="-5.114150">
        <ele>2062.0</ele>
        <time>2014-06-30T13:13:50Z</time>
      </trkpt>
      <trkpt lat="40.548600" lon="-5.114167">
        <ele>2061.0</ele>
        <time>2014-06-30T13:13:51Z</time>
      </trkpt>
      <trkpt lat="40.548583" lon="-5.114183">
        <ele>2061.0</ele>
        <time>2014-06-30T13:13:52Z</time>
      </trkpt>
      <trkpt lat="40.548583" lon="-5.114217">
        <ele>2059.0</ele>
        <time>2014-06-30T13:13:53Z</time>
      </trkpt>
      <trkpt lat="40.548600" lon="-5.114250">
        <ele>2057.0</ele>
        <time>2014-06-30T13:13:54Z</time>
      </trkpt>
      <trkpt lat="40.548650" lon="-5.114267">
        <ele>2055.0</ele>
        <time>2014-06-30T13:13:55Z</time>
      </trkpt>
      <trkpt lat="40.548717" lon="-5.114267">
        <ele>2053.0</ele>
        <time>2014-06-30T13:13:56Z</time>
      </trkpt>
      <trkpt lat="40.548817" lon="-5.114250">
        <ele>2051.0</ele>
        <time>2014-06-30T13:13:57Z</time>
      </trkpt>
      <trkpt lat="40.548917" lon="-5.114200">
        <ele>2048.0</ele>
        <time>2014-06-30T13:13:58Z</time>
      </trkpt>
      <trkpt lat="40.549033" lon="-5.114133">
        <ele>2047.0</ele>
        <time>2014-06-30T13:13:59Z</time>
      </trkpt>
      <trkpt lat="40.549133" lon="-5.114067">
        <ele>2046.0</ele>
        <time>2014-06-30T13:14:00Z</time>
      </trkpt>
      <trkpt lat="40.549233" lon="-5.114017">
        <ele>2045.0</ele>
        <time>2014-06-30T13:14:01Z</time>
      </trkpt>
      <trkpt lat="40.549300" lon="-5.113950">
        <ele>2044.0</ele>
        <time>2014-06-30T13:14:02Z</time>
      </trkpt>
      <trkpt lat="40.549400" lon="-5.113883">
        <ele>2042.0</ele>
        <time>2014-06-30T13:14:03Z</time>
      </trkpt>
      <trkpt lat="40.549500" lon="-5.113783">
        <ele>2041.0</ele>
        <time>2014-06-30T13:14:04Z</time>
      </trkpt>
      <trkpt lat="40.549600" lon="-5.113683">
        <ele>2040.0</ele>
        <time>2014-06-30T13:14:05Z</time>
      </trkpt>
      <trkpt lat="40.549700" lon="-5.113583">
        <ele>2039.0</ele>
        <time>2014-06-30T13:14:06Z</time>
      </trkpt>
      <trkpt lat="40.549817" lon="-5.113483">
        <ele>2037.0</ele>
        <time>2014-06-30T13:14:07Z</time>
      </trkpt>
      <trkpt lat="40.549917" lon="-5.113383">
        <ele>2036.0</ele>
        <time>2014-06-30T13:14:08Z</time>
      </trkpt>
      <trkpt lat="40.550017" lon="-5.113267">
        <ele>2036.0</ele>
        <time>2014-06-30T13:14:09Z</time>
      </trkpt>
      <trkpt lat="40.550117" lon="-5.113150">
        <ele>2036.0</ele>
        <time>2014-06-30T13:14:10Z</time>
      </trkpt>
      <trkpt lat="40.550217" lon="-5.113000">
        <ele>2036.0</ele>
        <time>2014-06-30T13:14:11Z</time>
      </trkpt>
      <trkpt lat="40.550300" lon="-5.112867">
        <ele>2037.0</ele>
        <time>2014-06-30T13:14:12Z</time>
      </trkpt>
      <trkpt lat="40.550367" lon="-5.112700">
        <ele>2038.0</ele>
        <time>2014-06-30T13:14:13Z</time>
      </trkpt>
      <trkpt lat="40.550417" lon="-5.112550">
        <ele>2038.0</ele>
        <time>2014-06-30T13:14:14Z</time>
      </trkpt>
      <trkpt lat="40.550450" lon="-5.112383">
        <ele>2039.0</ele>
        <time>2014-06-30T13:14:15Z</time>
      </trkpt>
      <trkpt lat="40.550467" lon="-5.112200">
        <ele>2040.0</ele>
        <time>2014-06-30T13:14:16Z</time>
      </trkpt>
      <trkpt lat="40.550450" lon="-5.112033">
        <ele>2040.0</ele>
        <time>2014-06-30T13:14:17Z</time>
      </trkpt>
      <trkpt lat="40.550433" lon="-5.111867">
        <ele>2039.0</ele>
        <time>2014-06-30T13:14:18Z</time>
      </trkpt>
      <trkpt lat="40.550400" lon="-5.111700">
        <ele>2038.0</ele>
        <time>2014-06-30T13:14:19Z</time>
      </trkpt>
      <trkpt lat="40.550367" lon="-5.111533">
        <ele>2037.0</ele>
        <time>2014-06-30T13:14:20Z</time>
      </trkpt>
      <trkpt lat="40.550317" lon="-5.111367">
        <ele>2035.0</ele>
        <time>2014-06-30T13:14:21Z</time>
      </trkpt>
      <trkpt lat="40.550250" lon="-5.111233">
        <ele>2034.0</ele>
        <time>2014-06-30T13:14:22Z</time>
      </trkpt>
      <trkpt lat="40.550167" lon="-5.111133">
        <ele>2033.0</ele>
        <time>2014-06-30T13:14:23Z</time>
      </trkpt>
      <trkpt lat="40.550083" lon="-5.111067">
        <ele>2032.0</ele>
        <time>2014-06-30T13:14:24Z</time>
      </trkpt>
      <trkpt lat="40.550017" lon="-5.111017">
        <ele>2031.0</ele>
        <time>2014-06-30T13:14:25Z</time>
      </trkpt>
      <trkpt lat="40.549950" lon="-5.110983">
        <ele>2031.0</ele>
        <time>2014-06-30T13:14:26Z</time>
      </trkpt>
      <trkpt lat="40.549900" lon="-5.110983">
        <ele>2030.0</ele>
        <time>2014-06-30T13:14:27Z</time>
      </trkpt>
      <trkpt lat="40.549867" lon="-5.110983">
        <ele>2029.0</ele>
        <time>2014-06-30T13:14:28Z</time>
      </trkpt>
      <trkpt lat="40.549833" lon="-5.111033">
        <ele>2028.0</ele>
        <time>2014-06-30T13:14:29Z</time>
      </trkpt>
      <trkpt lat="40.549833" lon="-5.111067">
        <ele>2027.0</ele>
        <time>2014-06-30T13:14:30Z</time>
      </trkpt>
      <trkpt lat="40.549867" lon="-5.111100">
        <ele>2026.0</ele>
        <time>2014-06-30T13:14:31Z</time>
      </trkpt>
      <trkpt lat="40.549917" lon="-5.111133">
        <ele>2024.0</ele>
        <time>2014-06-30T13:14:32Z</time>
      </trkpt>
      <trkpt lat="40.549983" lon="-5.111150">
        <ele>2023.0</ele>
        <time>2014-06-30T13:14:33Z</time>
      </trkpt>
      <trkpt lat="40.550067" lon="-5.111150">
        <ele>2022.0</ele>
        <time>2014-06-30T13:14:34Z</time>
      </trkpt>
      <trkpt lat="40.550150" lon="-5.111150">
        <ele>2020.0</ele>
        <time>2014-06-30T13:14:35Z</time>
      </trkpt>
      <trkpt lat="40.550233" lon="-5.111150">
        <ele>2019.0</ele>
        <time>2014-06-30T13:14:36Z</time>
      </trkpt>
      <trkpt lat="40.550333" lon="-5.111117">
        <ele>2018.0</ele>
        <time>2014-06-30T13:14:37Z</time>
      </trkpt>
      <trkpt lat="40.550433" lon="-5.111050">
        <ele>2017.0</ele>
        <time>2014-06-30T13:14:38Z</time>
      </trkpt>
      <trkpt lat="40.550517" lon="-5.110967">
        <ele>2017.0</ele>
        <time>2014-06-30T13:14:39Z</time>
      </trkpt>
      <trkpt lat="40.550617" lon="-5.110850">
        <ele>2015.0</ele>
        <time>2014-06-30T13:14:40Z</time>
      </trkpt>
      <trkpt lat="40.550683" lon="-5.110717">
        <ele>2015.0</ele>
        <time>2014-06-30T13:14:41Z</time>
      </trkpt>
      <trkpt lat="40.550767" lon="-5.110583">
        <ele>2015.0</ele>
        <time>2014-06-30T13:14:42Z</time>
      </trkpt>
      <trkpt lat="40.550833" lon="-5.110433">
        <ele>2015.0</ele>
        <time>2014-06-30T13:14:43Z</time>
      </trkpt>
      <trkpt lat="40.550883" lon="-5.110283">
        <ele>2015.0</ele>
        <time>2014-06-30T13:14:44Z</time>
      </trkpt>
      <trkpt lat="40.550950" lon="-5.110133">
        <ele>2013.0</ele>
        <time>2014-06-30T13:14:45Z</time>
      </trkpt>
      <trkpt lat="40.551000" lon="-5.109967">
        <ele>2011.0</ele>
        <time>2014-06-30T13:14:46Z</time>
      </trkpt>
      <trkpt lat="40.551067" lon="-5.109783">
        <ele>2009.0</ele>
        <time>2014-06-30T13:14:47Z</time>
      </trkpt>
      <trkpt lat="40.551150" lon="-5.109617">
        <ele>2007.0</ele>
        <time>2014-06-30T13:14:48Z</time>
      </trkpt>
      <trkpt lat="40.551200" lon="-5.109433">
        <ele>2005.0</ele>
        <time>2014-06-30T13:14:49Z</time>
      </trkpt>
      <trkpt lat="40.551250" lon="-5.109267">
        <ele>2004.0</ele>
        <time>2014-06-30T13:14:50Z</time>
      </trkpt>
      <trkpt lat="40.551300" lon="-5.109100">
        <ele>2003.0</ele>
        <time>2014-06-30T13:14:51Z</time>
      </trkpt>
      <trkpt lat="40.551350" lon="-5.108933">
        <ele>2000.0</ele>
        <time>2014-06-30T13:14:52Z</time>
      </trkpt>
      <trkpt lat="40.551400" lon="-5.108767">
        <ele>1997.0</ele>
        <time>2014-06-30T13:14:53Z</time>
      </trkpt>
      <trkpt lat="40.551450" lon="-5.108583">
        <ele>1995.0</ele>
        <time>2014-06-30T13:14:54Z</time>
      </trkpt>
      <trkpt lat="40.551500" lon="-5.108400">
        <ele>1992.0</ele>
        <time>2014-06-30T13:14:55Z</time>
      </trkpt>
      <trkpt lat="40.551550" lon="-5.108233">
        <ele>1988.0</ele>
        <time>2014-06-30T13:14:56Z</time>
      </trkpt>
      <trkpt lat="40.551600" lon="-5.108050">
        <ele>1986.0</ele>
        <time>2014-06-30T13:14:57Z</time>
      </trkpt>
      <trkpt lat="40.551633" lon="-5.107883">
        <ele>1984.0</ele>
        <time>2014-06-30T13:14:58Z</time>
      </trkpt>
      <trkpt lat="40.551667" lon="-5.107733">
        <ele>1982.0</ele>
        <time>2014-06-30T13:14:59Z</time>
      </trkpt>
      <trkpt lat="40.551700" lon="-5.107567">
        <ele>1979.0</ele>
        <time>2014-06-30T13:15:00Z</time>
      </trkpt>
      <trkpt lat="40.551750" lon="-5.107400">
        <ele>1975.0</ele>
        <time>2014-06-30T13:15:01Z</time>
      </trkpt>
      <trkpt lat="40.551817" lon="-5.107217">
        <ele>1971.0</ele>
        <time>2014-06-30T13:15:02Z</time>
      </trkpt>
      <trkpt lat="40.551883" lon="-5.107050">
        <ele>1967.0</ele>
        <time>2014-06-30T13:15:03Z</time>
      </trkpt>
      <trkpt lat="40.551933" lon="-5.106867">
        <ele>1964.0</ele>
        <time>2014-06-30T13:15:04Z</time>
      </trkpt>
      <trkpt lat="40.551967" lon="-5.106683">
        <ele>1961.0</ele>
        <time>2014-06-30T13:15:05Z</time>
      </trkpt>
      <trkpt lat="40.551983" lon="-5.106500">
        <ele>1958.0</ele>
        <time>2014-06-30T13:15:06Z</time>
      </trkpt>
      <trkpt lat="40.552017" lon="-5.106317">
        <ele>1955.0</ele>
        <time>2014-06-30T13:15:07Z</time>
      </trkpt>
      <trkpt lat="40.552033" lon="-5.106117">
        <ele>1952.0</ele>
        <time>2014-06-30T13:15:08Z</time>
      </trkpt>
      <trkpt lat="40.552067" lon="-5.105933">
        <ele>1949.0</ele>
        <time>2014-06-30T13:15:09Z</time>
      </trkpt>
      <trkpt lat="40.552117" lon="-5.105750">
        <ele>1945.0</ele>
        <time>2014-06-30T13:15:10Z</time>
      </trkpt>
      <trkpt lat="40.552183" lon="-5.105567">
        <ele>1941.0</ele>
        <time>2014-06-30T13:15:11Z</time>
      </trkpt>
      <trkpt lat="40.552250" lon="-5.105417">
        <ele>1938.0</ele>
        <time>2014-06-30T13:15:12Z</time>
      </trkpt>
      <trkpt lat="40.552300" lon="-5.105267">
        <ele>1936.0</ele>
        <time>2014-06-30T13:15:13Z</time>
      </trkpt>
      <trkpt lat="40.552367" lon="-5.105100">
        <ele>1933.0</ele>
        <time>2014-06-30T13:15:14Z</time>
      </trkpt>
      <trkpt lat="40.552417" lon="-5.104933">
        <ele>1930.0</ele>
        <time>2014-06-30T13:15:15Z</time>
      </trkpt>
      <trkpt lat="40.552467" lon="-5.104767">
        <ele>1927.0</ele>
        <time>2014-06-30T13:15:16Z</time>
      </trkpt>
      <trkpt lat="40.552533" lon="-5.104583">
        <ele>1924.0</ele>
        <time>2014-06-30T13:15:17Z</time>
      </trkpt>
      <trkpt lat="40.552583" lon="-5.104400">
        <ele>1922.0</ele>
        <time>2014-06-30T13:15:18Z</time>
      </trkpt>
      <trkpt lat="40.552633" lon="-5.104217">
        <ele>1921.0</ele>
        <time>2014-06-30T13:15:19Z</time>
      </trkpt>
      <trkpt lat="40.552667" lon="-5.104033">
        <ele>1919.0</ele>
        <time>2014-06-30T13:15:20Z</time>
      </trkpt>
      <trkpt lat="40.552700" lon="-5.103867">
        <ele>1917.0</ele>
        <time>2014-06-30T13:15:21Z</time>
      </trkpt>
      <trkpt lat="40.552733" lon="-5.103683">
        <ele>1914.0</ele>
        <time>2014-06-30T13:15:22Z</time>
      </trkpt>
      <trkpt lat="40.552783" lon="-5.103483">
        <ele>1911.0</ele>
        <time>2014-06-30T13:15:23Z</time>
      </trkpt>
      <trkpt lat="40.552817" lon="-5.103300">
        <ele>1909.0</ele>
        <time>2014-06-30T13:15:24Z</time>
      </trkpt>
      <trkpt lat="40.552883" lon="-5.103117">
        <ele>1909.0</ele>
        <time>2014-06-30T13:15:25Z</time>
      </trkpt>
      <trkpt lat="40.552950" lon="-5.102967">
        <ele>1908.0</ele>
        <time>2014-06-30T13:15:26Z</time>
      </trkpt>
      <trkpt lat="40.553017" lon="-5.102800">
        <ele>1907.0</ele>
        <time>2014-06-30T13:15:27Z</time>
      </trkpt>
      <trkpt lat="40.553083" lon="-5.102650">
        <ele>1906.0</ele>
        <time>2014-06-30T13:15:28Z</time>
      </trkpt>
      <trkpt lat="40.553167" lon="-5.102483">
        <ele>1905.0</ele>
        <time>2014-06-30T13:15:29Z</time>
      </trkpt>
      <trkpt lat="40.553217" lon="-5.102300">
        <ele>1903.0</ele>
        <time>2014-06-30T13:15:30Z</time>
      </trkpt>
      <trkpt lat="40.553283" lon="-5.102117">
        <ele>1902.0</ele>
        <time>2014-06-30T13:15:31Z</time>
      </trkpt>
      <trkpt lat="40.553333" lon="-5.101917">
        <ele>1901.0</ele>
        <time>2014-06-30T13:15:32Z</time>
      </trkpt>
      <trkpt lat="40.553383" lon="-5.101733">
        <ele>1900.0</ele>
        <time>2014-06-30T13:15:33Z</time>
      </trkpt>
      <trkpt lat="40.553433" lon="-5.101550">
        <ele>1899.0</ele>
        <time>2014-06-30T13:15:34Z</time>
      </trkpt>
      <trkpt lat="40.553483" lon="-5.101383">
        <ele>1898.0</ele>
        <time>2014-06-30T13:15:35Z</time>
      </trkpt>
      <trkpt lat="40.553517" lon="-5.101217">
        <ele>1897.0</ele>
        <time>2014-06-30T13:15:36Z</time>
      </trkpt>
      <trkpt lat="40.553550" lon="-5.101017">
        <ele>1894.0</ele>
        <time>2014-06-30T13:15:37Z</time>
      </trkpt>
      <trkpt lat="40.553600" lon="-5.100833">
        <ele>1891.0</ele>
        <time>2014-06-30T13:15:38Z</time>
      </trkpt>
      <trkpt lat="40.553667" lon="-5.100650">
        <ele>1889.0</ele>
        <time>2014-06-30T13:15:39Z</time>
      </trkpt>
      <trkpt lat="40.553717" lon="-5.100500">
        <ele>1887.0</ele>
        <time>2014-06-30T13:15:40Z</time>
      </trkpt>
      <trkpt lat="40.553783" lon="-5.100350">
        <ele>1885.0</ele>
        <time>2014-06-30T13:15:41Z</time>
      </trkpt>
      <trkpt lat="40.553850" lon="-5.100183">
        <ele>1884.0</ele>
        <time>2014-06-30T13:15:42Z</time>
      </trkpt>
      <trkpt lat="40.553917" lon="-5.100017">
        <ele>1882.0</ele>
        <time>2014-06-30T13:15:43Z</time>
      </trkpt>
      <trkpt lat="40.553983" lon="-5.099867">
        <ele>1881.0</ele>
        <time>2014-06-30T13:15:44Z</time>
      </trkpt>
      <trkpt lat="40.554050" lon="-5.099717">
        <ele>1879.0</ele>
        <time>2014-06-30T13:15:45Z</time>
      </trkpt>
      <trkpt lat="40.554117" lon="-5.099567">
        <ele>1878.0</ele>
        <time>2014-06-30T13:15:46Z</time>
      </trkpt>
      <trkpt lat="40.554183" lon="-5.099417">
        <ele>1876.0</ele>
        <time>2014-06-30T13:15:47Z</time>
      </trkpt>
      <trkpt lat="40.554267" lon="-5.099267">
        <ele>1874.0</ele>
        <time>2014-06-30T13:15:48Z</time>
      </trkpt>
      <trkpt lat="40.554333" lon="-5.099117">
        <ele>1872.0</ele>
        <time>2014-06-30T13:15:49Z</time>
      </trkpt>
      <trkpt lat="40.554400" lon="-5.098967">
        <ele>1871.0</ele>
        <time>2014-06-30T13:15:50Z</time>
      </trkpt>
      <trkpt lat="40.554467" lon="-5.098833">
        <ele>1870.0</ele>
        <time>2014-06-30T13:15:51Z</time>
      </trkpt>
      <trkpt lat="40.554517" lon="-5.098683">
        <ele>1868.0</ele>
        <time>2014-06-30T13:15:52Z</time>
      </trkpt>
      <trkpt lat="40.554583" lon="-5.098533">
        <ele>1866.0</ele>
        <time>2014-06-30T13:15:53Z</time>
      </trkpt>
      <trkpt lat="40.554633" lon="-5.098367">
        <ele>1864.0</ele>
        <time>2014-06-30T13:15:54Z</time>
      </trkpt>
      <trkpt lat="40.554700" lon="-5.098200">
        <ele>1862.0</ele>
        <time>2014-06-30T13:15:55Z</time>
      </trkpt>
      <trkpt lat="40.554750" lon="-5.098033">
        <ele>1860.0</ele>
        <time>2014-06-30T13:15:56Z</time>
      </trkpt>
      <trkpt lat="40.554783" lon="-5.097850">
        <ele>1858.0</ele>
        <time>2014-06-30T13:15:57Z</time>
      </trkpt>
      <trkpt lat="40.554817" lon="-5.097650">
        <ele>1857.0</ele>
        <time>2014-06-30T13:15:58Z</time>
      </trkpt>
      <trkpt lat="40.554850" lon="-5.097450">
        <ele>1855.0</ele>
        <time>2014-06-30T13:15:59Z</time>
      </trkpt>
      <trkpt lat="40.554883" lon="-5.097267">
        <ele>1853.0</ele>
        <time>2014-06-30T13:16:00Z</time>
      </trkpt>
      <trkpt lat="40.554917" lon="-5.097083">
        <ele>1851.0</ele>
        <time>2014-06-30T13:16:01Z</time>
      </trkpt>
      <trkpt lat="40.554950" lon="-5.096900">
        <ele>1850.0</ele>
        <time>2014-06-30T13:16:02Z</time>
      </trkpt>
      <trkpt lat="40.554967" lon="-5.096717">
        <ele>1849.0</ele>
        <time>2014-06-30T13:16:03Z</time>
      </trkpt>
      <trkpt lat="40.555000" lon="-5.096517">
        <ele>1847.0</ele>
        <time>2014-06-30T13:16:04Z</time>
      </trkpt>
      <trkpt lat="40.555033" lon="-5.096317">
        <ele>1846.0</ele>
        <time>2014-06-30T13:16:05Z</time>
      </trkpt>
      <trkpt lat="40.555067" lon="-5.096117">
        <ele>1844.0</ele>
        <time>2014-06-30T13:16:06Z</time>
      </trkpt>
      <trkpt lat="40.555100" lon="-5.095933">
        <ele>1843.0</ele>
        <time>2014-06-30T13:16:07Z</time>
      </trkpt>
      <trkpt lat="40.555133" lon="-5.095750">
        <ele>1842.0</ele>
        <time>2014-06-30T13:16:08Z</time>
      </trkpt>
      <trkpt lat="40.555167" lon="-5.095583">
        <ele>1841.0</ele>
        <time>2014-06-30T13:16:09Z</time>
      </trkpt>
      <trkpt lat="40.555183" lon="-5.095400">
        <ele>1839.0</ele>
        <time>2014-06-30T13:16:10Z</time>
      </trkpt>
      <trkpt lat="40.555233" lon="-5.095217">
        <ele>1837.0</ele>
        <time>2014-06-30T13:16:11Z</time>
      </trkpt>
      <trkpt lat="40.555267" lon="-5.095033">
        <ele>1834.0</ele>
        <time>2014-06-30T13:16:12Z</time>
      </trkpt>
      <trkpt lat="40.555300" lon="-5.094850">
        <ele>1832.0</ele>
        <time>2014-06-30T13:16:13Z</time>
      </trkpt>
      <trkpt lat="40.555350" lon="-5.094650">
        <ele>1829.0</ele>
        <time>2014-06-30T13:16:14Z</time>
      </trkpt>
      <trkpt lat="40.555383" lon="-5.094450">
        <ele>1827.0</ele>
        <time>2014-06-30T13:16:15Z</time>
      </trkpt>
      <trkpt lat="40.555417" lon="-5.094267">
        <ele>1825.0</ele>
        <time>2014-06-30T13:16:16Z</time>
      </trkpt>
      <trkpt lat="40.555450" lon="-5.094083">
        <ele>1824.0</ele>
        <time>2014-06-30T13:16:17Z</time>
      </trkpt>
      <trkpt lat="40.555467" lon="-5.093900">
        <ele>1823.0</ele>
        <time>2014-06-30T13:16:18Z</time>
      </trkpt>
      <trkpt lat="40.555483" lon="-5.093733">
        <ele>1820.0</ele>
        <time>2014-06-30T13:16:19Z</time>
      </trkpt>
      <trkpt lat="40.555500" lon="-5.093550">
        <ele>1818.0</ele>
        <time>2014-06-30T13:16:20Z</time>
      </trkpt>
      <trkpt lat="40.555533" lon="-5.093350">
        <ele>1815.0</ele>
        <time>2014-06-30T13:16:21Z</time>
      </trkpt>
      <trkpt lat="40.555567" lon="-5.093167">
        <ele>1811.0</ele>
        <time>2014-06-30T13:16:22Z</time>
      </trkpt>
      <trkpt lat="40.555600" lon="-5.092967">
        <ele>1809.0</ele>
        <time>2014-06-30T13:16:23Z</time>
      </trkpt>
      <trkpt lat="40.555617" lon="-5.092783">
        <ele>1807.0</ele>
        <time>2014-06-30T13:16:24Z</time>
      </trkpt>
      <trkpt lat="40.555633" lon="-5.092583">
        <ele>1805.0</ele>
        <time>2014-06-30T13:16:25Z</time>
      </trkpt>
      <trkpt lat="40.555667" lon="-5.092383">
        <ele>1803.0</ele>
        <time>2014-06-30T13:16:26Z</time>
      </trkpt>
      <trkpt lat="40.555700" lon="-5.092200">
        <ele>1801.0</ele>
        <time>2014-06-30T13:16:27Z</time>
      </trkpt>
      <trkpt lat="40.555750" lon="-5.092017">
        <ele>1799.0</ele>
        <time>2014-06-30T13:16:28Z</time>
      </trkpt>
      <trkpt lat="40.555800" lon="-5.091817">
        <ele>1796.0</ele>
        <time>2014-06-30T13:16:29Z</time>
      </trkpt>
      <trkpt lat="40.555850" lon="-5.091650">
        <ele>1795.0</ele>
        <time>2014-06-30T13:16:30Z</time>
      </trkpt>
      <trkpt lat="40.555900" lon="-5.091483">
        <ele>1794.0</ele>
        <time>2014-06-30T13:16:31Z</time>
      </trkpt>
      <trkpt lat="40.555950" lon="-5.091333">
        <ele>1792.0</ele>
        <time>2014-06-30T13:16:32Z</time>
      </trkpt>
      <trkpt lat="40.556017" lon="-5.091183">
        <ele>1789.0</ele>
        <time>2014-06-30T13:16:33Z</time>
      </trkpt>
      <trkpt lat="40.556100" lon="-5.091033">
        <ele>1786.0</ele>
        <time>2014-06-30T13:16:34Z</time>
      </trkpt>
      <trkpt lat="40.556167" lon="-5.090883">
        <ele>1784.0</ele>
        <time>2014-06-30T13:16:35Z</time>
      </trkpt>
      <trkpt lat="40.556250" lon="-5.090750">
        <ele>1782.0</ele>
        <time>2014-06-30T13:16:36Z</time>
      </trkpt>
      <trkpt lat="40.556317" lon="-5.090633">
        <ele>1781.0</ele>
        <time>2014-06-30T13:16:37Z</time>
      </trkpt>
      <trkpt lat="40.556383" lon="-5.090517">
        <ele>1779.0</ele>
        <time>2014-06-30T13:16:38Z</time>
      </trkpt>
      <trkpt lat="40.556450" lon="-5.090367">
        <ele>1778.0</ele>
        <time>2014-06-30T13:16:39Z</time>
      </trkpt>
      <trkpt lat="40.556500" lon="-5.090200">
        <ele>1776.0</ele>
        <time>2014-06-30T13:16:40Z</time>
      </trkpt>
      <trkpt lat="40.556567" lon="-5.090050">
        <ele>1774.0</ele>
        <time>2014-06-30T13:16:41Z</time>
      </trkpt>
      <trkpt lat="40.556617" lon="-5.089883">
        <ele>1773.0</ele>
        <time>2014-06-30T13:16:42Z</time>
      </trkpt>
      <trkpt lat="40.556667" lon="-5.089733">
        <ele>1772.0</ele>
        <time>2014-06-30T13:16:43Z</time>
      </trkpt>
      <trkpt lat="40.556700" lon="-5.089567">
        <ele>1770.0</ele>
        <time>2014-06-30T13:16:44Z</time>
      </trkpt>
      <trkpt lat="40.556733" lon="-5.089400">
        <ele>1769.0</ele>
        <time>2014-06-30T13:16:45Z</time>
      </trkpt>
      <trkpt lat="40.556783" lon="-5.089217">
        <ele>1766.0</ele>
        <time>2014-06-30T13:16:46Z</time>
      </trkpt>
      <trkpt lat="40.556817" lon="-5.089050">
        <ele>1764.0</ele>
        <time>2014-06-30T13:16:47Z</time>
      </trkpt>
      <trkpt lat="40.556850" lon="-5.088867">
        <ele>1763.0</ele>
        <time>2014-06-30T13:16:48Z</time>
      </trkpt>
      <trkpt lat="40.556883" lon="-5.088700">
        <ele>1761.0</ele>
        <time>2014-06-30T13:16:49Z</time>
      </trkpt>
      <trkpt lat="40.556900" lon="-5.088517">
        <ele>1758.0</ele>
        <time>2014-06-30T13:16:50Z</time>
      </trkpt>
      <trkpt lat="40.556917" lon="-5.088333">
        <ele>1756.0</ele>
        <time>2014-06-30T13:16:51Z</time>
      </trkpt>
      <trkpt lat="40.556950" lon="-5.088133">
        <ele>1753.0</ele>
        <time>2014-06-30T13:16:52Z</time>
      </trkpt>
      <trkpt lat="40.556983" lon="-5.087933">
        <ele>1751.0</ele>
        <time>2014-06-30T13:16:53Z</time>
      </trkpt>
      <trkpt lat="40.557000" lon="-5.087717">
        <ele>1749.0</ele>
        <time>2014-06-30T13:16:54Z</time>
      </trkpt>
      <trkpt lat="40.557017" lon="-5.087500">
        <ele>1747.0</ele>
        <time>2014-06-30T13:16:55Z</time>
      </trkpt>
      <trkpt lat="40.557033" lon="-5.087283">
        <ele>1746.0</ele>
        <time>2014-06-30T13:16:56Z</time>
      </trkpt>
      <trkpt lat="40.557050" lon="-5.087067">
        <ele>1744.0</ele>
        <time>2014-06-30T13:16:57Z</time>
      </trkpt>
      <trkpt lat="40.557050" lon="-5.086867">
        <ele>1743.0</ele>
        <time>2014-06-30T13:16:58Z</time>
      </trkpt>
      <trkpt lat="40.557067" lon="-5.086650">
        <ele>1742.0</ele>
        <time>2014-06-30T13:16:59Z</time>
      </trkpt>
      <trkpt lat="40.557100" lon="-5.086450">
        <ele>1740.0</ele>
        <time>2014-06-30T13:17:00Z</time>
      </trkpt>
      <trkpt lat="40.557117" lon="-5.086250">
        <ele>1739.0</ele>
        <time>2014-06-30T13:17:01Z</time>
      </trkpt>
      <trkpt lat="40.557150" lon="-5.086050">
        <ele>1738.0</ele>
        <time>2014-06-30T13:17:02Z</time>
      </trkpt>
      <trkpt lat="40.557200" lon="-5.085867">
        <ele>1737.0</ele>
        <time>2014-06-30T13:17:03Z</time>
      </trkpt>
      <trkpt lat="40.557250" lon="-5.085683">
        <ele>1736.0</ele>
        <time>2014-06-30T13:17:04Z</time>
      </trkpt>
      <trkpt lat="40.557283" lon="-5.085500">
        <ele>1735.0</ele>
        <time>2014-06-30T13:17:05Z</time>
      </trkpt>
      <trkpt lat="40.557333" lon="-5.085333">
        <ele>1733.0</ele>
        <time>2014-06-30T13:17:06Z</time>
      </trkpt>
      <trkpt lat="40.557400" lon="-5.085150">
        <ele>1731.0</ele>
        <time>2014-06-30T13:17:07Z</time>
      </trkpt>
      <trkpt lat="40.557450" lon="-5.084983">
        <ele>1729.0</ele>
        <time>2014-06-30T13:17:08Z</time>
      </trkpt>
      <trkpt lat="40.557533" lon="-5.084817">
        <ele>1727.0</ele>
        <time>2014-06-30T13:17:09Z</time>
      </trkpt>
      <trkpt lat="40.557600" lon="-5.084633">
        <ele>1724.0</ele>
        <time>2014-06-30T13:17:10Z</time>
      </trkpt>
      <trkpt lat="40.557683" lon="-5.084467">
        <ele>1722.0</ele>
        <time>2014-06-30T13:17:11Z</time>
      </trkpt>
      <trkpt lat="40.557767" lon="-5.084317">
        <ele>1721.0</ele>
        <time>2014-06-30T13:17:12Z</time>
      </trkpt>
      <trkpt lat="40.557833" lon="-5.084150">
        <ele>1720.0</ele>
        <time>2014-06-30T13:17:13Z</time>
      </trkpt>
      <trkpt lat="40.557900" lon="-5.084000">
        <ele>1719.0</ele>
        <time>2014-06-30T13:17:14Z</time>
      </trkpt>
      <trkpt lat="40.557983" lon="-5.083850">
        <ele>1718.0</ele>
        <time>2014-06-30T13:17:15Z</time>
      </trkpt>
      <trkpt lat="40.558050" lon="-5.083700">
        <ele>1716.0</ele>
        <time>2014-06-30T13:17:16Z</time>
      </trkpt>
      <trkpt lat="40.558133" lon="-5.083550">
        <ele>1715.0</ele>
        <time>2014-06-30T13:17:17Z</time>
      </trkpt>
      <trkpt lat="40.558200" lon="-5.083400">
        <ele>1713.0</ele>
        <time>2014-06-30T13:17:18Z</time>
      </trkpt>
      <trkpt lat="40.558283" lon="-5.083250">
        <ele>1711.0</ele>
        <time>2014-06-30T13:17:19Z</time>
      </trkpt>
      <trkpt lat="40.558350" lon="-5.083117">
        <ele>1708.0</ele>
        <time>2014-06-30T13:17:20Z</time>
      </trkpt>
      <trkpt lat="40.558433" lon="-5.082950">
        <ele>1705.0</ele>
        <time>2014-06-30T13:17:21Z</time>
      </trkpt>
      <trkpt lat="40.558517" lon="-5.082783">
        <ele>1701.0</ele>
        <time>2014-06-30T13:17:22Z</time>
      </trkpt>
      <trkpt lat="40.558600" lon="-5.082617">
        <ele>1697.0</ele>
        <time>2014-06-30T13:17:23Z</time>
      </trkpt>
      <trkpt lat="40.558683" lon="-5.082467">
        <ele>1693.0</ele>
        <time>2014-06-30T13:17:24Z</time>
      </trkpt>
      <trkpt lat="40.558767" lon="-5.082300">
        <ele>1691.0</ele>
        <time>2014-06-30T13:17:25Z</time>
      </trkpt>
      <trkpt lat="40.558833" lon="-5.082150">
        <ele>1690.0</ele>
        <time>2014-06-30T13:17:26Z</time>
      </trkpt>
      <trkpt lat="40.558917" lon="-5.082017">
        <ele>1688.0</ele>
        <time>2014-06-30T13:17:27Z</time>
      </trkpt>
      <trkpt lat="40.558983" lon="-5.081867">
        <ele>1686.0</ele>
        <time>2014-06-30T13:17:28Z</time>
      </trkpt>
      <trkpt lat="40.559067" lon="-5.081733">
        <ele>1683.0</ele>
        <time>2014-06-30T13:17:29Z</time>
      </trkpt>
      <trkpt lat="40.559150" lon="-5.081600">
        <ele>1679.0</ele>
        <time>2014-06-30T13:17:30Z</time>
      </trkpt>
      <trkpt lat="40.559250" lon="-5.081450">
        <ele>1674.0</ele>
        <time>2014-06-30T13:17:31Z</time>
      </trkpt>
      <trkpt lat="40.559350" lon="-5.081283">
        <ele>1669.0</ele>
        <time>2014-06-30T13:17:32Z</time>
      </trkpt>
      <trkpt lat="40.559450" lon="-5.081117">
        <ele>1666.0</ele>
        <time>2014-06-30T13:17:33Z</time>
      </trkpt>
      <trkpt lat="40.559550" lon="-5.080950">
        <ele>1664.0</ele>
        <time>2014-06-30T13:17:34Z</time>
      </trkpt>
      <trkpt lat="40.559633" lon="-5.080800">
        <ele>1663.0</ele>
        <time>2014-06-30T13:17:35Z</time>
      </trkpt>
      <trkpt lat="40.559717" lon="-5.080633">
        <ele>1661.0</ele>
        <time>2014-06-30T13:17:36Z</time>
      </trkpt>
      <trkpt lat="40.559800" lon="-5.080483">
        <ele>1660.0</ele>
        <time>2014-06-30T13:17:37Z</time>
      </trkpt>
      <trkpt lat="40.559883" lon="-5.080317">
        <ele>1658.0</ele>
        <time>2014-06-30T13:17:38Z</time>
      </trkpt>
      <trkpt lat="40.559967" lon="-5.080150">
        <ele>1656.0</ele>
        <time>2014-06-30T13:17:39Z</time>
      </trkpt>
      <trkpt lat="40.560033" lon="-5.079967">
        <ele>1654.0</ele>
        <time>2014-06-30T13:17:40Z</time>
      </trkpt>
      <trkpt lat="40.560100" lon="-5.079800">
        <ele>1653.0</ele>
        <time>2014-06-30T13:17:41Z</time>
      </trkpt>
      <trkpt lat="40.560167" lon="-5.079617">
        <ele>1651.0</ele>
        <time>2014-06-30T13:17:42Z</time>
      </trkpt>
      <trkpt lat="40.560250" lon="-5.079433">
        <ele>1649.0</ele>
        <time>2014-06-30T13:17:43Z</time>
      </trkpt>
      <trkpt lat="40.560317" lon="-5.079267">
        <ele>1647.0</ele>
        <time>2014-06-30T13:17:44Z</time>
      </trkpt>
      <trkpt lat="40.560417" lon="-5.079100">
        <ele>1645.0</ele>
        <time>2014-06-30T13:17:45Z</time>
      </trkpt>
      <trkpt lat="40.560483" lon="-5.078950">
        <ele>1642.0</ele>
        <time>2014-06-30T13:17:46Z</time>
      </trkpt>
      <trkpt lat="40.560567" lon="-5.078767">
        <ele>1639.0</ele>
        <time>2014-06-30T13:17:47Z</time>
      </trkpt>
      <trkpt lat="40.560650" lon="-5.078583">
        <ele>1636.0</ele>
        <time>2014-06-30T13:17:48Z</time>
      </trkpt>
      <trkpt lat="40.560717" lon="-5.078383">
        <ele>1632.0</ele>
        <time>2014-06-30T13:17:49Z</time>
      </trkpt>
      <trkpt lat="40.560800" lon="-5.078183">
        <ele>1629.0</ele>
        <time>2014-06-30T13:17:50Z</time>
      </trkpt>
      <trkpt lat="40.560883" lon="-5.078000">
        <ele>1626.0</ele>
        <time>2014-06-30T13:17:51Z</time>
      </trkpt>
      <trkpt lat="40.560983" lon="-5.077800">
        <ele>1624.0</ele>
        <time>2014-06-30T13:17:52Z</time>
      </trkpt>
      <trkpt lat="40.561050" lon="-5.077600">
        <ele>1623.0</ele>
        <time>2014-06-30T13:17:53Z</time>
      </trkpt>
      <trkpt lat="40.561117" lon="-5.077417">
        <ele>1623.0</ele>
        <time>2014-06-30T13:17:54Z</time>
      </trkpt>
      <trkpt lat="40.561200" lon="-5.077250">
        <ele>1623.0</ele>
        <time>2014-06-30T13:17:55Z</time>
      </trkpt>
      <trkpt lat="40.561267" lon="-5.077083">
        <ele>1621.0</ele>
        <time>2014-06-30T13:17:56Z</time>
      </trkpt>
      <trkpt lat="40.561350" lon="-5.076900">
        <ele>1619.0</ele>
        <time>2014-06-30T13:17:57Z</time>
      </trkpt>
      <trkpt lat="40.561433" lon="-5.076700">
        <ele>1617.0</ele>
        <time>2014-06-30T13:17:58Z</time>
      </trkpt>
      <trkpt lat="40.561517" lon="-5.076517">
        <ele>1615.0</ele>
        <time>2014-06-30T13:17:59Z</time>
      </trkpt>
      <trkpt lat="40.561583" lon="-5.076350">
        <ele>1613.0</ele>
        <time>2014-06-30T13:18:00Z</time>
      </trkpt>
      <trkpt lat="40.561667" lon="-5.076183">
        <ele>1612.0</ele>
        <time>2014-06-30T13:18:01Z</time>
      </trkpt>
      <trkpt lat="40.561750" lon="-5.076017">
        <ele>1610.0</ele>
        <time>2014-06-30T13:18:02Z</time>
      </trkpt>
      <trkpt lat="40.561833" lon="-5.075850">
        <ele>1607.0</ele>
        <time>2014-06-30T13:18:03Z</time>
      </trkpt>
      <trkpt lat="40.561900" lon="-5.075683">
        <ele>1605.0</ele>
        <time>2014-06-30T13:18:04Z</time>
      </trkpt>
      <trkpt lat="40.561983" lon="-5.075533">
        <ele>1602.0</ele>
        <time>2014-06-30T13:18:05Z</time>
      </trkpt>
      <trkpt lat="40.562067" lon="-5.075383">
        <ele>1600.0</ele>
        <time>2014-06-30T13:18:06Z</time>
      </trkpt>
      <trkpt lat="40.562150" lon="-5.075217">
        <ele>1597.0</ele>
        <time>2014-06-30T13:18:07Z</time>
      </trkpt>
      <trkpt lat="40.562233" lon="-5.075050">
        <ele>1593.0</ele>
        <time>2014-06-30T13:18:08Z</time>
      </trkpt>
      <trkpt lat="40.562317" lon="-5.074900">
        <ele>1590.0</ele>
        <time>2014-06-30T13:18:09Z</time>
      </trkpt>
      <trkpt lat="40.562383" lon="-5.074733">
        <ele>1587.0</ele>
        <time>2014-06-30T13:18:10Z</time>
      </trkpt>
      <trkpt lat="40.562450" lon="-5.074567">
        <ele>1585.0</ele>
        <time>2014-06-30T13:18:11Z</time>
      </trkpt>
      <trkpt lat="40.562533" lon="-5.074400">
        <ele>1583.0</ele>
        <time>2014-06-30T13:18:12Z</time>
      </trkpt>
      <trkpt lat="40.562583" lon="-5.074250">
        <ele>1582.0</ele>
        <time>2014-06-30T13:18:13Z</time>
      </trkpt>
      <trkpt lat="40.562650" lon="-5.074100">
        <ele>1580.0</ele>
        <time>2014-06-30T13:18:14Z</time>
      </trkpt>
      <trkpt lat="40.562717" lon="-5.073933">
        <ele>1578.0</ele>
        <time>2014-06-30T13:18:15Z</time>
      </trkpt>
      <trkpt lat="40.562800" lon="-5.073783">
        <ele>1575.0</ele>
        <time>2014-06-30T13:18:16Z</time>
      </trkpt>
      <trkpt lat="40.562883" lon="-5.073617">
        <ele>1572.0</ele>
        <time>2014-06-30T13:18:17Z</time>
      </trkpt>
      <trkpt lat="40.562967" lon="-5.073467">
        <ele>1570.0</ele>
        <time>2014-06-30T13:18:18Z</time>
      </trkpt>
      <trkpt lat="40.563033" lon="-5.073317">
        <ele>1569.0</ele>
        <time>2014-06-30T13:18:19Z</time>
      </trkpt>
      <trkpt lat="40.563117" lon="-5.073150">
        <ele>1569.0</ele>
        <time>2014-06-30T13:18:20Z</time>
      </trkpt>
      <trkpt lat="40.563217" lon="-5.073017">
        <ele>1568.0</ele>
        <time>2014-06-30T13:18:21Z</time>
      </trkpt>
      <trkpt lat="40.563300" lon="-5.072867">
        <ele>1567.0</ele>
        <time>2014-06-30T13:18:22Z</time>
      </trkpt>
      <trkpt lat="40.563417" lon="-5.072733">
        <ele>1565.0</ele>
        <time>2014-06-30T13:18:23Z</time>
      </trkpt>
      <trkpt lat="40.563500" lon="-5.072583">
        <ele>1565.0</ele>
        <time>2014-06-30T13:18:24Z</time>
      </trkpt>
      <trkpt lat="40.563600" lon="-5.072450">
        <ele>1565.0</ele>
        <time>2014-06-30T13:18:25Z</time>
      </trkpt>
      <trkpt lat="40.563683" lon="-5.072300">
        <ele>1565.0</ele>
        <time>2014-06-30T13:18:26Z</time>
      </trkpt>
      <trkpt lat="40.563750" lon="-5.072150">
        <ele>1566.0</ele>
        <time>2014-06-30T13:18:27Z</time>
      </trkpt>
      <trkpt lat="40.563833" lon="-5.072017">
        <ele>1566.0</ele>
        <time>2014-06-30T13:18:28Z</time>
      </trkpt>
      <trkpt lat="40.563933" lon="-5.071867">
        <ele>1566.0</ele>
        <time>2014-06-30T13:18:29Z</time>
      </trkpt>
      <trkpt lat="40.564017" lon="-5.071717">
        <ele>1567.0</ele>
        <time>2014-06-30T13:18:30Z</time>
      </trkpt>
      <trkpt lat="40.564100" lon="-5.071567">
        <ele>1566.0</ele>
        <time>2014-06-30T13:18:31Z</time>
      </trkpt>
      <trkpt lat="40.564183" lon="-5.071417">
        <ele>1566.0</ele>
        <time>2014-06-30T13:18:32Z</time>
      </trkpt>
      <trkpt lat="40.564267" lon="-5.071267">
        <ele>1567.0</ele>
        <time>2014-06-30T13:18:33Z</time>
      </trkpt>
      <trkpt lat="40.564350" lon="-5.071117">
        <ele>1567.0</ele>
        <time>2014-06-30T13:18:34Z</time>
      </trkpt>
      <trkpt lat="40.564417" lon="-5.070983">
        <ele>1568.0</ele>
        <time>2014-06-30T13:18:35Z</time>
      </trkpt>
      <trkpt lat="40.564483" lon="-5.070867">
        <ele>1569.0</ele>
        <time>2014-06-30T13:18:36Z</time>
      </trkpt>
      <trkpt lat="40.564550" lon="-5.070750">
        <ele>1570.0</ele>
        <time>2014-06-30T13:18:37Z</time>
      </trkpt>
      <trkpt lat="40.564633" lon="-5.070650">
        <ele>1570.0</ele>
        <time>2014-06-30T13:18:38Z</time>
      </trkpt>
      <trkpt lat="40.564717" lon="-5.070567">
        <ele>1570.0</ele>
        <time>2014-06-30T13:18:39Z</time>
      </trkpt>
      <trkpt lat="40.564800" lon="-5.070517">
        <ele>1570.0</ele>
        <time>2014-06-30T13:18:40Z</time>
      </trkpt>
      <trkpt lat="40.564867" lon="-5.070483">
        <ele>1569.0</ele>
        <time>2014-06-30T13:18:41Z</time>
      </trkpt>
      <trkpt lat="40.564933" lon="-5.070467">
        <ele>1568.0</ele>
        <time>2014-06-30T13:18:42Z</time>
      </trkpt>
      <trkpt lat="40.565017" lon="-5.070467">
        <ele>1567.0</ele>
        <time>2014-06-30T13:18:43Z</time>
      </trkpt>
      <trkpt lat="40.565117" lon="-5.070417">
        <ele>1567.0</ele>
        <time>2014-06-30T13:18:44Z</time>
      </trkpt>
      <trkpt lat="40.565200" lon="-5.070317">
        <ele>1569.0</ele>
        <time>2014-06-30T13:18:45Z</time>
      </trkpt>
      <trkpt lat="40.565283" lon="-5.070200">
        <ele>1570.0</ele>
        <time>2014-06-30T13:18:46Z</time>
      </trkpt>
      <trkpt lat="40.565367" lon="-5.070050">
        <ele>1571.0</ele>
        <time>2014-06-30T13:18:47Z</time>
      </trkpt>
      <trkpt lat="40.565417" lon="-5.069883">
        <ele>1572.0</ele>
        <time>2014-06-30T13:18:48Z</time>
      </trkpt>
      <trkpt lat="40.565433" lon="-5.069683">
        <ele>1572.0</ele>
        <time>2014-06-30T13:18:49Z</time>
      </trkpt>
      <trkpt lat="40.565433" lon="-5.069500">
        <ele>1571.0</ele>
        <time>2014-06-30T13:18:50Z</time>
      </trkpt>
      <trkpt lat="40.565400" lon="-5.069317">
        <ele>1571.0</ele>
        <time>2014-06-30T13:18:51Z</time>
      </trkpt>
      <trkpt lat="40.565333" lon="-5.069183">
        <ele>1570.0</ele>
        <time>2014-06-30T13:18:52Z</time>
      </trkpt>
      <trkpt lat="40.565267" lon="-5.069083">
        <ele>1570.0</ele>
        <time>2014-06-30T13:18:53Z</time>
      </trkpt>
      <trkpt lat="40.565200" lon="-5.069050">
        <ele>1570.0</ele>
        <time>2014-06-30T13:18:54Z</time>
      </trkpt>
      <trkpt lat="40.565133" lon="-5.069033">
        <ele>1570.0</ele>
        <time>2014-06-30T13:18:55Z</time>
      </trkpt>
      <trkpt lat="40.565083" lon="-5.069050">
        <ele>1570.0</ele>
        <time>2014-06-30T13:18:56Z</time>
      </trkpt>
      <trkpt lat="40.565033" lon="-5.069050">
        <ele>1570.0</ele>
        <time>2014-06-30T13:18:57Z</time>
      </trkpt>
      <trkpt lat="40.565000" lon="-5.069083">
        <ele>1570.0</ele>
        <time>2014-06-30T13:18:58Z</time>
      </trkpt>
      <trkpt lat="40.564967" lon="-5.069117">
        <ele>1570.0</ele>
        <time>2014-06-30T13:18:59Z</time>
      </trkpt>
      <trkpt lat="40.564933" lon="-5.069167">
        <ele>1570.0</ele>
        <time>2014-06-30T13:19:00Z</time>
      </trkpt>
      <trkpt lat="40.564933" lon="-5.069217">
        <ele>1571.0</ele>
        <time>2014-06-30T13:19:01Z</time>
      </trkpt>
      <trkpt lat="40.564917" lon="-5.069250">
        <ele>1572.0</ele>
        <time>2014-06-30T13:19:02Z</time>
      </trkpt>
      <trkpt lat="40.564917" lon="-5.069267">
        <ele>1574.0</ele>
        <time>2014-06-30T13:19:03Z</time>
      </trkpt>
      <trkpt lat="40.564917" lon="-5.069283">
        <ele>1575.0</ele>
        <time>2014-06-30T13:19:04Z</time>
      </trkpt>
      <trkpt lat="40.564900" lon="-5.069300">
        <ele>1576.0</ele>
        <time>2014-06-30T13:19:05Z</time>
      </trkpt>
      <trkpt lat="40.564900" lon="-5.069317">
        <ele>1577.0</ele>
        <time>2014-06-30T13:19:06Z</time>
      </trkpt>
      <trkpt lat="40.564883" lon="-5.069350">
        <ele>1578.0</ele>
        <time>2014-06-30T13:19:07Z</time>
      </trkpt>
      <trkpt lat="40.564883" lon="-5.069367">
        <ele>1579.0</ele>
        <time>2014-06-30T13:19:08Z</time>
      </trkpt>
      <trkpt lat="40.564883" lon="-5.069383">
        <ele>1580.0</ele>
        <time>2014-06-30T13:19:09Z</time>
      </trkpt>
      <trkpt lat="40.564900" lon="-5.069400">
        <ele>1582.0</ele>
        <time>2014-06-30T13:19:10Z</time>
      </trkpt>
      <trkpt lat="40.564900" lon="-5.069400">
        <ele>1583.0</ele>
        <time>2014-06-30T13:19:11Z</time>
      </trkpt>
      <trkpt lat="40.564917" lon="-5.069417">
        <ele>1583.0</ele>
        <time>2014-06-30T13:19:12Z</time>
      </trkpt>
      <trkpt lat="40.564900" lon="-5.069433">
        <ele>1584.0</ele>
        <time>2014-06-30T13:19:13Z</time>
      </trkpt>
      <trkpt lat="40.564867" lon="-5.069467">
        <ele>1584.0</ele>
        <time>2014-06-30T13:19:14Z</time>
      </trkpt>
      <trkpt lat="40.564817" lon="-5.069500">
        <ele>1584.0</ele>
        <time>2014-06-30T13:19:15Z</time>
      </trkpt>
      <trkpt lat="40.564767" lon="-5.069517">
        <ele>1585.0</ele>
        <time>2014-06-30T13:19:16Z</time>
      </trkpt>
      <trkpt lat="40.564767" lon="-5.069517">
        <ele>1585.0</ele>
        <time>2014-06-30T13:19:17Z</time>
      </trkpt>
      <trkpt lat="40.564767" lon="-5.069517">
        <ele>1586.0</ele>
        <time>2014-06-30T13:19:18Z</time>
      </trkpt>
      <trkpt lat="40.564750" lon="-5.069517">
        <ele>1587.0</ele>
        <time>2014-06-30T13:19:19Z</time>
      </trkpt>
      <trkpt lat="40.564750" lon="-5.069533">
        <ele>1588.0</ele>
        <time>2014-06-30T13:19:20Z</time>
      </trkpt>
      <trkpt lat="40.564717" lon="-5.069533">
        <ele>1588.0</ele>
        <time>2014-06-30T13:19:21Z</time>
      </trkpt>
      <trkpt lat="40.564683" lon="-5.069533">
        <ele>1589.0</ele>
        <time>2014-06-30T13:19:22Z</time>
      </trkpt>
      <trkpt lat="40.564667" lon="-5.069533">
        <ele>1590.0</ele>
        <time>2014-06-30T13:19:23Z</time>
      </trkpt>
      <trkpt lat="40.564633" lon="-5.069533">
        <ele>1590.0</ele>
        <time>2014-06-30T13:19:24Z</time>
      </trkpt>
      <trkpt lat="40.564617" lon="-5.069533">
        <ele>1591.0</ele>
        <time>2014-06-30T13:19:25Z</time>
      </trkpt>
      <trkpt lat="40.564600" lon="-5.069533">
        <ele>1591.0</ele>
        <time>2014-06-30T13:19:26Z</time>
      </trkpt>
      <trkpt lat="40.564617" lon="-5.069533">
        <ele>1591.0</ele>
        <time>2014-06-30T13:19:27Z</time>
      </trkpt>
      <trkpt lat="40.564633" lon="-5.069517">
        <ele>1591.0</ele>
        <time>2014-06-30T13:19:28Z</time>
      </trkpt>
      <trkpt lat="40.564683" lon="-5.069517">
        <ele>1590.0</ele>
        <time>2014-06-30T13:19:29Z</time>
      </trkpt>
      <trkpt lat="40.564750" lon="-5.069483">
        <ele>1589.0</ele>
        <time>2014-06-30T13:19:30Z</time>
      </trkpt>
      <trkpt lat="40.564833" lon="-5.069450">
        <ele>1589.0</ele>
        <time>2014-06-30T13:19:31Z</time>
      </trkpt>
      <trkpt lat="40.564917" lon="-5.069383">
        <ele>1589.0</ele>
        <time>2014-06-30T13:19:32Z</time>
      </trkpt>
      <trkpt lat="40.565000" lon="-5.069333">
        <ele>1590.0</ele>
        <time>2014-06-30T13:19:33Z</time>
      </trkpt>
      <trkpt lat="40.565067" lon="-5.069267">
        <ele>1590.0</ele>
        <time>2014-06-30T13:19:34Z</time>
      </trkpt>
      <trkpt lat="40.565133" lon="-5.069217">
        <ele>1591.0</ele>
        <time>2014-06-30T13:19:35Z</time>
      </trkpt>
      <trkpt lat="40.565200" lon="-5.069183">
        <ele>1591.0</ele>
        <time>2014-06-30T13:19:36Z</time>
      </trkpt>
      <trkpt lat="40.565267" lon="-5.069150">
        <ele>1591.0</ele>
        <time>2014-06-30T13:19:37Z</time>
      </trkpt>
      <trkpt lat="40.565300" lon="-5.069150">
        <ele>1592.0</ele>
        <time>2014-06-30T13:19:38Z</time>
      </trkpt>
      <trkpt lat="40.565333" lon="-5.069150">
        <ele>1592.0</ele>
        <time>2014-06-30T13:19:39Z</time>
      </trkpt>
      <trkpt lat="40.565333" lon="-5.069167">
        <ele>1591.0</ele>
        <time>2014-06-30T13:19:40Z</time>
      </trkpt>
      <trkpt lat="40.565317" lon="-5.069183">
        <ele>1592.0</ele>
        <time>2014-06-30T13:19:41Z</time>
      </trkpt>
      <trkpt lat="40.565267" lon="-5.069183">
        <ele>1592.0</ele>
        <time>2014-06-30T13:19:42Z</time>
      </trkpt>
      <trkpt lat="40.565200" lon="-5.069150">
        <ele>1593.0</ele>
        <time>2014-06-30T13:19:43Z</time>
      </trkpt>
      <trkpt lat="40.565133" lon="-5.069083">
        <ele>1594.0</ele>
        <time>2014-06-30T13:19:44Z</time>
      </trkpt>
      <trkpt lat="40.565050" lon="-5.069017">
        <ele>1595.0</ele>
        <time>2014-06-30T13:19:45Z</time>
      </trkpt>
      <trkpt lat="40.564967" lon="-5.068933">
        <ele>1595.0</ele>
        <time>2014-06-30T13:19:46Z</time>
      </trkpt>
      <trkpt lat="40.564900" lon="-5.068900">
        <ele>1595.0</ele>
        <time>2014-06-30T13:19:47Z</time>
      </trkpt>
      <trkpt lat="40.564833" lon="-5.068867">
        <ele>1594.0</ele>
        <time>2014-06-30T13:19:48Z</time>
      </trkpt>
      <trkpt lat="40.564783" lon="-5.068867">
        <ele>1594.0</ele>
        <time>2014-06-30T13:19:49Z</time>
      </trkpt>
      <trkpt lat="40.564750" lon="-5.068883">
        <ele>1594.0</ele>
        <time>2014-06-30T13:19:50Z</time>
      </trkpt>
      <trkpt lat="40.564767" lon="-5.068917">
        <ele>1594.0</ele>
        <time>2014-06-30T13:19:51Z</time>
      </trkpt>
      <trkpt lat="40.564800" lon="-5.068917">
        <ele>1592.0</ele>
        <time>2014-06-30T13:19:52Z</time>
      </trkpt>
      <trkpt lat="40.564833" lon="-5.068917">
        <ele>1592.0</ele>
        <time>2014-06-30T13:19:53Z</time>
      </trkpt>
      <trkpt lat="40.564900" lon="-5.068883">
        <ele>1591.0</ele>
        <time>2014-06-30T13:19:54Z</time>
      </trkpt>
      <trkpt lat="40.564967" lon="-5.068833">
        <ele>1589.0</ele>
        <time>2014-06-30T13:19:55Z</time>
      </trkpt>
      <trkpt lat="40.565033" lon="-5.068767">
        <ele>1587.0</ele>
        <time>2014-06-30T13:19:56Z</time>
      </trkpt>
      <trkpt lat="40.565150" lon="-5.068667">
        <ele>1584.0</ele>
        <time>2014-06-30T13:19:57Z</time>
      </trkpt>
      <trkpt lat="40.565250" lon="-5.068583">
        <ele>1582.0</ele>
        <time>2014-06-30T13:19:58Z</time>
      </trkpt>
      <trkpt lat="40.565367" lon="-5.068483">
        <ele>1580.0</ele>
        <time>2014-06-30T13:19:59Z</time>
      </trkpt>
      <trkpt lat="40.565467" lon="-5.068367">
        <ele>1580.0</ele>
        <time>2014-06-30T13:20:00Z</time>
      </trkpt>
      <trkpt lat="40.565550" lon="-5.068233">
        <ele>1580.0</ele>
        <time>2014-06-30T13:20:01Z</time>
      </trkpt>
      <trkpt lat="40.565650" lon="-5.068117">
        <ele>1580.0</ele>
        <time>2014-06-30T13:20:02Z</time>
      </trkpt>
      <trkpt lat="40.565733" lon="-5.067983">
        <ele>1580.0</ele>
        <time>2014-06-30T13:20:03Z</time>
      </trkpt>
      <trkpt lat="40.565833" lon="-5.067833">
        <ele>1579.0</ele>
        <time>2014-06-30T13:20:04Z</time>
      </trkpt>
      <trkpt lat="40.565917" lon="-5.067700">
        <ele>1579.0</ele>
        <time>2014-06-30T13:20:05Z</time>
      </trkpt>
      <trkpt lat="40.566000" lon="-5.067550">
        <ele>1578.0</ele>
        <time>2014-06-30T13:20:06Z</time>
      </trkpt>
      <trkpt lat="40.566083" lon="-5.067417">
        <ele>1578.0</ele>
        <time>2014-06-30T13:20:07Z</time>
      </trkpt>
      <trkpt lat="40.566183" lon="-5.067283">
        <ele>1577.0</ele>
        <time>2014-06-30T13:20:08Z</time>
      </trkpt>
      <trkpt lat="40.566267" lon="-5.067167">
        <ele>1577.0</ele>
        <time>2014-06-30T13:20:09Z</time>
      </trkpt>
      <trkpt lat="40.566367" lon="-5.067050">
        <ele>1577.0</ele>
        <time>2014-06-30T13:20:10Z</time>
      </trkpt>
      <trkpt lat="40.566467" lon="-5.066933">
        <ele>1577.0</ele>
        <time>2014-06-30T13:20:11Z</time>
      </trkpt>
      <trkpt lat="40.566567" lon="-5.066833">
        <ele>1577.0</ele>
        <time>2014-06-30T13:20:12Z</time>
      </trkpt>
      <trkpt lat="40.566683" lon="-5.066733">
        <ele>1577.0</ele>
        <time>2014-06-30T13:20:13Z</time>
      </trkpt>
      <trkpt lat="40.566783" lon="-5.066633">
        <ele>1578.0</ele>
        <time>2014-06-30T13:20:14Z</time>
      </trkpt>
      <trkpt lat="40.566867" lon="-5.066517">
        <ele>1580.0</ele>
        <time>2014-06-30T13:20:15Z</time>
      </trkpt>
      <trkpt lat="40.566967" lon="-5.066383">
        <ele>1582.0</ele>
        <time>2014-06-30T13:20:16Z</time>
      </trkpt>
      <trkpt lat="40.567050" lon="-5.066250">
        <ele>1583.0</ele>
        <time>2014-06-30T13:20:17Z</time>
      </trkpt>
      <trkpt lat="40.567133" lon="-5.066150">
        <ele>1585.0</ele>
        <time>2014-06-30T13:20:18Z</time>
      </trkpt>
      <trkpt lat="40.567233" lon="-5.066067">
        <ele>1586.0</ele>
        <time>2014-06-30T13:20:19Z</time>
      </trkpt>
      <trkpt lat="40.567317" lon="-5.066033">
        <ele>1586.0</ele>
        <time>2014-06-30T13:20:20Z</time>
      </trkpt>
      <trkpt lat="40.567383" lon="-5.066033">
        <ele>1586.0</ele>
        <time>2014-06-30T13:20:21Z</time>
      </trkpt>
      <trkpt lat="40.567433" lon="-5.066033">
        <ele>1585.0</ele>
        <time>2014-06-30T13:20:22Z</time>
      </trkpt>
      <trkpt lat="40.567450" lon="-5.066067">
        <ele>1584.0</ele>
        <time>2014-06-30T13:20:23Z</time>
      </trkpt>
      <trkpt lat="40.567417" lon="-5.066083">
        <ele>1583.0</ele>
        <time>2014-06-30T13:20:24Z</time>
      </trkpt>
      <trkpt lat="40.567367" lon="-5.066100">
        <ele>1583.0</ele>
        <time>2014-06-30T13:20:25Z</time>
      </trkpt>
      <trkpt lat="40.567300" lon="-5.066083">
        <ele>1586.0</ele>
        <time>2014-06-30T13:20:26Z</time>
      </trkpt>
      <trkpt lat="40.567250" lon="-5.066067">
        <ele>1590.0</ele>
        <time>2014-06-30T13:20:27Z</time>
      </trkpt>
      <trkpt lat="40.567233" lon="-5.066050">
        <ele>1594.0</ele>
        <time>2014-06-30T13:20:28Z</time>
      </trkpt>
      <trkpt lat="40.567200" lon="-5.066050">
        <ele>1591.0</ele>
        <time>2014-06-30T13:20:29Z</time>
      </trkpt>
      <trkpt lat="40.567167" lon="-5.066083">
        <ele>1592.0</ele>
        <time>2014-06-30T13:20:30Z</time>
      </trkpt>
      <trkpt lat="40.567133" lon="-5.066100">
        <ele>1593.0</ele>
        <time>2014-06-30T13:20:31Z</time>
      </trkpt>
      <trkpt lat="40.567100" lon="-5.066117">
        <ele>1594.0</ele>
        <time>2014-06-30T13:20:32Z</time>
      </trkpt>
      <trkpt lat="40.567083" lon="-5.066117">
        <ele>1595.0</ele>
        <time>2014-06-30T13:20:33Z</time>
      </trkpt>
      <trkpt lat="40.567083" lon="-5.066100">
        <ele>1596.0</ele>
        <time>2014-06-30T13:20:34Z</time>
      </trkpt>
      <trkpt lat="40.567083" lon="-5.066100">
        <ele>1596.0</ele>
        <time>2014-06-30T13:20:35Z</time>
      </trkpt>
      <trkpt lat="40.567083" lon="-5.066100">
        <ele>1595.0</ele>
        <time>2014-06-30T13:20:36Z</time>
      </trkpt>
      <trkpt lat="40.567067" lon="-5.066117">
        <ele>1594.0</ele>
        <time>2014-06-30T13:20:37Z</time>
      </trkpt>
      <trkpt lat="40.567067" lon="-5.066133">
        <ele>1594.0</ele>
        <time>2014-06-30T13:20:38Z</time>
      </trkpt>
      <trkpt lat="40.567100" lon="-5.066117">
        <ele>1594.0</ele>
        <time>2014-06-30T13:20:39Z</time>
      </trkpt>
      <trkpt lat="40.567183" lon="-5.066083">
        <ele>1593.0</ele>
        <time>2014-06-30T13:20:40Z</time>
      </trkpt>
      <trkpt lat="40.567283" lon="-5.066017">
        <ele>1592.0</ele>
        <time>2014-06-30T13:20:41Z</time>
      </trkpt>
      <trkpt lat="40.567400" lon="-5.065933">
        <ele>1590.0</ele>
        <time>2014-06-30T13:20:42Z</time>
      </trkpt>
      <trkpt lat="40.567500" lon="-5.065833">
        <ele>1589.0</ele>
        <time>2014-06-30T13:20:43Z</time>
      </trkpt>
      <trkpt lat="40.567583" lon="-5.065733">
        <ele>1590.0</ele>
        <time>2014-06-30T13:20:44Z</time>
      </trkpt>
      <trkpt lat="40.567667" lon="-5.065617">
        <ele>1591.0</ele>
        <time>2014-06-30T13:20:45Z</time>
      </trkpt>
      <trkpt lat="40.567733" lon="-5.065500">
        <ele>1592.0</ele>
        <time>2014-06-30T13:20:46Z</time>
      </trkpt>
      <trkpt lat="40.567800" lon="-5.065350">
        <ele>1592.0</ele>
        <time>2014-06-30T13:20:47Z</time>
      </trkpt>
      <trkpt lat="40.567867" lon="-5.065183">
        <ele>1592.0</ele>
        <time>2014-06-30T13:20:48Z</time>
      </trkpt>
      <trkpt lat="40.567900" lon="-5.064983">
        <ele>1593.0</ele>
        <time>2014-06-30T13:20:49Z</time>
      </trkpt>
      <trkpt lat="40.567917" lon="-5.064783">
        <ele>1594.0</ele>
        <time>2014-06-30T13:20:50Z</time>
      </trkpt>
      <trkpt lat="40.567917" lon="-5.064600">
        <ele>1596.0</ele>
        <time>2014-06-30T13:20:51Z</time>
      </trkpt>
      <trkpt lat="40.567900" lon="-5.064433">
        <ele>1598.0</ele>
        <time>2014-06-30T13:20:52Z</time>
      </trkpt>
      <trkpt lat="40.567883" lon="-5.064283">
        <ele>1601.0</ele>
        <time>2014-06-30T13:20:53Z</time>
      </trkpt>
      <trkpt lat="40.567867" lon="-5.064133">
        <ele>1603.0</ele>
        <time>2014-06-30T13:20:54Z</time>
      </trkpt>
      <trkpt lat="40.567817" lon="-5.064017">
        <ele>1606.0</ele>
        <time>2014-06-30T13:20:55Z</time>
      </trkpt>
      <trkpt lat="40.567750" lon="-5.063917">
        <ele>1607.0</ele>
        <time>2014-06-30T13:20:56Z</time>
      </trkpt>
      <trkpt lat="40.567667" lon="-5.063850">
        <ele>1609.0</ele>
        <time>2014-06-30T13:20:57Z</time>
      </trkpt>
      <trkpt lat="40.567617" lon="-5.063817">
        <ele>1611.0</ele>
        <time>2014-06-30T13:20:58Z</time>
      </trkpt>
      <trkpt lat="40.567567" lon="-5.063800">
        <ele>1613.0</ele>
        <time>2014-06-30T13:20:59Z</time>
      </trkpt>
      <trkpt lat="40.567567" lon="-5.063800">
        <ele>1615.0</ele>
        <time>2014-06-30T13:21:00Z</time>
      </trkpt>
      <trkpt lat="40.567583" lon="-5.063833">
        <ele>1617.0</ele>
        <time>2014-06-30T13:21:01Z</time>
      </trkpt>
      <trkpt lat="40.567617" lon="-5.063867">
        <ele>1618.0</ele>
        <time>2014-06-30T13:21:02Z</time>
      </trkpt>
      <trkpt lat="40.567650" lon="-5.063883">
        <ele>1619.0</ele>
        <time>2014-06-30T13:21:03Z</time>
      </trkpt>
      <trkpt lat="40.567700" lon="-5.063900">
        <ele>1621.0</ele>
        <time>2014-06-30T13:21:04Z</time>
      </trkpt>
      <trkpt lat="40.567750" lon="-5.063883">
        <ele>1622.0</ele>
        <time>2014-06-30T13:21:05Z</time>
      </trkpt>
      <trkpt lat="40.567833" lon="-5.063867">
        <ele>1623.0</ele>
        <time>2014-06-30T13:21:06Z</time>
      </trkpt>
      <trkpt lat="40.567900" lon="-5.063817">
        <ele>1622.0</ele>
        <time>2014-06-30T13:21:07Z</time>
      </trkpt>
      <trkpt lat="40.567983" lon="-5.063733">
        <ele>1623.0</ele>
        <time>2014-06-30T13:21:08Z</time>
      </trkpt>
      <trkpt lat="40.568067" lon="-5.063633">
        <ele>1622.0</ele>
        <time>2014-06-30T13:21:09Z</time>
      </trkpt>
      <trkpt lat="40.568150" lon="-5.063483">
        <ele>1622.0</ele>
        <time>2014-06-30T13:21:10Z</time>
      </trkpt>
      <trkpt lat="40.568200" lon="-5.063300">
        <ele>1621.0</ele>
        <time>2014-06-30T13:21:11Z</time>
      </trkpt>
      <trkpt lat="40.568250" lon="-5.063100">
        <ele>1620.0</ele>
        <time>2014-06-30T13:21:12Z</time>
      </trkpt>
      <trkpt lat="40.568267" lon="-5.062883">
        <ele>1619.0</ele>
        <time>2014-06-30T13:21:13Z</time>
      </trkpt>
      <trkpt lat="40.568250" lon="-5.062700">
        <ele>1619.0</ele>
        <time>2014-06-30T13:21:14Z</time>
      </trkpt>
      <trkpt lat="40.568233" lon="-5.062517">
        <ele>1622.0</ele>
        <time>2014-06-30T13:21:15Z</time>
      </trkpt>
      <trkpt lat="40.568217" lon="-5.062367">
        <ele>1625.0</ele>
        <time>2014-06-30T13:21:16Z</time>
      </trkpt>
      <trkpt lat="40.568183" lon="-5.062200">
        <ele>1627.0</ele>
        <time>2014-06-30T13:21:17Z</time>
      </trkpt>
      <trkpt lat="40.568150" lon="-5.062033">
        <ele>1629.0</ele>
        <time>2014-06-30T13:21:18Z</time>
      </trkpt>
      <trkpt lat="40.568117" lon="-5.061883">
        <ele>1631.0</ele>
        <time>2014-06-30T13:21:19Z</time>
      </trkpt>
      <trkpt lat="40.568050" lon="-5.061783">
        <ele>1634.0</ele>
        <time>2014-06-30T13:21:20Z</time>
      </trkpt>
      <trkpt lat="40.567983" lon="-5.061717">
        <ele>1636.0</ele>
        <time>2014-06-30T13:21:21Z</time>
      </trkpt>
      <trkpt lat="40.567917" lon="-5.061683">
        <ele>1639.0</ele>
        <time>2014-06-30T13:21:22Z</time>
      </trkpt>
      <trkpt lat="40.567867" lon="-5.061667">
        <ele>1641.0</ele>
        <time>2014-06-30T13:21:23Z</time>
      </trkpt>
      <trkpt lat="40.567850" lon="-5.061683">
        <ele>1644.0</ele>
        <time>2014-06-30T13:21:24Z</time>
      </trkpt>
      <trkpt lat="40.567867" lon="-5.061717">
        <ele>1647.0</ele>
        <time>2014-06-30T13:21:25Z</time>
      </trkpt>
      <trkpt lat="40.567900" lon="-5.061750">
        <ele>1648.0</ele>
        <time>2014-06-30T13:21:26Z</time>
      </trkpt>
      <trkpt lat="40.567967" lon="-5.061767">
        <ele>1648.0</ele>
        <time>2014-06-30T13:21:27Z</time>
      </trkpt>
      <trkpt lat="40.568033" lon="-5.061750">
        <ele>1650.0</ele>
        <time>2014-06-30T13:21:28Z</time>
      </trkpt>
      <trkpt lat="40.568100" lon="-5.061733">
        <ele>1652.0</ele>
        <time>2014-06-30T13:21:29Z</time>
      </trkpt>
      <trkpt lat="40.568183" lon="-5.061683">
        <ele>1653.0</ele>
        <time>2014-06-30T13:21:30Z</time>
      </trkpt>
      <trkpt lat="40.568267" lon="-5.061617">
        <ele>1654.0</ele>
        <time>2014-06-30T13:21:31Z</time>
      </trkpt>
      <trkpt lat="40.568367" lon="-5.061517">
        <ele>1655.0</ele>
        <time>2014-06-30T13:21:32Z</time>
      </trkpt>
      <trkpt lat="40.568450" lon="-5.061400">
        <ele>1655.0</ele>
        <time>2014-06-30T13:21:33Z</time>
      </trkpt>
      <trkpt lat="40.568533" lon="-5.061233">
        <ele>1655.0</ele>
        <time>2014-06-30T13:21:34Z</time>
      </trkpt>
      <trkpt lat="40.568583" lon="-5.061033">
        <ele>1656.0</ele>
        <time>2014-06-30T13:21:35Z</time>
      </trkpt>
      <trkpt lat="40.568600" lon="-5.060817">
        <ele>1657.0</ele>
        <time>2014-06-30T13:21:36Z</time>
      </trkpt>
      <trkpt lat="40.568583" lon="-5.060633">
        <ele>1657.0</ele>
        <time>2014-06-30T13:21:37Z</time>
      </trkpt>
      <trkpt lat="40.568550" lon="-5.060450">
        <ele>1657.0</ele>
        <time>2014-06-30T13:21:38Z</time>
      </trkpt>
      <trkpt lat="40.568500" lon="-5.060300">
        <ele>1658.0</ele>
        <time>2014-06-30T13:21:39Z</time>
      </trkpt>
      <trkpt lat="40.568433" lon="-5.060150">
        <ele>1659.0</ele>
        <time>2014-06-30T13:21:40Z</time>
      </trkpt>
      <trkpt lat="40.568367" lon="-5.060017">
        <ele>1659.0</ele>
        <time>2014-06-30T13:21:41Z</time>
      </trkpt>
      <trkpt lat="40.568300" lon="-5.059883">
        <ele>1660.0</ele>
        <time>2014-06-30T13:21:42Z</time>
      </trkpt>
      <trkpt lat="40.568250" lon="-5.059767">
        <ele>1662.0</ele>
        <time>2014-06-30T13:21:43Z</time>
      </trkpt>
      <trkpt lat="40.568200" lon="-5.059683">
        <ele>1665.0</ele>
        <time>2014-06-30T13:21:44Z</time>
      </trkpt>
      <trkpt lat="40.568133" lon="-5.059600">
        <ele>1667.0</ele>
        <time>2014-06-30T13:21:45Z</time>
      </trkpt>
      <trkpt lat="40.568067" lon="-5.059533">
        <ele>1669.0</ele>
        <time>2014-06-30T13:21:46Z</time>
      </trkpt>
      <trkpt lat="40.568017" lon="-5.059500">
        <ele>1672.0</ele>
        <time>2014-06-30T13:21:47Z</time>
      </trkpt>
      <trkpt lat="40.567967" lon="-5.059467">
        <ele>1674.0</ele>
        <time>2014-06-30T13:21:48Z</time>
      </trkpt>
      <trkpt lat="40.567917" lon="-5.059467">
        <ele>1677.0</ele>
        <time>2014-06-30T13:21:49Z</time>
      </trkpt>
      <trkpt lat="40.567917" lon="-5.059467">
        <ele>1679.0</ele>
        <time>2014-06-30T13:21:50Z</time>
      </trkpt>
      <trkpt lat="40.567917" lon="-5.059483">
        <ele>1680.0</ele>
        <time>2014-06-30T13:21:51Z</time>
      </trkpt>
      <trkpt lat="40.567917" lon="-5.059500">
        <ele>1679.0</ele>
        <time>2014-06-30T13:21:52Z</time>
      </trkpt>
      <trkpt lat="40.567933" lon="-5.059533">
        <ele>1679.0</ele>
        <time>2014-06-30T13:21:53Z</time>
      </trkpt>
      <trkpt lat="40.567950" lon="-5.059567">
        <ele>1680.0</ele>
        <time>2014-06-30T13:21:54Z</time>
      </trkpt>
      <trkpt lat="40.568000" lon="-5.059567">
        <ele>1681.0</ele>
        <time>2014-06-30T13:21:55Z</time>
      </trkpt>
      <trkpt lat="40.568050" lon="-5.059550">
        <ele>1683.0</ele>
        <time>2014-06-30T13:21:56Z</time>
      </trkpt>
      <trkpt lat="40.568117" lon="-5.059500">
        <ele>1685.0</ele>
        <time>2014-06-30T13:21:57Z</time>
      </trkpt>
      <trkpt lat="40.568183" lon="-5.059433">
        <ele>1686.0</ele>
        <time>2014-06-30T13:21:58Z</time>
      </trkpt>
      <trkpt lat="40.568283" lon="-5.059367">
        <ele>1687.0</ele>
        <time>2014-06-30T13:21:59Z</time>
      </trkpt>
      <trkpt lat="40.568367" lon="-5.059267">
        <ele>1688.0</ele>
        <time>2014-06-30T13:22:00Z</time>
      </trkpt>
      <trkpt lat="40.568467" lon="-5.059150">
        <ele>1688.0</ele>
        <time>2014-06-30T13:22:01Z</time>
      </trkpt>
      <trkpt lat="40.568533" lon="-5.058983">
        <ele>1689.0</ele>
        <time>2014-06-30T13:22:02Z</time>
      </trkpt>
      <trkpt lat="40.568600" lon="-5.058783">
        <ele>1689.0</ele>
        <time>2014-06-30T13:22:03Z</time>
      </trkpt>
      <trkpt lat="40.568633" lon="-5.058567">
        <ele>1689.0</ele>
        <time>2014-06-30T13:22:04Z</time>
      </trkpt>
      <trkpt lat="40.568633" lon="-5.058367">
        <ele>1689.0</ele>
        <time>2014-06-30T13:22:05Z</time>
      </trkpt>
      <trkpt lat="40.568617" lon="-5.058183">
        <ele>1689.0</ele>
        <time>2014-06-30T13:22:06Z</time>
      </trkpt>
      <trkpt lat="40.568583" lon="-5.058000">
        <ele>1689.0</ele>
        <time>2014-06-30T13:22:07Z</time>
      </trkpt>
      <trkpt lat="40.568517" lon="-5.057833">
        <ele>1689.0</ele>
        <time>2014-06-30T13:22:08Z</time>
      </trkpt>
      <trkpt lat="40.568450" lon="-5.057717">
        <ele>1690.0</ele>
        <time>2014-06-30T13:22:09Z</time>
      </trkpt>
      <trkpt lat="40.568400" lon="-5.057600">
        <ele>1692.0</ele>
        <time>2014-06-30T13:22:10Z</time>
      </trkpt>
      <trkpt lat="40.568333" lon="-5.057483">
        <ele>1694.0</ele>
        <time>2014-06-30T13:22:11Z</time>
      </trkpt>
      <trkpt lat="40.568300" lon="-5.057367">
        <ele>1696.0</ele>
        <time>2014-06-30T13:22:12Z</time>
      </trkpt>
      <trkpt lat="40.568250" lon="-5.057233">
        <ele>1698.0</ele>
        <time>2014-06-30T13:22:13Z</time>
      </trkpt>
      <trkpt lat="40.568183" lon="-5.057100">
        <ele>1700.0</ele>
        <time>2014-06-30T13:22:14Z</time>
      </trkpt>
      <trkpt lat="40.568133" lon="-5.056967">
        <ele>1701.0</ele>
        <time>2014-06-30T13:22:15Z</time>
      </trkpt>
      <trkpt lat="40.568067" lon="-5.056850">
        <ele>1703.0</ele>
        <time>2014-06-30T13:22:16Z</time>
      </trkpt>
      <trkpt lat="40.568000" lon="-5.056767">
        <ele>1705.0</ele>
        <time>2014-06-30T13:22:17Z</time>
      </trkpt>
      <trkpt lat="40.567917" lon="-5.056717">
        <ele>1706.0</ele>
        <time>2014-06-30T13:22:18Z</time>
      </trkpt>
      <trkpt lat="40.567850" lon="-5.056717">
        <ele>1707.0</ele>
        <time>2014-06-30T13:22:19Z</time>
      </trkpt>
      <trkpt lat="40.567817" lon="-5.056750">
        <ele>1709.0</ele>
        <time>2014-06-30T13:22:20Z</time>
      </trkpt>
      <trkpt lat="40.567783" lon="-5.056783">
        <ele>1710.0</ele>
        <time>2014-06-30T13:22:21Z</time>
      </trkpt>
      <trkpt lat="40.567767" lon="-5.056817">
        <ele>1712.0</ele>
        <time>2014-06-30T13:22:22Z</time>
      </trkpt>
      <trkpt lat="40.567767" lon="-5.056850">
        <ele>1713.0</ele>
        <time>2014-06-30T13:22:23Z</time>
      </trkpt>
      <trkpt lat="40.567783" lon="-5.056883">
        <ele>1712.0</ele>
        <time>2014-06-30T13:22:24Z</time>
      </trkpt>
      <trkpt lat="40.567800" lon="-5.056900">
        <ele>1711.0</ele>
        <time>2014-06-30T13:22:25Z</time>
      </trkpt>
      <trkpt lat="40.567833" lon="-5.056900">
        <ele>1710.0</ele>
        <time>2014-06-30T13:22:26Z</time>
      </trkpt>
      <trkpt lat="40.567883" lon="-5.056883">
        <ele>1709.0</ele>
        <time>2014-06-30T13:22:27Z</time>
      </trkpt>
      <trkpt lat="40.567967" lon="-5.056833">
        <ele>1707.0</ele>
        <time>2014-06-30T13:22:28Z</time>
      </trkpt>
      <trkpt lat="40.568067" lon="-5.056733">
        <ele>1705.0</ele>
        <time>2014-06-30T13:22:29Z</time>
      </trkpt>
      <trkpt lat="40.568150" lon="-5.056617">
        <ele>1705.0</ele>
        <time>2014-06-30T13:22:30Z</time>
      </trkpt>
      <trkpt lat="40.568233" lon="-5.056467">
        <ele>1704.0</ele>
        <time>2014-06-30T13:22:31Z</time>
      </trkpt>
      <trkpt lat="40.568283" lon="-5.056317">
        <ele>1706.0</ele>
        <time>2014-06-30T13:22:32Z</time>
      </trkpt>
      <trkpt lat="40.568317" lon="-5.056150">
        <ele>1706.0</ele>
        <time>2014-06-30T13:22:33Z</time>
      </trkpt>
      <trkpt lat="40.568350" lon="-5.055983">
        <ele>1705.0</ele>
        <time>2014-06-30T13:22:34Z</time>
      </trkpt>
      <trkpt lat="40.568383" lon="-5.055800">
        <ele>1703.0</ele>
        <time>2014-06-30T13:22:35Z</time>
      </trkpt>
      <trkpt lat="40.568400" lon="-5.055583">
        <ele>1702.0</ele>
        <time>2014-06-30T13:22:36Z</time>
      </trkpt>
      <trkpt lat="40.568400" lon="-5.055383">
        <ele>1701.0</ele>
        <time>2014-06-30T13:22:37Z</time>
      </trkpt>
      <trkpt lat="40.568383" lon="-5.055200">
        <ele>1701.0</ele>
        <time>2014-06-30T13:22:38Z</time>
      </trkpt>
      <trkpt lat="40.568350" lon="-5.055050">
        <ele>1704.0</ele>
        <time>2014-06-30T13:22:39Z</time>
      </trkpt>
      <trkpt lat="40.568317" lon="-5.054933">
        <ele>1704.0</ele>
        <time>2014-06-30T13:22:40Z</time>
      </trkpt>
      <trkpt lat="40.568267" lon="-5.054817">
        <ele>1704.0</ele>
        <time>2014-06-30T13:22:41Z</time>
      </trkpt>
      <trkpt lat="40.568200" lon="-5.054700">
        <ele>1704.0</ele>
        <time>2014-06-30T13:22:42Z</time>
      </trkpt>
      <trkpt lat="40.568117" lon="-5.054600">
        <ele>1704.0</ele>
        <time>2014-06-30T13:22:43Z</time>
      </trkpt>
      <trkpt lat="40.568050" lon="-5.054533">
        <ele>1704.0</ele>
        <time>2014-06-30T13:22:44Z</time>
      </trkpt>
      <trkpt lat="40.567967" lon="-5.054467">
        <ele>1703.0</ele>
        <time>2014-06-30T13:22:45Z</time>
      </trkpt>
      <trkpt lat="40.567883" lon="-5.054417">
        <ele>1703.0</ele>
        <time>2014-06-30T13:22:46Z</time>
      </trkpt>
      <trkpt lat="40.567817" lon="-5.054400">
        <ele>1703.0</ele>
        <time>2014-06-30T13:22:47Z</time>
      </trkpt>
      <trkpt lat="40.567750" lon="-5.054367">
        <ele>1703.0</ele>
        <time>2014-06-30T13:22:48Z</time>
      </trkpt>
      <trkpt lat="40.567667" lon="-5.054333">
        <ele>1704.0</ele>
        <time>2014-06-30T13:22:49Z</time>
      </trkpt>
      <trkpt lat="40.567583" lon="-5.054267">
        <ele>1706.0</ele>
        <time>2014-06-30T13:22:50Z</time>
      </trkpt>
      <trkpt lat="40.567533" lon="-5.054183">
        <ele>1708.0</ele>
        <time>2014-06-30T13:22:51Z</time>
      </trkpt>
      <trkpt lat="40.567450" lon="-5.054100">
        <ele>1709.0</ele>
        <time>2014-06-30T13:22:52Z</time>
      </trkpt>
      <trkpt lat="40.567383" lon="-5.054017">
        <ele>1710.0</ele>
        <time>2014-06-30T13:22:53Z</time>
      </trkpt>
      <trkpt lat="40.567283" lon="-5.053950">
        <ele>1711.0</ele>
        <time>2014-06-30T13:22:54Z</time>
      </trkpt>
      <trkpt lat="40.567183" lon="-5.053867">
        <ele>1710.0</ele>
        <time>2014-06-30T13:22:55Z</time>
      </trkpt>
      <trkpt lat="40.567100" lon="-5.053783">
        <ele>1711.0</ele>
        <time>2014-06-30T13:22:56Z</time>
      </trkpt>
      <trkpt lat="40.567017" lon="-5.053700">
        <ele>1711.0</ele>
        <time>2014-06-30T13:22:57Z</time>
      </trkpt>
      <trkpt lat="40.566917" lon="-5.053633">
        <ele>1711.0</ele>
        <time>2014-06-30T13:22:58Z</time>
      </trkpt>
      <trkpt lat="40.566817" lon="-5.053583">
        <ele>1712.0</ele>
        <time>2014-06-30T13:22:59Z</time>
      </trkpt>
      <trkpt lat="40.566733" lon="-5.053567">
        <ele>1712.0</ele>
        <time>2014-06-30T13:23:00Z</time>
      </trkpt>
      <trkpt lat="40.566683" lon="-5.053550">
        <ele>1712.0</ele>
        <time>2014-06-30T13:23:01Z</time>
      </trkpt>
      <trkpt lat="40.566633" lon="-5.053550">
        <ele>1709.0</ele>
        <time>2014-06-30T13:23:02Z</time>
      </trkpt>
      <trkpt lat="40.566600" lon="-5.053567">
        <ele>1708.0</ele>
        <time>2014-06-30T13:23:03Z</time>
      </trkpt>
      <trkpt lat="40.566583" lon="-5.053567">
        <ele>1706.0</ele>
        <time>2014-06-30T13:23:04Z</time>
      </trkpt>
      <trkpt lat="40.566600" lon="-5.053567">
        <ele>1704.0</ele>
        <time>2014-06-30T13:23:05Z</time>
      </trkpt>
      <trkpt lat="40.566633" lon="-5.053550">
        <ele>1703.0</ele>
        <time>2014-06-30T13:23:06Z</time>
      </trkpt>
      <trkpt lat="40.566700" lon="-5.053533">
        <ele>1700.0</ele>
        <time>2014-06-30T13:23:07Z</time>
      </trkpt>
      <trkpt lat="40.566767" lon="-5.053483">
        <ele>1696.0</ele>
        <time>2014-06-30T13:23:08Z</time>
      </trkpt>
      <trkpt lat="40.566833" lon="-5.053417">
        <ele>1693.0</ele>
        <time>2014-06-30T13:23:09Z</time>
      </trkpt>
      <trkpt lat="40.566917" lon="-5.053317">
        <ele>1690.0</ele>
        <time>2014-06-30T13:23:10Z</time>
      </trkpt>
      <trkpt lat="40.567000" lon="-5.053200">
        <ele>1686.0</ele>
        <time>2014-06-30T13:23:11Z</time>
      </trkpt>
      <trkpt lat="40.567100" lon="-5.053067">
        <ele>1683.0</ele>
        <time>2014-06-30T13:23:12Z</time>
      </trkpt>
      <trkpt lat="40.567183" lon="-5.052950">
        <ele>1683.0</ele>
        <time>2014-06-30T13:23:13Z</time>
      </trkpt>
      <trkpt lat="40.567250" lon="-5.052833">
        <ele>1684.0</ele>
        <time>2014-06-30T13:23:14Z</time>
      </trkpt>
      <trkpt lat="40.567317" lon="-5.052750">
        <ele>1685.0</ele>
        <time>2014-06-30T13:23:15Z</time>
      </trkpt>
      <trkpt lat="40.567383" lon="-5.052667">
        <ele>1684.0</ele>
        <time>2014-06-30T13:23:16Z</time>
      </trkpt>
      <trkpt lat="40.567467" lon="-5.052617">
        <ele>1684.0</ele>
        <time>2014-06-30T13:23:17Z</time>
      </trkpt>
      <trkpt lat="40.567533" lon="-5.052567">
        <ele>1684.0</ele>
        <time>2014-06-30T13:23:18Z</time>
      </trkpt>
      <trkpt lat="40.567617" lon="-5.052550">
        <ele>1686.0</ele>
        <time>2014-06-30T13:23:19Z</time>
      </trkpt>
      <trkpt lat="40.567667" lon="-5.052550">
        <ele>1688.0</ele>
        <time>2014-06-30T13:23:20Z</time>
      </trkpt>
      <trkpt lat="40.567717" lon="-5.052517">
        <ele>1691.0</ele>
        <time>2014-06-30T13:23:21Z</time>
      </trkpt>
      <trkpt lat="40.567767" lon="-5.052483">
        <ele>1694.0</ele>
        <time>2014-06-30T13:23:22Z</time>
      </trkpt>
      <trkpt lat="40.567817" lon="-5.052467">
        <ele>1695.0</ele>
        <time>2014-06-30T13:23:23Z</time>
      </trkpt>
      <trkpt lat="40.567883" lon="-5.052450">
        <ele>1697.0</ele>
        <time>2014-06-30T13:23:24Z</time>
      </trkpt>
      <trkpt lat="40.567933" lon="-5.052450">
        <ele>1697.0</ele>
        <time>2014-06-30T13:23:25Z</time>
      </trkpt>
      <trkpt lat="40.567983" lon="-5.052483">
        <ele>1698.0</ele>
        <time>2014-06-30T13:23:26Z</time>
      </trkpt>
      <trkpt lat="40.568017" lon="-5.052500">
        <ele>1699.0</ele>
        <time>2014-06-30T13:23:27Z</time>
      </trkpt>
      <trkpt lat="40.568083" lon="-5.052533">
        <ele>1700.0</ele>
        <time>2014-06-30T13:23:28Z</time>
      </trkpt>
      <trkpt lat="40.568150" lon="-5.052550">
        <ele>1701.0</ele>
        <time>2014-06-30T13:23:29Z</time>
      </trkpt>
      <trkpt lat="40.568217" lon="-5.052517">
        <ele>1701.0</ele>
        <time>2014-06-30T13:23:30Z</time>
      </trkpt>
      <trkpt lat="40.568300" lon="-5.052467">
        <ele>1702.0</ele>
        <time>2014-06-30T13:23:31Z</time>
      </trkpt>
      <trkpt lat="40.568367" lon="-5.052367">
        <ele>1703.0</ele>
        <time>2014-06-30T13:23:32Z</time>
      </trkpt>
      <trkpt lat="40.568417" lon="-5.052217">
        <ele>1704.0</ele>
        <time>2014-06-30T13:23:33Z</time>
      </trkpt>
      <trkpt lat="40.568450" lon="-5.052050">
        <ele>1705.0</ele>
        <time>2014-06-30T13:23:34Z</time>
      </trkpt>
      <trkpt lat="40.568433" lon="-5.051883">
        <ele>1705.0</ele>
        <time>2014-06-30T13:23:35Z</time>
      </trkpt>
      <trkpt lat="40.568367" lon="-5.051750">
        <ele>1706.0</ele>
        <time>2014-06-30T13:23:36Z</time>
      </trkpt>
      <trkpt lat="40.568300" lon="-5.051650">
        <ele>1707.0</ele>
        <time>2014-06-30T13:23:37Z</time>
      </trkpt>
      <trkpt lat="40.568217" lon="-5.051583">
        <ele>1709.0</ele>
        <time>2014-06-30T13:23:38Z</time>
      </trkpt>
      <trkpt lat="40.568150" lon="-5.051583">
        <ele>1710.0</ele>
        <time>2014-06-30T13:23:39Z</time>
      </trkpt>
      <trkpt lat="40.568083" lon="-5.051583">
        <ele>1708.0</ele>
        <time>2014-06-30T13:23:40Z</time>
      </trkpt>
      <trkpt lat="40.568033" lon="-5.051617">
        <ele>1708.0</ele>
        <time>2014-06-30T13:23:41Z</time>
      </trkpt>
      <trkpt lat="40.568000" lon="-5.051683">
        <ele>1708.0</ele>
        <time>2014-06-30T13:23:42Z</time>
      </trkpt>
      <trkpt lat="40.567983" lon="-5.051750">
        <ele>1709.0</ele>
        <time>2014-06-30T13:23:43Z</time>
      </trkpt>
      <trkpt lat="40.567983" lon="-5.051800">
        <ele>1710.0</ele>
        <time>2014-06-30T13:23:44Z</time>
      </trkpt>
      <trkpt lat="40.567983" lon="-5.051817">
        <ele>1712.0</ele>
        <time>2014-06-30T13:23:45Z</time>
      </trkpt>
      <trkpt lat="40.568017" lon="-5.051800">
        <ele>1714.0</ele>
        <time>2014-06-30T13:23:46Z</time>
      </trkpt>
      <trkpt lat="40.568050" lon="-5.051800">
        <ele>1715.0</ele>
        <time>2014-06-30T13:23:47Z</time>
      </trkpt>
      <trkpt lat="40.568100" lon="-5.051783">
        <ele>1716.0</ele>
        <time>2014-06-30T13:23:48Z</time>
      </trkpt>
      <trkpt lat="40.568150" lon="-5.051783">
        <ele>1717.0</ele>
        <time>2014-06-30T13:23:49Z</time>
      </trkpt>
      <trkpt lat="40.568217" lon="-5.051767">
        <ele>1718.0</ele>
        <time>2014-06-30T13:23:50Z</time>
      </trkpt>
      <trkpt lat="40.568267" lon="-5.051733">
        <ele>1719.0</ele>
        <time>2014-06-30T13:23:51Z</time>
      </trkpt>
      <trkpt lat="40.568333" lon="-5.051667">
        <ele>1719.0</ele>
        <time>2014-06-30T13:23:52Z</time>
      </trkpt>
      <trkpt lat="40.568400" lon="-5.051583">
        <ele>1719.0</ele>
        <time>2014-06-30T13:23:53Z</time>
      </trkpt>
      <trkpt lat="40.568467" lon="-5.051450">
        <ele>1717.0</ele>
        <time>2014-06-30T13:23:54Z</time>
      </trkpt>
      <trkpt lat="40.568533" lon="-5.051317">
        <ele>1716.0</ele>
        <time>2014-06-30T13:23:55Z</time>
      </trkpt>
      <trkpt lat="40.568583" lon="-5.051167">
        <ele>1717.0</ele>
        <time>2014-06-30T13:23:56Z</time>
      </trkpt>
      <trkpt lat="40.568633" lon="-5.051033">
        <ele>1718.0</ele>
        <time>2014-06-30T13:23:57Z</time>
      </trkpt>
      <trkpt lat="40.568667" lon="-5.050883">
        <ele>1720.0</ele>
        <time>2014-06-30T13:23:58Z</time>
      </trkpt>
      <trkpt lat="40.568667" lon="-5.050733">
        <ele>1721.0</ele>
        <time>2014-06-30T13:23:59Z</time>
      </trkpt>
      <trkpt lat="40.568667" lon="-5.050567">
        <ele>1722.0</ele>
        <time>2014-06-30T13:24:00Z</time>
      </trkpt>
      <trkpt lat="40.568667" lon="-5.050417">
        <ele>1722.0</ele>
        <time>2014-06-30T13:24:01Z</time>
      </trkpt>
      <trkpt lat="40.568667" lon="-5.050250">
        <ele>1723.0</ele>
        <time>2014-06-30T13:24:02Z</time>
      </trkpt>
      <trkpt lat="40.568667" lon="-5.050083">
        <ele>1725.0</ele>
        <time>2014-06-30T13:24:03Z</time>
      </trkpt>
      <trkpt lat="40.568650" lon="-5.049950">
        <ele>1726.0</ele>
        <time>2014-06-30T13:24:04Z</time>
      </trkpt>
      <trkpt lat="40.568617" lon="-5.049817">
        <ele>1727.0</ele>
        <time>2014-06-30T13:24:05Z</time>
      </trkpt>
      <trkpt lat="40.568567" lon="-5.049700">
        <ele>1727.0</ele>
        <time>2014-06-30T13:24:06Z</time>
      </trkpt>
      <trkpt lat="40.568500" lon="-5.049583">
        <ele>1726.0</ele>
        <time>2014-06-30T13:24:07Z</time>
      </trkpt>
      <trkpt lat="40.568433" lon="-5.049517">
        <ele>1726.0</ele>
        <time>2014-06-30T13:24:08Z</time>
      </trkpt>
      <trkpt lat="40.568333" lon="-5.049483">
        <ele>1725.0</ele>
        <time>2014-06-30T13:24:09Z</time>
      </trkpt>
      <trkpt lat="40.568233" lon="-5.049450">
        <ele>1725.0</ele>
        <time>2014-06-30T13:24:10Z</time>
      </trkpt>
      <trkpt lat="40.568150" lon="-5.049450">
        <ele>1725.0</ele>
        <time>2014-06-30T13:24:11Z</time>
      </trkpt>
      <trkpt lat="40.568067" lon="-5.049433">
        <ele>1726.0</ele>
        <time>2014-06-30T13:24:12Z</time>
      </trkpt>
      <trkpt lat="40.568000" lon="-5.049433">
        <ele>1726.0</ele>
        <time>2014-06-30T13:24:13Z</time>
      </trkpt>
      <trkpt lat="40.567950" lon="-5.049433">
        <ele>1726.0</ele>
        <time>2014-06-30T13:24:14Z</time>
      </trkpt>
      <trkpt lat="40.567900" lon="-5.049467">
        <ele>1727.0</ele>
        <time>2014-06-30T13:24:15Z</time>
      </trkpt>
      <trkpt lat="40.567867" lon="-5.049500">
        <ele>1727.0</ele>
        <time>2014-06-30T13:24:16Z</time>
      </trkpt>
      <trkpt lat="40.567850" lon="-5.049550">
        <ele>1727.0</ele>
        <time>2014-06-30T13:24:17Z</time>
      </trkpt>
      <trkpt lat="40.567850" lon="-5.049600">
        <ele>1727.0</ele>
        <time>2014-06-30T13:24:18Z</time>
      </trkpt>
      <trkpt lat="40.567867" lon="-5.049650">
        <ele>1728.0</ele>
        <time>2014-06-30T13:24:19Z</time>
      </trkpt>
      <trkpt lat="40.567883" lon="-5.049667">
        <ele>1729.0</ele>
        <time>2014-06-30T13:24:20Z</time>
      </trkpt>
      <trkpt lat="40.567900" lon="-5.049683">
        <ele>1729.0</ele>
        <time>2014-06-30T13:24:21Z</time>
      </trkpt>
      <trkpt lat="40.567933" lon="-5.049700">
        <ele>1729.0</ele>
        <time>2014-06-30T13:24:22Z</time>
      </trkpt>
      <trkpt lat="40.567967" lon="-5.049700">
        <ele>1726.0</ele>
        <time>2014-06-30T13:24:23Z</time>
      </trkpt>
      <trkpt lat="40.568017" lon="-5.049700">
        <ele>1725.0</ele>
        <time>2014-06-30T13:24:24Z</time>
      </trkpt>
      <trkpt lat="40.568083" lon="-5.049700">
        <ele>1723.0</ele>
        <time>2014-06-30T13:24:25Z</time>
      </trkpt>
      <trkpt lat="40.568133" lon="-5.049700">
        <ele>1722.0</ele>
        <time>2014-06-30T13:24:26Z</time>
      </trkpt>
      <trkpt lat="40.568167" lon="-5.049683">
        <ele>1721.0</ele>
        <time>2014-06-30T13:24:27Z</time>
      </trkpt>
      <trkpt lat="40.568233" lon="-5.049667">
        <ele>1720.0</ele>
        <time>2014-06-30T13:24:28Z</time>
      </trkpt>
      <trkpt lat="40.568300" lon="-5.049617">
        <ele>1719.0</ele>
        <time>2014-06-30T13:24:29Z</time>
      </trkpt>
      <trkpt lat="40.568367" lon="-5.049550">
        <ele>1717.0</ele>
        <time>2014-06-30T13:24:30Z</time>
      </trkpt>
      <trkpt lat="40.568450" lon="-5.049450">
        <ele>1715.0</ele>
        <time>2014-06-30T13:24:31Z</time>
      </trkpt>
      <trkpt lat="40.568533" lon="-5.049333">
        <ele>1714.0</ele>
        <time>2014-06-30T13:24:32Z</time>
      </trkpt>
      <trkpt lat="40.568600" lon="-5.049217">
        <ele>1715.0</ele>
        <time>2014-06-30T13:24:33Z</time>
      </trkpt>
      <trkpt lat="40.568650" lon="-5.049100">
        <ele>1715.0</ele>
        <time>2014-06-30T13:24:34Z</time>
      </trkpt>
      <trkpt lat="40.568717" lon="-5.049000">
        <ele>1715.0</ele>
        <time>2014-06-30T13:24:35Z</time>
      </trkpt>
      <trkpt lat="40.568767" lon="-5.048900">
        <ele>1715.0</ele>
        <time>2014-06-30T13:24:36Z</time>
      </trkpt>
      <trkpt lat="40.568817" lon="-5.048817">
        <ele>1715.0</ele>
        <time>2014-06-30T13:24:37Z</time>
      </trkpt>
      <trkpt lat="40.568883" lon="-5.048733">
        <ele>1714.0</ele>
        <time>2014-06-30T13:24:38Z</time>
      </trkpt>
      <trkpt lat="40.568950" lon="-5.048667">
        <ele>1713.0</ele>
        <time>2014-06-30T13:24:39Z</time>
      </trkpt>
      <trkpt lat="40.569000" lon="-5.048583">
        <ele>1712.0</ele>
        <time>2014-06-30T13:24:40Z</time>
      </trkpt>
      <trkpt lat="40.569067" lon="-5.048483">
        <ele>1710.0</ele>
        <time>2014-06-30T13:24:41Z</time>
      </trkpt>
      <trkpt lat="40.569117" lon="-5.048350">
        <ele>1709.0</ele>
        <time>2014-06-30T13:24:42Z</time>
      </trkpt>
      <trkpt lat="40.569133" lon="-5.048167">
        <ele>1707.0</ele>
        <time>2014-06-30T13:24:43Z</time>
      </trkpt>
      <trkpt lat="40.569150" lon="-5.047983">
        <ele>1706.0</ele>
        <time>2014-06-30T13:24:44Z</time>
      </trkpt>
      <trkpt lat="40.569133" lon="-5.047800">
        <ele>1706.0</ele>
        <time>2014-06-30T13:24:45Z</time>
      </trkpt>
      <trkpt lat="40.569117" lon="-5.047617">
        <ele>1707.0</ele>
        <time>2014-06-30T13:24:46Z</time>
      </trkpt>
      <trkpt lat="40.569083" lon="-5.047450">
        <ele>1707.0</ele>
        <time>2014-06-30T13:24:47Z</time>
      </trkpt>
      <trkpt lat="40.569067" lon="-5.047283">
        <ele>1708.0</ele>
        <time>2014-06-30T13:24:48Z</time>
      </trkpt>
      <trkpt lat="40.569017" lon="-5.047100">
        <ele>1708.0</ele>
        <time>2014-06-30T13:24:49Z</time>
      </trkpt>
      <trkpt lat="40.568967" lon="-5.046950">
        <ele>1708.0</ele>
        <time>2014-06-30T13:24:50Z</time>
      </trkpt>
      <trkpt lat="40.568917" lon="-5.046800">
        <ele>1709.0</ele>
        <time>2014-06-30T13:24:51Z</time>
      </trkpt>
      <trkpt lat="40.568850" lon="-5.046667">
        <ele>1710.0</ele>
        <time>2014-06-30T13:24:52Z</time>
      </trkpt>
      <trkpt lat="40.568783" lon="-5.046550">
        <ele>1712.0</ele>
        <time>2014-06-30T13:24:53Z</time>
      </trkpt>
      <trkpt lat="40.568700" lon="-5.046433">
        <ele>1712.0</ele>
        <time>2014-06-30T13:24:54Z</time>
      </trkpt>
      <trkpt lat="40.568633" lon="-5.046350">
        <ele>1712.0</ele>
        <time>2014-06-30T13:24:55Z</time>
      </trkpt>
      <trkpt lat="40.568550" lon="-5.046250">
        <ele>1712.0</ele>
        <time>2014-06-30T13:24:56Z</time>
      </trkpt>
      <trkpt lat="40.568467" lon="-5.046167">
        <ele>1713.0</ele>
        <time>2014-06-30T13:24:57Z</time>
      </trkpt>
      <trkpt lat="40.568383" lon="-5.046067">
        <ele>1713.0</ele>
        <time>2014-06-30T13:24:58Z</time>
      </trkpt>
      <trkpt lat="40.568300" lon="-5.045967">
        <ele>1713.0</ele>
        <time>2014-06-30T13:24:59Z</time>
      </trkpt>
      <trkpt lat="40.568217" lon="-5.045833">
        <ele>1715.0</ele>
        <time>2014-06-30T13:25:00Z</time>
      </trkpt>
      <trkpt lat="40.568150" lon="-5.045717">
        <ele>1715.0</ele>
        <time>2014-06-30T13:25:01Z</time>
      </trkpt>
      <trkpt lat="40.568083" lon="-5.045583">
        <ele>1716.0</ele>
        <time>2014-06-30T13:25:02Z</time>
      </trkpt>
      <trkpt lat="40.568033" lon="-5.045450">
        <ele>1716.0</ele>
        <time>2014-06-30T13:25:03Z</time>
      </trkpt>
      <trkpt lat="40.567967" lon="-5.045333">
        <ele>1717.0</ele>
        <time>2014-06-30T13:25:04Z</time>
      </trkpt>
      <trkpt lat="40.567900" lon="-5.045200">
        <ele>1717.0</ele>
        <time>2014-06-30T13:25:05Z</time>
      </trkpt>
      <trkpt lat="40.567817" lon="-5.045067">
        <ele>1717.0</ele>
        <time>2014-06-30T13:25:06Z</time>
      </trkpt>
      <trkpt lat="40.567750" lon="-5.044917">
        <ele>1716.0</ele>
        <time>2014-06-30T13:25:07Z</time>
      </trkpt>
      <trkpt lat="40.567683" lon="-5.044783">
        <ele>1717.0</ele>
        <time>2014-06-30T13:25:08Z</time>
      </trkpt>
      <trkpt lat="40.567617" lon="-5.044633">
        <ele>1718.0</ele>
        <time>2014-06-30T13:25:09Z</time>
      </trkpt>
      <trkpt lat="40.567567" lon="-5.044500">
        <ele>1718.0</ele>
        <time>2014-06-30T13:25:10Z</time>
      </trkpt>
      <trkpt lat="40.567500" lon="-5.044350">
        <ele>1719.0</ele>
        <time>2014-06-30T13:25:11Z</time>
      </trkpt>
      <trkpt lat="40.567433" lon="-5.044200">
        <ele>1719.0</ele>
        <time>2014-06-30T13:25:12Z</time>
      </trkpt>
      <trkpt lat="40.567367" lon="-5.044050">
        <ele>1719.0</ele>
        <time>2014-06-30T13:25:13Z</time>
      </trkpt>
      <trkpt lat="40.567283" lon="-5.043917">
        <ele>1720.0</ele>
        <time>2014-06-30T13:25:14Z</time>
      </trkpt>
      <trkpt lat="40.567217" lon="-5.043800">
        <ele>1721.0</ele>
        <time>2014-06-30T13:25:15Z</time>
      </trkpt>
      <trkpt lat="40.567133" lon="-5.043700">
        <ele>1722.0</ele>
        <time>2014-06-30T13:25:16Z</time>
      </trkpt>
      <trkpt lat="40.567067" lon="-5.043600">
        <ele>1723.0</ele>
        <time>2014-06-30T13:25:17Z</time>
      </trkpt>
      <trkpt lat="40.566983" lon="-5.043500">
        <ele>1723.0</ele>
        <time>2014-06-30T13:25:18Z</time>
      </trkpt>
      <trkpt lat="40.566917" lon="-5.043433">
        <ele>1723.0</ele>
        <time>2014-06-30T13:25:19Z</time>
      </trkpt>
      <trkpt lat="40.566850" lon="-5.043400">
        <ele>1723.0</ele>
        <time>2014-06-30T13:25:20Z</time>
      </trkpt>
      <trkpt lat="40.566800" lon="-5.043383">
        <ele>1721.0</ele>
        <time>2014-06-30T13:25:21Z</time>
      </trkpt>
      <trkpt lat="40.566750" lon="-5.043400">
        <ele>1721.0</ele>
        <time>2014-06-30T13:25:22Z</time>
      </trkpt>
      <trkpt lat="40.566717" lon="-5.043417">
        <ele>1721.0</ele>
        <time>2014-06-30T13:25:23Z</time>
      </trkpt>
      <trkpt lat="40.566700" lon="-5.043450">
        <ele>1721.0</ele>
        <time>2014-06-30T13:25:24Z</time>
      </trkpt>
      <trkpt lat="40.566700" lon="-5.043467">
        <ele>1722.0</ele>
        <time>2014-06-30T13:25:25Z</time>
      </trkpt>
      <trkpt lat="40.566717" lon="-5.043467">
        <ele>1722.0</ele>
        <time>2014-06-30T13:25:26Z</time>
      </trkpt>
      <trkpt lat="40.566733" lon="-5.043450">
        <ele>1722.0</ele>
        <time>2014-06-30T13:25:27Z</time>
      </trkpt>
      <trkpt lat="40.566783" lon="-5.043433">
        <ele>1721.0</ele>
        <time>2014-06-30T13:25:28Z</time>
      </trkpt>
      <trkpt lat="40.566850" lon="-5.043417">
        <ele>1719.0</ele>
        <time>2014-06-30T13:25:29Z</time>
      </trkpt>
      <trkpt lat="40.566917" lon="-5.043417">
        <ele>1716.0</ele>
        <time>2014-06-30T13:25:30Z</time>
      </trkpt>
      <trkpt lat="40.566983" lon="-5.043433">
        <ele>1715.0</ele>
        <time>2014-06-30T13:25:31Z</time>
      </trkpt>
      <trkpt lat="40.567033" lon="-5.043417">
        <ele>1714.0</ele>
        <time>2014-06-30T13:25:32Z</time>
      </trkpt>
      <trkpt lat="40.567100" lon="-5.043383">
        <ele>1714.0</ele>
        <time>2014-06-30T13:25:33Z</time>
      </trkpt>
      <trkpt lat="40.567167" lon="-5.043300">
        <ele>1714.0</ele>
        <time>2014-06-30T13:25:34Z</time>
      </trkpt>
      <trkpt lat="40.567233" lon="-5.043217">
        <ele>1712.0</ele>
        <time>2014-06-30T13:25:35Z</time>
      </trkpt>
      <trkpt lat="40.567283" lon="-5.043100">
        <ele>1711.0</ele>
        <time>2014-06-30T13:25:36Z</time>
      </trkpt>
      <trkpt lat="40.567333" lon="-5.042950">
        <ele>1710.0</ele>
        <time>2014-06-30T13:25:37Z</time>
      </trkpt>
      <trkpt lat="40.567367" lon="-5.042783">
        <ele>1709.0</ele>
        <time>2014-06-30T13:25:38Z</time>
      </trkpt>
      <trkpt lat="40.567383" lon="-5.042633">
        <ele>1708.0</ele>
        <time>2014-06-30T13:25:39Z</time>
      </trkpt>
      <trkpt lat="40.567400" lon="-5.042483">
        <ele>1707.0</ele>
        <time>2014-06-30T13:25:40Z</time>
      </trkpt>
      <trkpt lat="40.567417" lon="-5.042333">
        <ele>1707.0</ele>
        <time>2014-06-30T13:25:41Z</time>
      </trkpt>
      <trkpt lat="40.567450" lon="-5.042167">
        <ele>1705.0</ele>
        <time>2014-06-30T13:25:42Z</time>
      </trkpt>
      <trkpt lat="40.567467" lon="-5.041983">
        <ele>1704.0</ele>
        <time>2014-06-30T13:25:43Z</time>
      </trkpt>
      <trkpt lat="40.567500" lon="-5.041817">
        <ele>1702.0</ele>
        <time>2014-06-30T13:25:44Z</time>
      </trkpt>
      <trkpt lat="40.567517" lon="-5.041633">
        <ele>1701.0</ele>
        <time>2014-06-30T13:25:45Z</time>
      </trkpt>
      <trkpt lat="40.567533" lon="-5.041450">
        <ele>1699.0</ele>
        <time>2014-06-30T13:25:46Z</time>
      </trkpt>
      <trkpt lat="40.567567" lon="-5.041267">
        <ele>1697.0</ele>
        <time>2014-06-30T13:25:47Z</time>
      </trkpt>
      <trkpt lat="40.567617" lon="-5.041100">
        <ele>1696.0</ele>
        <time>2014-06-30T13:25:48Z</time>
      </trkpt>
      <trkpt lat="40.567683" lon="-5.040967">
        <ele>1696.0</ele>
        <time>2014-06-30T13:25:49Z</time>
      </trkpt>
      <trkpt lat="40.567767" lon="-5.040833">
        <ele>1695.0</ele>
        <time>2014-06-30T13:25:50Z</time>
      </trkpt>
      <trkpt lat="40.567850" lon="-5.040717">
        <ele>1695.0</ele>
        <time>2014-06-30T13:25:51Z</time>
      </trkpt>
      <trkpt lat="40.567917" lon="-5.040600">
        <ele>1695.0</ele>
        <time>2014-06-30T13:25:52Z</time>
      </trkpt>
      <trkpt lat="40.568000" lon="-5.040483">
        <ele>1695.0</ele>
        <time>2014-06-30T13:25:53Z</time>
      </trkpt>
      <trkpt lat="40.568083" lon="-5.040367">
        <ele>1695.0</ele>
        <time>2014-06-30T13:25:54Z</time>
      </trkpt>
      <trkpt lat="40.568167" lon="-5.040250">
        <ele>1694.0</ele>
        <time>2014-06-30T13:25:55Z</time>
      </trkpt>
      <trkpt lat="40.568250" lon="-5.040150">
        <ele>1693.0</ele>
        <time>2014-06-30T13:25:56Z</time>
      </trkpt>
      <trkpt lat="40.568350" lon="-5.040050">
        <ele>1693.0</ele>
        <time>2014-06-30T13:25:57Z</time>
      </trkpt>
      <trkpt lat="40.568433" lon="-5.039967">
        <ele>1693.0</ele>
        <time>2014-06-30T13:25:58Z</time>
      </trkpt>
      <trkpt lat="40.568500" lon="-5.039867">
        <ele>1693.0</ele>
        <time>2014-06-30T13:25:59Z</time>
      </trkpt>
      <trkpt lat="40.568567" lon="-5.039767">
        <ele>1694.0</ele>
        <time>2014-06-30T13:26:00Z</time>
      </trkpt>
      <trkpt lat="40.568633" lon="-5.039683">
        <ele>1694.0</ele>
        <time>2014-06-30T13:26:01Z</time>
      </trkpt>
      <trkpt lat="40.568700" lon="-5.039600">
        <ele>1694.0</ele>
        <time>2014-06-30T13:26:02Z</time>
      </trkpt>
      <trkpt lat="40.568767" lon="-5.039550">
        <ele>1695.0</ele>
        <time>2014-06-30T13:26:03Z</time>
      </trkpt>
      <trkpt lat="40.568817" lon="-5.039533">
        <ele>1695.0</ele>
        <time>2014-06-30T13:26:04Z</time>
      </trkpt>
      <trkpt lat="40.568850" lon="-5.039533">
        <ele>1695.0</ele>
        <time>2014-06-30T13:26:05Z</time>
      </trkpt>
      <trkpt lat="40.568867" lon="-5.039567">
        <ele>1695.0</ele>
        <time>2014-06-30T13:26:06Z</time>
      </trkpt>
      <trkpt lat="40.568867" lon="-5.039600">
        <ele>1694.0</ele>
        <time>2014-06-30T13:26:07Z</time>
      </trkpt>
      <trkpt lat="40.568850" lon="-5.039633">
        <ele>1693.0</ele>
        <time>2014-06-30T13:26:08Z</time>
      </trkpt>
      <trkpt lat="40.568800" lon="-5.039683">
        <ele>1693.0</ele>
        <time>2014-06-30T13:26:09Z</time>
      </trkpt>
      <trkpt lat="40.568783" lon="-5.039733">
        <ele>1693.0</ele>
        <time>2014-06-30T13:26:10Z</time>
      </trkpt>
      <trkpt lat="40.568767" lon="-5.039783">
        <ele>1693.0</ele>
        <time>2014-06-30T13:26:11Z</time>
      </trkpt>
      <trkpt lat="40.568783" lon="-5.039817">
        <ele>1694.0</ele>
        <time>2014-06-30T13:26:12Z</time>
      </trkpt>
      <trkpt lat="40.568800" lon="-5.039850">
        <ele>1694.0</ele>
        <time>2014-06-30T13:26:13Z</time>
      </trkpt>
      <trkpt lat="40.568850" lon="-5.039867">
        <ele>1693.0</ele>
        <time>2014-06-30T13:26:14Z</time>
      </trkpt>
      <trkpt lat="40.568883" lon="-5.039900">
        <ele>1693.0</ele>
        <time>2014-06-30T13:26:15Z</time>
      </trkpt>
      <trkpt lat="40.568933" lon="-5.039933">
        <ele>1692.0</ele>
        <time>2014-06-30T13:26:16Z</time>
      </trkpt>
      <trkpt lat="40.568983" lon="-5.039983">
        <ele>1693.0</ele>
        <time>2014-06-30T13:26:17Z</time>
      </trkpt>
      <trkpt lat="40.569033" lon="-5.040017">
        <ele>1694.0</ele>
        <time>2014-06-30T13:26:18Z</time>
      </trkpt>
      <trkpt lat="40.569083" lon="-5.040033">
        <ele>1696.0</ele>
        <time>2014-06-30T13:26:19Z</time>
      </trkpt>
      <trkpt lat="40.569117" lon="-5.040033">
        <ele>1697.0</ele>
        <time>2014-06-30T13:26:20Z</time>
      </trkpt>
      <trkpt lat="40.569167" lon="-5.040050">
        <ele>1698.0</ele>
        <time>2014-06-30T13:26:21Z</time>
      </trkpt>
      <trkpt lat="40.569217" lon="-5.040067">
        <ele>1698.0</ele>
        <time>2014-06-30T13:26:22Z</time>
      </trkpt>
      <trkpt lat="40.569267" lon="-5.040083">
        <ele>1697.0</ele>
        <time>2014-06-30T13:26:23Z</time>
      </trkpt>
      <trkpt lat="40.569300" lon="-5.040117">
        <ele>1697.0</ele>
        <time>2014-06-30T13:26:24Z</time>
      </trkpt>
      <trkpt lat="40.569350" lon="-5.040150">
        <ele>1696.0</ele>
        <time>2014-06-30T13:26:25Z</time>
      </trkpt>
      <trkpt lat="40.569400" lon="-5.040183">
        <ele>1696.0</ele>
        <time>2014-06-30T13:26:26Z</time>
      </trkpt>
      <trkpt lat="40.569450" lon="-5.040200">
        <ele>1696.0</ele>
        <time>2014-06-30T13:26:27Z</time>
      </trkpt>
      <trkpt lat="40.569500" lon="-5.040217">
        <ele>1696.0</ele>
        <time>2014-06-30T13:26:28Z</time>
      </trkpt>
      <trkpt lat="40.569550" lon="-5.040250">
        <ele>1695.0</ele>
        <time>2014-06-30T13:26:29Z</time>
      </trkpt>
      <trkpt lat="40.569583" lon="-5.040283">
        <ele>1694.0</ele>
        <time>2014-06-30T13:26:30Z</time>
      </trkpt>
      <trkpt lat="40.569633" lon="-5.040333">
        <ele>1693.0</ele>
        <time>2014-06-30T13:26:31Z</time>
      </trkpt>
      <trkpt lat="40.569683" lon="-5.040350">
        <ele>1692.0</ele>
        <time>2014-06-30T13:26:32Z</time>
      </trkpt>
      <trkpt lat="40.569733" lon="-5.040383">
        <ele>1693.0</ele>
        <time>2014-06-30T13:26:33Z</time>
      </trkpt>
      <trkpt lat="40.569767" lon="-5.040400">
        <ele>1693.0</ele>
        <time>2014-06-30T13:26:34Z</time>
      </trkpt>
      <trkpt lat="40.569817" lon="-5.040400">
        <ele>1692.0</ele>
        <time>2014-06-30T13:26:35Z</time>
      </trkpt>
      <trkpt lat="40.569867" lon="-5.040433">
        <ele>1692.0</ele>
        <time>2014-06-30T13:26:36Z</time>
      </trkpt>
      <trkpt lat="40.569917" lon="-5.040467">
        <ele>1691.0</ele>
        <time>2014-06-30T13:26:37Z</time>
      </trkpt>
      <trkpt lat="40.569950" lon="-5.040483">
        <ele>1690.0</ele>
        <time>2014-06-30T13:26:38Z</time>
      </trkpt>
      <trkpt lat="40.570000" lon="-5.040500">
        <ele>1689.0</ele>
        <time>2014-06-30T13:26:39Z</time>
      </trkpt>
      <trkpt lat="40.570033" lon="-5.040517">
        <ele>1689.0</ele>
        <time>2014-06-30T13:26:40Z</time>
      </trkpt>
      <trkpt lat="40.570083" lon="-5.040517">
        <ele>1688.0</ele>
        <time>2014-06-30T13:26:41Z</time>
      </trkpt>
      <trkpt lat="40.570133" lon="-5.040517">
        <ele>1687.0</ele>
        <time>2014-06-30T13:26:42Z</time>
      </trkpt>
      <trkpt lat="40.570200" lon="-5.040533">
        <ele>1686.0</ele>
        <time>2014-06-30T13:26:43Z</time>
      </trkpt>
      <trkpt lat="40.570250" lon="-5.040533">
        <ele>1685.0</ele>
        <time>2014-06-30T13:26:44Z</time>
      </trkpt>
      <trkpt lat="40.570317" lon="-5.040517">
        <ele>1684.0</ele>
        <time>2014-06-30T13:26:45Z</time>
      </trkpt>
      <trkpt lat="40.570367" lon="-5.040517">
        <ele>1684.0</ele>
        <time>2014-06-30T13:26:46Z</time>
      </trkpt>
      <trkpt lat="40.570417" lon="-5.040500">
        <ele>1684.0</ele>
        <time>2014-06-30T13:26:47Z</time>
      </trkpt>
      <trkpt lat="40.570467" lon="-5.040500">
        <ele>1684.0</ele>
        <time>2014-06-30T13:26:48Z</time>
      </trkpt>
      <trkpt lat="40.570517" lon="-5.040517">
        <ele>1684.0</ele>
        <time>2014-06-30T13:26:49Z</time>
      </trkpt>
      <trkpt lat="40.570567" lon="-5.040533">
        <ele>1683.0</ele>
        <time>2014-06-30T13:26:50Z</time>
      </trkpt>
      <trkpt lat="40.570633" lon="-5.040550">
        <ele>1683.0</ele>
        <time>2014-06-30T13:26:51Z</time>
      </trkpt>
      <trkpt lat="40.570700" lon="-5.040533">
        <ele>1682.0</ele>
        <time>2014-06-30T13:26:52Z</time>
      </trkpt>
      <trkpt lat="40.570767" lon="-5.040517">
        <ele>1681.0</ele>
        <time>2014-06-30T13:26:53Z</time>
      </trkpt>
      <trkpt lat="40.570850" lon="-5.040483">
        <ele>1680.0</ele>
        <time>2014-06-30T13:26:54Z</time>
      </trkpt>
      <trkpt lat="40.570933" lon="-5.040433">
        <ele>1679.0</ele>
        <time>2014-06-30T13:26:55Z</time>
      </trkpt>
      <trkpt lat="40.571033" lon="-5.040383">
        <ele>1678.0</ele>
        <time>2014-06-30T13:26:56Z</time>
      </trkpt>
      <trkpt lat="40.571117" lon="-5.040317">
        <ele>1677.0</ele>
        <time>2014-06-30T13:26:57Z</time>
      </trkpt>
      <trkpt lat="40.571200" lon="-5.040283">
        <ele>1676.0</ele>
        <time>2014-06-30T13:26:58Z</time>
      </trkpt>
      <trkpt lat="40.571283" lon="-5.040233">
        <ele>1676.0</ele>
        <time>2014-06-30T13:26:59Z</time>
      </trkpt>
      <trkpt lat="40.571367" lon="-5.040200">
        <ele>1675.0</ele>
        <time>2014-06-30T13:27:00Z</time>
      </trkpt>
      <trkpt lat="40.571433" lon="-5.040167">
        <ele>1674.0</ele>
        <time>2014-06-30T13:27:01Z</time>
      </trkpt>
      <trkpt lat="40.571517" lon="-5.040133">
        <ele>1673.0</ele>
        <time>2014-06-30T13:27:02Z</time>
      </trkpt>
      <trkpt lat="40.571583" lon="-5.040117">
        <ele>1673.0</ele>
        <time>2014-06-30T13:27:03Z</time>
      </trkpt>
      <trkpt lat="40.571650" lon="-5.040117">
        <ele>1672.0</ele>
        <time>2014-06-30T13:27:04Z</time>
      </trkpt>
      <trkpt lat="40.571733" lon="-5.040083">
        <ele>1671.0</ele>
        <time>2014-06-30T13:27:05Z</time>
      </trkpt>
      <trkpt lat="40.571800" lon="-5.040050">
        <ele>1670.0</ele>
        <time>2014-06-30T13:27:06Z</time>
      </trkpt>
      <trkpt lat="40.571883" lon="-5.040000">
        <ele>1669.0</ele>
        <time>2014-06-30T13:27:07Z</time>
      </trkpt>
      <trkpt lat="40.571967" lon="-5.039933">
        <ele>1668.0</ele>
        <time>2014-06-30T13:27:08Z</time>
      </trkpt>
      <trkpt lat="40.572050" lon="-5.039883">
        <ele>1666.0</ele>
        <time>2014-06-30T13:27:09Z</time>
      </trkpt>
      <trkpt lat="40.572150" lon="-5.039850">
        <ele>1664.0</ele>
        <time>2014-06-30T13:27:10Z</time>
      </trkpt>
      <trkpt lat="40.572233" lon="-5.039817">
        <ele>1662.0</ele>
        <time>2014-06-30T13:27:11Z</time>
      </trkpt>
      <trkpt lat="40.572333" lon="-5.039750">
        <ele>1662.0</ele>
        <time>2014-06-30T13:27:12Z</time>
      </trkpt>
      <trkpt lat="40.572417" lon="-5.039667">
        <ele>1661.0</ele>
        <time>2014-06-30T13:27:13Z</time>
      </trkpt>
      <trkpt lat="40.572500" lon="-5.039567">
        <ele>1660.0</ele>
        <time>2014-06-30T13:27:14Z</time>
      </trkpt>
      <trkpt lat="40.572583" lon="-5.039467">
        <ele>1659.0</ele>
        <time>2014-06-30T13:27:15Z</time>
      </trkpt>
      <trkpt lat="40.572667" lon="-5.039383">
        <ele>1659.0</ele>
        <time>2014-06-30T13:27:16Z</time>
      </trkpt>
      <trkpt lat="40.572767" lon="-5.039283">
        <ele>1659.0</ele>
        <time>2014-06-30T13:27:17Z</time>
      </trkpt>
      <trkpt lat="40.572867" lon="-5.039200">
        <ele>1659.0</ele>
        <time>2014-06-30T13:27:18Z</time>
      </trkpt>
      <trkpt lat="40.572950" lon="-5.039100">
        <ele>1659.0</ele>
        <time>2014-06-30T13:27:19Z</time>
      </trkpt>
      <trkpt lat="40.573050" lon="-5.038983">
        <ele>1659.0</ele>
        <time>2014-06-30T13:27:20Z</time>
      </trkpt>
      <trkpt lat="40.573133" lon="-5.038867">
        <ele>1659.0</ele>
        <time>2014-06-30T13:27:21Z</time>
      </trkpt>
      <trkpt lat="40.573217" lon="-5.038733">
        <ele>1659.0</ele>
        <time>2014-06-30T13:27:22Z</time>
      </trkpt>
      <trkpt lat="40.573317" lon="-5.038600">
        <ele>1659.0</ele>
        <time>2014-06-30T13:27:23Z</time>
      </trkpt>
      <trkpt lat="40.573400" lon="-5.038517">
        <ele>1660.0</ele>
        <time>2014-06-30T13:27:24Z</time>
      </trkpt>
      <trkpt lat="40.573483" lon="-5.038417">
        <ele>1662.0</ele>
        <time>2014-06-30T13:27:25Z</time>
      </trkpt>
      <trkpt lat="40.573567" lon="-5.038317">
        <ele>1664.0</ele>
        <time>2014-06-30T13:27:26Z</time>
      </trkpt>
      <trkpt lat="40.573650" lon="-5.038200">
        <ele>1665.0</ele>
        <time>2014-06-30T13:27:27Z</time>
      </trkpt>
      <trkpt lat="40.573750" lon="-5.038083">
        <ele>1667.0</ele>
        <time>2014-06-30T13:27:28Z</time>
      </trkpt>
      <trkpt lat="40.573817" lon="-5.037983">
        <ele>1668.0</ele>
        <time>2014-06-30T13:27:29Z</time>
      </trkpt>
      <trkpt lat="40.573900" lon="-5.037867">
        <ele>1670.0</ele>
        <time>2014-06-30T13:27:30Z</time>
      </trkpt>
      <trkpt lat="40.573967" lon="-5.037733">
        <ele>1672.0</ele>
        <time>2014-06-30T13:27:31Z</time>
      </trkpt>
      <trkpt lat="40.574017" lon="-5.037600">
        <ele>1674.0</ele>
        <time>2014-06-30T13:27:32Z</time>
      </trkpt>
      <trkpt lat="40.574083" lon="-5.037467">
        <ele>1676.0</ele>
        <time>2014-06-30T13:27:33Z</time>
      </trkpt>
      <trkpt lat="40.574167" lon="-5.037350">
        <ele>1679.0</ele>
        <time>2014-06-30T13:27:34Z</time>
      </trkpt>
      <trkpt lat="40.574250" lon="-5.037267">
        <ele>1681.0</ele>
        <time>2014-06-30T13:27:35Z</time>
      </trkpt>
      <trkpt lat="40.574317" lon="-5.037183">
        <ele>1683.0</ele>
        <time>2014-06-30T13:27:36Z</time>
      </trkpt>
      <trkpt lat="40.574383" lon="-5.037117">
        <ele>1687.0</ele>
        <time>2014-06-30T13:27:37Z</time>
      </trkpt>
      <trkpt lat="40.574450" lon="-5.037050">
        <ele>1691.0</ele>
        <time>2014-06-30T13:27:38Z</time>
      </trkpt>
      <trkpt lat="40.574517" lon="-5.036983">
        <ele>1694.0</ele>
        <time>2014-06-30T13:27:39Z</time>
      </trkpt>
      <trkpt lat="40.574600" lon="-5.036917">
        <ele>1697.0</ele>
        <time>2014-06-30T13:27:40Z</time>
      </trkpt>
      <trkpt lat="40.574683" lon="-5.036850">
        <ele>1700.0</ele>
        <time>2014-06-30T13:27:41Z</time>
      </trkpt>
      <trkpt lat="40.574750" lon="-5.036783">
        <ele>1703.0</ele>
        <time>2014-06-30T13:27:42Z</time>
      </trkpt>
      <trkpt lat="40.574833" lon="-5.036733">
        <ele>1706.0</ele>
        <time>2014-06-30T13:27:43Z</time>
      </trkpt>
      <trkpt lat="40.574917" lon="-5.036667">
        <ele>1709.0</ele>
        <time>2014-06-30T13:27:44Z</time>
      </trkpt>
      <trkpt lat="40.575000" lon="-5.036600">
        <ele>1712.0</ele>
        <time>2014-06-30T13:27:45Z</time>
      </trkpt>
      <trkpt lat="40.575083" lon="-5.036533">
        <ele>1715.0</ele>
        <time>2014-06-30T13:27:46Z</time>
      </trkpt>
      <trkpt lat="40.575150" lon="-5.036450">
        <ele>1717.0</ele>
        <time>2014-06-30T13:27:47Z</time>
      </trkpt>
      <trkpt lat="40.575217" lon="-5.036317">
        <ele>1719.0</ele>
        <time>2014-06-30T13:27:48Z</time>
      </trkpt>
      <trkpt lat="40.575267" lon="-5.036150">
        <ele>1720.0</ele>
        <time>2014-06-30T13:27:49Z</time>
      </trkpt>
      <trkpt lat="40.575283" lon="-5.035967">
        <ele>1721.0</ele>
        <time>2014-06-30T13:27:50Z</time>
      </trkpt>
      <trkpt lat="40.575267" lon="-5.035767">
        <ele>1723.0</ele>
        <time>2014-06-30T13:27:51Z</time>
      </trkpt>
      <trkpt lat="40.575217" lon="-5.035617">
        <ele>1726.0</ele>
        <time>2014-06-30T13:27:52Z</time>
      </trkpt>
      <trkpt lat="40.575150" lon="-5.035517">
        <ele>1730.0</ele>
        <time>2014-06-30T13:27:53Z</time>
      </trkpt>
      <trkpt lat="40.575067" lon="-5.035450">
        <ele>1733.0</ele>
        <time>2014-06-30T13:27:54Z</time>
      </trkpt>
      <trkpt lat="40.574983" lon="-5.035417">
        <ele>1735.0</ele>
        <time>2014-06-30T13:27:55Z</time>
      </trkpt>
      <trkpt lat="40.574917" lon="-5.035400">
        <ele>1737.0</ele>
        <time>2014-06-30T13:27:56Z</time>
      </trkpt>
      <trkpt lat="40.574850" lon="-5.035400">
        <ele>1740.0</ele>
        <time>2014-06-30T13:27:57Z</time>
      </trkpt>
      <trkpt lat="40.574800" lon="-5.035433">
        <ele>1743.0</ele>
        <time>2014-06-30T13:27:58Z</time>
      </trkpt>
      <trkpt lat="40.574783" lon="-5.035467">
        <ele>1746.0</ele>
        <time>2014-06-30T13:27:59Z</time>
      </trkpt>
      <trkpt lat="40.574800" lon="-5.035517">
        <ele>1749.0</ele>
        <time>2014-06-30T13:28:00Z</time>
      </trkpt>
      <trkpt lat="40.574833" lon="-5.035550">
        <ele>1743.0</ele>
        <time>2014-06-30T13:28:01Z</time>
      </trkpt>
      <trkpt lat="40.574883" lon="-5.035533">
        <ele>1743.0</ele>
        <time>2014-06-30T13:28:02Z</time>
      </trkpt>
      <trkpt lat="40.574950" lon="-5.035467">
        <ele>1744.0</ele>
        <time>2014-06-30T13:28:03Z</time>
      </trkpt>
      <trkpt lat="40.575033" lon="-5.035367">
        <ele>1744.0</ele>
        <time>2014-06-30T13:28:04Z</time>
      </trkpt>
      <trkpt lat="40.575100" lon="-5.035217">
        <ele>1745.0</ele>
        <time>2014-06-30T13:28:05Z</time>
      </trkpt>
      <trkpt lat="40.575133" lon="-5.035067">
        <ele>1748.0</ele>
        <time>2014-06-30T13:28:06Z</time>
      </trkpt>
      <trkpt lat="40.575167" lon="-5.034883">
        <ele>1750.0</ele>
        <time>2014-06-30T13:28:07Z</time>
      </trkpt>
      <trkpt lat="40.575167" lon="-5.034700">
        <ele>1752.0</ele>
        <time>2014-06-30T13:28:08Z</time>
      </trkpt>
      <trkpt lat="40.575150" lon="-5.034517">
        <ele>1756.0</ele>
        <time>2014-06-30T13:28:09Z</time>
      </trkpt>
      <trkpt lat="40.575117" lon="-5.034350">
        <ele>1759.0</ele>
        <time>2014-06-30T13:28:10Z</time>
      </trkpt>
      <trkpt lat="40.575083" lon="-5.034183">
        <ele>1762.0</ele>
        <time>2014-06-30T13:28:11Z</time>
      </trkpt>
      <trkpt lat="40.575033" lon="-5.034050">
        <ele>1766.0</ele>
        <time>2014-06-30T13:28:12Z</time>
      </trkpt>
      <trkpt lat="40.574967" lon="-5.033933">
        <ele>1769.0</ele>
        <time>2014-06-30T13:28:13Z</time>
      </trkpt>
      <trkpt lat="40.574883" lon="-5.033833">
        <ele>1772.0</ele>
        <time>2014-06-30T13:28:14Z</time>
      </trkpt>
      <trkpt lat="40.574800" lon="-5.033783">
        <ele>1775.0</ele>
        <time>2014-06-30T13:28:15Z</time>
      </trkpt>
      <trkpt lat="40.574717" lon="-5.033767">
        <ele>1779.0</ele>
        <time>2014-06-30T13:28:16Z</time>
      </trkpt>
      <trkpt lat="40.574650" lon="-5.033767">
        <ele>1782.0</ele>
        <time>2014-06-30T13:28:17Z</time>
      </trkpt>
      <trkpt lat="40.574600" lon="-5.033783">
        <ele>1786.0</ele>
        <time>2014-06-30T13:28:18Z</time>
      </trkpt>
      <trkpt lat="40.574583" lon="-5.033833">
        <ele>1790.0</ele>
        <time>2014-06-30T13:28:19Z</time>
      </trkpt>
      <trkpt lat="40.574567" lon="-5.033867">
        <ele>1783.0</ele>
        <time>2014-06-30T13:28:20Z</time>
      </trkpt>
      <trkpt lat="40.574533" lon="-5.033883">
        <ele>1785.0</ele>
        <time>2014-06-30T13:28:21Z</time>
      </trkpt>
      <trkpt lat="40.574533" lon="-5.033900">
        <ele>1787.0</ele>
        <time>2014-06-30T13:28:22Z</time>
      </trkpt>
      <trkpt lat="40.574550" lon="-5.033933">
        <ele>1790.0</ele>
        <time>2014-06-30T13:28:23Z</time>
      </trkpt>
      <trkpt lat="40.574583" lon="-5.033950">
        <ele>1793.0</ele>
        <time>2014-06-30T13:28:24Z</time>
      </trkpt>
      <trkpt lat="40.574633" lon="-5.033933">
        <ele>1797.0</ele>
        <time>2014-06-30T13:28:25Z</time>
      </trkpt>
      <trkpt lat="40.574683" lon="-5.033900">
        <ele>1801.0</ele>
        <time>2014-06-30T13:28:26Z</time>
      </trkpt>
      <trkpt lat="40.574733" lon="-5.033867">
        <ele>1804.0</ele>
        <time>2014-06-30T13:28:27Z</time>
      </trkpt>
      <trkpt lat="40.574800" lon="-5.033800">
        <ele>1806.0</ele>
        <time>2014-06-30T13:28:28Z</time>
      </trkpt>
      <trkpt lat="40.574850" lon="-5.033733">
        <ele>1808.0</ele>
        <time>2014-06-30T13:28:29Z</time>
      </trkpt>
      <trkpt lat="40.574917" lon="-5.033650">
        <ele>1810.0</ele>
        <time>2014-06-30T13:28:30Z</time>
      </trkpt>
      <trkpt lat="40.574967" lon="-5.033517">
        <ele>1812.0</ele>
        <time>2014-06-30T13:28:31Z</time>
      </trkpt>
      <trkpt lat="40.575017" lon="-5.033350">
        <ele>1814.0</ele>
        <time>2014-06-30T13:28:32Z</time>
      </trkpt>
      <trkpt lat="40.575033" lon="-5.033150">
        <ele>1816.0</ele>
        <time>2014-06-30T13:28:33Z</time>
      </trkpt>
      <trkpt lat="40.575017" lon="-5.032967">
        <ele>1817.0</ele>
        <time>2014-06-30T13:28:34Z</time>
      </trkpt>
      <trkpt lat="40.574967" lon="-5.032800">
        <ele>1820.0</ele>
        <time>2014-06-30T13:28:35Z</time>
      </trkpt>
      <trkpt lat="40.574900" lon="-5.032667">
        <ele>1822.0</ele>
        <time>2014-06-30T13:28:36Z</time>
      </trkpt>
      <trkpt lat="40.574800" lon="-5.032550">
        <ele>1824.0</ele>
        <time>2014-06-30T13:28:37Z</time>
      </trkpt>
      <trkpt lat="40.574717" lon="-5.032467">
        <ele>1826.0</ele>
        <time>2014-06-30T13:28:38Z</time>
      </trkpt>
      <trkpt lat="40.574633" lon="-5.032417">
        <ele>1829.0</ele>
        <time>2014-06-30T13:28:39Z</time>
      </trkpt>
      <trkpt lat="40.574567" lon="-5.032417">
        <ele>1831.0</ele>
        <time>2014-06-30T13:28:40Z</time>
      </trkpt>
      <trkpt lat="40.574517" lon="-5.032433">
        <ele>1829.0</ele>
        <time>2014-06-30T13:28:41Z</time>
      </trkpt>
      <trkpt lat="40.574500" lon="-5.032467">
        <ele>1829.0</ele>
        <time>2014-06-30T13:28:42Z</time>
      </trkpt>
      <trkpt lat="40.574483" lon="-5.032500">
        <ele>1829.0</ele>
        <time>2014-06-30T13:28:43Z</time>
      </trkpt>
      <trkpt lat="40.574483" lon="-5.032517">
        <ele>1830.0</ele>
        <time>2014-06-30T13:28:44Z</time>
      </trkpt>
      <trkpt lat="40.574517" lon="-5.032517">
        <ele>1831.0</ele>
        <time>2014-06-30T13:28:45Z</time>
      </trkpt>
      <trkpt lat="40.574567" lon="-5.032500">
        <ele>1832.0</ele>
        <time>2014-06-30T13:28:46Z</time>
      </trkpt>
      <trkpt lat="40.574617" lon="-5.032433">
        <ele>1833.0</ele>
        <time>2014-06-30T13:28:47Z</time>
      </trkpt>
      <trkpt lat="40.574683" lon="-5.032350">
        <ele>1833.0</ele>
        <time>2014-06-30T13:28:48Z</time>
      </trkpt>
      <trkpt lat="40.574750" lon="-5.032217">
        <ele>1834.0</ele>
        <time>2014-06-30T13:28:49Z</time>
      </trkpt>
      <trkpt lat="40.574817" lon="-5.032083">
        <ele>1835.0</ele>
        <time>2014-06-30T13:28:50Z</time>
      </trkpt>
      <trkpt lat="40.574883" lon="-5.031967">
        <ele>1837.0</ele>
        <time>2014-06-30T13:28:51Z</time>
      </trkpt>
      <trkpt lat="40.574967" lon="-5.031867">
        <ele>1840.0</ele>
        <time>2014-06-30T13:28:52Z</time>
      </trkpt>
      <trkpt lat="40.575050" lon="-5.031783">
        <ele>1844.0</ele>
        <time>2014-06-30T13:28:53Z</time>
      </trkpt>
      <trkpt lat="40.575100" lon="-5.031750">
        <ele>1847.0</ele>
        <time>2014-06-30T13:28:54Z</time>
      </trkpt>
      <trkpt lat="40.575150" lon="-5.031750">
        <ele>1849.0</ele>
        <time>2014-06-30T13:28:55Z</time>
      </trkpt>
      <trkpt lat="40.575183" lon="-5.031767">
        <ele>1850.0</ele>
        <time>2014-06-30T13:28:56Z</time>
      </trkpt>
      <trkpt lat="40.575200" lon="-5.031817">
        <ele>1852.0</ele>
        <time>2014-06-30T13:28:57Z</time>
      </trkpt>
      <trkpt lat="40.575183" lon="-5.031850">
        <ele>1855.0</ele>
        <time>2014-06-30T13:28:58Z</time>
      </trkpt>
      <trkpt lat="40.575133" lon="-5.031883">
        <ele>1857.0</ele>
        <time>2014-06-30T13:28:59Z</time>
      </trkpt>
      <trkpt lat="40.575083" lon="-5.031900">
        <ele>1859.0</ele>
        <time>2014-06-30T13:29:00Z</time>
      </trkpt>
      <trkpt lat="40.575017" lon="-5.031867">
        <ele>1863.0</ele>
        <time>2014-06-30T13:29:01Z</time>
      </trkpt>
      <trkpt lat="40.574933" lon="-5.031817">
        <ele>1866.0</ele>
        <time>2014-06-30T13:29:02Z</time>
      </trkpt>
      <trkpt lat="40.574867" lon="-5.031717">
        <ele>1869.0</ele>
        <time>2014-06-30T13:29:03Z</time>
      </trkpt>
      <trkpt lat="40.574800" lon="-5.031583">
        <ele>1871.0</ele>
        <time>2014-06-30T13:29:04Z</time>
      </trkpt>
      <trkpt lat="40.574733" lon="-5.031417">
        <ele>1873.0</ele>
        <time>2014-06-30T13:29:05Z</time>
      </trkpt>
      <trkpt lat="40.574717" lon="-5.031233">
        <ele>1874.0</ele>
        <time>2014-06-30T13:29:06Z</time>
      </trkpt>
      <trkpt lat="40.574717" lon="-5.031050">
        <ele>1877.0</ele>
        <time>2014-06-30T13:29:07Z</time>
      </trkpt>
      <trkpt lat="40.574733" lon="-5.030883">
        <ele>1880.0</ele>
        <time>2014-06-30T13:29:08Z</time>
      </trkpt>
      <trkpt lat="40.574783" lon="-5.030733">
        <ele>1882.0</ele>
        <time>2014-06-30T13:29:09Z</time>
      </trkpt>
      <trkpt lat="40.574850" lon="-5.030567">
        <ele>1883.0</ele>
        <time>2014-06-30T13:29:10Z</time>
      </trkpt>
      <trkpt lat="40.574917" lon="-5.030417">
        <ele>1885.0</ele>
        <time>2014-06-30T13:29:11Z</time>
      </trkpt>
      <trkpt lat="40.574967" lon="-5.030267">
        <ele>1887.0</ele>
        <time>2014-06-30T13:29:12Z</time>
      </trkpt>
      <trkpt lat="40.575017" lon="-5.030117">
        <ele>1891.0</ele>
        <time>2014-06-30T13:29:13Z</time>
      </trkpt>
      <trkpt lat="40.575017" lon="-5.029967">
        <ele>1894.0</ele>
        <time>2014-06-30T13:29:14Z</time>
      </trkpt>
      <trkpt lat="40.575017" lon="-5.029817">
        <ele>1897.0</ele>
        <time>2014-06-30T13:29:15Z</time>
      </trkpt>
      <trkpt lat="40.574983" lon="-5.029650">
        <ele>1898.0</ele>
        <time>2014-06-30T13:29:16Z</time>
      </trkpt>
      <trkpt lat="40.574933" lon="-5.029500">
        <ele>1899.0</ele>
        <time>2014-06-30T13:29:17Z</time>
      </trkpt>
      <trkpt lat="40.574850" lon="-5.029383">
        <ele>1900.0</ele>
        <time>2014-06-30T13:29:18Z</time>
      </trkpt>
      <trkpt lat="40.574767" lon="-5.029283">
        <ele>1902.0</ele>
        <time>2014-06-30T13:29:19Z</time>
      </trkpt>
      <trkpt lat="40.574667" lon="-5.029233">
        <ele>1903.0</ele>
        <time>2014-06-30T13:29:20Z</time>
      </trkpt>
      <trkpt lat="40.574567" lon="-5.029217">
        <ele>1904.0</ele>
        <time>2014-06-30T13:29:21Z</time>
      </trkpt>
      <trkpt lat="40.574500" lon="-5.029233">
        <ele>1906.0</ele>
        <time>2014-06-30T13:29:22Z</time>
      </trkpt>
      <trkpt lat="40.574450" lon="-5.029250">
        <ele>1908.0</ele>
        <time>2014-06-30T13:29:23Z</time>
      </trkpt>
      <trkpt lat="40.574417" lon="-5.029267">
        <ele>1911.0</ele>
        <time>2014-06-30T13:29:24Z</time>
      </trkpt>
      <trkpt lat="40.574383" lon="-5.029283">
        <ele>1913.0</ele>
        <time>2014-06-30T13:29:25Z</time>
      </trkpt>
      <trkpt lat="40.574333" lon="-5.029317">
        <ele>1915.0</ele>
        <time>2014-06-30T13:29:26Z</time>
      </trkpt>
      <trkpt lat="40.574317" lon="-5.029350">
        <ele>1917.0</ele>
        <time>2014-06-30T13:29:27Z</time>
      </trkpt>
      <trkpt lat="40.574317" lon="-5.029383">
        <ele>1918.0</ele>
        <time>2014-06-30T13:29:28Z</time>
      </trkpt>
      <trkpt lat="40.574350" lon="-5.029400">
        <ele>1919.0</ele>
        <time>2014-06-30T13:29:29Z</time>
      </trkpt>
      <trkpt lat="40.574383" lon="-5.029417">
        <ele>1920.0</ele>
        <time>2014-06-30T13:29:30Z</time>
      </trkpt>
      <trkpt lat="40.574433" lon="-5.029417">
        <ele>1922.0</ele>
        <time>2014-06-30T13:29:31Z</time>
      </trkpt>
      <trkpt lat="40.574500" lon="-5.029400">
        <ele>1922.0</ele>
        <time>2014-06-30T13:29:32Z</time>
      </trkpt>
      <trkpt lat="40.574567" lon="-5.029367">
        <ele>1922.0</ele>
        <time>2014-06-30T13:29:33Z</time>
      </trkpt>
      <trkpt lat="40.574633" lon="-5.029317">
        <ele>1923.0</ele>
        <time>2014-06-30T13:29:34Z</time>
      </trkpt>
      <trkpt lat="40.574733" lon="-5.029233">
        <ele>1923.0</ele>
        <time>2014-06-30T13:29:35Z</time>
      </trkpt>
      <trkpt lat="40.574833" lon="-5.029100">
        <ele>1923.0</ele>
        <time>2014-06-30T13:29:36Z</time>
      </trkpt>
      <trkpt lat="40.574900" lon="-5.028950">
        <ele>1923.0</ele>
        <time>2014-06-30T13:29:37Z</time>
      </trkpt>
      <trkpt lat="40.574967" lon="-5.028767">
        <ele>1924.0</ele>
        <time>2014-06-30T13:29:38Z</time>
      </trkpt>
      <trkpt lat="40.574983" lon="-5.028583">
        <ele>1926.0</ele>
        <time>2014-06-30T13:29:39Z</time>
      </trkpt>
      <trkpt lat="40.575000" lon="-5.028400">
        <ele>1927.0</ele>
        <time>2014-06-30T13:29:40Z</time>
      </trkpt>
      <trkpt lat="40.574983" lon="-5.028217">
        <ele>1928.0</ele>
        <time>2014-06-30T13:29:41Z</time>
      </trkpt>
      <trkpt lat="40.574950" lon="-5.028050">
        <ele>1929.0</ele>
        <time>2014-06-30T13:29:42Z</time>
      </trkpt>
      <trkpt lat="40.574900" lon="-5.027883">
        <ele>1930.0</ele>
        <time>2014-06-30T13:29:43Z</time>
      </trkpt>
      <trkpt lat="40.574833" lon="-5.027733">
        <ele>1932.0</ele>
        <time>2014-06-30T13:29:44Z</time>
      </trkpt>
      <trkpt lat="40.574767" lon="-5.027633">
        <ele>1933.0</ele>
        <time>2014-06-30T13:29:45Z</time>
      </trkpt>
      <trkpt lat="40.574700" lon="-5.027533">
        <ele>1935.0</ele>
        <time>2014-06-30T13:29:46Z</time>
      </trkpt>
      <trkpt lat="40.574617" lon="-5.027467">
        <ele>1936.0</ele>
        <time>2014-06-30T13:29:47Z</time>
      </trkpt>
      <trkpt lat="40.574517" lon="-5.027433">
        <ele>1937.0</ele>
        <time>2014-06-30T13:29:48Z</time>
      </trkpt>
      <trkpt lat="40.574433" lon="-5.027400">
        <ele>1938.0</ele>
        <time>2014-06-30T13:29:49Z</time>
      </trkpt>
      <trkpt lat="40.574350" lon="-5.027400">
        <ele>1939.0</ele>
        <time>2014-06-30T13:29:50Z</time>
      </trkpt>
      <trkpt lat="40.574267" lon="-5.027400">
        <ele>1940.0</ele>
        <time>2014-06-30T13:29:51Z</time>
      </trkpt>
      <trkpt lat="40.574217" lon="-5.027417">
        <ele>1942.0</ele>
        <time>2014-06-30T13:29:52Z</time>
      </trkpt>
      <trkpt lat="40.574183" lon="-5.027433">
        <ele>1943.0</ele>
        <time>2014-06-30T13:29:53Z</time>
      </trkpt>
      <trkpt lat="40.574133" lon="-5.027450">
        <ele>1944.0</ele>
        <time>2014-06-30T13:29:54Z</time>
      </trkpt>
      <trkpt lat="40.574100" lon="-5.027483">
        <ele>1944.0</ele>
        <time>2014-06-30T13:29:55Z</time>
      </trkpt>
      <trkpt lat="40.574067" lon="-5.027517">
        <ele>1943.0</ele>
        <time>2014-06-30T13:29:56Z</time>
      </trkpt>
      <trkpt lat="40.574067" lon="-5.027567">
        <ele>1943.0</ele>
        <time>2014-06-30T13:29:57Z</time>
      </trkpt>
      <trkpt lat="40.574067" lon="-5.027600">
        <ele>1943.0</ele>
        <time>2014-06-30T13:29:58Z</time>
      </trkpt>
      <trkpt lat="40.574100" lon="-5.027650">
        <ele>1942.0</ele>
        <time>2014-06-30T13:29:59Z</time>
      </trkpt>
      <trkpt lat="40.574150" lon="-5.027683">
        <ele>1941.0</ele>
        <time>2014-06-30T13:30:00Z</time>
      </trkpt>
      <trkpt lat="40.574217" lon="-5.027683">
        <ele>1942.0</ele>
        <time>2014-06-30T13:30:01Z</time>
      </trkpt>
      <trkpt lat="40.574300" lon="-5.027650">
        <ele>1942.0</ele>
        <time>2014-06-30T13:30:02Z</time>
      </trkpt>
      <trkpt lat="40.574400" lon="-5.027583">
        <ele>1942.0</ele>
        <time>2014-06-30T13:30:03Z</time>
      </trkpt>
      <trkpt lat="40.574483" lon="-5.027500">
        <ele>1943.0</ele>
        <time>2014-06-30T13:30:04Z</time>
      </trkpt>
      <trkpt lat="40.574550" lon="-5.027383">
        <ele>1943.0</ele>
        <time>2014-06-30T13:30:05Z</time>
      </trkpt>
      <trkpt lat="40.574617" lon="-5.027250">
        <ele>1944.0</ele>
        <time>2014-06-30T13:30:06Z</time>
      </trkpt>
      <trkpt lat="40.574683" lon="-5.027133">
        <ele>1945.0</ele>
        <time>2014-06-30T13:30:07Z</time>
      </trkpt>
      <trkpt lat="40.574750" lon="-5.027017">
        <ele>1946.0</ele>
        <time>2014-06-30T13:30:08Z</time>
      </trkpt>
      <trkpt lat="40.574817" lon="-5.026917">
        <ele>1946.0</ele>
        <time>2014-06-30T13:30:09Z</time>
      </trkpt>
      <trkpt lat="40.574867" lon="-5.026783">
        <ele>1945.0</ele>
        <time>2014-06-30T13:30:10Z</time>
      </trkpt>
      <trkpt lat="40.574933" lon="-5.026633">
        <ele>1945.0</ele>
        <time>2014-06-30T13:30:11Z</time>
      </trkpt>
      <trkpt lat="40.574967" lon="-5.026467">
        <ele>1945.0</ele>
        <time>2014-06-30T13:30:12Z</time>
      </trkpt>
      <trkpt lat="40.574983" lon="-5.026300">
        <ele>1945.0</ele>
        <time>2014-06-30T13:30:13Z</time>
      </trkpt>
      <trkpt lat="40.574983" lon="-5.026133">
        <ele>1945.0</ele>
        <time>2014-06-30T13:30:14Z</time>
      </trkpt>
      <trkpt lat="40.574967" lon="-5.025967">
        <ele>1945.0</ele>
        <time>2014-06-30T13:30:15Z</time>
      </trkpt>
      <trkpt lat="40.574917" lon="-5.025800">
        <ele>1945.0</ele>
        <time>2014-06-30T13:30:16Z</time>
      </trkpt>
      <trkpt lat="40.574850" lon="-5.025650">
        <ele>1945.0</ele>
        <time>2014-06-30T13:30:17Z</time>
      </trkpt>
      <trkpt lat="40.574783" lon="-5.025517">
        <ele>1946.0</ele>
        <time>2014-06-30T13:30:18Z</time>
      </trkpt>
      <trkpt lat="40.574717" lon="-5.025383">
        <ele>1947.0</ele>
        <time>2014-06-30T13:30:19Z</time>
      </trkpt>
      <trkpt lat="40.574650" lon="-5.025283">
        <ele>1948.0</ele>
        <time>2014-06-30T13:30:20Z</time>
      </trkpt>
      <trkpt lat="40.574583" lon="-5.025183">
        <ele>1949.0</ele>
        <time>2014-06-30T13:30:21Z</time>
      </trkpt>
      <trkpt lat="40.574500" lon="-5.025083">
        <ele>1948.0</ele>
        <time>2014-06-30T13:30:22Z</time>
      </trkpt>
      <trkpt lat="40.574417" lon="-5.025017">
        <ele>1949.0</ele>
        <time>2014-06-30T13:30:23Z</time>
      </trkpt>
      <trkpt lat="40.574333" lon="-5.024950">
        <ele>1949.0</ele>
        <time>2014-06-30T13:30:24Z</time>
      </trkpt>
      <trkpt lat="40.574250" lon="-5.024917">
        <ele>1949.0</ele>
        <time>2014-06-30T13:30:25Z</time>
      </trkpt>
      <trkpt lat="40.574183" lon="-5.024900">
        <ele>1950.0</ele>
        <time>2014-06-30T13:30:26Z</time>
      </trkpt>
      <trkpt lat="40.574117" lon="-5.024883">
        <ele>1951.0</ele>
        <time>2014-06-30T13:30:27Z</time>
      </trkpt>
      <trkpt lat="40.574067" lon="-5.024867">
        <ele>1953.0</ele>
        <time>2014-06-30T13:30:28Z</time>
      </trkpt>
      <trkpt lat="40.574000" lon="-5.024850">
        <ele>1954.0</ele>
        <time>2014-06-30T13:30:29Z</time>
      </trkpt>
      <trkpt lat="40.573933" lon="-5.024833">
        <ele>1955.0</ele>
        <time>2014-06-30T13:30:30Z</time>
      </trkpt>
      <trkpt lat="40.573867" lon="-5.024833">
        <ele>1955.0</ele>
        <time>2014-06-30T13:30:31Z</time>
      </trkpt>
      <trkpt lat="40.573800" lon="-5.024833">
        <ele>1955.0</ele>
        <time>2014-06-30T13:30:32Z</time>
      </trkpt>
      <trkpt lat="40.573717" lon="-5.024817">
        <ele>1956.0</ele>
        <time>2014-06-30T13:30:33Z</time>
      </trkpt>
      <trkpt lat="40.573633" lon="-5.024817">
        <ele>1957.0</ele>
        <time>2014-06-30T13:30:34Z</time>
      </trkpt>
      <trkpt lat="40.573567" lon="-5.024817">
        <ele>1957.0</ele>
        <time>2014-06-30T13:30:35Z</time>
      </trkpt>
      <trkpt lat="40.573517" lon="-5.024833">
        <ele>1958.0</ele>
        <time>2014-06-30T13:30:36Z</time>
      </trkpt>
      <trkpt lat="40.573467" lon="-5.024867">
        <ele>1958.0</ele>
        <time>2014-06-30T13:30:37Z</time>
      </trkpt>
      <trkpt lat="40.573433" lon="-5.024917">
        <ele>1958.0</ele>
        <time>2014-06-30T13:30:38Z</time>
      </trkpt>
      <trkpt lat="40.573417" lon="-5.024967">
        <ele>1958.0</ele>
        <time>2014-06-30T13:30:39Z</time>
      </trkpt>
      <trkpt lat="40.573400" lon="-5.025017">
        <ele>1959.0</ele>
        <time>2014-06-30T13:30:40Z</time>
      </trkpt>
      <trkpt lat="40.573383" lon="-5.025050">
        <ele>1960.0</ele>
        <time>2014-06-30T13:30:41Z</time>
      </trkpt>
      <trkpt lat="40.573383" lon="-5.025067">
        <ele>1961.0</ele>
        <time>2014-06-30T13:30:42Z</time>
      </trkpt>
      <trkpt lat="40.573383" lon="-5.025100">
        <ele>1961.0</ele>
        <time>2014-06-30T13:30:43Z</time>
      </trkpt>
      <trkpt lat="40.573383" lon="-5.025133">
        <ele>1962.0</ele>
        <time>2014-06-30T13:30:44Z</time>
      </trkpt>
      <trkpt lat="40.573400" lon="-5.025167">
        <ele>1962.0</ele>
        <time>2014-06-30T13:30:45Z</time>
      </trkpt>
      <trkpt lat="40.573400" lon="-5.025200">
        <ele>1963.0</ele>
        <time>2014-06-30T13:30:46Z</time>
      </trkpt>
      <trkpt lat="40.573400" lon="-5.025233">
        <ele>1963.0</ele>
        <time>2014-06-30T13:30:47Z</time>
      </trkpt>
      <trkpt lat="40.573383" lon="-5.025267">
        <ele>1964.0</ele>
        <time>2014-06-30T13:30:48Z</time>
      </trkpt>
      <trkpt lat="40.573367" lon="-5.025283">
        <ele>1965.0</ele>
        <time>2014-06-30T13:30:49Z</time>
      </trkpt>
      <trkpt lat="40.573333" lon="-5.025300">
        <ele>1965.0</ele>
        <time>2014-06-30T13:30:50Z</time>
      </trkpt>
      <trkpt lat="40.573333" lon="-5.025317">
        <ele>1964.0</ele>
        <time>2014-06-30T13:30:51Z</time>
      </trkpt>
      <trkpt lat="40.573350" lon="-5.025333">
        <ele>1963.0</ele>
        <time>2014-06-30T13:30:52Z</time>
      </trkpt>
      <trkpt lat="40.573383" lon="-5.025350">
        <ele>1961.0</ele>
        <time>2014-06-30T13:30:53Z</time>
      </trkpt>
      <trkpt lat="40.573450" lon="-5.025350">
        <ele>1958.0</ele>
        <time>2014-06-30T13:30:54Z</time>
      </trkpt>
      <trkpt lat="40.573517" lon="-5.025317">
        <ele>1957.0</ele>
        <time>2014-06-30T13:30:55Z</time>
      </trkpt>
      <trkpt lat="40.573583" lon="-5.025233">
        <ele>1956.0</ele>
        <time>2014-06-30T13:30:56Z</time>
      </trkpt>
      <trkpt lat="40.573650" lon="-5.025117">
        <ele>1955.0</ele>
        <time>2014-06-30T13:30:57Z</time>
      </trkpt>
      <trkpt lat="40.573717" lon="-5.024983">
        <ele>1953.0</ele>
        <time>2014-06-30T13:30:58Z</time>
      </trkpt>
      <trkpt lat="40.573767" lon="-5.024850">
        <ele>1951.0</ele>
        <time>2014-06-30T13:30:59Z</time>
      </trkpt>
      <trkpt lat="40.573817" lon="-5.024700">
        <ele>1949.0</ele>
        <time>2014-06-30T13:31:00Z</time>
      </trkpt>
      <trkpt lat="40.573867" lon="-5.024533">
        <ele>1947.0</ele>
        <time>2014-06-30T13:31:01Z</time>
      </trkpt>
      <trkpt lat="40.573900" lon="-5.024367">
        <ele>1946.0</ele>
        <time>2014-06-30T13:31:02Z</time>
      </trkpt>
      <trkpt lat="40.573917" lon="-5.024183">
        <ele>1945.0</ele>
        <time>2014-06-30T13:31:03Z</time>
      </trkpt>
      <trkpt lat="40.573917" lon="-5.024000">
        <ele>1944.0</ele>
        <time>2014-06-30T13:31:04Z</time>
      </trkpt>
      <trkpt lat="40.573900" lon="-5.023817">
        <ele>1943.0</ele>
        <time>2014-06-30T13:31:05Z</time>
      </trkpt>
      <trkpt lat="40.573883" lon="-5.023633">
        <ele>1942.0</ele>
        <time>2014-06-30T13:31:06Z</time>
      </trkpt>
      <trkpt lat="40.573883" lon="-5.023450">
        <ele>1941.0</ele>
        <time>2014-06-30T13:31:07Z</time>
      </trkpt>
      <trkpt lat="40.573867" lon="-5.023267">
        <ele>1940.0</ele>
        <time>2014-06-30T13:31:08Z</time>
      </trkpt>
      <trkpt lat="40.573817" lon="-5.023083">
        <ele>1939.0</ele>
        <time>2014-06-30T13:31:09Z</time>
      </trkpt>
      <trkpt lat="40.573750" lon="-5.022900">
        <ele>1937.0</ele>
        <time>2014-06-30T13:31:10Z</time>
      </trkpt>
      <trkpt lat="40.573683" lon="-5.022750">
        <ele>1937.0</ele>
        <time>2014-06-30T13:31:11Z</time>
      </trkpt>
      <trkpt lat="40.573600" lon="-5.022600">
        <ele>1937.0</ele>
        <time>2014-06-30T13:31:12Z</time>
      </trkpt>
      <trkpt lat="40.573533" lon="-5.022500">
        <ele>1937.0</ele>
        <time>2014-06-30T13:31:13Z</time>
      </trkpt>
      <trkpt lat="40.573450" lon="-5.022400">
        <ele>1938.0</ele>
        <time>2014-06-30T13:31:14Z</time>
      </trkpt>
      <trkpt lat="40.573367" lon="-5.022300">
        <ele>1938.0</ele>
        <time>2014-06-30T13:31:15Z</time>
      </trkpt>
      <trkpt lat="40.573267" lon="-5.022217">
        <ele>1938.0</ele>
        <time>2014-06-30T13:31:16Z</time>
      </trkpt>
      <trkpt lat="40.573167" lon="-5.022133">
        <ele>1937.0</ele>
        <time>2014-06-30T13:31:17Z</time>
      </trkpt>
      <trkpt lat="40.573050" lon="-5.022067">
        <ele>1937.0</ele>
        <time>2014-06-30T13:31:18Z</time>
      </trkpt>
      <trkpt lat="40.572967" lon="-5.022017">
        <ele>1937.0</ele>
        <time>2014-06-30T13:31:19Z</time>
      </trkpt>
      <trkpt lat="40.572867" lon="-5.021967">
        <ele>1937.0</ele>
        <time>2014-06-30T13:31:20Z</time>
      </trkpt>
      <trkpt lat="40.572783" lon="-5.021917">
        <ele>1937.0</ele>
        <time>2014-06-30T13:31:21Z</time>
      </trkpt>
      <trkpt lat="40.572700" lon="-5.021883">
        <ele>1937.0</ele>
        <time>2014-06-30T13:31:22Z</time>
      </trkpt>
      <trkpt lat="40.572617" lon="-5.021850">
        <ele>1936.0</ele>
        <time>2014-06-30T13:31:23Z</time>
      </trkpt>
      <trkpt lat="40.572533" lon="-5.021817">
        <ele>1936.0</ele>
        <time>2014-06-30T13:31:24Z</time>
      </trkpt>
      <trkpt lat="40.572433" lon="-5.021800">
        <ele>1935.0</ele>
        <time>2014-06-30T13:31:25Z</time>
      </trkpt>
      <trkpt lat="40.572350" lon="-5.021783">
        <ele>1934.0</ele>
        <time>2014-06-30T13:31:26Z</time>
      </trkpt>
      <trkpt lat="40.572300" lon="-5.021800">
        <ele>1933.0</ele>
        <time>2014-06-30T13:31:27Z</time>
      </trkpt>
      <trkpt lat="40.572250" lon="-5.021833">
        <ele>1932.0</ele>
        <time>2014-06-30T13:31:28Z</time>
      </trkpt>
      <trkpt lat="40.572217" lon="-5.021867">
        <ele>1930.0</ele>
        <time>2014-06-30T13:31:29Z</time>
      </trkpt>
      <trkpt lat="40.572167" lon="-5.021900">
        <ele>1927.0</ele>
        <time>2014-06-30T13:31:30Z</time>
      </trkpt>
      <trkpt lat="40.572133" lon="-5.021917">
        <ele>1925.0</ele>
        <time>2014-06-30T13:31:31Z</time>
      </trkpt>
      <trkpt lat="40.572100" lon="-5.021950">
        <ele>1924.0</ele>
        <time>2014-06-30T13:31:32Z</time>
      </trkpt>
      <trkpt lat="40.572083" lon="-5.021983">
        <ele>1922.0</ele>
        <time>2014-06-30T13:31:33Z</time>
      </trkpt>
      <trkpt lat="40.572067" lon="-5.022033">
        <ele>1922.0</ele>
        <time>2014-06-30T13:31:34Z</time>
      </trkpt>
      <trkpt lat="40.572067" lon="-5.022067">
        <ele>1922.0</ele>
        <time>2014-06-30T13:31:35Z</time>
      </trkpt>
      <trkpt lat="40.572067" lon="-5.022083">
        <ele>1921.0</ele>
        <time>2014-06-30T13:31:36Z</time>
      </trkpt>
      <trkpt lat="40.572067" lon="-5.022100">
        <ele>1921.0</ele>
        <time>2014-06-30T13:31:37Z</time>
      </trkpt>
      <trkpt lat="40.572067" lon="-5.022100">
        <ele>1921.0</ele>
        <time>2014-06-30T13:31:38Z</time>
      </trkpt>
      <trkpt lat="40.572083" lon="-5.022083">
        <ele>1920.0</ele>
        <time>2014-06-30T13:31:39Z</time>
      </trkpt>
      <trkpt lat="40.572083" lon="-5.022083">
        <ele>1919.0</ele>
        <time>2014-06-30T13:31:40Z</time>
      </trkpt>
      <trkpt lat="40.572100" lon="-5.022083">
        <ele>1918.0</ele>
        <time>2014-06-30T13:31:41Z</time>
      </trkpt>
      <trkpt lat="40.572133" lon="-5.022067">
        <ele>1916.0</ele>
        <time>2014-06-30T13:31:42Z</time>
      </trkpt>
      <trkpt lat="40.572167" lon="-5.022067">
        <ele>1914.0</ele>
        <time>2014-06-30T13:31:43Z</time>
      </trkpt>
      <trkpt lat="40.572217" lon="-5.022050">
        <ele>1912.0</ele>
        <time>2014-06-30T13:31:44Z</time>
      </trkpt>
      <trkpt lat="40.572250" lon="-5.022033">
        <ele>1909.0</ele>
        <time>2014-06-30T13:31:45Z</time>
      </trkpt>
      <trkpt lat="40.572300" lon="-5.022017">
        <ele>1908.0</ele>
        <time>2014-06-30T13:31:46Z</time>
      </trkpt>
      <trkpt lat="40.572333" lon="-5.022017">
        <ele>1906.0</ele>
        <time>2014-06-30T13:31:47Z</time>
      </trkpt>
      <trkpt lat="40.572367" lon="-5.022017">
        <ele>1905.0</ele>
        <time>2014-06-30T13:31:48Z</time>
      </trkpt>
      <trkpt lat="40.572383" lon="-5.022050">
        <ele>1904.0</ele>
        <time>2014-06-30T13:31:49Z</time>
      </trkpt>
      <trkpt lat="40.572383" lon="-5.022067">
        <ele>1903.0</ele>
        <time>2014-06-30T13:31:50Z</time>
      </trkpt>
      <trkpt lat="40.572400" lon="-5.022100">
        <ele>1901.0</ele>
        <time>2014-06-30T13:31:51Z</time>
      </trkpt>
      <trkpt lat="40.572400" lon="-5.022117">
        <ele>1900.0</ele>
        <time>2014-06-30T13:31:52Z</time>
      </trkpt>
      <trkpt lat="40.572433" lon="-5.022150">
        <ele>1899.0</ele>
        <time>2014-06-30T13:31:53Z</time>
      </trkpt>
      <trkpt lat="40.572450" lon="-5.022167">
        <ele>1897.0</ele>
        <time>2014-06-30T13:31:54Z</time>
      </trkpt>
      <trkpt lat="40.572467" lon="-5.022183">
        <ele>1896.0</ele>
        <time>2014-06-30T13:31:55Z</time>
      </trkpt>
      <trkpt lat="40.572500" lon="-5.022200">
        <ele>1894.0</ele>
        <time>2014-06-30T13:31:56Z</time>
      </trkpt>
      <trkpt lat="40.572533" lon="-5.022200">
        <ele>1893.0</ele>
        <time>2014-06-30T13:31:57Z</time>
      </trkpt>
      <trkpt lat="40.572583" lon="-5.022200">
        <ele>1891.0</ele>
        <time>2014-06-30T13:31:58Z</time>
      </trkpt>
      <trkpt lat="40.572633" lon="-5.022183">
        <ele>1888.0</ele>
        <time>2014-06-30T13:31:59Z</time>
      </trkpt>
      <trkpt lat="40.572700" lon="-5.022167">
        <ele>1886.0</ele>
        <time>2014-06-30T13:32:00Z</time>
      </trkpt>
      <trkpt lat="40.572767" lon="-5.022117">
        <ele>1885.0</ele>
        <time>2014-06-30T13:32:01Z</time>
      </trkpt>
      <trkpt lat="40.572833" lon="-5.022050">
        <ele>1883.0</ele>
        <time>2014-06-30T13:32:02Z</time>
      </trkpt>
      <trkpt lat="40.572917" lon="-5.021967">
        <ele>1881.0</ele>
        <time>2014-06-30T13:32:03Z</time>
      </trkpt>
      <trkpt lat="40.572983" lon="-5.021900">
        <ele>1879.0</ele>
        <time>2014-06-30T13:32:04Z</time>
      </trkpt>
      <trkpt lat="40.573050" lon="-5.021833">
        <ele>1877.0</ele>
        <time>2014-06-30T13:32:05Z</time>
      </trkpt>
      <trkpt lat="40.573133" lon="-5.021750">
        <ele>1874.0</ele>
        <time>2014-06-30T13:32:06Z</time>
      </trkpt>
      <trkpt lat="40.573217" lon="-5.021650">
        <ele>1871.0</ele>
        <time>2014-06-30T13:32:07Z</time>
      </trkpt>
      <trkpt lat="40.573300" lon="-5.021550">
        <ele>1869.0</ele>
        <time>2014-06-30T13:32:08Z</time>
      </trkpt>
      <trkpt lat="40.573367" lon="-5.021433">
        <ele>1868.0</ele>
        <time>2014-06-30T13:32:09Z</time>
      </trkpt>
      <trkpt lat="40.573433" lon="-5.021317">
        <ele>1867.0</ele>
        <time>2014-06-30T13:32:10Z</time>
      </trkpt>
      <trkpt lat="40.573500" lon="-5.021217">
        <ele>1866.0</ele>
        <time>2014-06-30T13:32:11Z</time>
      </trkpt>
      <trkpt lat="40.573567" lon="-5.021117">
        <ele>1864.0</ele>
        <time>2014-06-30T13:32:12Z</time>
      </trkpt>
      <trkpt lat="40.573650" lon="-5.021033">
        <ele>1862.0</ele>
        <time>2014-06-30T13:32:13Z</time>
      </trkpt>
      <trkpt lat="40.573750" lon="-5.020950">
        <ele>1861.0</ele>
        <time>2014-06-30T13:32:14Z</time>
      </trkpt>
      <trkpt lat="40.573833" lon="-5.020883">
        <ele>1860.0</ele>
        <time>2014-06-30T13:32:15Z</time>
      </trkpt>
      <trkpt lat="40.573900" lon="-5.020817">
        <ele>1860.0</ele>
        <time>2014-06-30T13:32:16Z</time>
      </trkpt>
      <trkpt lat="40.573983" lon="-5.020750">
        <ele>1861.0</ele>
        <time>2014-06-30T13:32:17Z</time>
      </trkpt>
      <trkpt lat="40.574050" lon="-5.020700">
        <ele>1861.0</ele>
        <time>2014-06-30T13:32:18Z</time>
      </trkpt>
      <trkpt lat="40.574117" lon="-5.020650">
        <ele>1860.0</ele>
        <time>2014-06-30T13:32:19Z</time>
      </trkpt>
      <trkpt lat="40.574183" lon="-5.020617">
        <ele>1859.0</ele>
        <time>2014-06-30T13:32:20Z</time>
      </trkpt>
      <trkpt lat="40.574267" lon="-5.020567">
        <ele>1858.0</ele>
        <time>2014-06-30T13:32:21Z</time>
      </trkpt>
      <trkpt lat="40.574350" lon="-5.020500">
        <ele>1858.0</ele>
        <time>2014-06-30T13:32:22Z</time>
      </trkpt>
      <trkpt lat="40.574417" lon="-5.020417">
        <ele>1857.0</ele>
        <time>2014-06-30T13:32:23Z</time>
      </trkpt>
      <trkpt lat="40.574483" lon="-5.020350">
        <ele>1858.0</ele>
        <time>2014-06-30T13:32:24Z</time>
      </trkpt>
      <trkpt lat="40.574533" lon="-5.020283">
        <ele>1857.0</ele>
        <time>2014-06-30T13:32:25Z</time>
      </trkpt>
      <trkpt lat="40.574600" lon="-5.020200">
        <ele>1857.0</ele>
        <time>2014-06-30T13:32:26Z</time>
      </trkpt>
      <trkpt lat="40.574667" lon="-5.020133">
        <ele>1855.0</ele>
        <time>2014-06-30T13:32:27Z</time>
      </trkpt>
      <trkpt lat="40.574750" lon="-5.020067">
        <ele>1854.0</ele>
        <time>2014-06-30T13:32:28Z</time>
      </trkpt>
      <trkpt lat="40.574833" lon="-5.019983">
        <ele>1853.0</ele>
        <time>2014-06-30T13:32:29Z</time>
      </trkpt>
      <trkpt lat="40.574900" lon="-5.019900">
        <ele>1853.0</ele>
        <time>2014-06-30T13:32:30Z</time>
      </trkpt>
      <trkpt lat="40.574967" lon="-5.019833">
        <ele>1853.0</ele>
        <time>2014-06-30T13:32:31Z</time>
      </trkpt>
      <trkpt lat="40.575033" lon="-5.019767">
        <ele>1853.0</ele>
        <time>2014-06-30T13:32:32Z</time>
      </trkpt>
      <trkpt lat="40.575100" lon="-5.019683">
        <ele>1852.0</ele>
        <time>2014-06-30T13:32:33Z</time>
      </trkpt>
      <trkpt lat="40.575183" lon="-5.019600">
        <ele>1851.0</ele>
        <time>2014-06-30T13:32:34Z</time>
      </trkpt>
      <trkpt lat="40.575267" lon="-5.019517">
        <ele>1850.0</ele>
        <time>2014-06-30T13:32:35Z</time>
      </trkpt>
      <trkpt lat="40.575350" lon="-5.019417">
        <ele>1849.0</ele>
        <time>2014-06-30T13:32:36Z</time>
      </trkpt>
      <trkpt lat="40.575433" lon="-5.019333">
        <ele>1848.0</ele>
        <time>2014-06-30T13:32:37Z</time>
      </trkpt>
      <trkpt lat="40.575517" lon="-5.019250">
        <ele>1848.0</ele>
        <time>2014-06-30T13:32:38Z</time>
      </trkpt>
      <trkpt lat="40.575600" lon="-5.019150">
        <ele>1847.0</ele>
        <time>2014-06-30T13:32:39Z</time>
      </trkpt>
      <trkpt lat="40.575667" lon="-5.019067">
        <ele>1847.0</ele>
        <time>2014-06-30T13:32:40Z</time>
      </trkpt>
      <trkpt lat="40.575750" lon="-5.018967">
        <ele>1846.0</ele>
        <time>2014-06-30T13:32:41Z</time>
      </trkpt>
      <trkpt lat="40.575833" lon="-5.018867">
        <ele>1845.0</ele>
        <time>2014-06-30T13:32:42Z</time>
      </trkpt>
      <trkpt lat="40.575917" lon="-5.018767">
        <ele>1845.0</ele>
        <time>2014-06-30T13:32:43Z</time>
      </trkpt>
      <trkpt lat="40.575983" lon="-5.018683">
        <ele>1845.0</ele>
        <time>2014-06-30T13:32:44Z</time>
      </trkpt>
      <trkpt lat="40.576050" lon="-5.018583">
        <ele>1845.0</ele>
        <time>2014-06-30T13:32:45Z</time>
      </trkpt>
      <trkpt lat="40.576133" lon="-5.018483">
        <ele>1845.0</ele>
        <time>2014-06-30T13:32:46Z</time>
      </trkpt>
      <trkpt lat="40.576200" lon="-5.018400">
        <ele>1844.0</ele>
        <time>2014-06-30T13:32:47Z</time>
      </trkpt>
      <trkpt lat="40.576283" lon="-5.018317">
        <ele>1844.0</ele>
        <time>2014-06-30T13:32:48Z</time>
      </trkpt>
      <trkpt lat="40.576350" lon="-5.018250">
        <ele>1843.0</ele>
        <time>2014-06-30T13:32:49Z</time>
      </trkpt>
      <trkpt lat="40.576433" lon="-5.018183">
        <ele>1842.0</ele>
        <time>2014-06-30T13:32:50Z</time>
      </trkpt>
      <trkpt lat="40.576517" lon="-5.018117">
        <ele>1842.0</ele>
        <time>2014-06-30T13:32:51Z</time>
      </trkpt>
      <trkpt lat="40.576600" lon="-5.018033">
        <ele>1841.0</ele>
        <time>2014-06-30T13:32:52Z</time>
      </trkpt>
      <trkpt lat="40.576650" lon="-5.017967">
        <ele>1842.0</ele>
        <time>2014-06-30T13:32:53Z</time>
      </trkpt>
      <trkpt lat="40.576717" lon="-5.017900">
        <ele>1843.0</ele>
        <time>2014-06-30T13:32:54Z</time>
      </trkpt>
      <trkpt lat="40.576767" lon="-5.017817">
        <ele>1844.0</ele>
        <time>2014-06-30T13:32:55Z</time>
      </trkpt>
      <trkpt lat="40.576833" lon="-5.017750">
        <ele>1844.0</ele>
        <time>2014-06-30T13:32:56Z</time>
      </trkpt>
      <trkpt lat="40.576900" lon="-5.017683">
        <ele>1844.0</ele>
        <time>2014-06-30T13:32:57Z</time>
      </trkpt>
      <trkpt lat="40.576983" lon="-5.017617">
        <ele>1843.0</ele>
        <time>2014-06-30T13:32:58Z</time>
      </trkpt>
      <trkpt lat="40.577067" lon="-5.017550">
        <ele>1842.0</ele>
        <time>2014-06-30T13:32:59Z</time>
      </trkpt>
      <trkpt lat="40.577150" lon="-5.017483">
        <ele>1841.0</ele>
        <time>2014-06-30T13:33:00Z</time>
      </trkpt>
      <trkpt lat="40.577233" lon="-5.017417">
        <ele>1840.0</ele>
        <time>2014-06-30T13:33:01Z</time>
      </trkpt>
      <trkpt lat="40.577300" lon="-5.017350">
        <ele>1840.0</ele>
        <time>2014-06-30T13:33:02Z</time>
      </trkpt>
      <trkpt lat="40.577367" lon="-5.017317">
        <ele>1841.0</ele>
        <time>2014-06-30T13:33:03Z</time>
      </trkpt>
      <trkpt lat="40.577433" lon="-5.017267">
        <ele>1842.0</ele>
        <time>2014-06-30T13:33:04Z</time>
      </trkpt>
      <trkpt lat="40.577500" lon="-5.017233">
        <ele>1842.0</ele>
        <time>2014-06-30T13:33:05Z</time>
      </trkpt>
      <trkpt lat="40.577567" lon="-5.017217">
        <ele>1842.0</ele>
        <time>2014-06-30T13:33:06Z</time>
      </trkpt>
      <trkpt lat="40.577633" lon="-5.017200">
        <ele>1842.0</ele>
        <time>2014-06-30T13:33:07Z</time>
      </trkpt>
      <trkpt lat="40.577700" lon="-5.017183">
        <ele>1842.0</ele>
        <time>2014-06-30T13:33:08Z</time>
      </trkpt>
      <trkpt lat="40.577750" lon="-5.017183">
        <ele>1842.0</ele>
        <time>2014-06-30T13:33:09Z</time>
      </trkpt>
      <trkpt lat="40.577817" lon="-5.017183">
        <ele>1842.0</ele>
        <time>2014-06-30T13:33:10Z</time>
      </trkpt>
      <trkpt lat="40.577883" lon="-5.017183">
        <ele>1842.0</ele>
        <time>2014-06-30T13:33:11Z</time>
      </trkpt>
      <trkpt lat="40.577967" lon="-5.017167">
        <ele>1842.0</ele>
        <time>2014-06-30T13:33:12Z</time>
      </trkpt>
      <trkpt lat="40.578050" lon="-5.017150">
        <ele>1842.0</ele>
        <time>2014-06-30T13:33:13Z</time>
      </trkpt>
      <trkpt lat="40.578133" lon="-5.017117">
        <ele>1842.0</ele>
        <time>2014-06-30T13:33:14Z</time>
      </trkpt>
      <trkpt lat="40.578200" lon="-5.017067">
        <ele>1842.0</ele>
        <time>2014-06-30T13:33:15Z</time>
      </trkpt>
      <trkpt lat="40.578283" lon="-5.017017">
        <ele>1841.0</ele>
        <time>2014-06-30T13:33:16Z</time>
      </trkpt>
      <trkpt lat="40.578367" lon="-5.016967">
        <ele>1841.0</ele>
        <time>2014-06-30T13:33:17Z</time>
      </trkpt>
      <trkpt lat="40.578433" lon="-5.016933">
        <ele>1840.0</ele>
        <time>2014-06-30T13:33:18Z</time>
      </trkpt>
      <trkpt lat="40.578517" lon="-5.016900">
        <ele>1838.0</ele>
        <time>2014-06-30T13:33:19Z</time>
      </trkpt>
      <trkpt lat="40.578600" lon="-5.016883">
        <ele>1837.0</ele>
        <time>2014-06-30T13:33:20Z</time>
      </trkpt>
      <trkpt lat="40.578683" lon="-5.016850">
        <ele>1835.0</ele>
        <time>2014-06-30T13:33:21Z</time>
      </trkpt>
      <trkpt lat="40.578767" lon="-5.016800">
        <ele>1834.0</ele>
        <time>2014-06-30T13:33:22Z</time>
      </trkpt>
      <trkpt lat="40.578850" lon="-5.016750">
        <ele>1834.0</ele>
        <time>2014-06-30T13:33:23Z</time>
      </trkpt>
      <trkpt lat="40.578917" lon="-5.016700">
        <ele>1833.0</ele>
        <time>2014-06-30T13:33:24Z</time>
      </trkpt>
      <trkpt lat="40.579000" lon="-5.016633">
        <ele>1833.0</ele>
        <time>2014-06-30T13:33:25Z</time>
      </trkpt>
      <trkpt lat="40.579083" lon="-5.016583">
        <ele>1834.0</ele>
        <time>2014-06-30T13:33:26Z</time>
      </trkpt>
      <trkpt lat="40.579150" lon="-5.016550">
        <ele>1836.0</ele>
        <time>2014-06-30T13:33:27Z</time>
      </trkpt>
      <trkpt lat="40.579217" lon="-5.016500">
        <ele>1837.0</ele>
        <time>2014-06-30T13:33:28Z</time>
      </trkpt>
      <trkpt lat="40.579300" lon="-5.016467">
        <ele>1837.0</ele>
        <time>2014-06-30T13:33:29Z</time>
      </trkpt>
      <trkpt lat="40.579367" lon="-5.016417">
        <ele>1836.0</ele>
        <time>2014-06-30T13:33:30Z</time>
      </trkpt>
      <trkpt lat="40.579450" lon="-5.016367">
        <ele>1836.0</ele>
        <time>2014-06-30T13:33:31Z</time>
      </trkpt>
      <trkpt lat="40.579533" lon="-5.016317">
        <ele>1836.0</ele>
        <time>2014-06-30T13:33:32Z</time>
      </trkpt>
      <trkpt lat="40.579617" lon="-5.016267">
        <ele>1836.0</ele>
        <time>2014-06-30T13:33:33Z</time>
      </trkpt>
      <trkpt lat="40.579700" lon="-5.016217">
        <ele>1837.0</ele>
        <time>2014-06-30T13:33:34Z</time>
      </trkpt>
      <trkpt lat="40.579783" lon="-5.016150">
        <ele>1838.0</ele>
        <time>2014-06-30T13:33:35Z</time>
      </trkpt>
      <trkpt lat="40.579850" lon="-5.016083">
        <ele>1839.0</ele>
        <time>2014-06-30T13:33:36Z</time>
      </trkpt>
      <trkpt lat="40.579933" lon="-5.016000">
        <ele>1838.0</ele>
        <time>2014-06-30T13:33:37Z</time>
      </trkpt>
      <trkpt lat="40.580033" lon="-5.015917">
        <ele>1837.0</ele>
        <time>2014-06-30T13:33:38Z</time>
      </trkpt>
      <trkpt lat="40.580133" lon="-5.015850">
        <ele>1836.0</ele>
        <time>2014-06-30T13:33:39Z</time>
      </trkpt>
      <trkpt lat="40.580233" lon="-5.015767">
        <ele>1834.0</ele>
        <time>2014-06-30T13:33:40Z</time>
      </trkpt>
      <trkpt lat="40.580333" lon="-5.015717">
        <ele>1834.0</ele>
        <time>2014-06-30T13:33:41Z</time>
      </trkpt>
      <trkpt lat="40.580433" lon="-5.015667">
        <ele>1834.0</ele>
        <time>2014-06-30T13:33:42Z</time>
      </trkpt>
      <trkpt lat="40.580517" lon="-5.015633">
        <ele>1833.0</ele>
        <time>2014-06-30T13:33:43Z</time>
      </trkpt>
      <trkpt lat="40.580600" lon="-5.015583">
        <ele>1832.0</ele>
        <time>2014-06-30T13:33:44Z</time>
      </trkpt>
      <trkpt lat="40.580667" lon="-5.015550">
        <ele>1830.0</ele>
        <time>2014-06-30T13:33:45Z</time>
      </trkpt>
      <trkpt lat="40.580767" lon="-5.015500">
        <ele>1828.0</ele>
        <time>2014-06-30T13:33:46Z</time>
      </trkpt>
      <trkpt lat="40.580850" lon="-5.015467">
        <ele>1825.0</ele>
        <time>2014-06-30T13:33:47Z</time>
      </trkpt>
      <trkpt lat="40.580950" lon="-5.015417">
        <ele>1823.0</ele>
        <time>2014-06-30T13:33:48Z</time>
      </trkpt>
      <trkpt lat="40.581033" lon="-5.015350">
        <ele>1821.0</ele>
        <time>2014-06-30T13:33:49Z</time>
      </trkpt>
      <trkpt lat="40.581117" lon="-5.015267">
        <ele>1820.0</ele>
        <time>2014-06-30T13:33:50Z</time>
      </trkpt>
      <trkpt lat="40.581200" lon="-5.015150">
        <ele>1818.0</ele>
        <time>2014-06-30T13:33:51Z</time>
      </trkpt>
      <trkpt lat="40.581283" lon="-5.014983">
        <ele>1815.0</ele>
        <time>2014-06-30T13:33:52Z</time>
      </trkpt>
      <trkpt lat="40.581350" lon="-5.014800">
        <ele>1813.0</ele>
        <time>2014-06-30T13:33:53Z</time>
      </trkpt>
      <trkpt lat="40.581383" lon="-5.014617">
        <ele>1811.0</ele>
        <time>2014-06-30T13:33:54Z</time>
      </trkpt>
      <trkpt lat="40.581383" lon="-5.014417">
        <ele>1809.0</ele>
        <time>2014-06-30T13:33:55Z</time>
      </trkpt>
      <trkpt lat="40.581367" lon="-5.014233">
        <ele>1806.0</ele>
        <time>2014-06-30T13:33:56Z</time>
      </trkpt>
      <trkpt lat="40.581333" lon="-5.014033">
        <ele>1803.0</ele>
        <time>2014-06-30T13:33:57Z</time>
      </trkpt>
      <trkpt lat="40.581300" lon="-5.013850">
        <ele>1800.0</ele>
        <time>2014-06-30T13:33:58Z</time>
      </trkpt>
      <trkpt lat="40.581250" lon="-5.013667">
        <ele>1797.0</ele>
        <time>2014-06-30T13:33:59Z</time>
      </trkpt>
      <trkpt lat="40.581200" lon="-5.013483">
        <ele>1794.0</ele>
        <time>2014-06-30T13:34:00Z</time>
      </trkpt>
      <trkpt lat="40.581133" lon="-5.013300">
        <ele>1790.0</ele>
        <time>2014-06-30T13:34:01Z</time>
      </trkpt>
      <trkpt lat="40.581083" lon="-5.013133">
        <ele>1787.0</ele>
        <time>2014-06-30T13:34:02Z</time>
      </trkpt>
      <trkpt lat="40.581017" lon="-5.012967">
        <ele>1785.0</ele>
        <time>2014-06-30T13:34:03Z</time>
      </trkpt>
      <trkpt lat="40.580950" lon="-5.012800">
        <ele>1782.0</ele>
        <time>2014-06-30T13:34:04Z</time>
      </trkpt>
      <trkpt lat="40.580900" lon="-5.012633">
        <ele>1780.0</ele>
        <time>2014-06-30T13:34:05Z</time>
      </trkpt>
      <trkpt lat="40.580850" lon="-5.012450">
        <ele>1777.0</ele>
        <time>2014-06-30T13:34:06Z</time>
      </trkpt>
      <trkpt lat="40.580817" lon="-5.012250">
        <ele>1774.0</ele>
        <time>2014-06-30T13:34:07Z</time>
      </trkpt>
      <trkpt lat="40.580767" lon="-5.012067">
        <ele>1771.0</ele>
        <time>2014-06-30T13:34:08Z</time>
      </trkpt>
      <trkpt lat="40.580733" lon="-5.011867">
        <ele>1769.0</ele>
        <time>2014-06-30T13:34:09Z</time>
      </trkpt>
      <trkpt lat="40.580700" lon="-5.011667">
        <ele>1767.0</ele>
        <time>2014-06-30T13:34:10Z</time>
      </trkpt>
      <trkpt lat="40.580667" lon="-5.011483">
        <ele>1766.0</ele>
        <time>2014-06-30T13:34:11Z</time>
      </trkpt>
      <trkpt lat="40.580617" lon="-5.011300">
        <ele>1765.0</ele>
        <time>2014-06-30T13:34:12Z</time>
      </trkpt>
      <trkpt lat="40.580583" lon="-5.011133">
        <ele>1765.0</ele>
        <time>2014-06-30T13:34:13Z</time>
      </trkpt>
      <trkpt lat="40.580550" lon="-5.010967">
        <ele>1765.0</ele>
        <time>2014-06-30T13:34:14Z</time>
      </trkpt>
      <trkpt lat="40.580517" lon="-5.010783">
        <ele>1764.0</ele>
        <time>2014-06-30T13:34:15Z</time>
      </trkpt>
      <trkpt lat="40.580483" lon="-5.010583">
        <ele>1763.0</ele>
        <time>2014-06-30T13:34:16Z</time>
      </trkpt>
      <trkpt lat="40.580433" lon="-5.010383">
        <ele>1762.0</ele>
        <time>2014-06-30T13:34:17Z</time>
      </trkpt>
      <trkpt lat="40.580383" lon="-5.010200">
        <ele>1762.0</ele>
        <time>2014-06-30T13:34:18Z</time>
      </trkpt>
      <trkpt lat="40.580333" lon="-5.010017">
        <ele>1764.0</ele>
        <time>2014-06-30T13:34:19Z</time>
      </trkpt>
      <trkpt lat="40.580283" lon="-5.009867">
        <ele>1765.0</ele>
        <time>2014-06-30T13:34:20Z</time>
      </trkpt>
      <trkpt lat="40.580233" lon="-5.009717">
        <ele>1765.0</ele>
        <time>2014-06-30T13:34:21Z</time>
      </trkpt>
      <trkpt lat="40.580183" lon="-5.009533">
        <ele>1764.0</ele>
        <time>2014-06-30T13:34:22Z</time>
      </trkpt>
      <trkpt lat="40.580133" lon="-5.009367">
        <ele>1763.0</ele>
        <time>2014-06-30T13:34:23Z</time>
      </trkpt>
      <trkpt lat="40.580083" lon="-5.009183">
        <ele>1762.0</ele>
        <time>2014-06-30T13:34:24Z</time>
      </trkpt>
      <trkpt lat="40.580050" lon="-5.009017">
        <ele>1762.0</ele>
        <time>2014-06-30T13:34:25Z</time>
      </trkpt>
      <trkpt lat="40.580000" lon="-5.008833">
        <ele>1761.0</ele>
        <time>2014-06-30T13:34:26Z</time>
      </trkpt>
      <trkpt lat="40.579967" lon="-5.008667">
        <ele>1761.0</ele>
        <time>2014-06-30T13:34:27Z</time>
      </trkpt>
      <trkpt lat="40.579933" lon="-5.008500">
        <ele>1760.0</ele>
        <time>2014-06-30T13:34:28Z</time>
      </trkpt>
      <trkpt lat="40.579900" lon="-5.008333">
        <ele>1760.0</ele>
        <time>2014-06-30T13:34:29Z</time>
      </trkpt>
      <trkpt lat="40.579850" lon="-5.008183">
        <ele>1759.0</ele>
        <time>2014-06-30T13:34:30Z</time>
      </trkpt>
      <trkpt lat="40.579800" lon="-5.008033">
        <ele>1758.0</ele>
        <time>2014-06-30T13:34:31Z</time>
      </trkpt>
      <trkpt lat="40.579733" lon="-5.007883">
        <ele>1756.0</ele>
        <time>2014-06-30T13:34:32Z</time>
      </trkpt>
      <trkpt lat="40.579683" lon="-5.007733">
        <ele>1755.0</ele>
        <time>2014-06-30T13:34:33Z</time>
      </trkpt>
      <trkpt lat="40.579633" lon="-5.007583">
        <ele>1754.0</ele>
        <time>2014-06-30T13:34:34Z</time>
      </trkpt>
      <trkpt lat="40.579567" lon="-5.007417">
        <ele>1753.0</ele>
        <time>2014-06-30T13:34:35Z</time>
      </trkpt>
      <trkpt lat="40.579517" lon="-5.007267">
        <ele>1752.0</ele>
        <time>2014-06-30T13:34:36Z</time>
      </trkpt>
      <trkpt lat="40.579450" lon="-5.007117">
        <ele>1751.0</ele>
        <time>2014-06-30T13:34:37Z</time>
      </trkpt>
      <trkpt lat="40.579400" lon="-5.006967">
        <ele>1749.0</ele>
        <time>2014-06-30T13:34:38Z</time>
      </trkpt>
      <trkpt lat="40.579333" lon="-5.006800">
        <ele>1747.0</ele>
        <time>2014-06-30T13:34:39Z</time>
      </trkpt>
      <trkpt lat="40.579283" lon="-5.006617">
        <ele>1745.0</ele>
        <time>2014-06-30T13:34:40Z</time>
      </trkpt>
      <trkpt lat="40.579250" lon="-5.006433">
        <ele>1742.0</ele>
        <time>2014-06-30T13:34:41Z</time>
      </trkpt>
      <trkpt lat="40.579200" lon="-5.006267">
        <ele>1740.0</ele>
        <time>2014-06-30T13:34:42Z</time>
      </trkpt>
      <trkpt lat="40.579150" lon="-5.006117">
        <ele>1739.0</ele>
        <time>2014-06-30T13:34:43Z</time>
      </trkpt>
      <trkpt lat="40.579100" lon="-5.005950">
        <ele>1738.0</ele>
        <time>2014-06-30T13:34:44Z</time>
      </trkpt>
      <trkpt lat="40.579050" lon="-5.005783">
        <ele>1736.0</ele>
        <time>2014-06-30T13:34:45Z</time>
      </trkpt>
      <trkpt lat="40.579017" lon="-5.005600">
        <ele>1734.0</ele>
        <time>2014-06-30T13:34:46Z</time>
      </trkpt>
      <trkpt lat="40.579000" lon="-5.005400">
        <ele>1732.0</ele>
        <time>2014-06-30T13:34:47Z</time>
      </trkpt>
      <trkpt lat="40.578983" lon="-5.005217">
        <ele>1731.0</ele>
        <time>2014-06-30T13:34:48Z</time>
      </trkpt>
      <trkpt lat="40.578967" lon="-5.005033">
        <ele>1730.0</ele>
        <time>2014-06-30T13:34:49Z</time>
      </trkpt>
      <trkpt lat="40.578950" lon="-5.004833">
        <ele>1729.0</ele>
        <time>2014-06-30T13:34:50Z</time>
      </trkpt>
      <trkpt lat="40.578933" lon="-5.004650">
        <ele>1729.0</ele>
        <time>2014-06-30T13:34:51Z</time>
      </trkpt>
      <trkpt lat="40.578917" lon="-5.004467">
        <ele>1729.0</ele>
        <time>2014-06-30T13:34:52Z</time>
      </trkpt>
      <trkpt lat="40.578900" lon="-5.004283">
        <ele>1729.0</ele>
        <time>2014-06-30T13:34:53Z</time>
      </trkpt>
      <trkpt lat="40.578867" lon="-5.004100">
        <ele>1729.0</ele>
        <time>2014-06-30T13:34:54Z</time>
      </trkpt>
      <trkpt lat="40.578833" lon="-5.003933">
        <ele>1731.0</ele>
        <time>2014-06-30T13:34:55Z</time>
      </trkpt>
      <trkpt lat="40.578800" lon="-5.003767">
        <ele>1732.0</ele>
        <time>2014-06-30T13:34:56Z</time>
      </trkpt>
      <trkpt lat="40.578767" lon="-5.003617">
        <ele>1732.0</ele>
        <time>2014-06-30T13:34:57Z</time>
      </trkpt>
      <trkpt lat="40.578717" lon="-5.003450">
        <ele>1732.0</ele>
        <time>2014-06-30T13:34:58Z</time>
      </trkpt>
      <trkpt lat="40.578683" lon="-5.003283">
        <ele>1732.0</ele>
        <time>2014-06-30T13:34:59Z</time>
      </trkpt>
      <trkpt lat="40.578633" lon="-5.003117">
        <ele>1733.0</ele>
        <time>2014-06-30T13:35:00Z</time>
      </trkpt>
      <trkpt lat="40.578600" lon="-5.002983">
        <ele>1736.0</ele>
        <time>2014-06-30T13:35:01Z</time>
      </trkpt>
      <trkpt lat="40.578567" lon="-5.002850">
        <ele>1738.0</ele>
        <time>2014-06-30T13:35:02Z</time>
      </trkpt>
      <trkpt lat="40.578550" lon="-5.002717">
        <ele>1738.0</ele>
        <time>2014-06-30T13:35:03Z</time>
      </trkpt>
      <trkpt lat="40.578517" lon="-5.002567">
        <ele>1739.0</ele>
        <time>2014-06-30T13:35:04Z</time>
      </trkpt>
      <trkpt lat="40.578500" lon="-5.002400">
        <ele>1739.0</ele>
        <time>2014-06-30T13:35:05Z</time>
      </trkpt>
      <trkpt lat="40.578483" lon="-5.002217">
        <ele>1739.0</ele>
        <time>2014-06-30T13:35:06Z</time>
      </trkpt>
      <trkpt lat="40.578450" lon="-5.002050">
        <ele>1738.0</ele>
        <time>2014-06-30T13:35:07Z</time>
      </trkpt>
      <trkpt lat="40.578433" lon="-5.001867">
        <ele>1738.0</ele>
        <time>2014-06-30T13:35:08Z</time>
      </trkpt>
      <trkpt lat="40.578400" lon="-5.001717">
        <ele>1738.0</ele>
        <time>2014-06-30T13:35:09Z</time>
      </trkpt>
      <trkpt lat="40.578383" lon="-5.001550">
        <ele>1739.0</ele>
        <time>2014-06-30T13:35:10Z</time>
      </trkpt>
      <trkpt lat="40.578367" lon="-5.001383">
        <ele>1740.0</ele>
        <time>2014-06-30T13:35:11Z</time>
      </trkpt>
      <trkpt lat="40.578367" lon="-5.001217">
        <ele>1739.0</ele>
        <time>2014-06-30T13:35:12Z</time>
      </trkpt>
      <trkpt lat="40.578333" lon="-5.001033">
        <ele>1737.0</ele>
        <time>2014-06-30T13:35:13Z</time>
      </trkpt>
      <trkpt lat="40.578300" lon="-5.000867">
        <ele>1735.0</ele>
        <time>2014-06-30T13:35:14Z</time>
      </trkpt>
      <trkpt lat="40.578267" lon="-5.000717">
        <ele>1734.0</ele>
        <time>2014-06-30T13:35:15Z</time>
      </trkpt>
      <trkpt lat="40.578233" lon="-5.000567">
        <ele>1735.0</ele>
        <time>2014-06-30T13:35:16Z</time>
      </trkpt>
      <trkpt lat="40.578217" lon="-5.000433">
        <ele>1734.0</ele>
        <time>2014-06-30T13:35:17Z</time>
      </trkpt>
      <trkpt lat="40.578200" lon="-5.000300">
        <ele>1734.0</ele>
        <time>2014-06-30T13:35:18Z</time>
      </trkpt>
      <trkpt lat="40.578183" lon="-5.000183">
        <ele>1732.0</ele>
        <time>2014-06-30T13:35:19Z</time>
      </trkpt>
      <trkpt lat="40.578167" lon="-5.000050">
        <ele>1731.0</ele>
        <time>2014-06-30T13:35:20Z</time>
      </trkpt>
      <trkpt lat="40.578133" lon="-4.999900">
        <ele>1728.0</ele>
        <time>2014-06-30T13:35:21Z</time>
      </trkpt>
      <trkpt lat="40.578100" lon="-4.999750">
        <ele>1725.0</ele>
        <time>2014-06-30T13:35:22Z</time>
      </trkpt>
      <trkpt lat="40.578067" lon="-4.999583">
        <ele>1722.0</ele>
        <time>2014-06-30T13:35:23Z</time>
      </trkpt>
      <trkpt lat="40.578050" lon="-4.999417">
        <ele>1719.0</ele>
        <time>2014-06-30T13:35:24Z</time>
      </trkpt>
      <trkpt lat="40.578017" lon="-4.999233">
        <ele>1716.0</ele>
        <time>2014-06-30T13:35:25Z</time>
      </trkpt>
      <trkpt lat="40.578000" lon="-4.999067">
        <ele>1713.0</ele>
        <time>2014-06-30T13:35:26Z</time>
      </trkpt>
      <trkpt lat="40.577967" lon="-4.998917">
        <ele>1712.0</ele>
        <time>2014-06-30T13:35:27Z</time>
      </trkpt>
      <trkpt lat="40.577933" lon="-4.998767">
        <ele>1711.0</ele>
        <time>2014-06-30T13:35:28Z</time>
      </trkpt>
      <trkpt lat="40.577883" lon="-4.998600">
        <ele>1708.0</ele>
        <time>2014-06-30T13:35:29Z</time>
      </trkpt>
      <trkpt lat="40.577833" lon="-4.998417">
        <ele>1706.0</ele>
        <time>2014-06-30T13:35:30Z</time>
      </trkpt>
      <trkpt lat="40.577783" lon="-4.998233">
        <ele>1703.0</ele>
        <time>2014-06-30T13:35:31Z</time>
      </trkpt>
      <trkpt lat="40.577750" lon="-4.998050">
        <ele>1701.0</ele>
        <time>2014-06-30T13:35:32Z</time>
      </trkpt>
      <trkpt lat="40.577733" lon="-4.997850">
        <ele>1700.0</ele>
        <time>2014-06-30T13:35:33Z</time>
      </trkpt>
      <trkpt lat="40.577700" lon="-4.997683">
        <ele>1698.0</ele>
        <time>2014-06-30T13:35:34Z</time>
      </trkpt>
      <trkpt lat="40.577683" lon="-4.997483">
        <ele>1697.0</ele>
        <time>2014-06-30T13:35:35Z</time>
      </trkpt>
      <trkpt lat="40.577683" lon="-4.997300">
        <ele>1695.0</ele>
        <time>2014-06-30T13:35:36Z</time>
      </trkpt>
      <trkpt lat="40.577667" lon="-4.997083">
        <ele>1692.0</ele>
        <time>2014-06-30T13:35:37Z</time>
      </trkpt>
      <trkpt lat="40.577667" lon="-4.996883">
        <ele>1689.0</ele>
        <time>2014-06-30T13:35:38Z</time>
      </trkpt>
      <trkpt lat="40.577650" lon="-4.996700">
        <ele>1688.0</ele>
        <time>2014-06-30T13:35:39Z</time>
      </trkpt>
      <trkpt lat="40.577650" lon="-4.996517">
        <ele>1687.0</ele>
        <time>2014-06-30T13:35:40Z</time>
      </trkpt>
      <trkpt lat="40.577650" lon="-4.996350">
        <ele>1687.0</ele>
        <time>2014-06-30T13:35:41Z</time>
      </trkpt>
      <trkpt lat="40.577650" lon="-4.996183">
        <ele>1687.0</ele>
        <time>2014-06-30T13:35:42Z</time>
      </trkpt>
      <trkpt lat="40.577667" lon="-4.996017">
        <ele>1686.0</ele>
        <time>2014-06-30T13:35:43Z</time>
      </trkpt>
      <trkpt lat="40.577667" lon="-4.995850">
        <ele>1685.0</ele>
        <time>2014-06-30T13:35:44Z</time>
      </trkpt>
      <trkpt lat="40.577667" lon="-4.995667">
        <ele>1684.0</ele>
        <time>2014-06-30T13:35:45Z</time>
      </trkpt>
      <trkpt lat="40.577667" lon="-4.995500">
        <ele>1683.0</ele>
        <time>2014-06-30T13:35:46Z</time>
      </trkpt>
      <trkpt lat="40.577667" lon="-4.995350">
        <ele>1682.0</ele>
        <time>2014-06-30T13:35:47Z</time>
      </trkpt>
      <trkpt lat="40.577667" lon="-4.995200">
        <ele>1681.0</ele>
        <time>2014-06-30T13:35:48Z</time>
      </trkpt>
      <trkpt lat="40.577667" lon="-4.995050">
        <ele>1681.0</ele>
        <time>2014-06-30T13:35:49Z</time>
      </trkpt>
      <trkpt lat="40.577667" lon="-4.994900">
        <ele>1680.0</ele>
        <time>2014-06-30T13:35:50Z</time>
      </trkpt>
      <trkpt lat="40.577650" lon="-4.994733">
        <ele>1678.0</ele>
        <time>2014-06-30T13:35:51Z</time>
      </trkpt>
      <trkpt lat="40.577633" lon="-4.994567">
        <ele>1675.0</ele>
        <time>2014-06-30T13:35:52Z</time>
      </trkpt>
      <trkpt lat="40.577600" lon="-4.994400">
        <ele>1673.0</ele>
        <time>2014-06-30T13:35:53Z</time>
      </trkpt>
      <trkpt lat="40.577583" lon="-4.994217">
        <ele>1671.0</ele>
        <time>2014-06-30T13:35:54Z</time>
      </trkpt>
      <trkpt lat="40.577567" lon="-4.994067">
        <ele>1671.0</ele>
        <time>2014-06-30T13:35:55Z</time>
      </trkpt>
      <trkpt lat="40.577567" lon="-4.993900">
        <ele>1671.0</ele>
        <time>2014-06-30T13:35:56Z</time>
      </trkpt>
      <trkpt lat="40.577567" lon="-4.993733">
        <ele>1670.0</ele>
        <time>2014-06-30T13:35:57Z</time>
      </trkpt>
      <trkpt lat="40.577550" lon="-4.993583">
        <ele>1669.0</ele>
        <time>2014-06-30T13:35:58Z</time>
      </trkpt>
      <trkpt lat="40.577533" lon="-4.993400">
        <ele>1667.0</ele>
        <time>2014-06-30T13:35:59Z</time>
      </trkpt>
      <trkpt lat="40.577517" lon="-4.993217">
        <ele>1666.0</ele>
        <time>2014-06-30T13:36:00Z</time>
      </trkpt>
      <trkpt lat="40.577500" lon="-4.993017">
        <ele>1666.0</ele>
        <time>2014-06-30T13:36:01Z</time>
      </trkpt>
      <trkpt lat="40.577500" lon="-4.992850">
        <ele>1666.0</ele>
        <time>2014-06-30T13:36:02Z</time>
      </trkpt>
      <trkpt lat="40.577500" lon="-4.992667">
        <ele>1666.0</ele>
        <time>2014-06-30T13:36:03Z</time>
      </trkpt>
      <trkpt lat="40.577500" lon="-4.992483">
        <ele>1667.0</ele>
        <time>2014-06-30T13:36:04Z</time>
      </trkpt>
      <trkpt lat="40.577500" lon="-4.992333">
        <ele>1671.0</ele>
        <time>2014-06-30T13:36:05Z</time>
      </trkpt>
      <trkpt lat="40.577483" lon="-4.992183">
        <ele>1673.0</ele>
        <time>2014-06-30T13:36:06Z</time>
      </trkpt>
      <trkpt lat="40.577467" lon="-4.992033">
        <ele>1675.0</ele>
        <time>2014-06-30T13:36:07Z</time>
      </trkpt>
      <trkpt lat="40.577450" lon="-4.991883">
        <ele>1679.0</ele>
        <time>2014-06-30T13:36:08Z</time>
      </trkpt>
      <trkpt lat="40.577417" lon="-4.991767">
        <ele>1682.0</ele>
        <time>2014-06-30T13:36:09Z</time>
      </trkpt>
      <trkpt lat="40.577367" lon="-4.991633">
        <ele>1684.0</ele>
        <time>2014-06-30T13:36:10Z</time>
      </trkpt>
      <trkpt lat="40.577300" lon="-4.991500">
        <ele>1685.0</ele>
        <time>2014-06-30T13:36:11Z</time>
      </trkpt>
      <trkpt lat="40.577217" lon="-4.991367">
        <ele>1686.0</ele>
        <time>2014-06-30T13:36:12Z</time>
      </trkpt>
      <trkpt lat="40.577117" lon="-4.991267">
        <ele>1687.0</ele>
        <time>2014-06-30T13:36:13Z</time>
      </trkpt>
      <trkpt lat="40.577017" lon="-4.991217">
        <ele>1689.0</ele>
        <time>2014-06-30T13:36:14Z</time>
      </trkpt>
      <trkpt lat="40.576917" lon="-4.991183">
        <ele>1691.0</ele>
        <time>2014-06-30T13:36:15Z</time>
      </trkpt>
      <trkpt lat="40.576850" lon="-4.991183">
        <ele>1692.0</ele>
        <time>2014-06-30T13:36:16Z</time>
      </trkpt>
      <trkpt lat="40.576783" lon="-4.991183">
        <ele>1694.0</ele>
        <time>2014-06-30T13:36:17Z</time>
      </trkpt>
      <trkpt lat="40.576733" lon="-4.991183">
        <ele>1695.0</ele>
        <time>2014-06-30T13:36:18Z</time>
      </trkpt>
      <trkpt lat="40.576683" lon="-4.991200">
        <ele>1695.0</ele>
        <time>2014-06-30T13:36:19Z</time>
      </trkpt>
      <trkpt lat="40.576617" lon="-4.991217">
        <ele>1693.0</ele>
        <time>2014-06-30T13:36:20Z</time>
      </trkpt>
      <trkpt lat="40.576567" lon="-4.991233">
        <ele>1693.0</ele>
        <time>2014-06-30T13:36:21Z</time>
      </trkpt>
      <trkpt lat="40.576533" lon="-4.991250">
        <ele>1693.0</ele>
        <time>2014-06-30T13:36:22Z</time>
      </trkpt>
      <trkpt lat="40.576517" lon="-4.991233">
        <ele>1693.0</ele>
        <time>2014-06-30T13:36:23Z</time>
      </trkpt>
      <trkpt lat="40.576533" lon="-4.991233">
        <ele>1692.0</ele>
        <time>2014-06-30T13:36:24Z</time>
      </trkpt>
      <trkpt lat="40.576583" lon="-4.991217">
        <ele>1692.0</ele>
        <time>2014-06-30T13:36:25Z</time>
      </trkpt>
      <trkpt lat="40.576650" lon="-4.991217">
        <ele>1691.0</ele>
        <time>2014-06-30T13:36:26Z</time>
      </trkpt>
      <trkpt lat="40.576700" lon="-4.991200">
        <ele>1690.0</ele>
        <time>2014-06-30T13:36:27Z</time>
      </trkpt>
      <trkpt lat="40.576733" lon="-4.991200">
        <ele>1689.0</ele>
        <time>2014-06-30T13:36:28Z</time>
      </trkpt>
      <trkpt lat="40.576767" lon="-4.991167">
        <ele>1690.0</ele>
        <time>2014-06-30T13:36:29Z</time>
      </trkpt>
      <trkpt lat="40.576800" lon="-4.991133">
        <ele>1692.0</ele>
        <time>2014-06-30T13:36:30Z</time>
      </trkpt>
      <trkpt lat="40.576850" lon="-4.991100">
        <ele>1693.0</ele>
        <time>2014-06-30T13:36:31Z</time>
      </trkpt>
      <trkpt lat="40.576900" lon="-4.991083">
        <ele>1694.0</ele>
        <time>2014-06-30T13:36:32Z</time>
      </trkpt>
      <trkpt lat="40.576967" lon="-4.991083">
        <ele>1695.0</ele>
        <time>2014-06-30T13:36:33Z</time>
      </trkpt>
      <trkpt lat="40.577017" lon="-4.991083">
        <ele>1694.0</ele>
        <time>2014-06-30T13:36:34Z</time>
      </trkpt>
      <trkpt lat="40.577100" lon="-4.991083">
        <ele>1694.0</ele>
        <time>2014-06-30T13:36:35Z</time>
      </trkpt>
      <trkpt lat="40.577183" lon="-4.991067">
        <ele>1694.0</ele>
        <time>2014-06-30T13:36:36Z</time>
      </trkpt>
      <trkpt lat="40.577283" lon="-4.991033">
        <ele>1694.0</ele>
        <time>2014-06-30T13:36:37Z</time>
      </trkpt>
      <trkpt lat="40.577400" lon="-4.991000">
        <ele>1694.0</ele>
        <time>2014-06-30T13:36:38Z</time>
      </trkpt>
      <trkpt lat="40.577517" lon="-4.990967">
        <ele>1697.0</ele>
        <time>2014-06-30T13:36:39Z</time>
      </trkpt>
      <trkpt lat="40.577617" lon="-4.990933">
        <ele>1701.0</ele>
        <time>2014-06-30T13:36:40Z</time>
      </trkpt>
      <trkpt lat="40.577700" lon="-4.990900">
        <ele>1705.0</ele>
        <time>2014-06-30T13:36:41Z</time>
      </trkpt>
      <trkpt lat="40.577783" lon="-4.990850">
        <ele>1707.0</ele>
        <time>2014-06-30T13:36:42Z</time>
      </trkpt>
      <trkpt lat="40.577883" lon="-4.990783">
        <ele>1706.0</ele>
        <time>2014-06-30T13:36:43Z</time>
      </trkpt>
      <trkpt lat="40.577983" lon="-4.990733">
        <ele>1705.0</ele>
        <time>2014-06-30T13:36:44Z</time>
      </trkpt>
      <trkpt lat="40.578083" lon="-4.990650">
        <ele>1704.0</ele>
        <time>2014-06-30T13:36:45Z</time>
      </trkpt>
      <trkpt lat="40.578150" lon="-4.990567">
        <ele>1703.0</ele>
        <time>2014-06-30T13:36:46Z</time>
      </trkpt>
      <trkpt lat="40.578217" lon="-4.990433">
        <ele>1699.0</ele>
        <time>2014-06-30T13:36:47Z</time>
      </trkpt>
      <trkpt lat="40.578267" lon="-4.990267">
        <ele>1697.0</ele>
        <time>2014-06-30T13:36:48Z</time>
      </trkpt>
      <trkpt lat="40.578283" lon="-4.990100">
        <ele>1695.0</ele>
        <time>2014-06-30T13:36:49Z</time>
      </trkpt>
      <trkpt lat="40.578283" lon="-4.989917">
        <ele>1694.0</ele>
        <time>2014-06-30T13:36:50Z</time>
      </trkpt>
      <trkpt lat="40.578300" lon="-4.989733">
        <ele>1693.0</ele>
        <time>2014-06-30T13:36:51Z</time>
      </trkpt>
      <trkpt lat="40.578300" lon="-4.989567">
        <ele>1694.0</ele>
        <time>2014-06-30T13:36:52Z</time>
      </trkpt>
      <trkpt lat="40.578283" lon="-4.989417">
        <ele>1695.0</ele>
        <time>2014-06-30T13:36:53Z</time>
      </trkpt>
      <trkpt lat="40.578267" lon="-4.989267">
        <ele>1696.0</ele>
        <time>2014-06-30T13:36:54Z</time>
      </trkpt>
      <trkpt lat="40.578233" lon="-4.989133">
        <ele>1695.0</ele>
        <time>2014-06-30T13:36:55Z</time>
      </trkpt>
      <trkpt lat="40.578200" lon="-4.989000">
        <ele>1695.0</ele>
        <time>2014-06-30T13:36:56Z</time>
      </trkpt>
      <trkpt lat="40.578133" lon="-4.988867">
        <ele>1694.0</ele>
        <time>2014-06-30T13:36:57Z</time>
      </trkpt>
      <trkpt lat="40.578067" lon="-4.988750">
        <ele>1693.0</ele>
        <time>2014-06-30T13:36:58Z</time>
      </trkpt>
      <trkpt lat="40.578017" lon="-4.988667">
        <ele>1693.0</ele>
        <time>2014-06-30T13:36:59Z</time>
      </trkpt>
      <trkpt lat="40.577933" lon="-4.988583">
        <ele>1693.0</ele>
        <time>2014-06-30T13:37:00Z</time>
      </trkpt>
      <trkpt lat="40.577867" lon="-4.988533">
        <ele>1693.0</ele>
        <time>2014-06-30T13:37:01Z</time>
      </trkpt>
      <trkpt lat="40.577783" lon="-4.988483">
        <ele>1693.0</ele>
        <time>2014-06-30T13:37:02Z</time>
      </trkpt>
      <trkpt lat="40.577717" lon="-4.988433">
        <ele>1693.0</ele>
        <time>2014-06-30T13:37:03Z</time>
      </trkpt>
      <trkpt lat="40.577633" lon="-4.988367">
        <ele>1694.0</ele>
        <time>2014-06-30T13:37:04Z</time>
      </trkpt>
      <trkpt lat="40.577567" lon="-4.988317">
        <ele>1695.0</ele>
        <time>2014-06-30T13:37:05Z</time>
      </trkpt>
      <trkpt lat="40.577517" lon="-4.988267">
        <ele>1697.0</ele>
        <time>2014-06-30T13:37:06Z</time>
      </trkpt>
      <trkpt lat="40.577483" lon="-4.988233">
        <ele>1698.0</ele>
        <time>2014-06-30T13:37:07Z</time>
      </trkpt>
      <trkpt lat="40.577433" lon="-4.988200">
        <ele>1699.0</ele>
        <time>2014-06-30T13:37:08Z</time>
      </trkpt>
      <trkpt lat="40.577383" lon="-4.988183">
        <ele>1699.0</ele>
        <time>2014-06-30T13:37:09Z</time>
      </trkpt>
      <trkpt lat="40.577317" lon="-4.988167">
        <ele>1700.0</ele>
        <time>2014-06-30T13:37:10Z</time>
      </trkpt>
      <trkpt lat="40.577250" lon="-4.988167">
        <ele>1702.0</ele>
        <time>2014-06-30T13:37:11Z</time>
      </trkpt>
      <trkpt lat="40.577217" lon="-4.988183">
        <ele>1703.0</ele>
        <time>2014-06-30T13:37:12Z</time>
      </trkpt>
      <trkpt lat="40.577200" lon="-4.988200">
        <ele>1705.0</ele>
        <time>2014-06-30T13:37:13Z</time>
      </trkpt>
      <trkpt lat="40.577233" lon="-4.988233">
        <ele>1706.0</ele>
        <time>2014-06-30T13:37:14Z</time>
      </trkpt>
      <trkpt lat="40.577267" lon="-4.988250">
        <ele>1707.0</ele>
        <time>2014-06-30T13:37:15Z</time>
      </trkpt>
      <trkpt lat="40.577300" lon="-4.988283">
        <ele>1709.0</ele>
        <time>2014-06-30T13:37:16Z</time>
      </trkpt>
      <trkpt lat="40.577333" lon="-4.988300">
        <ele>1711.0</ele>
        <time>2014-06-30T13:37:17Z</time>
      </trkpt>
      <trkpt lat="40.577383" lon="-4.988317">
        <ele>1713.0</ele>
        <time>2014-06-30T13:37:18Z</time>
      </trkpt>
      <trkpt lat="40.577433" lon="-4.988333">
        <ele>1716.0</ele>
        <time>2014-06-30T13:37:19Z</time>
      </trkpt>
      <trkpt lat="40.577500" lon="-4.988317">
        <ele>1718.0</ele>
        <time>2014-06-30T13:37:20Z</time>
      </trkpt>
      <trkpt lat="40.577583" lon="-4.988250">
        <ele>1720.0</ele>
        <time>2014-06-30T13:37:21Z</time>
      </trkpt>
      <trkpt lat="40.577667" lon="-4.988167">
        <ele>1722.0</ele>
        <time>2014-06-30T13:37:22Z</time>
      </trkpt>
      <trkpt lat="40.577767" lon="-4.988050">
        <ele>1724.0</ele>
        <time>2014-06-30T13:37:23Z</time>
      </trkpt>
      <trkpt lat="40.577833" lon="-4.987900">
        <ele>1725.0</ele>
        <time>2014-06-30T13:37:24Z</time>
      </trkpt>
      <trkpt lat="40.577900" lon="-4.987733">
        <ele>1726.0</ele>
        <time>2014-06-30T13:37:25Z</time>
      </trkpt>
      <trkpt lat="40.577917" lon="-4.987550">
        <ele>1728.0</ele>
        <time>2014-06-30T13:37:26Z</time>
      </trkpt>
      <trkpt lat="40.577900" lon="-4.987383">
        <ele>1729.0</ele>
        <time>2014-06-30T13:37:27Z</time>
      </trkpt>
      <trkpt lat="40.577850" lon="-4.987233">
        <ele>1729.0</ele>
        <time>2014-06-30T13:37:28Z</time>
      </trkpt>
      <trkpt lat="40.577783" lon="-4.987100">
        <ele>1730.0</ele>
        <time>2014-06-30T13:37:29Z</time>
      </trkpt>
      <trkpt lat="40.577700" lon="-4.987000">
        <ele>1731.0</ele>
        <time>2014-06-30T13:37:30Z</time>
      </trkpt>
      <trkpt lat="40.577633" lon="-4.986933">
        <ele>1732.0</ele>
        <time>2014-06-30T13:37:31Z</time>
      </trkpt>
      <trkpt lat="40.577567" lon="-4.986900">
        <ele>1734.0</ele>
        <time>2014-06-30T13:37:32Z</time>
      </trkpt>
      <trkpt lat="40.577500" lon="-4.986900">
        <ele>1735.0</ele>
        <time>2014-06-30T13:37:33Z</time>
      </trkpt>
      <trkpt lat="40.577450" lon="-4.986917">
        <ele>1737.0</ele>
        <time>2014-06-30T13:37:34Z</time>
      </trkpt>
      <trkpt lat="40.577417" lon="-4.986967">
        <ele>1738.0</ele>
        <time>2014-06-30T13:37:35Z</time>
      </trkpt>
      <trkpt lat="40.577400" lon="-4.987000">
        <ele>1740.0</ele>
        <time>2014-06-30T13:37:36Z</time>
      </trkpt>
      <trkpt lat="40.577400" lon="-4.987033">
        <ele>1742.0</ele>
        <time>2014-06-30T13:37:37Z</time>
      </trkpt>
      <trkpt lat="40.577400" lon="-4.987067">
        <ele>1745.0</ele>
        <time>2014-06-30T13:37:38Z</time>
      </trkpt>
      <trkpt lat="40.577400" lon="-4.987117">
        <ele>1747.0</ele>
        <time>2014-06-30T13:37:39Z</time>
      </trkpt>
      <trkpt lat="40.577433" lon="-4.987167">
        <ele>1750.0</ele>
        <time>2014-06-30T13:37:40Z</time>
      </trkpt>
      <trkpt lat="40.577467" lon="-4.987217">
        <ele>1753.0</ele>
        <time>2014-06-30T13:37:41Z</time>
      </trkpt>
      <trkpt lat="40.577517" lon="-4.987250">
        <ele>1756.0</ele>
        <time>2014-06-30T13:37:42Z</time>
      </trkpt>
      <trkpt lat="40.577567" lon="-4.987267">
        <ele>1759.0</ele>
        <time>2014-06-30T13:37:43Z</time>
      </trkpt>
      <trkpt lat="40.577650" lon="-4.987250">
        <ele>1762.0</ele>
        <time>2014-06-30T13:37:44Z</time>
      </trkpt>
      <trkpt lat="40.577733" lon="-4.987200">
        <ele>1764.0</ele>
        <time>2014-06-30T13:37:45Z</time>
      </trkpt>
      <trkpt lat="40.577833" lon="-4.987133">
        <ele>1766.0</ele>
        <time>2014-06-30T13:37:46Z</time>
      </trkpt>
      <trkpt lat="40.577933" lon="-4.987017">
        <ele>1768.0</ele>
        <time>2014-06-30T13:37:47Z</time>
      </trkpt>
      <trkpt lat="40.578017" lon="-4.986883">
        <ele>1769.0</ele>
        <time>2014-06-30T13:37:48Z</time>
      </trkpt>
      <trkpt lat="40.578067" lon="-4.986733">
        <ele>1769.0</ele>
        <time>2014-06-30T13:37:49Z</time>
      </trkpt>
      <trkpt lat="40.578117" lon="-4.986550">
        <ele>1770.0</ele>
        <time>2014-06-30T13:37:50Z</time>
      </trkpt>
      <trkpt lat="40.578133" lon="-4.986350">
        <ele>1770.0</ele>
        <time>2014-06-30T13:37:51Z</time>
      </trkpt>
      <trkpt lat="40.578117" lon="-4.986167">
        <ele>1771.0</ele>
        <time>2014-06-30T13:37:52Z</time>
      </trkpt>
      <trkpt lat="40.578100" lon="-4.985983">
        <ele>1771.0</ele>
        <time>2014-06-30T13:37:53Z</time>
      </trkpt>
      <trkpt lat="40.578050" lon="-4.985850">
        <ele>1772.0</ele>
        <time>2014-06-30T13:37:54Z</time>
      </trkpt>
      <trkpt lat="40.577983" lon="-4.985717">
        <ele>1772.0</ele>
        <time>2014-06-30T13:37:55Z</time>
      </trkpt>
      <trkpt lat="40.577900" lon="-4.985600">
        <ele>1772.0</ele>
        <time>2014-06-30T13:37:56Z</time>
      </trkpt>
      <trkpt lat="40.577817" lon="-4.985483">
        <ele>1772.0</ele>
        <time>2014-06-30T13:37:57Z</time>
      </trkpt>
      <trkpt lat="40.577717" lon="-4.985383">
        <ele>1773.0</ele>
        <time>2014-06-30T13:37:58Z</time>
      </trkpt>
      <trkpt lat="40.577633" lon="-4.985283">
        <ele>1774.0</ele>
        <time>2014-06-30T13:37:59Z</time>
      </trkpt>
      <trkpt lat="40.577550" lon="-4.985217">
        <ele>1775.0</ele>
        <time>2014-06-30T13:38:00Z</time>
      </trkpt>
      <trkpt lat="40.577483" lon="-4.985167">
        <ele>1776.0</ele>
        <time>2014-06-30T13:38:01Z</time>
      </trkpt>
      <trkpt lat="40.577417" lon="-4.985117">
        <ele>1778.0</ele>
        <time>2014-06-30T13:38:02Z</time>
      </trkpt>
      <trkpt lat="40.577350" lon="-4.985083">
        <ele>1779.0</ele>
        <time>2014-06-30T13:38:03Z</time>
      </trkpt>
      <trkpt lat="40.577283" lon="-4.985067">
        <ele>1780.0</ele>
        <time>2014-06-30T13:38:04Z</time>
      </trkpt>
      <trkpt lat="40.577233" lon="-4.985083">
        <ele>1782.0</ele>
        <time>2014-06-30T13:38:05Z</time>
      </trkpt>
      <trkpt lat="40.577200" lon="-4.985133">
        <ele>1784.0</ele>
        <time>2014-06-30T13:38:06Z</time>
      </trkpt>
      <trkpt lat="40.577200" lon="-4.985200">
        <ele>1785.0</ele>
        <time>2014-06-30T13:38:07Z</time>
      </trkpt>
      <trkpt lat="40.577217" lon="-4.985267">
        <ele>1787.0</ele>
        <time>2014-06-30T13:38:08Z</time>
      </trkpt>
      <trkpt lat="40.577250" lon="-4.985317">
        <ele>1790.0</ele>
        <time>2014-06-30T13:38:09Z</time>
      </trkpt>
      <trkpt lat="40.577300" lon="-4.985350">
        <ele>1793.0</ele>
        <time>2014-06-30T13:38:10Z</time>
      </trkpt>
      <trkpt lat="40.577333" lon="-4.985367">
        <ele>1796.0</ele>
        <time>2014-06-30T13:38:11Z</time>
      </trkpt>
      <trkpt lat="40.577383" lon="-4.985400">
        <ele>1800.0</ele>
        <time>2014-06-30T13:38:12Z</time>
      </trkpt>
      <trkpt lat="40.577433" lon="-4.985417">
        <ele>1804.0</ele>
        <time>2014-06-30T13:38:13Z</time>
      </trkpt>
      <trkpt lat="40.577500" lon="-4.985433">
        <ele>1806.0</ele>
        <time>2014-06-30T13:38:14Z</time>
      </trkpt>
      <trkpt lat="40.577567" lon="-4.985450">
        <ele>1808.0</ele>
        <time>2014-06-30T13:38:15Z</time>
      </trkpt>
      <trkpt lat="40.577633" lon="-4.985450">
        <ele>1811.0</ele>
        <time>2014-06-30T13:38:16Z</time>
      </trkpt>
      <trkpt lat="40.577700" lon="-4.985400">
        <ele>1814.0</ele>
        <time>2014-06-30T13:38:17Z</time>
      </trkpt>
      <trkpt lat="40.577767" lon="-4.985333">
        <ele>1815.0</ele>
        <time>2014-06-30T13:38:18Z</time>
      </trkpt>
      <trkpt lat="40.577850" lon="-4.985233">
        <ele>1815.0</ele>
        <time>2014-06-30T13:38:19Z</time>
      </trkpt>
      <trkpt lat="40.577933" lon="-4.985117">
        <ele>1814.0</ele>
        <time>2014-06-30T13:38:20Z</time>
      </trkpt>
      <trkpt lat="40.578000" lon="-4.984967">
        <ele>1814.0</ele>
        <time>2014-06-30T13:38:21Z</time>
      </trkpt>
      <trkpt lat="40.578033" lon="-4.984800">
        <ele>1815.0</ele>
        <time>2014-06-30T13:38:22Z</time>
      </trkpt>
      <trkpt lat="40.578033" lon="-4.984617">
        <ele>1816.0</ele>
        <time>2014-06-30T13:38:23Z</time>
      </trkpt>
      <trkpt lat="40.578000" lon="-4.984450">
        <ele>1816.0</ele>
        <time>2014-06-30T13:38:24Z</time>
      </trkpt>
      <trkpt lat="40.577950" lon="-4.984283">
        <ele>1818.0</ele>
        <time>2014-06-30T13:38:25Z</time>
      </trkpt>
      <trkpt lat="40.577900" lon="-4.984150">
        <ele>1820.0</ele>
        <time>2014-06-30T13:38:26Z</time>
      </trkpt>
      <trkpt lat="40.577817" lon="-4.984017">
        <ele>1820.0</ele>
        <time>2014-06-30T13:38:27Z</time>
      </trkpt>
      <trkpt lat="40.577733" lon="-4.983933">
        <ele>1821.0</ele>
        <time>2014-06-30T13:38:28Z</time>
      </trkpt>
      <trkpt lat="40.577650" lon="-4.983883">
        <ele>1822.0</ele>
        <time>2014-06-30T13:38:29Z</time>
      </trkpt>
      <trkpt lat="40.577583" lon="-4.983867">
        <ele>1823.0</ele>
        <time>2014-06-30T13:38:30Z</time>
      </trkpt>
      <trkpt lat="40.577517" lon="-4.983883">
        <ele>1824.0</ele>
        <time>2014-06-30T13:38:31Z</time>
      </trkpt>
      <trkpt lat="40.577450" lon="-4.983900">
        <ele>1826.0</ele>
        <time>2014-06-30T13:38:32Z</time>
      </trkpt>
      <trkpt lat="40.577383" lon="-4.983933">
        <ele>1828.0</ele>
        <time>2014-06-30T13:38:33Z</time>
      </trkpt>
      <trkpt lat="40.577333" lon="-4.983950">
        <ele>1830.0</ele>
        <time>2014-06-30T13:38:34Z</time>
      </trkpt>
      <trkpt lat="40.577300" lon="-4.983983">
        <ele>1833.0</ele>
        <time>2014-06-30T13:38:35Z</time>
      </trkpt>
      <trkpt lat="40.577250" lon="-4.984000">
        <ele>1836.0</ele>
        <time>2014-06-30T13:38:36Z</time>
      </trkpt>
      <trkpt lat="40.577200" lon="-4.984033">
        <ele>1839.0</ele>
        <time>2014-06-30T13:38:37Z</time>
      </trkpt>
      <trkpt lat="40.577150" lon="-4.984067">
        <ele>1843.0</ele>
        <time>2014-06-30T13:38:38Z</time>
      </trkpt>
      <trkpt lat="40.577100" lon="-4.984083">
        <ele>1845.0</ele>
        <time>2014-06-30T13:38:39Z</time>
      </trkpt>
      <trkpt lat="40.577050" lon="-4.984100">
        <ele>1849.0</ele>
        <time>2014-06-30T13:38:40Z</time>
      </trkpt>
      <trkpt lat="40.577017" lon="-4.984117">
        <ele>1852.0</ele>
        <time>2014-06-30T13:38:41Z</time>
      </trkpt>
      <trkpt lat="40.576967" lon="-4.984150">
        <ele>1855.0</ele>
        <time>2014-06-30T13:38:42Z</time>
      </trkpt>
      <trkpt lat="40.576933" lon="-4.984150">
        <ele>1858.0</ele>
        <time>2014-06-30T13:38:43Z</time>
      </trkpt>
      <trkpt lat="40.576900" lon="-4.984150">
        <ele>1859.0</ele>
        <time>2014-06-30T13:38:44Z</time>
      </trkpt>
      <trkpt lat="40.576850" lon="-4.984167">
        <ele>1860.0</ele>
        <time>2014-06-30T13:38:45Z</time>
      </trkpt>
      <trkpt lat="40.576800" lon="-4.984200">
        <ele>1862.0</ele>
        <time>2014-06-30T13:38:46Z</time>
      </trkpt>
      <trkpt lat="40.576783" lon="-4.984267">
        <ele>1865.0</ele>
        <time>2014-06-30T13:38:47Z</time>
      </trkpt>
      <trkpt lat="40.576800" lon="-4.984317">
        <ele>1867.0</ele>
        <time>2014-06-30T13:38:48Z</time>
      </trkpt>
      <trkpt lat="40.576817" lon="-4.984383">
        <ele>1870.0</ele>
        <time>2014-06-30T13:38:49Z</time>
      </trkpt>
      <trkpt lat="40.576867" lon="-4.984417">
        <ele>1873.0</ele>
        <time>2014-06-30T13:38:50Z</time>
      </trkpt>
      <trkpt lat="40.576933" lon="-4.984433">
        <ele>1876.0</ele>
        <time>2014-06-30T13:38:51Z</time>
      </trkpt>
      <trkpt lat="40.577000" lon="-4.984433">
        <ele>1879.0</ele>
        <time>2014-06-30T13:38:52Z</time>
      </trkpt>
      <trkpt lat="40.577083" lon="-4.984383">
        <ele>1882.0</ele>
        <time>2014-06-30T13:38:53Z</time>
      </trkpt>
      <trkpt lat="40.577167" lon="-4.984300">
        <ele>1884.0</ele>
        <time>2014-06-30T13:38:54Z</time>
      </trkpt>
      <trkpt lat="40.577233" lon="-4.984183">
        <ele>1886.0</ele>
        <time>2014-06-30T13:38:55Z</time>
      </trkpt>
      <trkpt lat="40.577300" lon="-4.984050">
        <ele>1888.0</ele>
        <time>2014-06-30T13:38:56Z</time>
      </trkpt>
      <trkpt lat="40.577317" lon="-4.983900">
        <ele>1891.0</ele>
        <time>2014-06-30T13:38:57Z</time>
      </trkpt>
      <trkpt lat="40.577317" lon="-4.983767">
        <ele>1895.0</ele>
        <time>2014-06-30T13:38:58Z</time>
      </trkpt>
      <trkpt lat="40.577267" lon="-4.983633">
        <ele>1898.0</ele>
        <time>2014-06-30T13:38:59Z</time>
      </trkpt>
      <trkpt lat="40.577200" lon="-4.983517">
        <ele>1901.0</ele>
        <time>2014-06-30T13:39:00Z</time>
      </trkpt>
      <trkpt lat="40.577133" lon="-4.983433">
        <ele>1903.0</ele>
        <time>2014-06-30T13:39:01Z</time>
      </trkpt>
      <trkpt lat="40.577050" lon="-4.983383">
        <ele>1907.0</ele>
        <time>2014-06-30T13:39:02Z</time>
      </trkpt>
      <trkpt lat="40.576967" lon="-4.983367">
        <ele>1910.0</ele>
        <time>2014-06-30T13:39:03Z</time>
      </trkpt>
      <trkpt lat="40.576900" lon="-4.983367">
        <ele>1913.0</ele>
        <time>2014-06-30T13:39:04Z</time>
      </trkpt>
      <trkpt lat="40.576833" lon="-4.983383">
        <ele>1915.0</ele>
        <time>2014-06-30T13:39:05Z</time>
      </trkpt>
      <trkpt lat="40.576783" lon="-4.983417">
        <ele>1918.0</ele>
        <time>2014-06-30T13:39:06Z</time>
      </trkpt>
      <trkpt lat="40.576767" lon="-4.983483">
        <ele>1921.0</ele>
        <time>2014-06-30T13:39:07Z</time>
      </trkpt>
      <trkpt lat="40.576750" lon="-4.983533">
        <ele>1923.0</ele>
        <time>2014-06-30T13:39:08Z</time>
      </trkpt>
      <trkpt lat="40.576733" lon="-4.983600">
        <ele>1926.0</ele>
        <time>2014-06-30T13:39:09Z</time>
      </trkpt>
      <trkpt lat="40.576717" lon="-4.983650">
        <ele>1928.0</ele>
        <time>2014-06-30T13:39:10Z</time>
      </trkpt>
      <trkpt lat="40.576700" lon="-4.983700">
        <ele>1930.0</ele>
        <time>2014-06-30T13:39:11Z</time>
      </trkpt>
      <trkpt lat="40.576700" lon="-4.983733">
        <ele>1933.0</ele>
        <time>2014-06-30T13:39:12Z</time>
      </trkpt>
      <trkpt lat="40.576700" lon="-4.983767">
        <ele>1935.0</ele>
        <time>2014-06-30T13:39:13Z</time>
      </trkpt>
      <trkpt lat="40.576700" lon="-4.983800">
        <ele>1937.0</ele>
        <time>2014-06-30T13:39:14Z</time>
      </trkpt>
      <trkpt lat="40.576733" lon="-4.983833">
        <ele>1938.0</ele>
        <time>2014-06-30T13:39:15Z</time>
      </trkpt>
      <trkpt lat="40.576783" lon="-4.983867">
        <ele>1940.0</ele>
        <time>2014-06-30T13:39:16Z</time>
      </trkpt>
      <trkpt lat="40.576833" lon="-4.983917">
        <ele>1942.0</ele>
        <time>2014-06-30T13:39:17Z</time>
      </trkpt>
      <trkpt lat="40.576883" lon="-4.983933">
        <ele>1944.0</ele>
        <time>2014-06-30T13:39:18Z</time>
      </trkpt>
      <trkpt lat="40.576950" lon="-4.983933">
        <ele>1947.0</ele>
        <time>2014-06-30T13:39:19Z</time>
      </trkpt>
      <trkpt lat="40.577033" lon="-4.983917">
        <ele>1949.0</ele>
        <time>2014-06-30T13:39:20Z</time>
      </trkpt>
      <trkpt lat="40.577117" lon="-4.983867">
        <ele>1949.0</ele>
        <time>2014-06-30T13:39:21Z</time>
      </trkpt>
      <trkpt lat="40.577217" lon="-4.983800">
        <ele>1949.0</ele>
        <time>2014-06-30T13:39:22Z</time>
      </trkpt>
      <trkpt lat="40.577283" lon="-4.983700">
        <ele>1949.0</ele>
        <time>2014-06-30T13:39:23Z</time>
      </trkpt>
      <trkpt lat="40.577333" lon="-4.983583">
        <ele>1949.0</ele>
        <time>2014-06-30T13:39:24Z</time>
      </trkpt>
      <trkpt lat="40.577367" lon="-4.983450">
        <ele>1950.0</ele>
        <time>2014-06-30T13:39:25Z</time>
      </trkpt>
      <trkpt lat="40.577367" lon="-4.983300">
        <ele>1950.0</ele>
        <time>2014-06-30T13:39:26Z</time>
      </trkpt>
      <trkpt lat="40.577350" lon="-4.983150">
        <ele>1951.0</ele>
        <time>2014-06-30T13:39:27Z</time>
      </trkpt>
      <trkpt lat="40.577317" lon="-4.983033">
        <ele>1952.0</ele>
        <time>2014-06-30T13:39:28Z</time>
      </trkpt>
      <trkpt lat="40.577250" lon="-4.982933">
        <ele>1953.0</ele>
        <time>2014-06-30T13:39:29Z</time>
      </trkpt>
      <trkpt lat="40.577183" lon="-4.982867">
        <ele>1954.0</ele>
        <time>2014-06-30T13:39:30Z</time>
      </trkpt>
      <trkpt lat="40.577117" lon="-4.982817">
        <ele>1954.0</ele>
        <time>2014-06-30T13:39:31Z</time>
      </trkpt>
      <trkpt lat="40.577033" lon="-4.982783">
        <ele>1955.0</ele>
        <time>2014-06-30T13:39:32Z</time>
      </trkpt>
      <trkpt lat="40.576950" lon="-4.982750">
        <ele>1956.0</ele>
        <time>2014-06-30T13:39:33Z</time>
      </trkpt>
      <trkpt lat="40.576867" lon="-4.982717">
        <ele>1957.0</ele>
        <time>2014-06-30T13:39:34Z</time>
      </trkpt>
      <trkpt lat="40.576783" lon="-4.982683">
        <ele>1958.0</ele>
        <time>2014-06-30T13:39:35Z</time>
      </trkpt>
      <trkpt lat="40.576700" lon="-4.982667">
        <ele>1960.0</ele>
        <time>2014-06-30T13:39:36Z</time>
      </trkpt>
      <trkpt lat="40.576650" lon="-4.982650">
        <ele>1962.0</ele>
        <time>2014-06-30T13:39:37Z</time>
      </trkpt>
      <trkpt lat="40.576583" lon="-4.982617">
        <ele>1963.0</ele>
        <time>2014-06-30T13:39:38Z</time>
      </trkpt>
      <trkpt lat="40.576500" lon="-4.982600">
        <ele>1965.0</ele>
        <time>2014-06-30T13:39:39Z</time>
      </trkpt>
      <trkpt lat="40.576417" lon="-4.982583">
        <ele>1966.0</ele>
        <time>2014-06-30T13:39:40Z</time>
      </trkpt>
      <trkpt lat="40.576367" lon="-4.982583">
        <ele>1968.0</ele>
        <time>2014-06-30T13:39:41Z</time>
      </trkpt>
      <trkpt lat="40.576317" lon="-4.982583">
        <ele>1970.0</ele>
        <time>2014-06-30T13:39:42Z</time>
      </trkpt>
      <trkpt lat="40.576283" lon="-4.982600">
        <ele>1972.0</ele>
        <time>2014-06-30T13:39:43Z</time>
      </trkpt>
      <trkpt lat="40.576250" lon="-4.982633">
        <ele>1973.0</ele>
        <time>2014-06-30T13:39:44Z</time>
      </trkpt>
      <trkpt lat="40.576217" lon="-4.982667">
        <ele>1974.0</ele>
        <time>2014-06-30T13:39:45Z</time>
      </trkpt>
      <trkpt lat="40.576200" lon="-4.982700">
        <ele>1975.0</ele>
        <time>2014-06-30T13:39:46Z</time>
      </trkpt>
      <trkpt lat="40.576183" lon="-4.982733">
        <ele>1977.0</ele>
        <time>2014-06-30T13:39:47Z</time>
      </trkpt>
      <trkpt lat="40.576183" lon="-4.982767">
        <ele>1978.0</ele>
        <time>2014-06-30T13:39:48Z</time>
      </trkpt>
      <trkpt lat="40.576200" lon="-4.982800">
        <ele>1980.0</ele>
        <time>2014-06-30T13:39:49Z</time>
      </trkpt>
      <trkpt lat="40.576217" lon="-4.982833">
        <ele>1982.0</ele>
        <time>2014-06-30T13:39:50Z</time>
      </trkpt>
      <trkpt lat="40.576233" lon="-4.982850">
        <ele>1984.0</ele>
        <time>2014-06-30T13:39:51Z</time>
      </trkpt>
      <trkpt lat="40.576267" lon="-4.982883">
        <ele>1986.0</ele>
        <time>2014-06-30T13:39:52Z</time>
      </trkpt>
      <trkpt lat="40.576300" lon="-4.982917">
        <ele>1988.0</ele>
        <time>2014-06-30T13:39:53Z</time>
      </trkpt>
      <trkpt lat="40.576317" lon="-4.982933">
        <ele>1990.0</ele>
        <time>2014-06-30T13:39:54Z</time>
      </trkpt>
      <trkpt lat="40.576333" lon="-4.982967">
        <ele>1991.0</ele>
        <time>2014-06-30T13:39:55Z</time>
      </trkpt>
      <trkpt lat="40.576367" lon="-4.982983">
        <ele>1993.0</ele>
        <time>2014-06-30T13:39:56Z</time>
      </trkpt>
      <trkpt lat="40.576400" lon="-4.983000">
        <ele>1994.0</ele>
        <time>2014-06-30T13:39:57Z</time>
      </trkpt>
      <trkpt lat="40.576433" lon="-4.983017">
        <ele>1995.0</ele>
        <time>2014-06-30T13:39:58Z</time>
      </trkpt>
      <trkpt lat="40.576467" lon="-4.983033">
        <ele>1996.0</ele>
        <time>2014-06-30T13:39:59Z</time>
      </trkpt>
      <trkpt lat="40.576500" lon="-4.983050">
        <ele>1995.0</ele>
        <time>2014-06-30T13:40:00Z</time>
      </trkpt>
      <trkpt lat="40.576550" lon="-4.983050">
        <ele>1995.0</ele>
        <time>2014-06-30T13:40:01Z</time>
      </trkpt>
      <trkpt lat="40.576600" lon="-4.983033">
        <ele>1995.0</ele>
        <time>2014-06-30T13:40:02Z</time>
      </trkpt>
      <trkpt lat="40.576667" lon="-4.982983">
        <ele>1996.0</ele>
        <time>2014-06-30T13:40:03Z</time>
      </trkpt>
      <trkpt lat="40.576750" lon="-4.982917">
        <ele>1997.0</ele>
        <time>2014-06-30T13:40:04Z</time>
      </trkpt>
      <trkpt lat="40.576800" lon="-4.982800">
        <ele>1997.0</ele>
        <time>2014-06-30T13:40:05Z</time>
      </trkpt>
      <trkpt lat="40.576850" lon="-4.982683">
        <ele>1998.0</ele>
        <time>2014-06-30T13:40:06Z</time>
      </trkpt>
      <trkpt lat="40.576867" lon="-4.982533">
        <ele>1998.0</ele>
        <time>2014-06-30T13:40:07Z</time>
      </trkpt>
      <trkpt lat="40.576883" lon="-4.982367">
        <ele>1998.0</ele>
        <time>2014-06-30T13:40:08Z</time>
      </trkpt>
      <trkpt lat="40.576850" lon="-4.982200">
        <ele>1999.0</ele>
        <time>2014-06-30T13:40:09Z</time>
      </trkpt>
      <trkpt lat="40.576800" lon="-4.982033">
        <ele>1999.0</ele>
        <time>2014-06-30T13:40:10Z</time>
      </trkpt>
      <trkpt lat="40.576717" lon="-4.981900">
        <ele>1999.0</ele>
        <time>2014-06-30T13:40:11Z</time>
      </trkpt>
      <trkpt lat="40.576633" lon="-4.981783">
        <ele>1999.0</ele>
        <time>2014-06-30T13:40:12Z</time>
      </trkpt>
      <trkpt lat="40.576517" lon="-4.981700">
        <ele>1999.0</ele>
        <time>2014-06-30T13:40:13Z</time>
      </trkpt>
      <trkpt lat="40.576400" lon="-4.981650">
        <ele>2000.0</ele>
        <time>2014-06-30T13:40:14Z</time>
      </trkpt>
      <trkpt lat="40.576300" lon="-4.981633">
        <ele>2000.0</ele>
        <time>2014-06-30T13:40:15Z</time>
      </trkpt>
      <trkpt lat="40.576183" lon="-4.981617">
        <ele>2000.0</ele>
        <time>2014-06-30T13:40:16Z</time>
      </trkpt>
      <trkpt lat="40.576100" lon="-4.981600">
        <ele>2001.0</ele>
        <time>2014-06-30T13:40:17Z</time>
      </trkpt>
      <trkpt lat="40.576017" lon="-4.981600">
        <ele>2002.0</ele>
        <time>2014-06-30T13:40:18Z</time>
      </trkpt>
      <trkpt lat="40.575933" lon="-4.981583">
        <ele>2003.0</ele>
        <time>2014-06-30T13:40:19Z</time>
      </trkpt>
      <trkpt lat="40.575850" lon="-4.981583">
        <ele>2004.0</ele>
        <time>2014-06-30T13:40:20Z</time>
      </trkpt>
      <trkpt lat="40.575767" lon="-4.981583">
        <ele>2004.0</ele>
        <time>2014-06-30T13:40:21Z</time>
      </trkpt>
      <trkpt lat="40.575683" lon="-4.981600">
        <ele>2005.0</ele>
        <time>2014-06-30T13:40:22Z</time>
      </trkpt>
      <trkpt lat="40.575617" lon="-4.981650">
        <ele>2005.0</ele>
        <time>2014-06-30T13:40:23Z</time>
      </trkpt>
      <trkpt lat="40.575567" lon="-4.981683">
        <ele>2006.0</ele>
        <time>2014-06-30T13:40:24Z</time>
      </trkpt>
      <trkpt lat="40.575550" lon="-4.981733">
        <ele>2007.0</ele>
        <time>2014-06-30T13:40:25Z</time>
      </trkpt>
      <trkpt lat="40.575550" lon="-4.981767">
        <ele>2007.0</ele>
        <time>2014-06-30T13:40:26Z</time>
      </trkpt>
      <trkpt lat="40.575550" lon="-4.981817">
        <ele>2007.0</ele>
        <time>2014-06-30T13:40:27Z</time>
      </trkpt>
      <trkpt lat="40.575533" lon="-4.981867">
        <ele>2007.0</ele>
        <time>2014-06-30T13:40:28Z</time>
      </trkpt>
      <trkpt lat="40.575517" lon="-4.981933">
        <ele>2005.0</ele>
        <time>2014-06-30T13:40:29Z</time>
      </trkpt>
      <trkpt lat="40.575500" lon="-4.982000">
        <ele>2005.0</ele>
        <time>2014-06-30T13:40:30Z</time>
      </trkpt>
      <trkpt lat="40.575467" lon="-4.982067">
        <ele>2004.0</ele>
        <time>2014-06-30T13:40:31Z</time>
      </trkpt>
      <trkpt lat="40.575450" lon="-4.982133">
        <ele>2004.0</ele>
        <time>2014-06-30T13:40:32Z</time>
      </trkpt>
      <trkpt lat="40.575433" lon="-4.982183">
        <ele>2004.0</ele>
        <time>2014-06-30T13:40:33Z</time>
      </trkpt>
      <trkpt lat="40.575417" lon="-4.982233">
        <ele>2003.0</ele>
        <time>2014-06-30T13:40:34Z</time>
      </trkpt>
      <trkpt lat="40.575400" lon="-4.982300">
        <ele>2003.0</ele>
        <time>2014-06-30T13:40:35Z</time>
      </trkpt>
      <trkpt lat="40.575383" lon="-4.982333">
        <ele>2002.0</ele>
        <time>2014-06-30T13:40:36Z</time>
      </trkpt>
      <trkpt lat="40.575383" lon="-4.982383">
        <ele>2001.0</ele>
        <time>2014-06-30T13:40:37Z</time>
      </trkpt>
      <trkpt lat="40.575383" lon="-4.982433">
        <ele>1999.0</ele>
        <time>2014-06-30T13:40:38Z</time>
      </trkpt>
      <trkpt lat="40.575400" lon="-4.982483">
        <ele>1997.0</ele>
        <time>2014-06-30T13:40:39Z</time>
      </trkpt>
      <trkpt lat="40.575433" lon="-4.982533">
        <ele>1995.0</ele>
        <time>2014-06-30T13:40:40Z</time>
      </trkpt>
      <trkpt lat="40.575467" lon="-4.982567">
        <ele>1993.0</ele>
        <time>2014-06-30T13:40:41Z</time>
      </trkpt>
      <trkpt lat="40.575517" lon="-4.982583">
        <ele>1992.0</ele>
        <time>2014-06-30T13:40:42Z</time>
      </trkpt>
      <trkpt lat="40.575567" lon="-4.982583">
        <ele>1990.0</ele>
        <time>2014-06-30T13:40:43Z</time>
      </trkpt>
      <trkpt lat="40.575633" lon="-4.982550">
        <ele>1988.0</ele>
        <time>2014-06-30T13:40:44Z</time>
      </trkpt>
      <trkpt lat="40.575700" lon="-4.982500">
        <ele>1986.0</ele>
        <time>2014-06-30T13:40:45Z</time>
      </trkpt>
      <trkpt lat="40.575767" lon="-4.982433">
        <ele>1983.0</ele>
        <time>2014-06-30T13:40:46Z</time>
      </trkpt>
      <trkpt lat="40.575833" lon="-4.982333">
        <ele>1981.0</ele>
        <time>2014-06-30T13:40:47Z</time>
      </trkpt>
      <trkpt lat="40.575883" lon="-4.982217">
        <ele>1979.0</ele>
        <time>2014-06-30T13:40:48Z</time>
      </trkpt>
      <trkpt lat="40.575933" lon="-4.982083">
        <ele>1977.0</ele>
        <time>2014-06-30T13:40:49Z</time>
      </trkpt>
      <trkpt lat="40.576000" lon="-4.981933">
        <ele>1975.0</ele>
        <time>2014-06-30T13:40:50Z</time>
      </trkpt>
      <trkpt lat="40.576033" lon="-4.981800">
        <ele>1974.0</ele>
        <time>2014-06-30T13:40:51Z</time>
      </trkpt>
      <trkpt lat="40.576067" lon="-4.981633">
        <ele>1972.0</ele>
        <time>2014-06-30T13:40:52Z</time>
      </trkpt>
      <trkpt lat="40.576100" lon="-4.981483">
        <ele>1971.0</ele>
        <time>2014-06-30T13:40:53Z</time>
      </trkpt>
      <trkpt lat="40.576133" lon="-4.981333">
        <ele>1969.0</ele>
        <time>2014-06-30T13:40:54Z</time>
      </trkpt>
      <trkpt lat="40.576150" lon="-4.981167">
        <ele>1968.0</ele>
        <time>2014-06-30T13:40:55Z</time>
      </trkpt>
      <trkpt lat="40.576167" lon="-4.981017">
        <ele>1966.0</ele>
        <time>2014-06-30T13:40:56Z</time>
      </trkpt>
      <trkpt lat="40.576167" lon="-4.980833">
        <ele>1964.0</ele>
        <time>2014-06-30T13:40:57Z</time>
      </trkpt>
      <trkpt lat="40.576167" lon="-4.980650">
        <ele>1962.0</ele>
        <time>2014-06-30T13:40:58Z</time>
      </trkpt>
      <trkpt lat="40.576167" lon="-4.980483">
        <ele>1960.0</ele>
        <time>2014-06-30T13:40:59Z</time>
      </trkpt>
      <trkpt lat="40.576183" lon="-4.980300">
        <ele>1958.0</ele>
        <time>2014-06-30T13:41:00Z</time>
      </trkpt>
      <trkpt lat="40.576183" lon="-4.980133">
        <ele>1957.0</ele>
        <time>2014-06-30T13:41:01Z</time>
      </trkpt>
      <trkpt lat="40.576183" lon="-4.979967">
        <ele>1956.0</ele>
        <time>2014-06-30T13:41:02Z</time>
      </trkpt>
      <trkpt lat="40.576200" lon="-4.979800">
        <ele>1955.0</ele>
        <time>2014-06-30T13:41:03Z</time>
      </trkpt>
      <trkpt lat="40.576217" lon="-4.979617">
        <ele>1953.0</ele>
        <time>2014-06-30T13:41:04Z</time>
      </trkpt>
      <trkpt lat="40.576233" lon="-4.979450">
        <ele>1952.0</ele>
        <time>2014-06-30T13:41:05Z</time>
      </trkpt>
      <trkpt lat="40.576250" lon="-4.979283">
        <ele>1951.0</ele>
        <time>2014-06-30T13:41:06Z</time>
      </trkpt>
      <trkpt lat="40.576300" lon="-4.979133">
        <ele>1949.0</ele>
        <time>2014-06-30T13:41:07Z</time>
      </trkpt>
      <trkpt lat="40.576333" lon="-4.978950">
        <ele>1948.0</ele>
        <time>2014-06-30T13:41:08Z</time>
      </trkpt>
      <trkpt lat="40.576367" lon="-4.978783">
        <ele>1946.0</ele>
        <time>2014-06-30T13:41:09Z</time>
      </trkpt>
      <trkpt lat="40.576400" lon="-4.978600">
        <ele>1946.0</ele>
        <time>2014-06-30T13:41:10Z</time>
      </trkpt>
      <trkpt lat="40.576417" lon="-4.978433">
        <ele>1945.0</ele>
        <time>2014-06-30T13:41:11Z</time>
      </trkpt>
      <trkpt lat="40.576417" lon="-4.978250">
        <ele>1945.0</ele>
        <time>2014-06-30T13:41:12Z</time>
      </trkpt>
      <trkpt lat="40.576417" lon="-4.978067">
        <ele>1944.0</ele>
        <time>2014-06-30T13:41:13Z</time>
      </trkpt>
      <trkpt lat="40.576400" lon="-4.977883">
        <ele>1945.0</ele>
        <time>2014-06-30T13:41:14Z</time>
      </trkpt>
      <trkpt lat="40.576383" lon="-4.977683">
        <ele>1947.0</ele>
        <time>2014-06-30T13:41:15Z</time>
      </trkpt>
      <trkpt lat="40.576383" lon="-4.977500">
        <ele>1948.0</ele>
        <time>2014-06-30T13:41:16Z</time>
      </trkpt>
      <trkpt lat="40.576383" lon="-4.977317">
        <ele>1949.0</ele>
        <time>2014-06-30T13:41:17Z</time>
      </trkpt>
      <trkpt lat="40.576383" lon="-4.977150">
        <ele>1952.0</ele>
        <time>2014-06-30T13:41:18Z</time>
      </trkpt>
      <trkpt lat="40.576383" lon="-4.976967">
        <ele>1955.0</ele>
        <time>2014-06-30T13:41:19Z</time>
      </trkpt>
      <trkpt lat="40.576383" lon="-4.976800">
        <ele>1957.0</ele>
        <time>2014-06-30T13:41:20Z</time>
      </trkpt>
      <trkpt lat="40.576383" lon="-4.976633">
        <ele>1958.0</ele>
        <time>2014-06-30T13:41:21Z</time>
      </trkpt>
      <trkpt lat="40.576383" lon="-4.976467">
        <ele>1960.0</ele>
        <time>2014-06-30T13:41:22Z</time>
      </trkpt>
      <trkpt lat="40.576350" lon="-4.976300">
        <ele>1961.0</ele>
        <time>2014-06-30T13:41:23Z</time>
      </trkpt>
      <trkpt lat="40.576300" lon="-4.976150">
        <ele>1961.0</ele>
        <time>2014-06-30T13:41:24Z</time>
      </trkpt>
      <trkpt lat="40.576217" lon="-4.976033">
        <ele>1961.0</ele>
        <time>2014-06-30T13:41:25Z</time>
      </trkpt>
      <trkpt lat="40.576133" lon="-4.975950">
        <ele>1962.0</ele>
        <time>2014-06-30T13:41:26Z</time>
      </trkpt>
      <trkpt lat="40.576050" lon="-4.975900">
        <ele>1963.0</ele>
        <time>2014-06-30T13:41:27Z</time>
      </trkpt>
      <trkpt lat="40.576000" lon="-4.975883">
        <ele>1963.0</ele>
        <time>2014-06-30T13:41:28Z</time>
      </trkpt>
      <trkpt lat="40.575950" lon="-4.975900">
        <ele>1964.0</ele>
        <time>2014-06-30T13:41:29Z</time>
      </trkpt>
      <trkpt lat="40.575917" lon="-4.975917">
        <ele>1964.0</ele>
        <time>2014-06-30T13:41:30Z</time>
      </trkpt>
      <trkpt lat="40.575883" lon="-4.975933">
        <ele>1965.0</ele>
        <time>2014-06-30T13:41:31Z</time>
      </trkpt>
      <trkpt lat="40.575883" lon="-4.975950">
        <ele>1965.0</ele>
        <time>2014-06-30T13:41:32Z</time>
      </trkpt>
      <trkpt lat="40.575867" lon="-4.975983">
        <ele>1963.0</ele>
        <time>2014-06-30T13:41:33Z</time>
      </trkpt>
      <trkpt lat="40.575867" lon="-4.976017">
        <ele>1963.0</ele>
        <time>2014-06-30T13:41:34Z</time>
      </trkpt>
      <trkpt lat="40.575883" lon="-4.976067">
        <ele>1963.0</ele>
        <time>2014-06-30T13:41:35Z</time>
      </trkpt>
      <trkpt lat="40.575900" lon="-4.976100">
        <ele>1963.0</ele>
        <time>2014-06-30T13:41:36Z</time>
      </trkpt>
      <trkpt lat="40.575933" lon="-4.976133">
        <ele>1963.0</ele>
        <time>2014-06-30T13:41:37Z</time>
      </trkpt>
      <trkpt lat="40.575967" lon="-4.976150">
        <ele>1964.0</ele>
        <time>2014-06-30T13:41:38Z</time>
      </trkpt>
      <trkpt lat="40.576000" lon="-4.976167">
        <ele>1965.0</ele>
        <time>2014-06-30T13:41:39Z</time>
      </trkpt>
      <trkpt lat="40.576017" lon="-4.976167">
        <ele>1966.0</ele>
        <time>2014-06-30T13:41:40Z</time>
      </trkpt>
      <trkpt lat="40.576050" lon="-4.976200">
        <ele>1968.0</ele>
        <time>2014-06-30T13:41:41Z</time>
      </trkpt>
      <trkpt lat="40.576067" lon="-4.976233">
        <ele>1969.0</ele>
        <time>2014-06-30T13:41:42Z</time>
      </trkpt>
      <trkpt lat="40.576100" lon="-4.976250">
        <ele>1970.0</ele>
        <time>2014-06-30T13:41:43Z</time>
      </trkpt>
      <trkpt lat="40.576150" lon="-4.976267">
        <ele>1971.0</ele>
        <time>2014-06-30T13:41:44Z</time>
      </trkpt>
      <trkpt lat="40.576217" lon="-4.976267">
        <ele>1971.0</ele>
        <time>2014-06-30T13:41:45Z</time>
      </trkpt>
      <trkpt lat="40.576283" lon="-4.976217">
        <ele>1971.0</ele>
        <time>2014-06-30T13:41:46Z</time>
      </trkpt>
      <trkpt lat="40.576367" lon="-4.976133">
        <ele>1970.0</ele>
        <time>2014-06-30T13:41:47Z</time>
      </trkpt>
      <trkpt lat="40.576467" lon="-4.976017">
        <ele>1969.0</ele>
        <time>2014-06-30T13:41:48Z</time>
      </trkpt>
      <trkpt lat="40.576533" lon="-4.975850">
        <ele>1969.0</ele>
        <time>2014-06-30T13:41:49Z</time>
      </trkpt>
      <trkpt lat="40.576583" lon="-4.975667">
        <ele>1969.0</ele>
        <time>2014-06-30T13:41:50Z</time>
      </trkpt>
      <trkpt lat="40.576617" lon="-4.975483">
        <ele>1969.0</ele>
        <time>2014-06-30T13:41:51Z</time>
      </trkpt>
      <trkpt lat="40.576633" lon="-4.975300">
        <ele>1970.0</ele>
        <time>2014-06-30T13:41:52Z</time>
      </trkpt>
      <trkpt lat="40.576633" lon="-4.975117">
        <ele>1970.0</ele>
        <time>2014-06-30T13:41:53Z</time>
      </trkpt>
      <trkpt lat="40.576633" lon="-4.974917">
        <ele>1970.0</ele>
        <time>2014-06-30T13:41:54Z</time>
      </trkpt>
      <trkpt lat="40.576633" lon="-4.974717">
        <ele>1969.0</ele>
        <time>2014-06-30T13:41:55Z</time>
      </trkpt>
      <trkpt lat="40.576617" lon="-4.974517">
        <ele>1970.0</ele>
        <time>2014-06-30T13:41:56Z</time>
      </trkpt>
      <trkpt lat="40.576567" lon="-4.974317">
        <ele>1971.0</ele>
        <time>2014-06-30T13:41:57Z</time>
      </trkpt>
      <trkpt lat="40.576533" lon="-4.974133">
        <ele>1972.0</ele>
        <time>2014-06-30T13:41:58Z</time>
      </trkpt>
      <trkpt lat="40.576483" lon="-4.973950">
        <ele>1974.0</ele>
        <time>2014-06-30T13:41:59Z</time>
      </trkpt>
      <trkpt lat="40.576433" lon="-4.973783">
        <ele>1976.0</ele>
        <time>2014-06-30T13:42:00Z</time>
      </trkpt>
      <trkpt lat="40.576383" lon="-4.973633">
        <ele>1978.0</ele>
        <time>2014-06-30T13:42:01Z</time>
      </trkpt>
      <trkpt lat="40.576333" lon="-4.973483">
        <ele>1979.0</ele>
        <time>2014-06-30T13:42:02Z</time>
      </trkpt>
      <trkpt lat="40.576283" lon="-4.973333">
        <ele>1980.0</ele>
        <time>2014-06-30T13:42:03Z</time>
      </trkpt>
      <trkpt lat="40.576200" lon="-4.973200">
        <ele>1980.0</ele>
        <time>2014-06-30T13:42:04Z</time>
      </trkpt>
      <trkpt lat="40.576117" lon="-4.973100">
        <ele>1981.0</ele>
        <time>2014-06-30T13:42:05Z</time>
      </trkpt>
      <trkpt lat="40.576033" lon="-4.973033">
        <ele>1981.0</ele>
        <time>2014-06-30T13:42:06Z</time>
      </trkpt>
      <trkpt lat="40.575933" lon="-4.973000">
        <ele>1981.0</ele>
        <time>2014-06-30T13:42:07Z</time>
      </trkpt>
      <trkpt lat="40.575850" lon="-4.972967">
        <ele>1982.0</ele>
        <time>2014-06-30T13:42:08Z</time>
      </trkpt>
      <trkpt lat="40.575783" lon="-4.972967">
        <ele>1982.0</ele>
        <time>2014-06-30T13:42:09Z</time>
      </trkpt>
      <trkpt lat="40.575717" lon="-4.972983">
        <ele>1982.0</ele>
        <time>2014-06-30T13:42:10Z</time>
      </trkpt>
      <trkpt lat="40.575667" lon="-4.973000">
        <ele>1982.0</ele>
        <time>2014-06-30T13:42:11Z</time>
      </trkpt>
      <trkpt lat="40.575633" lon="-4.973017">
        <ele>1982.0</ele>
        <time>2014-06-30T13:42:12Z</time>
      </trkpt>
      <trkpt lat="40.575617" lon="-4.973050">
        <ele>1981.0</ele>
        <time>2014-06-30T13:42:13Z</time>
      </trkpt>
      <trkpt lat="40.575583" lon="-4.973083">
        <ele>1980.0</ele>
        <time>2014-06-30T13:42:14Z</time>
      </trkpt>
      <trkpt lat="40.575567" lon="-4.973117">
        <ele>1980.0</ele>
        <time>2014-06-30T13:42:15Z</time>
      </trkpt>
      <trkpt lat="40.575567" lon="-4.973150">
        <ele>1979.0</ele>
        <time>2014-06-30T13:42:16Z</time>
      </trkpt>
      <trkpt lat="40.575567" lon="-4.973183">
        <ele>1978.0</ele>
        <time>2014-06-30T13:42:17Z</time>
      </trkpt>
      <trkpt lat="40.575600" lon="-4.973200">
        <ele>1978.0</ele>
        <time>2014-06-30T13:42:18Z</time>
      </trkpt>
      <trkpt lat="40.575633" lon="-4.973233">
        <ele>1978.0</ele>
        <time>2014-06-30T13:42:19Z</time>
      </trkpt>
      <trkpt lat="40.575683" lon="-4.973267">
        <ele>1978.0</ele>
        <time>2014-06-30T13:42:20Z</time>
      </trkpt>
      <trkpt lat="40.575717" lon="-4.973283">
        <ele>1979.0</ele>
        <time>2014-06-30T13:42:21Z</time>
      </trkpt>
      <trkpt lat="40.575733" lon="-4.973300">
        <ele>1981.0</ele>
        <time>2014-06-30T13:42:22Z</time>
      </trkpt>
      <trkpt lat="40.575767" lon="-4.973317">
        <ele>1982.0</ele>
        <time>2014-06-30T13:42:23Z</time>
      </trkpt>
      <trkpt lat="40.575800" lon="-4.973317">
        <ele>1982.0</ele>
        <time>2014-06-30T13:42:24Z</time>
      </trkpt>
      <trkpt lat="40.575850" lon="-4.973317">
        <ele>1982.0</ele>
        <time>2014-06-30T13:42:25Z</time>
      </trkpt>
      <trkpt lat="40.575883" lon="-4.973317">
        <ele>1982.0</ele>
        <time>2014-06-30T13:42:26Z</time>
      </trkpt>
      <trkpt lat="40.575917" lon="-4.973333">
        <ele>1981.0</ele>
        <time>2014-06-30T13:42:27Z</time>
      </trkpt>
      <trkpt lat="40.575967" lon="-4.973317">
        <ele>1980.0</ele>
        <time>2014-06-30T13:42:28Z</time>
      </trkpt>
      <trkpt lat="40.576017" lon="-4.973300">
        <ele>1979.0</ele>
        <time>2014-06-30T13:42:29Z</time>
      </trkpt>
      <trkpt lat="40.576100" lon="-4.973267">
        <ele>1977.0</ele>
        <time>2014-06-30T13:42:30Z</time>
      </trkpt>
      <trkpt lat="40.576200" lon="-4.973233">
        <ele>1975.0</ele>
        <time>2014-06-30T13:42:31Z</time>
      </trkpt>
      <trkpt lat="40.576283" lon="-4.973167">
        <ele>1974.0</ele>
        <time>2014-06-30T13:42:32Z</time>
      </trkpt>
      <trkpt lat="40.576350" lon="-4.973050">
        <ele>1973.0</ele>
        <time>2014-06-30T13:42:33Z</time>
      </trkpt>
      <trkpt lat="40.576400" lon="-4.972917">
        <ele>1974.0</ele>
        <time>2014-06-30T13:42:34Z</time>
      </trkpt>
      <trkpt lat="40.576433" lon="-4.972750">
        <ele>1975.0</ele>
        <time>2014-06-30T13:42:35Z</time>
      </trkpt>
      <trkpt lat="40.576467" lon="-4.972583">
        <ele>1975.0</ele>
        <time>2014-06-30T13:42:36Z</time>
      </trkpt>
      <trkpt lat="40.576500" lon="-4.972417">
        <ele>1975.0</ele>
        <time>2014-06-30T13:42:37Z</time>
      </trkpt>
      <trkpt lat="40.576533" lon="-4.972267">
        <ele>1975.0</ele>
        <time>2014-06-30T13:42:38Z</time>
      </trkpt>
      <trkpt lat="40.576567" lon="-4.972100">
        <ele>1975.0</ele>
        <time>2014-06-30T13:42:39Z</time>
      </trkpt>
      <trkpt lat="40.576600" lon="-4.971933">
        <ele>1975.0</ele>
        <time>2014-06-30T13:42:40Z</time>
      </trkpt>
      <trkpt lat="40.576600" lon="-4.971750">
        <ele>1975.0</ele>
        <time>2014-06-30T13:42:41Z</time>
      </trkpt>
      <trkpt lat="40.576600" lon="-4.971550">
        <ele>1974.0</ele>
        <time>2014-06-30T13:42:42Z</time>
      </trkpt>
      <trkpt lat="40.576567" lon="-4.971333">
        <ele>1974.0</ele>
        <time>2014-06-30T13:42:43Z</time>
      </trkpt>
      <trkpt lat="40.576533" lon="-4.971133">
        <ele>1975.0</ele>
        <time>2014-06-30T13:42:44Z</time>
      </trkpt>
      <trkpt lat="40.576500" lon="-4.970950">
        <ele>1977.0</ele>
        <time>2014-06-30T13:42:45Z</time>
      </trkpt>
      <trkpt lat="40.576467" lon="-4.970783">
        <ele>1980.0</ele>
        <time>2014-06-30T13:42:46Z</time>
      </trkpt>
      <trkpt lat="40.576417" lon="-4.970617">
        <ele>1981.0</ele>
        <time>2014-06-30T13:42:47Z</time>
      </trkpt>
      <trkpt lat="40.576383" lon="-4.970433">
        <ele>1982.0</ele>
        <time>2014-06-30T13:42:48Z</time>
      </trkpt>
      <trkpt lat="40.576333" lon="-4.970233">
        <ele>1982.0</ele>
        <time>2014-06-30T13:42:49Z</time>
      </trkpt>
      <trkpt lat="40.576283" lon="-4.970050">
        <ele>1982.0</ele>
        <time>2014-06-30T13:42:50Z</time>
      </trkpt>
      <trkpt lat="40.576233" lon="-4.969867">
        <ele>1982.0</ele>
        <time>2014-06-30T13:42:51Z</time>
      </trkpt>
      <trkpt lat="40.576167" lon="-4.969717">
        <ele>1983.0</ele>
        <time>2014-06-30T13:42:52Z</time>
      </trkpt>
      <trkpt lat="40.576100" lon="-4.969583">
        <ele>1984.0</ele>
        <time>2014-06-30T13:42:53Z</time>
      </trkpt>
      <trkpt lat="40.576033" lon="-4.969483">
        <ele>1984.0</ele>
        <time>2014-06-30T13:42:54Z</time>
      </trkpt>
      <trkpt lat="40.575950" lon="-4.969400">
        <ele>1984.0</ele>
        <time>2014-06-30T13:42:55Z</time>
      </trkpt>
      <trkpt lat="40.575867" lon="-4.969350">
        <ele>1984.0</ele>
        <time>2014-06-30T13:42:56Z</time>
      </trkpt>
      <trkpt lat="40.575783" lon="-4.969317">
        <ele>1983.0</ele>
        <time>2014-06-30T13:42:57Z</time>
      </trkpt>
      <trkpt lat="40.575700" lon="-4.969300">
        <ele>1983.0</ele>
        <time>2014-06-30T13:42:58Z</time>
      </trkpt>
      <trkpt lat="40.575633" lon="-4.969300">
        <ele>1982.0</ele>
        <time>2014-06-30T13:42:59Z</time>
      </trkpt>
      <trkpt lat="40.575583" lon="-4.969317">
        <ele>1982.0</ele>
        <time>2014-06-30T13:43:00Z</time>
      </trkpt>
      <trkpt lat="40.575550" lon="-4.969333">
        <ele>1981.0</ele>
        <time>2014-06-30T13:43:01Z</time>
      </trkpt>
      <trkpt lat="40.575533" lon="-4.969367">
        <ele>1980.0</ele>
        <time>2014-06-30T13:43:02Z</time>
      </trkpt>
      <trkpt lat="40.575533" lon="-4.969417">
        <ele>1980.0</ele>
        <time>2014-06-30T13:43:03Z</time>
      </trkpt>
      <trkpt lat="40.575533" lon="-4.969450">
        <ele>1980.0</ele>
        <time>2014-06-30T13:43:04Z</time>
      </trkpt>
      <trkpt lat="40.575550" lon="-4.969483">
        <ele>1979.0</ele>
        <time>2014-06-30T13:43:05Z</time>
      </trkpt>
      <trkpt lat="40.575567" lon="-4.969500">
        <ele>1980.0</ele>
        <time>2014-06-30T13:43:06Z</time>
      </trkpt>
      <trkpt lat="40.575583" lon="-4.969500">
        <ele>1980.0</ele>
        <time>2014-06-30T13:43:07Z</time>
      </trkpt>
      <trkpt lat="40.575600" lon="-4.969500">
        <ele>1981.0</ele>
        <time>2014-06-30T13:43:08Z</time>
      </trkpt>
      <trkpt lat="40.575617" lon="-4.969517">
        <ele>1982.0</ele>
        <time>2014-06-30T13:43:09Z</time>
      </trkpt>
      <trkpt lat="40.575617" lon="-4.969533">
        <ele>1983.0</ele>
        <time>2014-06-30T13:43:10Z</time>
      </trkpt>
      <trkpt lat="40.575633" lon="-4.969533">
        <ele>1983.0</ele>
        <time>2014-06-30T13:43:11Z</time>
      </trkpt>
      <trkpt lat="40.575633" lon="-4.969550">
        <ele>1983.0</ele>
        <time>2014-06-30T13:43:12Z</time>
      </trkpt>
      <trkpt lat="40.575650" lon="-4.969550">
        <ele>1983.0</ele>
        <time>2014-06-30T13:43:13Z</time>
      </trkpt>
      <trkpt lat="40.575667" lon="-4.969567">
        <ele>1983.0</ele>
        <time>2014-06-30T13:43:14Z</time>
      </trkpt>
      <trkpt lat="40.575683" lon="-4.969583">
        <ele>1984.0</ele>
        <time>2014-06-30T13:43:15Z</time>
      </trkpt>
      <trkpt lat="40.575700" lon="-4.969600">
        <ele>1985.0</ele>
        <time>2014-06-30T13:43:16Z</time>
      </trkpt>
      <trkpt lat="40.575717" lon="-4.969600">
        <ele>1986.0</ele>
        <time>2014-06-30T13:43:17Z</time>
      </trkpt>
      <trkpt lat="40.575750" lon="-4.969600">
        <ele>1988.0</ele>
        <time>2014-06-30T13:43:18Z</time>
      </trkpt>
      <trkpt lat="40.575767" lon="-4.969600">
        <ele>1988.0</ele>
        <time>2014-06-30T13:43:19Z</time>
      </trkpt>
      <trkpt lat="40.575800" lon="-4.969600">
        <ele>1989.0</ele>
        <time>2014-06-30T13:43:20Z</time>
      </trkpt>
      <trkpt lat="40.575817" lon="-4.969617">
        <ele>1989.0</ele>
        <time>2014-06-30T13:43:21Z</time>
      </trkpt>
      <trkpt lat="40.575850" lon="-4.969650">
        <ele>1989.0</ele>
        <time>2014-06-30T13:43:22Z</time>
      </trkpt>
      <trkpt lat="40.575867" lon="-4.969667">
        <ele>1990.0</ele>
        <time>2014-06-30T13:43:23Z</time>
      </trkpt>
      <trkpt lat="40.575900" lon="-4.969683">
        <ele>1991.0</ele>
        <time>2014-06-30T13:43:24Z</time>
      </trkpt>
      <trkpt lat="40.575933" lon="-4.969700">
        <ele>1993.0</ele>
        <time>2014-06-30T13:43:25Z</time>
      </trkpt>
      <trkpt lat="40.575950" lon="-4.969700">
        <ele>1994.0</ele>
        <time>2014-06-30T13:43:26Z</time>
      </trkpt>
      <trkpt lat="40.575983" lon="-4.969717">
        <ele>1995.0</ele>
        <time>2014-06-30T13:43:27Z</time>
      </trkpt>
      <trkpt lat="40.576017" lon="-4.969733">
        <ele>1995.0</ele>
        <time>2014-06-30T13:43:28Z</time>
      </trkpt>
      <trkpt lat="40.576033" lon="-4.969733">
        <ele>1996.0</ele>
        <time>2014-06-30T13:43:29Z</time>
      </trkpt>
      <trkpt lat="40.576050" lon="-4.969733">
        <ele>1997.0</ele>
        <time>2014-06-30T13:43:30Z</time>
      </trkpt>
      <trkpt lat="40.576083" lon="-4.969733">
        <ele>1997.0</ele>
        <time>2014-06-30T13:43:31Z</time>
      </trkpt>
      <trkpt lat="40.576117" lon="-4.969733">
        <ele>1997.0</ele>
        <time>2014-06-30T13:43:32Z</time>
      </trkpt>
      <trkpt lat="40.576150" lon="-4.969733">
        <ele>1998.0</ele>
        <time>2014-06-30T13:43:33Z</time>
      </trkpt>
      <trkpt lat="40.576217" lon="-4.969700">
        <ele>1998.0</ele>
        <time>2014-06-30T13:43:34Z</time>
      </trkpt>
      <trkpt lat="40.576283" lon="-4.969650">
        <ele>1998.0</ele>
        <time>2014-06-30T13:43:35Z</time>
      </trkpt>
      <trkpt lat="40.576350" lon="-4.969567">
        <ele>1999.0</ele>
        <time>2014-06-30T13:43:36Z</time>
      </trkpt>
      <trkpt lat="40.576433" lon="-4.969450">
        <ele>1999.0</ele>
        <time>2014-06-30T13:43:37Z</time>
      </trkpt>
      <trkpt lat="40.576483" lon="-4.969300">
        <ele>1999.0</ele>
        <time>2014-06-30T13:43:38Z</time>
      </trkpt>
      <trkpt lat="40.576533" lon="-4.969133">
        <ele>1999.0</ele>
        <time>2014-06-30T13:43:39Z</time>
      </trkpt>
      <trkpt lat="40.576550" lon="-4.968933">
        <ele>1999.0</ele>
        <time>2014-06-30T13:43:40Z</time>
      </trkpt>
      <trkpt lat="40.576567" lon="-4.968717">
        <ele>1999.0</ele>
        <time>2014-06-30T13:43:41Z</time>
      </trkpt>
      <trkpt lat="40.576533" lon="-4.968517">
        <ele>2000.0</ele>
        <time>2014-06-30T13:43:42Z</time>
      </trkpt>
      <trkpt lat="40.576500" lon="-4.968317">
        <ele>2000.0</ele>
        <time>2014-06-30T13:43:43Z</time>
      </trkpt>
      <trkpt lat="40.576433" lon="-4.968150">
        <ele>2002.0</ele>
        <time>2014-06-30T13:43:44Z</time>
      </trkpt>
      <trkpt lat="40.576383" lon="-4.967983">
        <ele>2003.0</ele>
        <time>2014-06-30T13:43:45Z</time>
      </trkpt>
      <trkpt lat="40.576300" lon="-4.967833">
        <ele>2003.0</ele>
        <time>2014-06-30T13:43:46Z</time>
      </trkpt>
      <trkpt lat="40.576217" lon="-4.967733">
        <ele>2004.0</ele>
        <time>2014-06-30T13:43:47Z</time>
      </trkpt>
      <trkpt lat="40.576133" lon="-4.967650">
        <ele>2004.0</ele>
        <time>2014-06-30T13:43:48Z</time>
      </trkpt>
      <trkpt lat="40.576050" lon="-4.967600">
        <ele>2003.0</ele>
        <time>2014-06-30T13:43:49Z</time>
      </trkpt>
      <trkpt lat="40.576000" lon="-4.967617">
        <ele>2003.0</ele>
        <time>2014-06-30T13:43:50Z</time>
      </trkpt>
      <trkpt lat="40.575967" lon="-4.967633">
        <ele>2003.0</ele>
        <time>2014-06-30T13:43:51Z</time>
      </trkpt>
      <trkpt lat="40.575983" lon="-4.967650">
        <ele>2003.0</ele>
        <time>2014-06-30T13:43:52Z</time>
      </trkpt>
      <trkpt lat="40.576000" lon="-4.967650">
        <ele>2004.0</ele>
        <time>2014-06-30T13:43:53Z</time>
      </trkpt>
      <trkpt lat="40.576033" lon="-4.967667">
        <ele>2004.0</ele>
        <time>2014-06-30T13:43:54Z</time>
      </trkpt>
      <trkpt lat="40.576067" lon="-4.967667">
        <ele>2004.0</ele>
        <time>2014-06-30T13:43:55Z</time>
      </trkpt>
      <trkpt lat="40.576100" lon="-4.967667">
        <ele>2005.0</ele>
        <time>2014-06-30T13:43:56Z</time>
      </trkpt>
      <trkpt lat="40.576150" lon="-4.967667">
        <ele>2005.0</ele>
        <time>2014-06-30T13:43:57Z</time>
      </trkpt>
      <trkpt lat="40.576183" lon="-4.967650">
        <ele>2006.0</ele>
        <time>2014-06-30T13:43:58Z</time>
      </trkpt>
      <trkpt lat="40.576233" lon="-4.967633">
        <ele>2006.0</ele>
        <time>2014-06-30T13:43:59Z</time>
      </trkpt>
      <trkpt lat="40.576267" lon="-4.967633">
        <ele>2006.0</ele>
        <time>2014-06-30T13:44:00Z</time>
      </trkpt>
      <trkpt lat="40.576300" lon="-4.967650">
        <ele>2006.0</ele>
        <time>2014-06-30T13:44:01Z</time>
      </trkpt>
      <trkpt lat="40.576333" lon="-4.967667">
        <ele>2005.0</ele>
        <time>2014-06-30T13:44:02Z</time>
      </trkpt>
      <trkpt lat="40.576367" lon="-4.967700">
        <ele>2005.0</ele>
        <time>2014-06-30T13:44:03Z</time>
      </trkpt>
      <trkpt lat="40.576383" lon="-4.967717">
        <ele>2006.0</ele>
        <time>2014-06-30T13:44:04Z</time>
      </trkpt>
      <trkpt lat="40.576400" lon="-4.967717">
        <ele>2008.0</ele>
        <time>2014-06-30T13:44:05Z</time>
      </trkpt>
      <trkpt lat="40.576417" lon="-4.967700">
        <ele>2009.0</ele>
        <time>2014-06-30T13:44:06Z</time>
      </trkpt>
      <trkpt lat="40.576433" lon="-4.967717">
        <ele>2010.0</ele>
        <time>2014-06-30T13:44:07Z</time>
      </trkpt>
      <trkpt lat="40.576450" lon="-4.967717">
        <ele>2011.0</ele>
        <time>2014-06-30T13:44:08Z</time>
      </trkpt>
      <trkpt lat="40.576483" lon="-4.967733">
        <ele>2012.0</ele>
        <time>2014-06-30T13:44:09Z</time>
      </trkpt>
      <trkpt lat="40.576500" lon="-4.967733">
        <ele>2012.0</ele>
        <time>2014-06-30T13:44:10Z</time>
      </trkpt>
      <trkpt lat="40.576517" lon="-4.967750">
        <ele>2012.0</ele>
        <time>2014-06-30T13:44:11Z</time>
      </trkpt>
      <trkpt lat="40.576550" lon="-4.967750">
        <ele>2011.0</ele>
        <time>2014-06-30T13:44:12Z</time>
      </trkpt>
      <trkpt lat="40.576583" lon="-4.967750">
        <ele>2010.0</ele>
        <time>2014-06-30T13:44:13Z</time>
      </trkpt>
      <trkpt lat="40.576617" lon="-4.967750">
        <ele>2009.0</ele>
        <time>2014-06-30T13:44:14Z</time>
      </trkpt>
      <trkpt lat="40.576667" lon="-4.967733">
        <ele>2009.0</ele>
        <time>2014-06-30T13:44:15Z</time>
      </trkpt>
      <trkpt lat="40.576733" lon="-4.967717">
        <ele>2008.0</ele>
        <time>2014-06-30T13:44:16Z</time>
      </trkpt>
      <trkpt lat="40.576783" lon="-4.967700">
        <ele>2007.0</ele>
        <time>2014-06-30T13:44:17Z</time>
      </trkpt>
      <trkpt lat="40.576833" lon="-4.967667">
        <ele>2007.0</ele>
        <time>2014-06-30T13:44:18Z</time>
      </trkpt>
      <trkpt lat="40.576900" lon="-4.967617">
        <ele>2006.0</ele>
        <time>2014-06-30T13:44:19Z</time>
      </trkpt>
      <trkpt lat="40.576967" lon="-4.967517">
        <ele>2005.0</ele>
        <time>2014-06-30T13:44:20Z</time>
      </trkpt>
      <trkpt lat="40.577017" lon="-4.967400">
        <ele>2003.0</ele>
        <time>2014-06-30T13:44:21Z</time>
      </trkpt>
      <trkpt lat="40.577067" lon="-4.967267">
        <ele>2001.0</ele>
        <time>2014-06-30T13:44:22Z</time>
      </trkpt>
      <trkpt lat="40.577117" lon="-4.967100">
        <ele>2000.0</ele>
        <time>2014-06-30T13:44:23Z</time>
      </trkpt>
      <trkpt lat="40.577150" lon="-4.966933">
        <ele>1998.0</ele>
        <time>2014-06-30T13:44:24Z</time>
      </trkpt>
      <trkpt lat="40.577183" lon="-4.966767">
        <ele>1997.0</ele>
        <time>2014-06-30T13:44:25Z</time>
      </trkpt>
      <trkpt lat="40.577200" lon="-4.966583">
        <ele>1996.0</ele>
        <time>2014-06-30T13:44:26Z</time>
      </trkpt>
      <trkpt lat="40.577200" lon="-4.966400">
        <ele>1996.0</ele>
        <time>2014-06-30T13:44:27Z</time>
      </trkpt>
      <trkpt lat="40.577200" lon="-4.966217">
        <ele>1995.0</ele>
        <time>2014-06-30T13:44:28Z</time>
      </trkpt>
      <trkpt lat="40.577200" lon="-4.966033">
        <ele>1995.0</ele>
        <time>2014-06-30T13:44:29Z</time>
      </trkpt>
      <trkpt lat="40.577200" lon="-4.965850">
        <ele>1994.0</ele>
        <time>2014-06-30T13:44:30Z</time>
      </trkpt>
      <trkpt lat="40.577200" lon="-4.965650">
        <ele>1994.0</ele>
        <time>2014-06-30T13:44:31Z</time>
      </trkpt>
      <trkpt lat="40.577200" lon="-4.965467">
        <ele>1995.0</ele>
        <time>2014-06-30T13:44:32Z</time>
      </trkpt>
      <trkpt lat="40.577200" lon="-4.965283">
        <ele>1996.0</ele>
        <time>2014-06-30T13:44:33Z</time>
      </trkpt>
      <trkpt lat="40.577167" lon="-4.965117">
        <ele>1997.0</ele>
        <time>2014-06-30T13:44:34Z</time>
      </trkpt>
      <trkpt lat="40.577133" lon="-4.964933">
        <ele>1999.0</ele>
        <time>2014-06-30T13:44:35Z</time>
      </trkpt>
      <trkpt lat="40.577083" lon="-4.964783">
        <ele>2001.0</ele>
        <time>2014-06-30T13:44:36Z</time>
      </trkpt>
      <trkpt lat="40.577017" lon="-4.964633">
        <ele>2002.0</ele>
        <time>2014-06-30T13:44:37Z</time>
      </trkpt>
      <trkpt lat="40.576917" lon="-4.964500">
        <ele>2002.0</ele>
        <time>2014-06-30T13:44:38Z</time>
      </trkpt>
      <trkpt lat="40.576817" lon="-4.964383">
        <ele>2003.0</ele>
        <time>2014-06-30T13:44:39Z</time>
      </trkpt>
      <trkpt lat="40.576717" lon="-4.964300">
        <ele>2003.0</ele>
        <time>2014-06-30T13:44:40Z</time>
      </trkpt>
      <trkpt lat="40.576617" lon="-4.964233">
        <ele>2003.0</ele>
        <time>2014-06-30T13:44:41Z</time>
      </trkpt>
      <trkpt lat="40.576533" lon="-4.964217">
        <ele>2004.0</ele>
        <time>2014-06-30T13:44:42Z</time>
      </trkpt>
      <trkpt lat="40.576467" lon="-4.964217">
        <ele>2004.0</ele>
        <time>2014-06-30T13:44:43Z</time>
      </trkpt>
      <trkpt lat="40.576417" lon="-4.964233">
        <ele>2004.0</ele>
        <time>2014-06-30T13:44:44Z</time>
      </trkpt>
      <trkpt lat="40.576350" lon="-4.964250">
        <ele>2004.0</ele>
        <time>2014-06-30T13:44:45Z</time>
      </trkpt>
      <trkpt lat="40.576283" lon="-4.964250">
        <ele>2004.0</ele>
        <time>2014-06-30T13:44:46Z</time>
      </trkpt>
      <trkpt lat="40.576233" lon="-4.964267">
        <ele>2004.0</ele>
        <time>2014-06-30T13:44:47Z</time>
      </trkpt>
      <trkpt lat="40.576200" lon="-4.964283">
        <ele>2005.0</ele>
        <time>2014-06-30T13:44:48Z</time>
      </trkpt>
      <trkpt lat="40.576167" lon="-4.964300">
        <ele>2005.0</ele>
        <time>2014-06-30T13:44:49Z</time>
      </trkpt>
      <trkpt lat="40.576133" lon="-4.964333">
        <ele>2006.0</ele>
        <time>2014-06-30T13:44:50Z</time>
      </trkpt>
      <trkpt lat="40.576133" lon="-4.964367">
        <ele>2006.0</ele>
        <time>2014-06-30T13:44:51Z</time>
      </trkpt>
      <trkpt lat="40.576150" lon="-4.964400">
        <ele>2006.0</ele>
        <time>2014-06-30T13:44:52Z</time>
      </trkpt>
      <trkpt lat="40.576183" lon="-4.964417">
        <ele>2006.0</ele>
        <time>2014-06-30T13:44:53Z</time>
      </trkpt>
      <trkpt lat="40.576217" lon="-4.964433">
        <ele>2006.0</ele>
        <time>2014-06-30T13:44:54Z</time>
      </trkpt>
      <trkpt lat="40.576283" lon="-4.964433">
        <ele>2007.0</ele>
        <time>2014-06-30T13:44:55Z</time>
      </trkpt>
      <trkpt lat="40.576333" lon="-4.964433">
        <ele>2007.0</ele>
        <time>2014-06-30T13:44:56Z</time>
      </trkpt>
      <trkpt lat="40.576400" lon="-4.964400">
        <ele>2007.0</ele>
        <time>2014-06-30T13:44:57Z</time>
      </trkpt>
      <trkpt lat="40.576467" lon="-4.964367">
        <ele>2007.0</ele>
        <time>2014-06-30T13:44:58Z</time>
      </trkpt>
      <trkpt lat="40.576517" lon="-4.964317">
        <ele>2007.0</ele>
        <time>2014-06-30T13:44:59Z</time>
      </trkpt>
      <trkpt lat="40.576583" lon="-4.964250">
        <ele>2007.0</ele>
        <time>2014-06-30T13:45:00Z</time>
      </trkpt>
      <trkpt lat="40.576650" lon="-4.964183">
        <ele>2007.0</ele>
        <time>2014-06-30T13:45:01Z</time>
      </trkpt>
      <trkpt lat="40.576733" lon="-4.964100">
        <ele>2007.0</ele>
        <time>2014-06-30T13:45:02Z</time>
      </trkpt>
      <trkpt lat="40.576800" lon="-4.964050">
        <ele>2008.0</ele>
        <time>2014-06-30T13:45:03Z</time>
      </trkpt>
      <trkpt lat="40.576867" lon="-4.963983">
        <ele>2009.0</ele>
        <time>2014-06-30T13:45:04Z</time>
      </trkpt>
      <trkpt lat="40.576933" lon="-4.963917">
        <ele>2010.0</ele>
        <time>2014-06-30T13:45:05Z</time>
      </trkpt>
      <trkpt lat="40.577000" lon="-4.963867">
        <ele>2011.0</ele>
        <time>2014-06-30T13:45:06Z</time>
      </trkpt>
      <trkpt lat="40.577067" lon="-4.963817">
        <ele>2011.0</ele>
        <time>2014-06-30T13:45:07Z</time>
      </trkpt>
      <trkpt lat="40.577150" lon="-4.963767">
        <ele>2011.0</ele>
        <time>2014-06-30T13:45:08Z</time>
      </trkpt>
      <trkpt lat="40.577233" lon="-4.963717">
        <ele>2012.0</ele>
        <time>2014-06-30T13:45:09Z</time>
      </trkpt>
      <trkpt lat="40.577283" lon="-4.963667">
        <ele>2013.0</ele>
        <time>2014-06-30T13:45:10Z</time>
      </trkpt>
      <trkpt lat="40.577350" lon="-4.963633">
        <ele>2014.0</ele>
        <time>2014-06-30T13:45:11Z</time>
      </trkpt>
      <trkpt lat="40.577400" lon="-4.963567">
        <ele>2015.0</ele>
        <time>2014-06-30T13:45:12Z</time>
      </trkpt>
      <trkpt lat="40.577467" lon="-4.963517">
        <ele>2016.0</ele>
        <time>2014-06-30T13:45:13Z</time>
      </trkpt>
      <trkpt lat="40.577517" lon="-4.963467">
        <ele>2016.0</ele>
        <time>2014-06-30T13:45:14Z</time>
      </trkpt>
      <trkpt lat="40.577583" lon="-4.963417">
        <ele>2016.0</ele>
        <time>2014-06-30T13:45:15Z</time>
      </trkpt>
      <trkpt lat="40.577650" lon="-4.963400">
        <ele>2017.0</ele>
        <time>2014-06-30T13:45:16Z</time>
      </trkpt>
      <trkpt lat="40.577717" lon="-4.963367">
        <ele>2017.0</ele>
        <time>2014-06-30T13:45:17Z</time>
      </trkpt>
      <trkpt lat="40.577800" lon="-4.963350">
        <ele>2016.0</ele>
        <time>2014-06-30T13:45:18Z</time>
      </trkpt>
      <trkpt lat="40.577867" lon="-4.963317">
        <ele>2016.0</ele>
        <time>2014-06-30T13:45:19Z</time>
      </trkpt>
      <trkpt lat="40.577950" lon="-4.963233">
        <ele>2016.0</ele>
        <time>2014-06-30T13:45:20Z</time>
      </trkpt>
      <trkpt lat="40.578000" lon="-4.963100">
        <ele>2016.0</ele>
        <time>2014-06-30T13:45:21Z</time>
      </trkpt>
      <trkpt lat="40.578050" lon="-4.962950">
        <ele>2017.0</ele>
        <time>2014-06-30T13:45:22Z</time>
      </trkpt>
      <trkpt lat="40.578083" lon="-4.962800">
        <ele>2017.0</ele>
        <time>2014-06-30T13:45:23Z</time>
      </trkpt>
      <trkpt lat="40.578100" lon="-4.962633">
        <ele>2018.0</ele>
        <time>2014-06-30T13:45:24Z</time>
      </trkpt>
      <trkpt lat="40.578083" lon="-4.962467">
        <ele>2019.0</ele>
        <time>2014-06-30T13:45:25Z</time>
      </trkpt>
      <trkpt lat="40.578050" lon="-4.962333">
        <ele>2020.0</ele>
        <time>2014-06-30T13:45:26Z</time>
      </trkpt>
      <trkpt lat="40.577983" lon="-4.962200">
        <ele>2020.0</ele>
        <time>2014-06-30T13:45:27Z</time>
      </trkpt>
      <trkpt lat="40.577900" lon="-4.962083">
        <ele>2019.0</ele>
        <time>2014-06-30T13:45:28Z</time>
      </trkpt>
      <trkpt lat="40.577817" lon="-4.962000">
        <ele>2019.0</ele>
        <time>2014-06-30T13:45:29Z</time>
      </trkpt>
      <trkpt lat="40.577733" lon="-4.961967">
        <ele>2018.0</ele>
        <time>2014-06-30T13:45:30Z</time>
      </trkpt>
      <trkpt lat="40.577633" lon="-4.961950">
        <ele>2017.0</ele>
        <time>2014-06-30T13:45:31Z</time>
      </trkpt>
      <trkpt lat="40.577567" lon="-4.961967">
        <ele>2016.0</ele>
        <time>2014-06-30T13:45:32Z</time>
      </trkpt>
      <trkpt lat="40.577500" lon="-4.962000">
        <ele>2015.0</ele>
        <time>2014-06-30T13:45:33Z</time>
      </trkpt>
      <trkpt lat="40.577467" lon="-4.962050">
        <ele>2014.0</ele>
        <time>2014-06-30T13:45:34Z</time>
      </trkpt>
      <trkpt lat="40.577450" lon="-4.962117">
        <ele>2014.0</ele>
        <time>2014-06-30T13:45:35Z</time>
      </trkpt>
      <trkpt lat="40.577450" lon="-4.962183">
        <ele>2013.0</ele>
        <time>2014-06-30T13:45:36Z</time>
      </trkpt>
      <trkpt lat="40.577450" lon="-4.962250">
        <ele>2014.0</ele>
        <time>2014-06-30T13:45:37Z</time>
      </trkpt>
      <trkpt lat="40.577467" lon="-4.962300">
        <ele>2015.0</ele>
        <time>2014-06-30T13:45:38Z</time>
      </trkpt>
      <trkpt lat="40.577483" lon="-4.962333">
        <ele>2016.0</ele>
        <time>2014-06-30T13:45:39Z</time>
      </trkpt>
      <trkpt lat="40.577500" lon="-4.962367">
        <ele>2016.0</ele>
        <time>2014-06-30T13:45:40Z</time>
      </trkpt>
      <trkpt lat="40.577533" lon="-4.962400">
        <ele>2016.0</ele>
        <time>2014-06-30T13:45:41Z</time>
      </trkpt>
      <trkpt lat="40.577567" lon="-4.962433">
        <ele>2016.0</ele>
        <time>2014-06-30T13:45:42Z</time>
      </trkpt>
      <trkpt lat="40.577617" lon="-4.962450">
        <ele>2016.0</ele>
        <time>2014-06-30T13:45:43Z</time>
      </trkpt>
      <trkpt lat="40.577650" lon="-4.962467">
        <ele>2014.0</ele>
        <time>2014-06-30T13:45:44Z</time>
      </trkpt>
      <trkpt lat="40.577700" lon="-4.962500">
        <ele>2013.0</ele>
        <time>2014-06-30T13:45:45Z</time>
      </trkpt>
      <trkpt lat="40.577750" lon="-4.962517">
        <ele>2012.0</ele>
        <time>2014-06-30T13:45:46Z</time>
      </trkpt>
      <trkpt lat="40.577800" lon="-4.962550">
        <ele>2011.0</ele>
        <time>2014-06-30T13:45:47Z</time>
      </trkpt>
      <trkpt lat="40.577850" lon="-4.962550">
        <ele>2012.0</ele>
        <time>2014-06-30T13:45:48Z</time>
      </trkpt>
      <trkpt lat="40.577883" lon="-4.962567">
        <ele>2013.0</ele>
        <time>2014-06-30T13:45:49Z</time>
      </trkpt>
      <trkpt lat="40.577917" lon="-4.962567">
        <ele>2014.0</ele>
        <time>2014-06-30T13:45:50Z</time>
      </trkpt>
      <trkpt lat="40.577950" lon="-4.962567">
        <ele>2015.0</ele>
        <time>2014-06-30T13:45:51Z</time>
      </trkpt>
      <trkpt lat="40.577967" lon="-4.962567">
        <ele>2015.0</ele>
        <time>2014-06-30T13:45:52Z</time>
      </trkpt>
      <trkpt lat="40.578017" lon="-4.962583">
        <ele>2014.0</ele>
        <time>2014-06-30T13:45:53Z</time>
      </trkpt>
      <trkpt lat="40.578067" lon="-4.962583">
        <ele>2013.0</ele>
        <time>2014-06-30T13:45:54Z</time>
      </trkpt>
      <trkpt lat="40.578133" lon="-4.962567">
        <ele>2012.0</ele>
        <time>2014-06-30T13:45:55Z</time>
      </trkpt>
      <trkpt lat="40.578200" lon="-4.962550">
        <ele>2012.0</ele>
        <time>2014-06-30T13:45:56Z</time>
      </trkpt>
      <trkpt lat="40.578250" lon="-4.962517">
        <ele>2013.0</ele>
        <time>2014-06-30T13:45:57Z</time>
      </trkpt>
      <trkpt lat="40.578300" lon="-4.962500">
        <ele>2013.0</ele>
        <time>2014-06-30T13:45:58Z</time>
      </trkpt>
      <trkpt lat="40.578333" lon="-4.962483">
        <ele>2013.0</ele>
        <time>2014-06-30T13:45:59Z</time>
      </trkpt>
      <trkpt lat="40.578383" lon="-4.962500">
        <ele>2013.0</ele>
        <time>2014-06-30T13:46:00Z</time>
      </trkpt>
      <trkpt lat="40.578433" lon="-4.962517">
        <ele>2012.0</ele>
        <time>2014-06-30T13:46:01Z</time>
      </trkpt>
      <trkpt lat="40.578467" lon="-4.962533">
        <ele>2011.0</ele>
        <time>2014-06-30T13:46:02Z</time>
      </trkpt>
      <trkpt lat="40.578517" lon="-4.962550">
        <ele>2010.0</ele>
        <time>2014-06-30T13:46:03Z</time>
      </trkpt>
      <trkpt lat="40.578567" lon="-4.962550">
        <ele>2010.0</ele>
        <time>2014-06-30T13:46:04Z</time>
      </trkpt>
      <trkpt lat="40.578617" lon="-4.962533">
        <ele>2008.0</ele>
        <time>2014-06-30T13:46:05Z</time>
      </trkpt>
      <trkpt lat="40.578683" lon="-4.962517">
        <ele>2007.0</ele>
        <time>2014-06-30T13:46:06Z</time>
      </trkpt>
      <trkpt lat="40.578750" lon="-4.962517">
        <ele>2004.0</ele>
        <time>2014-06-30T13:46:07Z</time>
      </trkpt>
      <trkpt lat="40.578817" lon="-4.962517">
        <ele>2002.0</ele>
        <time>2014-06-30T13:46:08Z</time>
      </trkpt>
      <trkpt lat="40.578883" lon="-4.962500">
        <ele>2001.0</ele>
        <time>2014-06-30T13:46:09Z</time>
      </trkpt>
      <trkpt lat="40.578933" lon="-4.962483">
        <ele>1999.0</ele>
        <time>2014-06-30T13:46:10Z</time>
      </trkpt>
      <trkpt lat="40.579000" lon="-4.962467">
        <ele>1997.0</ele>
        <time>2014-06-30T13:46:11Z</time>
      </trkpt>
      <trkpt lat="40.579067" lon="-4.962450">
        <ele>1995.0</ele>
        <time>2014-06-30T13:46:12Z</time>
      </trkpt>
      <trkpt lat="40.579133" lon="-4.962433">
        <ele>1994.0</ele>
        <time>2014-06-30T13:46:13Z</time>
      </trkpt>
      <trkpt lat="40.579200" lon="-4.962433">
        <ele>1992.0</ele>
        <time>2014-06-30T13:46:14Z</time>
      </trkpt>
      <trkpt lat="40.579300" lon="-4.962400">
        <ele>1991.0</ele>
        <time>2014-06-30T13:46:15Z</time>
      </trkpt>
      <trkpt lat="40.579367" lon="-4.962383">
        <ele>1996.0</ele>
        <time>2014-06-30T13:46:16Z</time>
      </trkpt>
      <trkpt lat="40.579433" lon="-4.962367">
        <ele>1995.0</ele>
        <time>2014-06-30T13:46:17Z</time>
      </trkpt>
      <trkpt lat="40.579500" lon="-4.962367">
        <ele>1995.0</ele>
        <time>2014-06-30T13:46:18Z</time>
      </trkpt>
      <trkpt lat="40.579550" lon="-4.962350">
        <ele>1994.0</ele>
        <time>2014-06-30T13:46:19Z</time>
      </trkpt>
      <trkpt lat="40.579617" lon="-4.962333">
        <ele>1993.0</ele>
        <time>2014-06-30T13:46:20Z</time>
      </trkpt>
      <trkpt lat="40.579683" lon="-4.962317">
        <ele>1993.0</ele>
        <time>2014-06-30T13:46:21Z</time>
      </trkpt>
      <trkpt lat="40.579750" lon="-4.962300">
        <ele>1992.0</ele>
        <time>2014-06-30T13:46:22Z</time>
      </trkpt>
      <trkpt lat="40.579800" lon="-4.962283">
        <ele>1991.0</ele>
        <time>2014-06-30T13:46:23Z</time>
      </trkpt>
      <trkpt lat="40.579867" lon="-4.962267">
        <ele>1990.0</ele>
        <time>2014-06-30T13:46:24Z</time>
      </trkpt>
      <trkpt lat="40.579950" lon="-4.962267">
        <ele>1989.0</ele>
        <time>2014-06-30T13:46:25Z</time>
      </trkpt>
      <trkpt lat="40.580033" lon="-4.962250">
        <ele>1987.0</ele>
        <time>2014-06-30T13:46:26Z</time>
      </trkpt>
      <trkpt lat="40.580100" lon="-4.962233">
        <ele>1989.0</ele>
        <time>2014-06-30T13:46:27Z</time>
      </trkpt>
      <trkpt lat="40.580167" lon="-4.962200">
        <ele>1989.0</ele>
        <time>2014-06-30T13:46:28Z</time>
      </trkpt>
      <trkpt lat="40.580233" lon="-4.962167">
        <ele>1988.0</ele>
        <time>2014-06-30T13:46:29Z</time>
      </trkpt>
      <trkpt lat="40.580317" lon="-4.962150">
        <ele>1988.0</ele>
        <time>2014-06-30T13:46:30Z</time>
      </trkpt>
      <trkpt lat="40.580383" lon="-4.962133">
        <ele>1987.0</ele>
        <time>2014-06-30T13:46:31Z</time>
      </trkpt>
      <trkpt lat="40.580467" lon="-4.962133">
        <ele>1987.0</ele>
        <time>2014-06-30T13:46:32Z</time>
      </trkpt>
      <trkpt lat="40.580533" lon="-4.962133">
        <ele>1986.0</ele>
        <time>2014-06-30T13:46:33Z</time>
      </trkpt>
      <trkpt lat="40.580600" lon="-4.962117">
        <ele>1986.0</ele>
        <time>2014-06-30T13:46:34Z</time>
      </trkpt>
      <trkpt lat="40.580667" lon="-4.962083">
        <ele>1985.0</ele>
        <time>2014-06-30T13:46:35Z</time>
      </trkpt>
      <trkpt lat="40.580750" lon="-4.962067">
        <ele>1984.0</ele>
        <time>2014-06-30T13:46:36Z</time>
      </trkpt>
      <trkpt lat="40.580833" lon="-4.962033">
        <ele>1984.0</ele>
        <time>2014-06-30T13:46:37Z</time>
      </trkpt>
      <trkpt lat="40.580933" lon="-4.962017">
        <ele>1984.0</ele>
        <time>2014-06-30T13:46:38Z</time>
      </trkpt>
      <trkpt lat="40.581017" lon="-4.962000">
        <ele>1983.0</ele>
        <time>2014-06-30T13:46:39Z</time>
      </trkpt>
      <trkpt lat="40.581117" lon="-4.961983">
        <ele>1982.0</ele>
        <time>2014-06-30T13:46:40Z</time>
      </trkpt>
      <trkpt lat="40.581217" lon="-4.961950">
        <ele>1982.0</ele>
        <time>2014-06-30T13:46:41Z</time>
      </trkpt>
      <trkpt lat="40.581300" lon="-4.961917">
        <ele>1981.0</ele>
        <time>2014-06-30T13:46:42Z</time>
      </trkpt>
      <trkpt lat="40.581383" lon="-4.961867">
        <ele>1979.0</ele>
        <time>2014-06-30T13:46:43Z</time>
      </trkpt>
      <trkpt lat="40.581483" lon="-4.961833">
        <ele>1978.0</ele>
        <time>2014-06-30T13:46:44Z</time>
      </trkpt>
      <trkpt lat="40.581567" lon="-4.961783">
        <ele>1977.0</ele>
        <time>2014-06-30T13:46:45Z</time>
      </trkpt>
      <trkpt lat="40.581650" lon="-4.961733">
        <ele>1975.0</ele>
        <time>2014-06-30T13:46:46Z</time>
      </trkpt>
      <trkpt lat="40.581733" lon="-4.961700">
        <ele>1973.0</ele>
        <time>2014-06-30T13:46:47Z</time>
      </trkpt>
      <trkpt lat="40.581800" lon="-4.961667">
        <ele>1972.0</ele>
        <time>2014-06-30T13:46:48Z</time>
      </trkpt>
      <trkpt lat="40.581867" lon="-4.961650">
        <ele>1970.0</ele>
        <time>2014-06-30T13:46:49Z</time>
      </trkpt>
      <trkpt lat="40.581950" lon="-4.961600">
        <ele>1969.0</ele>
        <time>2014-06-30T13:46:50Z</time>
      </trkpt>
      <trkpt lat="40.582017" lon="-4.961567">
        <ele>1970.0</ele>
        <time>2014-06-30T13:46:51Z</time>
      </trkpt>
      <trkpt lat="40.582083" lon="-4.961517">
        <ele>1969.0</ele>
        <time>2014-06-30T13:46:52Z</time>
      </trkpt>
      <trkpt lat="40.582150" lon="-4.961483">
        <ele>1968.0</ele>
        <time>2014-06-30T13:46:53Z</time>
      </trkpt>
      <trkpt lat="40.582200" lon="-4.961467">
        <ele>1967.0</ele>
        <time>2014-06-30T13:46:54Z</time>
      </trkpt>
      <trkpt lat="40.582250" lon="-4.961450">
        <ele>1966.0</ele>
        <time>2014-06-30T13:46:55Z</time>
      </trkpt>
      <trkpt lat="40.582300" lon="-4.961433">
        <ele>1965.0</ele>
        <time>2014-06-30T13:46:56Z</time>
      </trkpt>
      <trkpt lat="40.582350" lon="-4.961433">
        <ele>1964.0</ele>
        <time>2014-06-30T13:46:57Z</time>
      </trkpt>
      <trkpt lat="40.582383" lon="-4.961450">
        <ele>1964.0</ele>
        <time>2014-06-30T13:46:58Z</time>
      </trkpt>
      <trkpt lat="40.582433" lon="-4.961450">
        <ele>1963.0</ele>
        <time>2014-06-30T13:46:59Z</time>
      </trkpt>
      <trkpt lat="40.582483" lon="-4.961467">
        <ele>1962.0</ele>
        <time>2014-06-30T13:47:00Z</time>
      </trkpt>
      <trkpt lat="40.582533" lon="-4.961467">
        <ele>1961.0</ele>
        <time>2014-06-30T13:47:01Z</time>
      </trkpt>
      <trkpt lat="40.582567" lon="-4.961450">
        <ele>1961.0</ele>
        <time>2014-06-30T13:47:02Z</time>
      </trkpt>
      <trkpt lat="40.582617" lon="-4.961450">
        <ele>1960.0</ele>
        <time>2014-06-30T13:47:03Z</time>
      </trkpt>
      <trkpt lat="40.582667" lon="-4.961467">
        <ele>1959.0</ele>
        <time>2014-06-30T13:47:04Z</time>
      </trkpt>
      <trkpt lat="40.582717" lon="-4.961483">
        <ele>1958.0</ele>
        <time>2014-06-30T13:47:05Z</time>
      </trkpt>
      <trkpt lat="40.582767" lon="-4.961500">
        <ele>1958.0</ele>
        <time>2014-06-30T13:47:06Z</time>
      </trkpt>
      <trkpt lat="40.582800" lon="-4.961533">
        <ele>1957.0</ele>
        <time>2014-06-30T13:47:07Z</time>
      </trkpt>
      <trkpt lat="40.582850" lon="-4.961550">
        <ele>1958.0</ele>
        <time>2014-06-30T13:47:08Z</time>
      </trkpt>
      <trkpt lat="40.582900" lon="-4.961567">
        <ele>1959.0</ele>
        <time>2014-06-30T13:47:09Z</time>
      </trkpt>
      <trkpt lat="40.582933" lon="-4.961567">
        <ele>1962.0</ele>
        <time>2014-06-30T13:47:10Z</time>
      </trkpt>
      <trkpt lat="40.582983" lon="-4.961550">
        <ele>1963.0</ele>
        <time>2014-06-30T13:47:11Z</time>
      </trkpt>
      <trkpt lat="40.583033" lon="-4.961550">
        <ele>1964.0</ele>
        <time>2014-06-30T13:47:12Z</time>
      </trkpt>
      <trkpt lat="40.583083" lon="-4.961533">
        <ele>1964.0</ele>
        <time>2014-06-30T13:47:13Z</time>
      </trkpt>
      <trkpt lat="40.583150" lon="-4.961550">
        <ele>1965.0</ele>
        <time>2014-06-30T13:47:14Z</time>
      </trkpt>
      <trkpt lat="40.583200" lon="-4.961567">
        <ele>1965.0</ele>
        <time>2014-06-30T13:47:15Z</time>
      </trkpt>
      <trkpt lat="40.583267" lon="-4.961583">
        <ele>1966.0</ele>
        <time>2014-06-30T13:47:16Z</time>
      </trkpt>
      <trkpt lat="40.583317" lon="-4.961600">
        <ele>1966.0</ele>
        <time>2014-06-30T13:47:17Z</time>
      </trkpt>
      <trkpt lat="40.583367" lon="-4.961600">
        <ele>1969.0</ele>
        <time>2014-06-30T13:47:18Z</time>
      </trkpt>
      <trkpt lat="40.583433" lon="-4.961617">
        <ele>1971.0</ele>
        <time>2014-06-30T13:47:19Z</time>
      </trkpt>
      <trkpt lat="40.583483" lon="-4.961633">
        <ele>1973.0</ele>
        <time>2014-06-30T13:47:20Z</time>
      </trkpt>
      <trkpt lat="40.583533" lon="-4.961650">
        <ele>1975.0</ele>
        <time>2014-06-30T13:47:21Z</time>
      </trkpt>
      <trkpt lat="40.583583" lon="-4.961650">
        <ele>1978.0</ele>
        <time>2014-06-30T13:47:22Z</time>
      </trkpt>
      <trkpt lat="40.583650" lon="-4.961650">
        <ele>1981.0</ele>
        <time>2014-06-30T13:47:23Z</time>
      </trkpt>
      <trkpt lat="40.583700" lon="-4.961650">
        <ele>1983.0</ele>
        <time>2014-06-30T13:47:24Z</time>
      </trkpt>
      <trkpt lat="40.583767" lon="-4.961650">
        <ele>1985.0</ele>
        <time>2014-06-30T13:47:25Z</time>
      </trkpt>
      <trkpt lat="40.583833" lon="-4.961667">
        <ele>1987.0</ele>
        <time>2014-06-30T13:47:26Z</time>
      </trkpt>
      <trkpt lat="40.583900" lon="-4.961683">
        <ele>1989.0</ele>
        <time>2014-06-30T13:47:27Z</time>
      </trkpt>
      <trkpt lat="40.583950" lon="-4.961700">
        <ele>1992.0</ele>
        <time>2014-06-30T13:47:28Z</time>
      </trkpt>
      <trkpt lat="40.584000" lon="-4.961733">
        <ele>1994.0</ele>
        <time>2014-06-30T13:47:29Z</time>
      </trkpt>
      <trkpt lat="40.584050" lon="-4.961767">
        <ele>1996.0</ele>
        <time>2014-06-30T13:47:30Z</time>
      </trkpt>
      <trkpt lat="40.584100" lon="-4.961817">
        <ele>1998.0</ele>
        <time>2014-06-30T13:47:31Z</time>
      </trkpt>
      <trkpt lat="40.584133" lon="-4.961850">
        <ele>2001.0</ele>
        <time>2014-06-30T13:47:32Z</time>
      </trkpt>
      <trkpt lat="40.584167" lon="-4.961900">
        <ele>2003.0</ele>
        <time>2014-06-30T13:47:33Z</time>
      </trkpt>
      <trkpt lat="40.584200" lon="-4.961933">
        <ele>2006.0</ele>
        <time>2014-06-30T13:47:34Z</time>
      </trkpt>
      <trkpt lat="40.584217" lon="-4.961983">
        <ele>2009.0</ele>
        <time>2014-06-30T13:47:35Z</time>
      </trkpt>
      <trkpt lat="40.584233" lon="-4.962033">
        <ele>2012.0</ele>
        <time>2014-06-30T13:47:36Z</time>
      </trkpt>
      <trkpt lat="40.584267" lon="-4.962067">
        <ele>2015.0</ele>
        <time>2014-06-30T13:47:37Z</time>
      </trkpt>
      <trkpt lat="40.584283" lon="-4.962117">
        <ele>2017.0</ele>
        <time>2014-06-30T13:47:38Z</time>
      </trkpt>
      <trkpt lat="40.584317" lon="-4.962150">
        <ele>2018.0</ele>
        <time>2014-06-30T13:47:39Z</time>
      </trkpt>
      <trkpt lat="40.584350" lon="-4.962183">
        <ele>2020.0</ele>
        <time>2014-06-30T13:47:40Z</time>
      </trkpt>
      <trkpt lat="40.584383" lon="-4.962233">
        <ele>2021.0</ele>
        <time>2014-06-30T13:47:41Z</time>
      </trkpt>
      <trkpt lat="40.584433" lon="-4.962267">
        <ele>2022.0</ele>
        <time>2014-06-30T13:47:42Z</time>
      </trkpt>
      <trkpt lat="40.584483" lon="-4.962283">
        <ele>2024.0</ele>
        <time>2014-06-30T13:47:43Z</time>
      </trkpt>
      <trkpt lat="40.584550" lon="-4.962267">
        <ele>2025.0</ele>
        <time>2014-06-30T13:47:44Z</time>
      </trkpt>
      <trkpt lat="40.584633" lon="-4.962217">
        <ele>2026.0</ele>
        <time>2014-06-30T13:47:45Z</time>
      </trkpt>
      <trkpt lat="40.584700" lon="-4.962150">
        <ele>2028.0</ele>
        <time>2014-06-30T13:47:46Z</time>
      </trkpt>
      <trkpt lat="40.584767" lon="-4.962050">
        <ele>2030.0</ele>
        <time>2014-06-30T13:47:47Z</time>
      </trkpt>
      <trkpt lat="40.584817" lon="-4.961933">
        <ele>2032.0</ele>
        <time>2014-06-30T13:47:48Z</time>
      </trkpt>
      <trkpt lat="40.584833" lon="-4.961783">
        <ele>2033.0</ele>
        <time>2014-06-30T13:47:49Z</time>
      </trkpt>
      <trkpt lat="40.584817" lon="-4.961633">
        <ele>2033.0</ele>
        <time>2014-06-30T13:47:50Z</time>
      </trkpt>
      <trkpt lat="40.584783" lon="-4.961500">
        <ele>2033.0</ele>
        <time>2014-06-30T13:47:51Z</time>
      </trkpt>
      <trkpt lat="40.584750" lon="-4.961367">
        <ele>2033.0</ele>
        <time>2014-06-30T13:47:52Z</time>
      </trkpt>
      <trkpt lat="40.584683" lon="-4.961233">
        <ele>2033.0</ele>
        <time>2014-06-30T13:47:53Z</time>
      </trkpt>
      <trkpt lat="40.584617" lon="-4.961117">
        <ele>2034.0</ele>
        <time>2014-06-30T13:47:54Z</time>
      </trkpt>
      <trkpt lat="40.584533" lon="-4.961017">
        <ele>2035.0</ele>
        <time>2014-06-30T13:47:55Z</time>
      </trkpt>
      <trkpt lat="40.584433" lon="-4.960933">
        <ele>2036.0</ele>
        <time>2014-06-30T13:47:56Z</time>
      </trkpt>
      <trkpt lat="40.584333" lon="-4.960867">
        <ele>2037.0</ele>
        <time>2014-06-30T13:47:57Z</time>
      </trkpt>
      <trkpt lat="40.584250" lon="-4.960800">
        <ele>2037.0</ele>
        <time>2014-06-30T13:47:58Z</time>
      </trkpt>
      <trkpt lat="40.584167" lon="-4.960767">
        <ele>2039.0</ele>
        <time>2014-06-30T13:47:59Z</time>
      </trkpt>
      <trkpt lat="40.584083" lon="-4.960733">
        <ele>2041.0</ele>
        <time>2014-06-30T13:48:00Z</time>
      </trkpt>
      <trkpt lat="40.584033" lon="-4.960717">
        <ele>2042.0</ele>
        <time>2014-06-30T13:48:01Z</time>
      </trkpt>
      <trkpt lat="40.583967" lon="-4.960700">
        <ele>2040.0</ele>
        <time>2014-06-30T13:48:02Z</time>
      </trkpt>
      <trkpt lat="40.583900" lon="-4.960667">
        <ele>2040.0</ele>
        <time>2014-06-30T13:48:03Z</time>
      </trkpt>
      <trkpt lat="40.583817" lon="-4.960650">
        <ele>2041.0</ele>
        <time>2014-06-30T13:48:04Z</time>
      </trkpt>
      <trkpt lat="40.583717" lon="-4.960650">
        <ele>2041.0</ele>
        <time>2014-06-30T13:48:05Z</time>
      </trkpt>
      <trkpt lat="40.583633" lon="-4.960650">
        <ele>2042.0</ele>
        <time>2014-06-30T13:48:06Z</time>
      </trkpt>
      <trkpt lat="40.583567" lon="-4.960683">
        <ele>2042.0</ele>
        <time>2014-06-30T13:48:07Z</time>
      </trkpt>
      <trkpt lat="40.583517" lon="-4.960717">
        <ele>2043.0</ele>
        <time>2014-06-30T13:48:08Z</time>
      </trkpt>
      <trkpt lat="40.583483" lon="-4.960750">
        <ele>2044.0</ele>
        <time>2014-06-30T13:48:09Z</time>
      </trkpt>
      <trkpt lat="40.583483" lon="-4.960783">
        <ele>2046.0</ele>
        <time>2014-06-30T13:48:10Z</time>
      </trkpt>
      <trkpt lat="40.583500" lon="-4.960817">
        <ele>2048.0</ele>
        <time>2014-06-30T13:48:11Z</time>
      </trkpt>
      <trkpt lat="40.583550" lon="-4.960833">
        <ele>2050.0</ele>
        <time>2014-06-30T13:48:12Z</time>
      </trkpt>
      <trkpt lat="40.583600" lon="-4.960833">
        <ele>2051.0</ele>
        <time>2014-06-30T13:48:13Z</time>
      </trkpt>
      <trkpt lat="40.583667" lon="-4.960833">
        <ele>2053.0</ele>
        <time>2014-06-30T13:48:14Z</time>
      </trkpt>
      <trkpt lat="40.583733" lon="-4.960833">
        <ele>2054.0</ele>
        <time>2014-06-30T13:48:15Z</time>
      </trkpt>
      <trkpt lat="40.583783" lon="-4.960833">
        <ele>2053.0</ele>
        <time>2014-06-30T13:48:16Z</time>
      </trkpt>
      <trkpt lat="40.583833" lon="-4.960850">
        <ele>2053.0</ele>
        <time>2014-06-30T13:48:17Z</time>
      </trkpt>
      <trkpt lat="40.583900" lon="-4.960850">
        <ele>2054.0</ele>
        <time>2014-06-30T13:48:18Z</time>
      </trkpt>
      <trkpt lat="40.583967" lon="-4.960867">
        <ele>2054.0</ele>
        <time>2014-06-30T13:48:19Z</time>
      </trkpt>
      <trkpt lat="40.584033" lon="-4.960900">
        <ele>2055.0</ele>
        <time>2014-06-30T13:48:20Z</time>
      </trkpt>
      <trkpt lat="40.584083" lon="-4.960917">
        <ele>2056.0</ele>
        <time>2014-06-30T13:48:21Z</time>
      </trkpt>
      <trkpt lat="40.584150" lon="-4.960933">
        <ele>2056.0</ele>
        <time>2014-06-30T13:48:22Z</time>
      </trkpt>
      <trkpt lat="40.584200" lon="-4.960967">
        <ele>2057.0</ele>
        <time>2014-06-30T13:48:23Z</time>
      </trkpt>
      <trkpt lat="40.584233" lon="-4.961017">
        <ele>2058.0</ele>
        <time>2014-06-30T13:48:24Z</time>
      </trkpt>
      <trkpt lat="40.584267" lon="-4.961067">
        <ele>2058.0</ele>
        <time>2014-06-30T13:48:25Z</time>
      </trkpt>
      <trkpt lat="40.584317" lon="-4.961117">
        <ele>2060.0</ele>
        <time>2014-06-30T13:48:26Z</time>
      </trkpt>
      <trkpt lat="40.584367" lon="-4.961183">
        <ele>2062.0</ele>
        <time>2014-06-30T13:48:27Z</time>
      </trkpt>
      <trkpt lat="40.584417" lon="-4.961233">
        <ele>2064.0</ele>
        <time>2014-06-30T13:48:28Z</time>
      </trkpt>
      <trkpt lat="40.584467" lon="-4.961267">
        <ele>2067.0</ele>
        <time>2014-06-30T13:48:29Z</time>
      </trkpt>
      <trkpt lat="40.584517" lon="-4.961283">
        <ele>2069.0</ele>
        <time>2014-06-30T13:48:30Z</time>
      </trkpt>
      <trkpt lat="40.584583" lon="-4.961300">
        <ele>2072.0</ele>
        <time>2014-06-30T13:48:31Z</time>
      </trkpt>
      <trkpt lat="40.584650" lon="-4.961317">
        <ele>2073.0</ele>
        <time>2014-06-30T13:48:32Z</time>
      </trkpt>
      <trkpt lat="40.584717" lon="-4.961333">
        <ele>2074.0</ele>
        <time>2014-06-30T13:48:33Z</time>
      </trkpt>
      <trkpt lat="40.584767" lon="-4.961367">
        <ele>2076.0</ele>
        <time>2014-06-30T13:48:34Z</time>
      </trkpt>
      <trkpt lat="40.584817" lon="-4.961400">
        <ele>2077.0</ele>
        <time>2014-06-30T13:48:35Z</time>
      </trkpt>
      <trkpt lat="40.584833" lon="-4.961450">
        <ele>2079.0</ele>
        <time>2014-06-30T13:48:36Z</time>
      </trkpt>
      <trkpt lat="40.584833" lon="-4.961483">
        <ele>2080.0</ele>
        <time>2014-06-30T13:48:37Z</time>
      </trkpt>
      <trkpt lat="40.584833" lon="-4.961533">
        <ele>2080.0</ele>
        <time>2014-06-30T13:48:38Z</time>
      </trkpt>
      <trkpt lat="40.584883" lon="-4.961567">
        <ele>2080.0</ele>
        <time>2014-06-30T13:48:39Z</time>
      </trkpt>
      <trkpt lat="40.584950" lon="-4.961583">
        <ele>2080.0</ele>
        <time>2014-06-30T13:48:40Z</time>
      </trkpt>
      <trkpt lat="40.585050" lon="-4.961567">
        <ele>2079.0</ele>
        <time>2014-06-30T13:48:41Z</time>
      </trkpt>
      <trkpt lat="40.585167" lon="-4.961533">
        <ele>2077.0</ele>
        <time>2014-06-30T13:48:42Z</time>
      </trkpt>
      <trkpt lat="40.585267" lon="-4.961433">
        <ele>2077.0</ele>
        <time>2014-06-30T13:48:43Z</time>
      </trkpt>
      <trkpt lat="40.585350" lon="-4.961317">
        <ele>2077.0</ele>
        <time>2014-06-30T13:48:44Z</time>
      </trkpt>
      <trkpt lat="40.585433" lon="-4.961167">
        <ele>2077.0</ele>
        <time>2014-06-30T13:48:45Z</time>
      </trkpt>
      <trkpt lat="40.585483" lon="-4.961017">
        <ele>2077.0</ele>
        <time>2014-06-30T13:48:46Z</time>
      </trkpt>
      <trkpt lat="40.585533" lon="-4.960850">
        <ele>2077.0</ele>
        <time>2014-06-30T13:48:47Z</time>
      </trkpt>
      <trkpt lat="40.585550" lon="-4.960683">
        <ele>2077.0</ele>
        <time>2014-06-30T13:48:48Z</time>
      </trkpt>
      <trkpt lat="40.585550" lon="-4.960517">
        <ele>2076.0</ele>
        <time>2014-06-30T13:48:49Z</time>
      </trkpt>
      <trkpt lat="40.585533" lon="-4.960367">
        <ele>2075.0</ele>
        <time>2014-06-30T13:48:50Z</time>
      </trkpt>
      <trkpt lat="40.585483" lon="-4.960233">
        <ele>2074.0</ele>
        <time>2014-06-30T13:48:51Z</time>
      </trkpt>
      <trkpt lat="40.585417" lon="-4.960117">
        <ele>2073.0</ele>
        <time>2014-06-30T13:48:52Z</time>
      </trkpt>
      <trkpt lat="40.585333" lon="-4.960017">
        <ele>2071.0</ele>
        <time>2014-06-30T13:48:53Z</time>
      </trkpt>
      <trkpt lat="40.585250" lon="-4.959933">
        <ele>2069.0</ele>
        <time>2014-06-30T13:48:54Z</time>
      </trkpt>
      <trkpt lat="40.585183" lon="-4.959867">
        <ele>2067.0</ele>
        <time>2014-06-30T13:48:55Z</time>
      </trkpt>
      <trkpt lat="40.585100" lon="-4.959850">
        <ele>2065.0</ele>
        <time>2014-06-30T13:48:56Z</time>
      </trkpt>
      <trkpt lat="40.585033" lon="-4.959867">
        <ele>2063.0</ele>
        <time>2014-06-30T13:48:57Z</time>
      </trkpt>
      <trkpt lat="40.584950" lon="-4.959917">
        <ele>2060.0</ele>
        <time>2014-06-30T13:48:58Z</time>
      </trkpt>
      <trkpt lat="40.584900" lon="-4.959967">
        <ele>2058.0</ele>
        <time>2014-06-30T13:48:59Z</time>
      </trkpt>
      <trkpt lat="40.584833" lon="-4.960017">
        <ele>2058.0</ele>
        <time>2014-06-30T13:49:00Z</time>
      </trkpt>
      <trkpt lat="40.584783" lon="-4.960050">
        <ele>2057.0</ele>
        <time>2014-06-30T13:49:01Z</time>
      </trkpt>
      <trkpt lat="40.584717" lon="-4.960067">
        <ele>2057.0</ele>
        <time>2014-06-30T13:49:02Z</time>
      </trkpt>
      <trkpt lat="40.584650" lon="-4.960067">
        <ele>2057.0</ele>
        <time>2014-06-30T13:49:03Z</time>
      </trkpt>
      <trkpt lat="40.584583" lon="-4.960050">
        <ele>2058.0</ele>
        <time>2014-06-30T13:49:04Z</time>
      </trkpt>
      <trkpt lat="40.584517" lon="-4.960017">
        <ele>2058.0</ele>
        <time>2014-06-30T13:49:05Z</time>
      </trkpt>
      <trkpt lat="40.584450" lon="-4.960000">
        <ele>2058.0</ele>
        <time>2014-06-30T13:49:06Z</time>
      </trkpt>
      <trkpt lat="40.584367" lon="-4.959950">
        <ele>2058.0</ele>
        <time>2014-06-30T13:49:07Z</time>
      </trkpt>
      <trkpt lat="40.584283" lon="-4.959900">
        <ele>2059.0</ele>
        <time>2014-06-30T13:49:08Z</time>
      </trkpt>
      <trkpt lat="40.584200" lon="-4.959850">
        <ele>2060.0</ele>
        <time>2014-06-30T13:49:09Z</time>
      </trkpt>
      <trkpt lat="40.584133" lon="-4.959800">
        <ele>2061.0</ele>
        <time>2014-06-30T13:49:10Z</time>
      </trkpt>
      <trkpt lat="40.584050" lon="-4.959750">
        <ele>2061.0</ele>
        <time>2014-06-30T13:49:11Z</time>
      </trkpt>
      <trkpt lat="40.583967" lon="-4.959717">
        <ele>2061.0</ele>
        <time>2014-06-30T13:49:12Z</time>
      </trkpt>
      <trkpt lat="40.583900" lon="-4.959667">
        <ele>2061.0</ele>
        <time>2014-06-30T13:49:13Z</time>
      </trkpt>
      <trkpt lat="40.583817" lon="-4.959617">
        <ele>2061.0</ele>
        <time>2014-06-30T13:49:14Z</time>
      </trkpt>
      <trkpt lat="40.583733" lon="-4.959550">
        <ele>2060.0</ele>
        <time>2014-06-30T13:49:15Z</time>
      </trkpt>
      <trkpt lat="40.583650" lon="-4.959467">
        <ele>2060.0</ele>
        <time>2014-06-30T13:49:16Z</time>
      </trkpt>
      <trkpt lat="40.583567" lon="-4.959350">
        <ele>2060.0</ele>
        <time>2014-06-30T13:49:17Z</time>
      </trkpt>
      <trkpt lat="40.583500" lon="-4.959233">
        <ele>2059.0</ele>
        <time>2014-06-30T13:49:18Z</time>
      </trkpt>
      <trkpt lat="40.583433" lon="-4.959100">
        <ele>2059.0</ele>
        <time>2014-06-30T13:49:19Z</time>
      </trkpt>
      <trkpt lat="40.583367" lon="-4.958950">
        <ele>2058.0</ele>
        <time>2014-06-30T13:49:20Z</time>
      </trkpt>
      <trkpt lat="40.583300" lon="-4.958800">
        <ele>2057.0</ele>
        <time>2014-06-30T13:49:21Z</time>
      </trkpt>
      <trkpt lat="40.583250" lon="-4.958650">
        <ele>2057.0</ele>
        <time>2014-06-30T13:49:22Z</time>
      </trkpt>
      <trkpt lat="40.583200" lon="-4.958517">
        <ele>2057.0</ele>
        <time>2014-06-30T13:49:23Z</time>
      </trkpt>
      <trkpt lat="40.583133" lon="-4.958383">
        <ele>2056.0</ele>
        <time>2014-06-30T13:49:24Z</time>
      </trkpt>
      <trkpt lat="40.583050" lon="-4.958250">
        <ele>2056.0</ele>
        <time>2014-06-30T13:49:25Z</time>
      </trkpt>
      <trkpt lat="40.582983" lon="-4.958100">
        <ele>2055.0</ele>
        <time>2014-06-30T13:49:26Z</time>
      </trkpt>
      <trkpt lat="40.582917" lon="-4.957967">
        <ele>2054.0</ele>
        <time>2014-06-30T13:49:27Z</time>
      </trkpt>
      <trkpt lat="40.582833" lon="-4.957817">
        <ele>2052.0</ele>
        <time>2014-06-30T13:49:28Z</time>
      </trkpt>
      <trkpt lat="40.582783" lon="-4.957667">
        <ele>2051.0</ele>
        <time>2014-06-30T13:49:29Z</time>
      </trkpt>
      <trkpt lat="40.582733" lon="-4.957517">
        <ele>2051.0</ele>
        <time>2014-06-30T13:49:30Z</time>
      </trkpt>
      <trkpt lat="40.582700" lon="-4.957350">
        <ele>2051.0</ele>
        <time>2014-06-30T13:49:31Z</time>
      </trkpt>
      <trkpt lat="40.582683" lon="-4.957200">
        <ele>2049.0</ele>
        <time>2014-06-30T13:49:32Z</time>
      </trkpt>
      <trkpt lat="40.582667" lon="-4.957017">
        <ele>2048.0</ele>
        <time>2014-06-30T13:49:33Z</time>
      </trkpt>
      <trkpt lat="40.582650" lon="-4.956833">
        <ele>2047.0</ele>
        <time>2014-06-30T13:49:34Z</time>
      </trkpt>
      <trkpt lat="40.582650" lon="-4.956633">
        <ele>2047.0</ele>
        <time>2014-06-30T13:49:35Z</time>
      </trkpt>
      <trkpt lat="40.582667" lon="-4.956433">
        <ele>2048.0</ele>
        <time>2014-06-30T13:49:36Z</time>
      </trkpt>
      <trkpt lat="40.582700" lon="-4.956267">
        <ele>2050.0</ele>
        <time>2014-06-30T13:49:37Z</time>
      </trkpt>
      <trkpt lat="40.582750" lon="-4.956117">
        <ele>2050.0</ele>
        <time>2014-06-30T13:49:38Z</time>
      </trkpt>
      <trkpt lat="40.582800" lon="-4.955967">
        <ele>2050.0</ele>
        <time>2014-06-30T13:49:39Z</time>
      </trkpt>
      <trkpt lat="40.582850" lon="-4.955800">
        <ele>2049.0</ele>
        <time>2014-06-30T13:49:40Z</time>
      </trkpt>
      <trkpt lat="40.582917" lon="-4.955650">
        <ele>2048.0</ele>
        <time>2014-06-30T13:49:41Z</time>
      </trkpt>
      <trkpt lat="40.582983" lon="-4.955500">
        <ele>2047.0</ele>
        <time>2014-06-30T13:49:42Z</time>
      </trkpt>
      <trkpt lat="40.583050" lon="-4.955383">
        <ele>2047.0</ele>
        <time>2014-06-30T13:49:43Z</time>
      </trkpt>
      <trkpt lat="40.583133" lon="-4.955267">
        <ele>2047.0</ele>
        <time>2014-06-30T13:49:44Z</time>
      </trkpt>
      <trkpt lat="40.583217" lon="-4.955167">
        <ele>2048.0</ele>
        <time>2014-06-30T13:49:45Z</time>
      </trkpt>
      <trkpt lat="40.583300" lon="-4.955067">
        <ele>2048.0</ele>
        <time>2014-06-30T13:49:46Z</time>
      </trkpt>
      <trkpt lat="40.583383" lon="-4.954950">
        <ele>2049.0</ele>
        <time>2014-06-30T13:49:47Z</time>
      </trkpt>
      <trkpt lat="40.583467" lon="-4.954850">
        <ele>2049.0</ele>
        <time>2014-06-30T13:49:48Z</time>
      </trkpt>
      <trkpt lat="40.583567" lon="-4.954783">
        <ele>2049.0</ele>
        <time>2014-06-30T13:49:49Z</time>
      </trkpt>
      <trkpt lat="40.583667" lon="-4.954717">
        <ele>2050.0</ele>
        <time>2014-06-30T13:49:50Z</time>
      </trkpt>
      <trkpt lat="40.583750" lon="-4.954683">
        <ele>2051.0</ele>
        <time>2014-06-30T13:49:51Z</time>
      </trkpt>
      <trkpt lat="40.583850" lon="-4.954650">
        <ele>2052.0</ele>
        <time>2014-06-30T13:49:52Z</time>
      </trkpt>
      <trkpt lat="40.583933" lon="-4.954617">
        <ele>2053.0</ele>
        <time>2014-06-30T13:49:53Z</time>
      </trkpt>
      <trkpt lat="40.584017" lon="-4.954600">
        <ele>2053.0</ele>
        <time>2014-06-30T13:49:54Z</time>
      </trkpt>
      <trkpt lat="40.584100" lon="-4.954583">
        <ele>2054.0</ele>
        <time>2014-06-30T13:49:55Z</time>
      </trkpt>
      <trkpt lat="40.584200" lon="-4.954550">
        <ele>2054.0</ele>
        <time>2014-06-30T13:49:56Z</time>
      </trkpt>
      <trkpt lat="40.584267" lon="-4.954533">
        <ele>2055.0</ele>
        <time>2014-06-30T13:49:57Z</time>
      </trkpt>
      <trkpt lat="40.584350" lon="-4.954517">
        <ele>2055.0</ele>
        <time>2014-06-30T13:49:58Z</time>
      </trkpt>
      <trkpt lat="40.584433" lon="-4.954500">
        <ele>2056.0</ele>
        <time>2014-06-30T13:49:59Z</time>
      </trkpt>
      <trkpt lat="40.584533" lon="-4.954483">
        <ele>2056.0</ele>
        <time>2014-06-30T13:50:00Z</time>
      </trkpt>
      <trkpt lat="40.584617" lon="-4.954483">
        <ele>2057.0</ele>
        <time>2014-06-30T13:50:01Z</time>
      </trkpt>
      <trkpt lat="40.584683" lon="-4.954500">
        <ele>2058.0</ele>
        <time>2014-06-30T13:50:02Z</time>
      </trkpt>
      <trkpt lat="40.584767" lon="-4.954500">
        <ele>2059.0</ele>
        <time>2014-06-30T13:50:03Z</time>
      </trkpt>
      <trkpt lat="40.584833" lon="-4.954517">
        <ele>2060.0</ele>
        <time>2014-06-30T13:50:04Z</time>
      </trkpt>
      <trkpt lat="40.584917" lon="-4.954533">
        <ele>2059.0</ele>
        <time>2014-06-30T13:50:05Z</time>
      </trkpt>
      <trkpt lat="40.585017" lon="-4.954533">
        <ele>2059.0</ele>
        <time>2014-06-30T13:50:06Z</time>
      </trkpt>
      <trkpt lat="40.585083" lon="-4.954533">
        <ele>2060.0</ele>
        <time>2014-06-30T13:50:07Z</time>
      </trkpt>
      <trkpt lat="40.585167" lon="-4.954550">
        <ele>2061.0</ele>
        <time>2014-06-30T13:50:08Z</time>
      </trkpt>
      <trkpt lat="40.585233" lon="-4.954567">
        <ele>2061.0</ele>
        <time>2014-06-30T13:50:09Z</time>
      </trkpt>
      <trkpt lat="40.585317" lon="-4.954583">
        <ele>2062.0</ele>
        <time>2014-06-30T13:50:10Z</time>
      </trkpt>
      <trkpt lat="40.585383" lon="-4.954600">
        <ele>2063.0</ele>
        <time>2014-06-30T13:50:11Z</time>
      </trkpt>
      <trkpt lat="40.585467" lon="-4.954617">
        <ele>2064.0</ele>
        <time>2014-06-30T13:50:12Z</time>
      </trkpt>
      <trkpt lat="40.585550" lon="-4.954633">
        <ele>2065.0</ele>
        <time>2014-06-30T13:50:13Z</time>
      </trkpt>
      <trkpt lat="40.585633" lon="-4.954650">
        <ele>2066.0</ele>
        <time>2014-06-30T13:50:14Z</time>
      </trkpt>
      <trkpt lat="40.585700" lon="-4.954667">
        <ele>2068.0</ele>
        <time>2014-06-30T13:50:15Z</time>
      </trkpt>
      <trkpt lat="40.585767" lon="-4.954683">
        <ele>2069.0</ele>
        <time>2014-06-30T13:50:16Z</time>
      </trkpt>
      <trkpt lat="40.585850" lon="-4.954717">
        <ele>2071.0</ele>
        <time>2014-06-30T13:50:17Z</time>
      </trkpt>
      <trkpt lat="40.585917" lon="-4.954750">
        <ele>2073.0</ele>
        <time>2014-06-30T13:50:18Z</time>
      </trkpt>
      <trkpt lat="40.585967" lon="-4.954767">
        <ele>2075.0</ele>
        <time>2014-06-30T13:50:19Z</time>
      </trkpt>
      <trkpt lat="40.586017" lon="-4.954767">
        <ele>2076.0</ele>
        <time>2014-06-30T13:50:20Z</time>
      </trkpt>
      <trkpt lat="40.586067" lon="-4.954783">
        <ele>2076.0</ele>
        <time>2014-06-30T13:50:21Z</time>
      </trkpt>
      <trkpt lat="40.586133" lon="-4.954800">
        <ele>2077.0</ele>
        <time>2014-06-30T13:50:22Z</time>
      </trkpt>
      <trkpt lat="40.586200" lon="-4.954783">
        <ele>2076.0</ele>
        <time>2014-06-30T13:50:23Z</time>
      </trkpt>
      <trkpt lat="40.586267" lon="-4.954750">
        <ele>2074.0</ele>
        <time>2014-06-30T13:50:24Z</time>
      </trkpt>
      <trkpt lat="40.586350" lon="-4.954683">
        <ele>2071.0</ele>
        <time>2014-06-30T13:50:25Z</time>
      </trkpt>
      <trkpt lat="40.586433" lon="-4.954583">
        <ele>2068.0</ele>
        <time>2014-06-30T13:50:26Z</time>
      </trkpt>
      <trkpt lat="40.586500" lon="-4.954433">
        <ele>2065.0</ele>
        <time>2014-06-30T13:50:27Z</time>
      </trkpt>
      <trkpt lat="40.586533" lon="-4.954250">
        <ele>2062.0</ele>
        <time>2014-06-30T13:50:28Z</time>
      </trkpt>
      <trkpt lat="40.586533" lon="-4.954050">
        <ele>2059.0</ele>
        <time>2014-06-30T13:50:29Z</time>
      </trkpt>
      <trkpt lat="40.586500" lon="-4.953850">
        <ele>2056.0</ele>
        <time>2014-06-30T13:50:30Z</time>
      </trkpt>
      <trkpt lat="40.586467" lon="-4.953683">
        <ele>2056.0</ele>
        <time>2014-06-30T13:50:31Z</time>
      </trkpt>
      <trkpt lat="40.586450" lon="-4.953533">
        <ele>2058.0</ele>
        <time>2014-06-30T13:50:32Z</time>
      </trkpt>
      <trkpt lat="40.586467" lon="-4.953400">
        <ele>2058.0</ele>
        <time>2014-06-30T13:50:33Z</time>
      </trkpt>
      <trkpt lat="40.586483" lon="-4.953267">
        <ele>2057.0</ele>
        <time>2014-06-30T13:50:34Z</time>
      </trkpt>
      <trkpt lat="40.586500" lon="-4.953117">
        <ele>2056.0</ele>
        <time>2014-06-30T13:50:35Z</time>
      </trkpt>
      <trkpt lat="40.586500" lon="-4.952950">
        <ele>2056.0</ele>
        <time>2014-06-30T13:50:36Z</time>
      </trkpt>
      <trkpt lat="40.586483" lon="-4.952800">
        <ele>2056.0</ele>
        <time>2014-06-30T13:50:37Z</time>
      </trkpt>
      <trkpt lat="40.586450" lon="-4.952650">
        <ele>2055.0</ele>
        <time>2014-06-30T13:50:38Z</time>
      </trkpt>
      <trkpt lat="40.586383" lon="-4.952517">
        <ele>2056.0</ele>
        <time>2014-06-30T13:50:39Z</time>
      </trkpt>
      <trkpt lat="40.586317" lon="-4.952417">
        <ele>2056.0</ele>
        <time>2014-06-30T13:50:40Z</time>
      </trkpt>
      <trkpt lat="40.586233" lon="-4.952317">
        <ele>2057.0</ele>
        <time>2014-06-30T13:50:41Z</time>
      </trkpt>
      <trkpt lat="40.586150" lon="-4.952217">
        <ele>2057.0</ele>
        <time>2014-06-30T13:50:42Z</time>
      </trkpt>
      <trkpt lat="40.586067" lon="-4.952117">
        <ele>2057.0</ele>
        <time>2014-06-30T13:50:43Z</time>
      </trkpt>
      <trkpt lat="40.586000" lon="-4.952017">
        <ele>2057.0</ele>
        <time>2014-06-30T13:50:44Z</time>
      </trkpt>
      <trkpt lat="40.585917" lon="-4.951900">
        <ele>2056.0</ele>
        <time>2014-06-30T13:50:45Z</time>
      </trkpt>
      <trkpt lat="40.585833" lon="-4.951817">
        <ele>2056.0</ele>
        <time>2014-06-30T13:50:46Z</time>
      </trkpt>
      <trkpt lat="40.585750" lon="-4.951750">
        <ele>2055.0</ele>
        <time>2014-06-30T13:50:47Z</time>
      </trkpt>
      <trkpt lat="40.585650" lon="-4.951733">
        <ele>2054.0</ele>
        <time>2014-06-30T13:50:48Z</time>
      </trkpt>
      <trkpt lat="40.585550" lon="-4.951733">
        <ele>2053.0</ele>
        <time>2014-06-30T13:50:49Z</time>
      </trkpt>
      <trkpt lat="40.585483" lon="-4.951767">
        <ele>2051.0</ele>
        <time>2014-06-30T13:50:50Z</time>
      </trkpt>
      <trkpt lat="40.585417" lon="-4.951833">
        <ele>2051.0</ele>
        <time>2014-06-30T13:50:51Z</time>
      </trkpt>
      <trkpt lat="40.585383" lon="-4.951883">
        <ele>2050.0</ele>
        <time>2014-06-30T13:50:52Z</time>
      </trkpt>
      <trkpt lat="40.585350" lon="-4.951950">
        <ele>2050.0</ele>
        <time>2014-06-30T13:50:53Z</time>
      </trkpt>
      <trkpt lat="40.585367" lon="-4.952000">
        <ele>2051.0</ele>
        <time>2014-06-30T13:50:54Z</time>
      </trkpt>
      <trkpt lat="40.585383" lon="-4.952050">
        <ele>2051.0</ele>
        <time>2014-06-30T13:50:55Z</time>
      </trkpt>
      <trkpt lat="40.585433" lon="-4.952100">
        <ele>2050.0</ele>
        <time>2014-06-30T13:50:56Z</time>
      </trkpt>
      <trkpt lat="40.585500" lon="-4.952133">
        <ele>2049.0</ele>
        <time>2014-06-30T13:50:57Z</time>
      </trkpt>
      <trkpt lat="40.585567" lon="-4.952150">
        <ele>2048.0</ele>
        <time>2014-06-30T13:50:58Z</time>
      </trkpt>
      <trkpt lat="40.585667" lon="-4.952150">
        <ele>2047.0</ele>
        <time>2014-06-30T13:50:59Z</time>
      </trkpt>
      <trkpt lat="40.585750" lon="-4.952133">
        <ele>2047.0</ele>
        <time>2014-06-30T13:51:00Z</time>
      </trkpt>
      <trkpt lat="40.585833" lon="-4.952133">
        <ele>2047.0</ele>
        <time>2014-06-30T13:51:01Z</time>
      </trkpt>
      <trkpt lat="40.585917" lon="-4.952100">
        <ele>2047.0</ele>
        <time>2014-06-30T13:51:02Z</time>
      </trkpt>
      <trkpt lat="40.586000" lon="-4.952050">
        <ele>2047.0</ele>
        <time>2014-06-30T13:51:03Z</time>
      </trkpt>
      <trkpt lat="40.586083" lon="-4.951983">
        <ele>2047.0</ele>
        <time>2014-06-30T13:51:04Z</time>
      </trkpt>
      <trkpt lat="40.586167" lon="-4.951900">
        <ele>2047.0</ele>
        <time>2014-06-30T13:51:05Z</time>
      </trkpt>
      <trkpt lat="40.586267" lon="-4.951800">
        <ele>2046.0</ele>
        <time>2014-06-30T13:51:06Z</time>
      </trkpt>
      <trkpt lat="40.586350" lon="-4.951700">
        <ele>2045.0</ele>
        <time>2014-06-30T13:51:07Z</time>
      </trkpt>
      <trkpt lat="40.586433" lon="-4.951633">
        <ele>2045.0</ele>
        <time>2014-06-30T13:51:08Z</time>
      </trkpt>
      <trkpt lat="40.586533" lon="-4.951550">
        <ele>2044.0</ele>
        <time>2014-06-30T13:51:09Z</time>
      </trkpt>
      <trkpt lat="40.586617" lon="-4.951467">
        <ele>2043.0</ele>
        <time>2014-06-30T13:51:10Z</time>
      </trkpt>
      <trkpt lat="40.586717" lon="-4.951383">
        <ele>2042.0</ele>
        <time>2014-06-30T13:51:11Z</time>
      </trkpt>
      <trkpt lat="40.586817" lon="-4.951317">
        <ele>2040.0</ele>
        <time>2014-06-30T13:51:12Z</time>
      </trkpt>
      <trkpt lat="40.586917" lon="-4.951233">
        <ele>2039.0</ele>
        <time>2014-06-30T13:51:13Z</time>
      </trkpt>
      <trkpt lat="40.586983" lon="-4.951133">
        <ele>2040.0</ele>
        <time>2014-06-30T13:51:14Z</time>
      </trkpt>
      <trkpt lat="40.587067" lon="-4.951050">
        <ele>2041.0</ele>
        <time>2014-06-30T13:51:15Z</time>
      </trkpt>
      <trkpt lat="40.587133" lon="-4.950950">
        <ele>2040.0</ele>
        <time>2014-06-30T13:51:16Z</time>
      </trkpt>
      <trkpt lat="40.587217" lon="-4.950867">
        <ele>2039.0</ele>
        <time>2014-06-30T13:51:17Z</time>
      </trkpt>
      <trkpt lat="40.587300" lon="-4.950783">
        <ele>2038.0</ele>
        <time>2014-06-30T13:51:18Z</time>
      </trkpt>
      <trkpt lat="40.587383" lon="-4.950700">
        <ele>2036.0</ele>
        <time>2014-06-30T13:51:19Z</time>
      </trkpt>
      <trkpt lat="40.587467" lon="-4.950617">
        <ele>2036.0</ele>
        <time>2014-06-30T13:51:20Z</time>
      </trkpt>
      <trkpt lat="40.587533" lon="-4.950517">
        <ele>2035.0</ele>
        <time>2014-06-30T13:51:21Z</time>
      </trkpt>
      <trkpt lat="40.587617" lon="-4.950433">
        <ele>2034.0</ele>
        <time>2014-06-30T13:51:22Z</time>
      </trkpt>
      <trkpt lat="40.587683" lon="-4.950333">
        <ele>2033.0</ele>
        <time>2014-06-30T13:51:23Z</time>
      </trkpt>
      <trkpt lat="40.587767" lon="-4.950233">
        <ele>2032.0</ele>
        <time>2014-06-30T13:51:24Z</time>
      </trkpt>
      <trkpt lat="40.587833" lon="-4.950133">
        <ele>2030.0</ele>
        <time>2014-06-30T13:51:25Z</time>
      </trkpt>
      <trkpt lat="40.587917" lon="-4.950033">
        <ele>2029.0</ele>
        <time>2014-06-30T13:51:26Z</time>
      </trkpt>
      <trkpt lat="40.588000" lon="-4.949933">
        <ele>2029.0</ele>
        <time>2014-06-30T13:51:27Z</time>
      </trkpt>
      <trkpt lat="40.588083" lon="-4.949850">
        <ele>2028.0</ele>
        <time>2014-06-30T13:51:28Z</time>
      </trkpt>
      <trkpt lat="40.588150" lon="-4.949750">
        <ele>2027.0</ele>
        <time>2014-06-30T13:51:29Z</time>
      </trkpt>
      <trkpt lat="40.588233" lon="-4.949650">
        <ele>2025.0</ele>
        <time>2014-06-30T13:51:30Z</time>
      </trkpt>
      <trkpt lat="40.588300" lon="-4.949533">
        <ele>2024.0</ele>
        <time>2014-06-30T13:51:31Z</time>
      </trkpt>
      <trkpt lat="40.588383" lon="-4.949417">
        <ele>2023.0</ele>
        <time>2014-06-30T13:51:32Z</time>
      </trkpt>
      <trkpt lat="40.588467" lon="-4.949300">
        <ele>2022.0</ele>
        <time>2014-06-30T13:51:33Z</time>
      </trkpt>
      <trkpt lat="40.588533" lon="-4.949183">
        <ele>2021.0</ele>
        <time>2014-06-30T13:51:34Z</time>
      </trkpt>
      <trkpt lat="40.588583" lon="-4.949067">
        <ele>2021.0</ele>
        <time>2014-06-30T13:51:35Z</time>
      </trkpt>
      <trkpt lat="40.588650" lon="-4.948983">
        <ele>2020.0</ele>
        <time>2014-06-30T13:51:36Z</time>
      </trkpt>
      <trkpt lat="40.588733" lon="-4.948883">
        <ele>2018.0</ele>
        <time>2014-06-30T13:51:37Z</time>
      </trkpt>
      <trkpt lat="40.588817" lon="-4.948783">
        <ele>2015.0</ele>
        <time>2014-06-30T13:51:38Z</time>
      </trkpt>
      <trkpt lat="40.588883" lon="-4.948667">
        <ele>2013.0</ele>
        <time>2014-06-30T13:51:39Z</time>
      </trkpt>
      <trkpt lat="40.588950" lon="-4.948550">
        <ele>2012.0</ele>
        <time>2014-06-30T13:51:40Z</time>
      </trkpt>
      <trkpt lat="40.589000" lon="-4.948433">
        <ele>2012.0</ele>
        <time>2014-06-30T13:51:41Z</time>
      </trkpt>
      <trkpt lat="40.589050" lon="-4.948317">
        <ele>2011.0</ele>
        <time>2014-06-30T13:51:42Z</time>
      </trkpt>
      <trkpt lat="40.589100" lon="-4.948200">
        <ele>2010.0</ele>
        <time>2014-06-30T13:51:43Z</time>
      </trkpt>
      <trkpt lat="40.589133" lon="-4.948050">
        <ele>2008.0</ele>
        <time>2014-06-30T13:51:44Z</time>
      </trkpt>
      <trkpt lat="40.589183" lon="-4.947900">
        <ele>2006.0</ele>
        <time>2014-06-30T13:51:45Z</time>
      </trkpt>
      <trkpt lat="40.589233" lon="-4.947750">
        <ele>2005.0</ele>
        <time>2014-06-30T13:51:46Z</time>
      </trkpt>
      <trkpt lat="40.589267" lon="-4.947617">
        <ele>2004.0</ele>
        <time>2014-06-30T13:51:47Z</time>
      </trkpt>
      <trkpt lat="40.589317" lon="-4.947483">
        <ele>2004.0</ele>
        <time>2014-06-30T13:51:48Z</time>
      </trkpt>
      <trkpt lat="40.589350" lon="-4.947350">
        <ele>2004.0</ele>
        <time>2014-06-30T13:51:49Z</time>
      </trkpt>
      <trkpt lat="40.589400" lon="-4.947233">
        <ele>2004.0</ele>
        <time>2014-06-30T13:51:50Z</time>
      </trkpt>
      <trkpt lat="40.589450" lon="-4.947100">
        <ele>2004.0</ele>
        <time>2014-06-30T13:51:51Z</time>
      </trkpt>
      <trkpt lat="40.589517" lon="-4.946967">
        <ele>2003.0</ele>
        <time>2014-06-30T13:51:52Z</time>
      </trkpt>
      <trkpt lat="40.589583" lon="-4.946833">
        <ele>2003.0</ele>
        <time>2014-06-30T13:51:53Z</time>
      </trkpt>
      <trkpt lat="40.589633" lon="-4.946683">
        <ele>2003.0</ele>
        <time>2014-06-30T13:51:54Z</time>
      </trkpt>
      <trkpt lat="40.589683" lon="-4.946567">
        <ele>2006.0</ele>
        <time>2014-06-30T13:51:55Z</time>
      </trkpt>
      <trkpt lat="40.589717" lon="-4.946450">
        <ele>2009.0</ele>
        <time>2014-06-30T13:51:56Z</time>
      </trkpt>
      <trkpt lat="40.589750" lon="-4.946367">
        <ele>2010.0</ele>
        <time>2014-06-30T13:51:57Z</time>
      </trkpt>
      <trkpt lat="40.589783" lon="-4.946267">
        <ele>2011.0</ele>
        <time>2014-06-30T13:51:58Z</time>
      </trkpt>
      <trkpt lat="40.589833" lon="-4.946150">
        <ele>2011.0</ele>
        <time>2014-06-30T13:51:59Z</time>
      </trkpt>
      <trkpt lat="40.589900" lon="-4.946017">
        <ele>2010.0</ele>
        <time>2014-06-30T13:52:00Z</time>
      </trkpt>
      <trkpt lat="40.589967" lon="-4.945900">
        <ele>2010.0</ele>
        <time>2014-06-30T13:52:01Z</time>
      </trkpt>
      <trkpt lat="40.590033" lon="-4.945800">
        <ele>2011.0</ele>
        <time>2014-06-30T13:52:02Z</time>
      </trkpt>
      <trkpt lat="40.590083" lon="-4.945733">
        <ele>2013.0</ele>
        <time>2014-06-30T13:52:03Z</time>
      </trkpt>
      <trkpt lat="40.590150" lon="-4.945667">
        <ele>2014.0</ele>
        <time>2014-06-30T13:52:04Z</time>
      </trkpt>
      <trkpt lat="40.590200" lon="-4.945633">
        <ele>2014.0</ele>
        <time>2014-06-30T13:52:05Z</time>
      </trkpt>
      <trkpt lat="40.590267" lon="-4.945567">
        <ele>2014.0</ele>
        <time>2014-06-30T13:52:06Z</time>
      </trkpt>
      <trkpt lat="40.590333" lon="-4.945500">
        <ele>2013.0</ele>
        <time>2014-06-30T13:52:07Z</time>
      </trkpt>
      <trkpt lat="40.590400" lon="-4.945433">
        <ele>2011.0</ele>
        <time>2014-06-30T13:52:08Z</time>
      </trkpt>
      <trkpt lat="40.590467" lon="-4.945367">
        <ele>2010.0</ele>
        <time>2014-06-30T13:52:09Z</time>
      </trkpt>
      <trkpt lat="40.590533" lon="-4.945283">
        <ele>2008.0</ele>
        <time>2014-06-30T13:52:10Z</time>
      </trkpt>
      <trkpt lat="40.590583" lon="-4.945217">
        <ele>2008.0</ele>
        <time>2014-06-30T13:52:11Z</time>
      </trkpt>
      <trkpt lat="40.590617" lon="-4.945117">
        <ele>2007.0</ele>
        <time>2014-06-30T13:52:12Z</time>
      </trkpt>
      <trkpt lat="40.590650" lon="-4.945033">
        <ele>2007.0</ele>
        <time>2014-06-30T13:52:13Z</time>
      </trkpt>
      <trkpt lat="40.590683" lon="-4.944933">
        <ele>2006.0</ele>
        <time>2014-06-30T13:52:14Z</time>
      </trkpt>
      <trkpt lat="40.590717" lon="-4.944850">
        <ele>2005.0</ele>
        <time>2014-06-30T13:52:15Z</time>
      </trkpt>
      <trkpt lat="40.590767" lon="-4.944767">
        <ele>2004.0</ele>
        <time>2014-06-30T13:52:16Z</time>
      </trkpt>
      <trkpt lat="40.590817" lon="-4.944683">
        <ele>2002.0</ele>
        <time>2014-06-30T13:52:17Z</time>
      </trkpt>
      <trkpt lat="40.590867" lon="-4.944583">
        <ele>2000.0</ele>
        <time>2014-06-30T13:52:18Z</time>
      </trkpt>
      <trkpt lat="40.590917" lon="-4.944500">
        <ele>1999.0</ele>
        <time>2014-06-30T13:52:19Z</time>
      </trkpt>
      <trkpt lat="40.590983" lon="-4.944400">
        <ele>1998.0</ele>
        <time>2014-06-30T13:52:20Z</time>
      </trkpt>
      <trkpt lat="40.591033" lon="-4.944317">
        <ele>1997.0</ele>
        <time>2014-06-30T13:52:21Z</time>
      </trkpt>
      <trkpt lat="40.591100" lon="-4.944233">
        <ele>1995.0</ele>
        <time>2014-06-30T13:52:22Z</time>
      </trkpt>
      <trkpt lat="40.591167" lon="-4.944167">
        <ele>1993.0</ele>
        <time>2014-06-30T13:52:23Z</time>
      </trkpt>
      <trkpt lat="40.591233" lon="-4.944083">
        <ele>1991.0</ele>
        <time>2014-06-30T13:52:24Z</time>
      </trkpt>
      <trkpt lat="40.591300" lon="-4.943983">
        <ele>1988.0</ele>
        <time>2014-06-30T13:52:25Z</time>
      </trkpt>
      <trkpt lat="40.591350" lon="-4.943900">
        <ele>1986.0</ele>
        <time>2014-06-30T13:52:26Z</time>
      </trkpt>
      <trkpt lat="40.591400" lon="-4.943800">
        <ele>1985.0</ele>
        <time>2014-06-30T13:52:27Z</time>
      </trkpt>
      <trkpt lat="40.591433" lon="-4.943700">
        <ele>1984.0</ele>
        <time>2014-06-30T13:52:28Z</time>
      </trkpt>
      <trkpt lat="40.591450" lon="-4.943583">
        <ele>1982.0</ele>
        <time>2014-06-30T13:52:29Z</time>
      </trkpt>
      <trkpt lat="40.591483" lon="-4.943450">
        <ele>1980.0</ele>
        <time>2014-06-30T13:52:30Z</time>
      </trkpt>
      <trkpt lat="40.591500" lon="-4.943333">
        <ele>1978.0</ele>
        <time>2014-06-30T13:52:31Z</time>
      </trkpt>
      <trkpt lat="40.591533" lon="-4.943200">
        <ele>1977.0</ele>
        <time>2014-06-30T13:52:32Z</time>
      </trkpt>
      <trkpt lat="40.591550" lon="-4.943083">
        <ele>1976.0</ele>
        <time>2014-06-30T13:52:33Z</time>
      </trkpt>
      <trkpt lat="40.591567" lon="-4.942950">
        <ele>1974.0</ele>
        <time>2014-06-30T13:52:34Z</time>
      </trkpt>
      <trkpt lat="40.591567" lon="-4.942817">
        <ele>1973.0</ele>
        <time>2014-06-30T13:52:35Z</time>
      </trkpt>
      <trkpt lat="40.591567" lon="-4.942683">
        <ele>1972.0</ele>
        <time>2014-06-30T13:52:36Z</time>
      </trkpt>
      <trkpt lat="40.591550" lon="-4.942567">
        <ele>1970.0</ele>
        <time>2014-06-30T13:52:37Z</time>
      </trkpt>
      <trkpt lat="40.591550" lon="-4.942433">
        <ele>1969.0</ele>
        <time>2014-06-30T13:52:38Z</time>
      </trkpt>
      <trkpt lat="40.591533" lon="-4.942300">
        <ele>1967.0</ele>
        <time>2014-06-30T13:52:39Z</time>
      </trkpt>
      <trkpt lat="40.591533" lon="-4.942167">
        <ele>1965.0</ele>
        <time>2014-06-30T13:52:40Z</time>
      </trkpt>
      <trkpt lat="40.591533" lon="-4.942033">
        <ele>1963.0</ele>
        <time>2014-06-30T13:52:41Z</time>
      </trkpt>
      <trkpt lat="40.591550" lon="-4.941900">
        <ele>1961.0</ele>
        <time>2014-06-30T13:52:42Z</time>
      </trkpt>
      <trkpt lat="40.591567" lon="-4.941767">
        <ele>1959.0</ele>
        <time>2014-06-30T13:52:43Z</time>
      </trkpt>
      <trkpt lat="40.591600" lon="-4.941633">
        <ele>1957.0</ele>
        <time>2014-06-30T13:52:44Z</time>
      </trkpt>
      <trkpt lat="40.591617" lon="-4.941483">
        <ele>1955.0</ele>
        <time>2014-06-30T13:52:45Z</time>
      </trkpt>
      <trkpt lat="40.591633" lon="-4.941333">
        <ele>1953.0</ele>
        <time>2014-06-30T13:52:46Z</time>
      </trkpt>
      <trkpt lat="40.591633" lon="-4.941183">
        <ele>1951.0</ele>
        <time>2014-06-30T13:52:47Z</time>
      </trkpt>
      <trkpt lat="40.591650" lon="-4.941050">
        <ele>1950.0</ele>
        <time>2014-06-30T13:52:48Z</time>
      </trkpt>
      <trkpt lat="40.591650" lon="-4.940917">
        <ele>1949.0</ele>
        <time>2014-06-30T13:52:49Z</time>
      </trkpt>
      <trkpt lat="40.591667" lon="-4.940800">
        <ele>1948.0</ele>
        <time>2014-06-30T13:52:50Z</time>
      </trkpt>
      <trkpt lat="40.591683" lon="-4.940683">
        <ele>1947.0</ele>
        <time>2014-06-30T13:52:51Z</time>
      </trkpt>
      <trkpt lat="40.591700" lon="-4.940550">
        <ele>1944.0</ele>
        <time>2014-06-30T13:52:52Z</time>
      </trkpt>
      <trkpt lat="40.591717" lon="-4.940400">
        <ele>1942.0</ele>
        <time>2014-06-30T13:52:53Z</time>
      </trkpt>
      <trkpt lat="40.591750" lon="-4.940267">
        <ele>1939.0</ele>
        <time>2014-06-30T13:52:54Z</time>
      </trkpt>
      <trkpt lat="40.591783" lon="-4.940133">
        <ele>1937.0</ele>
        <time>2014-06-30T13:52:55Z</time>
      </trkpt>
      <trkpt lat="40.591817" lon="-4.940017">
        <ele>1936.0</ele>
        <time>2014-06-30T13:52:56Z</time>
      </trkpt>
      <trkpt lat="40.591850" lon="-4.939900">
        <ele>1934.0</ele>
        <time>2014-06-30T13:52:57Z</time>
      </trkpt>
      <trkpt lat="40.591883" lon="-4.939767">
        <ele>1933.0</ele>
        <time>2014-06-30T13:52:58Z</time>
      </trkpt>
      <trkpt lat="40.591917" lon="-4.939633">
        <ele>1931.0</ele>
        <time>2014-06-30T13:52:59Z</time>
      </trkpt>
      <trkpt lat="40.591967" lon="-4.939517">
        <ele>1928.0</ele>
        <time>2014-06-30T13:53:00Z</time>
      </trkpt>
      <trkpt lat="40.592017" lon="-4.939383">
        <ele>1926.0</ele>
        <time>2014-06-30T13:53:01Z</time>
      </trkpt>
      <trkpt lat="40.592067" lon="-4.939283">
        <ele>1924.0</ele>
        <time>2014-06-30T13:53:02Z</time>
      </trkpt>
      <trkpt lat="40.592100" lon="-4.939150">
        <ele>1922.0</ele>
        <time>2014-06-30T13:53:03Z</time>
      </trkpt>
      <trkpt lat="40.592133" lon="-4.939033">
        <ele>1920.0</ele>
        <time>2014-06-30T13:53:04Z</time>
      </trkpt>
      <trkpt lat="40.592167" lon="-4.938900">
        <ele>1918.0</ele>
        <time>2014-06-30T13:53:05Z</time>
      </trkpt>
      <trkpt lat="40.592217" lon="-4.938767">
        <ele>1915.0</ele>
        <time>2014-06-30T13:53:06Z</time>
      </trkpt>
      <trkpt lat="40.592283" lon="-4.938617">
        <ele>1912.0</ele>
        <time>2014-06-30T13:53:07Z</time>
      </trkpt>
      <trkpt lat="40.592333" lon="-4.938483">
        <ele>1909.0</ele>
        <time>2014-06-30T13:53:08Z</time>
      </trkpt>
      <trkpt lat="40.592400" lon="-4.938333">
        <ele>1906.0</ele>
        <time>2014-06-30T13:53:09Z</time>
      </trkpt>
      <trkpt lat="40.592467" lon="-4.938200">
        <ele>1904.0</ele>
        <time>2014-06-30T13:53:10Z</time>
      </trkpt>
      <trkpt lat="40.592533" lon="-4.938067">
        <ele>1902.0</ele>
        <time>2014-06-30T13:53:11Z</time>
      </trkpt>
      <trkpt lat="40.592600" lon="-4.937933">
        <ele>1900.0</ele>
        <time>2014-06-30T13:53:12Z</time>
      </trkpt>
      <trkpt lat="40.592683" lon="-4.937800">
        <ele>1897.0</ele>
        <time>2014-06-30T13:53:13Z</time>
      </trkpt>
      <trkpt lat="40.592750" lon="-4.937667">
        <ele>1894.0</ele>
        <time>2014-06-30T13:53:14Z</time>
      </trkpt>
      <trkpt lat="40.592833" lon="-4.937533">
        <ele>1891.0</ele>
        <time>2014-06-30T13:53:15Z</time>
      </trkpt>
      <trkpt lat="40.592917" lon="-4.937400">
        <ele>1888.0</ele>
        <time>2014-06-30T13:53:16Z</time>
      </trkpt>
      <trkpt lat="40.592983" lon="-4.937233">
        <ele>1884.0</ele>
        <time>2014-06-30T13:53:17Z</time>
      </trkpt>
      <trkpt lat="40.593050" lon="-4.937083">
        <ele>1880.0</ele>
        <time>2014-06-30T13:53:18Z</time>
      </trkpt>
      <trkpt lat="40.593133" lon="-4.936933">
        <ele>1876.0</ele>
        <time>2014-06-30T13:53:19Z</time>
      </trkpt>
      <trkpt lat="40.593217" lon="-4.936783">
        <ele>1872.0</ele>
        <time>2014-06-30T13:53:20Z</time>
      </trkpt>
      <trkpt lat="40.593317" lon="-4.936667">
        <ele>1868.0</ele>
        <time>2014-06-30T13:53:21Z</time>
      </trkpt>
      <trkpt lat="40.593400" lon="-4.936567">
        <ele>1865.0</ele>
        <time>2014-06-30T13:53:22Z</time>
      </trkpt>
      <trkpt lat="40.593483" lon="-4.936483">
        <ele>1863.0</ele>
        <time>2014-06-30T13:53:23Z</time>
      </trkpt>
      <trkpt lat="40.593533" lon="-4.936417">
        <ele>1861.0</ele>
        <time>2014-06-30T13:53:24Z</time>
      </trkpt>
      <trkpt lat="40.593583" lon="-4.936333">
        <ele>1860.0</ele>
        <time>2014-06-30T13:53:25Z</time>
      </trkpt>
      <trkpt lat="40.593650" lon="-4.936267">
        <ele>1858.0</ele>
        <time>2014-06-30T13:53:26Z</time>
      </trkpt>
      <trkpt lat="40.593700" lon="-4.936183">
        <ele>1855.0</ele>
        <time>2014-06-30T13:53:27Z</time>
      </trkpt>
      <trkpt lat="40.593783" lon="-4.936100">
        <ele>1851.0</ele>
        <time>2014-06-30T13:53:28Z</time>
      </trkpt>
      <trkpt lat="40.593850" lon="-4.936000">
        <ele>1848.0</ele>
        <time>2014-06-30T13:53:29Z</time>
      </trkpt>
      <trkpt lat="40.593917" lon="-4.935900">
        <ele>1845.0</ele>
        <time>2014-06-30T13:53:30Z</time>
      </trkpt>
      <trkpt lat="40.593983" lon="-4.935783">
        <ele>1843.0</ele>
        <time>2014-06-30T13:53:31Z</time>
      </trkpt>
      <trkpt lat="40.594033" lon="-4.935683">
        <ele>1841.0</ele>
        <time>2014-06-30T13:53:32Z</time>
      </trkpt>
      <trkpt lat="40.594067" lon="-4.935583">
        <ele>1839.0</ele>
        <time>2014-06-30T13:53:33Z</time>
      </trkpt>
      <trkpt lat="40.594117" lon="-4.935467">
        <ele>1835.0</ele>
        <time>2014-06-30T13:53:34Z</time>
      </trkpt>
      <trkpt lat="40.594167" lon="-4.935350">
        <ele>1832.0</ele>
        <time>2014-06-30T13:53:35Z</time>
      </trkpt>
      <trkpt lat="40.594233" lon="-4.935217">
        <ele>1828.0</ele>
        <time>2014-06-30T13:53:36Z</time>
      </trkpt>
      <trkpt lat="40.594300" lon="-4.935083">
        <ele>1825.0</ele>
        <time>2014-06-30T13:53:37Z</time>
      </trkpt>
      <trkpt lat="40.594350" lon="-4.934933">
        <ele>1822.0</ele>
        <time>2014-06-30T13:53:38Z</time>
      </trkpt>
      <trkpt lat="40.594383" lon="-4.934783">
        <ele>1820.0</ele>
        <time>2014-06-30T13:53:39Z</time>
      </trkpt>
      <trkpt lat="40.594417" lon="-4.934650">
        <ele>1818.0</ele>
        <time>2014-06-30T13:53:40Z</time>
      </trkpt>
      <trkpt lat="40.594433" lon="-4.934533">
        <ele>1816.0</ele>
        <time>2014-06-30T13:53:41Z</time>
      </trkpt>
      <trkpt lat="40.594483" lon="-4.934400">
        <ele>1813.0</ele>
        <time>2014-06-30T13:53:42Z</time>
      </trkpt>
      <trkpt lat="40.594533" lon="-4.934267">
        <ele>1809.0</ele>
        <time>2014-06-30T13:53:43Z</time>
      </trkpt>
      <trkpt lat="40.594583" lon="-4.934133">
        <ele>1805.0</ele>
        <time>2014-06-30T13:53:44Z</time>
      </trkpt>
      <trkpt lat="40.594633" lon="-4.933983">
        <ele>1801.0</ele>
        <time>2014-06-30T13:53:45Z</time>
      </trkpt>
      <trkpt lat="40.594700" lon="-4.933850">
        <ele>1798.0</ele>
        <time>2014-06-30T13:53:46Z</time>
      </trkpt>
      <trkpt lat="40.594750" lon="-4.933700">
        <ele>1794.0</ele>
        <time>2014-06-30T13:53:47Z</time>
      </trkpt>
      <trkpt lat="40.594800" lon="-4.933533">
        <ele>1790.0</ele>
        <time>2014-06-30T13:53:48Z</time>
      </trkpt>
      <trkpt lat="40.594833" lon="-4.933367">
        <ele>1786.0</ele>
        <time>2014-06-30T13:53:49Z</time>
      </trkpt>
      <trkpt lat="40.594867" lon="-4.933183">
        <ele>1782.0</ele>
        <time>2014-06-30T13:53:50Z</time>
      </trkpt>
      <trkpt lat="40.594917" lon="-4.933000">
        <ele>1780.0</ele>
        <time>2014-06-30T13:53:51Z</time>
      </trkpt>
      <trkpt lat="40.594950" lon="-4.932833">
        <ele>1778.0</ele>
        <time>2014-06-30T13:53:52Z</time>
      </trkpt>
      <trkpt lat="40.595000" lon="-4.932667">
        <ele>1776.0</ele>
        <time>2014-06-30T13:53:53Z</time>
      </trkpt>
      <trkpt lat="40.595033" lon="-4.932517">
        <ele>1775.0</ele>
        <time>2014-06-30T13:53:54Z</time>
      </trkpt>
      <trkpt lat="40.595083" lon="-4.932383">
        <ele>1773.0</ele>
        <time>2014-06-30T13:53:55Z</time>
      </trkpt>
      <trkpt lat="40.595133" lon="-4.932233">
        <ele>1771.0</ele>
        <time>2014-06-30T13:53:56Z</time>
      </trkpt>
      <trkpt lat="40.595167" lon="-4.932083">
        <ele>1769.0</ele>
        <time>2014-06-30T13:53:57Z</time>
      </trkpt>
      <trkpt lat="40.595217" lon="-4.931950">
        <ele>1767.0</ele>
        <time>2014-06-30T13:53:58Z</time>
      </trkpt>
      <trkpt lat="40.595250" lon="-4.931800">
        <ele>1765.0</ele>
        <time>2014-06-30T13:53:59Z</time>
      </trkpt>
      <trkpt lat="40.595300" lon="-4.931650">
        <ele>1762.0</ele>
        <time>2014-06-30T13:54:00Z</time>
      </trkpt>
      <trkpt lat="40.595333" lon="-4.931483">
        <ele>1760.0</ele>
        <time>2014-06-30T13:54:01Z</time>
      </trkpt>
      <trkpt lat="40.595367" lon="-4.931333">
        <ele>1758.0</ele>
        <time>2014-06-30T13:54:02Z</time>
      </trkpt>
      <trkpt lat="40.595383" lon="-4.931167">
        <ele>1756.0</ele>
        <time>2014-06-30T13:54:03Z</time>
      </trkpt>
      <trkpt lat="40.595417" lon="-4.931017">
        <ele>1753.0</ele>
        <time>2014-06-30T13:54:04Z</time>
      </trkpt>
      <trkpt lat="40.595450" lon="-4.930867">
        <ele>1751.0</ele>
        <time>2014-06-30T13:54:05Z</time>
      </trkpt>
      <trkpt lat="40.595517" lon="-4.930717">
        <ele>1748.0</ele>
        <time>2014-06-30T13:54:06Z</time>
      </trkpt>
      <trkpt lat="40.595583" lon="-4.930567">
        <ele>1745.0</ele>
        <time>2014-06-30T13:54:07Z</time>
      </trkpt>
      <trkpt lat="40.595633" lon="-4.930433">
        <ele>1743.0</ele>
        <time>2014-06-30T13:54:08Z</time>
      </trkpt>
      <trkpt lat="40.595700" lon="-4.930317">
        <ele>1741.0</ele>
        <time>2014-06-30T13:54:09Z</time>
      </trkpt>
      <trkpt lat="40.595750" lon="-4.930183">
        <ele>1739.0</ele>
        <time>2014-06-30T13:54:10Z</time>
      </trkpt>
      <trkpt lat="40.595800" lon="-4.930067">
        <ele>1737.0</ele>
        <time>2014-06-30T13:54:11Z</time>
      </trkpt>
      <trkpt lat="40.595867" lon="-4.929950">
        <ele>1734.0</ele>
        <time>2014-06-30T13:54:12Z</time>
      </trkpt>
      <trkpt lat="40.595933" lon="-4.929817">
        <ele>1731.0</ele>
        <time>2014-06-30T13:54:13Z</time>
      </trkpt>
      <trkpt lat="40.596000" lon="-4.929700">
        <ele>1729.0</ele>
        <time>2014-06-30T13:54:14Z</time>
      </trkpt>
      <trkpt lat="40.596050" lon="-4.929567">
        <ele>1726.0</ele>
        <time>2014-06-30T13:54:15Z</time>
      </trkpt>
      <trkpt lat="40.596083" lon="-4.929417">
        <ele>1724.0</ele>
        <time>2014-06-30T13:54:16Z</time>
      </trkpt>
      <trkpt lat="40.596133" lon="-4.929250">
        <ele>1720.0</ele>
        <time>2014-06-30T13:54:17Z</time>
      </trkpt>
      <trkpt lat="40.596167" lon="-4.929067">
        <ele>1717.0</ele>
        <time>2014-06-30T13:54:18Z</time>
      </trkpt>
      <trkpt lat="40.596217" lon="-4.928900">
        <ele>1714.0</ele>
        <time>2014-06-30T13:54:19Z</time>
      </trkpt>
      <trkpt lat="40.596250" lon="-4.928733">
        <ele>1711.0</ele>
        <time>2014-06-30T13:54:20Z</time>
      </trkpt>
      <trkpt lat="40.596300" lon="-4.928583">
        <ele>1708.0</ele>
        <time>2014-06-30T13:54:21Z</time>
      </trkpt>
      <trkpt lat="40.596350" lon="-4.928417">
        <ele>1706.0</ele>
        <time>2014-06-30T13:54:22Z</time>
      </trkpt>
      <trkpt lat="40.596400" lon="-4.928267">
        <ele>1703.0</ele>
        <time>2014-06-30T13:54:23Z</time>
      </trkpt>
      <trkpt lat="40.596433" lon="-4.928100">
        <ele>1700.0</ele>
        <time>2014-06-30T13:54:24Z</time>
      </trkpt>
      <trkpt lat="40.596483" lon="-4.927917">
        <ele>1696.0</ele>
        <time>2014-06-30T13:54:25Z</time>
      </trkpt>
      <trkpt lat="40.596533" lon="-4.927750">
        <ele>1694.0</ele>
        <time>2014-06-30T13:54:26Z</time>
      </trkpt>
      <trkpt lat="40.596567" lon="-4.927583">
        <ele>1692.0</ele>
        <time>2014-06-30T13:54:27Z</time>
      </trkpt>
      <trkpt lat="40.596600" lon="-4.927433">
        <ele>1690.0</ele>
        <time>2014-06-30T13:54:28Z</time>
      </trkpt>
      <trkpt lat="40.596633" lon="-4.927283">
        <ele>1688.0</ele>
        <time>2014-06-30T13:54:29Z</time>
      </trkpt>
      <trkpt lat="40.596683" lon="-4.927133">
        <ele>1686.0</ele>
        <time>2014-06-30T13:54:30Z</time>
      </trkpt>
      <trkpt lat="40.596733" lon="-4.926983">
        <ele>1683.0</ele>
        <time>2014-06-30T13:54:31Z</time>
      </trkpt>
      <trkpt lat="40.596783" lon="-4.926833">
        <ele>1681.0</ele>
        <time>2014-06-30T13:54:32Z</time>
      </trkpt>
      <trkpt lat="40.596833" lon="-4.926683">
        <ele>1678.0</ele>
        <time>2014-06-30T13:54:33Z</time>
      </trkpt>
      <trkpt lat="40.596900" lon="-4.926517">
        <ele>1676.0</ele>
        <time>2014-06-30T13:54:34Z</time>
      </trkpt>
      <trkpt lat="40.596950" lon="-4.926367">
        <ele>1674.0</ele>
        <time>2014-06-30T13:54:35Z</time>
      </trkpt>
      <trkpt lat="40.597017" lon="-4.926233">
        <ele>1673.0</ele>
        <time>2014-06-30T13:54:36Z</time>
      </trkpt>
      <trkpt lat="40.597067" lon="-4.926100">
        <ele>1672.0</ele>
        <time>2014-06-30T13:54:37Z</time>
      </trkpt>
      <trkpt lat="40.597150" lon="-4.925967">
        <ele>1670.0</ele>
        <time>2014-06-30T13:54:38Z</time>
      </trkpt>
      <trkpt lat="40.597200" lon="-4.925817">
        <ele>1668.0</ele>
        <time>2014-06-30T13:54:39Z</time>
      </trkpt>
      <trkpt lat="40.597267" lon="-4.925667">
        <ele>1668.0</ele>
        <time>2014-06-30T13:54:40Z</time>
      </trkpt>
      <trkpt lat="40.597317" lon="-4.925533">
        <ele>1667.0</ele>
        <time>2014-06-30T13:54:41Z</time>
      </trkpt>
      <trkpt lat="40.597350" lon="-4.925400">
        <ele>1667.0</ele>
        <time>2014-06-30T13:54:42Z</time>
      </trkpt>
      <trkpt lat="40.597400" lon="-4.925267">
        <ele>1666.0</ele>
        <time>2014-06-30T13:54:43Z</time>
      </trkpt>
      <trkpt lat="40.597467" lon="-4.925133">
        <ele>1664.0</ele>
        <time>2014-06-30T13:54:44Z</time>
      </trkpt>
      <trkpt lat="40.597533" lon="-4.924983">
        <ele>1662.0</ele>
        <time>2014-06-30T13:54:45Z</time>
      </trkpt>
      <trkpt lat="40.597600" lon="-4.924833">
        <ele>1660.0</ele>
        <time>2014-06-30T13:54:46Z</time>
      </trkpt>
      <trkpt lat="40.597667" lon="-4.924683">
        <ele>1658.0</ele>
        <time>2014-06-30T13:54:47Z</time>
      </trkpt>
      <trkpt lat="40.597717" lon="-4.924533">
        <ele>1658.0</ele>
        <time>2014-06-30T13:54:48Z</time>
      </trkpt>
      <trkpt lat="40.597767" lon="-4.924400">
        <ele>1658.0</ele>
        <time>2014-06-30T13:54:49Z</time>
      </trkpt>
      <trkpt lat="40.597817" lon="-4.924250">
        <ele>1658.0</ele>
        <time>2014-06-30T13:54:50Z</time>
      </trkpt>
      <trkpt lat="40.597867" lon="-4.924117">
        <ele>1658.0</ele>
        <time>2014-06-30T13:54:51Z</time>
      </trkpt>
      <trkpt lat="40.597917" lon="-4.923967">
        <ele>1657.0</ele>
        <time>2014-06-30T13:54:52Z</time>
      </trkpt>
      <trkpt lat="40.597983" lon="-4.923817">
        <ele>1657.0</ele>
        <time>2014-06-30T13:54:53Z</time>
      </trkpt>
      <trkpt lat="40.598033" lon="-4.923683">
        <ele>1657.0</ele>
        <time>2014-06-30T13:54:54Z</time>
      </trkpt>
      <trkpt lat="40.598100" lon="-4.923550">
        <ele>1656.0</ele>
        <time>2014-06-30T13:54:55Z</time>
      </trkpt>
      <trkpt lat="40.598150" lon="-4.923417">
        <ele>1656.0</ele>
        <time>2014-06-30T13:54:56Z</time>
      </trkpt>
      <trkpt lat="40.598200" lon="-4.923283">
        <ele>1657.0</ele>
        <time>2014-06-30T13:54:57Z</time>
      </trkpt>
      <trkpt lat="40.598233" lon="-4.923133">
        <ele>1657.0</ele>
        <time>2014-06-30T13:54:58Z</time>
      </trkpt>
      <trkpt lat="40.598283" lon="-4.923000">
        <ele>1657.0</ele>
        <time>2014-06-30T13:54:59Z</time>
      </trkpt>
      <trkpt lat="40.598333" lon="-4.922867">
        <ele>1656.0</ele>
        <time>2014-06-30T13:55:00Z</time>
      </trkpt>
      <trkpt lat="40.598383" lon="-4.922733">
        <ele>1656.0</ele>
        <time>2014-06-30T13:55:01Z</time>
      </trkpt>
      <trkpt lat="40.598433" lon="-4.922583">
        <ele>1655.0</ele>
        <time>2014-06-30T13:55:02Z</time>
      </trkpt>
      <trkpt lat="40.598483" lon="-4.922433">
        <ele>1654.0</ele>
        <time>2014-06-30T13:55:03Z</time>
      </trkpt>
      <trkpt lat="40.598533" lon="-4.922283">
        <ele>1653.0</ele>
        <time>2014-06-30T13:55:04Z</time>
      </trkpt>
      <trkpt lat="40.598600" lon="-4.922133">
        <ele>1653.0</ele>
        <time>2014-06-30T13:55:05Z</time>
      </trkpt>
      <trkpt lat="40.598667" lon="-4.922000">
        <ele>1653.0</ele>
        <time>2014-06-30T13:55:06Z</time>
      </trkpt>
      <trkpt lat="40.598733" lon="-4.921883">
        <ele>1654.0</ele>
        <time>2014-06-30T13:55:07Z</time>
      </trkpt>
      <trkpt lat="40.598817" lon="-4.921750">
        <ele>1654.0</ele>
        <time>2014-06-30T13:55:08Z</time>
      </trkpt>
      <trkpt lat="40.598867" lon="-4.921617">
        <ele>1656.0</ele>
        <time>2014-06-30T13:55:09Z</time>
      </trkpt>
      <trkpt lat="40.598933" lon="-4.921500">
        <ele>1658.0</ele>
        <time>2014-06-30T13:55:10Z</time>
      </trkpt>
      <trkpt lat="40.598983" lon="-4.921367">
        <ele>1660.0</ele>
        <time>2014-06-30T13:55:11Z</time>
      </trkpt>
      <trkpt lat="40.599050" lon="-4.921267">
        <ele>1663.0</ele>
        <time>2014-06-30T13:55:12Z</time>
      </trkpt>
      <trkpt lat="40.599117" lon="-4.921167">
        <ele>1666.0</ele>
        <time>2014-06-30T13:55:13Z</time>
      </trkpt>
      <trkpt lat="40.599183" lon="-4.921083">
        <ele>1669.0</ele>
        <time>2014-06-30T13:55:14Z</time>
      </trkpt>
      <trkpt lat="40.599250" lon="-4.920983">
        <ele>1672.0</ele>
        <time>2014-06-30T13:55:15Z</time>
      </trkpt>
      <trkpt lat="40.599317" lon="-4.920900">
        <ele>1675.0</ele>
        <time>2014-06-30T13:55:16Z</time>
      </trkpt>
      <trkpt lat="40.599400" lon="-4.920800">
        <ele>1677.0</ele>
        <time>2014-06-30T13:55:17Z</time>
      </trkpt>
      <trkpt lat="40.599467" lon="-4.920733">
        <ele>1679.0</ele>
        <time>2014-06-30T13:55:18Z</time>
      </trkpt>
      <trkpt lat="40.599533" lon="-4.920683">
        <ele>1682.0</ele>
        <time>2014-06-30T13:55:19Z</time>
      </trkpt>
      <trkpt lat="40.599617" lon="-4.920650">
        <ele>1683.0</ele>
        <time>2014-06-30T13:55:20Z</time>
      </trkpt>
      <trkpt lat="40.599667" lon="-4.920667">
        <ele>1685.0</ele>
        <time>2014-06-30T13:55:21Z</time>
      </trkpt>
      <trkpt lat="40.599700" lon="-4.920717">
        <ele>1685.0</ele>
        <time>2014-06-30T13:55:22Z</time>
      </trkpt>
      <trkpt lat="40.599700" lon="-4.920767">
        <ele>1685.0</ele>
        <time>2014-06-30T13:55:23Z</time>
      </trkpt>
      <trkpt lat="40.599683" lon="-4.920817">
        <ele>1686.0</ele>
        <time>2014-06-30T13:55:24Z</time>
      </trkpt>
      <trkpt lat="40.599650" lon="-4.920833">
        <ele>1688.0</ele>
        <time>2014-06-30T13:55:25Z</time>
      </trkpt>
      <trkpt lat="40.599617" lon="-4.920833">
        <ele>1690.0</ele>
        <time>2014-06-30T13:55:26Z</time>
      </trkpt>
      <trkpt lat="40.599583" lon="-4.920817">
        <ele>1692.0</ele>
        <time>2014-06-30T13:55:27Z</time>
      </trkpt>
      <trkpt lat="40.599517" lon="-4.920800">
        <ele>1694.0</ele>
        <time>2014-06-30T13:55:28Z</time>
      </trkpt>
      <trkpt lat="40.599500" lon="-4.920750">
        <ele>1695.0</ele>
        <time>2014-06-30T13:55:29Z</time>
      </trkpt>
      <trkpt lat="40.599433" lon="-4.920700">
        <ele>1690.0</ele>
        <time>2014-06-30T13:55:30Z</time>
      </trkpt>
      <trkpt lat="40.599350" lon="-4.920617">
        <ele>1689.0</ele>
        <time>2014-06-30T13:55:31Z</time>
      </trkpt>
      <trkpt lat="40.599283" lon="-4.920533">
        <ele>1690.0</ele>
        <time>2014-06-30T13:55:32Z</time>
      </trkpt>
      <trkpt lat="40.599217" lon="-4.920433">
        <ele>1690.0</ele>
        <time>2014-06-30T13:55:33Z</time>
      </trkpt>
      <trkpt lat="40.599167" lon="-4.920333">
        <ele>1692.0</ele>
        <time>2014-06-30T13:55:34Z</time>
      </trkpt>
      <trkpt lat="40.599117" lon="-4.920217">
        <ele>1693.0</ele>
        <time>2014-06-30T13:55:35Z</time>
      </trkpt>
      <trkpt lat="40.599067" lon="-4.920083">
        <ele>1696.0</ele>
        <time>2014-06-30T13:55:36Z</time>
      </trkpt>
      <trkpt lat="40.599033" lon="-4.919917">
        <ele>1698.0</ele>
        <time>2014-06-30T13:55:37Z</time>
      </trkpt>
      <trkpt lat="40.598983" lon="-4.919767">
        <ele>1700.0</ele>
        <time>2014-06-30T13:55:38Z</time>
      </trkpt>
      <trkpt lat="40.598950" lon="-4.919600">
        <ele>1702.0</ele>
        <time>2014-06-30T13:55:39Z</time>
      </trkpt>
      <trkpt lat="40.598900" lon="-4.919417">
        <ele>1704.0</ele>
        <time>2014-06-30T13:55:40Z</time>
      </trkpt>
      <trkpt lat="40.598867" lon="-4.919233">
        <ele>1708.0</ele>
        <time>2014-06-30T13:55:41Z</time>
      </trkpt>
      <trkpt lat="40.598867" lon="-4.919050">
        <ele>1713.0</ele>
        <time>2014-06-30T13:55:42Z</time>
      </trkpt>
      <trkpt lat="40.598883" lon="-4.918883">
        <ele>1719.0</ele>
        <time>2014-06-30T13:55:43Z</time>
      </trkpt>
      <trkpt lat="40.598900" lon="-4.918717">
        <ele>1723.0</ele>
        <time>2014-06-30T13:55:44Z</time>
      </trkpt>
      <trkpt lat="40.598933" lon="-4.918550">
        <ele>1727.0</ele>
        <time>2014-06-30T13:55:45Z</time>
      </trkpt>
      <trkpt lat="40.598967" lon="-4.918383">
        <ele>1730.0</ele>
        <time>2014-06-30T13:55:46Z</time>
      </trkpt>
      <trkpt lat="40.599033" lon="-4.918233">
        <ele>1734.0</ele>
        <time>2014-06-30T13:55:47Z</time>
      </trkpt>
      <trkpt lat="40.599133" lon="-4.918117">
        <ele>1737.0</ele>
        <time>2014-06-30T13:55:48Z</time>
      </trkpt>
      <trkpt lat="40.599217" lon="-4.918017">
        <ele>1741.0</ele>
        <time>2014-06-30T13:55:49Z</time>
      </trkpt>
      <trkpt lat="40.599300" lon="-4.917917">
        <ele>1746.0</ele>
        <time>2014-06-30T13:55:50Z</time>
      </trkpt>
      <trkpt lat="40.599367" lon="-4.917833">
        <ele>1750.0</ele>
        <time>2014-06-30T13:55:51Z</time>
      </trkpt>
      <trkpt lat="40.599433" lon="-4.917717">
        <ele>1753.0</ele>
        <time>2014-06-30T13:55:52Z</time>
      </trkpt>
      <trkpt lat="40.599517" lon="-4.917600">
        <ele>1755.0</ele>
        <time>2014-06-30T13:55:53Z</time>
      </trkpt>
      <trkpt lat="40.599600" lon="-4.917483">
        <ele>1757.0</ele>
        <time>2014-06-30T13:55:54Z</time>
      </trkpt>
      <trkpt lat="40.599700" lon="-4.917383">
        <ele>1759.0</ele>
        <time>2014-06-30T13:55:55Z</time>
      </trkpt>
      <trkpt lat="40.599800" lon="-4.917333">
        <ele>1761.0</ele>
        <time>2014-06-30T13:55:56Z</time>
      </trkpt>
      <trkpt lat="40.599883" lon="-4.917317">
        <ele>1762.0</ele>
        <time>2014-06-30T13:55:57Z</time>
      </trkpt>
      <trkpt lat="40.599967" lon="-4.917333">
        <ele>1762.0</ele>
        <time>2014-06-30T13:55:58Z</time>
      </trkpt>
      <trkpt lat="40.600017" lon="-4.917367">
        <ele>1764.0</ele>
        <time>2014-06-30T13:55:59Z</time>
      </trkpt>
      <trkpt lat="40.600050" lon="-4.917400">
        <ele>1764.0</ele>
        <time>2014-06-30T13:56:00Z</time>
      </trkpt>
      <trkpt lat="40.600050" lon="-4.917450">
        <ele>1766.0</ele>
        <time>2014-06-30T13:56:01Z</time>
      </trkpt>
      <trkpt lat="40.600067" lon="-4.917483">
        <ele>1767.0</ele>
        <time>2014-06-30T13:56:02Z</time>
      </trkpt>
      <trkpt lat="40.600083" lon="-4.917517">
        <ele>1769.0</ele>
        <time>2014-06-30T13:56:03Z</time>
      </trkpt>
      <trkpt lat="40.600100" lon="-4.917517">
        <ele>1770.0</ele>
        <time>2014-06-30T13:56:04Z</time>
      </trkpt>
      <trkpt lat="40.600150" lon="-4.917517">
        <ele>1772.0</ele>
        <time>2014-06-30T13:56:05Z</time>
      </trkpt>
      <trkpt lat="40.600183" lon="-4.917533">
        <ele>1773.0</ele>
        <time>2014-06-30T13:56:06Z</time>
      </trkpt>
      <trkpt lat="40.600167" lon="-4.917567">
        <ele>1774.0</ele>
        <time>2014-06-30T13:56:07Z</time>
      </trkpt>
      <trkpt lat="40.600117" lon="-4.917617">
        <ele>1774.0</ele>
        <time>2014-06-30T13:56:08Z</time>
      </trkpt>
      <trkpt lat="40.600050" lon="-4.917633">
        <ele>1774.0</ele>
        <time>2014-06-30T13:56:09Z</time>
      </trkpt>
      <trkpt lat="40.599967" lon="-4.917617">
        <ele>1775.0</ele>
        <time>2014-06-30T13:56:10Z</time>
      </trkpt>
      <trkpt lat="40.599867" lon="-4.917550">
        <ele>1777.0</ele>
        <time>2014-06-30T13:56:11Z</time>
      </trkpt>
      <trkpt lat="40.599783" lon="-4.917433">
        <ele>1777.0</ele>
        <time>2014-06-30T13:56:12Z</time>
      </trkpt>
      <trkpt lat="40.599717" lon="-4.917300">
        <ele>1778.0</ele>
        <time>2014-06-30T13:56:13Z</time>
      </trkpt>
      <trkpt lat="40.599667" lon="-4.917133">
        <ele>1779.0</ele>
        <time>2014-06-30T13:56:14Z</time>
      </trkpt>
      <trkpt lat="40.599633" lon="-4.916967">
        <ele>1780.0</ele>
        <time>2014-06-30T13:56:15Z</time>
      </trkpt>
      <trkpt lat="40.599583" lon="-4.916800">
        <ele>1781.0</ele>
        <time>2014-06-30T13:56:16Z</time>
      </trkpt>
      <trkpt lat="40.599550" lon="-4.916617">
        <ele>1782.0</ele>
        <time>2014-06-30T13:56:17Z</time>
      </trkpt>
      <trkpt lat="40.599533" lon="-4.916450">
        <ele>1785.0</ele>
        <time>2014-06-30T13:56:18Z</time>
      </trkpt>
      <trkpt lat="40.599517" lon="-4.916267">
        <ele>1787.0</ele>
        <time>2014-06-30T13:56:19Z</time>
      </trkpt>
      <trkpt lat="40.599517" lon="-4.916100">
        <ele>1789.0</ele>
        <time>2014-06-30T13:56:20Z</time>
      </trkpt>
      <trkpt lat="40.599533" lon="-4.915917">
        <ele>1792.0</ele>
        <time>2014-06-30T13:56:21Z</time>
      </trkpt>
      <trkpt lat="40.599533" lon="-4.915750">
        <ele>1795.0</ele>
        <time>2014-06-30T13:56:22Z</time>
      </trkpt>
      <trkpt lat="40.599533" lon="-4.915567">
        <ele>1798.0</ele>
        <time>2014-06-30T13:56:23Z</time>
      </trkpt>
      <trkpt lat="40.599533" lon="-4.915383">
        <ele>1801.0</ele>
        <time>2014-06-30T13:56:24Z</time>
      </trkpt>
      <trkpt lat="40.599533" lon="-4.915200">
        <ele>1803.0</ele>
        <time>2014-06-30T13:56:25Z</time>
      </trkpt>
      <trkpt lat="40.599533" lon="-4.915000">
        <ele>1805.0</ele>
        <time>2014-06-30T13:56:26Z</time>
      </trkpt>
      <trkpt lat="40.599533" lon="-4.914800">
        <ele>1808.0</ele>
        <time>2014-06-30T13:56:27Z</time>
      </trkpt>
      <trkpt lat="40.599533" lon="-4.914617">
        <ele>1811.0</ele>
        <time>2014-06-30T13:56:28Z</time>
      </trkpt>
      <trkpt lat="40.599567" lon="-4.914450">
        <ele>1815.0</ele>
        <time>2014-06-30T13:56:29Z</time>
      </trkpt>
      <trkpt lat="40.599617" lon="-4.914300">
        <ele>1818.0</ele>
        <time>2014-06-30T13:56:30Z</time>
      </trkpt>
      <trkpt lat="40.599683" lon="-4.914167">
        <ele>1820.0</ele>
        <time>2014-06-30T13:56:31Z</time>
      </trkpt>
      <trkpt lat="40.599767" lon="-4.914033">
        <ele>1822.0</ele>
        <time>2014-06-30T13:56:32Z</time>
      </trkpt>
      <trkpt lat="40.599850" lon="-4.913933">
        <ele>1824.0</ele>
        <time>2014-06-30T13:56:33Z</time>
      </trkpt>
      <trkpt lat="40.599933" lon="-4.913850">
        <ele>1826.0</ele>
        <time>2014-06-30T13:56:34Z</time>
      </trkpt>
      <trkpt lat="40.600017" lon="-4.913800">
        <ele>1828.0</ele>
        <time>2014-06-30T13:56:35Z</time>
      </trkpt>
      <trkpt lat="40.600100" lon="-4.913783">
        <ele>1829.0</ele>
        <time>2014-06-30T13:56:36Z</time>
      </trkpt>
      <trkpt lat="40.600167" lon="-4.913800">
        <ele>1830.0</ele>
        <time>2014-06-30T13:56:37Z</time>
      </trkpt>
      <trkpt lat="40.600233" lon="-4.913833">
        <ele>1830.0</ele>
        <time>2014-06-30T13:56:38Z</time>
      </trkpt>
      <trkpt lat="40.600267" lon="-4.913867">
        <ele>1830.0</ele>
        <time>2014-06-30T13:56:39Z</time>
      </trkpt>
      <trkpt lat="40.600300" lon="-4.913900">
        <ele>1832.0</ele>
        <time>2014-06-30T13:56:40Z</time>
      </trkpt>
      <trkpt lat="40.600317" lon="-4.913917">
        <ele>1832.0</ele>
        <time>2014-06-30T13:56:41Z</time>
      </trkpt>
      <trkpt lat="40.600333" lon="-4.913933">
        <ele>1832.0</ele>
        <time>2014-06-30T13:56:42Z</time>
      </trkpt>
      <trkpt lat="40.600367" lon="-4.913950">
        <ele>1833.0</ele>
        <time>2014-06-30T13:56:43Z</time>
      </trkpt>
      <trkpt lat="40.600400" lon="-4.913967">
        <ele>1833.0</ele>
        <time>2014-06-30T13:56:44Z</time>
      </trkpt>
      <trkpt lat="40.600433" lon="-4.913983">
        <ele>1834.0</ele>
        <time>2014-06-30T13:56:45Z</time>
      </trkpt>
      <trkpt lat="40.600417" lon="-4.914000">
        <ele>1836.0</ele>
        <time>2014-06-30T13:56:46Z</time>
      </trkpt>
      <trkpt lat="40.600383" lon="-4.914000">
        <ele>1836.0</ele>
        <time>2014-06-30T13:56:47Z</time>
      </trkpt>
      <trkpt lat="40.600317" lon="-4.914000">
        <ele>1836.0</ele>
        <time>2014-06-30T13:56:48Z</time>
      </trkpt>
      <trkpt lat="40.600250" lon="-4.913967">
        <ele>1837.0</ele>
        <time>2014-06-30T13:56:49Z</time>
      </trkpt>
      <trkpt lat="40.600183" lon="-4.913900">
        <ele>1837.0</ele>
        <time>2014-06-30T13:56:50Z</time>
      </trkpt>
      <trkpt lat="40.600117" lon="-4.913800">
        <ele>1838.0</ele>
        <time>2014-06-30T13:56:51Z</time>
      </trkpt>
      <trkpt lat="40.600050" lon="-4.913667">
        <ele>1838.0</ele>
        <time>2014-06-30T13:56:52Z</time>
      </trkpt>
      <trkpt lat="40.600017" lon="-4.913517">
        <ele>1838.0</ele>
        <time>2014-06-30T13:56:53Z</time>
      </trkpt>
      <trkpt lat="40.599983" lon="-4.913333">
        <ele>1839.0</ele>
        <time>2014-06-30T13:56:54Z</time>
      </trkpt>
      <trkpt lat="40.599967" lon="-4.913167">
        <ele>1839.0</ele>
        <time>2014-06-30T13:56:55Z</time>
      </trkpt>
      <trkpt lat="40.599950" lon="-4.912983">
        <ele>1840.0</ele>
        <time>2014-06-30T13:56:56Z</time>
      </trkpt>
      <trkpt lat="40.599950" lon="-4.912800">
        <ele>1841.0</ele>
        <time>2014-06-30T13:56:57Z</time>
      </trkpt>
      <trkpt lat="40.599967" lon="-4.912617">
        <ele>1841.0</ele>
        <time>2014-06-30T13:56:58Z</time>
      </trkpt>
      <trkpt lat="40.599983" lon="-4.912433">
        <ele>1842.0</ele>
        <time>2014-06-30T13:56:59Z</time>
      </trkpt>
      <trkpt lat="40.600033" lon="-4.912267">
        <ele>1842.0</ele>
        <time>2014-06-30T13:57:00Z</time>
      </trkpt>
      <trkpt lat="40.600083" lon="-4.912100">
        <ele>1841.0</ele>
        <time>2014-06-30T13:57:01Z</time>
      </trkpt>
      <trkpt lat="40.600133" lon="-4.911917">
        <ele>1841.0</ele>
        <time>2014-06-30T13:57:02Z</time>
      </trkpt>
      <trkpt lat="40.600183" lon="-4.911767">
        <ele>1842.0</ele>
        <time>2014-06-30T13:57:03Z</time>
      </trkpt>
      <trkpt lat="40.600250" lon="-4.911633">
        <ele>1842.0</ele>
        <time>2014-06-30T13:57:04Z</time>
      </trkpt>
      <trkpt lat="40.600333" lon="-4.911500">
        <ele>1843.0</ele>
        <time>2014-06-30T13:57:05Z</time>
      </trkpt>
      <trkpt lat="40.600417" lon="-4.911400">
        <ele>1844.0</ele>
        <time>2014-06-30T13:57:06Z</time>
      </trkpt>
      <trkpt lat="40.600517" lon="-4.911317">
        <ele>1844.0</ele>
        <time>2014-06-30T13:57:07Z</time>
      </trkpt>
      <trkpt lat="40.600617" lon="-4.911250">
        <ele>1845.0</ele>
        <time>2014-06-30T13:57:08Z</time>
      </trkpt>
      <trkpt lat="40.600700" lon="-4.911217">
        <ele>1846.0</ele>
        <time>2014-06-30T13:57:09Z</time>
      </trkpt>
      <trkpt lat="40.600783" lon="-4.911200">
        <ele>1846.0</ele>
        <time>2014-06-30T13:57:10Z</time>
      </trkpt>
      <trkpt lat="40.600850" lon="-4.911200">
        <ele>1847.0</ele>
        <time>2014-06-30T13:57:11Z</time>
      </trkpt>
      <trkpt lat="40.600917" lon="-4.911217">
        <ele>1847.0</ele>
        <time>2014-06-30T13:57:12Z</time>
      </trkpt>
      <trkpt lat="40.600950" lon="-4.911233">
        <ele>1848.0</ele>
        <time>2014-06-30T13:57:13Z</time>
      </trkpt>
      <trkpt lat="40.600983" lon="-4.911250">
        <ele>1849.0</ele>
        <time>2014-06-30T13:57:14Z</time>
      </trkpt>
      <trkpt lat="40.601017" lon="-4.911267">
        <ele>1851.0</ele>
        <time>2014-06-30T13:57:15Z</time>
      </trkpt>
      <trkpt lat="40.601033" lon="-4.911283">
        <ele>1851.0</ele>
        <time>2014-06-30T13:57:16Z</time>
      </trkpt>
      <trkpt lat="40.601033" lon="-4.911317">
        <ele>1852.0</ele>
        <time>2014-06-30T13:57:17Z</time>
      </trkpt>
      <trkpt lat="40.601050" lon="-4.911333">
        <ele>1853.0</ele>
        <time>2014-06-30T13:57:18Z</time>
      </trkpt>
      <trkpt lat="40.601050" lon="-4.911350">
        <ele>1854.0</ele>
        <time>2014-06-30T13:57:19Z</time>
      </trkpt>
      <trkpt lat="40.601050" lon="-4.911367">
        <ele>1855.0</ele>
        <time>2014-06-30T13:57:20Z</time>
      </trkpt>
      <trkpt lat="40.601067" lon="-4.911367">
        <ele>1856.0</ele>
        <time>2014-06-30T13:57:21Z</time>
      </trkpt>
      <trkpt lat="40.601083" lon="-4.911383">
        <ele>1857.0</ele>
        <time>2014-06-30T13:57:22Z</time>
      </trkpt>
      <trkpt lat="40.601100" lon="-4.911417">
        <ele>1858.0</ele>
        <time>2014-06-30T13:57:23Z</time>
      </trkpt>
      <trkpt lat="40.601100" lon="-4.911433">
        <ele>1858.0</ele>
        <time>2014-06-30T13:57:24Z</time>
      </trkpt>
      <trkpt lat="40.601100" lon="-4.911450">
        <ele>1859.0</ele>
        <time>2014-06-30T13:57:25Z</time>
      </trkpt>
      <trkpt lat="40.601083" lon="-4.911483">
        <ele>1859.0</ele>
        <time>2014-06-30T13:57:26Z</time>
      </trkpt>
      <trkpt lat="40.601033" lon="-4.911483">
        <ele>1859.0</ele>
        <time>2014-06-30T13:57:27Z</time>
      </trkpt>
      <trkpt lat="40.600967" lon="-4.911483">
        <ele>1860.0</ele>
        <time>2014-06-30T13:57:28Z</time>
      </trkpt>
      <trkpt lat="40.600900" lon="-4.911450">
        <ele>1860.0</ele>
        <time>2014-06-30T13:57:29Z</time>
      </trkpt>
      <trkpt lat="40.600833" lon="-4.911400">
        <ele>1861.0</ele>
        <time>2014-06-30T13:57:30Z</time>
      </trkpt>
      <trkpt lat="40.600733" lon="-4.911333">
        <ele>1862.0</ele>
        <time>2014-06-30T13:57:31Z</time>
      </trkpt>
      <trkpt lat="40.600650" lon="-4.911233">
        <ele>1863.0</ele>
        <time>2014-06-30T13:57:32Z</time>
      </trkpt>
      <trkpt lat="40.600567" lon="-4.911133">
        <ele>1864.0</ele>
        <time>2014-06-30T13:57:33Z</time>
      </trkpt>
      <trkpt lat="40.600483" lon="-4.911017">
        <ele>1864.0</ele>
        <time>2014-06-30T13:57:34Z</time>
      </trkpt>
      <trkpt lat="40.600417" lon="-4.910900">
        <ele>1865.0</ele>
        <time>2014-06-30T13:57:35Z</time>
      </trkpt>
      <trkpt lat="40.600333" lon="-4.910767">
        <ele>1865.0</ele>
        <time>2014-06-30T13:57:36Z</time>
      </trkpt>
      <trkpt lat="40.600250" lon="-4.910633">
        <ele>1866.0</ele>
        <time>2014-06-30T13:57:37Z</time>
      </trkpt>
      <trkpt lat="40.600167" lon="-4.910483">
        <ele>1867.0</ele>
        <time>2014-06-30T13:57:38Z</time>
      </trkpt>
      <trkpt lat="40.600083" lon="-4.910367">
        <ele>1867.0</ele>
        <time>2014-06-30T13:57:39Z</time>
      </trkpt>
      <trkpt lat="40.600017" lon="-4.910233">
        <ele>1868.0</ele>
        <time>2014-06-30T13:57:40Z</time>
      </trkpt>
      <trkpt lat="40.599933" lon="-4.910133">
        <ele>1870.0</ele>
        <time>2014-06-30T13:57:41Z</time>
      </trkpt>
      <trkpt lat="40.599867" lon="-4.910017">
        <ele>1873.0</ele>
        <time>2014-06-30T13:57:42Z</time>
      </trkpt>
      <trkpt lat="40.599817" lon="-4.909900">
        <ele>1875.0</ele>
        <time>2014-06-30T13:57:43Z</time>
      </trkpt>
      <trkpt lat="40.599750" lon="-4.909783">
        <ele>1877.0</ele>
        <time>2014-06-30T13:57:44Z</time>
      </trkpt>
      <trkpt lat="40.599700" lon="-4.909667">
        <ele>1878.0</ele>
        <time>2014-06-30T13:57:45Z</time>
      </trkpt>
      <trkpt lat="40.599633" lon="-4.909533">
        <ele>1880.0</ele>
        <time>2014-06-30T13:57:46Z</time>
      </trkpt>
      <trkpt lat="40.599583" lon="-4.909400">
        <ele>1882.0</ele>
        <time>2014-06-30T13:57:47Z</time>
      </trkpt>
      <trkpt lat="40.599500" lon="-4.909300">
        <ele>1884.0</ele>
        <time>2014-06-30T13:57:48Z</time>
      </trkpt>
      <trkpt lat="40.599433" lon="-4.909233">
        <ele>1886.0</ele>
        <time>2014-06-30T13:57:49Z</time>
      </trkpt>
      <trkpt lat="40.599367" lon="-4.909200">
        <ele>1888.0</ele>
        <time>2014-06-30T13:57:50Z</time>
      </trkpt>
      <trkpt lat="40.599317" lon="-4.909217">
        <ele>1890.0</ele>
        <time>2014-06-30T13:57:51Z</time>
      </trkpt>
      <trkpt lat="40.599267" lon="-4.909250">
        <ele>1892.0</ele>
        <time>2014-06-30T13:57:52Z</time>
      </trkpt>
      <trkpt lat="40.599267" lon="-4.909300">
        <ele>1894.0</ele>
        <time>2014-06-30T13:57:53Z</time>
      </trkpt>
      <trkpt lat="40.599267" lon="-4.909350">
        <ele>1896.0</ele>
        <time>2014-06-30T13:57:54Z</time>
      </trkpt>
      <trkpt lat="40.599300" lon="-4.909400">
        <ele>1897.0</ele>
        <time>2014-06-30T13:57:55Z</time>
      </trkpt>
      <trkpt lat="40.599333" lon="-4.909450">
        <ele>1898.0</ele>
        <time>2014-06-30T13:57:56Z</time>
      </trkpt>
      <trkpt lat="40.599400" lon="-4.909483">
        <ele>1899.0</ele>
        <time>2014-06-30T13:57:57Z</time>
      </trkpt>
      <trkpt lat="40.599483" lon="-4.909500">
        <ele>1901.0</ele>
        <time>2014-06-30T13:57:58Z</time>
      </trkpt>
      <trkpt lat="40.599567" lon="-4.909467">
        <ele>1904.0</ele>
        <time>2014-06-30T13:57:59Z</time>
      </trkpt>
      <trkpt lat="40.599667" lon="-4.909417">
        <ele>1907.0</ele>
        <time>2014-06-30T13:58:00Z</time>
      </trkpt>
      <trkpt lat="40.599750" lon="-4.909317">
        <ele>1910.0</ele>
        <time>2014-06-30T13:58:01Z</time>
      </trkpt>
      <trkpt lat="40.599833" lon="-4.909200">
        <ele>1913.0</ele>
        <time>2014-06-30T13:58:02Z</time>
      </trkpt>
      <trkpt lat="40.599900" lon="-4.909067">
        <ele>1916.0</ele>
        <time>2014-06-30T13:58:03Z</time>
      </trkpt>
      <trkpt lat="40.599950" lon="-4.908917">
        <ele>1919.0</ele>
        <time>2014-06-30T13:58:04Z</time>
      </trkpt>
      <trkpt lat="40.599983" lon="-4.908767">
        <ele>1920.0</ele>
        <time>2014-06-30T13:58:05Z</time>
      </trkpt>
      <trkpt lat="40.600000" lon="-4.908600">
        <ele>1922.0</ele>
        <time>2014-06-30T13:58:06Z</time>
      </trkpt>
      <trkpt lat="40.599983" lon="-4.908433">
        <ele>1924.0</ele>
        <time>2014-06-30T13:58:07Z</time>
      </trkpt>
      <trkpt lat="40.599950" lon="-4.908283">
        <ele>1924.0</ele>
        <time>2014-06-30T13:58:08Z</time>
      </trkpt>
      <trkpt lat="40.599883" lon="-4.908150">
        <ele>1926.0</ele>
        <time>2014-06-30T13:58:09Z</time>
      </trkpt>
      <trkpt lat="40.599833" lon="-4.908050">
        <ele>1928.0</ele>
        <time>2014-06-30T13:58:10Z</time>
      </trkpt>
      <trkpt lat="40.599767" lon="-4.907983">
        <ele>1931.0</ele>
        <time>2014-06-30T13:58:11Z</time>
      </trkpt>
      <trkpt lat="40.599700" lon="-4.907950">
        <ele>1933.0</ele>
        <time>2014-06-30T13:58:12Z</time>
      </trkpt>
      <trkpt lat="40.599633" lon="-4.907933">
        <ele>1934.0</ele>
        <time>2014-06-30T13:58:13Z</time>
      </trkpt>
      <trkpt lat="40.599550" lon="-4.907933">
        <ele>1935.0</ele>
        <time>2014-06-30T13:58:14Z</time>
      </trkpt>
      <trkpt lat="40.599467" lon="-4.907950">
        <ele>1935.0</ele>
        <time>2014-06-30T13:58:15Z</time>
      </trkpt>
      <trkpt lat="40.599417" lon="-4.907967">
        <ele>1937.0</ele>
        <time>2014-06-30T13:58:16Z</time>
      </trkpt>
      <trkpt lat="40.599383" lon="-4.908033">
        <ele>1938.0</ele>
        <time>2014-06-30T13:58:17Z</time>
      </trkpt>
      <trkpt lat="40.599367" lon="-4.908100">
        <ele>1940.0</ele>
        <time>2014-06-30T13:58:18Z</time>
      </trkpt>
      <trkpt lat="40.599350" lon="-4.908183">
        <ele>1943.0</ele>
        <time>2014-06-30T13:58:19Z</time>
      </trkpt>
      <trkpt lat="40.599350" lon="-4.908250">
        <ele>1946.0</ele>
        <time>2014-06-30T13:58:20Z</time>
      </trkpt>
      <trkpt lat="40.599383" lon="-4.908317">
        <ele>1948.0</ele>
        <time>2014-06-30T13:58:21Z</time>
      </trkpt>
      <trkpt lat="40.599417" lon="-4.908367">
        <ele>1951.0</ele>
        <time>2014-06-30T13:58:22Z</time>
      </trkpt>
      <trkpt lat="40.599467" lon="-4.908400">
        <ele>1953.0</ele>
        <time>2014-06-30T13:58:23Z</time>
      </trkpt>
      <trkpt lat="40.599517" lon="-4.908417">
        <ele>1955.0</ele>
        <time>2014-06-30T13:58:24Z</time>
      </trkpt>
      <trkpt lat="40.599567" lon="-4.908467">
        <ele>1956.0</ele>
        <time>2014-06-30T13:58:25Z</time>
      </trkpt>
      <trkpt lat="40.599617" lon="-4.908500">
        <ele>1957.0</ele>
        <time>2014-06-30T13:58:26Z</time>
      </trkpt>
      <trkpt lat="40.599683" lon="-4.908533">
        <ele>1958.0</ele>
        <time>2014-06-30T13:58:27Z</time>
      </trkpt>
      <trkpt lat="40.599767" lon="-4.908533">
        <ele>1960.0</ele>
        <time>2014-06-30T13:58:28Z</time>
      </trkpt>
      <trkpt lat="40.599850" lon="-4.908533">
        <ele>1961.0</ele>
        <time>2014-06-30T13:58:29Z</time>
      </trkpt>
      <trkpt lat="40.599950" lon="-4.908483">
        <ele>1962.0</ele>
        <time>2014-06-30T13:58:30Z</time>
      </trkpt>
      <trkpt lat="40.600067" lon="-4.908433">
        <ele>1963.0</ele>
        <time>2014-06-30T13:58:31Z</time>
      </trkpt>
      <trkpt lat="40.600167" lon="-4.908350">
        <ele>1963.0</ele>
        <time>2014-06-30T13:58:32Z</time>
      </trkpt>
      <trkpt lat="40.600267" lon="-4.908267">
        <ele>1964.0</ele>
        <time>2014-06-30T13:58:33Z</time>
      </trkpt>
      <trkpt lat="40.600383" lon="-4.908200">
        <ele>1965.0</ele>
        <time>2014-06-30T13:58:34Z</time>
      </trkpt>
      <trkpt lat="40.600483" lon="-4.908100">
        <ele>1966.0</ele>
        <time>2014-06-30T13:58:35Z</time>
      </trkpt>
      <trkpt lat="40.600600" lon="-4.908017">
        <ele>1968.0</ele>
        <time>2014-06-30T13:58:36Z</time>
      </trkpt>
      <trkpt lat="40.600700" lon="-4.907917">
        <ele>1970.0</ele>
        <time>2014-06-30T13:58:37Z</time>
      </trkpt>
      <trkpt lat="40.600800" lon="-4.907817">
        <ele>1970.0</ele>
        <time>2014-06-30T13:58:38Z</time>
      </trkpt>
      <trkpt lat="40.600900" lon="-4.907717">
        <ele>1975.0</ele>
        <time>2014-06-30T13:58:39Z</time>
      </trkpt>
      <trkpt lat="40.600983" lon="-4.907617">
        <ele>1977.0</ele>
        <time>2014-06-30T13:58:40Z</time>
      </trkpt>
      <trkpt lat="40.601083" lon="-4.907517">
        <ele>1978.0</ele>
        <time>2014-06-30T13:58:41Z</time>
      </trkpt>
      <trkpt lat="40.601167" lon="-4.907383">
        <ele>1979.0</ele>
        <time>2014-06-30T13:58:42Z</time>
      </trkpt>
      <trkpt lat="40.601233" lon="-4.907250">
        <ele>1980.0</ele>
        <time>2014-06-30T13:58:43Z</time>
      </trkpt>
      <trkpt lat="40.601300" lon="-4.907100">
        <ele>1980.0</ele>
        <time>2014-06-30T13:58:44Z</time>
      </trkpt>
      <trkpt lat="40.601350" lon="-4.906933">
        <ele>1979.0</ele>
        <time>2014-06-30T13:58:45Z</time>
      </trkpt>
      <trkpt lat="40.601367" lon="-4.906750">
        <ele>1979.0</ele>
        <time>2014-06-30T13:58:46Z</time>
      </trkpt>
      <trkpt lat="40.601383" lon="-4.906583">
        <ele>1979.0</ele>
        <time>2014-06-30T13:58:47Z</time>
      </trkpt>
      <trkpt lat="40.601383" lon="-4.906417">
        <ele>1979.0</ele>
        <time>2014-06-30T13:58:48Z</time>
      </trkpt>
      <trkpt lat="40.601350" lon="-4.906250">
        <ele>1979.0</ele>
        <time>2014-06-30T13:58:49Z</time>
      </trkpt>
      <trkpt lat="40.601317" lon="-4.906100">
        <ele>1978.0</ele>
        <time>2014-06-30T13:58:50Z</time>
      </trkpt>
      <trkpt lat="40.601250" lon="-4.906000">
        <ele>1978.0</ele>
        <time>2014-06-30T13:58:51Z</time>
      </trkpt>
      <trkpt lat="40.601200" lon="-4.905933">
        <ele>1978.0</ele>
        <time>2014-06-30T13:58:52Z</time>
      </trkpt>
      <trkpt lat="40.601133" lon="-4.905883">
        <ele>1978.0</ele>
        <time>2014-06-30T13:58:53Z</time>
      </trkpt>
      <trkpt lat="40.601067" lon="-4.905833">
        <ele>1978.0</ele>
        <time>2014-06-30T13:58:54Z</time>
      </trkpt>
      <trkpt lat="40.600983" lon="-4.905800">
        <ele>1978.0</ele>
        <time>2014-06-30T13:58:55Z</time>
      </trkpt>
      <trkpt lat="40.600917" lon="-4.905783">
        <ele>1978.0</ele>
        <time>2014-06-30T13:58:56Z</time>
      </trkpt>
      <trkpt lat="40.600850" lon="-4.905767">
        <ele>1978.0</ele>
        <time>2014-06-30T13:58:57Z</time>
      </trkpt>
      <trkpt lat="40.600800" lon="-4.905800">
        <ele>1978.0</ele>
        <time>2014-06-30T13:58:58Z</time>
      </trkpt>
      <trkpt lat="40.600767" lon="-4.905833">
        <ele>1979.0</ele>
        <time>2014-06-30T13:58:59Z</time>
      </trkpt>
      <trkpt lat="40.600750" lon="-4.905867">
        <ele>1981.0</ele>
        <time>2014-06-30T13:59:00Z</time>
      </trkpt>
      <trkpt lat="40.600733" lon="-4.905917">
        <ele>1981.0</ele>
        <time>2014-06-30T13:59:01Z</time>
      </trkpt>
      <trkpt lat="40.600700" lon="-4.905967">
        <ele>1982.0</ele>
        <time>2014-06-30T13:59:02Z</time>
      </trkpt>
      <trkpt lat="40.600683" lon="-4.906017">
        <ele>1983.0</ele>
        <time>2014-06-30T13:59:03Z</time>
      </trkpt>
      <trkpt lat="40.600667" lon="-4.906050">
        <ele>1984.0</ele>
        <time>2014-06-30T13:59:04Z</time>
      </trkpt>
      <trkpt lat="40.600650" lon="-4.906083">
        <ele>1987.0</ele>
        <time>2014-06-30T13:59:05Z</time>
      </trkpt>
      <trkpt lat="40.600650" lon="-4.906117">
        <ele>1990.0</ele>
        <time>2014-06-30T13:59:06Z</time>
      </trkpt>
      <trkpt lat="40.600650" lon="-4.906133">
        <ele>1992.0</ele>
        <time>2014-06-30T13:59:07Z</time>
      </trkpt>
      <trkpt lat="40.600667" lon="-4.906150">
        <ele>1994.0</ele>
        <time>2014-06-30T13:59:08Z</time>
      </trkpt>
      <trkpt lat="40.600683" lon="-4.906167">
        <ele>1995.0</ele>
        <time>2014-06-30T13:59:09Z</time>
      </trkpt>
      <trkpt lat="40.600700" lon="-4.906200">
        <ele>1997.0</ele>
        <time>2014-06-30T13:59:10Z</time>
      </trkpt>
      <trkpt lat="40.600717" lon="-4.906250">
        <ele>1998.0</ele>
        <time>2014-06-30T13:59:11Z</time>
      </trkpt>
      <trkpt lat="40.600750" lon="-4.906283">
        <ele>2000.0</ele>
        <time>2014-06-30T13:59:12Z</time>
      </trkpt>
      <trkpt lat="40.600800" lon="-4.906317">
        <ele>2002.0</ele>
        <time>2014-06-30T13:59:13Z</time>
      </trkpt>
      <trkpt lat="40.600867" lon="-4.906350">
        <ele>2004.0</ele>
        <time>2014-06-30T13:59:14Z</time>
      </trkpt>
      <trkpt lat="40.600933" lon="-4.906350">
        <ele>2004.0</ele>
        <time>2014-06-30T13:59:15Z</time>
      </trkpt>
      <trkpt lat="40.601017" lon="-4.906350">
        <ele>2004.0</ele>
        <time>2014-06-30T13:59:16Z</time>
      </trkpt>
      <trkpt lat="40.601083" lon="-4.906350">
        <ele>2004.0</ele>
        <time>2014-06-30T13:59:17Z</time>
      </trkpt>
      <trkpt lat="40.601150" lon="-4.906350">
        <ele>2004.0</ele>
        <time>2014-06-30T13:59:18Z</time>
      </trkpt>
      <trkpt lat="40.601217" lon="-4.906333">
        <ele>2003.0</ele>
        <time>2014-06-30T13:59:19Z</time>
      </trkpt>
      <trkpt lat="40.601300" lon="-4.906300">
        <ele>2003.0</ele>
        <time>2014-06-30T13:59:20Z</time>
      </trkpt>
      <trkpt lat="40.601383" lon="-4.906233">
        <ele>2002.0</ele>
        <time>2014-06-30T13:59:21Z</time>
      </trkpt>
      <trkpt lat="40.601467" lon="-4.906150">
        <ele>2001.0</ele>
        <time>2014-06-30T13:59:22Z</time>
      </trkpt>
      <trkpt lat="40.601550" lon="-4.906033">
        <ele>1999.0</ele>
        <time>2014-06-30T13:59:23Z</time>
      </trkpt>
      <trkpt lat="40.601633" lon="-4.905900">
        <ele>1997.0</ele>
        <time>2014-06-30T13:59:24Z</time>
      </trkpt>
      <trkpt lat="40.601683" lon="-4.905717">
        <ele>1993.0</ele>
        <time>2014-06-30T13:59:25Z</time>
      </trkpt>
      <trkpt lat="40.601733" lon="-4.905517">
        <ele>1990.0</ele>
        <time>2014-06-30T13:59:26Z</time>
      </trkpt>
      <trkpt lat="40.601767" lon="-4.905333">
        <ele>1989.0</ele>
        <time>2014-06-30T13:59:27Z</time>
      </trkpt>
      <trkpt lat="40.601767" lon="-4.905167">
        <ele>1988.0</ele>
        <time>2014-06-30T13:59:28Z</time>
      </trkpt>
      <trkpt lat="40.601733" lon="-4.905017">
        <ele>1988.0</ele>
        <time>2014-06-30T13:59:29Z</time>
      </trkpt>
      <trkpt lat="40.601700" lon="-4.904867">
        <ele>1988.0</ele>
        <time>2014-06-30T13:59:30Z</time>
      </trkpt>
      <trkpt lat="40.601667" lon="-4.904700">
        <ele>1987.0</ele>
        <time>2014-06-30T13:59:31Z</time>
      </trkpt>
      <trkpt lat="40.601617" lon="-4.904533">
        <ele>1985.0</ele>
        <time>2014-06-30T13:59:32Z</time>
      </trkpt>
      <trkpt lat="40.601583" lon="-4.904367">
        <ele>1984.0</ele>
        <time>2014-06-30T13:59:33Z</time>
      </trkpt>
      <trkpt lat="40.601533" lon="-4.904217">
        <ele>1983.0</ele>
        <time>2014-06-30T13:59:34Z</time>
      </trkpt>
      <trkpt lat="40.601500" lon="-4.904067">
        <ele>1983.0</ele>
        <time>2014-06-30T13:59:35Z</time>
      </trkpt>
      <trkpt lat="40.601467" lon="-4.903900">
        <ele>1984.0</ele>
        <time>2014-06-30T13:59:36Z</time>
      </trkpt>
      <trkpt lat="40.601433" lon="-4.903750">
        <ele>1985.0</ele>
        <time>2014-06-30T13:59:37Z</time>
      </trkpt>
      <trkpt lat="40.601400" lon="-4.903600">
        <ele>1985.0</ele>
        <time>2014-06-30T13:59:38Z</time>
      </trkpt>
      <trkpt lat="40.601367" lon="-4.903450">
        <ele>1986.0</ele>
        <time>2014-06-30T13:59:39Z</time>
      </trkpt>
      <trkpt lat="40.601333" lon="-4.903283">
        <ele>1986.0</ele>
        <time>2014-06-30T13:59:40Z</time>
      </trkpt>
      <trkpt lat="40.601283" lon="-4.903150">
        <ele>1985.0</ele>
        <time>2014-06-30T13:59:41Z</time>
      </trkpt>
      <trkpt lat="40.601217" lon="-4.903000">
        <ele>1985.0</ele>
        <time>2014-06-30T13:59:42Z</time>
      </trkpt>
      <trkpt lat="40.601167" lon="-4.902883">
        <ele>1985.0</ele>
        <time>2014-06-30T13:59:43Z</time>
      </trkpt>
      <trkpt lat="40.601100" lon="-4.902767">
        <ele>1985.0</ele>
        <time>2014-06-30T13:59:44Z</time>
      </trkpt>
      <trkpt lat="40.601050" lon="-4.902650">
        <ele>1984.0</ele>
        <time>2014-06-30T13:59:45Z</time>
      </trkpt>
      <trkpt lat="40.601000" lon="-4.902533">
        <ele>1984.0</ele>
        <time>2014-06-30T13:59:46Z</time>
      </trkpt>
      <trkpt lat="40.600950" lon="-4.902400">
        <ele>1984.0</ele>
        <time>2014-06-30T13:59:47Z</time>
      </trkpt>
      <trkpt lat="40.600883" lon="-4.902267">
        <ele>1984.0</ele>
        <time>2014-06-30T13:59:48Z</time>
      </trkpt>
      <trkpt lat="40.600833" lon="-4.902150">
        <ele>1984.0</ele>
        <time>2014-06-30T13:59:49Z</time>
      </trkpt>
      <trkpt lat="40.600783" lon="-4.902033">
        <ele>1984.0</ele>
        <time>2014-06-30T13:59:50Z</time>
      </trkpt>
      <trkpt lat="40.600733" lon="-4.901950">
        <ele>1985.0</ele>
        <time>2014-06-30T13:59:51Z</time>
      </trkpt>
      <trkpt lat="40.600667" lon="-4.901900">
        <ele>1986.0</ele>
        <time>2014-06-30T13:59:52Z</time>
      </trkpt>
      <trkpt lat="40.600617" lon="-4.901850">
        <ele>1987.0</ele>
        <time>2014-06-30T13:59:53Z</time>
      </trkpt>
      <trkpt lat="40.600567" lon="-4.901817">
        <ele>1987.0</ele>
        <time>2014-06-30T13:59:54Z</time>
      </trkpt>
      <trkpt lat="40.600500" lon="-4.901800">
        <ele>1987.0</ele>
        <time>2014-06-30T13:59:55Z</time>
      </trkpt>
      <trkpt lat="40.600433" lon="-4.901800">
        <ele>1985.0</ele>
        <time>2014-06-30T13:59:56Z</time>
      </trkpt>
      <trkpt lat="40.600383" lon="-4.901833">
        <ele>1984.0</ele>
        <time>2014-06-30T13:59:57Z</time>
      </trkpt>
      <trkpt lat="40.600333" lon="-4.901850">
        <ele>1983.0</ele>
        <time>2014-06-30T13:59:58Z</time>
      </trkpt>
      <trkpt lat="40.600300" lon="-4.901900">
        <ele>1983.0</ele>
        <time>2014-06-30T13:59:59Z</time>
      </trkpt>
      <trkpt lat="40.600283" lon="-4.901933">
        <ele>1983.0</ele>
        <time>2014-06-30T14:00:00Z</time>
      </trkpt>
      <trkpt lat="40.600267" lon="-4.901967">
        <ele>1982.0</ele>
        <time>2014-06-30T14:00:01Z</time>
      </trkpt>
      <trkpt lat="40.600233" lon="-4.902017">
        <ele>1981.0</ele>
        <time>2014-06-30T14:00:02Z</time>
      </trkpt>
      <trkpt lat="40.600217" lon="-4.902067">
        <ele>1983.0</ele>
        <time>2014-06-30T14:00:03Z</time>
      </trkpt>
      <trkpt lat="40.600217" lon="-4.902133">
        <ele>1983.0</ele>
        <time>2014-06-30T14:00:04Z</time>
      </trkpt>
      <trkpt lat="40.600217" lon="-4.902200">
        <ele>1982.0</ele>
        <time>2014-06-30T14:00:05Z</time>
      </trkpt>
      <trkpt lat="40.600233" lon="-4.902283">
        <ele>1982.0</ele>
        <time>2014-06-30T14:00:06Z</time>
      </trkpt>
      <trkpt lat="40.600250" lon="-4.902350">
        <ele>1982.0</ele>
        <time>2014-06-30T14:00:07Z</time>
      </trkpt>
      <trkpt lat="40.600283" lon="-4.902400">
        <ele>1983.0</ele>
        <time>2014-06-30T14:00:08Z</time>
      </trkpt>
      <trkpt lat="40.600317" lon="-4.902433">
        <ele>1983.0</ele>
        <time>2014-06-30T14:00:09Z</time>
      </trkpt>
      <trkpt lat="40.600333" lon="-4.902467">
        <ele>1983.0</ele>
        <time>2014-06-30T14:00:10Z</time>
      </trkpt>
      <trkpt lat="40.600333" lon="-4.902517">
        <ele>1982.0</ele>
        <time>2014-06-30T14:00:11Z</time>
      </trkpt>
      <trkpt lat="40.600350" lon="-4.902567">
        <ele>1981.0</ele>
        <time>2014-06-30T14:00:12Z</time>
      </trkpt>
      <trkpt lat="40.600383" lon="-4.902617">
        <ele>1980.0</ele>
        <time>2014-06-30T14:00:13Z</time>
      </trkpt>
      <trkpt lat="40.600417" lon="-4.902683">
        <ele>1978.0</ele>
        <time>2014-06-30T14:00:14Z</time>
      </trkpt>
      <trkpt lat="40.600467" lon="-4.902750">
        <ele>1977.0</ele>
        <time>2014-06-30T14:00:15Z</time>
      </trkpt>
      <trkpt lat="40.600533" lon="-4.902800">
        <ele>1978.0</ele>
        <time>2014-06-30T14:00:16Z</time>
      </trkpt>
      <trkpt lat="40.600617" lon="-4.902833">
        <ele>1978.0</ele>
        <time>2014-06-30T14:00:17Z</time>
      </trkpt>
      <trkpt lat="40.600717" lon="-4.902850">
        <ele>1978.0</ele>
        <time>2014-06-30T14:00:18Z</time>
      </trkpt>
      <trkpt lat="40.600817" lon="-4.902817">
        <ele>1978.0</ele>
        <time>2014-06-30T14:00:19Z</time>
      </trkpt>
      <trkpt lat="40.600917" lon="-4.902783">
        <ele>1979.0</ele>
        <time>2014-06-30T14:00:20Z</time>
      </trkpt>
      <trkpt lat="40.601000" lon="-4.902700">
        <ele>1979.0</ele>
        <time>2014-06-30T14:00:21Z</time>
      </trkpt>
      <trkpt lat="40.601083" lon="-4.902633">
        <ele>1979.0</ele>
        <time>2014-06-30T14:00:22Z</time>
      </trkpt>
      <trkpt lat="40.601167" lon="-4.902550">
        <ele>1979.0</ele>
        <time>2014-06-30T14:00:23Z</time>
      </trkpt>
      <trkpt lat="40.601250" lon="-4.902467">
        <ele>1978.0</ele>
        <time>2014-06-30T14:00:24Z</time>
      </trkpt>
      <trkpt lat="40.601350" lon="-4.902383">
        <ele>1975.0</ele>
        <time>2014-06-30T14:00:25Z</time>
      </trkpt>
      <trkpt lat="40.601467" lon="-4.902317">
        <ele>1972.0</ele>
        <time>2014-06-30T14:00:26Z</time>
      </trkpt>
      <trkpt lat="40.601583" lon="-4.902233">
        <ele>1970.0</ele>
        <time>2014-06-30T14:00:27Z</time>
      </trkpt>
      <trkpt lat="40.601667" lon="-4.902167">
        <ele>1969.0</ele>
        <time>2014-06-30T14:00:28Z</time>
      </trkpt>
      <trkpt lat="40.601750" lon="-4.902083">
        <ele>1969.0</ele>
        <time>2014-06-30T14:00:29Z</time>
      </trkpt>
      <trkpt lat="40.601833" lon="-4.901967">
        <ele>1969.0</ele>
        <time>2014-06-30T14:00:30Z</time>
      </trkpt>
      <trkpt lat="40.601900" lon="-4.901850">
        <ele>1968.0</ele>
        <time>2014-06-30T14:00:31Z</time>
      </trkpt>
      <trkpt lat="40.601983" lon="-4.901733">
        <ele>1967.0</ele>
        <time>2014-06-30T14:00:32Z</time>
      </trkpt>
      <trkpt lat="40.602033" lon="-4.901600">
        <ele>1966.0</ele>
        <time>2014-06-30T14:00:33Z</time>
      </trkpt>
      <trkpt lat="40.602083" lon="-4.901433">
        <ele>1965.0</ele>
        <time>2014-06-30T14:00:34Z</time>
      </trkpt>
      <trkpt lat="40.602133" lon="-4.901267">
        <ele>1963.0</ele>
        <time>2014-06-30T14:00:35Z</time>
      </trkpt>
      <trkpt lat="40.602150" lon="-4.901083">
        <ele>1961.0</ele>
        <time>2014-06-30T14:00:36Z</time>
      </trkpt>
      <trkpt lat="40.602183" lon="-4.900917">
        <ele>1961.0</ele>
        <time>2014-06-30T14:00:37Z</time>
      </trkpt>
      <trkpt lat="40.602233" lon="-4.900733">
        <ele>1960.0</ele>
        <time>2014-06-30T14:00:38Z</time>
      </trkpt>
      <trkpt lat="40.602250" lon="-4.900567">
        <ele>1960.0</ele>
        <time>2014-06-30T14:00:39Z</time>
      </trkpt>
      <trkpt lat="40.602283" lon="-4.900383">
        <ele>1959.0</ele>
        <time>2014-06-30T14:00:40Z</time>
      </trkpt>
      <trkpt lat="40.602300" lon="-4.900200">
        <ele>1958.0</ele>
        <time>2014-06-30T14:00:41Z</time>
      </trkpt>
      <trkpt lat="40.602300" lon="-4.900000">
        <ele>1957.0</ele>
        <time>2014-06-30T14:00:42Z</time>
      </trkpt>
      <trkpt lat="40.602300" lon="-4.899817">
        <ele>1956.0</ele>
        <time>2014-06-30T14:00:43Z</time>
      </trkpt>
      <trkpt lat="40.602300" lon="-4.899633">
        <ele>1954.0</ele>
        <time>2014-06-30T14:00:44Z</time>
      </trkpt>
      <trkpt lat="40.602300" lon="-4.899450">
        <ele>1953.0</ele>
        <time>2014-06-30T14:00:45Z</time>
      </trkpt>
      <trkpt lat="40.602283" lon="-4.899267">
        <ele>1951.0</ele>
        <time>2014-06-30T14:00:46Z</time>
      </trkpt>
      <trkpt lat="40.602283" lon="-4.899083">
        <ele>1949.0</ele>
        <time>2014-06-30T14:00:47Z</time>
      </trkpt>
      <trkpt lat="40.602283" lon="-4.898900">
        <ele>1947.0</ele>
        <time>2014-06-30T14:00:48Z</time>
      </trkpt>
      <trkpt lat="40.602283" lon="-4.898717">
        <ele>1945.0</ele>
        <time>2014-06-30T14:00:49Z</time>
      </trkpt>
      <trkpt lat="40.602267" lon="-4.898550">
        <ele>1943.0</ele>
        <time>2014-06-30T14:00:50Z</time>
      </trkpt>
      <trkpt lat="40.602267" lon="-4.898367">
        <ele>1942.0</ele>
        <time>2014-06-30T14:00:51Z</time>
      </trkpt>
      <trkpt lat="40.602283" lon="-4.898200">
        <ele>1942.0</ele>
        <time>2014-06-30T14:00:52Z</time>
      </trkpt>
      <trkpt lat="40.602300" lon="-4.898033">
        <ele>1942.0</ele>
        <time>2014-06-30T14:00:53Z</time>
      </trkpt>
      <trkpt lat="40.602317" lon="-4.897883">
        <ele>1941.0</ele>
        <time>2014-06-30T14:00:54Z</time>
      </trkpt>
      <trkpt lat="40.602350" lon="-4.897733">
        <ele>1941.0</ele>
        <time>2014-06-30T14:00:55Z</time>
      </trkpt>
      <trkpt lat="40.602383" lon="-4.897583">
        <ele>1940.0</ele>
        <time>2014-06-30T14:00:56Z</time>
      </trkpt>
      <trkpt lat="40.602417" lon="-4.897417">
        <ele>1938.0</ele>
        <time>2014-06-30T14:00:57Z</time>
      </trkpt>
      <trkpt lat="40.602433" lon="-4.897250">
        <ele>1937.0</ele>
        <time>2014-06-30T14:00:58Z</time>
      </trkpt>
      <trkpt lat="40.602450" lon="-4.897083">
        <ele>1936.0</ele>
        <time>2014-06-30T14:00:59Z</time>
      </trkpt>
      <trkpt lat="40.602467" lon="-4.896917">
        <ele>1935.0</ele>
        <time>2014-06-30T14:01:00Z</time>
      </trkpt>
      <trkpt lat="40.602483" lon="-4.896750">
        <ele>1934.0</ele>
        <time>2014-06-30T14:01:01Z</time>
      </trkpt>
      <trkpt lat="40.602517" lon="-4.896583">
        <ele>1933.0</ele>
        <time>2014-06-30T14:01:02Z</time>
      </trkpt>
      <trkpt lat="40.602550" lon="-4.896400">
        <ele>1930.0</ele>
        <time>2014-06-30T14:01:03Z</time>
      </trkpt>
      <trkpt lat="40.602600" lon="-4.896233">
        <ele>1928.0</ele>
        <time>2014-06-30T14:01:04Z</time>
      </trkpt>
      <trkpt lat="40.602667" lon="-4.896050">
        <ele>1926.0</ele>
        <time>2014-06-30T14:01:05Z</time>
      </trkpt>
      <trkpt lat="40.602717" lon="-4.895883">
        <ele>1924.0</ele>
        <time>2014-06-30T14:01:06Z</time>
      </trkpt>
      <trkpt lat="40.602783" lon="-4.895717">
        <ele>1922.0</ele>
        <time>2014-06-30T14:01:07Z</time>
      </trkpt>
      <trkpt lat="40.602833" lon="-4.895533">
        <ele>1920.0</ele>
        <time>2014-06-30T14:01:08Z</time>
      </trkpt>
      <trkpt lat="40.602883" lon="-4.895333">
        <ele>1918.0</ele>
        <time>2014-06-30T14:01:09Z</time>
      </trkpt>
      <trkpt lat="40.602933" lon="-4.895150">
        <ele>1916.0</ele>
        <time>2014-06-30T14:01:10Z</time>
      </trkpt>
      <trkpt lat="40.602983" lon="-4.894967">
        <ele>1914.0</ele>
        <time>2014-06-30T14:01:11Z</time>
      </trkpt>
      <trkpt lat="40.603050" lon="-4.894800">
        <ele>1912.0</ele>
        <time>2014-06-30T14:01:12Z</time>
      </trkpt>
      <trkpt lat="40.603100" lon="-4.894617">
        <ele>1910.0</ele>
        <time>2014-06-30T14:01:13Z</time>
      </trkpt>
      <trkpt lat="40.603167" lon="-4.894450">
        <ele>1908.0</ele>
        <time>2014-06-30T14:01:14Z</time>
      </trkpt>
      <trkpt lat="40.603217" lon="-4.894267">
        <ele>1905.0</ele>
        <time>2014-06-30T14:01:15Z</time>
      </trkpt>
      <trkpt lat="40.603267" lon="-4.894083">
        <ele>1903.0</ele>
        <time>2014-06-30T14:01:16Z</time>
      </trkpt>
      <trkpt lat="40.603333" lon="-4.893917">
        <ele>1901.0</ele>
        <time>2014-06-30T14:01:17Z</time>
      </trkpt>
      <trkpt lat="40.603383" lon="-4.893733">
        <ele>1900.0</ele>
        <time>2014-06-30T14:01:18Z</time>
      </trkpt>
      <trkpt lat="40.603450" lon="-4.893550">
        <ele>1898.0</ele>
        <time>2014-06-30T14:01:19Z</time>
      </trkpt>
      <trkpt lat="40.603500" lon="-4.893367">
        <ele>1895.0</ele>
        <time>2014-06-30T14:01:20Z</time>
      </trkpt>
      <trkpt lat="40.603567" lon="-4.893200">
        <ele>1893.0</ele>
        <time>2014-06-30T14:01:21Z</time>
      </trkpt>
      <trkpt lat="40.603617" lon="-4.893017">
        <ele>1891.0</ele>
        <time>2014-06-30T14:01:22Z</time>
      </trkpt>
      <trkpt lat="40.603683" lon="-4.892833">
        <ele>1889.0</ele>
        <time>2014-06-30T14:01:23Z</time>
      </trkpt>
      <trkpt lat="40.603733" lon="-4.892650">
        <ele>1887.0</ele>
        <time>2014-06-30T14:01:24Z</time>
      </trkpt>
      <trkpt lat="40.603783" lon="-4.892483">
        <ele>1885.0</ele>
        <time>2014-06-30T14:01:25Z</time>
      </trkpt>
      <trkpt lat="40.603833" lon="-4.892317">
        <ele>1884.0</ele>
        <time>2014-06-30T14:01:26Z</time>
      </trkpt>
      <trkpt lat="40.603883" lon="-4.892150">
        <ele>1882.0</ele>
        <time>2014-06-30T14:01:27Z</time>
      </trkpt>
      <trkpt lat="40.603933" lon="-4.891967">
        <ele>1880.0</ele>
        <time>2014-06-30T14:01:28Z</time>
      </trkpt>
      <trkpt lat="40.603983" lon="-4.891783">
        <ele>1878.0</ele>
        <time>2014-06-30T14:01:29Z</time>
      </trkpt>
      <trkpt lat="40.604033" lon="-4.891617">
        <ele>1876.0</ele>
        <time>2014-06-30T14:01:30Z</time>
      </trkpt>
      <trkpt lat="40.604083" lon="-4.891433">
        <ele>1874.0</ele>
        <time>2014-06-30T14:01:31Z</time>
      </trkpt>
      <trkpt lat="40.604150" lon="-4.891250">
        <ele>1872.0</ele>
        <time>2014-06-30T14:01:32Z</time>
      </trkpt>
      <trkpt lat="40.604200" lon="-4.891083">
        <ele>1871.0</ele>
        <time>2014-06-30T14:01:33Z</time>
      </trkpt>
      <trkpt lat="40.604267" lon="-4.890917">
        <ele>1869.0</ele>
        <time>2014-06-30T14:01:34Z</time>
      </trkpt>
      <trkpt lat="40.604317" lon="-4.890750">
        <ele>1867.0</ele>
        <time>2014-06-30T14:01:35Z</time>
      </trkpt>
      <trkpt lat="40.604383" lon="-4.890567">
        <ele>1865.0</ele>
        <time>2014-06-30T14:01:36Z</time>
      </trkpt>
      <trkpt lat="40.604450" lon="-4.890400">
        <ele>1863.0</ele>
        <time>2014-06-30T14:01:37Z</time>
      </trkpt>
      <trkpt lat="40.604500" lon="-4.890217">
        <ele>1860.0</ele>
        <time>2014-06-30T14:01:38Z</time>
      </trkpt>
      <trkpt lat="40.604550" lon="-4.890033">
        <ele>1859.0</ele>
        <time>2014-06-30T14:01:39Z</time>
      </trkpt>
      <trkpt lat="40.604600" lon="-4.889883">
        <ele>1857.0</ele>
        <time>2014-06-30T14:01:40Z</time>
      </trkpt>
      <trkpt lat="40.604650" lon="-4.889733">
        <ele>1856.0</ele>
        <time>2014-06-30T14:01:41Z</time>
      </trkpt>
      <trkpt lat="40.604717" lon="-4.889583">
        <ele>1855.0</ele>
        <time>2014-06-30T14:01:42Z</time>
      </trkpt>
      <trkpt lat="40.604767" lon="-4.889433">
        <ele>1853.0</ele>
        <time>2014-06-30T14:01:43Z</time>
      </trkpt>
      <trkpt lat="40.604833" lon="-4.889267">
        <ele>1851.0</ele>
        <time>2014-06-30T14:01:44Z</time>
      </trkpt>
      <trkpt lat="40.604900" lon="-4.889117">
        <ele>1850.0</ele>
        <time>2014-06-30T14:01:45Z</time>
      </trkpt>
      <trkpt lat="40.604950" lon="-4.888983">
        <ele>1850.0</ele>
        <time>2014-06-30T14:01:46Z</time>
      </trkpt>
      <trkpt lat="40.605000" lon="-4.888833">
        <ele>1849.0</ele>
        <time>2014-06-30T14:01:47Z</time>
      </trkpt>
      <trkpt lat="40.605050" lon="-4.888700">
        <ele>1848.0</ele>
        <time>2014-06-30T14:01:48Z</time>
      </trkpt>
      <trkpt lat="40.605100" lon="-4.888533">
        <ele>1846.0</ele>
        <time>2014-06-30T14:01:49Z</time>
      </trkpt>
      <trkpt lat="40.605167" lon="-4.888383">
        <ele>1843.0</ele>
        <time>2014-06-30T14:01:50Z</time>
      </trkpt>
      <trkpt lat="40.605217" lon="-4.888217">
        <ele>1841.0</ele>
        <time>2014-06-30T14:01:51Z</time>
      </trkpt>
      <trkpt lat="40.605283" lon="-4.888067">
        <ele>1840.0</ele>
        <time>2014-06-30T14:01:52Z</time>
      </trkpt>
      <trkpt lat="40.605333" lon="-4.887917">
        <ele>1839.0</ele>
        <time>2014-06-30T14:01:53Z</time>
      </trkpt>
      <trkpt lat="40.605400" lon="-4.887767">
        <ele>1837.0</ele>
        <time>2014-06-30T14:01:54Z</time>
      </trkpt>
      <trkpt lat="40.605450" lon="-4.887617">
        <ele>1835.0</ele>
        <time>2014-06-30T14:01:55Z</time>
      </trkpt>
      <trkpt lat="40.605517" lon="-4.887450">
        <ele>1832.0</ele>
        <time>2014-06-30T14:01:56Z</time>
      </trkpt>
      <trkpt lat="40.605600" lon="-4.887283">
        <ele>1831.0</ele>
        <time>2014-06-30T14:01:57Z</time>
      </trkpt>
      <trkpt lat="40.605667" lon="-4.887133">
        <ele>1830.0</ele>
        <time>2014-06-30T14:01:58Z</time>
      </trkpt>
      <trkpt lat="40.605717" lon="-4.886983">
        <ele>1830.0</ele>
        <time>2014-06-30T14:01:59Z</time>
      </trkpt>
      <trkpt lat="40.605767" lon="-4.886833">
        <ele>1830.0</ele>
        <time>2014-06-30T14:02:00Z</time>
      </trkpt>
      <trkpt lat="40.605817" lon="-4.886683">
        <ele>1829.0</ele>
        <time>2014-06-30T14:02:01Z</time>
      </trkpt>
      <trkpt lat="40.605850" lon="-4.886533">
        <ele>1828.0</ele>
        <time>2014-06-30T14:02:02Z</time>
      </trkpt>
      <trkpt lat="40.605883" lon="-4.886400">
        <ele>1826.0</ele>
        <time>2014-06-30T14:02:03Z</time>
      </trkpt>
      <trkpt lat="40.605900" lon="-4.886233">
        <ele>1824.0</ele>
        <time>2014-06-30T14:02:04Z</time>
      </trkpt>
      <trkpt lat="40.605933" lon="-4.886083">
        <ele>1821.0</ele>
        <time>2014-06-30T14:02:05Z</time>
      </trkpt>
      <trkpt lat="40.605967" lon="-4.885917">
        <ele>1819.0</ele>
        <time>2014-06-30T14:02:06Z</time>
      </trkpt>
      <trkpt lat="40.606017" lon="-4.885767">
        <ele>1818.0</ele>
        <time>2014-06-30T14:02:07Z</time>
      </trkpt>
      <trkpt lat="40.606050" lon="-4.885633">
        <ele>1818.0</ele>
        <time>2014-06-30T14:02:08Z</time>
      </trkpt>
      <trkpt lat="40.606083" lon="-4.885483">
        <ele>1818.0</ele>
        <time>2014-06-30T14:02:09Z</time>
      </trkpt>
      <trkpt lat="40.606083" lon="-4.885350">
        <ele>1818.0</ele>
        <time>2014-06-30T14:02:10Z</time>
      </trkpt>
      <trkpt lat="40.606100" lon="-4.885217">
        <ele>1818.0</ele>
        <time>2014-06-30T14:02:11Z</time>
      </trkpt>
      <trkpt lat="40.606133" lon="-4.885083">
        <ele>1817.0</ele>
        <time>2014-06-30T14:02:12Z</time>
      </trkpt>
      <trkpt lat="40.606167" lon="-4.884933">
        <ele>1815.0</ele>
        <time>2014-06-30T14:02:13Z</time>
      </trkpt>
      <trkpt lat="40.606200" lon="-4.884800">
        <ele>1815.0</ele>
        <time>2014-06-30T14:02:14Z</time>
      </trkpt>
      <trkpt lat="40.606233" lon="-4.884667">
        <ele>1814.0</ele>
        <time>2014-06-30T14:02:15Z</time>
      </trkpt>
      <trkpt lat="40.606267" lon="-4.884533">
        <ele>1813.0</ele>
        <time>2014-06-30T14:02:16Z</time>
      </trkpt>
      <trkpt lat="40.606300" lon="-4.884400">
        <ele>1812.0</ele>
        <time>2014-06-30T14:02:17Z</time>
      </trkpt>
      <trkpt lat="40.606317" lon="-4.884250">
        <ele>1810.0</ele>
        <time>2014-06-30T14:02:18Z</time>
      </trkpt>
      <trkpt lat="40.606350" lon="-4.884083">
        <ele>1808.0</ele>
        <time>2014-06-30T14:02:19Z</time>
      </trkpt>
      <trkpt lat="40.606383" lon="-4.883917">
        <ele>1806.0</ele>
        <time>2014-06-30T14:02:20Z</time>
      </trkpt>
      <trkpt lat="40.606417" lon="-4.883750">
        <ele>1806.0</ele>
        <time>2014-06-30T14:02:21Z</time>
      </trkpt>
      <trkpt lat="40.606433" lon="-4.883600">
        <ele>1806.0</ele>
        <time>2014-06-30T14:02:22Z</time>
      </trkpt>
      <trkpt lat="40.606450" lon="-4.883467">
        <ele>1805.0</ele>
        <time>2014-06-30T14:02:23Z</time>
      </trkpt>
      <trkpt lat="40.606450" lon="-4.883333">
        <ele>1804.0</ele>
        <time>2014-06-30T14:02:24Z</time>
      </trkpt>
      <trkpt lat="40.606467" lon="-4.883167">
        <ele>1802.0</ele>
        <time>2014-06-30T14:02:25Z</time>
      </trkpt>
      <trkpt lat="40.606483" lon="-4.883000">
        <ele>1799.0</ele>
        <time>2014-06-30T14:02:26Z</time>
      </trkpt>
      <trkpt lat="40.606500" lon="-4.882850">
        <ele>1797.0</ele>
        <time>2014-06-30T14:02:27Z</time>
      </trkpt>
      <trkpt lat="40.606517" lon="-4.882683">
        <ele>1794.0</ele>
        <time>2014-06-30T14:02:28Z</time>
      </trkpt>
      <trkpt lat="40.606550" lon="-4.882517">
        <ele>1792.0</ele>
        <time>2014-06-30T14:02:29Z</time>
      </trkpt>
      <trkpt lat="40.606567" lon="-4.882367">
        <ele>1790.0</ele>
        <time>2014-06-30T14:02:30Z</time>
      </trkpt>
      <trkpt lat="40.606583" lon="-4.882217">
        <ele>1789.0</ele>
        <time>2014-06-30T14:02:31Z</time>
      </trkpt>
      <trkpt lat="40.606600" lon="-4.882067">
        <ele>1788.0</ele>
        <time>2014-06-30T14:02:32Z</time>
      </trkpt>
      <trkpt lat="40.606617" lon="-4.881917">
        <ele>1787.0</ele>
        <time>2014-06-30T14:02:33Z</time>
      </trkpt>
      <trkpt lat="40.606633" lon="-4.881783">
        <ele>1786.0</ele>
        <time>2014-06-30T14:02:34Z</time>
      </trkpt>
      <trkpt lat="40.606650" lon="-4.881667">
        <ele>1784.0</ele>
        <time>2014-06-30T14:02:35Z</time>
      </trkpt>
      <trkpt lat="40.606667" lon="-4.881517">
        <ele>1782.0</ele>
        <time>2014-06-30T14:02:36Z</time>
      </trkpt>
      <trkpt lat="40.606683" lon="-4.881367">
        <ele>1779.0</ele>
        <time>2014-06-30T14:02:37Z</time>
      </trkpt>
      <trkpt lat="40.606717" lon="-4.881217">
        <ele>1776.0</ele>
        <time>2014-06-30T14:02:38Z</time>
      </trkpt>
      <trkpt lat="40.606733" lon="-4.881083">
        <ele>1773.0</ele>
        <time>2014-06-30T14:02:39Z</time>
      </trkpt>
      <trkpt lat="40.606750" lon="-4.880933">
        <ele>1771.0</ele>
        <time>2014-06-30T14:02:40Z</time>
      </trkpt>
      <trkpt lat="40.606783" lon="-4.880800">
        <ele>1768.0</ele>
        <time>2014-06-30T14:02:41Z</time>
      </trkpt>
      <trkpt lat="40.606800" lon="-4.880683">
        <ele>1766.0</ele>
        <time>2014-06-30T14:02:42Z</time>
      </trkpt>
      <trkpt lat="40.606833" lon="-4.880550">
        <ele>1762.0</ele>
        <time>2014-06-30T14:02:43Z</time>
      </trkpt>
      <trkpt lat="40.606883" lon="-4.880433">
        <ele>1758.0</ele>
        <time>2014-06-30T14:02:44Z</time>
      </trkpt>
      <trkpt lat="40.606917" lon="-4.880283">
        <ele>1754.0</ele>
        <time>2014-06-30T14:02:45Z</time>
      </trkpt>
      <trkpt lat="40.606967" lon="-4.880117">
        <ele>1749.0</ele>
        <time>2014-06-30T14:02:46Z</time>
      </trkpt>
      <trkpt lat="40.607017" lon="-4.879967">
        <ele>1746.0</ele>
        <time>2014-06-30T14:02:47Z</time>
      </trkpt>
      <trkpt lat="40.607050" lon="-4.879817">
        <ele>1743.0</ele>
        <time>2014-06-30T14:02:48Z</time>
      </trkpt>
      <trkpt lat="40.607067" lon="-4.879667">
        <ele>1740.0</ele>
        <time>2014-06-30T14:02:49Z</time>
      </trkpt>
      <trkpt lat="40.607100" lon="-4.879517">
        <ele>1737.0</ele>
        <time>2014-06-30T14:02:50Z</time>
      </trkpt>
      <trkpt lat="40.607150" lon="-4.879367">
        <ele>1733.0</ele>
        <time>2014-06-30T14:02:51Z</time>
      </trkpt>
      <trkpt lat="40.607200" lon="-4.879217">
        <ele>1729.0</ele>
        <time>2014-06-30T14:02:52Z</time>
      </trkpt>
      <trkpt lat="40.607283" lon="-4.879067">
        <ele>1726.0</ele>
        <time>2014-06-30T14:02:53Z</time>
      </trkpt>
      <trkpt lat="40.607350" lon="-4.878950">
        <ele>1725.0</ele>
        <time>2014-06-30T14:02:54Z</time>
      </trkpt>
      <trkpt lat="40.607383" lon="-4.878833">
        <ele>1727.0</ele>
        <time>2014-06-30T14:02:55Z</time>
      </trkpt>
      <trkpt lat="40.607417" lon="-4.878717">
        <ele>1728.0</ele>
        <time>2014-06-30T14:02:56Z</time>
      </trkpt>
      <trkpt lat="40.607433" lon="-4.878600">
        <ele>1727.0</ele>
        <time>2014-06-30T14:02:57Z</time>
      </trkpt>
      <trkpt lat="40.607467" lon="-4.878467">
        <ele>1725.0</ele>
        <time>2014-06-30T14:02:58Z</time>
      </trkpt>
      <trkpt lat="40.607517" lon="-4.878333">
        <ele>1722.0</ele>
        <time>2014-06-30T14:02:59Z</time>
      </trkpt>
      <trkpt lat="40.607550" lon="-4.878200">
        <ele>1720.0</ele>
        <time>2014-06-30T14:03:00Z</time>
      </trkpt>
      <trkpt lat="40.607600" lon="-4.878083">
        <ele>1718.0</ele>
        <time>2014-06-30T14:03:01Z</time>
      </trkpt>
      <trkpt lat="40.607650" lon="-4.877950">
        <ele>1716.0</ele>
        <time>2014-06-30T14:03:02Z</time>
      </trkpt>
      <trkpt lat="40.607667" lon="-4.877833">
        <ele>1715.0</ele>
        <time>2014-06-30T14:03:03Z</time>
      </trkpt>
      <trkpt lat="40.607700" lon="-4.877717">
        <ele>1715.0</ele>
        <time>2014-06-30T14:03:04Z</time>
      </trkpt>
      <trkpt lat="40.607717" lon="-4.877600">
        <ele>1714.0</ele>
        <time>2014-06-30T14:03:05Z</time>
      </trkpt>
      <trkpt lat="40.607750" lon="-4.877483">
        <ele>1714.0</ele>
        <time>2014-06-30T14:03:06Z</time>
      </trkpt>
      <trkpt lat="40.607783" lon="-4.877367">
        <ele>1713.0</ele>
        <time>2014-06-30T14:03:07Z</time>
      </trkpt>
      <trkpt lat="40.607800" lon="-4.877233">
        <ele>1713.0</ele>
        <time>2014-06-30T14:03:08Z</time>
      </trkpt>
      <trkpt lat="40.607817" lon="-4.877117">
        <ele>1713.0</ele>
        <time>2014-06-30T14:03:09Z</time>
      </trkpt>
      <trkpt lat="40.607800" lon="-4.876983">
        <ele>1713.0</ele>
        <time>2014-06-30T14:03:10Z</time>
      </trkpt>
      <trkpt lat="40.607800" lon="-4.876850">
        <ele>1713.0</ele>
        <time>2014-06-30T14:03:11Z</time>
      </trkpt>
      <trkpt lat="40.607817" lon="-4.876717">
        <ele>1713.0</ele>
        <time>2014-06-30T14:03:12Z</time>
      </trkpt>
      <trkpt lat="40.607850" lon="-4.876567">
        <ele>1713.0</ele>
        <time>2014-06-30T14:03:13Z</time>
      </trkpt>
      <trkpt lat="40.607900" lon="-4.876450">
        <ele>1713.0</ele>
        <time>2014-06-30T14:03:14Z</time>
      </trkpt>
      <trkpt lat="40.607917" lon="-4.876317">
        <ele>1715.0</ele>
        <time>2014-06-30T14:03:15Z</time>
      </trkpt>
      <trkpt lat="40.607950" lon="-4.876200">
        <ele>1717.0</ele>
        <time>2014-06-30T14:03:16Z</time>
      </trkpt>
      <trkpt lat="40.607967" lon="-4.876083">
        <ele>1718.0</ele>
        <time>2014-06-30T14:03:17Z</time>
      </trkpt>
      <trkpt lat="40.608000" lon="-4.875967">
        <ele>1720.0</ele>
        <time>2014-06-30T14:03:18Z</time>
      </trkpt>
      <trkpt lat="40.608050" lon="-4.875850">
        <ele>1720.0</ele>
        <time>2014-06-30T14:03:19Z</time>
      </trkpt>
      <trkpt lat="40.608100" lon="-4.875733">
        <ele>1720.0</ele>
        <time>2014-06-30T14:03:20Z</time>
      </trkpt>
      <trkpt lat="40.608150" lon="-4.875617">
        <ele>1720.0</ele>
        <time>2014-06-30T14:03:21Z</time>
      </trkpt>
      <trkpt lat="40.608200" lon="-4.875500">
        <ele>1720.0</ele>
        <time>2014-06-30T14:03:22Z</time>
      </trkpt>
      <trkpt lat="40.608233" lon="-4.875367">
        <ele>1721.0</ele>
        <time>2014-06-30T14:03:23Z</time>
      </trkpt>
      <trkpt lat="40.608250" lon="-4.875250">
        <ele>1723.0</ele>
        <time>2014-06-30T14:03:24Z</time>
      </trkpt>
      <trkpt lat="40.608267" lon="-4.875150">
        <ele>1724.0</ele>
        <time>2014-06-30T14:03:25Z</time>
      </trkpt>
      <trkpt lat="40.608300" lon="-4.875033">
        <ele>1724.0</ele>
        <time>2014-06-30T14:03:26Z</time>
      </trkpt>
      <trkpt lat="40.608317" lon="-4.874917">
        <ele>1724.0</ele>
        <time>2014-06-30T14:03:27Z</time>
      </trkpt>
      <trkpt lat="40.608350" lon="-4.874783">
        <ele>1722.0</ele>
        <time>2014-06-30T14:03:28Z</time>
      </trkpt>
      <trkpt lat="40.608383" lon="-4.874667">
        <ele>1721.0</ele>
        <time>2014-06-30T14:03:29Z</time>
      </trkpt>
      <trkpt lat="40.608417" lon="-4.874533">
        <ele>1720.0</ele>
        <time>2014-06-30T14:03:30Z</time>
      </trkpt>
      <trkpt lat="40.608433" lon="-4.874400">
        <ele>1720.0</ele>
        <time>2014-06-30T14:03:31Z</time>
      </trkpt>
      <trkpt lat="40.608467" lon="-4.874283">
        <ele>1719.0</ele>
        <time>2014-06-30T14:03:32Z</time>
      </trkpt>
      <trkpt lat="40.608500" lon="-4.874150">
        <ele>1719.0</ele>
        <time>2014-06-30T14:03:33Z</time>
      </trkpt>
      <trkpt lat="40.608533" lon="-4.874017">
        <ele>1719.0</ele>
        <time>2014-06-30T14:03:34Z</time>
      </trkpt>
      <trkpt lat="40.608583" lon="-4.873883">
        <ele>1719.0</ele>
        <time>2014-06-30T14:03:35Z</time>
      </trkpt>
      <trkpt lat="40.608617" lon="-4.873750">
        <ele>1718.0</ele>
        <time>2014-06-30T14:03:36Z</time>
      </trkpt>
      <trkpt lat="40.608650" lon="-4.873633">
        <ele>1718.0</ele>
        <time>2014-06-30T14:03:37Z</time>
      </trkpt>
      <trkpt lat="40.608683" lon="-4.873500">
        <ele>1718.0</ele>
        <time>2014-06-30T14:03:38Z</time>
      </trkpt>
      <trkpt lat="40.608700" lon="-4.873367">
        <ele>1717.0</ele>
        <time>2014-06-30T14:03:39Z</time>
      </trkpt>
      <trkpt lat="40.608700" lon="-4.873233">
        <ele>1717.0</ele>
        <time>2014-06-30T14:03:40Z</time>
      </trkpt>
      <trkpt lat="40.608717" lon="-4.873100">
        <ele>1715.0</ele>
        <time>2014-06-30T14:03:41Z</time>
      </trkpt>
      <trkpt lat="40.608733" lon="-4.872967">
        <ele>1714.0</ele>
        <time>2014-06-30T14:03:42Z</time>
      </trkpt>
      <trkpt lat="40.608767" lon="-4.872833">
        <ele>1713.0</ele>
        <time>2014-06-30T14:03:43Z</time>
      </trkpt>
      <trkpt lat="40.608817" lon="-4.872717">
        <ele>1711.0</ele>
        <time>2014-06-30T14:03:44Z</time>
      </trkpt>
      <trkpt lat="40.608850" lon="-4.872583">
        <ele>1710.0</ele>
        <time>2014-06-30T14:03:45Z</time>
      </trkpt>
      <trkpt lat="40.608883" lon="-4.872433">
        <ele>1709.0</ele>
        <time>2014-06-30T14:03:46Z</time>
      </trkpt>
      <trkpt lat="40.608917" lon="-4.872267">
        <ele>1708.0</ele>
        <time>2014-06-30T14:03:47Z</time>
      </trkpt>
      <trkpt lat="40.608933" lon="-4.872117">
        <ele>1707.0</ele>
        <time>2014-06-30T14:03:48Z</time>
      </trkpt>
      <trkpt lat="40.608967" lon="-4.871967">
        <ele>1708.0</ele>
        <time>2014-06-30T14:03:49Z</time>
      </trkpt>
      <trkpt lat="40.609017" lon="-4.871817">
        <ele>1707.0</ele>
        <time>2014-06-30T14:03:50Z</time>
      </trkpt>
      <trkpt lat="40.609067" lon="-4.871683">
        <ele>1706.0</ele>
        <time>2014-06-30T14:03:51Z</time>
      </trkpt>
      <trkpt lat="40.609150" lon="-4.871567">
        <ele>1705.0</ele>
        <time>2014-06-30T14:03:52Z</time>
      </trkpt>
      <trkpt lat="40.609217" lon="-4.871450">
        <ele>1704.0</ele>
        <time>2014-06-30T14:03:53Z</time>
      </trkpt>
      <trkpt lat="40.609283" lon="-4.871333">
        <ele>1703.0</ele>
        <time>2014-06-30T14:03:54Z</time>
      </trkpt>
      <trkpt lat="40.609350" lon="-4.871200">
        <ele>1704.0</ele>
        <time>2014-06-30T14:03:55Z</time>
      </trkpt>
      <trkpt lat="40.609383" lon="-4.871083">
        <ele>1704.0</ele>
        <time>2014-06-30T14:03:56Z</time>
      </trkpt>
      <trkpt lat="40.609417" lon="-4.870950">
        <ele>1703.0</ele>
        <time>2014-06-30T14:03:57Z</time>
      </trkpt>
      <trkpt lat="40.609467" lon="-4.870817">
        <ele>1701.0</ele>
        <time>2014-06-30T14:03:58Z</time>
      </trkpt>
      <trkpt lat="40.609517" lon="-4.870683">
        <ele>1700.0</ele>
        <time>2014-06-30T14:03:59Z</time>
      </trkpt>
      <trkpt lat="40.609583" lon="-4.870567">
        <ele>1699.0</ele>
        <time>2014-06-30T14:04:00Z</time>
      </trkpt>
      <trkpt lat="40.609633" lon="-4.870433">
        <ele>1698.0</ele>
        <time>2014-06-30T14:04:01Z</time>
      </trkpt>
      <trkpt lat="40.609683" lon="-4.870300">
        <ele>1698.0</ele>
        <time>2014-06-30T14:04:02Z</time>
      </trkpt>
      <trkpt lat="40.609733" lon="-4.870167">
        <ele>1698.0</ele>
        <time>2014-06-30T14:04:03Z</time>
      </trkpt>
      <trkpt lat="40.609783" lon="-4.870033">
        <ele>1698.0</ele>
        <time>2014-06-30T14:04:04Z</time>
      </trkpt>
      <trkpt lat="40.609850" lon="-4.869900">
        <ele>1697.0</ele>
        <time>2014-06-30T14:04:05Z</time>
      </trkpt>
      <trkpt lat="40.609917" lon="-4.869767">
        <ele>1696.0</ele>
        <time>2014-06-30T14:04:06Z</time>
      </trkpt>
      <trkpt lat="40.610000" lon="-4.869667">
        <ele>1695.0</ele>
        <time>2014-06-30T14:04:07Z</time>
      </trkpt>
      <trkpt lat="40.610083" lon="-4.869567">
        <ele>1695.0</ele>
        <time>2014-06-30T14:04:08Z</time>
      </trkpt>
      <trkpt lat="40.610150" lon="-4.869450">
        <ele>1695.0</ele>
        <time>2014-06-30T14:04:09Z</time>
      </trkpt>
      <trkpt lat="40.610200" lon="-4.869317">
        <ele>1695.0</ele>
        <time>2014-06-30T14:04:10Z</time>
      </trkpt>
      <trkpt lat="40.610250" lon="-4.869167">
        <ele>1694.0</ele>
        <time>2014-06-30T14:04:11Z</time>
      </trkpt>
      <trkpt lat="40.610300" lon="-4.869017">
        <ele>1693.0</ele>
        <time>2014-06-30T14:04:12Z</time>
      </trkpt>
      <trkpt lat="40.610367" lon="-4.868867">
        <ele>1692.0</ele>
        <time>2014-06-30T14:04:13Z</time>
      </trkpt>
      <trkpt lat="40.610433" lon="-4.868717">
        <ele>1691.0</ele>
        <time>2014-06-30T14:04:14Z</time>
      </trkpt>
      <trkpt lat="40.610500" lon="-4.868567">
        <ele>1690.0</ele>
        <time>2014-06-30T14:04:15Z</time>
      </trkpt>
      <trkpt lat="40.610550" lon="-4.868417">
        <ele>1690.0</ele>
        <time>2014-06-30T14:04:16Z</time>
      </trkpt>
      <trkpt lat="40.610600" lon="-4.868267">
        <ele>1690.0</ele>
        <time>2014-06-30T14:04:17Z</time>
      </trkpt>
      <trkpt lat="40.610667" lon="-4.868117">
        <ele>1688.0</ele>
        <time>2014-06-30T14:04:18Z</time>
      </trkpt>
      <trkpt lat="40.610733" lon="-4.867967">
        <ele>1687.0</ele>
        <time>2014-06-30T14:04:19Z</time>
      </trkpt>
      <trkpt lat="40.610800" lon="-4.867817">
        <ele>1686.0</ele>
        <time>2014-06-30T14:04:20Z</time>
      </trkpt>
      <trkpt lat="40.610850" lon="-4.867667">
        <ele>1686.0</ele>
        <time>2014-06-30T14:04:21Z</time>
      </trkpt>
      <trkpt lat="40.610900" lon="-4.867533">
        <ele>1686.0</ele>
        <time>2014-06-30T14:04:22Z</time>
      </trkpt>
      <trkpt lat="40.610950" lon="-4.867383">
        <ele>1685.0</ele>
        <time>2014-06-30T14:04:23Z</time>
      </trkpt>
      <trkpt lat="40.611000" lon="-4.867233">
        <ele>1684.0</ele>
        <time>2014-06-30T14:04:24Z</time>
      </trkpt>
      <trkpt lat="40.611050" lon="-4.867067">
        <ele>1682.0</ele>
        <time>2014-06-30T14:04:25Z</time>
      </trkpt>
      <trkpt lat="40.611100" lon="-4.866917">
        <ele>1681.0</ele>
        <time>2014-06-30T14:04:26Z</time>
      </trkpt>
      <trkpt lat="40.611167" lon="-4.866783">
        <ele>1680.0</ele>
        <time>2014-06-30T14:04:27Z</time>
      </trkpt>
      <trkpt lat="40.611217" lon="-4.866650">
        <ele>1679.0</ele>
        <time>2014-06-30T14:04:28Z</time>
      </trkpt>
      <trkpt lat="40.611267" lon="-4.866517">
        <ele>1679.0</ele>
        <time>2014-06-30T14:04:29Z</time>
      </trkpt>
      <trkpt lat="40.611333" lon="-4.866383">
        <ele>1678.0</ele>
        <time>2014-06-30T14:04:30Z</time>
      </trkpt>
      <trkpt lat="40.611400" lon="-4.866250">
        <ele>1676.0</ele>
        <time>2014-06-30T14:04:31Z</time>
      </trkpt>
      <trkpt lat="40.611467" lon="-4.866100">
        <ele>1674.0</ele>
        <time>2014-06-30T14:04:32Z</time>
      </trkpt>
      <trkpt lat="40.611533" lon="-4.865933">
        <ele>1673.0</ele>
        <time>2014-06-30T14:04:33Z</time>
      </trkpt>
      <trkpt lat="40.611583" lon="-4.865783">
        <ele>1673.0</ele>
        <time>2014-06-30T14:04:34Z</time>
      </trkpt>
      <trkpt lat="40.611650" lon="-4.865617">
        <ele>1672.0</ele>
        <time>2014-06-30T14:04:35Z</time>
      </trkpt>
      <trkpt lat="40.611700" lon="-4.865467">
        <ele>1672.0</ele>
        <time>2014-06-30T14:04:36Z</time>
      </trkpt>
      <trkpt lat="40.611767" lon="-4.865317">
        <ele>1671.0</ele>
        <time>2014-06-30T14:04:37Z</time>
      </trkpt>
      <trkpt lat="40.611850" lon="-4.865167">
        <ele>1671.0</ele>
        <time>2014-06-30T14:04:38Z</time>
      </trkpt>
      <trkpt lat="40.611900" lon="-4.865017">
        <ele>1671.0</ele>
        <time>2014-06-30T14:04:39Z</time>
      </trkpt>
      <trkpt lat="40.611967" lon="-4.864900">
        <ele>1672.0</ele>
        <time>2014-06-30T14:04:40Z</time>
      </trkpt>
      <trkpt lat="40.612033" lon="-4.864767">
        <ele>1672.0</ele>
        <time>2014-06-30T14:04:41Z</time>
      </trkpt>
      <trkpt lat="40.612100" lon="-4.864650">
        <ele>1671.0</ele>
        <time>2014-06-30T14:04:42Z</time>
      </trkpt>
      <trkpt lat="40.612183" lon="-4.864533">
        <ele>1669.0</ele>
        <time>2014-06-30T14:04:43Z</time>
      </trkpt>
      <trkpt lat="40.612267" lon="-4.864417">
        <ele>1667.0</ele>
        <time>2014-06-30T14:04:44Z</time>
      </trkpt>
      <trkpt lat="40.612333" lon="-4.864300">
        <ele>1664.0</ele>
        <time>2014-06-30T14:04:45Z</time>
      </trkpt>
      <trkpt lat="40.612417" lon="-4.864183">
        <ele>1661.0</ele>
        <time>2014-06-30T14:04:46Z</time>
      </trkpt>
      <trkpt lat="40.612467" lon="-4.864050">
        <ele>1658.0</ele>
        <time>2014-06-30T14:04:47Z</time>
      </trkpt>
      <trkpt lat="40.612533" lon="-4.863917">
        <ele>1655.0</ele>
        <time>2014-06-30T14:04:48Z</time>
      </trkpt>
      <trkpt lat="40.612600" lon="-4.863783">
        <ele>1652.0</ele>
        <time>2014-06-30T14:04:49Z</time>
      </trkpt>
      <trkpt lat="40.612667" lon="-4.863633">
        <ele>1649.0</ele>
        <time>2014-06-30T14:04:50Z</time>
      </trkpt>
      <trkpt lat="40.612717" lon="-4.863483">
        <ele>1647.0</ele>
        <time>2014-06-30T14:04:51Z</time>
      </trkpt>
      <trkpt lat="40.612767" lon="-4.863333">
        <ele>1644.0</ele>
        <time>2014-06-30T14:04:52Z</time>
      </trkpt>
      <trkpt lat="40.612817" lon="-4.863183">
        <ele>1642.0</ele>
        <time>2014-06-30T14:04:53Z</time>
      </trkpt>
      <trkpt lat="40.612850" lon="-4.863017">
        <ele>1640.0</ele>
        <time>2014-06-30T14:04:54Z</time>
      </trkpt>
      <trkpt lat="40.612883" lon="-4.862867">
        <ele>1638.0</ele>
        <time>2014-06-30T14:04:55Z</time>
      </trkpt>
      <trkpt lat="40.612883" lon="-4.862733">
        <ele>1637.0</ele>
        <time>2014-06-30T14:04:56Z</time>
      </trkpt>
      <trkpt lat="40.612883" lon="-4.862600">
        <ele>1636.0</ele>
        <time>2014-06-30T14:04:57Z</time>
      </trkpt>
      <trkpt lat="40.612900" lon="-4.862467">
        <ele>1634.0</ele>
        <time>2014-06-30T14:04:58Z</time>
      </trkpt>
      <trkpt lat="40.612917" lon="-4.862317">
        <ele>1631.0</ele>
        <time>2014-06-30T14:04:59Z</time>
      </trkpt>
      <trkpt lat="40.612950" lon="-4.862167">
        <ele>1628.0</ele>
        <time>2014-06-30T14:05:00Z</time>
      </trkpt>
      <trkpt lat="40.612967" lon="-4.862000">
        <ele>1625.0</ele>
        <time>2014-06-30T14:05:01Z</time>
      </trkpt>
      <trkpt lat="40.613000" lon="-4.861850">
        <ele>1623.0</ele>
        <time>2014-06-30T14:05:02Z</time>
      </trkpt>
      <trkpt lat="40.613050" lon="-4.861700">
        <ele>1622.0</ele>
        <time>2014-06-30T14:05:03Z</time>
      </trkpt>
      <trkpt lat="40.613100" lon="-4.861550">
        <ele>1619.0</ele>
        <time>2014-06-30T14:05:04Z</time>
      </trkpt>
      <trkpt lat="40.613150" lon="-4.861383">
        <ele>1616.0</ele>
        <time>2014-06-30T14:05:05Z</time>
      </trkpt>
      <trkpt lat="40.613200" lon="-4.861233">
        <ele>1613.0</ele>
        <time>2014-06-30T14:05:06Z</time>
      </trkpt>
      <trkpt lat="40.613267" lon="-4.861067">
        <ele>1609.0</ele>
        <time>2014-06-30T14:05:07Z</time>
      </trkpt>
      <trkpt lat="40.613333" lon="-4.860900">
        <ele>1606.0</ele>
        <time>2014-06-30T14:05:08Z</time>
      </trkpt>
      <trkpt lat="40.613400" lon="-4.860733">
        <ele>1603.0</ele>
        <time>2014-06-30T14:05:09Z</time>
      </trkpt>
      <trkpt lat="40.613450" lon="-4.860567">
        <ele>1600.0</ele>
        <time>2014-06-30T14:05:10Z</time>
      </trkpt>
      <trkpt lat="40.613517" lon="-4.860400">
        <ele>1598.0</ele>
        <time>2014-06-30T14:05:11Z</time>
      </trkpt>
      <trkpt lat="40.613583" lon="-4.860233">
        <ele>1594.0</ele>
        <time>2014-06-30T14:05:12Z</time>
      </trkpt>
      <trkpt lat="40.613667" lon="-4.860050">
        <ele>1590.0</ele>
        <time>2014-06-30T14:05:13Z</time>
      </trkpt>
      <trkpt lat="40.613733" lon="-4.859850">
        <ele>1587.0</ele>
        <time>2014-06-30T14:05:14Z</time>
      </trkpt>
      <trkpt lat="40.613800" lon="-4.859683">
        <ele>1585.0</ele>
        <time>2014-06-30T14:05:15Z</time>
      </trkpt>
      <trkpt lat="40.613867" lon="-4.859500">
        <ele>1584.0</ele>
        <time>2014-06-30T14:05:16Z</time>
      </trkpt>
      <trkpt lat="40.613933" lon="-4.859317">
        <ele>1583.0</ele>
        <time>2014-06-30T14:05:17Z</time>
      </trkpt>
      <trkpt lat="40.613983" lon="-4.859117">
        <ele>1581.0</ele>
        <time>2014-06-30T14:05:18Z</time>
      </trkpt>
      <trkpt lat="40.614050" lon="-4.858933">
        <ele>1580.0</ele>
        <time>2014-06-30T14:05:19Z</time>
      </trkpt>
      <trkpt lat="40.614100" lon="-4.858750">
        <ele>1578.0</ele>
        <time>2014-06-30T14:05:20Z</time>
      </trkpt>
      <trkpt lat="40.614150" lon="-4.858583">
        <ele>1578.0</ele>
        <time>2014-06-30T14:05:21Z</time>
      </trkpt>
      <trkpt lat="40.614217" lon="-4.858433">
        <ele>1577.0</ele>
        <time>2014-06-30T14:05:22Z</time>
      </trkpt>
      <trkpt lat="40.614283" lon="-4.858300">
        <ele>1578.0</ele>
        <time>2014-06-30T14:05:23Z</time>
      </trkpt>
      <trkpt lat="40.614350" lon="-4.858200">
        <ele>1581.0</ele>
        <time>2014-06-30T14:05:24Z</time>
      </trkpt>
      <trkpt lat="40.614400" lon="-4.858117">
        <ele>1583.0</ele>
        <time>2014-06-30T14:05:25Z</time>
      </trkpt>
      <trkpt lat="40.614450" lon="-4.858017">
        <ele>1585.0</ele>
        <time>2014-06-30T14:05:26Z</time>
      </trkpt>
      <trkpt lat="40.614517" lon="-4.857917">
        <ele>1587.0</ele>
        <time>2014-06-30T14:05:27Z</time>
      </trkpt>
      <trkpt lat="40.614567" lon="-4.857817">
        <ele>1589.0</ele>
        <time>2014-06-30T14:05:28Z</time>
      </trkpt>
      <trkpt lat="40.614617" lon="-4.857717">
        <ele>1591.0</ele>
        <time>2014-06-30T14:05:29Z</time>
      </trkpt>
      <trkpt lat="40.614683" lon="-4.857617">
        <ele>1593.0</ele>
        <time>2014-06-30T14:05:30Z</time>
      </trkpt>
      <trkpt lat="40.614733" lon="-4.857500">
        <ele>1596.0</ele>
        <time>2014-06-30T14:05:31Z</time>
      </trkpt>
      <trkpt lat="40.614767" lon="-4.857400">
        <ele>1599.0</ele>
        <time>2014-06-30T14:05:32Z</time>
      </trkpt>
      <trkpt lat="40.614817" lon="-4.857300">
        <ele>1603.0</ele>
        <time>2014-06-30T14:05:33Z</time>
      </trkpt>
      <trkpt lat="40.614850" lon="-4.857200">
        <ele>1606.0</ele>
        <time>2014-06-30T14:05:34Z</time>
      </trkpt>
      <trkpt lat="40.614900" lon="-4.857100">
        <ele>1609.0</ele>
        <time>2014-06-30T14:05:35Z</time>
      </trkpt>
      <trkpt lat="40.614950" lon="-4.857000">
        <ele>1611.0</ele>
        <time>2014-06-30T14:05:36Z</time>
      </trkpt>
      <trkpt lat="40.615000" lon="-4.856933">
        <ele>1614.0</ele>
        <time>2014-06-30T14:05:37Z</time>
      </trkpt>
      <trkpt lat="40.615067" lon="-4.856867">
        <ele>1617.0</ele>
        <time>2014-06-30T14:05:38Z</time>
      </trkpt>
      <trkpt lat="40.615150" lon="-4.856867">
        <ele>1620.0</ele>
        <time>2014-06-30T14:05:39Z</time>
      </trkpt>
      <trkpt lat="40.615217" lon="-4.856900">
        <ele>1623.0</ele>
        <time>2014-06-30T14:05:40Z</time>
      </trkpt>
      <trkpt lat="40.615267" lon="-4.856950">
        <ele>1626.0</ele>
        <time>2014-06-30T14:05:41Z</time>
      </trkpt>
      <trkpt lat="40.615267" lon="-4.857017">
        <ele>1630.0</ele>
        <time>2014-06-30T14:05:42Z</time>
      </trkpt>
      <trkpt lat="40.615267" lon="-4.857083">
        <ele>1633.0</ele>
        <time>2014-06-30T14:05:43Z</time>
      </trkpt>
      <trkpt lat="40.615250" lon="-4.857150">
        <ele>1638.0</ele>
        <time>2014-06-30T14:05:44Z</time>
      </trkpt>
      <trkpt lat="40.615200" lon="-4.857200">
        <ele>1642.0</ele>
        <time>2014-06-30T14:05:45Z</time>
      </trkpt>
      <trkpt lat="40.615133" lon="-4.857250">
        <ele>1645.0</ele>
        <time>2014-06-30T14:05:46Z</time>
      </trkpt>
      <trkpt lat="40.615033" lon="-4.857300">
        <ele>1648.0</ele>
        <time>2014-06-30T14:05:47Z</time>
      </trkpt>
      <trkpt lat="40.614933" lon="-4.857333">
        <ele>1652.0</ele>
        <time>2014-06-30T14:05:48Z</time>
      </trkpt>
      <trkpt lat="40.614850" lon="-4.857317">
        <ele>1656.0</ele>
        <time>2014-06-30T14:05:49Z</time>
      </trkpt>
      <trkpt lat="40.614750" lon="-4.857250">
        <ele>1659.0</ele>
        <time>2014-06-30T14:05:50Z</time>
      </trkpt>
      <trkpt lat="40.614667" lon="-4.857133">
        <ele>1660.0</ele>
        <time>2014-06-30T14:05:51Z</time>
      </trkpt>
      <trkpt lat="40.614567" lon="-4.857033">
        <ele>1662.0</ele>
        <time>2014-06-30T14:05:52Z</time>
      </trkpt>
      <trkpt lat="40.614467" lon="-4.856950">
        <ele>1664.0</ele>
        <time>2014-06-30T14:05:53Z</time>
      </trkpt>
      <trkpt lat="40.614383" lon="-4.856917">
        <ele>1666.0</ele>
        <time>2014-06-30T14:05:54Z</time>
      </trkpt>
      <trkpt lat="40.614283" lon="-4.856867">
        <ele>1669.0</ele>
        <time>2014-06-30T14:05:55Z</time>
      </trkpt>
      <trkpt lat="40.614200" lon="-4.856800">
        <ele>1672.0</ele>
        <time>2014-06-30T14:05:56Z</time>
      </trkpt>
      <trkpt lat="40.614133" lon="-4.856700">
        <ele>1674.0</ele>
        <time>2014-06-30T14:05:57Z</time>
      </trkpt>
      <trkpt lat="40.614067" lon="-4.856583">
        <ele>1676.0</ele>
        <time>2014-06-30T14:05:58Z</time>
      </trkpt>
      <trkpt lat="40.614033" lon="-4.856450">
        <ele>1677.0</ele>
        <time>2014-06-30T14:05:59Z</time>
      </trkpt>
      <trkpt lat="40.614017" lon="-4.856317">
        <ele>1680.0</ele>
        <time>2014-06-30T14:06:00Z</time>
      </trkpt>
      <trkpt lat="40.614033" lon="-4.856200">
        <ele>1681.0</ele>
        <time>2014-06-30T14:06:01Z</time>
      </trkpt>
      <trkpt lat="40.614083" lon="-4.856100">
        <ele>1682.0</ele>
        <time>2014-06-30T14:06:02Z</time>
      </trkpt>
      <trkpt lat="40.614133" lon="-4.856033">
        <ele>1683.0</ele>
        <time>2014-06-30T14:06:03Z</time>
      </trkpt>
      <trkpt lat="40.614200" lon="-4.855983">
        <ele>1685.0</ele>
        <time>2014-06-30T14:06:04Z</time>
      </trkpt>
      <trkpt lat="40.614250" lon="-4.855967">
        <ele>1687.0</ele>
        <time>2014-06-30T14:06:05Z</time>
      </trkpt>
      <trkpt lat="40.614300" lon="-4.856000">
        <ele>1689.0</ele>
        <time>2014-06-30T14:06:06Z</time>
      </trkpt>
      <trkpt lat="40.614350" lon="-4.856050">
        <ele>1691.0</ele>
        <time>2014-06-30T14:06:07Z</time>
      </trkpt>
      <trkpt lat="40.614383" lon="-4.856133">
        <ele>1692.0</ele>
        <time>2014-06-30T14:06:08Z</time>
      </trkpt>
      <trkpt lat="40.614417" lon="-4.856233">
        <ele>1694.0</ele>
        <time>2014-06-30T14:06:09Z</time>
      </trkpt>
      <trkpt lat="40.614417" lon="-4.856317">
        <ele>1696.0</ele>
        <time>2014-06-30T14:06:10Z</time>
      </trkpt>
      <trkpt lat="40.614417" lon="-4.856400">
        <ele>1699.0</ele>
        <time>2014-06-30T14:06:11Z</time>
      </trkpt>
      <trkpt lat="40.614400" lon="-4.856467">
        <ele>1702.0</ele>
        <time>2014-06-30T14:06:12Z</time>
      </trkpt>
      <trkpt lat="40.614383" lon="-4.856533">
        <ele>1704.0</ele>
        <time>2014-06-30T14:06:13Z</time>
      </trkpt>
      <trkpt lat="40.614367" lon="-4.856583">
        <ele>1706.0</ele>
        <time>2014-06-30T14:06:14Z</time>
      </trkpt>
      <trkpt lat="40.614350" lon="-4.856650">
        <ele>1707.0</ele>
        <time>2014-06-30T14:06:15Z</time>
      </trkpt>
      <trkpt lat="40.614350" lon="-4.856767">
        <ele>1708.0</ele>
        <time>2014-06-30T14:06:16Z</time>
      </trkpt>
      <trkpt lat="40.614367" lon="-4.856850">
        <ele>1704.0</ele>
        <time>2014-06-30T14:06:17Z</time>
      </trkpt>
      <trkpt lat="40.614400" lon="-4.856917">
        <ele>1704.0</ele>
        <time>2014-06-30T14:06:18Z</time>
      </trkpt>
      <trkpt lat="40.614433" lon="-4.856933">
        <ele>1705.0</ele>
        <time>2014-06-30T14:06:19Z</time>
      </trkpt>
      <trkpt lat="40.614500" lon="-4.856917">
        <ele>1705.0</ele>
        <time>2014-06-30T14:06:20Z</time>
      </trkpt>
      <trkpt lat="40.614567" lon="-4.856900">
        <ele>1704.0</ele>
        <time>2014-06-30T14:06:21Z</time>
      </trkpt>
      <trkpt lat="40.614650" lon="-4.856850">
        <ele>1702.0</ele>
        <time>2014-06-30T14:06:22Z</time>
      </trkpt>
      <trkpt lat="40.614750" lon="-4.856767">
        <ele>1700.0</ele>
        <time>2014-06-30T14:06:23Z</time>
      </trkpt>
      <trkpt lat="40.614833" lon="-4.856667">
        <ele>1698.0</ele>
        <time>2014-06-30T14:06:24Z</time>
      </trkpt>
      <trkpt lat="40.614900" lon="-4.856533">
        <ele>1697.0</ele>
        <time>2014-06-30T14:06:25Z</time>
      </trkpt>
      <trkpt lat="40.614950" lon="-4.856383">
        <ele>1695.0</ele>
        <time>2014-06-30T14:06:26Z</time>
      </trkpt>
      <trkpt lat="40.615000" lon="-4.856233">
        <ele>1693.0</ele>
        <time>2014-06-30T14:06:27Z</time>
      </trkpt>
      <trkpt lat="40.615017" lon="-4.856050">
        <ele>1691.0</ele>
        <time>2014-06-30T14:06:28Z</time>
      </trkpt>
      <trkpt lat="40.615050" lon="-4.855883">
        <ele>1690.0</ele>
        <time>2014-06-30T14:06:29Z</time>
      </trkpt>
      <trkpt lat="40.615067" lon="-4.855700">
        <ele>1691.0</ele>
        <time>2014-06-30T14:06:30Z</time>
      </trkpt>
      <trkpt lat="40.615067" lon="-4.855533">
        <ele>1691.0</ele>
        <time>2014-06-30T14:06:31Z</time>
      </trkpt>
      <trkpt lat="40.615050" lon="-4.855367">
        <ele>1692.0</ele>
        <time>2014-06-30T14:06:32Z</time>
      </trkpt>
      <trkpt lat="40.615033" lon="-4.855217">
        <ele>1693.0</ele>
        <time>2014-06-30T14:06:33Z</time>
      </trkpt>
      <trkpt lat="40.615017" lon="-4.855067">
        <ele>1694.0</ele>
        <time>2014-06-30T14:06:34Z</time>
      </trkpt>
      <trkpt lat="40.615000" lon="-4.854900">
        <ele>1695.0</ele>
        <time>2014-06-30T14:06:35Z</time>
      </trkpt>
      <trkpt lat="40.615017" lon="-4.854733">
        <ele>1697.0</ele>
        <time>2014-06-30T14:06:36Z</time>
      </trkpt>
      <trkpt lat="40.615033" lon="-4.854567">
        <ele>1698.0</ele>
        <time>2014-06-30T14:06:37Z</time>
      </trkpt>
      <trkpt lat="40.615050" lon="-4.854400">
        <ele>1700.0</ele>
        <time>2014-06-30T14:06:38Z</time>
      </trkpt>
      <trkpt lat="40.615067" lon="-4.854250">
        <ele>1702.0</ele>
        <time>2014-06-30T14:06:39Z</time>
      </trkpt>
      <trkpt lat="40.615083" lon="-4.854083">
        <ele>1705.0</ele>
        <time>2014-06-30T14:06:40Z</time>
      </trkpt>
      <trkpt lat="40.615067" lon="-4.853933">
        <ele>1707.0</ele>
        <time>2014-06-30T14:06:41Z</time>
      </trkpt>
      <trkpt lat="40.615033" lon="-4.853783">
        <ele>1710.0</ele>
        <time>2014-06-30T14:06:42Z</time>
      </trkpt>
      <trkpt lat="40.614983" lon="-4.853633">
        <ele>1713.0</ele>
        <time>2014-06-30T14:06:43Z</time>
      </trkpt>
      <trkpt lat="40.614917" lon="-4.853483">
        <ele>1716.0</ele>
        <time>2014-06-30T14:06:44Z</time>
      </trkpt>
      <trkpt lat="40.614867" lon="-4.853367">
        <ele>1720.0</ele>
        <time>2014-06-30T14:06:45Z</time>
      </trkpt>
      <trkpt lat="40.614833" lon="-4.853233">
        <ele>1724.0</ele>
        <time>2014-06-30T14:06:46Z</time>
      </trkpt>
      <trkpt lat="40.614800" lon="-4.853117">
        <ele>1728.0</ele>
        <time>2014-06-30T14:06:47Z</time>
      </trkpt>
      <trkpt lat="40.614750" lon="-4.853000">
        <ele>1731.0</ele>
        <time>2014-06-30T14:06:48Z</time>
      </trkpt>
      <trkpt lat="40.614683" lon="-4.852900">
        <ele>1733.0</ele>
        <time>2014-06-30T14:06:49Z</time>
      </trkpt>
      <trkpt lat="40.614600" lon="-4.852800">
        <ele>1734.0</ele>
        <time>2014-06-30T14:06:50Z</time>
      </trkpt>
      <trkpt lat="40.614517" lon="-4.852700">
        <ele>1736.0</ele>
        <time>2014-06-30T14:06:51Z</time>
      </trkpt>
      <trkpt lat="40.614417" lon="-4.852633">
        <ele>1738.0</ele>
        <time>2014-06-30T14:06:52Z</time>
      </trkpt>
      <trkpt lat="40.614300" lon="-4.852600">
        <ele>1740.0</ele>
        <time>2014-06-30T14:06:53Z</time>
      </trkpt>
      <trkpt lat="40.614200" lon="-4.852617">
        <ele>1743.0</ele>
        <time>2014-06-30T14:06:54Z</time>
      </trkpt>
      <trkpt lat="40.614133" lon="-4.852667">
        <ele>1746.0</ele>
        <time>2014-06-30T14:06:55Z</time>
      </trkpt>
      <trkpt lat="40.614100" lon="-4.852750">
        <ele>1748.0</ele>
        <time>2014-06-30T14:06:56Z</time>
      </trkpt>
      <trkpt lat="40.614100" lon="-4.852817">
        <ele>1751.0</ele>
        <time>2014-06-30T14:06:57Z</time>
      </trkpt>
      <trkpt lat="40.614117" lon="-4.852900">
        <ele>1747.0</ele>
        <time>2014-06-30T14:06:58Z</time>
      </trkpt>
      <trkpt lat="40.614183" lon="-4.852967">
        <ele>1746.0</ele>
        <time>2014-06-30T14:06:59Z</time>
      </trkpt>
      <trkpt lat="40.614233" lon="-4.853017">
        <ele>1747.0</ele>
        <time>2014-06-30T14:07:00Z</time>
      </trkpt>
      <trkpt lat="40.614317" lon="-4.853050">
        <ele>1748.0</ele>
        <time>2014-06-30T14:07:01Z</time>
      </trkpt>
      <trkpt lat="40.614367" lon="-4.853083">
        <ele>1749.0</ele>
        <time>2014-06-30T14:07:02Z</time>
      </trkpt>
      <trkpt lat="40.614383" lon="-4.853117">
        <ele>1750.0</ele>
        <time>2014-06-30T14:07:03Z</time>
      </trkpt>
      <trkpt lat="40.614433" lon="-4.853133">
        <ele>1752.0</ele>
        <time>2014-06-30T14:07:04Z</time>
      </trkpt>
      <trkpt lat="40.614483" lon="-4.853100">
        <ele>1755.0</ele>
        <time>2014-06-30T14:07:05Z</time>
      </trkpt>
      <trkpt lat="40.614533" lon="-4.853050">
        <ele>1757.0</ele>
        <time>2014-06-30T14:07:06Z</time>
      </trkpt>
      <trkpt lat="40.614600" lon="-4.852983">
        <ele>1760.0</ele>
        <time>2014-06-30T14:07:07Z</time>
      </trkpt>
      <trkpt lat="40.614667" lon="-4.852917">
        <ele>1763.0</ele>
        <time>2014-06-30T14:07:08Z</time>
      </trkpt>
      <trkpt lat="40.614733" lon="-4.852817">
        <ele>1767.0</ele>
        <time>2014-06-30T14:07:09Z</time>
      </trkpt>
      <trkpt lat="40.614783" lon="-4.852717">
        <ele>1770.0</ele>
        <time>2014-06-30T14:07:10Z</time>
      </trkpt>
      <trkpt lat="40.614817" lon="-4.852583">
        <ele>1773.0</ele>
        <time>2014-06-30T14:07:11Z</time>
      </trkpt>
      <trkpt lat="40.614833" lon="-4.852450">
        <ele>1776.0</ele>
        <time>2014-06-30T14:07:12Z</time>
      </trkpt>
      <trkpt lat="40.614850" lon="-4.852317">
        <ele>1780.0</ele>
        <time>2014-06-30T14:07:13Z</time>
      </trkpt>
      <trkpt lat="40.614817" lon="-4.852183">
        <ele>1785.0</ele>
        <time>2014-06-30T14:07:14Z</time>
      </trkpt>
      <trkpt lat="40.614767" lon="-4.852083">
        <ele>1789.0</ele>
        <time>2014-06-30T14:07:15Z</time>
      </trkpt>
      <trkpt lat="40.614683" lon="-4.851967">
        <ele>1792.0</ele>
        <time>2014-06-30T14:07:16Z</time>
      </trkpt>
      <trkpt lat="40.614600" lon="-4.851883">
        <ele>1794.0</ele>
        <time>2014-06-30T14:07:17Z</time>
      </trkpt>
      <trkpt lat="40.614500" lon="-4.851817">
        <ele>1797.0</ele>
        <time>2014-06-30T14:07:18Z</time>
      </trkpt>
      <trkpt lat="40.614400" lon="-4.851767">
        <ele>1799.0</ele>
        <time>2014-06-30T14:07:19Z</time>
      </trkpt>
      <trkpt lat="40.614300" lon="-4.851733">
        <ele>1801.0</ele>
        <time>2014-06-30T14:07:20Z</time>
      </trkpt>
      <trkpt lat="40.614200" lon="-4.851717">
        <ele>1803.0</ele>
        <time>2014-06-30T14:07:21Z</time>
      </trkpt>
      <trkpt lat="40.614083" lon="-4.851733">
        <ele>1805.0</ele>
        <time>2014-06-30T14:07:22Z</time>
      </trkpt>
      <trkpt lat="40.613983" lon="-4.851750">
        <ele>1808.0</ele>
        <time>2014-06-30T14:07:23Z</time>
      </trkpt>
      <trkpt lat="40.613917" lon="-4.851800">
        <ele>1810.0</ele>
        <time>2014-06-30T14:07:24Z</time>
      </trkpt>
      <trkpt lat="40.613850" lon="-4.851883">
        <ele>1812.0</ele>
        <time>2014-06-30T14:07:25Z</time>
      </trkpt>
      <trkpt lat="40.613817" lon="-4.851950">
        <ele>1814.0</ele>
        <time>2014-06-30T14:07:26Z</time>
      </trkpt>
      <trkpt lat="40.613800" lon="-4.852033">
        <ele>1816.0</ele>
        <time>2014-06-30T14:07:27Z</time>
      </trkpt>
      <trkpt lat="40.613800" lon="-4.852117">
        <ele>1818.0</ele>
        <time>2014-06-30T14:07:28Z</time>
      </trkpt>
      <trkpt lat="40.613800" lon="-4.852200">
        <ele>1818.0</ele>
        <time>2014-06-30T14:07:29Z</time>
      </trkpt>
      <trkpt lat="40.613817" lon="-4.852283">
        <ele>1819.0</ele>
        <time>2014-06-30T14:07:30Z</time>
      </trkpt>
      <trkpt lat="40.613867" lon="-4.852367">
        <ele>1822.0</ele>
        <time>2014-06-30T14:07:31Z</time>
      </trkpt>
      <trkpt lat="40.613917" lon="-4.852433">
        <ele>1827.0</ele>
        <time>2014-06-30T14:07:32Z</time>
      </trkpt>
      <trkpt lat="40.613950" lon="-4.852467">
        <ele>1831.0</ele>
        <time>2014-06-30T14:07:33Z</time>
      </trkpt>
      <trkpt lat="40.614000" lon="-4.852500">
        <ele>1834.0</ele>
        <time>2014-06-30T14:07:34Z</time>
      </trkpt>
      <trkpt lat="40.614050" lon="-4.852517">
        <ele>1837.0</ele>
        <time>2014-06-30T14:07:35Z</time>
      </trkpt>
      <trkpt lat="40.614100" lon="-4.852533">
        <ele>1839.0</ele>
        <time>2014-06-30T14:07:36Z</time>
      </trkpt>
      <trkpt lat="40.614167" lon="-4.852550">
        <ele>1841.0</ele>
        <time>2014-06-30T14:07:37Z</time>
      </trkpt>
      <trkpt lat="40.614233" lon="-4.852550">
        <ele>1838.0</ele>
        <time>2014-06-30T14:07:38Z</time>
      </trkpt>
      <trkpt lat="40.614317" lon="-4.852533">
        <ele>1840.0</ele>
        <time>2014-06-30T14:07:39Z</time>
      </trkpt>
      <trkpt lat="40.614400" lon="-4.852467">
        <ele>1841.0</ele>
        <time>2014-06-30T14:07:40Z</time>
      </trkpt>
      <trkpt lat="40.614467" lon="-4.852367">
        <ele>1842.0</ele>
        <time>2014-06-30T14:07:41Z</time>
      </trkpt>
      <trkpt lat="40.614517" lon="-4.852250">
        <ele>1844.0</ele>
        <time>2014-06-30T14:07:42Z</time>
      </trkpt>
      <trkpt lat="40.614550" lon="-4.852150">
        <ele>1846.0</ele>
        <time>2014-06-30T14:07:43Z</time>
      </trkpt>
      <trkpt lat="40.614583" lon="-4.852033">
        <ele>1847.0</ele>
        <time>2014-06-30T14:07:44Z</time>
      </trkpt>
      <trkpt lat="40.614617" lon="-4.851900">
        <ele>1849.0</ele>
        <time>2014-06-30T14:07:45Z</time>
      </trkpt>
      <trkpt lat="40.614633" lon="-4.851783">
        <ele>1851.0</ele>
        <time>2014-06-30T14:07:46Z</time>
      </trkpt>
      <trkpt lat="40.614633" lon="-4.851633">
        <ele>1852.0</ele>
        <time>2014-06-30T14:07:47Z</time>
      </trkpt>
      <trkpt lat="40.614617" lon="-4.851483">
        <ele>1853.0</ele>
        <time>2014-06-30T14:07:48Z</time>
      </trkpt>
      <trkpt lat="40.614567" lon="-4.851333">
        <ele>1855.0</ele>
        <time>2014-06-30T14:07:49Z</time>
      </trkpt>
      <trkpt lat="40.614517" lon="-4.851217">
        <ele>1857.0</ele>
        <time>2014-06-30T14:07:50Z</time>
      </trkpt>
      <trkpt lat="40.614417" lon="-4.851117">
        <ele>1859.0</ele>
        <time>2014-06-30T14:07:51Z</time>
      </trkpt>
      <trkpt lat="40.614333" lon="-4.851067">
        <ele>1861.0</ele>
        <time>2014-06-30T14:07:52Z</time>
      </trkpt>
      <trkpt lat="40.614250" lon="-4.851033">
        <ele>1863.0</ele>
        <time>2014-06-30T14:07:53Z</time>
      </trkpt>
      <trkpt lat="40.614167" lon="-4.851033">
        <ele>1864.0</ele>
        <time>2014-06-30T14:07:54Z</time>
      </trkpt>
      <trkpt lat="40.614100" lon="-4.851050">
        <ele>1866.0</ele>
        <time>2014-06-30T14:07:55Z</time>
      </trkpt>
      <trkpt lat="40.614033" lon="-4.851083">
        <ele>1868.0</ele>
        <time>2014-06-30T14:07:56Z</time>
      </trkpt>
      <trkpt lat="40.613967" lon="-4.851133">
        <ele>1871.0</ele>
        <time>2014-06-30T14:07:57Z</time>
      </trkpt>
      <trkpt lat="40.613933" lon="-4.851183">
        <ele>1873.0</ele>
        <time>2014-06-30T14:07:58Z</time>
      </trkpt>
      <trkpt lat="40.613900" lon="-4.851267">
        <ele>1874.0</ele>
        <time>2014-06-30T14:07:59Z</time>
      </trkpt>
      <trkpt lat="40.613883" lon="-4.851350">
        <ele>1876.0</ele>
        <time>2014-06-30T14:08:00Z</time>
      </trkpt>
      <trkpt lat="40.613900" lon="-4.851433">
        <ele>1878.0</ele>
        <time>2014-06-30T14:08:01Z</time>
      </trkpt>
      <trkpt lat="40.613917" lon="-4.851517">
        <ele>1880.0</ele>
        <time>2014-06-30T14:08:02Z</time>
      </trkpt>
      <trkpt lat="40.613950" lon="-4.851583">
        <ele>1883.0</ele>
        <time>2014-06-30T14:08:03Z</time>
      </trkpt>
      <trkpt lat="40.614000" lon="-4.851633">
        <ele>1885.0</ele>
        <time>2014-06-30T14:08:04Z</time>
      </trkpt>
      <trkpt lat="40.614050" lon="-4.851683">
        <ele>1887.0</ele>
        <time>2014-06-30T14:08:05Z</time>
      </trkpt>
      <trkpt lat="40.614100" lon="-4.851733">
        <ele>1890.0</ele>
        <time>2014-06-30T14:08:06Z</time>
      </trkpt>
      <trkpt lat="40.614150" lon="-4.851783">
        <ele>1890.0</ele>
        <time>2014-06-30T14:08:07Z</time>
      </trkpt>
      <trkpt lat="40.614183" lon="-4.851833">
        <ele>1891.0</ele>
        <time>2014-06-30T14:08:08Z</time>
      </trkpt>
      <trkpt lat="40.614233" lon="-4.851850">
        <ele>1890.0</ele>
        <time>2014-06-30T14:08:09Z</time>
      </trkpt>
      <trkpt lat="40.614317" lon="-4.851850">
        <ele>1890.0</ele>
        <time>2014-06-30T14:08:10Z</time>
      </trkpt>
      <trkpt lat="40.614400" lon="-4.851833">
        <ele>1890.0</ele>
        <time>2014-06-30T14:08:11Z</time>
      </trkpt>
      <trkpt lat="40.614483" lon="-4.851783">
        <ele>1890.0</ele>
        <time>2014-06-30T14:08:12Z</time>
      </trkpt>
      <trkpt lat="40.614567" lon="-4.851717">
        <ele>1890.0</ele>
        <time>2014-06-30T14:08:13Z</time>
      </trkpt>
      <trkpt lat="40.614650" lon="-4.851650">
        <ele>1890.0</ele>
        <time>2014-06-30T14:08:14Z</time>
      </trkpt>
      <trkpt lat="40.614733" lon="-4.851583">
        <ele>1890.0</ele>
        <time>2014-06-30T14:08:15Z</time>
      </trkpt>
      <trkpt lat="40.614817" lon="-4.851467">
        <ele>1891.0</ele>
        <time>2014-06-30T14:08:16Z</time>
      </trkpt>
      <trkpt lat="40.614883" lon="-4.851350">
        <ele>1892.0</ele>
        <time>2014-06-30T14:08:17Z</time>
      </trkpt>
      <trkpt lat="40.614933" lon="-4.851217">
        <ele>1894.0</ele>
        <time>2014-06-30T14:08:18Z</time>
      </trkpt>
      <trkpt lat="40.614967" lon="-4.851067">
        <ele>1895.0</ele>
        <time>2014-06-30T14:08:19Z</time>
      </trkpt>
      <trkpt lat="40.615000" lon="-4.850933">
        <ele>1898.0</ele>
        <time>2014-06-30T14:08:20Z</time>
      </trkpt>
      <trkpt lat="40.615033" lon="-4.850800">
        <ele>1900.0</ele>
        <time>2014-06-30T14:08:21Z</time>
      </trkpt>
      <trkpt lat="40.615067" lon="-4.850667">
        <ele>1902.0</ele>
        <time>2014-06-30T14:08:22Z</time>
      </trkpt>
      <trkpt lat="40.615117" lon="-4.850533">
        <ele>1903.0</ele>
        <time>2014-06-30T14:08:23Z</time>
      </trkpt>
      <trkpt lat="40.615150" lon="-4.850383">
        <ele>1905.0</ele>
        <time>2014-06-30T14:08:24Z</time>
      </trkpt>
      <trkpt lat="40.615150" lon="-4.850217">
        <ele>1906.0</ele>
        <time>2014-06-30T14:08:25Z</time>
      </trkpt>
      <trkpt lat="40.615150" lon="-4.850050">
        <ele>1908.0</ele>
        <time>2014-06-30T14:08:26Z</time>
      </trkpt>
      <trkpt lat="40.615117" lon="-4.849900">
        <ele>1911.0</ele>
        <time>2014-06-30T14:08:27Z</time>
      </trkpt>
      <trkpt lat="40.615067" lon="-4.849750">
        <ele>1913.0</ele>
        <time>2014-06-30T14:08:28Z</time>
      </trkpt>
      <trkpt lat="40.614983" lon="-4.849650">
        <ele>1915.0</ele>
        <time>2014-06-30T14:08:29Z</time>
      </trkpt>
      <trkpt lat="40.614883" lon="-4.849567">
        <ele>1917.0</ele>
        <time>2014-06-30T14:08:30Z</time>
      </trkpt>
      <trkpt lat="40.614783" lon="-4.849550">
        <ele>1919.0</ele>
        <time>2014-06-30T14:08:31Z</time>
      </trkpt>
      <trkpt lat="40.614700" lon="-4.849550">
        <ele>1921.0</ele>
        <time>2014-06-30T14:08:32Z</time>
      </trkpt>
      <trkpt lat="40.614633" lon="-4.849567">
        <ele>1923.0</ele>
        <time>2014-06-30T14:08:33Z</time>
      </trkpt>
      <trkpt lat="40.614567" lon="-4.849583">
        <ele>1926.0</ele>
        <time>2014-06-30T14:08:34Z</time>
      </trkpt>
      <trkpt lat="40.614517" lon="-4.849633">
        <ele>1928.0</ele>
        <time>2014-06-30T14:08:35Z</time>
      </trkpt>
      <trkpt lat="40.614467" lon="-4.849700">
        <ele>1930.0</ele>
        <time>2014-06-30T14:08:36Z</time>
      </trkpt>
      <trkpt lat="40.614433" lon="-4.849767">
        <ele>1931.0</ele>
        <time>2014-06-30T14:08:37Z</time>
      </trkpt>
      <trkpt lat="40.614400" lon="-4.849850">
        <ele>1933.0</ele>
        <time>2014-06-30T14:08:38Z</time>
      </trkpt>
      <trkpt lat="40.614400" lon="-4.849917">
        <ele>1935.0</ele>
        <time>2014-06-30T14:08:39Z</time>
      </trkpt>
      <trkpt lat="40.614417" lon="-4.849983">
        <ele>1937.0</ele>
        <time>2014-06-30T14:08:40Z</time>
      </trkpt>
      <trkpt lat="40.614450" lon="-4.850050">
        <ele>1939.0</ele>
        <time>2014-06-30T14:08:41Z</time>
      </trkpt>
      <trkpt lat="40.614483" lon="-4.850117">
        <ele>1941.0</ele>
        <time>2014-06-30T14:08:42Z</time>
      </trkpt>
      <trkpt lat="40.614550" lon="-4.850183">
        <ele>1942.0</ele>
        <time>2014-06-30T14:08:43Z</time>
      </trkpt>
      <trkpt lat="40.614617" lon="-4.850250">
        <ele>1943.0</ele>
        <time>2014-06-30T14:08:44Z</time>
      </trkpt>
      <trkpt lat="40.614700" lon="-4.850300">
        <ele>1944.0</ele>
        <time>2014-06-30T14:08:45Z</time>
      </trkpt>
      <trkpt lat="40.614767" lon="-4.850333">
        <ele>1946.0</ele>
        <time>2014-06-30T14:08:46Z</time>
      </trkpt>
      <trkpt lat="40.614850" lon="-4.850350">
        <ele>1948.0</ele>
        <time>2014-06-30T14:08:47Z</time>
      </trkpt>
      <trkpt lat="40.614933" lon="-4.850350">
        <ele>1949.0</ele>
        <time>2014-06-30T14:08:48Z</time>
      </trkpt>
      <trkpt lat="40.615017" lon="-4.850367">
        <ele>1950.0</ele>
        <time>2014-06-30T14:08:49Z</time>
      </trkpt>
      <trkpt lat="40.615083" lon="-4.850367">
        <ele>1952.0</ele>
        <time>2014-06-30T14:08:50Z</time>
      </trkpt>
      <trkpt lat="40.615167" lon="-4.850383">
        <ele>1953.0</ele>
        <time>2014-06-30T14:08:51Z</time>
      </trkpt>
      <trkpt lat="40.615250" lon="-4.850367">
        <ele>1955.0</ele>
        <time>2014-06-30T14:08:52Z</time>
      </trkpt>
      <trkpt lat="40.615333" lon="-4.850350">
        <ele>1957.0</ele>
        <time>2014-06-30T14:08:53Z</time>
      </trkpt>
      <trkpt lat="40.615417" lon="-4.850333">
        <ele>1959.0</ele>
        <time>2014-06-30T14:08:54Z</time>
      </trkpt>
      <trkpt lat="40.615500" lon="-4.850317">
        <ele>1961.0</ele>
        <time>2014-06-30T14:08:55Z</time>
      </trkpt>
      <trkpt lat="40.615600" lon="-4.850283">
        <ele>1963.0</ele>
        <time>2014-06-30T14:08:56Z</time>
      </trkpt>
      <trkpt lat="40.615683" lon="-4.850217">
        <ele>1965.0</ele>
        <time>2014-06-30T14:08:57Z</time>
      </trkpt>
      <trkpt lat="40.615750" lon="-4.850133">
        <ele>1967.0</ele>
        <time>2014-06-30T14:08:58Z</time>
      </trkpt>
      <trkpt lat="40.615817" lon="-4.850033">
        <ele>1970.0</ele>
        <time>2014-06-30T14:08:59Z</time>
      </trkpt>
      <trkpt lat="40.615867" lon="-4.849933">
        <ele>1972.0</ele>
        <time>2014-06-30T14:09:00Z</time>
      </trkpt>
      <trkpt lat="40.615917" lon="-4.849817">
        <ele>1975.0</ele>
        <time>2014-06-30T14:09:01Z</time>
      </trkpt>
      <trkpt lat="40.615950" lon="-4.849683">
        <ele>1977.0</ele>
        <time>2014-06-30T14:09:02Z</time>
      </trkpt>
      <trkpt lat="40.615967" lon="-4.849550">
        <ele>1979.0</ele>
        <time>2014-06-30T14:09:03Z</time>
      </trkpt>
      <trkpt lat="40.615967" lon="-4.849433">
        <ele>1981.0</ele>
        <time>2014-06-30T14:09:04Z</time>
      </trkpt>
      <trkpt lat="40.615950" lon="-4.849317">
        <ele>1984.0</ele>
        <time>2014-06-30T14:09:05Z</time>
      </trkpt>
      <trkpt lat="40.615900" lon="-4.849217">
        <ele>1986.0</ele>
        <time>2014-06-30T14:09:06Z</time>
      </trkpt>
      <trkpt lat="40.615850" lon="-4.849117">
        <ele>1988.0</ele>
        <time>2014-06-30T14:09:07Z</time>
      </trkpt>
      <trkpt lat="40.615783" lon="-4.849050">
        <ele>1990.0</ele>
        <time>2014-06-30T14:09:08Z</time>
      </trkpt>
      <trkpt lat="40.615700" lon="-4.848967">
        <ele>1992.0</ele>
        <time>2014-06-30T14:09:09Z</time>
      </trkpt>
      <trkpt lat="40.615617" lon="-4.848900">
        <ele>1994.0</ele>
        <time>2014-06-30T14:09:10Z</time>
      </trkpt>
      <trkpt lat="40.615533" lon="-4.848867">
        <ele>1996.0</ele>
        <time>2014-06-30T14:09:11Z</time>
      </trkpt>
      <trkpt lat="40.615450" lon="-4.848833">
        <ele>1998.0</ele>
        <time>2014-06-30T14:09:12Z</time>
      </trkpt>
      <trkpt lat="40.615367" lon="-4.848817">
        <ele>1999.0</ele>
        <time>2014-06-30T14:09:13Z</time>
      </trkpt>
      <trkpt lat="40.615267" lon="-4.848800">
        <ele>2000.0</ele>
        <time>2014-06-30T14:09:14Z</time>
      </trkpt>
      <trkpt lat="40.615183" lon="-4.848817">
        <ele>2001.0</ele>
        <time>2014-06-30T14:09:15Z</time>
      </trkpt>
      <trkpt lat="40.615067" lon="-4.848833">
        <ele>2001.0</ele>
        <time>2014-06-30T14:09:16Z</time>
      </trkpt>
      <trkpt lat="40.614983" lon="-4.848883">
        <ele>2001.0</ele>
        <time>2014-06-30T14:09:17Z</time>
      </trkpt>
      <trkpt lat="40.614917" lon="-4.848933">
        <ele>2003.0</ele>
        <time>2014-06-30T14:09:18Z</time>
      </trkpt>
      <trkpt lat="40.614833" lon="-4.848983">
        <ele>2005.0</ele>
        <time>2014-06-30T14:09:19Z</time>
      </trkpt>
      <trkpt lat="40.614767" lon="-4.849033">
        <ele>2006.0</ele>
        <time>2014-06-30T14:09:20Z</time>
      </trkpt>
      <trkpt lat="40.614683" lon="-4.849083">
        <ele>2008.0</ele>
        <time>2014-06-30T14:09:21Z</time>
      </trkpt>
      <trkpt lat="40.614617" lon="-4.849133">
        <ele>2011.0</ele>
        <time>2014-06-30T14:09:22Z</time>
      </trkpt>
      <trkpt lat="40.614583" lon="-4.849200">
        <ele>2014.0</ele>
        <time>2014-06-30T14:09:23Z</time>
      </trkpt>
      <trkpt lat="40.614567" lon="-4.849267">
        <ele>2015.0</ele>
        <time>2014-06-30T14:09:24Z</time>
      </trkpt>
      <trkpt lat="40.614550" lon="-4.849333">
        <ele>2017.0</ele>
        <time>2014-06-30T14:09:25Z</time>
      </trkpt>
      <trkpt lat="40.614550" lon="-4.849417">
        <ele>2019.0</ele>
        <time>2014-06-30T14:09:26Z</time>
      </trkpt>
      <trkpt lat="40.614567" lon="-4.849500">
        <ele>2021.0</ele>
        <time>2014-06-30T14:09:27Z</time>
      </trkpt>
      <trkpt lat="40.614600" lon="-4.849583">
        <ele>2022.0</ele>
        <time>2014-06-30T14:09:28Z</time>
      </trkpt>
      <trkpt lat="40.614667" lon="-4.849633">
        <ele>2023.0</ele>
        <time>2014-06-30T14:09:29Z</time>
      </trkpt>
      <trkpt lat="40.614750" lon="-4.849650">
        <ele>2024.0</ele>
        <time>2014-06-30T14:09:30Z</time>
      </trkpt>
      <trkpt lat="40.614833" lon="-4.849650">
        <ele>2024.0</ele>
        <time>2014-06-30T14:09:31Z</time>
      </trkpt>
      <trkpt lat="40.614917" lon="-4.849600">
        <ele>2025.0</ele>
        <time>2014-06-30T14:09:32Z</time>
      </trkpt>
      <trkpt lat="40.614983" lon="-4.849533">
        <ele>2025.0</ele>
        <time>2014-06-30T14:09:33Z</time>
      </trkpt>
      <trkpt lat="40.615033" lon="-4.849433">
        <ele>2026.0</ele>
        <time>2014-06-30T14:09:34Z</time>
      </trkpt>
      <trkpt lat="40.615067" lon="-4.849333">
        <ele>2028.0</ele>
        <time>2014-06-30T14:09:35Z</time>
      </trkpt>
      <trkpt lat="40.615067" lon="-4.849217">
        <ele>2030.0</ele>
        <time>2014-06-30T14:09:36Z</time>
      </trkpt>
      <trkpt lat="40.615050" lon="-4.849100">
        <ele>2032.0</ele>
        <time>2014-06-30T14:09:37Z</time>
      </trkpt>
      <trkpt lat="40.615017" lon="-4.848983">
        <ele>2034.0</ele>
        <time>2014-06-30T14:09:38Z</time>
      </trkpt>
      <trkpt lat="40.614983" lon="-4.848883">
        <ele>2036.0</ele>
        <time>2014-06-30T14:09:39Z</time>
      </trkpt>
      <trkpt lat="40.614933" lon="-4.848800">
        <ele>2038.0</ele>
        <time>2014-06-30T14:09:40Z</time>
      </trkpt>
      <trkpt lat="40.614883" lon="-4.848717">
        <ele>2040.0</ele>
        <time>2014-06-30T14:09:41Z</time>
      </trkpt>
      <trkpt lat="40.614833" lon="-4.848633">
        <ele>2040.0</ele>
        <time>2014-06-30T14:09:42Z</time>
      </trkpt>
      <trkpt lat="40.614767" lon="-4.848533">
        <ele>2040.0</ele>
        <time>2014-06-30T14:09:43Z</time>
      </trkpt>
      <trkpt lat="40.614683" lon="-4.848450">
        <ele>2040.0</ele>
        <time>2014-06-30T14:09:44Z</time>
      </trkpt>
      <trkpt lat="40.614600" lon="-4.848383">
        <ele>2041.0</ele>
        <time>2014-06-30T14:09:45Z</time>
      </trkpt>
      <trkpt lat="40.614517" lon="-4.848317">
        <ele>2043.0</ele>
        <time>2014-06-30T14:09:46Z</time>
      </trkpt>
      <trkpt lat="40.614433" lon="-4.848250">
        <ele>2044.0</ele>
        <time>2014-06-30T14:09:47Z</time>
      </trkpt>
      <trkpt lat="40.614350" lon="-4.848217">
        <ele>2045.0</ele>
        <time>2014-06-30T14:09:48Z</time>
      </trkpt>
      <trkpt lat="40.614267" lon="-4.848183">
        <ele>2046.0</ele>
        <time>2014-06-30T14:09:49Z</time>
      </trkpt>
      <trkpt lat="40.614183" lon="-4.848183">
        <ele>2047.0</ele>
        <time>2014-06-30T14:09:50Z</time>
      </trkpt>
      <trkpt lat="40.614083" lon="-4.848200">
        <ele>2047.0</ele>
        <time>2014-06-30T14:09:51Z</time>
      </trkpt>
      <trkpt lat="40.613983" lon="-4.848217">
        <ele>2047.0</ele>
        <time>2014-06-30T14:09:52Z</time>
      </trkpt>
      <trkpt lat="40.613883" lon="-4.848250">
        <ele>2047.0</ele>
        <time>2014-06-30T14:09:53Z</time>
      </trkpt>
      <trkpt lat="40.613800" lon="-4.848300">
        <ele>2048.0</ele>
        <time>2014-06-30T14:09:54Z</time>
      </trkpt>
      <trkpt lat="40.613700" lon="-4.848350">
        <ele>2049.0</ele>
        <time>2014-06-30T14:09:55Z</time>
      </trkpt>
      <trkpt lat="40.613633" lon="-4.848417">
        <ele>2050.0</ele>
        <time>2014-06-30T14:09:56Z</time>
      </trkpt>
      <trkpt lat="40.613567" lon="-4.848500">
        <ele>2051.0</ele>
        <time>2014-06-30T14:09:57Z</time>
      </trkpt>
      <trkpt lat="40.613533" lon="-4.848600">
        <ele>2051.0</ele>
        <time>2014-06-30T14:09:58Z</time>
      </trkpt>
      <trkpt lat="40.613500" lon="-4.848700">
        <ele>2051.0</ele>
        <time>2014-06-30T14:09:59Z</time>
      </trkpt>
      <trkpt lat="40.613517" lon="-4.848783">
        <ele>2054.0</ele>
        <time>2014-06-30T14:10:00Z</time>
      </trkpt>
      <trkpt lat="40.613550" lon="-4.848883">
        <ele>2055.0</ele>
        <time>2014-06-30T14:10:01Z</time>
      </trkpt>
      <trkpt lat="40.613600" lon="-4.848983">
        <ele>2054.0</ele>
        <time>2014-06-30T14:10:02Z</time>
      </trkpt>
      <trkpt lat="40.613650" lon="-4.849083">
        <ele>2054.0</ele>
        <time>2014-06-30T14:10:03Z</time>
      </trkpt>
      <trkpt lat="40.613717" lon="-4.849167">
        <ele>2055.0</ele>
        <time>2014-06-30T14:10:04Z</time>
      </trkpt>
      <trkpt lat="40.613800" lon="-4.849233">
        <ele>2056.0</ele>
        <time>2014-06-30T14:10:05Z</time>
      </trkpt>
      <trkpt lat="40.613867" lon="-4.849283">
        <ele>2056.0</ele>
        <time>2014-06-30T14:10:06Z</time>
      </trkpt>
      <trkpt lat="40.613950" lon="-4.849333">
        <ele>2056.0</ele>
        <time>2014-06-30T14:10:07Z</time>
      </trkpt>
      <trkpt lat="40.614017" lon="-4.849417">
        <ele>2056.0</ele>
        <time>2014-06-30T14:10:08Z</time>
      </trkpt>
      <trkpt lat="40.614100" lon="-4.849483">
        <ele>2056.0</ele>
        <time>2014-06-30T14:10:09Z</time>
      </trkpt>
      <trkpt lat="40.614183" lon="-4.849550">
        <ele>2057.0</ele>
        <time>2014-06-30T14:10:10Z</time>
      </trkpt>
      <trkpt lat="40.614283" lon="-4.849567">
        <ele>2058.0</ele>
        <time>2014-06-30T14:10:11Z</time>
      </trkpt>
      <trkpt lat="40.614350" lon="-4.849567">
        <ele>2060.0</ele>
        <time>2014-06-30T14:10:12Z</time>
      </trkpt>
      <trkpt lat="40.614450" lon="-4.849567">
        <ele>2061.0</ele>
        <time>2014-06-30T14:10:13Z</time>
      </trkpt>
      <trkpt lat="40.614533" lon="-4.849550">
        <ele>2063.0</ele>
        <time>2014-06-30T14:10:14Z</time>
      </trkpt>
      <trkpt lat="40.614617" lon="-4.849517">
        <ele>2064.0</ele>
        <time>2014-06-30T14:10:15Z</time>
      </trkpt>
      <trkpt lat="40.614700" lon="-4.849467">
        <ele>2066.0</ele>
        <time>2014-06-30T14:10:16Z</time>
      </trkpt>
      <trkpt lat="40.614750" lon="-4.849400">
        <ele>2066.0</ele>
        <time>2014-06-30T14:10:17Z</time>
      </trkpt>
      <trkpt lat="40.614800" lon="-4.849317">
        <ele>2066.0</ele>
        <time>2014-06-30T14:10:18Z</time>
      </trkpt>
      <trkpt lat="40.614833" lon="-4.849217">
        <ele>2066.0</ele>
        <time>2014-06-30T14:10:19Z</time>
      </trkpt>
      <trkpt lat="40.614850" lon="-4.849117">
        <ele>2065.0</ele>
        <time>2014-06-30T14:10:20Z</time>
      </trkpt>
      <trkpt lat="40.614867" lon="-4.848983">
        <ele>2064.0</ele>
        <time>2014-06-30T14:10:21Z</time>
      </trkpt>
      <trkpt lat="40.614867" lon="-4.848867">
        <ele>2064.0</ele>
        <time>2014-06-30T14:10:22Z</time>
      </trkpt>
      <trkpt lat="40.614850" lon="-4.848733">
        <ele>2063.0</ele>
        <time>2014-06-30T14:10:23Z</time>
      </trkpt>
      <trkpt lat="40.614833" lon="-4.848617">
        <ele>2062.0</ele>
        <time>2014-06-30T14:10:24Z</time>
      </trkpt>
      <trkpt lat="40.614783" lon="-4.848483">
        <ele>2062.0</ele>
        <time>2014-06-30T14:10:25Z</time>
      </trkpt>
      <trkpt lat="40.614750" lon="-4.848383">
        <ele>2062.0</ele>
        <time>2014-06-30T14:10:26Z</time>
      </trkpt>
      <trkpt lat="40.614717" lon="-4.848283">
        <ele>2063.0</ele>
        <time>2014-06-30T14:10:27Z</time>
      </trkpt>
      <trkpt lat="40.614700" lon="-4.848200">
        <ele>2065.0</ele>
        <time>2014-06-30T14:10:28Z</time>
      </trkpt>
      <trkpt lat="40.614667" lon="-4.848117">
        <ele>2067.0</ele>
        <time>2014-06-30T14:10:29Z</time>
      </trkpt>
      <trkpt lat="40.614650" lon="-4.848000">
        <ele>2068.0</ele>
        <time>2014-06-30T14:10:30Z</time>
      </trkpt>
      <trkpt lat="40.614617" lon="-4.847900">
        <ele>2070.0</ele>
        <time>2014-06-30T14:10:31Z</time>
      </trkpt>
      <trkpt lat="40.614600" lon="-4.847800">
        <ele>2069.0</ele>
        <time>2014-06-30T14:10:32Z</time>
      </trkpt>
      <trkpt lat="40.614567" lon="-4.847717">
        <ele>2069.0</ele>
        <time>2014-06-30T14:10:33Z</time>
      </trkpt>
      <trkpt lat="40.614533" lon="-4.847633">
        <ele>2069.0</ele>
        <time>2014-06-30T14:10:34Z</time>
      </trkpt>
      <trkpt lat="40.614483" lon="-4.847550">
        <ele>2069.0</ele>
        <time>2014-06-30T14:10:35Z</time>
      </trkpt>
      <trkpt lat="40.614400" lon="-4.847500">
        <ele>2069.0</ele>
        <time>2014-06-30T14:10:36Z</time>
      </trkpt>
      <trkpt lat="40.614317" lon="-4.847467">
        <ele>2069.0</ele>
        <time>2014-06-30T14:10:37Z</time>
      </trkpt>
      <trkpt lat="40.614217" lon="-4.847433">
        <ele>2069.0</ele>
        <time>2014-06-30T14:10:38Z</time>
      </trkpt>
      <trkpt lat="40.614117" lon="-4.847417">
        <ele>2069.0</ele>
        <time>2014-06-30T14:10:39Z</time>
      </trkpt>
      <trkpt lat="40.614033" lon="-4.847400">
        <ele>2070.0</ele>
        <time>2014-06-30T14:10:40Z</time>
      </trkpt>
      <trkpt lat="40.613933" lon="-4.847383">
        <ele>2071.0</ele>
        <time>2014-06-30T14:10:41Z</time>
      </trkpt>
      <trkpt lat="40.613850" lon="-4.847383">
        <ele>2072.0</ele>
        <time>2014-06-30T14:10:42Z</time>
      </trkpt>
      <trkpt lat="40.613750" lon="-4.847383">
        <ele>2071.0</ele>
        <time>2014-06-30T14:10:43Z</time>
      </trkpt>
      <trkpt lat="40.613650" lon="-4.847417">
        <ele>2071.0</ele>
        <time>2014-06-30T14:10:44Z</time>
      </trkpt>
      <trkpt lat="40.613567" lon="-4.847467">
        <ele>2072.0</ele>
        <time>2014-06-30T14:10:45Z</time>
      </trkpt>
      <trkpt lat="40.613483" lon="-4.847517">
        <ele>2072.0</ele>
        <time>2014-06-30T14:10:46Z</time>
      </trkpt>
      <trkpt lat="40.613417" lon="-4.847583">
        <ele>2073.0</ele>
        <time>2014-06-30T14:10:47Z</time>
      </trkpt>
      <trkpt lat="40.613350" lon="-4.847667">
        <ele>2073.0</ele>
        <time>2014-06-30T14:10:48Z</time>
      </trkpt>
      <trkpt lat="40.613283" lon="-4.847733">
        <ele>2073.0</ele>
        <time>2014-06-30T14:10:49Z</time>
      </trkpt>
      <trkpt lat="40.613200" lon="-4.847817">
        <ele>2073.0</ele>
        <time>2014-06-30T14:10:50Z</time>
      </trkpt>
      <trkpt lat="40.613133" lon="-4.847917">
        <ele>2073.0</ele>
        <time>2014-06-30T14:10:51Z</time>
      </trkpt>
      <trkpt lat="40.613083" lon="-4.848033">
        <ele>2073.0</ele>
        <time>2014-06-30T14:10:52Z</time>
      </trkpt>
      <trkpt lat="40.613050" lon="-4.848150">
        <ele>2072.0</ele>
        <time>2014-06-30T14:10:53Z</time>
      </trkpt>
      <trkpt lat="40.613050" lon="-4.848283">
        <ele>2072.0</ele>
        <time>2014-06-30T14:10:54Z</time>
      </trkpt>
      <trkpt lat="40.613050" lon="-4.848417">
        <ele>2073.0</ele>
        <time>2014-06-30T14:10:55Z</time>
      </trkpt>
      <trkpt lat="40.613067" lon="-4.848533">
        <ele>2072.0</ele>
        <time>2014-06-30T14:10:56Z</time>
      </trkpt>
      <trkpt lat="40.613100" lon="-4.848650">
        <ele>2072.0</ele>
        <time>2014-06-30T14:10:57Z</time>
      </trkpt>
      <trkpt lat="40.613150" lon="-4.848733">
        <ele>2073.0</ele>
        <time>2014-06-30T14:10:58Z</time>
      </trkpt>
      <trkpt lat="40.613217" lon="-4.848817">
        <ele>2074.0</ele>
        <time>2014-06-30T14:10:59Z</time>
      </trkpt>
      <trkpt lat="40.613283" lon="-4.848867">
        <ele>2074.0</ele>
        <time>2014-06-30T14:11:00Z</time>
      </trkpt>
      <trkpt lat="40.613367" lon="-4.848900">
        <ele>2073.0</ele>
        <time>2014-06-30T14:11:01Z</time>
      </trkpt>
      <trkpt lat="40.613450" lon="-4.848933">
        <ele>2072.0</ele>
        <time>2014-06-30T14:11:02Z</time>
      </trkpt>
      <trkpt lat="40.613550" lon="-4.848967">
        <ele>2072.0</ele>
        <time>2014-06-30T14:11:03Z</time>
      </trkpt>
      <trkpt lat="40.613650" lon="-4.849000">
        <ele>2072.0</ele>
        <time>2014-06-30T14:11:04Z</time>
      </trkpt>
      <trkpt lat="40.613733" lon="-4.849050">
        <ele>2072.0</ele>
        <time>2014-06-30T14:11:05Z</time>
      </trkpt>
      <trkpt lat="40.613833" lon="-4.849083">
        <ele>2072.0</ele>
        <time>2014-06-30T14:11:06Z</time>
      </trkpt>
      <trkpt lat="40.613917" lon="-4.849117">
        <ele>2073.0</ele>
        <time>2014-06-30T14:11:07Z</time>
      </trkpt>
      <trkpt lat="40.614017" lon="-4.849117">
        <ele>2073.0</ele>
        <time>2014-06-30T14:11:08Z</time>
      </trkpt>
      <trkpt lat="40.614100" lon="-4.849117">
        <ele>2073.0</ele>
        <time>2014-06-30T14:11:09Z</time>
      </trkpt>
      <trkpt lat="40.614183" lon="-4.849100">
        <ele>2072.0</ele>
        <time>2014-06-30T14:11:10Z</time>
      </trkpt>
      <trkpt lat="40.614283" lon="-4.849050">
        <ele>2072.0</ele>
        <time>2014-06-30T14:11:11Z</time>
      </trkpt>
      <trkpt lat="40.614367" lon="-4.849017">
        <ele>2071.0</ele>
        <time>2014-06-30T14:11:12Z</time>
      </trkpt>
      <trkpt lat="40.614467" lon="-4.848983">
        <ele>2070.0</ele>
        <time>2014-06-30T14:11:13Z</time>
      </trkpt>
      <trkpt lat="40.614550" lon="-4.848933">
        <ele>2069.0</ele>
        <time>2014-06-30T14:11:14Z</time>
      </trkpt>
      <trkpt lat="40.614633" lon="-4.848867">
        <ele>2069.0</ele>
        <time>2014-06-30T14:11:15Z</time>
      </trkpt>
      <trkpt lat="40.614717" lon="-4.848800">
        <ele>2070.0</ele>
        <time>2014-06-30T14:11:16Z</time>
      </trkpt>
      <trkpt lat="40.614767" lon="-4.848733">
        <ele>2070.0</ele>
        <time>2014-06-30T14:11:17Z</time>
      </trkpt>
      <trkpt lat="40.614817" lon="-4.848650">
        <ele>2070.0</ele>
        <time>2014-06-30T14:11:18Z</time>
      </trkpt>
      <trkpt lat="40.614867" lon="-4.848567">
        <ele>2069.0</ele>
        <time>2014-06-30T14:11:19Z</time>
      </trkpt>
      <trkpt lat="40.614883" lon="-4.848467">
        <ele>2069.0</ele>
        <time>2014-06-30T14:11:20Z</time>
      </trkpt>
      <trkpt lat="40.614917" lon="-4.848367">
        <ele>2066.0</ele>
        <time>2014-06-30T14:11:21Z</time>
      </trkpt>
      <trkpt lat="40.614933" lon="-4.848233">
        <ele>2064.0</ele>
        <time>2014-06-30T14:11:22Z</time>
      </trkpt>
      <trkpt lat="40.614950" lon="-4.848117">
        <ele>2063.0</ele>
        <time>2014-06-30T14:11:23Z</time>
      </trkpt>
      <trkpt lat="40.614967" lon="-4.847983">
        <ele>2062.0</ele>
        <time>2014-06-30T14:11:24Z</time>
      </trkpt>
      <trkpt lat="40.614950" lon="-4.847867">
        <ele>2061.0</ele>
        <time>2014-06-30T14:11:25Z</time>
      </trkpt>
      <trkpt lat="40.614933" lon="-4.847750">
        <ele>2062.0</ele>
        <time>2014-06-30T14:11:26Z</time>
      </trkpt>
      <trkpt lat="40.614917" lon="-4.847667">
        <ele>2063.0</ele>
        <time>2014-06-30T14:11:27Z</time>
      </trkpt>
      <trkpt lat="40.614900" lon="-4.847567">
        <ele>2063.0</ele>
        <time>2014-06-30T14:11:28Z</time>
      </trkpt>
      <trkpt lat="40.614883" lon="-4.847450">
        <ele>2062.0</ele>
        <time>2014-06-30T14:11:29Z</time>
      </trkpt>
      <trkpt lat="40.614850" lon="-4.847333">
        <ele>2062.0</ele>
        <time>2014-06-30T14:11:30Z</time>
      </trkpt>
      <trkpt lat="40.614850" lon="-4.847217">
        <ele>2060.0</ele>
        <time>2014-06-30T14:11:31Z</time>
      </trkpt>
      <trkpt lat="40.614833" lon="-4.847083">
        <ele>2059.0</ele>
        <time>2014-06-30T14:11:32Z</time>
      </trkpt>
      <trkpt lat="40.614833" lon="-4.846950">
        <ele>2058.0</ele>
        <time>2014-06-30T14:11:33Z</time>
      </trkpt>
      <trkpt lat="40.614817" lon="-4.846833">
        <ele>2058.0</ele>
        <time>2014-06-30T14:11:34Z</time>
      </trkpt>
      <trkpt lat="40.614800" lon="-4.846717">
        <ele>2059.0</ele>
        <time>2014-06-30T14:11:35Z</time>
      </trkpt>
      <trkpt lat="40.614783" lon="-4.846617">
        <ele>2059.0</ele>
        <time>2014-06-30T14:11:36Z</time>
      </trkpt>
      <trkpt lat="40.614750" lon="-4.846517">
        <ele>2060.0</ele>
        <time>2014-06-30T14:11:37Z</time>
      </trkpt>
      <trkpt lat="40.614733" lon="-4.846417">
        <ele>2060.0</ele>
        <time>2014-06-30T14:11:38Z</time>
      </trkpt>
      <trkpt lat="40.614700" lon="-4.846300">
        <ele>2061.0</ele>
        <time>2014-06-30T14:11:39Z</time>
      </trkpt>
      <trkpt lat="40.614667" lon="-4.846200">
        <ele>2063.0</ele>
        <time>2014-06-30T14:11:40Z</time>
      </trkpt>
      <trkpt lat="40.614633" lon="-4.846117">
        <ele>2065.0</ele>
        <time>2014-06-30T14:11:41Z</time>
      </trkpt>
      <trkpt lat="40.614600" lon="-4.846017">
        <ele>2066.0</ele>
        <time>2014-06-30T14:11:42Z</time>
      </trkpt>
      <trkpt lat="40.614567" lon="-4.845933">
        <ele>2068.0</ele>
        <time>2014-06-30T14:11:43Z</time>
      </trkpt>
      <trkpt lat="40.614533" lon="-4.845833">
        <ele>2069.0</ele>
        <time>2014-06-30T14:11:44Z</time>
      </trkpt>
      <trkpt lat="40.614467" lon="-4.845750">
        <ele>2069.0</ele>
        <time>2014-06-30T14:11:45Z</time>
      </trkpt>
      <trkpt lat="40.614400" lon="-4.845650">
        <ele>2070.0</ele>
        <time>2014-06-30T14:11:46Z</time>
      </trkpt>
      <trkpt lat="40.614317" lon="-4.845583">
        <ele>2070.0</ele>
        <time>2014-06-30T14:11:47Z</time>
      </trkpt>
      <trkpt lat="40.614233" lon="-4.845483">
        <ele>2071.0</ele>
        <time>2014-06-30T14:11:48Z</time>
      </trkpt>
      <trkpt lat="40.614183" lon="-4.845400">
        <ele>2073.0</ele>
        <time>2014-06-30T14:11:49Z</time>
      </trkpt>
      <trkpt lat="40.614167" lon="-4.845300">
        <ele>2074.0</ele>
        <time>2014-06-30T14:11:50Z</time>
      </trkpt>
      <trkpt lat="40.614150" lon="-4.845200">
        <ele>2076.0</ele>
        <time>2014-06-30T14:11:51Z</time>
      </trkpt>
      <trkpt lat="40.614167" lon="-4.845117">
        <ele>2077.0</ele>
        <time>2014-06-30T14:11:52Z</time>
      </trkpt>
      <trkpt lat="40.614183" lon="-4.845017">
        <ele>2078.0</ele>
        <time>2014-06-30T14:11:53Z</time>
      </trkpt>
      <trkpt lat="40.614200" lon="-4.844933">
        <ele>2079.0</ele>
        <time>2014-06-30T14:11:54Z</time>
      </trkpt>
      <trkpt lat="40.614233" lon="-4.844850">
        <ele>2081.0</ele>
        <time>2014-06-30T14:11:55Z</time>
      </trkpt>
      <trkpt lat="40.614250" lon="-4.844767">
        <ele>2082.0</ele>
        <time>2014-06-30T14:11:56Z</time>
      </trkpt>
      <trkpt lat="40.614267" lon="-4.844667">
        <ele>2084.0</ele>
        <time>2014-06-30T14:11:57Z</time>
      </trkpt>
      <trkpt lat="40.614300" lon="-4.844583">
        <ele>2086.0</ele>
        <time>2014-06-30T14:11:58Z</time>
      </trkpt>
      <trkpt lat="40.614333" lon="-4.844500">
        <ele>2090.0</ele>
        <time>2014-06-30T14:11:59Z</time>
      </trkpt>
      <trkpt lat="40.614367" lon="-4.844433">
        <ele>2095.0</ele>
        <time>2014-06-30T14:12:00Z</time>
      </trkpt>
      <trkpt lat="40.614400" lon="-4.844350">
        <ele>2099.0</ele>
        <time>2014-06-30T14:12:01Z</time>
      </trkpt>
      <trkpt lat="40.614433" lon="-4.844283">
        <ele>2103.0</ele>
        <time>2014-06-30T14:12:02Z</time>
      </trkpt>
      <trkpt lat="40.614483" lon="-4.844217">
        <ele>2107.0</ele>
        <time>2014-06-30T14:12:03Z</time>
      </trkpt>
      <trkpt lat="40.614517" lon="-4.844133">
        <ele>2110.0</ele>
        <time>2014-06-30T14:12:04Z</time>
      </trkpt>
      <trkpt lat="40.614567" lon="-4.844083">
        <ele>2113.0</ele>
        <time>2014-06-30T14:12:05Z</time>
      </trkpt>
      <trkpt lat="40.614600" lon="-4.844017">
        <ele>2117.0</ele>
        <time>2014-06-30T14:12:06Z</time>
      </trkpt>
      <trkpt lat="40.614617" lon="-4.843950">
        <ele>2120.0</ele>
        <time>2014-06-30T14:12:07Z</time>
      </trkpt>
      <trkpt lat="40.614600" lon="-4.843850">
        <ele>2123.0</ele>
        <time>2014-06-30T14:12:08Z</time>
      </trkpt>
      <trkpt lat="40.614567" lon="-4.843767">
        <ele>2124.0</ele>
        <time>2014-06-30T14:12:09Z</time>
      </trkpt>
      <trkpt lat="40.614517" lon="-4.843667">
        <ele>2125.0</ele>
        <time>2014-06-30T14:12:10Z</time>
      </trkpt>
      <trkpt lat="40.614467" lon="-4.843567">
        <ele>2127.0</ele>
        <time>2014-06-30T14:12:11Z</time>
      </trkpt>
      <trkpt lat="40.614383" lon="-4.843483">
        <ele>2128.0</ele>
        <time>2014-06-30T14:12:12Z</time>
      </trkpt>
      <trkpt lat="40.614300" lon="-4.843417">
        <ele>2129.0</ele>
        <time>2014-06-30T14:12:13Z</time>
      </trkpt>
      <trkpt lat="40.614200" lon="-4.843350">
        <ele>2130.0</ele>
        <time>2014-06-30T14:12:14Z</time>
      </trkpt>
      <trkpt lat="40.614083" lon="-4.843317">
        <ele>2131.0</ele>
        <time>2014-06-30T14:12:15Z</time>
      </trkpt>
      <trkpt lat="40.613967" lon="-4.843300">
        <ele>2132.0</ele>
        <time>2014-06-30T14:12:16Z</time>
      </trkpt>
      <trkpt lat="40.613867" lon="-4.843317">
        <ele>2134.0</ele>
        <time>2014-06-30T14:12:17Z</time>
      </trkpt>
      <trkpt lat="40.613767" lon="-4.843333">
        <ele>2136.0</ele>
        <time>2014-06-30T14:12:18Z</time>
      </trkpt>
      <trkpt lat="40.613667" lon="-4.843400">
        <ele>2139.0</ele>
        <time>2014-06-30T14:12:19Z</time>
      </trkpt>
      <trkpt lat="40.613567" lon="-4.843500">
        <ele>2141.0</ele>
        <time>2014-06-30T14:12:20Z</time>
      </trkpt>
      <trkpt lat="40.613483" lon="-4.843600">
        <ele>2144.0</ele>
        <time>2014-06-30T14:12:21Z</time>
      </trkpt>
      <trkpt lat="40.613417" lon="-4.843683">
        <ele>2145.0</ele>
        <time>2014-06-30T14:12:22Z</time>
      </trkpt>
      <trkpt lat="40.613333" lon="-4.843783">
        <ele>2146.0</ele>
        <time>2014-06-30T14:12:23Z</time>
      </trkpt>
      <trkpt lat="40.613267" lon="-4.843850">
        <ele>2147.0</ele>
        <time>2014-06-30T14:12:24Z</time>
      </trkpt>
      <trkpt lat="40.613200" lon="-4.843933">
        <ele>2147.0</ele>
        <time>2014-06-30T14:12:25Z</time>
      </trkpt>
      <trkpt lat="40.613167" lon="-4.844033">
        <ele>2148.0</ele>
        <time>2014-06-30T14:12:26Z</time>
      </trkpt>
      <trkpt lat="40.613150" lon="-4.844150">
        <ele>2147.0</ele>
        <time>2014-06-30T14:12:27Z</time>
      </trkpt>
      <trkpt lat="40.613183" lon="-4.844300">
        <ele>2145.0</ele>
        <time>2014-06-30T14:12:28Z</time>
      </trkpt>
      <trkpt lat="40.613217" lon="-4.844417">
        <ele>2142.0</ele>
        <time>2014-06-30T14:12:29Z</time>
      </trkpt>
      <trkpt lat="40.613267" lon="-4.844500">
        <ele>2143.0</ele>
        <time>2014-06-30T14:12:30Z</time>
      </trkpt>
      <trkpt lat="40.613333" lon="-4.844567">
        <ele>2143.0</ele>
        <time>2014-06-30T14:12:31Z</time>
      </trkpt>
      <trkpt lat="40.613417" lon="-4.844583">
        <ele>2143.0</ele>
        <time>2014-06-30T14:12:32Z</time>
      </trkpt>
      <trkpt lat="40.613483" lon="-4.844583">
        <ele>2143.0</ele>
        <time>2014-06-30T14:12:33Z</time>
      </trkpt>
      <trkpt lat="40.613583" lon="-4.844583">
        <ele>2143.0</ele>
        <time>2014-06-30T14:12:34Z</time>
      </trkpt>
      <trkpt lat="40.613683" lon="-4.844567">
        <ele>2143.0</ele>
        <time>2014-06-30T14:12:35Z</time>
      </trkpt>
      <trkpt lat="40.613783" lon="-4.844533">
        <ele>2145.0</ele>
        <time>2014-06-30T14:12:36Z</time>
      </trkpt>
      <trkpt lat="40.613867" lon="-4.844500">
        <ele>2147.0</ele>
        <time>2014-06-30T14:12:37Z</time>
      </trkpt>
      <trkpt lat="40.613933" lon="-4.844450">
        <ele>2149.0</ele>
        <time>2014-06-30T14:12:38Z</time>
      </trkpt>
      <trkpt lat="40.614000" lon="-4.844417">
        <ele>2152.0</ele>
        <time>2014-06-30T14:12:39Z</time>
      </trkpt>
      <trkpt lat="40.614083" lon="-4.844367">
        <ele>2154.0</ele>
        <time>2014-06-30T14:12:40Z</time>
      </trkpt>
      <trkpt lat="40.614150" lon="-4.844317">
        <ele>2155.0</ele>
        <time>2014-06-30T14:12:41Z</time>
      </trkpt>
      <trkpt lat="40.614217" lon="-4.844283">
        <ele>2157.0</ele>
        <time>2014-06-30T14:12:42Z</time>
      </trkpt>
      <trkpt lat="40.614283" lon="-4.844250">
        <ele>2159.0</ele>
        <time>2014-06-30T14:12:43Z</time>
      </trkpt>
      <trkpt lat="40.614350" lon="-4.844217">
        <ele>2162.0</ele>
        <time>2014-06-30T14:12:44Z</time>
      </trkpt>
      <trkpt lat="40.614417" lon="-4.844200">
        <ele>2164.0</ele>
        <time>2014-06-30T14:12:45Z</time>
      </trkpt>
      <trkpt lat="40.614467" lon="-4.844183">
        <ele>2167.0</ele>
        <time>2014-06-30T14:12:46Z</time>
      </trkpt>
      <trkpt lat="40.614517" lon="-4.844133">
        <ele>2169.0</ele>
        <time>2014-06-30T14:12:47Z</time>
      </trkpt>
      <trkpt lat="40.614550" lon="-4.844067">
        <ele>2171.0</ele>
        <time>2014-06-30T14:12:48Z</time>
      </trkpt>
      <trkpt lat="40.614600" lon="-4.843983">
        <ele>2172.0</ele>
        <time>2014-06-30T14:12:49Z</time>
      </trkpt>
      <trkpt lat="40.614650" lon="-4.843933">
        <ele>2173.0</ele>
        <time>2014-06-30T14:12:50Z</time>
      </trkpt>
      <trkpt lat="40.614700" lon="-4.843883">
        <ele>2175.0</ele>
        <time>2014-06-30T14:12:51Z</time>
      </trkpt>
      <trkpt lat="40.614733" lon="-4.843833">
        <ele>2176.0</ele>
        <time>2014-06-30T14:12:52Z</time>
      </trkpt>
      <trkpt lat="40.614767" lon="-4.843767">
        <ele>2178.0</ele>
        <time>2014-06-30T14:12:53Z</time>
      </trkpt>
      <trkpt lat="40.614767" lon="-4.843683">
        <ele>2179.0</ele>
        <time>2014-06-30T14:12:54Z</time>
      </trkpt>
      <trkpt lat="40.614783" lon="-4.843583">
        <ele>2178.0</ele>
        <time>2014-06-30T14:12:55Z</time>
      </trkpt>
      <trkpt lat="40.614767" lon="-4.843467">
        <ele>2178.0</ele>
        <time>2014-06-30T14:12:56Z</time>
      </trkpt>
      <trkpt lat="40.614717" lon="-4.843367">
        <ele>2179.0</ele>
        <time>2014-06-30T14:12:57Z</time>
      </trkpt>
      <trkpt lat="40.614650" lon="-4.843267">
        <ele>2181.0</ele>
        <time>2014-06-30T14:12:58Z</time>
      </trkpt>
      <trkpt lat="40.614567" lon="-4.843183">
        <ele>2182.0</ele>
        <time>2014-06-30T14:12:59Z</time>
      </trkpt>
      <trkpt lat="40.614483" lon="-4.843150">
        <ele>2184.0</ele>
        <time>2014-06-30T14:13:00Z</time>
      </trkpt>
      <trkpt lat="40.614383" lon="-4.843117">
        <ele>2185.0</ele>
        <time>2014-06-30T14:13:01Z</time>
      </trkpt>
      <trkpt lat="40.614267" lon="-4.843117">
        <ele>2186.0</ele>
        <time>2014-06-30T14:13:02Z</time>
      </trkpt>
      <trkpt lat="40.614167" lon="-4.843117">
        <ele>2187.0</ele>
        <time>2014-06-30T14:13:03Z</time>
      </trkpt>
      <trkpt lat="40.614050" lon="-4.843133">
        <ele>2188.0</ele>
        <time>2014-06-30T14:13:04Z</time>
      </trkpt>
      <trkpt lat="40.613950" lon="-4.843183">
        <ele>2190.0</ele>
        <time>2014-06-30T14:13:05Z</time>
      </trkpt>
      <trkpt lat="40.613867" lon="-4.843250">
        <ele>2192.0</ele>
        <time>2014-06-30T14:13:06Z</time>
      </trkpt>
      <trkpt lat="40.613800" lon="-4.843317">
        <ele>2193.0</ele>
        <time>2014-06-30T14:13:07Z</time>
      </trkpt>
      <trkpt lat="40.613750" lon="-4.843417">
        <ele>2195.0</ele>
        <time>2014-06-30T14:13:08Z</time>
      </trkpt>
      <trkpt lat="40.613700" lon="-4.843517">
        <ele>2197.0</ele>
        <time>2014-06-30T14:13:09Z</time>
      </trkpt>
      <trkpt lat="40.613667" lon="-4.843633">
        <ele>2197.0</ele>
        <time>2014-06-30T14:13:10Z</time>
      </trkpt>
      <trkpt lat="40.613633" lon="-4.843750">
        <ele>2198.0</ele>
        <time>2014-06-30T14:13:11Z</time>
      </trkpt>
      <trkpt lat="40.613617" lon="-4.843867">
        <ele>2199.0</ele>
        <time>2014-06-30T14:13:12Z</time>
      </trkpt>
      <trkpt lat="40.613617" lon="-4.843983">
        <ele>2200.0</ele>
        <time>2014-06-30T14:13:13Z</time>
      </trkpt>
      <trkpt lat="40.613633" lon="-4.844083">
        <ele>2201.0</ele>
        <time>2014-06-30T14:13:14Z</time>
      </trkpt>
      <trkpt lat="40.613667" lon="-4.844183">
        <ele>2201.0</ele>
        <time>2014-06-30T14:13:15Z</time>
      </trkpt>
      <trkpt lat="40.613717" lon="-4.844267">
        <ele>2202.0</ele>
        <time>2014-06-30T14:13:16Z</time>
      </trkpt>
      <trkpt lat="40.613783" lon="-4.844350">
        <ele>2202.0</ele>
        <time>2014-06-30T14:13:17Z</time>
      </trkpt>
      <trkpt lat="40.613850" lon="-4.844433">
        <ele>2202.0</ele>
        <time>2014-06-30T14:13:18Z</time>
      </trkpt>
      <trkpt lat="40.613917" lon="-4.844483">
        <ele>2202.0</ele>
        <time>2014-06-30T14:13:19Z</time>
      </trkpt>
      <trkpt lat="40.614000" lon="-4.844517">
        <ele>2203.0</ele>
        <time>2014-06-30T14:13:20Z</time>
      </trkpt>
      <trkpt lat="40.614067" lon="-4.844517">
        <ele>2204.0</ele>
        <time>2014-06-30T14:13:21Z</time>
      </trkpt>
      <trkpt lat="40.614150" lon="-4.844533">
        <ele>2204.0</ele>
        <time>2014-06-30T14:13:22Z</time>
      </trkpt>
      <trkpt lat="40.614217" lon="-4.844533">
        <ele>2205.0</ele>
        <time>2014-06-30T14:13:23Z</time>
      </trkpt>
      <trkpt lat="40.614283" lon="-4.844550">
        <ele>2206.0</ele>
        <time>2014-06-30T14:13:24Z</time>
      </trkpt>
      <trkpt lat="40.614333" lon="-4.844567">
        <ele>2206.0</ele>
        <time>2014-06-30T14:13:25Z</time>
      </trkpt>
      <trkpt lat="40.614400" lon="-4.844600">
        <ele>2206.0</ele>
        <time>2014-06-30T14:13:26Z</time>
      </trkpt>
      <trkpt lat="40.614467" lon="-4.844617">
        <ele>2206.0</ele>
        <time>2014-06-30T14:13:27Z</time>
      </trkpt>
      <trkpt lat="40.614533" lon="-4.844650">
        <ele>2206.0</ele>
        <time>2014-06-30T14:13:28Z</time>
      </trkpt>
      <trkpt lat="40.614617" lon="-4.844667">
        <ele>2205.0</ele>
        <time>2014-06-30T14:13:29Z</time>
      </trkpt>
      <trkpt lat="40.614700" lon="-4.844667">
        <ele>2205.0</ele>
        <time>2014-06-30T14:13:30Z</time>
      </trkpt>
      <trkpt lat="40.614767" lon="-4.844650">
        <ele>2205.0</ele>
        <time>2014-06-30T14:13:31Z</time>
      </trkpt>
      <trkpt lat="40.614817" lon="-4.844617">
        <ele>2204.0</ele>
        <time>2014-06-30T14:13:32Z</time>
      </trkpt>
      <trkpt lat="40.614867" lon="-4.844583">
        <ele>2202.0</ele>
        <time>2014-06-30T14:13:33Z</time>
      </trkpt>
      <trkpt lat="40.614933" lon="-4.844550">
        <ele>2200.0</ele>
        <time>2014-06-30T14:13:34Z</time>
      </trkpt>
      <trkpt lat="40.615000" lon="-4.844517">
        <ele>2197.0</ele>
        <time>2014-06-30T14:13:35Z</time>
      </trkpt>
      <trkpt lat="40.615083" lon="-4.844517">
        <ele>2194.0</ele>
        <time>2014-06-30T14:13:36Z</time>
      </trkpt>
      <trkpt lat="40.615183" lon="-4.844517">
        <ele>2192.0</ele>
        <time>2014-06-30T14:13:37Z</time>
      </trkpt>
      <trkpt lat="40.615267" lon="-4.844533">
        <ele>2194.0</ele>
        <time>2014-06-30T14:13:38Z</time>
      </trkpt>
      <trkpt lat="40.615333" lon="-4.844533">
        <ele>2195.0</ele>
        <time>2014-06-30T14:13:39Z</time>
      </trkpt>
      <trkpt lat="40.615400" lon="-4.844517">
        <ele>2197.0</ele>
        <time>2014-06-30T14:13:40Z</time>
      </trkpt>
      <trkpt lat="40.615450" lon="-4.844500">
        <ele>2197.0</ele>
        <time>2014-06-30T14:13:41Z</time>
      </trkpt>
      <trkpt lat="40.615517" lon="-4.844500">
        <ele>2197.0</ele>
        <time>2014-06-30T14:13:42Z</time>
      </trkpt>
      <trkpt lat="40.615600" lon="-4.844467">
        <ele>2194.0</ele>
        <time>2014-06-30T14:13:43Z</time>
      </trkpt>
      <trkpt lat="40.615667" lon="-4.844450">
        <ele>2193.0</ele>
        <time>2014-06-30T14:13:44Z</time>
      </trkpt>
      <trkpt lat="40.615750" lon="-4.844417">
        <ele>2191.0</ele>
        <time>2014-06-30T14:13:45Z</time>
      </trkpt>
      <trkpt lat="40.615833" lon="-4.844383">
        <ele>2191.0</ele>
        <time>2014-06-30T14:13:46Z</time>
      </trkpt>
      <trkpt lat="40.615917" lon="-4.844367">
        <ele>2190.0</ele>
        <time>2014-06-30T14:13:47Z</time>
      </trkpt>
      <trkpt lat="40.615983" lon="-4.844333">
        <ele>2190.0</ele>
        <time>2014-06-30T14:13:48Z</time>
      </trkpt>
      <trkpt lat="40.616050" lon="-4.844283">
        <ele>2189.0</ele>
        <time>2014-06-30T14:13:49Z</time>
      </trkpt>
      <trkpt lat="40.616117" lon="-4.844250">
        <ele>2188.0</ele>
        <time>2014-06-30T14:13:50Z</time>
      </trkpt>
      <trkpt lat="40.616200" lon="-4.844200">
        <ele>2185.0</ele>
        <time>2014-06-30T14:13:51Z</time>
      </trkpt>
      <trkpt lat="40.616267" lon="-4.844150">
        <ele>2183.0</ele>
        <time>2014-06-30T14:13:52Z</time>
      </trkpt>
      <trkpt lat="40.616350" lon="-4.844100">
        <ele>2180.0</ele>
        <time>2014-06-30T14:13:53Z</time>
      </trkpt>
      <trkpt lat="40.616433" lon="-4.844050">
        <ele>2177.0</ele>
        <time>2014-06-30T14:13:54Z</time>
      </trkpt>
      <trkpt lat="40.616500" lon="-4.844000">
        <ele>2173.0</ele>
        <time>2014-06-30T14:13:55Z</time>
      </trkpt>
      <trkpt lat="40.616550" lon="-4.843933">
        <ele>2169.0</ele>
        <time>2014-06-30T14:13:56Z</time>
      </trkpt>
      <trkpt lat="40.616617" lon="-4.843850">
        <ele>2165.0</ele>
        <time>2014-06-30T14:13:57Z</time>
      </trkpt>
      <trkpt lat="40.616667" lon="-4.843767">
        <ele>2160.0</ele>
        <time>2014-06-30T14:13:58Z</time>
      </trkpt>
      <trkpt lat="40.616733" lon="-4.843667">
        <ele>2156.0</ele>
        <time>2014-06-30T14:13:59Z</time>
      </trkpt>
      <trkpt lat="40.616783" lon="-4.843583">
        <ele>2152.0</ele>
        <time>2014-06-30T14:14:00Z</time>
      </trkpt>
      <trkpt lat="40.616850" lon="-4.843500">
        <ele>2148.0</ele>
        <time>2014-06-30T14:14:01Z</time>
      </trkpt>
      <trkpt lat="40.616900" lon="-4.843417">
        <ele>2144.0</ele>
        <time>2014-06-30T14:14:02Z</time>
      </trkpt>
      <trkpt lat="40.616933" lon="-4.843317">
        <ele>2141.0</ele>
        <time>2014-06-30T14:14:03Z</time>
      </trkpt>
      <trkpt lat="40.616983" lon="-4.843217">
        <ele>2137.0</ele>
        <time>2014-06-30T14:14:04Z</time>
      </trkpt>
      <trkpt lat="40.617017" lon="-4.843117">
        <ele>2133.0</ele>
        <time>2014-06-30T14:14:05Z</time>
      </trkpt>
      <trkpt lat="40.617050" lon="-4.843000">
        <ele>2129.0</ele>
        <time>2014-06-30T14:14:06Z</time>
      </trkpt>
      <trkpt lat="40.617083" lon="-4.842883">
        <ele>2126.0</ele>
        <time>2014-06-30T14:14:07Z</time>
      </trkpt>
      <trkpt lat="40.617117" lon="-4.842783">
        <ele>2122.0</ele>
        <time>2014-06-30T14:14:08Z</time>
      </trkpt>
      <trkpt lat="40.617167" lon="-4.842667">
        <ele>2119.0</ele>
        <time>2014-06-30T14:14:09Z</time>
      </trkpt>
      <trkpt lat="40.617200" lon="-4.842550">
        <ele>2116.0</ele>
        <time>2014-06-30T14:14:10Z</time>
      </trkpt>
      <trkpt lat="40.617233" lon="-4.842433">
        <ele>2112.0</ele>
        <time>2014-06-30T14:14:11Z</time>
      </trkpt>
      <trkpt lat="40.617267" lon="-4.842317">
        <ele>2110.0</ele>
        <time>2014-06-30T14:14:12Z</time>
      </trkpt>
      <trkpt lat="40.617317" lon="-4.842200">
        <ele>2107.0</ele>
        <time>2014-06-30T14:14:13Z</time>
      </trkpt>
      <trkpt lat="40.617350" lon="-4.842083">
        <ele>2105.0</ele>
        <time>2014-06-30T14:14:14Z</time>
      </trkpt>
      <trkpt lat="40.617400" lon="-4.841967">
        <ele>2102.0</ele>
        <time>2014-06-30T14:14:15Z</time>
      </trkpt>
      <trkpt lat="40.617450" lon="-4.841850">
        <ele>2100.0</ele>
        <time>2014-06-30T14:14:16Z</time>
      </trkpt>
      <trkpt lat="40.617500" lon="-4.841717">
        <ele>2097.0</ele>
        <time>2014-06-30T14:14:17Z</time>
      </trkpt>
      <trkpt lat="40.617550" lon="-4.841617">
        <ele>2095.0</ele>
        <time>2014-06-30T14:14:18Z</time>
      </trkpt>
      <trkpt lat="40.617617" lon="-4.841500">
        <ele>2092.0</ele>
        <time>2014-06-30T14:14:19Z</time>
      </trkpt>
      <trkpt lat="40.617667" lon="-4.841400">
        <ele>2091.0</ele>
        <time>2014-06-30T14:14:20Z</time>
      </trkpt>
      <trkpt lat="40.617700" lon="-4.841300">
        <ele>2089.0</ele>
        <time>2014-06-30T14:14:21Z</time>
      </trkpt>
      <trkpt lat="40.617750" lon="-4.841200">
        <ele>2087.0</ele>
        <time>2014-06-30T14:14:22Z</time>
      </trkpt>
      <trkpt lat="40.617817" lon="-4.841083">
        <ele>2085.0</ele>
        <time>2014-06-30T14:14:23Z</time>
      </trkpt>
      <trkpt lat="40.617867" lon="-4.840950">
        <ele>2083.0</ele>
        <time>2014-06-30T14:14:24Z</time>
      </trkpt>
      <trkpt lat="40.617933" lon="-4.840833">
        <ele>2083.0</ele>
        <time>2014-06-30T14:14:25Z</time>
      </trkpt>
      <trkpt lat="40.617983" lon="-4.840717">
        <ele>2083.0</ele>
        <time>2014-06-30T14:14:26Z</time>
      </trkpt>
      <trkpt lat="40.618033" lon="-4.840617">
        <ele>2082.0</ele>
        <time>2014-06-30T14:14:27Z</time>
      </trkpt>
      <trkpt lat="40.618100" lon="-4.840500">
        <ele>2081.0</ele>
        <time>2014-06-30T14:14:28Z</time>
      </trkpt>
      <trkpt lat="40.618167" lon="-4.840417">
        <ele>2079.0</ele>
        <time>2014-06-30T14:14:29Z</time>
      </trkpt>
      <trkpt lat="40.618250" lon="-4.840317">
        <ele>2077.0</ele>
        <time>2014-06-30T14:14:30Z</time>
      </trkpt>
      <trkpt lat="40.618317" lon="-4.840200">
        <ele>2073.0</ele>
        <time>2014-06-30T14:14:31Z</time>
      </trkpt>
      <trkpt lat="40.618400" lon="-4.840100">
        <ele>2070.0</ele>
        <time>2014-06-30T14:14:32Z</time>
      </trkpt>
      <trkpt lat="40.618500" lon="-4.839983">
        <ele>2067.0</ele>
        <time>2014-06-30T14:14:33Z</time>
      </trkpt>
      <trkpt lat="40.618567" lon="-4.839883">
        <ele>2064.0</ele>
        <time>2014-06-30T14:14:34Z</time>
      </trkpt>
      <trkpt lat="40.618650" lon="-4.839783">
        <ele>2062.0</ele>
        <time>2014-06-30T14:14:35Z</time>
      </trkpt>
      <trkpt lat="40.618717" lon="-4.839683">
        <ele>2059.0</ele>
        <time>2014-06-30T14:14:36Z</time>
      </trkpt>
      <trkpt lat="40.618783" lon="-4.839567">
        <ele>2057.0</ele>
        <time>2014-06-30T14:14:37Z</time>
      </trkpt>
      <trkpt lat="40.618850" lon="-4.839450">
        <ele>2054.0</ele>
        <time>2014-06-30T14:14:38Z</time>
      </trkpt>
      <trkpt lat="40.618917" lon="-4.839333">
        <ele>2052.0</ele>
        <time>2014-06-30T14:14:39Z</time>
      </trkpt>
      <trkpt lat="40.618983" lon="-4.839217">
        <ele>2049.0</ele>
        <time>2014-06-30T14:14:40Z</time>
      </trkpt>
      <trkpt lat="40.619050" lon="-4.839117">
        <ele>2048.0</ele>
        <time>2014-06-30T14:14:41Z</time>
      </trkpt>
      <trkpt lat="40.619117" lon="-4.839033">
        <ele>2048.0</ele>
        <time>2014-06-30T14:14:42Z</time>
      </trkpt>
      <trkpt lat="40.619183" lon="-4.838950">
        <ele>2047.0</ele>
        <time>2014-06-30T14:14:43Z</time>
      </trkpt>
      <trkpt lat="40.619250" lon="-4.838867">
        <ele>2046.0</ele>
        <time>2014-06-30T14:14:44Z</time>
      </trkpt>
      <trkpt lat="40.619317" lon="-4.838783">
        <ele>2045.0</ele>
        <time>2014-06-30T14:14:45Z</time>
      </trkpt>
      <trkpt lat="40.619400" lon="-4.838700">
        <ele>2045.0</ele>
        <time>2014-06-30T14:14:46Z</time>
      </trkpt>
      <trkpt lat="40.619483" lon="-4.838617">
        <ele>2044.0</ele>
        <time>2014-06-30T14:14:47Z</time>
      </trkpt>
      <trkpt lat="40.619550" lon="-4.838533">
        <ele>2043.0</ele>
        <time>2014-06-30T14:14:48Z</time>
      </trkpt>
      <trkpt lat="40.619633" lon="-4.838467">
        <ele>2042.0</ele>
        <time>2014-06-30T14:14:49Z</time>
      </trkpt>
      <trkpt lat="40.619717" lon="-4.838383">
        <ele>2042.0</ele>
        <time>2014-06-30T14:14:50Z</time>
      </trkpt>
      <trkpt lat="40.619783" lon="-4.838317">
        <ele>2041.0</ele>
        <time>2014-06-30T14:14:51Z</time>
      </trkpt>
      <trkpt lat="40.619850" lon="-4.838233">
        <ele>2039.0</ele>
        <time>2014-06-30T14:14:52Z</time>
      </trkpt>
      <trkpt lat="40.619917" lon="-4.838150">
        <ele>2037.0</ele>
        <time>2014-06-30T14:14:53Z</time>
      </trkpt>
      <trkpt lat="40.619983" lon="-4.838050">
        <ele>2035.0</ele>
        <time>2014-06-30T14:14:54Z</time>
      </trkpt>
      <trkpt lat="40.620067" lon="-4.837950">
        <ele>2033.0</ele>
        <time>2014-06-30T14:14:55Z</time>
      </trkpt>
      <trkpt lat="40.620150" lon="-4.837867">
        <ele>2030.0</ele>
        <time>2014-06-30T14:14:56Z</time>
      </trkpt>
      <trkpt lat="40.620233" lon="-4.837800">
        <ele>2029.0</ele>
        <time>2014-06-30T14:14:57Z</time>
      </trkpt>
      <trkpt lat="40.620317" lon="-4.837750">
        <ele>2028.0</ele>
        <time>2014-06-30T14:14:58Z</time>
      </trkpt>
      <trkpt lat="40.620400" lon="-4.837683">
        <ele>2027.0</ele>
        <time>2014-06-30T14:14:59Z</time>
      </trkpt>
      <trkpt lat="40.620483" lon="-4.837617">
        <ele>2026.0</ele>
        <time>2014-06-30T14:15:00Z</time>
      </trkpt>
      <trkpt lat="40.620567" lon="-4.837533">
        <ele>2025.0</ele>
        <time>2014-06-30T14:15:01Z</time>
      </trkpt>
      <trkpt lat="40.620650" lon="-4.837450">
        <ele>2024.0</ele>
        <time>2014-06-30T14:15:02Z</time>
      </trkpt>
      <trkpt lat="40.620733" lon="-4.837383">
        <ele>2023.0</ele>
        <time>2014-06-30T14:15:03Z</time>
      </trkpt>
      <trkpt lat="40.620800" lon="-4.837317">
        <ele>2022.0</ele>
        <time>2014-06-30T14:15:04Z</time>
      </trkpt>
      <trkpt lat="40.620883" lon="-4.837233">
        <ele>2020.0</ele>
        <time>2014-06-30T14:15:05Z</time>
      </trkpt>
      <trkpt lat="40.620967" lon="-4.837183">
        <ele>2019.0</ele>
        <time>2014-06-30T14:15:06Z</time>
      </trkpt>
      <trkpt lat="40.621033" lon="-4.837117">
        <ele>2017.0</ele>
        <time>2014-06-30T14:15:07Z</time>
      </trkpt>
      <trkpt lat="40.621117" lon="-4.837033">
        <ele>2015.0</ele>
        <time>2014-06-30T14:15:08Z</time>
      </trkpt>
      <trkpt lat="40.621217" lon="-4.836967">
        <ele>2012.0</ele>
        <time>2014-06-30T14:15:09Z</time>
      </trkpt>
      <trkpt lat="40.621300" lon="-4.836900">
        <ele>2010.0</ele>
        <time>2014-06-30T14:15:10Z</time>
      </trkpt>
      <trkpt lat="40.621400" lon="-4.836850">
        <ele>2009.0</ele>
        <time>2014-06-30T14:15:11Z</time>
      </trkpt>
      <trkpt lat="40.621483" lon="-4.836783">
        <ele>2010.0</ele>
        <time>2014-06-30T14:15:12Z</time>
      </trkpt>
      <trkpt lat="40.621567" lon="-4.836733">
        <ele>2010.0</ele>
        <time>2014-06-30T14:15:13Z</time>
      </trkpt>
      <trkpt lat="40.621650" lon="-4.836667">
        <ele>2009.0</ele>
        <time>2014-06-30T14:15:14Z</time>
      </trkpt>
      <trkpt lat="40.621750" lon="-4.836600">
        <ele>2007.0</ele>
        <time>2014-06-30T14:15:15Z</time>
      </trkpt>
      <trkpt lat="40.621850" lon="-4.836517">
        <ele>2005.0</ele>
        <time>2014-06-30T14:15:16Z</time>
      </trkpt>
      <trkpt lat="40.621950" lon="-4.836433">
        <ele>2003.0</ele>
        <time>2014-06-30T14:15:17Z</time>
      </trkpt>
      <trkpt lat="40.622050" lon="-4.836367">
        <ele>2001.0</ele>
        <time>2014-06-30T14:15:18Z</time>
      </trkpt>
      <trkpt lat="40.622150" lon="-4.836300">
        <ele>2001.0</ele>
        <time>2014-06-30T14:15:19Z</time>
      </trkpt>
      <trkpt lat="40.622217" lon="-4.836267">
        <ele>2001.0</ele>
        <time>2014-06-30T14:15:20Z</time>
      </trkpt>
      <trkpt lat="40.622300" lon="-4.836217">
        <ele>2000.0</ele>
        <time>2014-06-30T14:15:21Z</time>
      </trkpt>
      <trkpt lat="40.622383" lon="-4.836150">
        <ele>1999.0</ele>
        <time>2014-06-30T14:15:22Z</time>
      </trkpt>
      <trkpt lat="40.622450" lon="-4.836083">
        <ele>1997.0</ele>
        <time>2014-06-30T14:15:23Z</time>
      </trkpt>
      <trkpt lat="40.622533" lon="-4.836000">
        <ele>1996.0</ele>
        <time>2014-06-30T14:15:24Z</time>
      </trkpt>
      <trkpt lat="40.622617" lon="-4.835917">
        <ele>1994.0</ele>
        <time>2014-06-30T14:15:25Z</time>
      </trkpt>
      <trkpt lat="40.622700" lon="-4.835833">
        <ele>1992.0</ele>
        <time>2014-06-30T14:15:26Z</time>
      </trkpt>
      <trkpt lat="40.622800" lon="-4.835750">
        <ele>1991.0</ele>
        <time>2014-06-30T14:15:27Z</time>
      </trkpt>
      <trkpt lat="40.622883" lon="-4.835650">
        <ele>1989.0</ele>
        <time>2014-06-30T14:15:28Z</time>
      </trkpt>
      <trkpt lat="40.622950" lon="-4.835550">
        <ele>1987.0</ele>
        <time>2014-06-30T14:15:29Z</time>
      </trkpt>
      <trkpt lat="40.623033" lon="-4.835450">
        <ele>1985.0</ele>
        <time>2014-06-30T14:15:30Z</time>
      </trkpt>
      <trkpt lat="40.623117" lon="-4.835350">
        <ele>1983.0</ele>
        <time>2014-06-30T14:15:31Z</time>
      </trkpt>
      <trkpt lat="40.623217" lon="-4.835250">
        <ele>1980.0</ele>
        <time>2014-06-30T14:15:32Z</time>
      </trkpt>
      <trkpt lat="40.623300" lon="-4.835150">
        <ele>1978.0</ele>
        <time>2014-06-30T14:15:33Z</time>
      </trkpt>
      <trkpt lat="40.623383" lon="-4.835050">
        <ele>1977.0</ele>
        <time>2014-06-30T14:15:34Z</time>
      </trkpt>
      <trkpt lat="40.623450" lon="-4.834950">
        <ele>1977.0</ele>
        <time>2014-06-30T14:15:35Z</time>
      </trkpt>
      <trkpt lat="40.623517" lon="-4.834867">
        <ele>1977.0</ele>
        <time>2014-06-30T14:15:36Z</time>
      </trkpt>
      <trkpt lat="40.623600" lon="-4.834783">
        <ele>1976.0</ele>
        <time>2014-06-30T14:15:37Z</time>
      </trkpt>
      <trkpt lat="40.623683" lon="-4.834700">
        <ele>1973.0</ele>
        <time>2014-06-30T14:15:38Z</time>
      </trkpt>
      <trkpt lat="40.623767" lon="-4.834600">
        <ele>1971.0</ele>
        <time>2014-06-30T14:15:39Z</time>
      </trkpt>
      <trkpt lat="40.623867" lon="-4.834483">
        <ele>1968.0</ele>
        <time>2014-06-30T14:15:40Z</time>
      </trkpt>
      <trkpt lat="40.623950" lon="-4.834383">
        <ele>1967.0</ele>
        <time>2014-06-30T14:15:41Z</time>
      </trkpt>
      <trkpt lat="40.624050" lon="-4.834300">
        <ele>1967.0</ele>
        <time>2014-06-30T14:15:42Z</time>
      </trkpt>
      <trkpt lat="40.624133" lon="-4.834233">
        <ele>1968.0</ele>
        <time>2014-06-30T14:15:43Z</time>
      </trkpt>
      <trkpt lat="40.624200" lon="-4.834167">
        <ele>1968.0</ele>
        <time>2014-06-30T14:15:44Z</time>
      </trkpt>
      <trkpt lat="40.624267" lon="-4.834100">
        <ele>1967.0</ele>
        <time>2014-06-30T14:15:45Z</time>
      </trkpt>
      <trkpt lat="40.624333" lon="-4.834033">
        <ele>1965.0</ele>
        <time>2014-06-30T14:15:46Z</time>
      </trkpt>
      <trkpt lat="40.624417" lon="-4.833950">
        <ele>1963.0</ele>
        <time>2014-06-30T14:15:47Z</time>
      </trkpt>
      <trkpt lat="40.624500" lon="-4.833883">
        <ele>1960.0</ele>
        <time>2014-06-30T14:15:48Z</time>
      </trkpt>
      <trkpt lat="40.624583" lon="-4.833800">
        <ele>1959.0</ele>
        <time>2014-06-30T14:15:49Z</time>
      </trkpt>
      <trkpt lat="40.624667" lon="-4.833733">
        <ele>1958.0</ele>
        <time>2014-06-30T14:15:50Z</time>
      </trkpt>
      <trkpt lat="40.624750" lon="-4.833683">
        <ele>1957.0</ele>
        <time>2014-06-30T14:15:51Z</time>
      </trkpt>
      <trkpt lat="40.624833" lon="-4.833633">
        <ele>1956.0</ele>
        <time>2014-06-30T14:15:52Z</time>
      </trkpt>
      <trkpt lat="40.624917" lon="-4.833567">
        <ele>1954.0</ele>
        <time>2014-06-30T14:15:53Z</time>
      </trkpt>
      <trkpt lat="40.625017" lon="-4.833500">
        <ele>1951.0</ele>
        <time>2014-06-30T14:15:54Z</time>
      </trkpt>
      <trkpt lat="40.625100" lon="-4.833417">
        <ele>1949.0</ele>
        <time>2014-06-30T14:15:55Z</time>
      </trkpt>
      <trkpt lat="40.625200" lon="-4.833350">
        <ele>1946.0</ele>
        <time>2014-06-30T14:15:56Z</time>
      </trkpt>
      <trkpt lat="40.625300" lon="-4.833283">
        <ele>1943.0</ele>
        <time>2014-06-30T14:15:57Z</time>
      </trkpt>
      <trkpt lat="40.625383" lon="-4.833233">
        <ele>1941.0</ele>
        <time>2014-06-30T14:15:58Z</time>
      </trkpt>
      <trkpt lat="40.625483" lon="-4.833167">
        <ele>1939.0</ele>
        <time>2014-06-30T14:15:59Z</time>
      </trkpt>
      <trkpt lat="40.625583" lon="-4.833100">
        <ele>1937.0</ele>
        <time>2014-06-30T14:16:00Z</time>
      </trkpt>
      <trkpt lat="40.625667" lon="-4.833017">
        <ele>1935.0</ele>
        <time>2014-06-30T14:16:01Z</time>
      </trkpt>
      <trkpt lat="40.625750" lon="-4.832917">
        <ele>1933.0</ele>
        <time>2014-06-30T14:16:02Z</time>
      </trkpt>
      <trkpt lat="40.625833" lon="-4.832833">
        <ele>1932.0</ele>
        <time>2014-06-30T14:16:03Z</time>
      </trkpt>
      <trkpt lat="40.625917" lon="-4.832733">
        <ele>1931.0</ele>
        <time>2014-06-30T14:16:04Z</time>
      </trkpt>
      <trkpt lat="40.625983" lon="-4.832650">
        <ele>1931.0</ele>
        <time>2014-06-30T14:16:05Z</time>
      </trkpt>
      <trkpt lat="40.626050" lon="-4.832533">
        <ele>1931.0</ele>
        <time>2014-06-30T14:16:06Z</time>
      </trkpt>
      <trkpt lat="40.626117" lon="-4.832433">
        <ele>1930.0</ele>
        <time>2014-06-30T14:16:07Z</time>
      </trkpt>
      <trkpt lat="40.626167" lon="-4.832333">
        <ele>1930.0</ele>
        <time>2014-06-30T14:16:08Z</time>
      </trkpt>
      <trkpt lat="40.626233" lon="-4.832233">
        <ele>1930.0</ele>
        <time>2014-06-30T14:16:09Z</time>
      </trkpt>
      <trkpt lat="40.626283" lon="-4.832150">
        <ele>1930.0</ele>
        <time>2014-06-30T14:16:10Z</time>
      </trkpt>
      <trkpt lat="40.626317" lon="-4.832067">
        <ele>1930.0</ele>
        <time>2014-06-30T14:16:11Z</time>
      </trkpt>
      <trkpt lat="40.626367" lon="-4.831967">
        <ele>1929.0</ele>
        <time>2014-06-30T14:16:12Z</time>
      </trkpt>
      <trkpt lat="40.626417" lon="-4.831883">
        <ele>1926.0</ele>
        <time>2014-06-30T14:16:13Z</time>
      </trkpt>
      <trkpt lat="40.626483" lon="-4.831783">
        <ele>1923.0</ele>
        <time>2014-06-30T14:16:14Z</time>
      </trkpt>
      <trkpt lat="40.626550" lon="-4.831683">
        <ele>1920.0</ele>
        <time>2014-06-30T14:16:15Z</time>
      </trkpt>
      <trkpt lat="40.626633" lon="-4.831583">
        <ele>1916.0</ele>
        <time>2014-06-30T14:16:16Z</time>
      </trkpt>
      <trkpt lat="40.626700" lon="-4.831450">
        <ele>1913.0</ele>
        <time>2014-06-30T14:16:17Z</time>
      </trkpt>
      <trkpt lat="40.626750" lon="-4.831333">
        <ele>1910.0</ele>
        <time>2014-06-30T14:16:18Z</time>
      </trkpt>
      <trkpt lat="40.626833" lon="-4.831217">
        <ele>1908.0</ele>
        <time>2014-06-30T14:16:19Z</time>
      </trkpt>
      <trkpt lat="40.626900" lon="-4.831083">
        <ele>1905.0</ele>
        <time>2014-06-30T14:16:20Z</time>
      </trkpt>
      <trkpt lat="40.626967" lon="-4.830950">
        <ele>1902.0</ele>
        <time>2014-06-30T14:16:21Z</time>
      </trkpt>
      <trkpt lat="40.627033" lon="-4.830800">
        <ele>1899.0</ele>
        <time>2014-06-30T14:16:22Z</time>
      </trkpt>
      <trkpt lat="40.627100" lon="-4.830667">
        <ele>1896.0</ele>
        <time>2014-06-30T14:16:23Z</time>
      </trkpt>
      <trkpt lat="40.627167" lon="-4.830517">
        <ele>1894.0</ele>
        <time>2014-06-30T14:16:24Z</time>
      </trkpt>
      <trkpt lat="40.627233" lon="-4.830383">
        <ele>1893.0</ele>
        <time>2014-06-30T14:16:25Z</time>
      </trkpt>
      <trkpt lat="40.627300" lon="-4.830267">
        <ele>1893.0</ele>
        <time>2014-06-30T14:16:26Z</time>
      </trkpt>
      <trkpt lat="40.627350" lon="-4.830150">
        <ele>1892.0</ele>
        <time>2014-06-30T14:16:27Z</time>
      </trkpt>
      <trkpt lat="40.627400" lon="-4.830033">
        <ele>1892.0</ele>
        <time>2014-06-30T14:16:28Z</time>
      </trkpt>
      <trkpt lat="40.627467" lon="-4.829883">
        <ele>1890.0</ele>
        <time>2014-06-30T14:16:29Z</time>
      </trkpt>
      <trkpt lat="40.627533" lon="-4.829750">
        <ele>1889.0</ele>
        <time>2014-06-30T14:16:30Z</time>
      </trkpt>
      <trkpt lat="40.627600" lon="-4.829600">
        <ele>1887.0</ele>
        <time>2014-06-30T14:16:31Z</time>
      </trkpt>
      <trkpt lat="40.627683" lon="-4.829450">
        <ele>1885.0</ele>
        <time>2014-06-30T14:16:32Z</time>
      </trkpt>
      <trkpt lat="40.627733" lon="-4.829317">
        <ele>1885.0</ele>
        <time>2014-06-30T14:16:33Z</time>
      </trkpt>
      <trkpt lat="40.627767" lon="-4.829167">
        <ele>1886.0</ele>
        <time>2014-06-30T14:16:34Z</time>
      </trkpt>
      <trkpt lat="40.627800" lon="-4.829050">
        <ele>1887.0</ele>
        <time>2014-06-30T14:16:35Z</time>
      </trkpt>
      <trkpt lat="40.627850" lon="-4.828933">
        <ele>1887.0</ele>
        <time>2014-06-30T14:16:36Z</time>
      </trkpt>
      <trkpt lat="40.627917" lon="-4.828817">
        <ele>1886.0</ele>
        <time>2014-06-30T14:16:37Z</time>
      </trkpt>
      <trkpt lat="40.627983" lon="-4.828683">
        <ele>1884.0</ele>
        <time>2014-06-30T14:16:38Z</time>
      </trkpt>
      <trkpt lat="40.628067" lon="-4.828583">
        <ele>1883.0</ele>
        <time>2014-06-30T14:16:39Z</time>
      </trkpt>
      <trkpt lat="40.628150" lon="-4.828467">
        <ele>1883.0</ele>
        <time>2014-06-30T14:16:40Z</time>
      </trkpt>
      <trkpt lat="40.628233" lon="-4.828367">
        <ele>1884.0</ele>
        <time>2014-06-30T14:16:41Z</time>
      </trkpt>
      <trkpt lat="40.628317" lon="-4.828267">
        <ele>1885.0</ele>
        <time>2014-06-30T14:16:42Z</time>
      </trkpt>
      <trkpt lat="40.628383" lon="-4.828167">
        <ele>1885.0</ele>
        <time>2014-06-30T14:16:43Z</time>
      </trkpt>
      <trkpt lat="40.628467" lon="-4.828067">
        <ele>1886.0</ele>
        <time>2014-06-30T14:16:44Z</time>
      </trkpt>
      <trkpt lat="40.628550" lon="-4.827967">
        <ele>1886.0</ele>
        <time>2014-06-30T14:16:45Z</time>
      </trkpt>
      <trkpt lat="40.628633" lon="-4.827867">
        <ele>1886.0</ele>
        <time>2014-06-30T14:16:46Z</time>
      </trkpt>
      <trkpt lat="40.628717" lon="-4.827750">
        <ele>1887.0</ele>
        <time>2014-06-30T14:16:47Z</time>
      </trkpt>
      <trkpt lat="40.628783" lon="-4.827650">
        <ele>1887.0</ele>
        <time>2014-06-30T14:16:48Z</time>
      </trkpt>
      <trkpt lat="40.628867" lon="-4.827550">
        <ele>1888.0</ele>
        <time>2014-06-30T14:16:49Z</time>
      </trkpt>
      <trkpt lat="40.628933" lon="-4.827467">
        <ele>1890.0</ele>
        <time>2014-06-30T14:16:50Z</time>
      </trkpt>
      <trkpt lat="40.629017" lon="-4.827383">
        <ele>1891.0</ele>
        <time>2014-06-30T14:16:51Z</time>
      </trkpt>
      <trkpt lat="40.629083" lon="-4.827300">
        <ele>1891.0</ele>
        <time>2014-06-30T14:16:52Z</time>
      </trkpt>
      <trkpt lat="40.629167" lon="-4.827250">
        <ele>1891.0</ele>
        <time>2014-06-30T14:16:53Z</time>
      </trkpt>
      <trkpt lat="40.629250" lon="-4.827183">
        <ele>1891.0</ele>
        <time>2014-06-30T14:16:54Z</time>
      </trkpt>
      <trkpt lat="40.629333" lon="-4.827133">
        <ele>1891.0</ele>
        <time>2014-06-30T14:16:55Z</time>
      </trkpt>
      <trkpt lat="40.629417" lon="-4.827067">
        <ele>1890.0</ele>
        <time>2014-06-30T14:16:56Z</time>
      </trkpt>
      <trkpt lat="40.629500" lon="-4.826983">
        <ele>1890.0</ele>
        <time>2014-06-30T14:16:57Z</time>
      </trkpt>
      <trkpt lat="40.629583" lon="-4.826917">
        <ele>1891.0</ele>
        <time>2014-06-30T14:16:58Z</time>
      </trkpt>
      <trkpt lat="40.629667" lon="-4.826833">
        <ele>1893.0</ele>
        <time>2014-06-30T14:16:59Z</time>
      </trkpt>
      <trkpt lat="40.629750" lon="-4.826750">
        <ele>1894.0</ele>
        <time>2014-06-30T14:17:00Z</time>
      </trkpt>
      <trkpt lat="40.629833" lon="-4.826650">
        <ele>1897.0</ele>
        <time>2014-06-30T14:17:01Z</time>
      </trkpt>
      <trkpt lat="40.629900" lon="-4.826550">
        <ele>1899.0</ele>
        <time>2014-06-30T14:17:02Z</time>
      </trkpt>
      <trkpt lat="40.629983" lon="-4.826467">
        <ele>1901.0</ele>
        <time>2014-06-30T14:17:03Z</time>
      </trkpt>
      <trkpt lat="40.630050" lon="-4.826367">
        <ele>1905.0</ele>
        <time>2014-06-30T14:17:04Z</time>
      </trkpt>
      <trkpt lat="40.630117" lon="-4.826317">
        <ele>1911.0</ele>
        <time>2014-06-30T14:17:05Z</time>
      </trkpt>
      <trkpt lat="40.630183" lon="-4.826300">
        <ele>1916.0</ele>
        <time>2014-06-30T14:17:06Z</time>
      </trkpt>
      <trkpt lat="40.630250" lon="-4.826283">
        <ele>1921.0</ele>
        <time>2014-06-30T14:17:07Z</time>
      </trkpt>
      <trkpt lat="40.630317" lon="-4.826233">
        <ele>1925.0</ele>
        <time>2014-06-30T14:17:08Z</time>
      </trkpt>
      <trkpt lat="40.630383" lon="-4.826150">
        <ele>1929.0</ele>
        <time>2014-06-30T14:17:09Z</time>
      </trkpt>
      <trkpt lat="40.630450" lon="-4.826083">
        <ele>1932.0</ele>
        <time>2014-06-30T14:17:10Z</time>
      </trkpt>
      <trkpt lat="40.630517" lon="-4.826017">
        <ele>1935.0</ele>
        <time>2014-06-30T14:17:11Z</time>
      </trkpt>
      <trkpt lat="40.630583" lon="-4.825950">
        <ele>1939.0</ele>
        <time>2014-06-30T14:17:12Z</time>
      </trkpt>
      <trkpt lat="40.630633" lon="-4.825900">
        <ele>1943.0</ele>
        <time>2014-06-30T14:17:13Z</time>
      </trkpt>
      <trkpt lat="40.630683" lon="-4.825850">
        <ele>1947.0</ele>
        <time>2014-06-30T14:17:14Z</time>
      </trkpt>
      <trkpt lat="40.630733" lon="-4.825800">
        <ele>1950.0</ele>
        <time>2014-06-30T14:17:15Z</time>
      </trkpt>
      <trkpt lat="40.630783" lon="-4.825767">
        <ele>1953.0</ele>
        <time>2014-06-30T14:17:16Z</time>
      </trkpt>
      <trkpt lat="40.630833" lon="-4.825717">
        <ele>1955.0</ele>
        <time>2014-06-30T14:17:17Z</time>
      </trkpt>
      <trkpt lat="40.630900" lon="-4.825667">
        <ele>1957.0</ele>
        <time>2014-06-30T14:17:18Z</time>
      </trkpt>
      <trkpt lat="40.630933" lon="-4.825600">
        <ele>1959.0</ele>
        <time>2014-06-30T14:17:19Z</time>
      </trkpt>
      <trkpt lat="40.630933" lon="-4.825500">
        <ele>1961.0</ele>
        <time>2014-06-30T14:17:20Z</time>
      </trkpt>
      <trkpt lat="40.630917" lon="-4.825400">
        <ele>1961.0</ele>
        <time>2014-06-30T14:17:21Z</time>
      </trkpt>
      <trkpt lat="40.630867" lon="-4.825317">
        <ele>1962.0</ele>
        <time>2014-06-30T14:17:22Z</time>
      </trkpt>
      <trkpt lat="40.630800" lon="-4.825267">
        <ele>1963.0</ele>
        <time>2014-06-30T14:17:23Z</time>
      </trkpt>
      <trkpt lat="40.630717" lon="-4.825233">
        <ele>1965.0</ele>
        <time>2014-06-30T14:17:24Z</time>
      </trkpt>
      <trkpt lat="40.630617" lon="-4.825250">
        <ele>1966.0</ele>
        <time>2014-06-30T14:17:25Z</time>
      </trkpt>
      <trkpt lat="40.630533" lon="-4.825283">
        <ele>1968.0</ele>
        <time>2014-06-30T14:17:26Z</time>
      </trkpt>
      <trkpt lat="40.630450" lon="-4.825350">
        <ele>1970.0</ele>
        <time>2014-06-30T14:17:27Z</time>
      </trkpt>
      <trkpt lat="40.630367" lon="-4.825417">
        <ele>1972.0</ele>
        <time>2014-06-30T14:17:28Z</time>
      </trkpt>
      <trkpt lat="40.630300" lon="-4.825517">
        <ele>1974.0</ele>
        <time>2014-06-30T14:17:29Z</time>
      </trkpt>
      <trkpt lat="40.630250" lon="-4.825617">
        <ele>1976.0</ele>
        <time>2014-06-30T14:17:30Z</time>
      </trkpt>
      <trkpt lat="40.630217" lon="-4.825750">
        <ele>1978.0</ele>
        <time>2014-06-30T14:17:31Z</time>
      </trkpt>
      <trkpt lat="40.630200" lon="-4.825883">
        <ele>1980.0</ele>
        <time>2014-06-30T14:17:32Z</time>
      </trkpt>
      <trkpt lat="40.630183" lon="-4.826017">
        <ele>1982.0</ele>
        <time>2014-06-30T14:17:33Z</time>
      </trkpt>
      <trkpt lat="40.630183" lon="-4.826150">
        <ele>1985.0</ele>
        <time>2014-06-30T14:17:34Z</time>
      </trkpt>
      <trkpt lat="40.630200" lon="-4.826267">
        <ele>1989.0</ele>
        <time>2014-06-30T14:17:35Z</time>
      </trkpt>
      <trkpt lat="40.630233" lon="-4.826350">
        <ele>1993.0</ele>
        <time>2014-06-30T14:17:36Z</time>
      </trkpt>
      <trkpt lat="40.630283" lon="-4.826433">
        <ele>1996.0</ele>
        <time>2014-06-30T14:17:37Z</time>
      </trkpt>
      <trkpt lat="40.630333" lon="-4.826500">
        <ele>1999.0</ele>
        <time>2014-06-30T14:17:38Z</time>
      </trkpt>
      <trkpt lat="40.630400" lon="-4.826567">
        <ele>2002.0</ele>
        <time>2014-06-30T14:17:39Z</time>
      </trkpt>
      <trkpt lat="40.630467" lon="-4.826633">
        <ele>2004.0</ele>
        <time>2014-06-30T14:17:40Z</time>
      </trkpt>
      <trkpt lat="40.630533" lon="-4.826683">
        <ele>2006.0</ele>
        <time>2014-06-30T14:17:41Z</time>
      </trkpt>
      <trkpt lat="40.630600" lon="-4.826700">
        <ele>2008.0</ele>
        <time>2014-06-30T14:17:42Z</time>
      </trkpt>
      <trkpt lat="40.630683" lon="-4.826717">
        <ele>2011.0</ele>
        <time>2014-06-30T14:17:43Z</time>
      </trkpt>
      <trkpt lat="40.630750" lon="-4.826700">
        <ele>2013.0</ele>
        <time>2014-06-30T14:17:44Z</time>
      </trkpt>
      <trkpt lat="40.630833" lon="-4.826667">
        <ele>2015.0</ele>
        <time>2014-06-30T14:17:45Z</time>
      </trkpt>
      <trkpt lat="40.630900" lon="-4.826633">
        <ele>2017.0</ele>
        <time>2014-06-30T14:17:46Z</time>
      </trkpt>
      <trkpt lat="40.630967" lon="-4.826583">
        <ele>2019.0</ele>
        <time>2014-06-30T14:17:47Z</time>
      </trkpt>
      <trkpt lat="40.631033" lon="-4.826517">
        <ele>2021.0</ele>
        <time>2014-06-30T14:17:48Z</time>
      </trkpt>
      <trkpt lat="40.631083" lon="-4.826450">
        <ele>2021.0</ele>
        <time>2014-06-30T14:17:49Z</time>
      </trkpt>
      <trkpt lat="40.631133" lon="-4.826383">
        <ele>2022.0</ele>
        <time>2014-06-30T14:17:50Z</time>
      </trkpt>
      <trkpt lat="40.631183" lon="-4.826317">
        <ele>2023.0</ele>
        <time>2014-06-30T14:17:51Z</time>
      </trkpt>
      <trkpt lat="40.631233" lon="-4.826250">
        <ele>2024.0</ele>
        <time>2014-06-30T14:17:52Z</time>
      </trkpt>
      <trkpt lat="40.631283" lon="-4.826183">
        <ele>2025.0</ele>
        <time>2014-06-30T14:17:53Z</time>
      </trkpt>
      <trkpt lat="40.631300" lon="-4.826100">
        <ele>2026.0</ele>
        <time>2014-06-30T14:17:54Z</time>
      </trkpt>
      <trkpt lat="40.631317" lon="-4.826000">
        <ele>2025.0</ele>
        <time>2014-06-30T14:17:55Z</time>
      </trkpt>
      <trkpt lat="40.631300" lon="-4.825867">
        <ele>2023.0</ele>
        <time>2014-06-30T14:17:56Z</time>
      </trkpt>
      <trkpt lat="40.631283" lon="-4.825717">
        <ele>2022.0</ele>
        <time>2014-06-30T14:17:57Z</time>
      </trkpt>
      <trkpt lat="40.631267" lon="-4.825567">
        <ele>2023.0</ele>
        <time>2014-06-30T14:17:58Z</time>
      </trkpt>
      <trkpt lat="40.631250" lon="-4.825450">
        <ele>2027.0</ele>
        <time>2014-06-30T14:17:59Z</time>
      </trkpt>
      <trkpt lat="40.631217" lon="-4.825367">
        <ele>2032.0</ele>
        <time>2014-06-30T14:18:00Z</time>
      </trkpt>
      <trkpt lat="40.631200" lon="-4.825283">
        <ele>2036.0</ele>
        <time>2014-06-30T14:18:01Z</time>
      </trkpt>
      <trkpt lat="40.631200" lon="-4.825200">
        <ele>2038.0</ele>
        <time>2014-06-30T14:18:02Z</time>
      </trkpt>
      <trkpt lat="40.631183" lon="-4.825100">
        <ele>2040.0</ele>
        <time>2014-06-30T14:18:03Z</time>
      </trkpt>
      <trkpt lat="40.631167" lon="-4.824983">
        <ele>2041.0</ele>
        <time>2014-06-30T14:18:04Z</time>
      </trkpt>
      <trkpt lat="40.631150" lon="-4.824883">
        <ele>2042.0</ele>
        <time>2014-06-30T14:18:05Z</time>
      </trkpt>
      <trkpt lat="40.631150" lon="-4.824767">
        <ele>2044.0</ele>
        <time>2014-06-30T14:18:06Z</time>
      </trkpt>
      <trkpt lat="40.631150" lon="-4.824633">
        <ele>2045.0</ele>
        <time>2014-06-30T14:18:07Z</time>
      </trkpt>
      <trkpt lat="40.631133" lon="-4.824533">
        <ele>2047.0</ele>
        <time>2014-06-30T14:18:08Z</time>
      </trkpt>
      <trkpt lat="40.631133" lon="-4.824417">
        <ele>2049.0</ele>
        <time>2014-06-30T14:18:09Z</time>
      </trkpt>
      <trkpt lat="40.631150" lon="-4.824300">
        <ele>2050.0</ele>
        <time>2014-06-30T14:18:10Z</time>
      </trkpt>
      <trkpt lat="40.631167" lon="-4.824183">
        <ele>2050.0</ele>
        <time>2014-06-30T14:18:11Z</time>
      </trkpt>
      <trkpt lat="40.631183" lon="-4.824067">
        <ele>2050.0</ele>
        <time>2014-06-30T14:18:12Z</time>
      </trkpt>
      <trkpt lat="40.631233" lon="-4.823983">
        <ele>2051.0</ele>
        <time>2014-06-30T14:18:13Z</time>
      </trkpt>
      <trkpt lat="40.631283" lon="-4.823917">
        <ele>2052.0</ele>
        <time>2014-06-30T14:18:14Z</time>
      </trkpt>
      <trkpt lat="40.631350" lon="-4.823900">
        <ele>2052.0</ele>
        <time>2014-06-30T14:18:15Z</time>
      </trkpt>
      <trkpt lat="40.631433" lon="-4.823917">
        <ele>2051.0</ele>
        <time>2014-06-30T14:18:16Z</time>
      </trkpt>
      <trkpt lat="40.631483" lon="-4.823983">
        <ele>2050.0</ele>
        <time>2014-06-30T14:18:17Z</time>
      </trkpt>
      <trkpt lat="40.631550" lon="-4.824033">
        <ele>2052.0</ele>
        <time>2014-06-30T14:18:18Z</time>
      </trkpt>
      <trkpt lat="40.631617" lon="-4.824083">
        <ele>2053.0</ele>
        <time>2014-06-30T14:18:19Z</time>
      </trkpt>
      <trkpt lat="40.631667" lon="-4.824133">
        <ele>2053.0</ele>
        <time>2014-06-30T14:18:20Z</time>
      </trkpt>
      <trkpt lat="40.631733" lon="-4.824217">
        <ele>2053.0</ele>
        <time>2014-06-30T14:18:21Z</time>
      </trkpt>
      <trkpt lat="40.631800" lon="-4.824300">
        <ele>2053.0</ele>
        <time>2014-06-30T14:18:22Z</time>
      </trkpt>
      <trkpt lat="40.631833" lon="-4.824367">
        <ele>2054.0</ele>
        <time>2014-06-30T14:18:23Z</time>
      </trkpt>
      <trkpt lat="40.631850" lon="-4.824417">
        <ele>2055.0</ele>
        <time>2014-06-30T14:18:24Z</time>
      </trkpt>
      <trkpt lat="40.631867" lon="-4.824450">
        <ele>2057.0</ele>
        <time>2014-06-30T14:18:25Z</time>
      </trkpt>
      <trkpt lat="40.631917" lon="-4.824483">
        <ele>2059.0</ele>
        <time>2014-06-30T14:18:26Z</time>
      </trkpt>
      <trkpt lat="40.631967" lon="-4.824517">
        <ele>2062.0</ele>
        <time>2014-06-30T14:18:27Z</time>
      </trkpt>
      <trkpt lat="40.632033" lon="-4.824533">
        <ele>2063.0</ele>
        <time>2014-06-30T14:18:28Z</time>
      </trkpt>
      <trkpt lat="40.632117" lon="-4.824550">
        <ele>2065.0</ele>
        <time>2014-06-30T14:18:29Z</time>
      </trkpt>
      <trkpt lat="40.632183" lon="-4.824550">
        <ele>2066.0</ele>
        <time>2014-06-30T14:18:30Z</time>
      </trkpt>
      <trkpt lat="40.632233" lon="-4.824533">
        <ele>2068.0</ele>
        <time>2014-06-30T14:18:31Z</time>
      </trkpt>
      <trkpt lat="40.632267" lon="-4.824483">
        <ele>2071.0</ele>
        <time>2014-06-30T14:18:32Z</time>
      </trkpt>
      <trkpt lat="40.632300" lon="-4.824417">
        <ele>2075.0</ele>
        <time>2014-06-30T14:18:33Z</time>
      </trkpt>
      <trkpt lat="40.632333" lon="-4.824317">
        <ele>2078.0</ele>
        <time>2014-06-30T14:18:34Z</time>
      </trkpt>
      <trkpt lat="40.632350" lon="-4.824200">
        <ele>2080.0</ele>
        <time>2014-06-30T14:18:35Z</time>
      </trkpt>
      <trkpt lat="40.632383" lon="-4.824067">
        <ele>2083.0</ele>
        <time>2014-06-30T14:18:36Z</time>
      </trkpt>
      <trkpt lat="40.632367" lon="-4.823933">
        <ele>2087.0</ele>
        <time>2014-06-30T14:18:37Z</time>
      </trkpt>
      <trkpt lat="40.632350" lon="-4.823800">
        <ele>2090.0</ele>
        <time>2014-06-30T14:18:38Z</time>
      </trkpt>
      <trkpt lat="40.632300" lon="-4.823683">
        <ele>2093.0</ele>
        <time>2014-06-30T14:18:39Z</time>
      </trkpt>
      <trkpt lat="40.632250" lon="-4.823550">
        <ele>2097.0</ele>
        <time>2014-06-30T14:18:40Z</time>
      </trkpt>
      <trkpt lat="40.632183" lon="-4.823417">
        <ele>2100.0</ele>
        <time>2014-06-30T14:18:41Z</time>
      </trkpt>
      <trkpt lat="40.632117" lon="-4.823283">
        <ele>2103.0</ele>
        <time>2014-06-30T14:18:42Z</time>
      </trkpt>
      <trkpt lat="40.632033" lon="-4.823150">
        <ele>2107.0</ele>
        <time>2014-06-30T14:18:43Z</time>
      </trkpt>
      <trkpt lat="40.631933" lon="-4.823033">
        <ele>2110.0</ele>
        <time>2014-06-30T14:18:44Z</time>
      </trkpt>
      <trkpt lat="40.631833" lon="-4.822950">
        <ele>2115.0</ele>
        <time>2014-06-30T14:18:45Z</time>
      </trkpt>
      <trkpt lat="40.631750" lon="-4.822883">
        <ele>2120.0</ele>
        <time>2014-06-30T14:18:46Z</time>
      </trkpt>
      <trkpt lat="40.631650" lon="-4.822867">
        <ele>2123.0</ele>
        <time>2014-06-30T14:18:47Z</time>
      </trkpt>
      <trkpt lat="40.631550" lon="-4.822850">
        <ele>2126.0</ele>
        <time>2014-06-30T14:18:48Z</time>
      </trkpt>
      <trkpt lat="40.631450" lon="-4.822850">
        <ele>2128.0</ele>
        <time>2014-06-30T14:18:49Z</time>
      </trkpt>
      <trkpt lat="40.631350" lon="-4.822867">
        <ele>2130.0</ele>
        <time>2014-06-30T14:18:50Z</time>
      </trkpt>
      <trkpt lat="40.631267" lon="-4.822883">
        <ele>2134.0</ele>
        <time>2014-06-30T14:18:51Z</time>
      </trkpt>
      <trkpt lat="40.631183" lon="-4.822917">
        <ele>2137.0</ele>
        <time>2014-06-30T14:18:52Z</time>
      </trkpt>
      <trkpt lat="40.631117" lon="-4.822967">
        <ele>2140.0</ele>
        <time>2014-06-30T14:18:53Z</time>
      </trkpt>
      <trkpt lat="40.631050" lon="-4.823033">
        <ele>2142.0</ele>
        <time>2014-06-30T14:18:54Z</time>
      </trkpt>
      <trkpt lat="40.631000" lon="-4.823117">
        <ele>2144.0</ele>
        <time>2014-06-30T14:18:55Z</time>
      </trkpt>
      <trkpt lat="40.630967" lon="-4.823217">
        <ele>2146.0</ele>
        <time>2014-06-30T14:18:56Z</time>
      </trkpt>
      <trkpt lat="40.630950" lon="-4.823317">
        <ele>2148.0</ele>
        <time>2014-06-30T14:18:57Z</time>
      </trkpt>
      <trkpt lat="40.630950" lon="-4.823417">
        <ele>2150.0</ele>
        <time>2014-06-30T14:18:58Z</time>
      </trkpt>
      <trkpt lat="40.630983" lon="-4.823500">
        <ele>2152.0</ele>
        <time>2014-06-30T14:18:59Z</time>
      </trkpt>
      <trkpt lat="40.631017" lon="-4.823567">
        <ele>2155.0</ele>
        <time>2014-06-30T14:19:00Z</time>
      </trkpt>
      <trkpt lat="40.631083" lon="-4.823617">
        <ele>2158.0</ele>
        <time>2014-06-30T14:19:01Z</time>
      </trkpt>
      <trkpt lat="40.631150" lon="-4.823683">
        <ele>2156.0</ele>
        <time>2014-06-30T14:19:02Z</time>
      </trkpt>
      <trkpt lat="40.631217" lon="-4.823717">
        <ele>2158.0</ele>
        <time>2014-06-30T14:19:03Z</time>
      </trkpt>
      <trkpt lat="40.631283" lon="-4.823750">
        <ele>2161.0</ele>
        <time>2014-06-30T14:19:04Z</time>
      </trkpt>
      <trkpt lat="40.631350" lon="-4.823750">
        <ele>2164.0</ele>
        <time>2014-06-30T14:19:05Z</time>
      </trkpt>
      <trkpt lat="40.631417" lon="-4.823750">
        <ele>2164.0</ele>
        <time>2014-06-30T14:19:06Z</time>
      </trkpt>
      <trkpt lat="40.631483" lon="-4.823733">
        <ele>2166.0</ele>
        <time>2014-06-30T14:19:07Z</time>
      </trkpt>
      <trkpt lat="40.631533" lon="-4.823717">
        <ele>2168.0</ele>
        <time>2014-06-30T14:19:08Z</time>
      </trkpt>
      <trkpt lat="40.631583" lon="-4.823667">
        <ele>2170.0</ele>
        <time>2014-06-30T14:19:09Z</time>
      </trkpt>
      <trkpt lat="40.631633" lon="-4.823617">
        <ele>2172.0</ele>
        <time>2014-06-30T14:19:10Z</time>
      </trkpt>
      <trkpt lat="40.631650" lon="-4.823517">
        <ele>2174.0</ele>
        <time>2014-06-30T14:19:11Z</time>
      </trkpt>
      <trkpt lat="40.631667" lon="-4.823400">
        <ele>2175.0</ele>
        <time>2014-06-30T14:19:12Z</time>
      </trkpt>
      <trkpt lat="40.631683" lon="-4.823283">
        <ele>2176.0</ele>
        <time>2014-06-30T14:19:13Z</time>
      </trkpt>
      <trkpt lat="40.631667" lon="-4.823150">
        <ele>2178.0</ele>
        <time>2014-06-30T14:19:14Z</time>
      </trkpt>
      <trkpt lat="40.631617" lon="-4.823033">
        <ele>2181.0</ele>
        <time>2014-06-30T14:19:15Z</time>
      </trkpt>
      <trkpt lat="40.631567" lon="-4.822917">
        <ele>2183.0</ele>
        <time>2014-06-30T14:19:16Z</time>
      </trkpt>
      <trkpt lat="40.631500" lon="-4.822817">
        <ele>2186.0</ele>
        <time>2014-06-30T14:19:17Z</time>
      </trkpt>
      <trkpt lat="40.631433" lon="-4.822733">
        <ele>2190.0</ele>
        <time>2014-06-30T14:19:18Z</time>
      </trkpt>
      <trkpt lat="40.631367" lon="-4.822650">
        <ele>2193.0</ele>
        <time>2014-06-30T14:19:19Z</time>
      </trkpt>
      <trkpt lat="40.631300" lon="-4.822567">
        <ele>2196.0</ele>
        <time>2014-06-30T14:19:20Z</time>
      </trkpt>
      <trkpt lat="40.631217" lon="-4.822483">
        <ele>2198.0</ele>
        <time>2014-06-30T14:19:21Z</time>
      </trkpt>
      <trkpt lat="40.631133" lon="-4.822433">
        <ele>2201.0</ele>
        <time>2014-06-30T14:19:22Z</time>
      </trkpt>
      <trkpt lat="40.631033" lon="-4.822400">
        <ele>2204.0</ele>
        <time>2014-06-30T14:19:23Z</time>
      </trkpt>
      <trkpt lat="40.630950" lon="-4.822400">
        <ele>2206.0</ele>
        <time>2014-06-30T14:19:24Z</time>
      </trkpt>
      <trkpt lat="40.630850" lon="-4.822417">
        <ele>2208.0</ele>
        <time>2014-06-30T14:19:25Z</time>
      </trkpt>
      <trkpt lat="40.630767" lon="-4.822450">
        <ele>2211.0</ele>
        <time>2014-06-30T14:19:26Z</time>
      </trkpt>
      <trkpt lat="40.630700" lon="-4.822500">
        <ele>2214.0</ele>
        <time>2014-06-30T14:19:27Z</time>
      </trkpt>
      <trkpt lat="40.630633" lon="-4.822567">
        <ele>2217.0</ele>
        <time>2014-06-30T14:19:28Z</time>
      </trkpt>
      <trkpt lat="40.630583" lon="-4.822650">
        <ele>2220.0</ele>
        <time>2014-06-30T14:19:29Z</time>
      </trkpt>
      <trkpt lat="40.630533" lon="-4.822750">
        <ele>2222.0</ele>
        <time>2014-06-30T14:19:30Z</time>
      </trkpt>
      <trkpt lat="40.630483" lon="-4.822833">
        <ele>2225.0</ele>
        <time>2014-06-30T14:19:31Z</time>
      </trkpt>
      <trkpt lat="40.630467" lon="-4.822950">
        <ele>2227.0</ele>
        <time>2014-06-30T14:19:32Z</time>
      </trkpt>
      <trkpt lat="40.630450" lon="-4.823050">
        <ele>2230.0</ele>
        <time>2014-06-30T14:19:33Z</time>
      </trkpt>
      <trkpt lat="40.630450" lon="-4.823167">
        <ele>2232.0</ele>
        <time>2014-06-30T14:19:34Z</time>
      </trkpt>
      <trkpt lat="40.630450" lon="-4.823283">
        <ele>2235.0</ele>
        <time>2014-06-30T14:19:35Z</time>
      </trkpt>
      <trkpt lat="40.630483" lon="-4.823383">
        <ele>2238.0</ele>
        <time>2014-06-30T14:19:36Z</time>
      </trkpt>
      <trkpt lat="40.630517" lon="-4.823450">
        <ele>2241.0</ele>
        <time>2014-06-30T14:19:37Z</time>
      </trkpt>
      <trkpt lat="40.630583" lon="-4.823483">
        <ele>2243.0</ele>
        <time>2014-06-30T14:19:38Z</time>
      </trkpt>
      <trkpt lat="40.630633" lon="-4.823517">
        <ele>2237.0</ele>
        <time>2014-06-30T14:19:39Z</time>
      </trkpt>
      <trkpt lat="40.630700" lon="-4.823533">
        <ele>2238.0</ele>
        <time>2014-06-30T14:19:40Z</time>
      </trkpt>
      <trkpt lat="40.630750" lon="-4.823550">
        <ele>2239.0</ele>
        <time>2014-06-30T14:19:41Z</time>
      </trkpt>
      <trkpt lat="40.630817" lon="-4.823533">
        <ele>2241.0</ele>
        <time>2014-06-30T14:19:42Z</time>
      </trkpt>
      <trkpt lat="40.630867" lon="-4.823483">
        <ele>2243.0</ele>
        <time>2014-06-30T14:19:43Z</time>
      </trkpt>
      <trkpt lat="40.630917" lon="-4.823433">
        <ele>2244.0</ele>
        <time>2014-06-30T14:19:44Z</time>
      </trkpt>
      <trkpt lat="40.630950" lon="-4.823367">
        <ele>2246.0</ele>
        <time>2014-06-30T14:19:45Z</time>
      </trkpt>
      <trkpt lat="40.630967" lon="-4.823300">
        <ele>2247.0</ele>
        <time>2014-06-30T14:19:46Z</time>
      </trkpt>
      <trkpt lat="40.631000" lon="-4.823217">
        <ele>2248.0</ele>
        <time>2014-06-30T14:19:47Z</time>
      </trkpt>
      <trkpt lat="40.631000" lon="-4.823133">
        <ele>2249.0</ele>
        <time>2014-06-30T14:19:48Z</time>
      </trkpt>
      <trkpt lat="40.631000" lon="-4.823033">
        <ele>2249.0</ele>
        <time>2014-06-30T14:19:49Z</time>
      </trkpt>
      <trkpt lat="40.631000" lon="-4.822933">
        <ele>2250.0</ele>
        <time>2014-06-30T14:19:50Z</time>
      </trkpt>
      <trkpt lat="40.630967" lon="-4.822800">
        <ele>2251.0</ele>
        <time>2014-06-30T14:19:51Z</time>
      </trkpt>
      <trkpt lat="40.630917" lon="-4.822683">
        <ele>2252.0</ele>
        <time>2014-06-30T14:19:52Z</time>
      </trkpt>
      <trkpt lat="40.630850" lon="-4.822583">
        <ele>2253.0</ele>
        <time>2014-06-30T14:19:53Z</time>
      </trkpt>
      <trkpt lat="40.630750" lon="-4.822500">
        <ele>2254.0</ele>
        <time>2014-06-30T14:19:54Z</time>
      </trkpt>
      <trkpt lat="40.630667" lon="-4.822417">
        <ele>2255.0</ele>
        <time>2014-06-30T14:19:55Z</time>
      </trkpt>
      <trkpt lat="40.630567" lon="-4.822333">
        <ele>2257.0</ele>
        <time>2014-06-30T14:19:56Z</time>
      </trkpt>
      <trkpt lat="40.630467" lon="-4.822283">
        <ele>2259.0</ele>
        <time>2014-06-30T14:19:57Z</time>
      </trkpt>
      <trkpt lat="40.630367" lon="-4.822267">
        <ele>2262.0</ele>
        <time>2014-06-30T14:19:58Z</time>
      </trkpt>
      <trkpt lat="40.630283" lon="-4.822250">
        <ele>2265.0</ele>
        <time>2014-06-30T14:19:59Z</time>
      </trkpt>
      <trkpt lat="40.630183" lon="-4.822250">
        <ele>2267.0</ele>
        <time>2014-06-30T14:20:00Z</time>
      </trkpt>
      <trkpt lat="40.630083" lon="-4.822250">
        <ele>2269.0</ele>
        <time>2014-06-30T14:20:01Z</time>
      </trkpt>
      <trkpt lat="40.630000" lon="-4.822267">
        <ele>2271.0</ele>
        <time>2014-06-30T14:20:02Z</time>
      </trkpt>
      <trkpt lat="40.629900" lon="-4.822300">
        <ele>2273.0</ele>
        <time>2014-06-30T14:20:03Z</time>
      </trkpt>
      <trkpt lat="40.629817" lon="-4.822367">
        <ele>2273.0</ele>
        <time>2014-06-30T14:20:04Z</time>
      </trkpt>
      <trkpt lat="40.629750" lon="-4.822450">
        <ele>2274.0</ele>
        <time>2014-06-30T14:20:05Z</time>
      </trkpt>
      <trkpt lat="40.629683" lon="-4.822533">
        <ele>2275.0</ele>
        <time>2014-06-30T14:20:06Z</time>
      </trkpt>
      <trkpt lat="40.629633" lon="-4.822633">
        <ele>2276.0</ele>
        <time>2014-06-30T14:20:07Z</time>
      </trkpt>
      <trkpt lat="40.629600" lon="-4.822717">
        <ele>2277.0</ele>
        <time>2014-06-30T14:20:08Z</time>
      </trkpt>
      <trkpt lat="40.629583" lon="-4.822833">
        <ele>2278.0</ele>
        <time>2014-06-30T14:20:09Z</time>
      </trkpt>
      <trkpt lat="40.629567" lon="-4.822950">
        <ele>2279.0</ele>
        <time>2014-06-30T14:20:10Z</time>
      </trkpt>
      <trkpt lat="40.629550" lon="-4.823067">
        <ele>2279.0</ele>
        <time>2014-06-30T14:20:11Z</time>
      </trkpt>
      <trkpt lat="40.629567" lon="-4.823183">
        <ele>2279.0</ele>
        <time>2014-06-30T14:20:12Z</time>
      </trkpt>
      <trkpt lat="40.629583" lon="-4.823300">
        <ele>2279.0</ele>
        <time>2014-06-30T14:20:13Z</time>
      </trkpt>
      <trkpt lat="40.629617" lon="-4.823433">
        <ele>2279.0</ele>
        <time>2014-06-30T14:20:14Z</time>
      </trkpt>
      <trkpt lat="40.629650" lon="-4.823550">
        <ele>2279.0</ele>
        <time>2014-06-30T14:20:15Z</time>
      </trkpt>
      <trkpt lat="40.629700" lon="-4.823683">
        <ele>2278.0</ele>
        <time>2014-06-30T14:20:16Z</time>
      </trkpt>
      <trkpt lat="40.629767" lon="-4.823800">
        <ele>2279.0</ele>
        <time>2014-06-30T14:20:17Z</time>
      </trkpt>
      <trkpt lat="40.629817" lon="-4.823900">
        <ele>2280.0</ele>
        <time>2014-06-30T14:20:18Z</time>
      </trkpt>
      <trkpt lat="40.629883" lon="-4.823983">
        <ele>2281.0</ele>
        <time>2014-06-30T14:20:19Z</time>
      </trkpt>
      <trkpt lat="40.629950" lon="-4.824033">
        <ele>2283.0</ele>
        <time>2014-06-30T14:20:20Z</time>
      </trkpt>
      <trkpt lat="40.630017" lon="-4.824083">
        <ele>2281.0</ele>
        <time>2014-06-30T14:20:21Z</time>
      </trkpt>
      <trkpt lat="40.630083" lon="-4.824150">
        <ele>2281.0</ele>
        <time>2014-06-30T14:20:22Z</time>
      </trkpt>
      <trkpt lat="40.630133" lon="-4.824217">
        <ele>2281.0</ele>
        <time>2014-06-30T14:20:23Z</time>
      </trkpt>
      <trkpt lat="40.630200" lon="-4.824283">
        <ele>2282.0</ele>
        <time>2014-06-30T14:20:24Z</time>
      </trkpt>
      <trkpt lat="40.630283" lon="-4.824350">
        <ele>2282.0</ele>
        <time>2014-06-30T14:20:25Z</time>
      </trkpt>
      <trkpt lat="40.630350" lon="-4.824400">
        <ele>2282.0</ele>
        <time>2014-06-30T14:20:26Z</time>
      </trkpt>
      <trkpt lat="40.630417" lon="-4.824467">
        <ele>2282.0</ele>
        <time>2014-06-30T14:20:27Z</time>
      </trkpt>
      <trkpt lat="40.630467" lon="-4.824517">
        <ele>2283.0</ele>
        <time>2014-06-30T14:20:28Z</time>
      </trkpt>
      <trkpt lat="40.630533" lon="-4.824550">
        <ele>2283.0</ele>
        <time>2014-06-30T14:20:29Z</time>
      </trkpt>
      <trkpt lat="40.630600" lon="-4.824583">
        <ele>2283.0</ele>
        <time>2014-06-30T14:20:30Z</time>
      </trkpt>
      <trkpt lat="40.630683" lon="-4.824600">
        <ele>2284.0</ele>
        <time>2014-06-30T14:20:31Z</time>
      </trkpt>
      <trkpt lat="40.630750" lon="-4.824617">
        <ele>2284.0</ele>
        <time>2014-06-30T14:20:32Z</time>
      </trkpt>
      <trkpt lat="40.630833" lon="-4.824600">
        <ele>2285.0</ele>
        <time>2014-06-30T14:20:33Z</time>
      </trkpt>
      <trkpt lat="40.630917" lon="-4.824567">
        <ele>2286.0</ele>
        <time>2014-06-30T14:20:34Z</time>
      </trkpt>
      <trkpt lat="40.630983" lon="-4.824533">
        <ele>2288.0</ele>
        <time>2014-06-30T14:20:35Z</time>
      </trkpt>
      <trkpt lat="40.631033" lon="-4.824483">
        <ele>2289.0</ele>
        <time>2014-06-30T14:20:36Z</time>
      </trkpt>
      <trkpt lat="40.631083" lon="-4.824417">
        <ele>2290.0</ele>
        <time>2014-06-30T14:20:37Z</time>
      </trkpt>
      <trkpt lat="40.631117" lon="-4.824350">
        <ele>2291.0</ele>
        <time>2014-06-30T14:20:38Z</time>
      </trkpt>
      <trkpt lat="40.631150" lon="-4.824250">
        <ele>2291.0</ele>
        <time>2014-06-30T14:20:39Z</time>
      </trkpt>
      <trkpt lat="40.631183" lon="-4.824150">
        <ele>2290.0</ele>
        <time>2014-06-30T14:20:40Z</time>
      </trkpt>
      <trkpt lat="40.631200" lon="-4.824033">
        <ele>2288.0</ele>
        <time>2014-06-30T14:20:41Z</time>
      </trkpt>
      <trkpt lat="40.631233" lon="-4.823917">
        <ele>2288.0</ele>
        <time>2014-06-30T14:20:42Z</time>
      </trkpt>
      <trkpt lat="40.631250" lon="-4.823800">
        <ele>2287.0</ele>
        <time>2014-06-30T14:20:43Z</time>
      </trkpt>
      <trkpt lat="40.631267" lon="-4.823683">
        <ele>2286.0</ele>
        <time>2014-06-30T14:20:44Z</time>
      </trkpt>
      <trkpt lat="40.631267" lon="-4.823550">
        <ele>2286.0</ele>
        <time>2014-06-30T14:20:45Z</time>
      </trkpt>
      <trkpt lat="40.631250" lon="-4.823417">
        <ele>2287.0</ele>
        <time>2014-06-30T14:20:46Z</time>
      </trkpt>
      <trkpt lat="40.631233" lon="-4.823283">
        <ele>2288.0</ele>
        <time>2014-06-30T14:20:47Z</time>
      </trkpt>
      <trkpt lat="40.631217" lon="-4.823150">
        <ele>2289.0</ele>
        <time>2014-06-30T14:20:48Z</time>
      </trkpt>
      <trkpt lat="40.631167" lon="-4.823017">
        <ele>2289.0</ele>
        <time>2014-06-30T14:20:49Z</time>
      </trkpt>
      <trkpt lat="40.631117" lon="-4.822900">
        <ele>2290.0</ele>
        <time>2014-06-30T14:20:50Z</time>
      </trkpt>
      <trkpt lat="40.631067" lon="-4.822783">
        <ele>2291.0</ele>
        <time>2014-06-30T14:20:51Z</time>
      </trkpt>
      <trkpt lat="40.631000" lon="-4.822683">
        <ele>2292.0</ele>
        <time>2014-06-30T14:20:52Z</time>
      </trkpt>
      <trkpt lat="40.630950" lon="-4.822567">
        <ele>2293.0</ele>
        <time>2014-06-30T14:20:53Z</time>
      </trkpt>
      <trkpt lat="40.630883" lon="-4.822450">
        <ele>2293.0</ele>
        <time>2014-06-30T14:20:54Z</time>
      </trkpt>
      <trkpt lat="40.630817" lon="-4.822333">
        <ele>2293.0</ele>
        <time>2014-06-30T14:20:55Z</time>
      </trkpt>
      <trkpt lat="40.630767" lon="-4.822233">
        <ele>2293.0</ele>
        <time>2014-06-30T14:20:56Z</time>
      </trkpt>
      <trkpt lat="40.630700" lon="-4.822117">
        <ele>2292.0</ele>
        <time>2014-06-30T14:20:57Z</time>
      </trkpt>
      <trkpt lat="40.630633" lon="-4.822017">
        <ele>2291.0</ele>
        <time>2014-06-30T14:20:58Z</time>
      </trkpt>
      <trkpt lat="40.630550" lon="-4.821933">
        <ele>2291.0</ele>
        <time>2014-06-30T14:20:59Z</time>
      </trkpt>
      <trkpt lat="40.630450" lon="-4.821867">
        <ele>2291.0</ele>
        <time>2014-06-30T14:21:00Z</time>
      </trkpt>
      <trkpt lat="40.630333" lon="-4.821817">
        <ele>2291.0</ele>
        <time>2014-06-30T14:21:01Z</time>
      </trkpt>
      <trkpt lat="40.630233" lon="-4.821783">
        <ele>2293.0</ele>
        <time>2014-06-30T14:21:02Z</time>
      </trkpt>
      <trkpt lat="40.630133" lon="-4.821767">
        <ele>2294.0</ele>
        <time>2014-06-30T14:21:03Z</time>
      </trkpt>
      <trkpt lat="40.630050" lon="-4.821717">
        <ele>2295.0</ele>
        <time>2014-06-30T14:21:04Z</time>
      </trkpt>
      <trkpt lat="40.629967" lon="-4.821683">
        <ele>2296.0</ele>
        <time>2014-06-30T14:21:05Z</time>
      </trkpt>
      <trkpt lat="40.629900" lon="-4.821633">
        <ele>2296.0</ele>
        <time>2014-06-30T14:21:06Z</time>
      </trkpt>
      <trkpt lat="40.629817" lon="-4.821600">
        <ele>2295.0</ele>
        <time>2014-06-30T14:21:07Z</time>
      </trkpt>
      <trkpt lat="40.629733" lon="-4.821567">
        <ele>2294.0</ele>
        <time>2014-06-30T14:21:08Z</time>
      </trkpt>
      <trkpt lat="40.629633" lon="-4.821533">
        <ele>2292.0</ele>
        <time>2014-06-30T14:21:09Z</time>
      </trkpt>
      <trkpt lat="40.629550" lon="-4.821533">
        <ele>2290.0</ele>
        <time>2014-06-30T14:21:10Z</time>
      </trkpt>
      <trkpt lat="40.629450" lon="-4.821567">
        <ele>2287.0</ele>
        <time>2014-06-30T14:21:11Z</time>
      </trkpt>
      <trkpt lat="40.629367" lon="-4.821600">
        <ele>2286.0</ele>
        <time>2014-06-30T14:21:12Z</time>
      </trkpt>
      <trkpt lat="40.629300" lon="-4.821650">
        <ele>2285.0</ele>
        <time>2014-06-30T14:21:13Z</time>
      </trkpt>
      <trkpt lat="40.629233" lon="-4.821683">
        <ele>2284.0</ele>
        <time>2014-06-30T14:21:14Z</time>
      </trkpt>
      <trkpt lat="40.629167" lon="-4.821717">
        <ele>2283.0</ele>
        <time>2014-06-30T14:21:15Z</time>
      </trkpt>
      <trkpt lat="40.629100" lon="-4.821733">
        <ele>2281.0</ele>
        <time>2014-06-30T14:21:16Z</time>
      </trkpt>
      <trkpt lat="40.629033" lon="-4.821783">
        <ele>2279.0</ele>
        <time>2014-06-30T14:21:17Z</time>
      </trkpt>
      <trkpt lat="40.628967" lon="-4.821850">
        <ele>2276.0</ele>
        <time>2014-06-30T14:21:18Z</time>
      </trkpt>
      <trkpt lat="40.628917" lon="-4.821950">
        <ele>2273.0</ele>
        <time>2014-06-30T14:21:19Z</time>
      </trkpt>
      <trkpt lat="40.628900" lon="-4.822067">
        <ele>2273.0</ele>
        <time>2014-06-30T14:21:20Z</time>
      </trkpt>
      <trkpt lat="40.628933" lon="-4.822183">
        <ele>2266.0</ele>
        <time>2014-06-30T14:21:21Z</time>
      </trkpt>
      <trkpt lat="40.628967" lon="-4.822300">
        <ele>2263.0</ele>
        <time>2014-06-30T14:21:22Z</time>
      </trkpt>
      <trkpt lat="40.629050" lon="-4.822383">
        <ele>2259.0</ele>
        <time>2014-06-30T14:21:23Z</time>
      </trkpt>
      <trkpt lat="40.629133" lon="-4.822467">
        <ele>2255.0</ele>
        <time>2014-06-30T14:21:24Z</time>
      </trkpt>
      <trkpt lat="40.629233" lon="-4.822517">
        <ele>2252.0</ele>
        <time>2014-06-30T14:21:25Z</time>
      </trkpt>
      <trkpt lat="40.629317" lon="-4.822567">
        <ele>2249.0</ele>
        <time>2014-06-30T14:21:26Z</time>
      </trkpt>
      <trkpt lat="40.629417" lon="-4.822600">
        <ele>2247.0</ele>
        <time>2014-06-30T14:21:27Z</time>
      </trkpt>
      <trkpt lat="40.629517" lon="-4.822633">
        <ele>2245.0</ele>
        <time>2014-06-30T14:21:28Z</time>
      </trkpt>
      <trkpt lat="40.629617" lon="-4.822667">
        <ele>2242.0</ele>
        <time>2014-06-30T14:21:29Z</time>
      </trkpt>
      <trkpt lat="40.629717" lon="-4.822683">
        <ele>2239.0</ele>
        <time>2014-06-30T14:21:30Z</time>
      </trkpt>
      <trkpt lat="40.629833" lon="-4.822683">
        <ele>2237.0</ele>
        <time>2014-06-30T14:21:31Z</time>
      </trkpt>
      <trkpt lat="40.629917" lon="-4.822650">
        <ele>2235.0</ele>
        <time>2014-06-30T14:21:32Z</time>
      </trkpt>
      <trkpt lat="40.630017" lon="-4.822617">
        <ele>2232.0</ele>
        <time>2014-06-30T14:21:33Z</time>
      </trkpt>
      <trkpt lat="40.630117" lon="-4.822567">
        <ele>2228.0</ele>
        <time>2014-06-30T14:21:34Z</time>
      </trkpt>
      <trkpt lat="40.630233" lon="-4.822500">
        <ele>2225.0</ele>
        <time>2014-06-30T14:21:35Z</time>
      </trkpt>
      <trkpt lat="40.630333" lon="-4.822433">
        <ele>2222.0</ele>
        <time>2014-06-30T14:21:36Z</time>
      </trkpt>
      <trkpt lat="40.630433" lon="-4.822367">
        <ele>2220.0</ele>
        <time>2014-06-30T14:21:37Z</time>
      </trkpt>
      <trkpt lat="40.630533" lon="-4.822300">
        <ele>2218.0</ele>
        <time>2014-06-30T14:21:38Z</time>
      </trkpt>
      <trkpt lat="40.630617" lon="-4.822233">
        <ele>2217.0</ele>
        <time>2014-06-30T14:21:39Z</time>
      </trkpt>
      <trkpt lat="40.630683" lon="-4.822183">
        <ele>2216.0</ele>
        <time>2014-06-30T14:21:40Z</time>
      </trkpt>
      <trkpt lat="40.630767" lon="-4.822117">
        <ele>2214.0</ele>
        <time>2014-06-30T14:21:41Z</time>
      </trkpt>
      <trkpt lat="40.630850" lon="-4.822033">
        <ele>2213.0</ele>
        <time>2014-06-30T14:21:42Z</time>
      </trkpt>
      <trkpt lat="40.630933" lon="-4.821967">
        <ele>2211.0</ele>
        <time>2014-06-30T14:21:43Z</time>
      </trkpt>
      <trkpt lat="40.631017" lon="-4.821883">
        <ele>2210.0</ele>
        <time>2014-06-30T14:21:44Z</time>
      </trkpt>
      <trkpt lat="40.631083" lon="-4.821783">
        <ele>2208.0</ele>
        <time>2014-06-30T14:21:45Z</time>
      </trkpt>
      <trkpt lat="40.631150" lon="-4.821700">
        <ele>2208.0</ele>
        <time>2014-06-30T14:21:46Z</time>
      </trkpt>
      <trkpt lat="40.631217" lon="-4.821633">
        <ele>2208.0</ele>
        <time>2014-06-30T14:21:47Z</time>
      </trkpt>
      <trkpt lat="40.631283" lon="-4.821567">
        <ele>2208.0</ele>
        <time>2014-06-30T14:21:48Z</time>
      </trkpt>
      <trkpt lat="40.631350" lon="-4.821500">
        <ele>2207.0</ele>
        <time>2014-06-30T14:21:49Z</time>
      </trkpt>
      <trkpt lat="40.631433" lon="-4.821417">
        <ele>2205.0</ele>
        <time>2014-06-30T14:21:50Z</time>
      </trkpt>
      <trkpt lat="40.631500" lon="-4.821317">
        <ele>2204.0</ele>
        <time>2014-06-30T14:21:51Z</time>
      </trkpt>
      <trkpt lat="40.631583" lon="-4.821233">
        <ele>2203.0</ele>
        <time>2014-06-30T14:21:52Z</time>
      </trkpt>
      <trkpt lat="40.631650" lon="-4.821150">
        <ele>2202.0</ele>
        <time>2014-06-30T14:21:53Z</time>
      </trkpt>
      <trkpt lat="40.631733" lon="-4.821067">
        <ele>2202.0</ele>
        <time>2014-06-30T14:21:54Z</time>
      </trkpt>
      <trkpt lat="40.631800" lon="-4.820983">
        <ele>2201.0</ele>
        <time>2014-06-30T14:21:55Z</time>
      </trkpt>
      <trkpt lat="40.631850" lon="-4.820900">
        <ele>2201.0</ele>
        <time>2014-06-30T14:21:56Z</time>
      </trkpt>
      <trkpt lat="40.631917" lon="-4.820817">
        <ele>2200.0</ele>
        <time>2014-06-30T14:21:57Z</time>
      </trkpt>
      <trkpt lat="40.631983" lon="-4.820733">
        <ele>2199.0</ele>
        <time>2014-06-30T14:21:58Z</time>
      </trkpt>
      <trkpt lat="40.632050" lon="-4.820633">
        <ele>2198.0</ele>
        <time>2014-06-30T14:21:59Z</time>
      </trkpt>
      <trkpt lat="40.632100" lon="-4.820533">
        <ele>2196.0</ele>
        <time>2014-06-30T14:22:00Z</time>
      </trkpt>
      <trkpt lat="40.632167" lon="-4.820450">
        <ele>2195.0</ele>
        <time>2014-06-30T14:22:01Z</time>
      </trkpt>
      <trkpt lat="40.632233" lon="-4.820367">
        <ele>2194.0</ele>
        <time>2014-06-30T14:22:02Z</time>
      </trkpt>
      <trkpt lat="40.632317" lon="-4.820300">
        <ele>2192.0</ele>
        <time>2014-06-30T14:22:03Z</time>
      </trkpt>
      <trkpt lat="40.632400" lon="-4.820250">
        <ele>2190.0</ele>
        <time>2014-06-30T14:22:04Z</time>
      </trkpt>
      <trkpt lat="40.632483" lon="-4.820183">
        <ele>2188.0</ele>
        <time>2014-06-30T14:22:05Z</time>
      </trkpt>
      <trkpt lat="40.632550" lon="-4.820117">
        <ele>2186.0</ele>
        <time>2014-06-30T14:22:06Z</time>
      </trkpt>
      <trkpt lat="40.632633" lon="-4.820033">
        <ele>2185.0</ele>
        <time>2014-06-30T14:22:07Z</time>
      </trkpt>
      <trkpt lat="40.632717" lon="-4.819933">
        <ele>2183.0</ele>
        <time>2014-06-30T14:22:08Z</time>
      </trkpt>
      <trkpt lat="40.632783" lon="-4.819833">
        <ele>2181.0</ele>
        <time>2014-06-30T14:22:09Z</time>
      </trkpt>
      <trkpt lat="40.632867" lon="-4.819750">
        <ele>2179.0</ele>
        <time>2014-06-30T14:22:10Z</time>
      </trkpt>
      <trkpt lat="40.632933" lon="-4.819650">
        <ele>2177.0</ele>
        <time>2014-06-30T14:22:11Z</time>
      </trkpt>
      <trkpt lat="40.633000" lon="-4.819550">
        <ele>2176.0</ele>
        <time>2014-06-30T14:22:12Z</time>
      </trkpt>
      <trkpt lat="40.633083" lon="-4.819433">
        <ele>2174.0</ele>
        <time>2014-06-30T14:22:13Z</time>
      </trkpt>
      <trkpt lat="40.633150" lon="-4.819317">
        <ele>2172.0</ele>
        <time>2014-06-30T14:22:14Z</time>
      </trkpt>
      <trkpt lat="40.633233" lon="-4.819200">
        <ele>2170.0</ele>
        <time>2014-06-30T14:22:15Z</time>
      </trkpt>
      <trkpt lat="40.633317" lon="-4.819083">
        <ele>2169.0</ele>
        <time>2014-06-30T14:22:16Z</time>
      </trkpt>
      <trkpt lat="40.633383" lon="-4.818950">
        <ele>2168.0</ele>
        <time>2014-06-30T14:22:17Z</time>
      </trkpt>
      <trkpt lat="40.633467" lon="-4.818833">
        <ele>2168.0</ele>
        <time>2014-06-30T14:22:18Z</time>
      </trkpt>
      <trkpt lat="40.633533" lon="-4.818700">
        <ele>2168.0</ele>
        <time>2014-06-30T14:22:19Z</time>
      </trkpt>
      <trkpt lat="40.633600" lon="-4.818583">
        <ele>2170.0</ele>
        <time>2014-06-30T14:22:20Z</time>
      </trkpt>
      <trkpt lat="40.633667" lon="-4.818467">
        <ele>2173.0</ele>
        <time>2014-06-30T14:22:21Z</time>
      </trkpt>
      <trkpt lat="40.633717" lon="-4.818350">
        <ele>2174.0</ele>
        <time>2014-06-30T14:22:22Z</time>
      </trkpt>
      <trkpt lat="40.633783" lon="-4.818233">
        <ele>2176.0</ele>
        <time>2014-06-30T14:22:23Z</time>
      </trkpt>
      <trkpt lat="40.633850" lon="-4.818133">
        <ele>2177.0</ele>
        <time>2014-06-30T14:22:24Z</time>
      </trkpt>
      <trkpt lat="40.633917" lon="-4.818000">
        <ele>2178.0</ele>
        <time>2014-06-30T14:22:25Z</time>
      </trkpt>
      <trkpt lat="40.633967" lon="-4.817867">
        <ele>2180.0</ele>
        <time>2014-06-30T14:22:26Z</time>
      </trkpt>
      <trkpt lat="40.634033" lon="-4.817733">
        <ele>2183.0</ele>
        <time>2014-06-30T14:22:27Z</time>
      </trkpt>
      <trkpt lat="40.634100" lon="-4.817617">
        <ele>2186.0</ele>
        <time>2014-06-30T14:22:28Z</time>
      </trkpt>
      <trkpt lat="40.634150" lon="-4.817483">
        <ele>2188.0</ele>
        <time>2014-06-30T14:22:29Z</time>
      </trkpt>
      <trkpt lat="40.634217" lon="-4.817350">
        <ele>2190.0</ele>
        <time>2014-06-30T14:22:30Z</time>
      </trkpt>
      <trkpt lat="40.634267" lon="-4.817217">
        <ele>2192.0</ele>
        <time>2014-06-30T14:22:31Z</time>
      </trkpt>
      <trkpt lat="40.634317" lon="-4.817050">
        <ele>2194.0</ele>
        <time>2014-06-30T14:22:32Z</time>
      </trkpt>
      <trkpt lat="40.634367" lon="-4.816900">
        <ele>2195.0</ele>
        <time>2014-06-30T14:22:33Z</time>
      </trkpt>
      <trkpt lat="40.634400" lon="-4.816750">
        <ele>2197.0</ele>
        <time>2014-06-30T14:22:34Z</time>
      </trkpt>
      <trkpt lat="40.634450" lon="-4.816600">
        <ele>2199.0</ele>
        <time>2014-06-30T14:22:35Z</time>
      </trkpt>
      <trkpt lat="40.634483" lon="-4.816433">
        <ele>2201.0</ele>
        <time>2014-06-30T14:22:36Z</time>
      </trkpt>
      <trkpt lat="40.634533" lon="-4.816283">
        <ele>2203.0</ele>
        <time>2014-06-30T14:22:37Z</time>
      </trkpt>
      <trkpt lat="40.634567" lon="-4.816150">
        <ele>2205.0</ele>
        <time>2014-06-30T14:22:38Z</time>
      </trkpt>
      <trkpt lat="40.634617" lon="-4.816000">
        <ele>2207.0</ele>
        <time>2014-06-30T14:22:39Z</time>
      </trkpt>
      <trkpt lat="40.634650" lon="-4.815867">
        <ele>2209.0</ele>
        <time>2014-06-30T14:22:40Z</time>
      </trkpt>
      <trkpt lat="40.634717" lon="-4.815733">
        <ele>2211.0</ele>
        <time>2014-06-30T14:22:41Z</time>
      </trkpt>
      <trkpt lat="40.634767" lon="-4.815583">
        <ele>2212.0</ele>
        <time>2014-06-30T14:22:42Z</time>
      </trkpt>
      <trkpt lat="40.634817" lon="-4.815433">
        <ele>2213.0</ele>
        <time>2014-06-30T14:22:43Z</time>
      </trkpt>
      <trkpt lat="40.634833" lon="-4.815250">
        <ele>2215.0</ele>
        <time>2014-06-30T14:22:44Z</time>
      </trkpt>
      <trkpt lat="40.634817" lon="-4.815067">
        <ele>2218.0</ele>
        <time>2014-06-30T14:22:45Z</time>
      </trkpt>
      <trkpt lat="40.634783" lon="-4.814883">
        <ele>2222.0</ele>
        <time>2014-06-30T14:22:46Z</time>
      </trkpt>
      <trkpt lat="40.634733" lon="-4.814733">
        <ele>2224.0</ele>
        <time>2014-06-30T14:22:47Z</time>
      </trkpt>
      <trkpt lat="40.634650" lon="-4.814583">
        <ele>2225.0</ele>
        <time>2014-06-30T14:22:48Z</time>
      </trkpt>
      <trkpt lat="40.634533" lon="-4.814467">
        <ele>2227.0</ele>
        <time>2014-06-30T14:22:49Z</time>
      </trkpt>
      <trkpt lat="40.634417" lon="-4.814367">
        <ele>2229.0</ele>
        <time>2014-06-30T14:22:50Z</time>
      </trkpt>
      <trkpt lat="40.634300" lon="-4.814300">
        <ele>2233.0</ele>
        <time>2014-06-30T14:22:51Z</time>
      </trkpt>
      <trkpt lat="40.634200" lon="-4.814250">
        <ele>2236.0</ele>
        <time>2014-06-30T14:22:52Z</time>
      </trkpt>
      <trkpt lat="40.634100" lon="-4.814217">
        <ele>2239.0</ele>
        <time>2014-06-30T14:22:53Z</time>
      </trkpt>
      <trkpt lat="40.634000" lon="-4.814200">
        <ele>2242.0</ele>
        <time>2014-06-30T14:22:54Z</time>
      </trkpt>
      <trkpt lat="40.633917" lon="-4.814183">
        <ele>2244.0</ele>
        <time>2014-06-30T14:22:55Z</time>
      </trkpt>
      <trkpt lat="40.633833" lon="-4.814200">
        <ele>2247.0</ele>
        <time>2014-06-30T14:22:56Z</time>
      </trkpt>
      <trkpt lat="40.633750" lon="-4.814217">
        <ele>2250.0</ele>
        <time>2014-06-30T14:22:57Z</time>
      </trkpt>
      <trkpt lat="40.633700" lon="-4.814267">
        <ele>2252.0</ele>
        <time>2014-06-30T14:22:58Z</time>
      </trkpt>
      <trkpt lat="40.633667" lon="-4.814317">
        <ele>2254.0</ele>
        <time>2014-06-30T14:22:59Z</time>
      </trkpt>
      <trkpt lat="40.633633" lon="-4.814367">
        <ele>2255.0</ele>
        <time>2014-06-30T14:23:00Z</time>
      </trkpt>
      <trkpt lat="40.633633" lon="-4.814400">
        <ele>2256.0</ele>
        <time>2014-06-30T14:23:01Z</time>
      </trkpt>
      <trkpt lat="40.633650" lon="-4.814450">
        <ele>2257.0</ele>
        <time>2014-06-30T14:23:02Z</time>
      </trkpt>
      <trkpt lat="40.633667" lon="-4.814483">
        <ele>2258.0</ele>
        <time>2014-06-30T14:23:03Z</time>
      </trkpt>
      <trkpt lat="40.633683" lon="-4.814500">
        <ele>2259.0</ele>
        <time>2014-06-30T14:23:04Z</time>
      </trkpt>
      <trkpt lat="40.633717" lon="-4.814533">
        <ele>2259.0</ele>
        <time>2014-06-30T14:23:05Z</time>
      </trkpt>
      <trkpt lat="40.633767" lon="-4.814533">
        <ele>2260.0</ele>
        <time>2014-06-30T14:23:06Z</time>
      </trkpt>
      <trkpt lat="40.633833" lon="-4.814550">
        <ele>2260.0</ele>
        <time>2014-06-30T14:23:07Z</time>
      </trkpt>
      <trkpt lat="40.633883" lon="-4.814550">
        <ele>2260.0</ele>
        <time>2014-06-30T14:23:08Z</time>
      </trkpt>
      <trkpt lat="40.633983" lon="-4.814517">
        <ele>2263.0</ele>
        <time>2014-06-30T14:23:09Z</time>
      </trkpt>
      <trkpt lat="40.634033" lon="-4.814467">
        <ele>2261.0</ele>
        <time>2014-06-30T14:23:10Z</time>
      </trkpt>
      <trkpt lat="40.634100" lon="-4.814383">
        <ele>2262.0</ele>
        <time>2014-06-30T14:23:11Z</time>
      </trkpt>
      <trkpt lat="40.634167" lon="-4.814317">
        <ele>2263.0</ele>
        <time>2014-06-30T14:23:12Z</time>
      </trkpt>
      <trkpt lat="40.634217" lon="-4.814217">
        <ele>2263.0</ele>
        <time>2014-06-30T14:23:13Z</time>
      </trkpt>
      <trkpt lat="40.634283" lon="-4.814100">
        <ele>2264.0</ele>
        <time>2014-06-30T14:23:14Z</time>
      </trkpt>
      <trkpt lat="40.634333" lon="-4.813983">
        <ele>2264.0</ele>
        <time>2014-06-30T14:23:15Z</time>
      </trkpt>
      <trkpt lat="40.634417" lon="-4.813867">
        <ele>2265.0</ele>
        <time>2014-06-30T14:23:16Z</time>
      </trkpt>
      <trkpt lat="40.634467" lon="-4.813750">
        <ele>2266.0</ele>
        <time>2014-06-30T14:23:17Z</time>
      </trkpt>
      <trkpt lat="40.634533" lon="-4.813650">
        <ele>2267.0</ele>
        <time>2014-06-30T14:23:18Z</time>
      </trkpt>
      <trkpt lat="40.634550" lon="-4.813550">
        <ele>2269.0</ele>
        <time>2014-06-30T14:23:19Z</time>
      </trkpt>
      <trkpt lat="40.634583" lon="-4.813433">
        <ele>2271.0</ele>
        <time>2014-06-30T14:23:20Z</time>
      </trkpt>
      <trkpt lat="40.634617" lon="-4.813317">
        <ele>2274.0</ele>
        <time>2014-06-30T14:23:21Z</time>
      </trkpt>
      <trkpt lat="40.634650" lon="-4.813183">
        <ele>2275.0</ele>
        <time>2014-06-30T14:23:22Z</time>
      </trkpt>
      <trkpt lat="40.634700" lon="-4.813050">
        <ele>2278.0</ele>
        <time>2014-06-30T14:23:23Z</time>
      </trkpt>
      <trkpt lat="40.634717" lon="-4.812900">
        <ele>2281.0</ele>
        <time>2014-06-30T14:23:24Z</time>
      </trkpt>
      <trkpt lat="40.634717" lon="-4.812750">
        <ele>2284.0</ele>
        <time>2014-06-30T14:23:25Z</time>
      </trkpt>
      <trkpt lat="40.634700" lon="-4.812583">
        <ele>2289.0</ele>
        <time>2014-06-30T14:23:26Z</time>
      </trkpt>
      <trkpt lat="40.634667" lon="-4.812417">
        <ele>2293.0</ele>
        <time>2014-06-30T14:23:27Z</time>
      </trkpt>
      <trkpt lat="40.634633" lon="-4.812250">
        <ele>2296.0</ele>
        <time>2014-06-30T14:23:28Z</time>
      </trkpt>
      <trkpt lat="40.634567" lon="-4.812100">
        <ele>2300.0</ele>
        <time>2014-06-30T14:23:29Z</time>
      </trkpt>
      <trkpt lat="40.634500" lon="-4.811967">
        <ele>2302.0</ele>
        <time>2014-06-30T14:23:30Z</time>
      </trkpt>
      <trkpt lat="40.634417" lon="-4.811850">
        <ele>2305.0</ele>
        <time>2014-06-30T14:23:31Z</time>
      </trkpt>
      <trkpt lat="40.634333" lon="-4.811733">
        <ele>2308.0</ele>
        <time>2014-06-30T14:23:32Z</time>
      </trkpt>
      <trkpt lat="40.634233" lon="-4.811617">
        <ele>2311.0</ele>
        <time>2014-06-30T14:23:33Z</time>
      </trkpt>
      <trkpt lat="40.634133" lon="-4.811533">
        <ele>2315.0</ele>
        <time>2014-06-30T14:23:34Z</time>
      </trkpt>
      <trkpt lat="40.634033" lon="-4.811483">
        <ele>2319.0</ele>
        <time>2014-06-30T14:23:35Z</time>
      </trkpt>
      <trkpt lat="40.633933" lon="-4.811433">
        <ele>2322.0</ele>
        <time>2014-06-30T14:23:36Z</time>
      </trkpt>
      <trkpt lat="40.633833" lon="-4.811433">
        <ele>2326.0</ele>
        <time>2014-06-30T14:23:37Z</time>
      </trkpt>
      <trkpt lat="40.633733" lon="-4.811433">
        <ele>2330.0</ele>
        <time>2014-06-30T14:23:38Z</time>
      </trkpt>
      <trkpt lat="40.633650" lon="-4.811450">
        <ele>2333.0</ele>
        <time>2014-06-30T14:23:39Z</time>
      </trkpt>
      <trkpt lat="40.633583" lon="-4.811467">
        <ele>2336.0</ele>
        <time>2014-06-30T14:23:40Z</time>
      </trkpt>
      <trkpt lat="40.633517" lon="-4.811500">
        <ele>2339.0</ele>
        <time>2014-06-30T14:23:41Z</time>
      </trkpt>
      <trkpt lat="40.633450" lon="-4.811533">
        <ele>2340.0</ele>
        <time>2014-06-30T14:23:42Z</time>
      </trkpt>
      <trkpt lat="40.633400" lon="-4.811583">
        <ele>2342.0</ele>
        <time>2014-06-30T14:23:43Z</time>
      </trkpt>
      <trkpt lat="40.633350" lon="-4.811650">
        <ele>2343.0</ele>
        <time>2014-06-30T14:23:44Z</time>
      </trkpt>
      <trkpt lat="40.633317" lon="-4.811700">
        <ele>2344.0</ele>
        <time>2014-06-30T14:23:45Z</time>
      </trkpt>
      <trkpt lat="40.633300" lon="-4.811733">
        <ele>2345.0</ele>
        <time>2014-06-30T14:23:46Z</time>
      </trkpt>
      <trkpt lat="40.633283" lon="-4.811783">
        <ele>2347.0</ele>
        <time>2014-06-30T14:23:47Z</time>
      </trkpt>
      <trkpt lat="40.633283" lon="-4.811817">
        <ele>2347.0</ele>
        <time>2014-06-30T14:23:48Z</time>
      </trkpt>
      <trkpt lat="40.633300" lon="-4.811850">
        <ele>2348.0</ele>
        <time>2014-06-30T14:23:49Z</time>
      </trkpt>
      <trkpt lat="40.633317" lon="-4.811900">
        <ele>2348.0</ele>
        <time>2014-06-30T14:23:50Z</time>
      </trkpt>
      <trkpt lat="40.633350" lon="-4.811933">
        <ele>2348.0</ele>
        <time>2014-06-30T14:23:51Z</time>
      </trkpt>
      <trkpt lat="40.633383" lon="-4.811950">
        <ele>2348.0</ele>
        <time>2014-06-30T14:23:52Z</time>
      </trkpt>
      <trkpt lat="40.633433" lon="-4.811967">
        <ele>2348.0</ele>
        <time>2014-06-30T14:23:53Z</time>
      </trkpt>
      <trkpt lat="40.633483" lon="-4.811967">
        <ele>2348.0</ele>
        <time>2014-06-30T14:23:54Z</time>
      </trkpt>
      <trkpt lat="40.633550" lon="-4.811967">
        <ele>2348.0</ele>
        <time>2014-06-30T14:23:55Z</time>
      </trkpt>
      <trkpt lat="40.633600" lon="-4.811950">
        <ele>2348.0</ele>
        <time>2014-06-30T14:23:56Z</time>
      </trkpt>
      <trkpt lat="40.633667" lon="-4.811917">
        <ele>2348.0</ele>
        <time>2014-06-30T14:23:57Z</time>
      </trkpt>
      <trkpt lat="40.633733" lon="-4.811883">
        <ele>2348.0</ele>
        <time>2014-06-30T14:23:58Z</time>
      </trkpt>
      <trkpt lat="40.633800" lon="-4.811833">
        <ele>2348.0</ele>
        <time>2014-06-30T14:23:59Z</time>
      </trkpt>
      <trkpt lat="40.633867" lon="-4.811767">
        <ele>2348.0</ele>
        <time>2014-06-30T14:24:00Z</time>
      </trkpt>
      <trkpt lat="40.633950" lon="-4.811717">
        <ele>2348.0</ele>
        <time>2014-06-30T14:24:01Z</time>
      </trkpt>
      <trkpt lat="40.634017" lon="-4.811650">
        <ele>2347.0</ele>
        <time>2014-06-30T14:24:02Z</time>
      </trkpt>
      <trkpt lat="40.634100" lon="-4.811567">
        <ele>2348.0</ele>
        <time>2014-06-30T14:24:03Z</time>
      </trkpt>
      <trkpt lat="40.634167" lon="-4.811483">
        <ele>2348.0</ele>
        <time>2014-06-30T14:24:04Z</time>
      </trkpt>
      <trkpt lat="40.634250" lon="-4.811400">
        <ele>2349.0</ele>
        <time>2014-06-30T14:24:05Z</time>
      </trkpt>
      <trkpt lat="40.634333" lon="-4.811317">
        <ele>2350.0</ele>
        <time>2014-06-30T14:24:06Z</time>
      </trkpt>
      <trkpt lat="40.634400" lon="-4.811233">
        <ele>2351.0</ele>
        <time>2014-06-30T14:24:07Z</time>
      </trkpt>
      <trkpt lat="40.634483" lon="-4.811150">
        <ele>2353.0</ele>
        <time>2014-06-30T14:24:08Z</time>
      </trkpt>
      <trkpt lat="40.634567" lon="-4.811050">
        <ele>2355.0</ele>
        <time>2014-06-30T14:24:09Z</time>
      </trkpt>
      <trkpt lat="40.634650" lon="-4.810967">
        <ele>2359.0</ele>
        <time>2014-06-30T14:24:10Z</time>
      </trkpt>
      <trkpt lat="40.634733" lon="-4.810867">
        <ele>2364.0</ele>
        <time>2014-06-30T14:24:11Z</time>
      </trkpt>
      <trkpt lat="40.634800" lon="-4.810767">
        <ele>2370.0</ele>
        <time>2014-06-30T14:24:12Z</time>
      </trkpt>
      <trkpt lat="40.634850" lon="-4.810667">
        <ele>2375.0</ele>
        <time>2014-06-30T14:24:13Z</time>
      </trkpt>
      <trkpt lat="40.634917" lon="-4.810567">
        <ele>2380.0</ele>
        <time>2014-06-30T14:24:14Z</time>
      </trkpt>
      <trkpt lat="40.634967" lon="-4.810450">
        <ele>2385.0</ele>
        <time>2014-06-30T14:24:15Z</time>
      </trkpt>
      <trkpt lat="40.635033" lon="-4.810333">
        <ele>2389.0</ele>
        <time>2014-06-30T14:24:16Z</time>
      </trkpt>
      <trkpt lat="40.635100" lon="-4.810217">
        <ele>2393.0</ele>
        <time>2014-06-30T14:24:17Z</time>
      </trkpt>
      <trkpt lat="40.635167" lon="-4.810100">
        <ele>2398.0</ele>
        <time>2014-06-30T14:24:18Z</time>
      </trkpt>
      <trkpt lat="40.635233" lon="-4.809983">
        <ele>2402.0</ele>
        <time>2014-06-30T14:24:19Z</time>
      </trkpt>
      <trkpt lat="40.635267" lon="-4.809867">
        <ele>2406.0</ele>
        <time>2014-06-30T14:24:20Z</time>
      </trkpt>
      <trkpt lat="40.635300" lon="-4.809733">
        <ele>2409.0</ele>
        <time>2014-06-30T14:24:21Z</time>
      </trkpt>
      <trkpt lat="40.635333" lon="-4.809600">
        <ele>2410.0</ele>
        <time>2014-06-30T14:24:22Z</time>
      </trkpt>
      <trkpt lat="40.635333" lon="-4.809433">
        <ele>2409.0</ele>
        <time>2014-06-30T14:24:23Z</time>
      </trkpt>
      <trkpt lat="40.635350" lon="-4.809267">
        <ele>2411.0</ele>
        <time>2014-06-30T14:24:24Z</time>
      </trkpt>
      <trkpt lat="40.635333" lon="-4.809117">
        <ele>2413.0</ele>
        <time>2014-06-30T14:24:25Z</time>
      </trkpt>
      <trkpt lat="40.635317" lon="-4.808967">
        <ele>2416.0</ele>
        <time>2014-06-30T14:24:26Z</time>
      </trkpt>
      <trkpt lat="40.635283" lon="-4.808833">
        <ele>2420.0</ele>
        <time>2014-06-30T14:24:27Z</time>
      </trkpt>
      <trkpt lat="40.635217" lon="-4.808700">
        <ele>2423.0</ele>
        <time>2014-06-30T14:24:28Z</time>
      </trkpt>
      <trkpt lat="40.635167" lon="-4.808600">
        <ele>2426.0</ele>
        <time>2014-06-30T14:24:29Z</time>
      </trkpt>
      <trkpt lat="40.635100" lon="-4.808500">
        <ele>2429.0</ele>
        <time>2014-06-30T14:24:30Z</time>
      </trkpt>
      <trkpt lat="40.635017" lon="-4.808417">
        <ele>2432.0</ele>
        <time>2014-06-30T14:24:31Z</time>
      </trkpt>
      <trkpt lat="40.634950" lon="-4.808367">
        <ele>2435.0</ele>
        <time>2014-06-30T14:24:32Z</time>
      </trkpt>
      <trkpt lat="40.634883" lon="-4.808317">
        <ele>2438.0</ele>
        <time>2014-06-30T14:24:33Z</time>
      </trkpt>
      <trkpt lat="40.634800" lon="-4.808300">
        <ele>2441.0</ele>
        <time>2014-06-30T14:24:34Z</time>
      </trkpt>
      <trkpt lat="40.634733" lon="-4.808283">
        <ele>2443.0</ele>
        <time>2014-06-30T14:24:35Z</time>
      </trkpt>
      <trkpt lat="40.634667" lon="-4.808267">
        <ele>2446.0</ele>
        <time>2014-06-30T14:24:36Z</time>
      </trkpt>
      <trkpt lat="40.634617" lon="-4.808283">
        <ele>2449.0</ele>
        <time>2014-06-30T14:24:37Z</time>
      </trkpt>
      <trkpt lat="40.634567" lon="-4.808300">
        <ele>2452.0</ele>
        <time>2014-06-30T14:24:38Z</time>
      </trkpt>
      <trkpt lat="40.634533" lon="-4.808350">
        <ele>2454.0</ele>
        <time>2014-06-30T14:24:39Z</time>
      </trkpt>
      <trkpt lat="40.634500" lon="-4.808417">
        <ele>2456.0</ele>
        <time>2014-06-30T14:24:40Z</time>
      </trkpt>
      <trkpt lat="40.634500" lon="-4.808483">
        <ele>2457.0</ele>
        <time>2014-06-30T14:24:41Z</time>
      </trkpt>
      <trkpt lat="40.634500" lon="-4.808533">
        <ele>2459.0</ele>
        <time>2014-06-30T14:24:42Z</time>
      </trkpt>
      <trkpt lat="40.634533" lon="-4.808583">
        <ele>2462.0</ele>
        <time>2014-06-30T14:24:43Z</time>
      </trkpt>
      <trkpt lat="40.634550" lon="-4.808633">
        <ele>2465.0</ele>
        <time>2014-06-30T14:24:44Z</time>
      </trkpt>
      <trkpt lat="40.634567" lon="-4.808683">
        <ele>2469.0</ele>
        <time>2014-06-30T14:24:45Z</time>
      </trkpt>
      <trkpt lat="40.634600" lon="-4.808733">
        <ele>2474.0</ele>
        <time>2014-06-30T14:24:46Z</time>
      </trkpt>
      <trkpt lat="40.634650" lon="-4.808750">
        <ele>2480.0</ele>
        <time>2014-06-30T14:24:47Z</time>
      </trkpt>
      <trkpt lat="40.634700" lon="-4.808783">
        <ele>2485.0</ele>
        <time>2014-06-30T14:24:48Z</time>
      </trkpt>
      <trkpt lat="40.634750" lon="-4.808800">
        <ele>2489.0</ele>
        <time>2014-06-30T14:24:49Z</time>
      </trkpt>
      <trkpt lat="40.634800" lon="-4.808817">
        <ele>2493.0</ele>
        <time>2014-06-30T14:24:50Z</time>
      </trkpt>
      <trkpt lat="40.634850" lon="-4.808833">
        <ele>2496.0</ele>
        <time>2014-06-30T14:24:51Z</time>
      </trkpt>
      <trkpt lat="40.634917" lon="-4.808817">
        <ele>2500.0</ele>
        <time>2014-06-30T14:24:52Z</time>
      </trkpt>
      <trkpt lat="40.635000" lon="-4.808783">
        <ele>2502.0</ele>
        <time>2014-06-30T14:24:53Z</time>
      </trkpt>
      <trkpt lat="40.635083" lon="-4.808750">
        <ele>2505.0</ele>
        <time>2014-06-30T14:24:54Z</time>
      </trkpt>
      <trkpt lat="40.635167" lon="-4.808667">
        <ele>2508.0</ele>
        <time>2014-06-30T14:24:55Z</time>
      </trkpt>
      <trkpt lat="40.635250" lon="-4.808583">
        <ele>2512.0</ele>
        <time>2014-06-30T14:24:56Z</time>
      </trkpt>
      <trkpt lat="40.635317" lon="-4.808467">
        <ele>2515.0</ele>
        <time>2014-06-30T14:24:57Z</time>
      </trkpt>
      <trkpt lat="40.635367" lon="-4.808367">
        <ele>2519.0</ele>
        <time>2014-06-30T14:24:58Z</time>
      </trkpt>
      <trkpt lat="40.635417" lon="-4.808233">
        <ele>2522.0</ele>
        <time>2014-06-30T14:24:59Z</time>
      </trkpt>
      <trkpt lat="40.635467" lon="-4.808100">
        <ele>2525.0</ele>
        <time>2014-06-30T14:25:00Z</time>
      </trkpt>
      <trkpt lat="40.635500" lon="-4.807933">
        <ele>2528.0</ele>
        <time>2014-06-30T14:25:01Z</time>
      </trkpt>
      <trkpt lat="40.635533" lon="-4.807767">
        <ele>2530.0</ele>
        <time>2014-06-30T14:25:02Z</time>
      </trkpt>
      <trkpt lat="40.635567" lon="-4.807600">
        <ele>2532.0</ele>
        <time>2014-06-30T14:25:03Z</time>
      </trkpt>
      <trkpt lat="40.635567" lon="-4.807417">
        <ele>2535.0</ele>
        <time>2014-06-30T14:25:04Z</time>
      </trkpt>
      <trkpt lat="40.635567" lon="-4.807267">
        <ele>2538.0</ele>
        <time>2014-06-30T14:25:05Z</time>
      </trkpt>
      <trkpt lat="40.635550" lon="-4.807100">
        <ele>2541.0</ele>
        <time>2014-06-30T14:25:06Z</time>
      </trkpt>
      <trkpt lat="40.635517" lon="-4.806950">
        <ele>2544.0</ele>
        <time>2014-06-30T14:25:07Z</time>
      </trkpt>
      <trkpt lat="40.635483" lon="-4.806800">
        <ele>2547.0</ele>
        <time>2014-06-30T14:25:08Z</time>
      </trkpt>
      <trkpt lat="40.635433" lon="-4.806667">
        <ele>2551.0</ele>
        <time>2014-06-30T14:25:09Z</time>
      </trkpt>
      <trkpt lat="40.635367" lon="-4.806533">
        <ele>2555.0</ele>
        <time>2014-06-30T14:25:10Z</time>
      </trkpt>
      <trkpt lat="40.635300" lon="-4.806450">
        <ele>2558.0</ele>
        <time>2014-06-30T14:25:11Z</time>
      </trkpt>
      <trkpt lat="40.635217" lon="-4.806383">
        <ele>2561.0</ele>
        <time>2014-06-30T14:25:12Z</time>
      </trkpt>
      <trkpt lat="40.635150" lon="-4.806333">
        <ele>2564.0</ele>
        <time>2014-06-30T14:25:13Z</time>
      </trkpt>
      <trkpt lat="40.635083" lon="-4.806283">
        <ele>2566.0</ele>
        <time>2014-06-30T14:25:14Z</time>
      </trkpt>
      <trkpt lat="40.635017" lon="-4.806250">
        <ele>2569.0</ele>
        <time>2014-06-30T14:25:15Z</time>
      </trkpt>
      <trkpt lat="40.634950" lon="-4.806217">
        <ele>2572.0</ele>
        <time>2014-06-30T14:25:16Z</time>
      </trkpt>
      <trkpt lat="40.634883" lon="-4.806200">
        <ele>2574.0</ele>
        <time>2014-06-30T14:25:17Z</time>
      </trkpt>
      <trkpt lat="40.634817" lon="-4.806167">
        <ele>2577.0</ele>
        <time>2014-06-30T14:25:18Z</time>
      </trkpt>
      <trkpt lat="40.634750" lon="-4.806150">
        <ele>2580.0</ele>
        <time>2014-06-30T14:25:19Z</time>
      </trkpt>
      <trkpt lat="40.634700" lon="-4.806167">
        <ele>2584.0</ele>
        <time>2014-06-30T14:25:20Z</time>
      </trkpt>
      <trkpt lat="40.634667" lon="-4.806183">
        <ele>2588.0</ele>
        <time>2014-06-30T14:25:21Z</time>
      </trkpt>
      <trkpt lat="40.634650" lon="-4.806233">
        <ele>2592.0</ele>
        <time>2014-06-30T14:25:22Z</time>
      </trkpt>
      <trkpt lat="40.634650" lon="-4.806267">
        <ele>2596.0</ele>
        <time>2014-06-30T14:25:23Z</time>
      </trkpt>
      <trkpt lat="40.634667" lon="-4.806333">
        <ele>2600.0</ele>
        <time>2014-06-30T14:25:24Z</time>
      </trkpt>
      <trkpt lat="40.634683" lon="-4.806383">
        <ele>2603.0</ele>
        <time>2014-06-30T14:25:25Z</time>
      </trkpt>
      <trkpt lat="40.634717" lon="-4.806433">
        <ele>2607.0</ele>
        <time>2014-06-30T14:25:26Z</time>
      </trkpt>
      <trkpt lat="40.634750" lon="-4.806467">
        <ele>2611.0</ele>
        <time>2014-06-30T14:25:27Z</time>
      </trkpt>
      <trkpt lat="40.634800" lon="-4.806500">
        <ele>2615.0</ele>
        <time>2014-06-30T14:25:28Z</time>
      </trkpt>
      <trkpt lat="40.634867" lon="-4.806533">
        <ele>2618.0</ele>
        <time>2014-06-30T14:25:29Z</time>
      </trkpt>
      <trkpt lat="40.634917" lon="-4.806550">
        <ele>2622.0</ele>
        <time>2014-06-30T14:25:30Z</time>
      </trkpt>
      <trkpt lat="40.634983" lon="-4.806567">
        <ele>2626.0</ele>
        <time>2014-06-30T14:25:31Z</time>
      </trkpt>
      <trkpt lat="40.635067" lon="-4.806567">
        <ele>2629.0</ele>
        <time>2014-06-30T14:25:32Z</time>
      </trkpt>
      <trkpt lat="40.635150" lon="-4.806550">
        <ele>2632.0</ele>
        <time>2014-06-30T14:25:33Z</time>
      </trkpt>
      <trkpt lat="40.635233" lon="-4.806533">
        <ele>2635.0</ele>
        <time>2014-06-30T14:25:34Z</time>
      </trkpt>
      <trkpt lat="40.635317" lon="-4.806483">
        <ele>2638.0</ele>
        <time>2014-06-30T14:25:35Z</time>
      </trkpt>
      <trkpt lat="40.635417" lon="-4.806417">
        <ele>2640.0</ele>
        <time>2014-06-30T14:25:36Z</time>
      </trkpt>
      <trkpt lat="40.635517" lon="-4.806333">
        <ele>2643.0</ele>
        <time>2014-06-30T14:25:37Z</time>
      </trkpt>
      <trkpt lat="40.635617" lon="-4.806217">
        <ele>2646.0</ele>
        <time>2014-06-30T14:25:38Z</time>
      </trkpt>
      <trkpt lat="40.635683" lon="-4.806083">
        <ele>2649.0</ele>
        <time>2014-06-30T14:25:39Z</time>
      </trkpt>
      <trkpt lat="40.635767" lon="-4.805950">
        <ele>2652.0</ele>
        <time>2014-06-30T14:25:40Z</time>
      </trkpt>
      <trkpt lat="40.635833" lon="-4.805800">
        <ele>2655.0</ele>
        <time>2014-06-30T14:25:41Z</time>
      </trkpt>
      <trkpt lat="40.635900" lon="-4.805633">
        <ele>2658.0</ele>
        <time>2014-06-30T14:25:42Z</time>
      </trkpt>
      <trkpt lat="40.635967" lon="-4.805467">
        <ele>2661.0</ele>
        <time>2014-06-30T14:25:43Z</time>
      </trkpt>
      <trkpt lat="40.636000" lon="-4.805300">
        <ele>2663.0</ele>
        <time>2014-06-30T14:25:44Z</time>
      </trkpt>
      <trkpt lat="40.636017" lon="-4.805117">
        <ele>2667.0</ele>
        <time>2014-06-30T14:25:45Z</time>
      </trkpt>
      <trkpt lat="40.636033" lon="-4.804950">
        <ele>2671.0</ele>
        <time>2014-06-30T14:25:46Z</time>
      </trkpt>
      <trkpt lat="40.636017" lon="-4.804783">
        <ele>2674.0</ele>
        <time>2014-06-30T14:25:47Z</time>
      </trkpt>
      <trkpt lat="40.636000" lon="-4.804633">
        <ele>2677.0</ele>
        <time>2014-06-30T14:25:48Z</time>
      </trkpt>
      <trkpt lat="40.635983" lon="-4.804467">
        <ele>2678.0</ele>
        <time>2014-06-30T14:25:49Z</time>
      </trkpt>
      <trkpt lat="40.635933" lon="-4.804317">
        <ele>2679.0</ele>
        <time>2014-06-30T14:25:50Z</time>
      </trkpt>
      <trkpt lat="40.635900" lon="-4.804167">
        <ele>2681.0</ele>
        <time>2014-06-30T14:25:51Z</time>
      </trkpt>
      <trkpt lat="40.635850" lon="-4.804050">
        <ele>2683.0</ele>
        <time>2014-06-30T14:25:52Z</time>
      </trkpt>
      <trkpt lat="40.635783" lon="-4.803950">
        <ele>2685.0</ele>
        <time>2014-06-30T14:25:53Z</time>
      </trkpt>
      <trkpt lat="40.635717" lon="-4.803883">
        <ele>2686.0</ele>
        <time>2014-06-30T14:25:54Z</time>
      </trkpt>
      <trkpt lat="40.635650" lon="-4.803833">
        <ele>2687.0</ele>
        <time>2014-06-30T14:25:55Z</time>
      </trkpt>
      <trkpt lat="40.635583" lon="-4.803800">
        <ele>2689.0</ele>
        <time>2014-06-30T14:25:56Z</time>
      </trkpt>
      <trkpt lat="40.635517" lon="-4.803767">
        <ele>2691.0</ele>
        <time>2014-06-30T14:25:57Z</time>
      </trkpt>
      <trkpt lat="40.635450" lon="-4.803750">
        <ele>2694.0</ele>
        <time>2014-06-30T14:25:58Z</time>
      </trkpt>
      <trkpt lat="40.635400" lon="-4.803750">
        <ele>2697.0</ele>
        <time>2014-06-30T14:25:59Z</time>
      </trkpt>
      <trkpt lat="40.635383" lon="-4.803767">
        <ele>2700.0</ele>
        <time>2014-06-30T14:26:00Z</time>
      </trkpt>
      <trkpt lat="40.635350" lon="-4.803783">
        <ele>2703.0</ele>
        <time>2014-06-30T14:26:01Z</time>
      </trkpt>
      <trkpt lat="40.635350" lon="-4.803817">
        <ele>2706.0</ele>
        <time>2014-06-30T14:26:02Z</time>
      </trkpt>
      <trkpt lat="40.635333" lon="-4.803850">
        <ele>2709.0</ele>
        <time>2014-06-30T14:26:03Z</time>
      </trkpt>
      <trkpt lat="40.635350" lon="-4.803900">
        <ele>2712.0</ele>
        <time>2014-06-30T14:26:04Z</time>
      </trkpt>
      <trkpt lat="40.635367" lon="-4.803950">
        <ele>2715.0</ele>
        <time>2014-06-30T14:26:05Z</time>
      </trkpt>
      <trkpt lat="40.635383" lon="-4.804000">
        <ele>2719.0</ele>
        <time>2014-06-30T14:26:06Z</time>
      </trkpt>
      <trkpt lat="40.635417" lon="-4.804050">
        <ele>2724.0</ele>
        <time>2014-06-30T14:26:07Z</time>
      </trkpt>
      <trkpt lat="40.635450" lon="-4.804100">
        <ele>2729.0</ele>
        <time>2014-06-30T14:26:08Z</time>
      </trkpt>
      <trkpt lat="40.635500" lon="-4.804150">
        <ele>2733.0</ele>
        <time>2014-06-30T14:26:09Z</time>
      </trkpt>
      <trkpt lat="40.635550" lon="-4.804200">
        <ele>2737.0</ele>
        <time>2014-06-30T14:26:10Z</time>
      </trkpt>
      <trkpt lat="40.635600" lon="-4.804250">
        <ele>2740.0</ele>
        <time>2014-06-30T14:26:11Z</time>
      </trkpt>
      <trkpt lat="40.635683" lon="-4.804283">
        <ele>2743.0</ele>
        <time>2014-06-30T14:26:12Z</time>
      </trkpt>
      <trkpt lat="40.635783" lon="-4.804283">
        <ele>2745.0</ele>
        <time>2014-06-30T14:26:13Z</time>
      </trkpt>
      <trkpt lat="40.635883" lon="-4.804267">
        <ele>2747.0</ele>
        <time>2014-06-30T14:26:14Z</time>
      </trkpt>
      <trkpt lat="40.635983" lon="-4.804200">
        <ele>2750.0</ele>
        <time>2014-06-30T14:26:15Z</time>
      </trkpt>
      <trkpt lat="40.636083" lon="-4.804117">
        <ele>2752.0</ele>
        <time>2014-06-30T14:26:16Z</time>
      </trkpt>
      <trkpt lat="40.636167" lon="-4.804000">
        <ele>2755.0</ele>
        <time>2014-06-30T14:26:17Z</time>
      </trkpt>
      <trkpt lat="40.636250" lon="-4.803850">
        <ele>2757.0</ele>
        <time>2014-06-30T14:26:18Z</time>
      </trkpt>
      <trkpt lat="40.636300" lon="-4.803683">
        <ele>2760.0</ele>
        <time>2014-06-30T14:26:19Z</time>
      </trkpt>
      <trkpt lat="40.636333" lon="-4.803517">
        <ele>2762.0</ele>
        <time>2014-06-30T14:26:20Z</time>
      </trkpt>
      <trkpt lat="40.636367" lon="-4.803333">
        <ele>2764.0</ele>
        <time>2014-06-30T14:26:21Z</time>
      </trkpt>
      <trkpt lat="40.636400" lon="-4.803150">
        <ele>2766.0</ele>
        <time>2014-06-30T14:26:22Z</time>
      </trkpt>
      <trkpt lat="40.636467" lon="-4.802983">
        <ele>2767.0</ele>
        <time>2014-06-30T14:26:23Z</time>
      </trkpt>
      <trkpt lat="40.636517" lon="-4.802833">
        <ele>2769.0</ele>
        <time>2014-06-30T14:26:24Z</time>
      </trkpt>
      <trkpt lat="40.636550" lon="-4.802667">
        <ele>2771.0</ele>
        <time>2014-06-30T14:26:25Z</time>
      </trkpt>
      <trkpt lat="40.636583" lon="-4.802517">
        <ele>2774.0</ele>
        <time>2014-06-30T14:26:26Z</time>
      </trkpt>
      <trkpt lat="40.636583" lon="-4.802350">
        <ele>2774.0</ele>
        <time>2014-06-30T14:26:27Z</time>
      </trkpt>
      <trkpt lat="40.636567" lon="-4.802200">
        <ele>2775.0</ele>
        <time>2014-06-30T14:26:28Z</time>
      </trkpt>
      <trkpt lat="40.636550" lon="-4.802033">
        <ele>2774.0</ele>
        <time>2014-06-30T14:26:29Z</time>
      </trkpt>
      <trkpt lat="40.636517" lon="-4.801867">
        <ele>2775.0</ele>
        <time>2014-06-30T14:26:30Z</time>
      </trkpt>
      <trkpt lat="40.636483" lon="-4.801733">
        <ele>2776.0</ele>
        <time>2014-06-30T14:26:31Z</time>
      </trkpt>
      <trkpt lat="40.636433" lon="-4.801600">
        <ele>2777.0</ele>
        <time>2014-06-30T14:26:32Z</time>
      </trkpt>
      <trkpt lat="40.636367" lon="-4.801500">
        <ele>2778.0</ele>
        <time>2014-06-30T14:26:33Z</time>
      </trkpt>
      <trkpt lat="40.636300" lon="-4.801400">
        <ele>2779.0</ele>
        <time>2014-06-30T14:26:34Z</time>
      </trkpt>
      <trkpt lat="40.636233" lon="-4.801333">
        <ele>2780.0</ele>
        <time>2014-06-30T14:26:35Z</time>
      </trkpt>
      <trkpt lat="40.636167" lon="-4.801250">
        <ele>2781.0</ele>
        <time>2014-06-30T14:26:36Z</time>
      </trkpt>
      <trkpt lat="40.636100" lon="-4.801183">
        <ele>2781.0</ele>
        <time>2014-06-30T14:26:37Z</time>
      </trkpt>
      <trkpt lat="40.636033" lon="-4.801117">
        <ele>2781.0</ele>
        <time>2014-06-30T14:26:38Z</time>
      </trkpt>
      <trkpt lat="40.635967" lon="-4.801050">
        <ele>2782.0</ele>
        <time>2014-06-30T14:26:39Z</time>
      </trkpt>
      <trkpt lat="40.635900" lon="-4.800983">
        <ele>2783.0</ele>
        <time>2014-06-30T14:26:40Z</time>
      </trkpt>
      <trkpt lat="40.635833" lon="-4.800933">
        <ele>2785.0</ele>
        <time>2014-06-30T14:26:41Z</time>
      </trkpt>
      <trkpt lat="40.635750" lon="-4.800883">
        <ele>2787.0</ele>
        <time>2014-06-30T14:26:42Z</time>
      </trkpt>
      <trkpt lat="40.635683" lon="-4.800817">
        <ele>2789.0</ele>
        <time>2014-06-30T14:26:43Z</time>
      </trkpt>
      <trkpt lat="40.635600" lon="-4.800750">
        <ele>2791.0</ele>
        <time>2014-06-30T14:26:44Z</time>
      </trkpt>
      <trkpt lat="40.635517" lon="-4.800667">
        <ele>2793.0</ele>
        <time>2014-06-30T14:26:45Z</time>
      </trkpt>
      <trkpt lat="40.635433" lon="-4.800600">
        <ele>2796.0</ele>
        <time>2014-06-30T14:26:46Z</time>
      </trkpt>
      <trkpt lat="40.635350" lon="-4.800567">
        <ele>2799.0</ele>
        <time>2014-06-30T14:26:47Z</time>
      </trkpt>
      <trkpt lat="40.635283" lon="-4.800533">
        <ele>2801.0</ele>
        <time>2014-06-30T14:26:48Z</time>
      </trkpt>
      <trkpt lat="40.635233" lon="-4.800533">
        <ele>2804.0</ele>
        <time>2014-06-30T14:26:49Z</time>
      </trkpt>
      <trkpt lat="40.635183" lon="-4.800533">
        <ele>2806.0</ele>
        <time>2014-06-30T14:26:50Z</time>
      </trkpt>
      <trkpt lat="40.635133" lon="-4.800533">
        <ele>2808.0</ele>
        <time>2014-06-30T14:26:51Z</time>
      </trkpt>
      <trkpt lat="40.635100" lon="-4.800550">
        <ele>2811.0</ele>
        <time>2014-06-30T14:26:52Z</time>
      </trkpt>
      <trkpt lat="40.635050" lon="-4.800567">
        <ele>2813.0</ele>
        <time>2014-06-30T14:26:53Z</time>
      </trkpt>
      <trkpt lat="40.635017" lon="-4.800567">
        <ele>2816.0</ele>
        <time>2014-06-30T14:26:54Z</time>
      </trkpt>
      <trkpt lat="40.634983" lon="-4.800583">
        <ele>2819.0</ele>
        <time>2014-06-30T14:26:55Z</time>
      </trkpt>
      <trkpt lat="40.634950" lon="-4.800600">
        <ele>2822.0</ele>
        <time>2014-06-30T14:26:56Z</time>
      </trkpt>
      <trkpt lat="40.634900" lon="-4.800617">
        <ele>2825.0</ele>
        <time>2014-06-30T14:26:57Z</time>
      </trkpt>
      <trkpt lat="40.634867" lon="-4.800633">
        <ele>2828.0</ele>
        <time>2014-06-30T14:26:58Z</time>
      </trkpt>
      <trkpt lat="40.634850" lon="-4.800667">
        <ele>2831.0</ele>
        <time>2014-06-30T14:26:59Z</time>
      </trkpt>
      <trkpt lat="40.634817" lon="-4.800700">
        <ele>2834.0</ele>
        <time>2014-06-30T14:27:00Z</time>
      </trkpt>
      <trkpt lat="40.634783" lon="-4.800733">
        <ele>2837.0</ele>
        <time>2014-06-30T14:27:01Z</time>
      </trkpt>
      <trkpt lat="40.634767" lon="-4.800767">
        <ele>2840.0</ele>
        <time>2014-06-30T14:27:02Z</time>
      </trkpt>
      <trkpt lat="40.634750" lon="-4.800800">
        <ele>2843.0</ele>
        <time>2014-06-30T14:27:03Z</time>
      </trkpt>
      <trkpt lat="40.634733" lon="-4.800850">
        <ele>2846.0</ele>
        <time>2014-06-30T14:27:04Z</time>
      </trkpt>
      <trkpt lat="40.634700" lon="-4.800900">
        <ele>2848.0</ele>
        <time>2014-06-30T14:27:05Z</time>
      </trkpt>
      <trkpt lat="40.634700" lon="-4.800967">
        <ele>2851.0</ele>
        <time>2014-06-30T14:27:06Z</time>
      </trkpt>
      <trkpt lat="40.634683" lon="-4.801017">
        <ele>2854.0</ele>
        <time>2014-06-30T14:27:07Z</time>
      </trkpt>
      <trkpt lat="40.634733" lon="-4.801033">
        <ele>2857.0</ele>
        <time>2014-06-30T14:27:08Z</time>
      </trkpt>
      <trkpt lat="40.634750" lon="-4.801083">
        <ele>2852.0</ele>
        <time>2014-06-30T14:27:09Z</time>
      </trkpt>
      <trkpt lat="40.634750" lon="-4.801150">
        <ele>2854.0</ele>
        <time>2014-06-30T14:27:10Z</time>
      </trkpt>
      <trkpt lat="40.634767" lon="-4.801200">
        <ele>2855.0</ele>
        <time>2014-06-30T14:27:11Z</time>
      </trkpt>
      <trkpt lat="40.634800" lon="-4.801267">
        <ele>2857.0</ele>
        <time>2014-06-30T14:27:12Z</time>
      </trkpt>
      <trkpt lat="40.634850" lon="-4.801333">
        <ele>2858.0</ele>
        <time>2014-06-30T14:27:13Z</time>
      </trkpt>
      <trkpt lat="40.634917" lon="-4.801383">
        <ele>2860.0</ele>
        <time>2014-06-30T14:27:14Z</time>
      </trkpt>
      <trkpt lat="40.634967" lon="-4.801417">
        <ele>2862.0</ele>
        <time>2014-06-30T14:27:15Z</time>
      </trkpt>
      <trkpt lat="40.635050" lon="-4.801433">
        <ele>2864.0</ele>
        <time>2014-06-30T14:27:16Z</time>
      </trkpt>
      <trkpt lat="40.635133" lon="-4.801433">
        <ele>2865.0</ele>
        <time>2014-06-30T14:27:17Z</time>
      </trkpt>
      <trkpt lat="40.635233" lon="-4.801417">
        <ele>2867.0</ele>
        <time>2014-06-30T14:27:18Z</time>
      </trkpt>
      <trkpt lat="40.635333" lon="-4.801367">
        <ele>2869.0</ele>
        <time>2014-06-30T14:27:19Z</time>
      </trkpt>
      <trkpt lat="40.635417" lon="-4.801283">
        <ele>2871.0</ele>
        <time>2014-06-30T14:27:20Z</time>
      </trkpt>
      <trkpt lat="40.635500" lon="-4.801200">
        <ele>2873.0</ele>
        <time>2014-06-30T14:27:21Z</time>
      </trkpt>
      <trkpt lat="40.635583" lon="-4.801100">
        <ele>2874.0</ele>
        <time>2014-06-30T14:27:22Z</time>
      </trkpt>
      <trkpt lat="40.635667" lon="-4.800983">
        <ele>2875.0</ele>
        <time>2014-06-30T14:27:23Z</time>
      </trkpt>
      <trkpt lat="40.635733" lon="-4.800850">
        <ele>2876.0</ele>
        <time>2014-06-30T14:27:24Z</time>
      </trkpt>
      <trkpt lat="40.635800" lon="-4.800700">
        <ele>2876.0</ele>
        <time>2014-06-30T14:27:25Z</time>
      </trkpt>
      <trkpt lat="40.635867" lon="-4.800533">
        <ele>2876.0</ele>
        <time>2014-06-30T14:27:26Z</time>
      </trkpt>
      <trkpt lat="40.635933" lon="-4.800350">
        <ele>2876.0</ele>
        <time>2014-06-30T14:27:27Z</time>
      </trkpt>
      <trkpt lat="40.635983" lon="-4.800167">
        <ele>2877.0</ele>
        <time>2014-06-30T14:27:28Z</time>
      </trkpt>
      <trkpt lat="40.636017" lon="-4.800000">
        <ele>2878.0</ele>
        <time>2014-06-30T14:27:29Z</time>
      </trkpt>
      <trkpt lat="40.636033" lon="-4.799833">
        <ele>2880.0</ele>
        <time>2014-06-30T14:27:30Z</time>
      </trkpt>
      <trkpt lat="40.636050" lon="-4.799667">
        <ele>2882.0</ele>
        <time>2014-06-30T14:27:31Z</time>
      </trkpt>
      <trkpt lat="40.636050" lon="-4.799517">
        <ele>2883.0</ele>
        <time>2014-06-30T14:27:32Z</time>
      </trkpt>
      <trkpt lat="40.636050" lon="-4.799350">
        <ele>2883.0</ele>
        <time>2014-06-30T14:27:33Z</time>
      </trkpt>
      <trkpt lat="40.636050" lon="-4.799183">
        <ele>2883.0</ele>
        <time>2014-06-30T14:27:34Z</time>
      </trkpt>
      <trkpt lat="40.636033" lon="-4.799017">
        <ele>2883.0</ele>
        <time>2014-06-30T14:27:35Z</time>
      </trkpt>
      <trkpt lat="40.636000" lon="-4.798833">
        <ele>2883.0</ele>
        <time>2014-06-30T14:27:36Z</time>
      </trkpt>
      <trkpt lat="40.635967" lon="-4.798683">
        <ele>2884.0</ele>
        <time>2014-06-30T14:27:37Z</time>
      </trkpt>
      <trkpt lat="40.635933" lon="-4.798517">
        <ele>2885.0</ele>
        <time>2014-06-30T14:27:38Z</time>
      </trkpt>
      <trkpt lat="40.635900" lon="-4.798350">
        <ele>2887.0</ele>
        <time>2014-06-30T14:27:39Z</time>
      </trkpt>
      <trkpt lat="40.635883" lon="-4.798200">
        <ele>2888.0</ele>
        <time>2014-06-30T14:27:40Z</time>
      </trkpt>
      <trkpt lat="40.635867" lon="-4.798033">
        <ele>2890.0</ele>
        <time>2014-06-30T14:27:41Z</time>
      </trkpt>
      <trkpt lat="40.635833" lon="-4.797850">
        <ele>2891.0</ele>
        <time>2014-06-30T14:27:42Z</time>
      </trkpt>
      <trkpt lat="40.635800" lon="-4.797683">
        <ele>2893.0</ele>
        <time>2014-06-30T14:27:43Z</time>
      </trkpt>
      <trkpt lat="40.635783" lon="-4.797533">
        <ele>2895.0</ele>
        <time>2014-06-30T14:27:44Z</time>
      </trkpt>
      <trkpt lat="40.635750" lon="-4.797383">
        <ele>2897.0</ele>
        <time>2014-06-30T14:27:45Z</time>
      </trkpt>
      <trkpt lat="40.635717" lon="-4.797233">
        <ele>2899.0</ele>
        <time>2014-06-30T14:27:46Z</time>
      </trkpt>
      <trkpt lat="40.635667" lon="-4.797067">
        <ele>2900.0</ele>
        <time>2014-06-30T14:27:47Z</time>
      </trkpt>
      <trkpt lat="40.635617" lon="-4.796917">
        <ele>2902.0</ele>
        <time>2014-06-30T14:27:48Z</time>
      </trkpt>
      <trkpt lat="40.635567" lon="-4.796767">
        <ele>2906.0</ele>
        <time>2014-06-30T14:27:49Z</time>
      </trkpt>
      <trkpt lat="40.635533" lon="-4.796633">
        <ele>2908.0</ele>
        <time>2014-06-30T14:27:50Z</time>
      </trkpt>
      <trkpt lat="40.635500" lon="-4.796500">
        <ele>2910.0</ele>
        <time>2014-06-30T14:27:51Z</time>
      </trkpt>
      <trkpt lat="40.635467" lon="-4.796367">
        <ele>2912.0</ele>
        <time>2014-06-30T14:27:52Z</time>
      </trkpt>
      <trkpt lat="40.635417" lon="-4.796233">
        <ele>2913.0</ele>
        <time>2014-06-30T14:27:53Z</time>
      </trkpt>
      <trkpt lat="40.635383" lon="-4.796100">
        <ele>2913.0</ele>
        <time>2014-06-30T14:27:54Z</time>
      </trkpt>
      <trkpt lat="40.635333" lon="-4.795950">
        <ele>2914.0</ele>
        <time>2014-06-30T14:27:55Z</time>
      </trkpt>
      <trkpt lat="40.635283" lon="-4.795817">
        <ele>2914.0</ele>
        <time>2014-06-30T14:27:56Z</time>
      </trkpt>
      <trkpt lat="40.635217" lon="-4.795717">
        <ele>2914.0</ele>
        <time>2014-06-30T14:27:57Z</time>
      </trkpt>
      <trkpt lat="40.635150" lon="-4.795617">
        <ele>2915.0</ele>
        <time>2014-06-30T14:27:58Z</time>
      </trkpt>
      <trkpt lat="40.635067" lon="-4.795567">
        <ele>2915.0</ele>
        <time>2014-06-30T14:27:59Z</time>
      </trkpt>
      <trkpt lat="40.635017" lon="-4.795517">
        <ele>2916.0</ele>
        <time>2014-06-30T14:28:00Z</time>
      </trkpt>
      <trkpt lat="40.634967" lon="-4.795467">
        <ele>2918.0</ele>
        <time>2014-06-30T14:28:01Z</time>
      </trkpt>
      <trkpt lat="40.634917" lon="-4.795450">
        <ele>2920.0</ele>
        <time>2014-06-30T14:28:02Z</time>
      </trkpt>
      <trkpt lat="40.634867" lon="-4.795417">
        <ele>2921.0</ele>
        <time>2014-06-30T14:28:03Z</time>
      </trkpt>
      <trkpt lat="40.634817" lon="-4.795400">
        <ele>2922.0</ele>
        <time>2014-06-30T14:28:04Z</time>
      </trkpt>
      <trkpt lat="40.634767" lon="-4.795383">
        <ele>2923.0</ele>
        <time>2014-06-30T14:28:05Z</time>
      </trkpt>
      <trkpt lat="40.634717" lon="-4.795367">
        <ele>2923.0</ele>
        <time>2014-06-30T14:28:06Z</time>
      </trkpt>
      <trkpt lat="40.634683" lon="-4.795367">
        <ele>2923.0</ele>
        <time>2014-06-30T14:28:07Z</time>
      </trkpt>
      <trkpt lat="40.634633" lon="-4.795383">
        <ele>2924.0</ele>
        <time>2014-06-30T14:28:08Z</time>
      </trkpt>
      <trkpt lat="40.634600" lon="-4.795383">
        <ele>2924.0</ele>
        <time>2014-06-30T14:28:09Z</time>
      </trkpt>
      <trkpt lat="40.634567" lon="-4.795417">
        <ele>2925.0</ele>
        <time>2014-06-30T14:28:10Z</time>
      </trkpt>
      <trkpt lat="40.634567" lon="-4.795433">
        <ele>2926.0</ele>
        <time>2014-06-30T14:28:11Z</time>
      </trkpt>
      <trkpt lat="40.634550" lon="-4.795467">
        <ele>2927.0</ele>
        <time>2014-06-30T14:28:12Z</time>
      </trkpt>
      <trkpt lat="40.634550" lon="-4.795483">
        <ele>2929.0</ele>
        <time>2014-06-30T14:28:13Z</time>
      </trkpt>
      <trkpt lat="40.634550" lon="-4.795517">
        <ele>2930.0</ele>
        <time>2014-06-30T14:28:14Z</time>
      </trkpt>
      <trkpt lat="40.634550" lon="-4.795550">
        <ele>2931.0</ele>
        <time>2014-06-30T14:28:15Z</time>
      </trkpt>
      <trkpt lat="40.634550" lon="-4.795583">
        <ele>2932.0</ele>
        <time>2014-06-30T14:28:16Z</time>
      </trkpt>
      <trkpt lat="40.634533" lon="-4.795617">
        <ele>2933.0</ele>
        <time>2014-06-30T14:28:17Z</time>
      </trkpt>
      <trkpt lat="40.634517" lon="-4.795650">
        <ele>2934.0</ele>
        <time>2014-06-30T14:28:18Z</time>
      </trkpt>
      <trkpt lat="40.634517" lon="-4.795700">
        <ele>2935.0</ele>
        <time>2014-06-30T14:28:19Z</time>
      </trkpt>
      <trkpt lat="40.634500" lon="-4.795750">
        <ele>2935.0</ele>
        <time>2014-06-30T14:28:20Z</time>
      </trkpt>
      <trkpt lat="40.634533" lon="-4.795800">
        <ele>2937.0</ele>
        <time>2014-06-30T14:28:21Z</time>
      </trkpt>
      <trkpt lat="40.634550" lon="-4.795833">
        <ele>2934.0</ele>
        <time>2014-06-30T14:28:22Z</time>
      </trkpt>
      <trkpt lat="40.634567" lon="-4.795883">
        <ele>2935.0</ele>
        <time>2014-06-30T14:28:23Z</time>
      </trkpt>
      <trkpt lat="40.634583" lon="-4.795917">
        <ele>2935.0</ele>
        <time>2014-06-30T14:28:24Z</time>
      </trkpt>
      <trkpt lat="40.634617" lon="-4.795967">
        <ele>2936.0</ele>
        <time>2014-06-30T14:28:25Z</time>
      </trkpt>
      <trkpt lat="40.634650" lon="-4.796000">
        <ele>2936.0</ele>
        <time>2014-06-30T14:28:26Z</time>
      </trkpt>
      <trkpt lat="40.634717" lon="-4.796033">
        <ele>2937.0</ele>
        <time>2014-06-30T14:28:27Z</time>
      </trkpt>
      <trkpt lat="40.634783" lon="-4.796067">
        <ele>2937.0</ele>
        <time>2014-06-30T14:28:28Z</time>
      </trkpt>
      <trkpt lat="40.634850" lon="-4.796067">
        <ele>2937.0</ele>
        <time>2014-06-30T14:28:29Z</time>
      </trkpt>
      <trkpt lat="40.634950" lon="-4.796033">
        <ele>2938.0</ele>
        <time>2014-06-30T14:28:30Z</time>
      </trkpt>
      <trkpt lat="40.635033" lon="-4.795983">
        <ele>2939.0</ele>
        <time>2014-06-30T14:28:31Z</time>
      </trkpt>
      <trkpt lat="40.635133" lon="-4.795917">
        <ele>2939.0</ele>
        <time>2014-06-30T14:28:32Z</time>
      </trkpt>
      <trkpt lat="40.635233" lon="-4.795850">
        <ele>2939.0</ele>
        <time>2014-06-30T14:28:33Z</time>
      </trkpt>
      <trkpt lat="40.635317" lon="-4.795767">
        <ele>2940.0</ele>
        <time>2014-06-30T14:28:34Z</time>
      </trkpt>
      <trkpt lat="40.635400" lon="-4.795683">
        <ele>2941.0</ele>
        <time>2014-06-30T14:28:35Z</time>
      </trkpt>
      <trkpt lat="40.635500" lon="-4.795600">
        <ele>2941.0</ele>
        <time>2014-06-30T14:28:36Z</time>
      </trkpt>
      <trkpt lat="40.635583" lon="-4.795517">
        <ele>2940.0</ele>
        <time>2014-06-30T14:28:37Z</time>
      </trkpt>
      <trkpt lat="40.635683" lon="-4.795417">
        <ele>2940.0</ele>
        <time>2014-06-30T14:28:38Z</time>
      </trkpt>
      <trkpt lat="40.635783" lon="-4.795300">
        <ele>2939.0</ele>
        <time>2014-06-30T14:28:39Z</time>
      </trkpt>
      <trkpt lat="40.635883" lon="-4.795183">
        <ele>2939.0</ele>
        <time>2014-06-30T14:28:40Z</time>
      </trkpt>
      <trkpt lat="40.635967" lon="-4.795050">
        <ele>2938.0</ele>
        <time>2014-06-30T14:28:41Z</time>
      </trkpt>
      <trkpt lat="40.636083" lon="-4.794917">
        <ele>2937.0</ele>
        <time>2014-06-30T14:28:42Z</time>
      </trkpt>
      <trkpt lat="40.636183" lon="-4.794783">
        <ele>2936.0</ele>
        <time>2014-06-30T14:28:43Z</time>
      </trkpt>
      <trkpt lat="40.636267" lon="-4.794633">
        <ele>2937.0</ele>
        <time>2014-06-30T14:28:44Z</time>
      </trkpt>
      <trkpt lat="40.636367" lon="-4.794500">
        <ele>2937.0</ele>
        <time>2014-06-30T14:28:45Z</time>
      </trkpt>
      <trkpt lat="40.636450" lon="-4.794383">
        <ele>2938.0</ele>
        <time>2014-06-30T14:28:46Z</time>
      </trkpt>
      <trkpt lat="40.636533" lon="-4.794250">
        <ele>2938.0</ele>
        <time>2014-06-30T14:28:47Z</time>
      </trkpt>
      <trkpt lat="40.636600" lon="-4.794117">
        <ele>2938.0</ele>
        <time>2014-06-30T14:28:48Z</time>
      </trkpt>
      <trkpt lat="40.636683" lon="-4.793983">
        <ele>2938.0</ele>
        <time>2014-06-30T14:28:49Z</time>
      </trkpt>
      <trkpt lat="40.636750" lon="-4.793850">
        <ele>2938.0</ele>
        <time>2014-06-30T14:28:50Z</time>
      </trkpt>
      <trkpt lat="40.636833" lon="-4.793717">
        <ele>2938.0</ele>
        <time>2014-06-30T14:28:51Z</time>
      </trkpt>
      <trkpt lat="40.636900" lon="-4.793567">
        <ele>2937.0</ele>
        <time>2014-06-30T14:28:52Z</time>
      </trkpt>
      <trkpt lat="40.636967" lon="-4.793433">
        <ele>2937.0</ele>
        <time>2014-06-30T14:28:53Z</time>
      </trkpt>
      <trkpt lat="40.637033" lon="-4.793283">
        <ele>2937.0</ele>
        <time>2014-06-30T14:28:54Z</time>
      </trkpt>
      <trkpt lat="40.637117" lon="-4.793150">
        <ele>2937.0</ele>
        <time>2014-06-30T14:28:55Z</time>
      </trkpt>
      <trkpt lat="40.637183" lon="-4.793000">
        <ele>2936.0</ele>
        <time>2014-06-30T14:28:56Z</time>
      </trkpt>
      <trkpt lat="40.637267" lon="-4.792867">
        <ele>2936.0</ele>
        <time>2014-06-30T14:28:57Z</time>
      </trkpt>
      <trkpt lat="40.637333" lon="-4.792750">
        <ele>2935.0</ele>
        <time>2014-06-30T14:28:58Z</time>
      </trkpt>
      <trkpt lat="40.637433" lon="-4.792633">
        <ele>2934.0</ele>
        <time>2014-06-30T14:28:59Z</time>
      </trkpt>
      <trkpt lat="40.637517" lon="-4.792533">
        <ele>2932.0</ele>
        <time>2014-06-30T14:29:00Z</time>
      </trkpt>
      <trkpt lat="40.637617" lon="-4.792433">
        <ele>2931.0</ele>
        <time>2014-06-30T14:29:01Z</time>
      </trkpt>
      <trkpt lat="40.637700" lon="-4.792317">
        <ele>2930.0</ele>
        <time>2014-06-30T14:29:02Z</time>
      </trkpt>
      <trkpt lat="40.637783" lon="-4.792217">
        <ele>2928.0</ele>
        <time>2014-06-30T14:29:03Z</time>
      </trkpt>
      <trkpt lat="40.637850" lon="-4.792100">
        <ele>2927.0</ele>
        <time>2014-06-30T14:29:04Z</time>
      </trkpt>
      <trkpt lat="40.637933" lon="-4.791983">
        <ele>2925.0</ele>
        <time>2014-06-30T14:29:05Z</time>
      </trkpt>
      <trkpt lat="40.638017" lon="-4.791867">
        <ele>2923.0</ele>
        <time>2014-06-30T14:29:06Z</time>
      </trkpt>
      <trkpt lat="40.638100" lon="-4.791733">
        <ele>2921.0</ele>
        <time>2014-06-30T14:29:07Z</time>
      </trkpt>
      <trkpt lat="40.638183" lon="-4.791617">
        <ele>2918.0</ele>
        <time>2014-06-30T14:29:08Z</time>
      </trkpt>
      <trkpt lat="40.638267" lon="-4.791517">
        <ele>2916.0</ele>
        <time>2014-06-30T14:29:09Z</time>
      </trkpt>
      <trkpt lat="40.638350" lon="-4.791417">
        <ele>2915.0</ele>
        <time>2014-06-30T14:29:10Z</time>
      </trkpt>
      <trkpt lat="40.638433" lon="-4.791317">
        <ele>2913.0</ele>
        <time>2014-06-30T14:29:11Z</time>
      </trkpt>
      <trkpt lat="40.638517" lon="-4.791200">
        <ele>2911.0</ele>
        <time>2014-06-30T14:29:12Z</time>
      </trkpt>
      <trkpt lat="40.638617" lon="-4.791083">
        <ele>2908.0</ele>
        <time>2014-06-30T14:29:13Z</time>
      </trkpt>
      <trkpt lat="40.638700" lon="-4.790983">
        <ele>2907.0</ele>
        <time>2014-06-30T14:29:14Z</time>
      </trkpt>
      <trkpt lat="40.638767" lon="-4.790867">
        <ele>2906.0</ele>
        <time>2014-06-30T14:29:15Z</time>
      </trkpt>
      <trkpt lat="40.638850" lon="-4.790767">
        <ele>2905.0</ele>
        <time>2014-06-30T14:29:16Z</time>
      </trkpt>
      <trkpt lat="40.638917" lon="-4.790650">
        <ele>2904.0</ele>
        <time>2014-06-30T14:29:17Z</time>
      </trkpt>
      <trkpt lat="40.639000" lon="-4.790550">
        <ele>2902.0</ele>
        <time>2014-06-30T14:29:18Z</time>
      </trkpt>
      <trkpt lat="40.639083" lon="-4.790450">
        <ele>2900.0</ele>
        <time>2014-06-30T14:29:19Z</time>
      </trkpt>
      <trkpt lat="40.639167" lon="-4.790367">
        <ele>2898.0</ele>
        <time>2014-06-30T14:29:20Z</time>
      </trkpt>
      <trkpt lat="40.639250" lon="-4.790267">
        <ele>2896.0</ele>
        <time>2014-06-30T14:29:21Z</time>
      </trkpt>
      <trkpt lat="40.639317" lon="-4.790150">
        <ele>2896.0</ele>
        <time>2014-06-30T14:29:22Z</time>
      </trkpt>
      <trkpt lat="40.639383" lon="-4.790017">
        <ele>2894.0</ele>
        <time>2014-06-30T14:29:23Z</time>
      </trkpt>
      <trkpt lat="40.639433" lon="-4.789883">
        <ele>2893.0</ele>
        <time>2014-06-30T14:29:24Z</time>
      </trkpt>
      <trkpt lat="40.639483" lon="-4.789750">
        <ele>2892.0</ele>
        <time>2014-06-30T14:29:25Z</time>
      </trkpt>
      <trkpt lat="40.639550" lon="-4.789600">
        <ele>2890.0</ele>
        <time>2014-06-30T14:29:26Z</time>
      </trkpt>
      <trkpt lat="40.639600" lon="-4.789483">
        <ele>2888.0</ele>
        <time>2014-06-30T14:29:27Z</time>
      </trkpt>
      <trkpt lat="40.639683" lon="-4.789383">
        <ele>2886.0</ele>
        <time>2014-06-30T14:29:28Z</time>
      </trkpt>
      <trkpt lat="40.639767" lon="-4.789283">
        <ele>2884.0</ele>
        <time>2014-06-30T14:29:29Z</time>
      </trkpt>
      <trkpt lat="40.639850" lon="-4.789200">
        <ele>2882.0</ele>
        <time>2014-06-30T14:29:30Z</time>
      </trkpt>
      <trkpt lat="40.639933" lon="-4.789083">
        <ele>2880.0</ele>
        <time>2014-06-30T14:29:31Z</time>
      </trkpt>
      <trkpt lat="40.640017" lon="-4.788983">
        <ele>2878.0</ele>
        <time>2014-06-30T14:29:32Z</time>
      </trkpt>
      <trkpt lat="40.640100" lon="-4.788867">
        <ele>2876.0</ele>
        <time>2014-06-30T14:29:33Z</time>
      </trkpt>
      <trkpt lat="40.640167" lon="-4.788750">
        <ele>2874.0</ele>
        <time>2014-06-30T14:29:34Z</time>
      </trkpt>
      <trkpt lat="40.640250" lon="-4.788633">
        <ele>2872.0</ele>
        <time>2014-06-30T14:29:35Z</time>
      </trkpt>
      <trkpt lat="40.640333" lon="-4.788517">
        <ele>2870.0</ele>
        <time>2014-06-30T14:29:36Z</time>
      </trkpt>
      <trkpt lat="40.640417" lon="-4.788400">
        <ele>2867.0</ele>
        <time>2014-06-30T14:29:37Z</time>
      </trkpt>
      <trkpt lat="40.640500" lon="-4.788283">
        <ele>2864.0</ele>
        <time>2014-06-30T14:29:38Z</time>
      </trkpt>
      <trkpt lat="40.640583" lon="-4.788167">
        <ele>2861.0</ele>
        <time>2014-06-30T14:29:39Z</time>
      </trkpt>
      <trkpt lat="40.640683" lon="-4.788033">
        <ele>2858.0</ele>
        <time>2014-06-30T14:29:40Z</time>
      </trkpt>
      <trkpt lat="40.640767" lon="-4.787900">
        <ele>2855.0</ele>
        <time>2014-06-30T14:29:41Z</time>
      </trkpt>
      <trkpt lat="40.640867" lon="-4.787767">
        <ele>2853.0</ele>
        <time>2014-06-30T14:29:42Z</time>
      </trkpt>
      <trkpt lat="40.640967" lon="-4.787650">
        <ele>2851.0</ele>
        <time>2014-06-30T14:29:43Z</time>
      </trkpt>
      <trkpt lat="40.641050" lon="-4.787533">
        <ele>2850.0</ele>
        <time>2014-06-30T14:29:44Z</time>
      </trkpt>
      <trkpt lat="40.641133" lon="-4.787417">
        <ele>2849.0</ele>
        <time>2014-06-30T14:29:45Z</time>
      </trkpt>
      <trkpt lat="40.641200" lon="-4.787300">
        <ele>2848.0</ele>
        <time>2014-06-30T14:29:46Z</time>
      </trkpt>
      <trkpt lat="40.641267" lon="-4.787167">
        <ele>2847.0</ele>
        <time>2014-06-30T14:29:47Z</time>
      </trkpt>
      <trkpt lat="40.641333" lon="-4.787017">
        <ele>2845.0</ele>
        <time>2014-06-30T14:29:48Z</time>
      </trkpt>
      <trkpt lat="40.641400" lon="-4.786867">
        <ele>2843.0</ele>
        <time>2014-06-30T14:29:49Z</time>
      </trkpt>
      <trkpt lat="40.641467" lon="-4.786733">
        <ele>2842.0</ele>
        <time>2014-06-30T14:29:50Z</time>
      </trkpt>
      <trkpt lat="40.641533" lon="-4.786600">
        <ele>2841.0</ele>
        <time>2014-06-30T14:29:51Z</time>
      </trkpt>
      <trkpt lat="40.641583" lon="-4.786483">
        <ele>2840.0</ele>
        <time>2014-06-30T14:29:52Z</time>
      </trkpt>
      <trkpt lat="40.641650" lon="-4.786367">
        <ele>2838.0</ele>
        <time>2014-06-30T14:29:53Z</time>
      </trkpt>
      <trkpt lat="40.641733" lon="-4.786250">
        <ele>2836.0</ele>
        <time>2014-06-30T14:29:54Z</time>
      </trkpt>
      <trkpt lat="40.641800" lon="-4.786133">
        <ele>2834.0</ele>
        <time>2014-06-30T14:29:55Z</time>
      </trkpt>
      <trkpt lat="40.641900" lon="-4.786033">
        <ele>2831.0</ele>
        <time>2014-06-30T14:29:56Z</time>
      </trkpt>
      <trkpt lat="40.641983" lon="-4.785917">
        <ele>2829.0</ele>
        <time>2014-06-30T14:29:57Z</time>
      </trkpt>
      <trkpt lat="40.642067" lon="-4.785817">
        <ele>2828.0</ele>
        <time>2014-06-30T14:29:58Z</time>
      </trkpt>
      <trkpt lat="40.642150" lon="-4.785733">
        <ele>2826.0</ele>
        <time>2014-06-30T14:29:59Z</time>
      </trkpt>
      <trkpt lat="40.642233" lon="-4.785617">
        <ele>2824.0</ele>
        <time>2014-06-30T14:30:00Z</time>
      </trkpt>
      <trkpt lat="40.642317" lon="-4.785500">
        <ele>2822.0</ele>
        <time>2014-06-30T14:30:01Z</time>
      </trkpt>
      <trkpt lat="40.642400" lon="-4.785400">
        <ele>2820.0</ele>
        <time>2014-06-30T14:30:02Z</time>
      </trkpt>
      <trkpt lat="40.642483" lon="-4.785283">
        <ele>2817.0</ele>
        <time>2014-06-30T14:30:03Z</time>
      </trkpt>
      <trkpt lat="40.642583" lon="-4.785183">
        <ele>2814.0</ele>
        <time>2014-06-30T14:30:04Z</time>
      </trkpt>
      <trkpt lat="40.642667" lon="-4.785083">
        <ele>2811.0</ele>
        <time>2014-06-30T14:30:05Z</time>
      </trkpt>
      <trkpt lat="40.642750" lon="-4.784967">
        <ele>2808.0</ele>
        <time>2014-06-30T14:30:06Z</time>
      </trkpt>
      <trkpt lat="40.642850" lon="-4.784850">
        <ele>2804.0</ele>
        <time>2014-06-30T14:30:07Z</time>
      </trkpt>
      <trkpt lat="40.642950" lon="-4.784717">
        <ele>2801.0</ele>
        <time>2014-06-30T14:30:08Z</time>
      </trkpt>
      <trkpt lat="40.643050" lon="-4.784600">
        <ele>2797.0</ele>
        <time>2014-06-30T14:30:09Z</time>
      </trkpt>
      <trkpt lat="40.643150" lon="-4.784483">
        <ele>2793.0</ele>
        <time>2014-06-30T14:30:10Z</time>
      </trkpt>
      <trkpt lat="40.643250" lon="-4.784367">
        <ele>2790.0</ele>
        <time>2014-06-30T14:30:11Z</time>
      </trkpt>
      <trkpt lat="40.643350" lon="-4.784233">
        <ele>2787.0</ele>
        <time>2014-06-30T14:30:12Z</time>
      </trkpt>
      <trkpt lat="40.643433" lon="-4.784100">
        <ele>2783.0</ele>
        <time>2014-06-30T14:30:13Z</time>
      </trkpt>
      <trkpt lat="40.643517" lon="-4.783967">
        <ele>2779.0</ele>
        <time>2014-06-30T14:30:14Z</time>
      </trkpt>
      <trkpt lat="40.643617" lon="-4.783817">
        <ele>2775.0</ele>
        <time>2014-06-30T14:30:15Z</time>
      </trkpt>
      <trkpt lat="40.643700" lon="-4.783667">
        <ele>2771.0</ele>
        <time>2014-06-30T14:30:16Z</time>
      </trkpt>
      <trkpt lat="40.643800" lon="-4.783517">
        <ele>2766.0</ele>
        <time>2014-06-30T14:30:17Z</time>
      </trkpt>
      <trkpt lat="40.643900" lon="-4.783367">
        <ele>2762.0</ele>
        <time>2014-06-30T14:30:18Z</time>
      </trkpt>
      <trkpt lat="40.644000" lon="-4.783200">
        <ele>2758.0</ele>
        <time>2014-06-30T14:30:19Z</time>
      </trkpt>
      <trkpt lat="40.644083" lon="-4.783050">
        <ele>2754.0</ele>
        <time>2014-06-30T14:30:20Z</time>
      </trkpt>
      <trkpt lat="40.644167" lon="-4.782900">
        <ele>2750.0</ele>
        <time>2014-06-30T14:30:21Z</time>
      </trkpt>
      <trkpt lat="40.644233" lon="-4.782733">
        <ele>2746.0</ele>
        <time>2014-06-30T14:30:22Z</time>
      </trkpt>
      <trkpt lat="40.644317" lon="-4.782567">
        <ele>2741.0</ele>
        <time>2014-06-30T14:30:23Z</time>
      </trkpt>
      <trkpt lat="40.644400" lon="-4.782400">
        <ele>2737.0</ele>
        <time>2014-06-30T14:30:24Z</time>
      </trkpt>
      <trkpt lat="40.644467" lon="-4.782250">
        <ele>2734.0</ele>
        <time>2014-06-30T14:30:25Z</time>
      </trkpt>
      <trkpt lat="40.644550" lon="-4.782100">
        <ele>2731.0</ele>
        <time>2014-06-30T14:30:26Z</time>
      </trkpt>
      <trkpt lat="40.644617" lon="-4.781950">
        <ele>2728.0</ele>
        <time>2014-06-30T14:30:27Z</time>
      </trkpt>
      <trkpt lat="40.644700" lon="-4.781817">
        <ele>2725.0</ele>
        <time>2014-06-30T14:30:28Z</time>
      </trkpt>
      <trkpt lat="40.644783" lon="-4.781683">
        <ele>2721.0</ele>
        <time>2014-06-30T14:30:29Z</time>
      </trkpt>
      <trkpt lat="40.644867" lon="-4.781533">
        <ele>2718.0</ele>
        <time>2014-06-30T14:30:30Z</time>
      </trkpt>
      <trkpt lat="40.644967" lon="-4.781400">
        <ele>2714.0</ele>
        <time>2014-06-30T14:30:31Z</time>
      </trkpt>
      <trkpt lat="40.645050" lon="-4.781267">
        <ele>2712.0</ele>
        <time>2014-06-30T14:30:32Z</time>
      </trkpt>
      <trkpt lat="40.645150" lon="-4.781150">
        <ele>2710.0</ele>
        <time>2014-06-30T14:30:33Z</time>
      </trkpt>
      <trkpt lat="40.645233" lon="-4.781017">
        <ele>2707.0</ele>
        <time>2014-06-30T14:30:34Z</time>
      </trkpt>
      <trkpt lat="40.645333" lon="-4.780883">
        <ele>2704.0</ele>
        <time>2014-06-30T14:30:35Z</time>
      </trkpt>
      <trkpt lat="40.645433" lon="-4.780750">
        <ele>2702.0</ele>
        <time>2014-06-30T14:30:36Z</time>
      </trkpt>
      <trkpt lat="40.645533" lon="-4.780617">
        <ele>2699.0</ele>
        <time>2014-06-30T14:30:37Z</time>
      </trkpt>
      <trkpt lat="40.645650" lon="-4.780500">
        <ele>2696.0</ele>
        <time>2014-06-30T14:30:38Z</time>
      </trkpt>
      <trkpt lat="40.645767" lon="-4.780367">
        <ele>2693.0</ele>
        <time>2014-06-30T14:30:39Z</time>
      </trkpt>
      <trkpt lat="40.645883" lon="-4.780233">
        <ele>2690.0</ele>
        <time>2014-06-30T14:30:40Z</time>
      </trkpt>
      <trkpt lat="40.645983" lon="-4.780083">
        <ele>2688.0</ele>
        <time>2014-06-30T14:30:41Z</time>
      </trkpt>
      <trkpt lat="40.646100" lon="-4.779950">
        <ele>2685.0</ele>
        <time>2014-06-30T14:30:42Z</time>
      </trkpt>
      <trkpt lat="40.646217" lon="-4.779817">
        <ele>2683.0</ele>
        <time>2014-06-30T14:30:43Z</time>
      </trkpt>
      <trkpt lat="40.646333" lon="-4.779683">
        <ele>2680.0</ele>
        <time>2014-06-30T14:30:44Z</time>
      </trkpt>
      <trkpt lat="40.646450" lon="-4.779550">
        <ele>2677.0</ele>
        <time>2014-06-30T14:30:45Z</time>
      </trkpt>
      <trkpt lat="40.646550" lon="-4.779400">
        <ele>2674.0</ele>
        <time>2014-06-30T14:30:46Z</time>
      </trkpt>
      <trkpt lat="40.646650" lon="-4.779250">
        <ele>2671.0</ele>
        <time>2014-06-30T14:30:47Z</time>
      </trkpt>
      <trkpt lat="40.646750" lon="-4.779083">
        <ele>2667.0</ele>
        <time>2014-06-30T14:30:48Z</time>
      </trkpt>
      <trkpt lat="40.646867" lon="-4.778917">
        <ele>2662.0</ele>
        <time>2014-06-30T14:30:49Z</time>
      </trkpt>
      <trkpt lat="40.646983" lon="-4.778750">
        <ele>2658.0</ele>
        <time>2014-06-30T14:30:50Z</time>
      </trkpt>
      <trkpt lat="40.647083" lon="-4.778583">
        <ele>2655.0</ele>
        <time>2014-06-30T14:30:51Z</time>
      </trkpt>
      <trkpt lat="40.647183" lon="-4.778417">
        <ele>2652.0</ele>
        <time>2014-06-30T14:30:52Z</time>
      </trkpt>
      <trkpt lat="40.647283" lon="-4.778267">
        <ele>2650.0</ele>
        <time>2014-06-30T14:30:53Z</time>
      </trkpt>
      <trkpt lat="40.647383" lon="-4.778117">
        <ele>2646.0</ele>
        <time>2014-06-30T14:30:54Z</time>
      </trkpt>
      <trkpt lat="40.647483" lon="-4.777967">
        <ele>2642.0</ele>
        <time>2014-06-30T14:30:55Z</time>
      </trkpt>
      <trkpt lat="40.647583" lon="-4.777817">
        <ele>2639.0</ele>
        <time>2014-06-30T14:30:56Z</time>
      </trkpt>
      <trkpt lat="40.647700" lon="-4.777667">
        <ele>2635.0</ele>
        <time>2014-06-30T14:30:57Z</time>
      </trkpt>
      <trkpt lat="40.647800" lon="-4.777517">
        <ele>2632.0</ele>
        <time>2014-06-30T14:30:58Z</time>
      </trkpt>
      <trkpt lat="40.647900" lon="-4.777367">
        <ele>2630.0</ele>
        <time>2014-06-30T14:30:59Z</time>
      </trkpt>
      <trkpt lat="40.647983" lon="-4.777217">
        <ele>2628.0</ele>
        <time>2014-06-30T14:31:00Z</time>
      </trkpt>
      <trkpt lat="40.648083" lon="-4.777067">
        <ele>2625.0</ele>
        <time>2014-06-30T14:31:01Z</time>
      </trkpt>
      <trkpt lat="40.648183" lon="-4.776933">
        <ele>2623.0</ele>
        <time>2014-06-30T14:31:02Z</time>
      </trkpt>
      <trkpt lat="40.648283" lon="-4.776783">
        <ele>2621.0</ele>
        <time>2014-06-30T14:31:03Z</time>
      </trkpt>
      <trkpt lat="40.648367" lon="-4.776650">
        <ele>2618.0</ele>
        <time>2014-06-30T14:31:04Z</time>
      </trkpt>
      <trkpt lat="40.648467" lon="-4.776500">
        <ele>2616.0</ele>
        <time>2014-06-30T14:31:05Z</time>
      </trkpt>
      <trkpt lat="40.648567" lon="-4.776350">
        <ele>2614.0</ele>
        <time>2014-06-30T14:31:06Z</time>
      </trkpt>
      <trkpt lat="40.648667" lon="-4.776217">
        <ele>2612.0</ele>
        <time>2014-06-30T14:31:07Z</time>
      </trkpt>
      <trkpt lat="40.648767" lon="-4.776083">
        <ele>2609.0</ele>
        <time>2014-06-30T14:31:08Z</time>
      </trkpt>
      <trkpt lat="40.648850" lon="-4.775950">
        <ele>2606.0</ele>
        <time>2014-06-30T14:31:09Z</time>
      </trkpt>
      <trkpt lat="40.648950" lon="-4.775817">
        <ele>2603.0</ele>
        <time>2014-06-30T14:31:10Z</time>
      </trkpt>
      <trkpt lat="40.649050" lon="-4.775683">
        <ele>2600.0</ele>
        <time>2014-06-30T14:31:11Z</time>
      </trkpt>
      <trkpt lat="40.649133" lon="-4.775533">
        <ele>2596.0</ele>
        <time>2014-06-30T14:31:12Z</time>
      </trkpt>
      <trkpt lat="40.649233" lon="-4.775383">
        <ele>2592.0</ele>
        <time>2014-06-30T14:31:13Z</time>
      </trkpt>
      <trkpt lat="40.649333" lon="-4.775233">
        <ele>2588.0</ele>
        <time>2014-06-30T14:31:14Z</time>
      </trkpt>
      <trkpt lat="40.649433" lon="-4.775100">
        <ele>2585.0</ele>
        <time>2014-06-30T14:31:15Z</time>
      </trkpt>
      <trkpt lat="40.649533" lon="-4.774983">
        <ele>2582.0</ele>
        <time>2014-06-30T14:31:16Z</time>
      </trkpt>
      <trkpt lat="40.649633" lon="-4.774883">
        <ele>2579.0</ele>
        <time>2014-06-30T14:31:17Z</time>
      </trkpt>
      <trkpt lat="40.649750" lon="-4.774767">
        <ele>2577.0</ele>
        <time>2014-06-30T14:31:18Z</time>
      </trkpt>
      <trkpt lat="40.649833" lon="-4.774667">
        <ele>2576.0</ele>
        <time>2014-06-30T14:31:19Z</time>
      </trkpt>
      <trkpt lat="40.649917" lon="-4.774567">
        <ele>2575.0</ele>
        <time>2014-06-30T14:31:20Z</time>
      </trkpt>
      <trkpt lat="40.649983" lon="-4.774483">
        <ele>2574.0</ele>
        <time>2014-06-30T14:31:21Z</time>
      </trkpt>
      <trkpt lat="40.650067" lon="-4.774383">
        <ele>2573.0</ele>
        <time>2014-06-30T14:31:22Z</time>
      </trkpt>
      <trkpt lat="40.650133" lon="-4.774283">
        <ele>2572.0</ele>
        <time>2014-06-30T14:31:23Z</time>
      </trkpt>
      <trkpt lat="40.650233" lon="-4.774200">
        <ele>2571.0</ele>
        <time>2014-06-30T14:31:24Z</time>
      </trkpt>
      <trkpt lat="40.650317" lon="-4.774100">
        <ele>2569.0</ele>
        <time>2014-06-30T14:31:25Z</time>
      </trkpt>
      <trkpt lat="40.650400" lon="-4.774000">
        <ele>2568.0</ele>
        <time>2014-06-30T14:31:26Z</time>
      </trkpt>
      <trkpt lat="40.650483" lon="-4.773900">
        <ele>2567.0</ele>
        <time>2014-06-30T14:31:27Z</time>
      </trkpt>
      <trkpt lat="40.650567" lon="-4.773800">
        <ele>2566.0</ele>
        <time>2014-06-30T14:31:28Z</time>
      </trkpt>
      <trkpt lat="40.650633" lon="-4.773700">
        <ele>2566.0</ele>
        <time>2014-06-30T14:31:29Z</time>
      </trkpt>
      <trkpt lat="40.650717" lon="-4.773600">
        <ele>2566.0</ele>
        <time>2014-06-30T14:31:30Z</time>
      </trkpt>
      <trkpt lat="40.650800" lon="-4.773500">
        <ele>2565.0</ele>
        <time>2014-06-30T14:31:31Z</time>
      </trkpt>
      <trkpt lat="40.650883" lon="-4.773400">
        <ele>2564.0</ele>
        <time>2014-06-30T14:31:32Z</time>
      </trkpt>
      <trkpt lat="40.650967" lon="-4.773283">
        <ele>2562.0</ele>
        <time>2014-06-30T14:31:33Z</time>
      </trkpt>
      <trkpt lat="40.651050" lon="-4.773167">
        <ele>2561.0</ele>
        <time>2014-06-30T14:31:34Z</time>
      </trkpt>
      <trkpt lat="40.651133" lon="-4.773067">
        <ele>2561.0</ele>
        <time>2014-06-30T14:31:35Z</time>
      </trkpt>
      <trkpt lat="40.651217" lon="-4.772950">
        <ele>2561.0</ele>
        <time>2014-06-30T14:31:36Z</time>
      </trkpt>
      <trkpt lat="40.651300" lon="-4.772850">
        <ele>2560.0</ele>
        <time>2014-06-30T14:31:37Z</time>
      </trkpt>
      <trkpt lat="40.651367" lon="-4.772733">
        <ele>2559.0</ele>
        <time>2014-06-30T14:31:38Z</time>
      </trkpt>
      <trkpt lat="40.651450" lon="-4.772633">
        <ele>2557.0</ele>
        <time>2014-06-30T14:31:39Z</time>
      </trkpt>
      <trkpt lat="40.651517" lon="-4.772517">
        <ele>2554.0</ele>
        <time>2014-06-30T14:31:40Z</time>
      </trkpt>
      <trkpt lat="40.651600" lon="-4.772417">
        <ele>2552.0</ele>
        <time>2014-06-30T14:31:41Z</time>
      </trkpt>
      <trkpt lat="40.651667" lon="-4.772300">
        <ele>2550.0</ele>
        <time>2014-06-30T14:31:42Z</time>
      </trkpt>
      <trkpt lat="40.651750" lon="-4.772217">
        <ele>2548.0</ele>
        <time>2014-06-30T14:31:43Z</time>
      </trkpt>
      <trkpt lat="40.651833" lon="-4.772117">
        <ele>2547.0</ele>
        <time>2014-06-30T14:31:44Z</time>
      </trkpt>
      <trkpt lat="40.651900" lon="-4.772017">
        <ele>2545.0</ele>
        <time>2014-06-30T14:31:45Z</time>
      </trkpt>
      <trkpt lat="40.651983" lon="-4.771933">
        <ele>2543.0</ele>
        <time>2014-06-30T14:31:46Z</time>
      </trkpt>
      <trkpt lat="40.652067" lon="-4.771817">
        <ele>2540.0</ele>
        <time>2014-06-30T14:31:47Z</time>
      </trkpt>
      <trkpt lat="40.652133" lon="-4.771717">
        <ele>2538.0</ele>
        <time>2014-06-30T14:31:48Z</time>
      </trkpt>
      <trkpt lat="40.652217" lon="-4.771600">
        <ele>2536.0</ele>
        <time>2014-06-30T14:31:49Z</time>
      </trkpt>
      <trkpt lat="40.652283" lon="-4.771500">
        <ele>2535.0</ele>
        <time>2014-06-30T14:31:50Z</time>
      </trkpt>
      <trkpt lat="40.652333" lon="-4.771400">
        <ele>2534.0</ele>
        <time>2014-06-30T14:31:51Z</time>
      </trkpt>
      <trkpt lat="40.652400" lon="-4.771317">
        <ele>2532.0</ele>
        <time>2014-06-30T14:31:52Z</time>
      </trkpt>
      <trkpt lat="40.652467" lon="-4.771233">
        <ele>2529.0</ele>
        <time>2014-06-30T14:31:53Z</time>
      </trkpt>
      <trkpt lat="40.652533" lon="-4.771133">
        <ele>2526.0</ele>
        <time>2014-06-30T14:31:54Z</time>
      </trkpt>
      <trkpt lat="40.652617" lon="-4.771017">
        <ele>2523.0</ele>
        <time>2014-06-30T14:31:55Z</time>
      </trkpt>
      <trkpt lat="40.652683" lon="-4.770900">
        <ele>2520.0</ele>
        <time>2014-06-30T14:31:56Z</time>
      </trkpt>
      <trkpt lat="40.652750" lon="-4.770783">
        <ele>2517.0</ele>
        <time>2014-06-30T14:31:57Z</time>
      </trkpt>
      <trkpt lat="40.652817" lon="-4.770667">
        <ele>2514.0</ele>
        <time>2014-06-30T14:31:58Z</time>
      </trkpt>
      <trkpt lat="40.652883" lon="-4.770533">
        <ele>2510.0</ele>
        <time>2014-06-30T14:31:59Z</time>
      </trkpt>
      <trkpt lat="40.652933" lon="-4.770433">
        <ele>2507.0</ele>
        <time>2014-06-30T14:32:00Z</time>
      </trkpt>
      <trkpt lat="40.653000" lon="-4.770317">
        <ele>2504.0</ele>
        <time>2014-06-30T14:32:01Z</time>
      </trkpt>
      <trkpt lat="40.653083" lon="-4.770217">
        <ele>2499.0</ele>
        <time>2014-06-30T14:32:02Z</time>
      </trkpt>
      <trkpt lat="40.653167" lon="-4.770117">
        <ele>2494.0</ele>
        <time>2014-06-30T14:32:03Z</time>
      </trkpt>
      <trkpt lat="40.653250" lon="-4.770000">
        <ele>2488.0</ele>
        <time>2014-06-30T14:32:04Z</time>
      </trkpt>
      <trkpt lat="40.653317" lon="-4.769867">
        <ele>2483.0</ele>
        <time>2014-06-30T14:32:05Z</time>
      </trkpt>
      <trkpt lat="40.653400" lon="-4.769733">
        <ele>2477.0</ele>
        <time>2014-06-30T14:32:06Z</time>
      </trkpt>
      <trkpt lat="40.653483" lon="-4.769600">
        <ele>2472.0</ele>
        <time>2014-06-30T14:32:07Z</time>
      </trkpt>
      <trkpt lat="40.653567" lon="-4.769483">
        <ele>2467.0</ele>
        <time>2014-06-30T14:32:08Z</time>
      </trkpt>
      <trkpt lat="40.653650" lon="-4.769350">
        <ele>2462.0</ele>
        <time>2014-06-30T14:32:09Z</time>
      </trkpt>
      <trkpt lat="40.653733" lon="-4.769217">
        <ele>2457.0</ele>
        <time>2014-06-30T14:32:10Z</time>
      </trkpt>
      <trkpt lat="40.653817" lon="-4.769083">
        <ele>2452.0</ele>
        <time>2014-06-30T14:32:11Z</time>
      </trkpt>
      <trkpt lat="40.653900" lon="-4.768933">
        <ele>2446.0</ele>
        <time>2014-06-30T14:32:12Z</time>
      </trkpt>
      <trkpt lat="40.653967" lon="-4.768800">
        <ele>2442.0</ele>
        <time>2014-06-30T14:32:13Z</time>
      </trkpt>
      <trkpt lat="40.654033" lon="-4.768667">
        <ele>2439.0</ele>
        <time>2014-06-30T14:32:14Z</time>
      </trkpt>
      <trkpt lat="40.654083" lon="-4.768550">
        <ele>2437.0</ele>
        <time>2014-06-30T14:32:15Z</time>
      </trkpt>
      <trkpt lat="40.654150" lon="-4.768433">
        <ele>2433.0</ele>
        <time>2014-06-30T14:32:16Z</time>
      </trkpt>
      <trkpt lat="40.654217" lon="-4.768317">
        <ele>2428.0</ele>
        <time>2014-06-30T14:32:17Z</time>
      </trkpt>
      <trkpt lat="40.654283" lon="-4.768183">
        <ele>2423.0</ele>
        <time>2014-06-30T14:32:18Z</time>
      </trkpt>
      <trkpt lat="40.654367" lon="-4.768033">
        <ele>2418.0</ele>
        <time>2014-06-30T14:32:19Z</time>
      </trkpt>
      <trkpt lat="40.654433" lon="-4.767883">
        <ele>2414.0</ele>
        <time>2014-06-30T14:32:20Z</time>
      </trkpt>
      <trkpt lat="40.654483" lon="-4.767767">
        <ele>2413.0</ele>
        <time>2014-06-30T14:32:21Z</time>
      </trkpt>
      <trkpt lat="40.654517" lon="-4.767650">
        <ele>2411.0</ele>
        <time>2014-06-30T14:32:22Z</time>
      </trkpt>
      <trkpt lat="40.654550" lon="-4.767550">
        <ele>2408.0</ele>
        <time>2014-06-30T14:32:23Z</time>
      </trkpt>
      <trkpt lat="40.654583" lon="-4.767450">
        <ele>2406.0</ele>
        <time>2014-06-30T14:32:24Z</time>
      </trkpt>
      <trkpt lat="40.654650" lon="-4.767333">
        <ele>2403.0</ele>
        <time>2014-06-30T14:32:25Z</time>
      </trkpt>
      <trkpt lat="40.654700" lon="-4.767217">
        <ele>2399.0</ele>
        <time>2014-06-30T14:32:26Z</time>
      </trkpt>
      <trkpt lat="40.654750" lon="-4.767083">
        <ele>2395.0</ele>
        <time>2014-06-30T14:32:27Z</time>
      </trkpt>
      <trkpt lat="40.654800" lon="-4.766967">
        <ele>2391.0</ele>
        <time>2014-06-30T14:32:28Z</time>
      </trkpt>
      <trkpt lat="40.654817" lon="-4.766833">
        <ele>2387.0</ele>
        <time>2014-06-30T14:32:29Z</time>
      </trkpt>
      <trkpt lat="40.654867" lon="-4.766700">
        <ele>2383.0</ele>
        <time>2014-06-30T14:32:30Z</time>
      </trkpt>
      <trkpt lat="40.654917" lon="-4.766567">
        <ele>2379.0</ele>
        <time>2014-06-30T14:32:31Z</time>
      </trkpt>
      <trkpt lat="40.654967" lon="-4.766417">
        <ele>2375.0</ele>
        <time>2014-06-30T14:32:32Z</time>
      </trkpt>
      <trkpt lat="40.655033" lon="-4.766283">
        <ele>2373.0</ele>
        <time>2014-06-30T14:32:33Z</time>
      </trkpt>
      <trkpt lat="40.655083" lon="-4.766133">
        <ele>2372.0</ele>
        <time>2014-06-30T14:32:34Z</time>
      </trkpt>
      <trkpt lat="40.655133" lon="-4.766000">
        <ele>2371.0</ele>
        <time>2014-06-30T14:32:35Z</time>
      </trkpt>
      <trkpt lat="40.655150" lon="-4.765867">
        <ele>2371.0</ele>
        <time>2014-06-30T14:32:36Z</time>
      </trkpt>
      <trkpt lat="40.655183" lon="-4.765733">
        <ele>2371.0</ele>
        <time>2014-06-30T14:32:37Z</time>
      </trkpt>
      <trkpt lat="40.655200" lon="-4.765600">
        <ele>2372.0</ele>
        <time>2014-06-30T14:32:38Z</time>
      </trkpt>
      <trkpt lat="40.655233" lon="-4.765467">
        <ele>2372.0</ele>
        <time>2014-06-30T14:32:39Z</time>
      </trkpt>
      <trkpt lat="40.655250" lon="-4.765317">
        <ele>2371.0</ele>
        <time>2014-06-30T14:32:40Z</time>
      </trkpt>
      <trkpt lat="40.655283" lon="-4.765200">
        <ele>2371.0</ele>
        <time>2014-06-30T14:32:41Z</time>
      </trkpt>
      <trkpt lat="40.655317" lon="-4.765067">
        <ele>2370.0</ele>
        <time>2014-06-30T14:32:42Z</time>
      </trkpt>
      <trkpt lat="40.655350" lon="-4.764950">
        <ele>2370.0</ele>
        <time>2014-06-30T14:32:43Z</time>
      </trkpt>
      <trkpt lat="40.655400" lon="-4.764817">
        <ele>2369.0</ele>
        <time>2014-06-30T14:32:44Z</time>
      </trkpt>
      <trkpt lat="40.655450" lon="-4.764700">
        <ele>2368.0</ele>
        <time>2014-06-30T14:32:45Z</time>
      </trkpt>
      <trkpt lat="40.655500" lon="-4.764583">
        <ele>2367.0</ele>
        <time>2014-06-30T14:32:46Z</time>
      </trkpt>
      <trkpt lat="40.655550" lon="-4.764483">
        <ele>2367.0</ele>
        <time>2014-06-30T14:32:47Z</time>
      </trkpt>
      <trkpt lat="40.655600" lon="-4.764383">
        <ele>2367.0</ele>
        <time>2014-06-30T14:32:48Z</time>
      </trkpt>
      <trkpt lat="40.655650" lon="-4.764283">
        <ele>2366.0</ele>
        <time>2014-06-30T14:32:49Z</time>
      </trkpt>
      <trkpt lat="40.655717" lon="-4.764183">
        <ele>2365.0</ele>
        <time>2014-06-30T14:32:50Z</time>
      </trkpt>
      <trkpt lat="40.655767" lon="-4.764083">
        <ele>2365.0</ele>
        <time>2014-06-30T14:32:51Z</time>
      </trkpt>
      <trkpt lat="40.655833" lon="-4.764000">
        <ele>2364.0</ele>
        <time>2014-06-30T14:32:52Z</time>
      </trkpt>
      <trkpt lat="40.655900" lon="-4.763900">
        <ele>2364.0</ele>
        <time>2014-06-30T14:32:53Z</time>
      </trkpt>
      <trkpt lat="40.655950" lon="-4.763817">
        <ele>2363.0</ele>
        <time>2014-06-30T14:32:54Z</time>
      </trkpt>
      <trkpt lat="40.656017" lon="-4.763733">
        <ele>2363.0</ele>
        <time>2014-06-30T14:32:55Z</time>
      </trkpt>
      <trkpt lat="40.656067" lon="-4.763650">
        <ele>2362.0</ele>
        <time>2014-06-30T14:32:56Z</time>
      </trkpt>
      <trkpt lat="40.656133" lon="-4.763550">
        <ele>2361.0</ele>
        <time>2014-06-30T14:32:57Z</time>
      </trkpt>
      <trkpt lat="40.656200" lon="-4.763450">
        <ele>2360.0</ele>
        <time>2014-06-30T14:32:58Z</time>
      </trkpt>
      <trkpt lat="40.656283" lon="-4.763350">
        <ele>2358.0</ele>
        <time>2014-06-30T14:32:59Z</time>
      </trkpt>
      <trkpt lat="40.656350" lon="-4.763250">
        <ele>2357.0</ele>
        <time>2014-06-30T14:33:00Z</time>
      </trkpt>
      <trkpt lat="40.656433" lon="-4.763150">
        <ele>2357.0</ele>
        <time>2014-06-30T14:33:01Z</time>
      </trkpt>
      <trkpt lat="40.656500" lon="-4.763050">
        <ele>2356.0</ele>
        <time>2014-06-30T14:33:02Z</time>
      </trkpt>
      <trkpt lat="40.656583" lon="-4.762933">
        <ele>2355.0</ele>
        <time>2014-06-30T14:33:03Z</time>
      </trkpt>
      <trkpt lat="40.656650" lon="-4.762817">
        <ele>2354.0</ele>
        <time>2014-06-30T14:33:04Z</time>
      </trkpt>
      <trkpt lat="40.656717" lon="-4.762700">
        <ele>2354.0</ele>
        <time>2014-06-30T14:33:05Z</time>
      </trkpt>
      <trkpt lat="40.656783" lon="-4.762567">
        <ele>2353.0</ele>
        <time>2014-06-30T14:33:06Z</time>
      </trkpt>
      <trkpt lat="40.656850" lon="-4.762450">
        <ele>2353.0</ele>
        <time>2014-06-30T14:33:07Z</time>
      </trkpt>
      <trkpt lat="40.656917" lon="-4.762333">
        <ele>2353.0</ele>
        <time>2014-06-30T14:33:08Z</time>
      </trkpt>
      <trkpt lat="40.656983" lon="-4.762233">
        <ele>2353.0</ele>
        <time>2014-06-30T14:33:09Z</time>
      </trkpt>
      <trkpt lat="40.657050" lon="-4.762100">
        <ele>2352.0</ele>
        <time>2014-06-30T14:33:10Z</time>
      </trkpt>
      <trkpt lat="40.657117" lon="-4.761983">
        <ele>2351.0</ele>
        <time>2014-06-30T14:33:11Z</time>
      </trkpt>
      <trkpt lat="40.657183" lon="-4.761867">
        <ele>2350.0</ele>
        <time>2014-06-30T14:33:12Z</time>
      </trkpt>
      <trkpt lat="40.657250" lon="-4.761750">
        <ele>2348.0</ele>
        <time>2014-06-30T14:33:13Z</time>
      </trkpt>
      <trkpt lat="40.657317" lon="-4.761633">
        <ele>2347.0</ele>
        <time>2014-06-30T14:33:14Z</time>
      </trkpt>
      <trkpt lat="40.657383" lon="-4.761533">
        <ele>2345.0</ele>
        <time>2014-06-30T14:33:15Z</time>
      </trkpt>
      <trkpt lat="40.657467" lon="-4.761433">
        <ele>2344.0</ele>
        <time>2014-06-30T14:33:16Z</time>
      </trkpt>
      <trkpt lat="40.657550" lon="-4.761333">
        <ele>2342.0</ele>
        <time>2014-06-30T14:33:17Z</time>
      </trkpt>
      <trkpt lat="40.657617" lon="-4.761233">
        <ele>2340.0</ele>
        <time>2014-06-30T14:33:18Z</time>
      </trkpt>
      <trkpt lat="40.657683" lon="-4.761133">
        <ele>2339.0</ele>
        <time>2014-06-30T14:33:19Z</time>
      </trkpt>
      <trkpt lat="40.657733" lon="-4.761033">
        <ele>2338.0</ele>
        <time>2014-06-30T14:33:20Z</time>
      </trkpt>
      <trkpt lat="40.657800" lon="-4.760933">
        <ele>2337.0</ele>
        <time>2014-06-30T14:33:21Z</time>
      </trkpt>
      <trkpt lat="40.657883" lon="-4.760817">
        <ele>2335.0</ele>
        <time>2014-06-30T14:33:22Z</time>
      </trkpt>
      <trkpt lat="40.657950" lon="-4.760700">
        <ele>2333.0</ele>
        <time>2014-06-30T14:33:23Z</time>
      </trkpt>
      <trkpt lat="40.658017" lon="-4.760583">
        <ele>2330.0</ele>
        <time>2014-06-30T14:33:24Z</time>
      </trkpt>
      <trkpt lat="40.658100" lon="-4.760467">
        <ele>2328.0</ele>
        <time>2014-06-30T14:33:25Z</time>
      </trkpt>
      <trkpt lat="40.658167" lon="-4.760350">
        <ele>2326.0</ele>
        <time>2014-06-30T14:33:26Z</time>
      </trkpt>
      <trkpt lat="40.658233" lon="-4.760233">
        <ele>2324.0</ele>
        <time>2014-06-30T14:33:27Z</time>
      </trkpt>
      <trkpt lat="40.658300" lon="-4.760117">
        <ele>2323.0</ele>
        <time>2014-06-30T14:33:28Z</time>
      </trkpt>
      <trkpt lat="40.658367" lon="-4.760000">
        <ele>2321.0</ele>
        <time>2014-06-30T14:33:29Z</time>
      </trkpt>
      <trkpt lat="40.658433" lon="-4.759883">
        <ele>2319.0</ele>
        <time>2014-06-30T14:33:30Z</time>
      </trkpt>
      <trkpt lat="40.658500" lon="-4.759767">
        <ele>2317.0</ele>
        <time>2014-06-30T14:33:31Z</time>
      </trkpt>
      <trkpt lat="40.658567" lon="-4.759667">
        <ele>2317.0</ele>
        <time>2014-06-30T14:33:32Z</time>
      </trkpt>
      <trkpt lat="40.658633" lon="-4.759567">
        <ele>2316.0</ele>
        <time>2014-06-30T14:33:33Z</time>
      </trkpt>
      <trkpt lat="40.658700" lon="-4.759467">
        <ele>2315.0</ele>
        <time>2014-06-30T14:33:34Z</time>
      </trkpt>
      <trkpt lat="40.658783" lon="-4.759383">
        <ele>2314.0</ele>
        <time>2014-06-30T14:33:35Z</time>
      </trkpt>
      <trkpt lat="40.658867" lon="-4.759300">
        <ele>2312.0</ele>
        <time>2014-06-30T14:33:36Z</time>
      </trkpt>
      <trkpt lat="40.658950" lon="-4.759217">
        <ele>2311.0</ele>
        <time>2014-06-30T14:33:37Z</time>
      </trkpt>
      <trkpt lat="40.659033" lon="-4.759150">
        <ele>2309.0</ele>
        <time>2014-06-30T14:33:38Z</time>
      </trkpt>
      <trkpt lat="40.659117" lon="-4.759050">
        <ele>2308.0</ele>
        <time>2014-06-30T14:33:39Z</time>
      </trkpt>
      <trkpt lat="40.659200" lon="-4.758950">
        <ele>2306.0</ele>
        <time>2014-06-30T14:33:40Z</time>
      </trkpt>
      <trkpt lat="40.659283" lon="-4.758850">
        <ele>2304.0</ele>
        <time>2014-06-30T14:33:41Z</time>
      </trkpt>
      <trkpt lat="40.659367" lon="-4.758750">
        <ele>2302.0</ele>
        <time>2014-06-30T14:33:42Z</time>
      </trkpt>
      <trkpt lat="40.659433" lon="-4.758633">
        <ele>2301.0</ele>
        <time>2014-06-30T14:33:43Z</time>
      </trkpt>
      <trkpt lat="40.659517" lon="-4.758533">
        <ele>2299.0</ele>
        <time>2014-06-30T14:33:44Z</time>
      </trkpt>
      <trkpt lat="40.659583" lon="-4.758450">
        <ele>2298.0</ele>
        <time>2014-06-30T14:33:45Z</time>
      </trkpt>
      <trkpt lat="40.659667" lon="-4.758350">
        <ele>2296.0</ele>
        <time>2014-06-30T14:33:46Z</time>
      </trkpt>
      <trkpt lat="40.659750" lon="-4.758250">
        <ele>2294.0</ele>
        <time>2014-06-30T14:33:47Z</time>
      </trkpt>
      <trkpt lat="40.659817" lon="-4.758150">
        <ele>2291.0</ele>
        <time>2014-06-30T14:33:48Z</time>
      </trkpt>
      <trkpt lat="40.659900" lon="-4.758017">
        <ele>2290.0</ele>
        <time>2014-06-30T14:33:49Z</time>
      </trkpt>
      <trkpt lat="40.659983" lon="-4.757900">
        <ele>2288.0</ele>
        <time>2014-06-30T14:33:50Z</time>
      </trkpt>
      <trkpt lat="40.660067" lon="-4.757783">
        <ele>2287.0</ele>
        <time>2014-06-30T14:33:51Z</time>
      </trkpt>
      <trkpt lat="40.660150" lon="-4.757667">
        <ele>2286.0</ele>
        <time>2014-06-30T14:33:52Z</time>
      </trkpt>
      <trkpt lat="40.660233" lon="-4.757567">
        <ele>2285.0</ele>
        <time>2014-06-30T14:33:53Z</time>
      </trkpt>
      <trkpt lat="40.660317" lon="-4.757467">
        <ele>2284.0</ele>
        <time>2014-06-30T14:33:54Z</time>
      </trkpt>
      <trkpt lat="40.660400" lon="-4.757367">
        <ele>2283.0</ele>
        <time>2014-06-30T14:33:55Z</time>
      </trkpt>
      <trkpt lat="40.660500" lon="-4.757283">
        <ele>2283.0</ele>
        <time>2014-06-30T14:33:56Z</time>
      </trkpt>
      <trkpt lat="40.660583" lon="-4.757183">
        <ele>2282.0</ele>
        <time>2014-06-30T14:33:57Z</time>
      </trkpt>
      <trkpt lat="40.660683" lon="-4.757083">
        <ele>2282.0</ele>
        <time>2014-06-30T14:33:58Z</time>
      </trkpt>
      <trkpt lat="40.660767" lon="-4.757000">
        <ele>2281.0</ele>
        <time>2014-06-30T14:33:59Z</time>
      </trkpt>
      <trkpt lat="40.660850" lon="-4.756900">
        <ele>2281.0</ele>
        <time>2014-06-30T14:34:00Z</time>
      </trkpt>
      <trkpt lat="40.660950" lon="-4.756800">
        <ele>2280.0</ele>
        <time>2014-06-30T14:34:01Z</time>
      </trkpt>
      <trkpt lat="40.661033" lon="-4.756700">
        <ele>2280.0</ele>
        <time>2014-06-30T14:34:02Z</time>
      </trkpt>
      <trkpt lat="40.661133" lon="-4.756600">
        <ele>2280.0</ele>
        <time>2014-06-30T14:34:03Z</time>
      </trkpt>
      <trkpt lat="40.661217" lon="-4.756483">
        <ele>2279.0</ele>
        <time>2014-06-30T14:34:04Z</time>
      </trkpt>
      <trkpt lat="40.661283" lon="-4.756367">
        <ele>2279.0</ele>
        <time>2014-06-30T14:34:05Z</time>
      </trkpt>
      <trkpt lat="40.661367" lon="-4.756250">
        <ele>2278.0</ele>
        <time>2014-06-30T14:34:06Z</time>
      </trkpt>
      <trkpt lat="40.661467" lon="-4.756133">
        <ele>2277.0</ele>
        <time>2014-06-30T14:34:07Z</time>
      </trkpt>
      <trkpt lat="40.661550" lon="-4.756017">
        <ele>2276.0</ele>
        <time>2014-06-30T14:34:08Z</time>
      </trkpt>
      <trkpt lat="40.661650" lon="-4.755900">
        <ele>2275.0</ele>
        <time>2014-06-30T14:34:09Z</time>
      </trkpt>
      <trkpt lat="40.661750" lon="-4.755783">
        <ele>2274.0</ele>
        <time>2014-06-30T14:34:10Z</time>
      </trkpt>
      <trkpt lat="40.661850" lon="-4.755667">
        <ele>2273.0</ele>
        <time>2014-06-30T14:34:11Z</time>
      </trkpt>
      <trkpt lat="40.661950" lon="-4.755550">
        <ele>2271.0</ele>
        <time>2014-06-30T14:34:12Z</time>
      </trkpt>
      <trkpt lat="40.662050" lon="-4.755433">
        <ele>2270.0</ele>
        <time>2014-06-30T14:34:13Z</time>
      </trkpt>
      <trkpt lat="40.662167" lon="-4.755333">
        <ele>2269.0</ele>
        <time>2014-06-30T14:34:14Z</time>
      </trkpt>
      <trkpt lat="40.662283" lon="-4.755250">
        <ele>2267.0</ele>
        <time>2014-06-30T14:34:15Z</time>
      </trkpt>
      <trkpt lat="40.662383" lon="-4.755167">
        <ele>2267.0</ele>
        <time>2014-06-30T14:34:16Z</time>
      </trkpt>
      <trkpt lat="40.662483" lon="-4.755083">
        <ele>2266.0</ele>
        <time>2014-06-30T14:34:17Z</time>
      </trkpt>
      <trkpt lat="40.662583" lon="-4.755000">
        <ele>2266.0</ele>
        <time>2014-06-30T14:34:18Z</time>
      </trkpt>
      <trkpt lat="40.662683" lon="-4.754933">
        <ele>2264.0</ele>
        <time>2014-06-30T14:34:19Z</time>
      </trkpt>
      <trkpt lat="40.662783" lon="-4.754867">
        <ele>2263.0</ele>
        <time>2014-06-30T14:34:20Z</time>
      </trkpt>
      <trkpt lat="40.662900" lon="-4.754800">
        <ele>2261.0</ele>
        <time>2014-06-30T14:34:21Z</time>
      </trkpt>
      <trkpt lat="40.663017" lon="-4.754717">
        <ele>2260.0</ele>
        <time>2014-06-30T14:34:22Z</time>
      </trkpt>
      <trkpt lat="40.663117" lon="-4.754633">
        <ele>2260.0</ele>
        <time>2014-06-30T14:34:23Z</time>
      </trkpt>
      <trkpt lat="40.663217" lon="-4.754550">
        <ele>2259.0</ele>
        <time>2014-06-30T14:34:24Z</time>
      </trkpt>
      <trkpt lat="40.663317" lon="-4.754483">
        <ele>2258.0</ele>
        <time>2014-06-30T14:34:25Z</time>
      </trkpt>
      <trkpt lat="40.663433" lon="-4.754400">
        <ele>2257.0</ele>
        <time>2014-06-30T14:34:26Z</time>
      </trkpt>
      <trkpt lat="40.663533" lon="-4.754300">
        <ele>2256.0</ele>
        <time>2014-06-30T14:34:27Z</time>
      </trkpt>
      <trkpt lat="40.663650" lon="-4.754217">
        <ele>2256.0</ele>
        <time>2014-06-30T14:34:28Z</time>
      </trkpt>
      <trkpt lat="40.663750" lon="-4.754117">
        <ele>2255.0</ele>
        <time>2014-06-30T14:34:29Z</time>
      </trkpt>
      <trkpt lat="40.663850" lon="-4.754017">
        <ele>2255.0</ele>
        <time>2014-06-30T14:34:30Z</time>
      </trkpt>
      <trkpt lat="40.663950" lon="-4.753933">
        <ele>2255.0</ele>
        <time>2014-06-30T14:34:31Z</time>
      </trkpt>
      <trkpt lat="40.664050" lon="-4.753850">
        <ele>2254.0</ele>
        <time>2014-06-30T14:34:32Z</time>
      </trkpt>
      <trkpt lat="40.664150" lon="-4.753767">
        <ele>2253.0</ele>
        <time>2014-06-30T14:34:33Z</time>
      </trkpt>
      <trkpt lat="40.664250" lon="-4.753667">
        <ele>2252.0</ele>
        <time>2014-06-30T14:34:34Z</time>
      </trkpt>
      <trkpt lat="40.664367" lon="-4.753583">
        <ele>2250.0</ele>
        <time>2014-06-30T14:34:35Z</time>
      </trkpt>
      <trkpt lat="40.664467" lon="-4.753483">
        <ele>2250.0</ele>
        <time>2014-06-30T14:34:36Z</time>
      </trkpt>
      <trkpt lat="40.664550" lon="-4.753400">
        <ele>2249.0</ele>
        <time>2014-06-30T14:34:37Z</time>
      </trkpt>
      <trkpt lat="40.664650" lon="-4.753317">
        <ele>2248.0</ele>
        <time>2014-06-30T14:34:38Z</time>
      </trkpt>
      <trkpt lat="40.664733" lon="-4.753233">
        <ele>2248.0</ele>
        <time>2014-06-30T14:34:39Z</time>
      </trkpt>
      <trkpt lat="40.664817" lon="-4.753133">
        <ele>2246.0</ele>
        <time>2014-06-30T14:34:40Z</time>
      </trkpt>
      <trkpt lat="40.664917" lon="-4.753033">
        <ele>2245.0</ele>
        <time>2014-06-30T14:34:41Z</time>
      </trkpt>
      <trkpt lat="40.665017" lon="-4.752950">
        <ele>2243.0</ele>
        <time>2014-06-30T14:34:42Z</time>
      </trkpt>
      <trkpt lat="40.665117" lon="-4.752883">
        <ele>2242.0</ele>
        <time>2014-06-30T14:34:43Z</time>
      </trkpt>
      <trkpt lat="40.665217" lon="-4.752817">
        <ele>2241.0</ele>
        <time>2014-06-30T14:34:44Z</time>
      </trkpt>
      <trkpt lat="40.665317" lon="-4.752733">
        <ele>2240.0</ele>
        <time>2014-06-30T14:34:45Z</time>
      </trkpt>
      <trkpt lat="40.665400" lon="-4.752650">
        <ele>2240.0</ele>
        <time>2014-06-30T14:34:46Z</time>
      </trkpt>
      <trkpt lat="40.665483" lon="-4.752583">
        <ele>2239.0</ele>
        <time>2014-06-30T14:34:47Z</time>
      </trkpt>
      <trkpt lat="40.665583" lon="-4.752500">
        <ele>2238.0</ele>
        <time>2014-06-30T14:34:48Z</time>
      </trkpt>
      <trkpt lat="40.665667" lon="-4.752433">
        <ele>2236.0</ele>
        <time>2014-06-30T14:34:49Z</time>
      </trkpt>
      <trkpt lat="40.665767" lon="-4.752350">
        <ele>2233.0</ele>
        <time>2014-06-30T14:34:50Z</time>
      </trkpt>
      <trkpt lat="40.665867" lon="-4.752250">
        <ele>2230.0</ele>
        <time>2014-06-30T14:34:51Z</time>
      </trkpt>
      <trkpt lat="40.665967" lon="-4.752150">
        <ele>2228.0</ele>
        <time>2014-06-30T14:34:52Z</time>
      </trkpt>
      <trkpt lat="40.666067" lon="-4.752050">
        <ele>2227.0</ele>
        <time>2014-06-30T14:34:53Z</time>
      </trkpt>
      <trkpt lat="40.666150" lon="-4.751950">
        <ele>2226.0</ele>
        <time>2014-06-30T14:34:54Z</time>
      </trkpt>
      <trkpt lat="40.666233" lon="-4.751850">
        <ele>2225.0</ele>
        <time>2014-06-30T14:34:55Z</time>
      </trkpt>
      <trkpt lat="40.666300" lon="-4.751750">
        <ele>2223.0</ele>
        <time>2014-06-30T14:34:56Z</time>
      </trkpt>
      <trkpt lat="40.666383" lon="-4.751650">
        <ele>2221.0</ele>
        <time>2014-06-30T14:34:57Z</time>
      </trkpt>
      <trkpt lat="40.666467" lon="-4.751517">
        <ele>2220.0</ele>
        <time>2014-06-30T14:34:58Z</time>
      </trkpt>
      <trkpt lat="40.666550" lon="-4.751400">
        <ele>2218.0</ele>
        <time>2014-06-30T14:34:59Z</time>
      </trkpt>
      <trkpt lat="40.666633" lon="-4.751283">
        <ele>2217.0</ele>
        <time>2014-06-30T14:35:00Z</time>
      </trkpt>
      <trkpt lat="40.666733" lon="-4.751183">
        <ele>2216.0</ele>
        <time>2014-06-30T14:35:01Z</time>
      </trkpt>
      <trkpt lat="40.666817" lon="-4.751067">
        <ele>2215.0</ele>
        <time>2014-06-30T14:35:02Z</time>
      </trkpt>
      <trkpt lat="40.666917" lon="-4.750967">
        <ele>2214.0</ele>
        <time>2014-06-30T14:35:03Z</time>
      </trkpt>
      <trkpt lat="40.667017" lon="-4.750850">
        <ele>2212.0</ele>
        <time>2014-06-30T14:35:04Z</time>
      </trkpt>
      <trkpt lat="40.667117" lon="-4.750750">
        <ele>2211.0</ele>
        <time>2014-06-30T14:35:05Z</time>
      </trkpt>
      <trkpt lat="40.667217" lon="-4.750633">
        <ele>2209.0</ele>
        <time>2014-06-30T14:35:06Z</time>
      </trkpt>
      <trkpt lat="40.667317" lon="-4.750533">
        <ele>2207.0</ele>
        <time>2014-06-30T14:35:07Z</time>
      </trkpt>
      <trkpt lat="40.667417" lon="-4.750433">
        <ele>2206.0</ele>
        <time>2014-06-30T14:35:08Z</time>
      </trkpt>
      <trkpt lat="40.667517" lon="-4.750333">
        <ele>2204.0</ele>
        <time>2014-06-30T14:35:09Z</time>
      </trkpt>
      <trkpt lat="40.667600" lon="-4.750217">
        <ele>2202.0</ele>
        <time>2014-06-30T14:35:10Z</time>
      </trkpt>
      <trkpt lat="40.667683" lon="-4.750100">
        <ele>2201.0</ele>
        <time>2014-06-30T14:35:11Z</time>
      </trkpt>
      <trkpt lat="40.667767" lon="-4.749983">
        <ele>2198.0</ele>
        <time>2014-06-30T14:35:12Z</time>
      </trkpt>
      <trkpt lat="40.667850" lon="-4.749883">
        <ele>2196.0</ele>
        <time>2014-06-30T14:35:13Z</time>
      </trkpt>
      <trkpt lat="40.667933" lon="-4.749767">
        <ele>2194.0</ele>
        <time>2014-06-30T14:35:14Z</time>
      </trkpt>
      <trkpt lat="40.668017" lon="-4.749650">
        <ele>2192.0</ele>
        <time>2014-06-30T14:35:15Z</time>
      </trkpt>
      <trkpt lat="40.668100" lon="-4.749517">
        <ele>2190.0</ele>
        <time>2014-06-30T14:35:16Z</time>
      </trkpt>
      <trkpt lat="40.668183" lon="-4.749400">
        <ele>2187.0</ele>
        <time>2014-06-30T14:35:17Z</time>
      </trkpt>
      <trkpt lat="40.668250" lon="-4.749283">
        <ele>2186.0</ele>
        <time>2014-06-30T14:35:18Z</time>
      </trkpt>
      <trkpt lat="40.668350" lon="-4.749150">
        <ele>2183.0</ele>
        <time>2014-06-30T14:35:19Z</time>
      </trkpt>
      <trkpt lat="40.668433" lon="-4.749033">
        <ele>2180.0</ele>
        <time>2014-06-30T14:35:20Z</time>
      </trkpt>
      <trkpt lat="40.668533" lon="-4.748917">
        <ele>2177.0</ele>
        <time>2014-06-30T14:35:21Z</time>
      </trkpt>
      <trkpt lat="40.668633" lon="-4.748833">
        <ele>2175.0</ele>
        <time>2014-06-30T14:35:22Z</time>
      </trkpt>
      <trkpt lat="40.668717" lon="-4.748733">
        <ele>2174.0</ele>
        <time>2014-06-30T14:35:23Z</time>
      </trkpt>
      <trkpt lat="40.668800" lon="-4.748633">
        <ele>2173.0</ele>
        <time>2014-06-30T14:35:24Z</time>
      </trkpt>
      <trkpt lat="40.668883" lon="-4.748550">
        <ele>2172.0</ele>
        <time>2014-06-30T14:35:25Z</time>
      </trkpt>
      <trkpt lat="40.668983" lon="-4.748450">
        <ele>2170.0</ele>
        <time>2014-06-30T14:35:26Z</time>
      </trkpt>
      <trkpt lat="40.669083" lon="-4.748350">
        <ele>2168.0</ele>
        <time>2014-06-30T14:35:27Z</time>
      </trkpt>
      <trkpt lat="40.669183" lon="-4.748283">
        <ele>2167.0</ele>
        <time>2014-06-30T14:35:28Z</time>
      </trkpt>
      <trkpt lat="40.669283" lon="-4.748233">
        <ele>2167.0</ele>
        <time>2014-06-30T14:35:29Z</time>
      </trkpt>
      <trkpt lat="40.669383" lon="-4.748200">
        <ele>2166.0</ele>
        <time>2014-06-30T14:35:30Z</time>
      </trkpt>
      <trkpt lat="40.669467" lon="-4.748183">
        <ele>2165.0</ele>
        <time>2014-06-30T14:35:31Z</time>
      </trkpt>
      <trkpt lat="40.669567" lon="-4.748167">
        <ele>2164.0</ele>
        <time>2014-06-30T14:35:32Z</time>
      </trkpt>
      <trkpt lat="40.669667" lon="-4.748133">
        <ele>2163.0</ele>
        <time>2014-06-30T14:35:33Z</time>
      </trkpt>
      <trkpt lat="40.669783" lon="-4.748100">
        <ele>2161.0</ele>
        <time>2014-06-30T14:35:34Z</time>
      </trkpt>
      <trkpt lat="40.669883" lon="-4.748083">
        <ele>2158.0</ele>
        <time>2014-06-30T14:35:35Z</time>
      </trkpt>
      <trkpt lat="40.669983" lon="-4.748050">
        <ele>2156.0</ele>
        <time>2014-06-30T14:35:36Z</time>
      </trkpt>
      <trkpt lat="40.670067" lon="-4.748000">
        <ele>2154.0</ele>
        <time>2014-06-30T14:35:37Z</time>
      </trkpt>
      <trkpt lat="40.670150" lon="-4.747950">
        <ele>2152.0</ele>
        <time>2014-06-30T14:35:38Z</time>
      </trkpt>
      <trkpt lat="40.670233" lon="-4.747900">
        <ele>2149.0</ele>
        <time>2014-06-30T14:35:39Z</time>
      </trkpt>
      <trkpt lat="40.670317" lon="-4.747833">
        <ele>2146.0</ele>
        <time>2014-06-30T14:35:40Z</time>
      </trkpt>
      <trkpt lat="40.670400" lon="-4.747783">
        <ele>2143.0</ele>
        <time>2014-06-30T14:35:41Z</time>
      </trkpt>
      <trkpt lat="40.670467" lon="-4.747700">
        <ele>2140.0</ele>
        <time>2014-06-30T14:35:42Z</time>
      </trkpt>
      <trkpt lat="40.670550" lon="-4.747600">
        <ele>2137.0</ele>
        <time>2014-06-30T14:35:43Z</time>
      </trkpt>
      <trkpt lat="40.670617" lon="-4.747483">
        <ele>2133.0</ele>
        <time>2014-06-30T14:35:44Z</time>
      </trkpt>
      <trkpt lat="40.670683" lon="-4.747350">
        <ele>2129.0</ele>
        <time>2014-06-30T14:35:45Z</time>
      </trkpt>
      <trkpt lat="40.670733" lon="-4.747233">
        <ele>2126.0</ele>
        <time>2014-06-30T14:35:46Z</time>
      </trkpt>
      <trkpt lat="40.670783" lon="-4.747100">
        <ele>2122.0</ele>
        <time>2014-06-30T14:35:47Z</time>
      </trkpt>
      <trkpt lat="40.670833" lon="-4.746950">
        <ele>2118.0</ele>
        <time>2014-06-30T14:35:48Z</time>
      </trkpt>
      <trkpt lat="40.670867" lon="-4.746800">
        <ele>2114.0</ele>
        <time>2014-06-30T14:35:49Z</time>
      </trkpt>
      <trkpt lat="40.670917" lon="-4.746633">
        <ele>2109.0</ele>
        <time>2014-06-30T14:35:50Z</time>
      </trkpt>
      <trkpt lat="40.670983" lon="-4.746467">
        <ele>2104.0</ele>
        <time>2014-06-30T14:35:51Z</time>
      </trkpt>
      <trkpt lat="40.671017" lon="-4.746283">
        <ele>2100.0</ele>
        <time>2014-06-30T14:35:52Z</time>
      </trkpt>
      <trkpt lat="40.671067" lon="-4.746117">
        <ele>2097.0</ele>
        <time>2014-06-30T14:35:53Z</time>
      </trkpt>
      <trkpt lat="40.671117" lon="-4.745967">
        <ele>2093.0</ele>
        <time>2014-06-30T14:35:54Z</time>
      </trkpt>
      <trkpt lat="40.671150" lon="-4.745800">
        <ele>2089.0</ele>
        <time>2014-06-30T14:35:55Z</time>
      </trkpt>
      <trkpt lat="40.671200" lon="-4.745633">
        <ele>2084.0</ele>
        <time>2014-06-30T14:35:56Z</time>
      </trkpt>
      <trkpt lat="40.671250" lon="-4.745467">
        <ele>2078.0</ele>
        <time>2014-06-30T14:35:57Z</time>
      </trkpt>
      <trkpt lat="40.671317" lon="-4.745317">
        <ele>2073.0</ele>
        <time>2014-06-30T14:35:58Z</time>
      </trkpt>
      <trkpt lat="40.671383" lon="-4.745183">
        <ele>2068.0</ele>
        <time>2014-06-30T14:35:59Z</time>
      </trkpt>
      <trkpt lat="40.671450" lon="-4.745050">
        <ele>2063.0</ele>
        <time>2014-06-30T14:36:00Z</time>
      </trkpt>
      <trkpt lat="40.671533" lon="-4.744917">
        <ele>2058.0</ele>
        <time>2014-06-30T14:36:01Z</time>
      </trkpt>
      <trkpt lat="40.671600" lon="-4.744800">
        <ele>2054.0</ele>
        <time>2014-06-30T14:36:02Z</time>
      </trkpt>
      <trkpt lat="40.671667" lon="-4.744683">
        <ele>2050.0</ele>
        <time>2014-06-30T14:36:03Z</time>
      </trkpt>
      <trkpt lat="40.671733" lon="-4.744567">
        <ele>2045.0</ele>
        <time>2014-06-30T14:36:04Z</time>
      </trkpt>
      <trkpt lat="40.671833" lon="-4.744450">
        <ele>2041.0</ele>
        <time>2014-06-30T14:36:05Z</time>
      </trkpt>
      <trkpt lat="40.671933" lon="-4.744367">
        <ele>2037.0</ele>
        <time>2014-06-30T14:36:06Z</time>
      </trkpt>
      <trkpt lat="40.672017" lon="-4.744283">
        <ele>2034.0</ele>
        <time>2014-06-30T14:36:07Z</time>
      </trkpt>
      <trkpt lat="40.672100" lon="-4.744200">
        <ele>2031.0</ele>
        <time>2014-06-30T14:36:08Z</time>
      </trkpt>
      <trkpt lat="40.672183" lon="-4.744117">
        <ele>2028.0</ele>
        <time>2014-06-30T14:36:09Z</time>
      </trkpt>
      <trkpt lat="40.672250" lon="-4.744033">
        <ele>2025.0</ele>
        <time>2014-06-30T14:36:10Z</time>
      </trkpt>
      <trkpt lat="40.672333" lon="-4.743950">
        <ele>2022.0</ele>
        <time>2014-06-30T14:36:11Z</time>
      </trkpt>
      <trkpt lat="40.672433" lon="-4.743883">
        <ele>2019.0</ele>
        <time>2014-06-30T14:36:12Z</time>
      </trkpt>
      <trkpt lat="40.672517" lon="-4.743800">
        <ele>2017.0</ele>
        <time>2014-06-30T14:36:13Z</time>
      </trkpt>
      <trkpt lat="40.672600" lon="-4.743717">
        <ele>2014.0</ele>
        <time>2014-06-30T14:36:14Z</time>
      </trkpt>
      <trkpt lat="40.672700" lon="-4.743617">
        <ele>2011.0</ele>
        <time>2014-06-30T14:36:15Z</time>
      </trkpt>
      <trkpt lat="40.672783" lon="-4.743533">
        <ele>2008.0</ele>
        <time>2014-06-30T14:36:16Z</time>
      </trkpt>
      <trkpt lat="40.672883" lon="-4.743450">
        <ele>2006.0</ele>
        <time>2014-06-30T14:36:17Z</time>
      </trkpt>
      <trkpt lat="40.672967" lon="-4.743367">
        <ele>2003.0</ele>
        <time>2014-06-30T14:36:18Z</time>
      </trkpt>
      <trkpt lat="40.673067" lon="-4.743283">
        <ele>2000.0</ele>
        <time>2014-06-30T14:36:19Z</time>
      </trkpt>
      <trkpt lat="40.673183" lon="-4.743200">
        <ele>1996.0</ele>
        <time>2014-06-30T14:36:20Z</time>
      </trkpt>
      <trkpt lat="40.673300" lon="-4.743117">
        <ele>1993.0</ele>
        <time>2014-06-30T14:36:21Z</time>
      </trkpt>
      <trkpt lat="40.673417" lon="-4.743017">
        <ele>1990.0</ele>
        <time>2014-06-30T14:36:22Z</time>
      </trkpt>
      <trkpt lat="40.673533" lon="-4.742917">
        <ele>1987.0</ele>
        <time>2014-06-30T14:36:23Z</time>
      </trkpt>
      <trkpt lat="40.673633" lon="-4.742817">
        <ele>1984.0</ele>
        <time>2014-06-30T14:36:24Z</time>
      </trkpt>
      <trkpt lat="40.673750" lon="-4.742700">
        <ele>1981.0</ele>
        <time>2014-06-30T14:36:25Z</time>
      </trkpt>
      <trkpt lat="40.673850" lon="-4.742583">
        <ele>1978.0</ele>
        <time>2014-06-30T14:36:26Z</time>
      </trkpt>
      <trkpt lat="40.673950" lon="-4.742467">
        <ele>1975.0</ele>
        <time>2014-06-30T14:36:27Z</time>
      </trkpt>
      <trkpt lat="40.674067" lon="-4.742367">
        <ele>1971.0</ele>
        <time>2014-06-30T14:36:28Z</time>
      </trkpt>
      <trkpt lat="40.674167" lon="-4.742267">
        <ele>1968.0</ele>
        <time>2014-06-30T14:36:29Z</time>
      </trkpt>
      <trkpt lat="40.674283" lon="-4.742167">
        <ele>1965.0</ele>
        <time>2014-06-30T14:36:30Z</time>
      </trkpt>
      <trkpt lat="40.674383" lon="-4.742050">
        <ele>1962.0</ele>
        <time>2014-06-30T14:36:31Z</time>
      </trkpt>
      <trkpt lat="40.674483" lon="-4.741950">
        <ele>1958.0</ele>
        <time>2014-06-30T14:36:32Z</time>
      </trkpt>
      <trkpt lat="40.674600" lon="-4.741850">
        <ele>1955.0</ele>
        <time>2014-06-30T14:36:33Z</time>
      </trkpt>
      <trkpt lat="40.674700" lon="-4.741750">
        <ele>1952.0</ele>
        <time>2014-06-30T14:36:34Z</time>
      </trkpt>
      <trkpt lat="40.674817" lon="-4.741650">
        <ele>1948.0</ele>
        <time>2014-06-30T14:36:35Z</time>
      </trkpt>
      <trkpt lat="40.674917" lon="-4.741550">
        <ele>1945.0</ele>
        <time>2014-06-30T14:36:36Z</time>
      </trkpt>
      <trkpt lat="40.675017" lon="-4.741433">
        <ele>1942.0</ele>
        <time>2014-06-30T14:36:37Z</time>
      </trkpt>
      <trkpt lat="40.675133" lon="-4.741333">
        <ele>1939.0</ele>
        <time>2014-06-30T14:36:38Z</time>
      </trkpt>
      <trkpt lat="40.675233" lon="-4.741217">
        <ele>1936.0</ele>
        <time>2014-06-30T14:36:39Z</time>
      </trkpt>
      <trkpt lat="40.675350" lon="-4.741100">
        <ele>1934.0</ele>
        <time>2014-06-30T14:36:40Z</time>
      </trkpt>
      <trkpt lat="40.675450" lon="-4.740983">
        <ele>1931.0</ele>
        <time>2014-06-30T14:36:41Z</time>
      </trkpt>
      <trkpt lat="40.675550" lon="-4.740850">
        <ele>1929.0</ele>
        <time>2014-06-30T14:36:42Z</time>
      </trkpt>
      <trkpt lat="40.675650" lon="-4.740733">
        <ele>1927.0</ele>
        <time>2014-06-30T14:36:43Z</time>
      </trkpt>
      <trkpt lat="40.675750" lon="-4.740617">
        <ele>1925.0</ele>
        <time>2014-06-30T14:36:44Z</time>
      </trkpt>
      <trkpt lat="40.675850" lon="-4.740500">
        <ele>1924.0</ele>
        <time>2014-06-30T14:36:45Z</time>
      </trkpt>
      <trkpt lat="40.675933" lon="-4.740383">
        <ele>1922.0</ele>
        <time>2014-06-30T14:36:46Z</time>
      </trkpt>
      <trkpt lat="40.676033" lon="-4.740283">
        <ele>1919.0</ele>
        <time>2014-06-30T14:36:47Z</time>
      </trkpt>
      <trkpt lat="40.676150" lon="-4.740167">
        <ele>1917.0</ele>
        <time>2014-06-30T14:36:48Z</time>
      </trkpt>
      <trkpt lat="40.676250" lon="-4.740050">
        <ele>1915.0</ele>
        <time>2014-06-30T14:36:49Z</time>
      </trkpt>
      <trkpt lat="40.676350" lon="-4.739933">
        <ele>1913.0</ele>
        <time>2014-06-30T14:36:50Z</time>
      </trkpt>
      <trkpt lat="40.676433" lon="-4.739817">
        <ele>1912.0</ele>
        <time>2014-06-30T14:36:51Z</time>
      </trkpt>
      <trkpt lat="40.676500" lon="-4.739733">
        <ele>1912.0</ele>
        <time>2014-06-30T14:36:52Z</time>
      </trkpt>
      <trkpt lat="40.676550" lon="-4.739667">
        <ele>1911.0</ele>
        <time>2014-06-30T14:36:53Z</time>
      </trkpt>
      <trkpt lat="40.676617" lon="-4.739600">
        <ele>1909.0</ele>
        <time>2014-06-30T14:36:54Z</time>
      </trkpt>
      <trkpt lat="40.676683" lon="-4.739517">
        <ele>1907.0</ele>
        <time>2014-06-30T14:36:55Z</time>
      </trkpt>
      <trkpt lat="40.676767" lon="-4.739417">
        <ele>1905.0</ele>
        <time>2014-06-30T14:36:56Z</time>
      </trkpt>
      <trkpt lat="40.676850" lon="-4.739317">
        <ele>1903.0</ele>
        <time>2014-06-30T14:36:57Z</time>
      </trkpt>
      <trkpt lat="40.676933" lon="-4.739217">
        <ele>1902.0</ele>
        <time>2014-06-30T14:36:58Z</time>
      </trkpt>
      <trkpt lat="40.677017" lon="-4.739117">
        <ele>1902.0</ele>
        <time>2014-06-30T14:36:59Z</time>
      </trkpt>
      <trkpt lat="40.677100" lon="-4.739000">
        <ele>1902.0</ele>
        <time>2014-06-30T14:37:00Z</time>
      </trkpt>
      <trkpt lat="40.677167" lon="-4.738917">
        <ele>1902.0</ele>
        <time>2014-06-30T14:37:01Z</time>
      </trkpt>
      <trkpt lat="40.677233" lon="-4.738833">
        <ele>1903.0</ele>
        <time>2014-06-30T14:37:02Z</time>
      </trkpt>
      <trkpt lat="40.677317" lon="-4.738767">
        <ele>1903.0</ele>
        <time>2014-06-30T14:37:03Z</time>
      </trkpt>
      <trkpt lat="40.677383" lon="-4.738700">
        <ele>1904.0</ele>
        <time>2014-06-30T14:37:04Z</time>
      </trkpt>
      <trkpt lat="40.677467" lon="-4.738633">
        <ele>1903.0</ele>
        <time>2014-06-30T14:37:05Z</time>
      </trkpt>
      <trkpt lat="40.677550" lon="-4.738583">
        <ele>1902.0</ele>
        <time>2014-06-30T14:37:06Z</time>
      </trkpt>
      <trkpt lat="40.677650" lon="-4.738517">
        <ele>1900.0</ele>
        <time>2014-06-30T14:37:07Z</time>
      </trkpt>
      <trkpt lat="40.677750" lon="-4.738450">
        <ele>1897.0</ele>
        <time>2014-06-30T14:37:08Z</time>
      </trkpt>
      <trkpt lat="40.677850" lon="-4.738367">
        <ele>1895.0</ele>
        <time>2014-06-30T14:37:09Z</time>
      </trkpt>
      <trkpt lat="40.677950" lon="-4.738267">
        <ele>1893.0</ele>
        <time>2014-06-30T14:37:10Z</time>
      </trkpt>
      <trkpt lat="40.678033" lon="-4.738167">
        <ele>1892.0</ele>
        <time>2014-06-30T14:37:11Z</time>
      </trkpt>
      <trkpt lat="40.678100" lon="-4.738067">
        <ele>1892.0</ele>
        <time>2014-06-30T14:37:12Z</time>
      </trkpt>
      <trkpt lat="40.678183" lon="-4.737967">
        <ele>1892.0</ele>
        <time>2014-06-30T14:37:13Z</time>
      </trkpt>
      <trkpt lat="40.678267" lon="-4.737883">
        <ele>1892.0</ele>
        <time>2014-06-30T14:37:14Z</time>
      </trkpt>
      <trkpt lat="40.678333" lon="-4.737817">
        <ele>1892.0</ele>
        <time>2014-06-30T14:37:15Z</time>
      </trkpt>
      <trkpt lat="40.678417" lon="-4.737733">
        <ele>1892.0</ele>
        <time>2014-06-30T14:37:16Z</time>
      </trkpt>
      <trkpt lat="40.678500" lon="-4.737633">
        <ele>1891.0</ele>
        <time>2014-06-30T14:37:17Z</time>
      </trkpt>
      <trkpt lat="40.678567" lon="-4.737533">
        <ele>1890.0</ele>
        <time>2014-06-30T14:37:18Z</time>
      </trkpt>
      <trkpt lat="40.678650" lon="-4.737417">
        <ele>1889.0</ele>
        <time>2014-06-30T14:37:19Z</time>
      </trkpt>
      <trkpt lat="40.678733" lon="-4.737300">
        <ele>1889.0</ele>
        <time>2014-06-30T14:37:20Z</time>
      </trkpt>
      <trkpt lat="40.678817" lon="-4.737167">
        <ele>1888.0</ele>
        <time>2014-06-30T14:37:21Z</time>
      </trkpt>
      <trkpt lat="40.678883" lon="-4.737033">
        <ele>1887.0</ele>
        <time>2014-06-30T14:37:22Z</time>
      </trkpt>
      <trkpt lat="40.678967" lon="-4.736900">
        <ele>1887.0</ele>
        <time>2014-06-30T14:37:23Z</time>
      </trkpt>
      <trkpt lat="40.679050" lon="-4.736783">
        <ele>1887.0</ele>
        <time>2014-06-30T14:37:24Z</time>
      </trkpt>
      <trkpt lat="40.679133" lon="-4.736683">
        <ele>1887.0</ele>
        <time>2014-06-30T14:37:25Z</time>
      </trkpt>
      <trkpt lat="40.679217" lon="-4.736600">
        <ele>1888.0</ele>
        <time>2014-06-30T14:37:26Z</time>
      </trkpt>
      <trkpt lat="40.679300" lon="-4.736517">
        <ele>1887.0</ele>
        <time>2014-06-30T14:37:27Z</time>
      </trkpt>
      <trkpt lat="40.679400" lon="-4.736450">
        <ele>1886.0</ele>
        <time>2014-06-30T14:37:28Z</time>
      </trkpt>
      <trkpt lat="40.679500" lon="-4.736367">
        <ele>1885.0</ele>
        <time>2014-06-30T14:37:29Z</time>
      </trkpt>
      <trkpt lat="40.679600" lon="-4.736283">
        <ele>1883.0</ele>
        <time>2014-06-30T14:37:30Z</time>
      </trkpt>
      <trkpt lat="40.679683" lon="-4.736217">
        <ele>1881.0</ele>
        <time>2014-06-30T14:37:31Z</time>
      </trkpt>
      <trkpt lat="40.679767" lon="-4.736133">
        <ele>1880.0</ele>
        <time>2014-06-30T14:37:32Z</time>
      </trkpt>
      <trkpt lat="40.679850" lon="-4.736050">
        <ele>1878.0</ele>
        <time>2014-06-30T14:37:33Z</time>
      </trkpt>
      <trkpt lat="40.679933" lon="-4.735967">
        <ele>1875.0</ele>
        <time>2014-06-30T14:37:34Z</time>
      </trkpt>
      <trkpt lat="40.680017" lon="-4.735867">
        <ele>1872.0</ele>
        <time>2014-06-30T14:37:35Z</time>
      </trkpt>
      <trkpt lat="40.680100" lon="-4.735783">
        <ele>1869.0</ele>
        <time>2014-06-30T14:37:36Z</time>
      </trkpt>
      <trkpt lat="40.680200" lon="-4.735717">
        <ele>1866.0</ele>
        <time>2014-06-30T14:37:37Z</time>
      </trkpt>
      <trkpt lat="40.680283" lon="-4.735633">
        <ele>1863.0</ele>
        <time>2014-06-30T14:37:38Z</time>
      </trkpt>
      <trkpt lat="40.680367" lon="-4.735567">
        <ele>1859.0</ele>
        <time>2014-06-30T14:37:39Z</time>
      </trkpt>
      <trkpt lat="40.680467" lon="-4.735500">
        <ele>1856.0</ele>
        <time>2014-06-30T14:37:40Z</time>
      </trkpt>
      <trkpt lat="40.680567" lon="-4.735417">
        <ele>1852.0</ele>
        <time>2014-06-30T14:37:41Z</time>
      </trkpt>
      <trkpt lat="40.680667" lon="-4.735317">
        <ele>1848.0</ele>
        <time>2014-06-30T14:37:42Z</time>
      </trkpt>
      <trkpt lat="40.680783" lon="-4.735233">
        <ele>1844.0</ele>
        <time>2014-06-30T14:37:43Z</time>
      </trkpt>
      <trkpt lat="40.680883" lon="-4.735150">
        <ele>1841.0</ele>
        <time>2014-06-30T14:37:44Z</time>
      </trkpt>
      <trkpt lat="40.680983" lon="-4.735067">
        <ele>1839.0</ele>
        <time>2014-06-30T14:37:45Z</time>
      </trkpt>
      <trkpt lat="40.681083" lon="-4.734967">
        <ele>1837.0</ele>
        <time>2014-06-30T14:37:46Z</time>
      </trkpt>
      <trkpt lat="40.681183" lon="-4.734867">
        <ele>1834.0</ele>
        <time>2014-06-30T14:37:47Z</time>
      </trkpt>
      <trkpt lat="40.681283" lon="-4.734750">
        <ele>1830.0</ele>
        <time>2014-06-30T14:37:48Z</time>
      </trkpt>
      <trkpt lat="40.681400" lon="-4.734650">
        <ele>1826.0</ele>
        <time>2014-06-30T14:37:49Z</time>
      </trkpt>
      <trkpt lat="40.681517" lon="-4.734533">
        <ele>1823.0</ele>
        <time>2014-06-30T14:37:50Z</time>
      </trkpt>
      <trkpt lat="40.681633" lon="-4.734417">
        <ele>1818.0</ele>
        <time>2014-06-30T14:37:51Z</time>
      </trkpt>
      <trkpt lat="40.681750" lon="-4.734300">
        <ele>1815.0</ele>
        <time>2014-06-30T14:37:52Z</time>
      </trkpt>
      <trkpt lat="40.681867" lon="-4.734167">
        <ele>1811.0</ele>
        <time>2014-06-30T14:37:53Z</time>
      </trkpt>
      <trkpt lat="40.681983" lon="-4.734033">
        <ele>1808.0</ele>
        <time>2014-06-30T14:37:54Z</time>
      </trkpt>
      <trkpt lat="40.682083" lon="-4.733917">
        <ele>1805.0</ele>
        <time>2014-06-30T14:37:55Z</time>
      </trkpt>
      <trkpt lat="40.682200" lon="-4.733800">
        <ele>1802.0</ele>
        <time>2014-06-30T14:37:56Z</time>
      </trkpt>
      <trkpt lat="40.682317" lon="-4.733667">
        <ele>1799.0</ele>
        <time>2014-06-30T14:37:57Z</time>
      </trkpt>
      <trkpt lat="40.682433" lon="-4.733533">
        <ele>1796.0</ele>
        <time>2014-06-30T14:37:58Z</time>
      </trkpt>
      <trkpt lat="40.682550" lon="-4.733400">
        <ele>1794.0</ele>
        <time>2014-06-30T14:37:59Z</time>
      </trkpt>
      <trkpt lat="40.682650" lon="-4.733283">
        <ele>1792.0</ele>
        <time>2014-06-30T14:38:00Z</time>
      </trkpt>
      <trkpt lat="40.682767" lon="-4.733167">
        <ele>1791.0</ele>
        <time>2014-06-30T14:38:01Z</time>
      </trkpt>
      <trkpt lat="40.682883" lon="-4.733033">
        <ele>1790.0</ele>
        <time>2014-06-30T14:38:02Z</time>
      </trkpt>
      <trkpt lat="40.683000" lon="-4.732917">
        <ele>1789.0</ele>
        <time>2014-06-30T14:38:03Z</time>
      </trkpt>
      <trkpt lat="40.683117" lon="-4.732783">
        <ele>1788.0</ele>
        <time>2014-06-30T14:38:04Z</time>
      </trkpt>
      <trkpt lat="40.683217" lon="-4.732667">
        <ele>1787.0</ele>
        <time>2014-06-30T14:38:05Z</time>
      </trkpt>
      <trkpt lat="40.683333" lon="-4.732533">
        <ele>1786.0</ele>
        <time>2014-06-30T14:38:06Z</time>
      </trkpt>
      <trkpt lat="40.683450" lon="-4.732417">
        <ele>1785.0</ele>
        <time>2014-06-30T14:38:07Z</time>
      </trkpt>
      <trkpt lat="40.683567" lon="-4.732300">
        <ele>1786.0</ele>
        <time>2014-06-30T14:38:08Z</time>
      </trkpt>
      <trkpt lat="40.683667" lon="-4.732183">
        <ele>1787.0</ele>
        <time>2014-06-30T14:38:09Z</time>
      </trkpt>
      <trkpt lat="40.683767" lon="-4.732083">
        <ele>1788.0</ele>
        <time>2014-06-30T14:38:10Z</time>
      </trkpt>
      <trkpt lat="40.683867" lon="-4.732000">
        <ele>1790.0</ele>
        <time>2014-06-30T14:38:11Z</time>
      </trkpt>
      <trkpt lat="40.683950" lon="-4.731917">
        <ele>1793.0</ele>
        <time>2014-06-30T14:38:12Z</time>
      </trkpt>
      <trkpt lat="40.684033" lon="-4.731833">
        <ele>1795.0</ele>
        <time>2014-06-30T14:38:13Z</time>
      </trkpt>
      <trkpt lat="40.684133" lon="-4.731750">
        <ele>1797.0</ele>
        <time>2014-06-30T14:38:14Z</time>
      </trkpt>
      <trkpt lat="40.684217" lon="-4.731683">
        <ele>1798.0</ele>
        <time>2014-06-30T14:38:15Z</time>
      </trkpt>
      <trkpt lat="40.684333" lon="-4.731600">
        <ele>1799.0</ele>
        <time>2014-06-30T14:38:16Z</time>
      </trkpt>
      <trkpt lat="40.684433" lon="-4.731533">
        <ele>1800.0</ele>
        <time>2014-06-30T14:38:17Z</time>
      </trkpt>
      <trkpt lat="40.684533" lon="-4.731450">
        <ele>1802.0</ele>
        <time>2014-06-30T14:38:18Z</time>
      </trkpt>
      <trkpt lat="40.684633" lon="-4.731400">
        <ele>1803.0</ele>
        <time>2014-06-30T14:38:19Z</time>
      </trkpt>
      <trkpt lat="40.684733" lon="-4.731350">
        <ele>1804.0</ele>
        <time>2014-06-30T14:38:20Z</time>
      </trkpt>
      <trkpt lat="40.684833" lon="-4.731300">
        <ele>1804.0</ele>
        <time>2014-06-30T14:38:21Z</time>
      </trkpt>
      <trkpt lat="40.684933" lon="-4.731267">
        <ele>1805.0</ele>
        <time>2014-06-30T14:38:22Z</time>
      </trkpt>
      <trkpt lat="40.685033" lon="-4.731250">
        <ele>1805.0</ele>
        <time>2014-06-30T14:38:23Z</time>
      </trkpt>
      <trkpt lat="40.685150" lon="-4.731250">
        <ele>1806.0</ele>
        <time>2014-06-30T14:38:24Z</time>
      </trkpt>
      <trkpt lat="40.685250" lon="-4.731267">
        <ele>1806.0</ele>
        <time>2014-06-30T14:38:25Z</time>
      </trkpt>
      <trkpt lat="40.685333" lon="-4.731300">
        <ele>1806.0</ele>
        <time>2014-06-30T14:38:26Z</time>
      </trkpt>
      <trkpt lat="40.685417" lon="-4.731317">
        <ele>1806.0</ele>
        <time>2014-06-30T14:38:27Z</time>
      </trkpt>
      <trkpt lat="40.685500" lon="-4.731317">
        <ele>1807.0</ele>
        <time>2014-06-30T14:38:28Z</time>
      </trkpt>
      <trkpt lat="40.685600" lon="-4.731317">
        <ele>1807.0</ele>
        <time>2014-06-30T14:38:29Z</time>
      </trkpt>
      <trkpt lat="40.685683" lon="-4.731333">
        <ele>1806.0</ele>
        <time>2014-06-30T14:38:30Z</time>
      </trkpt>
      <trkpt lat="40.685767" lon="-4.731367">
        <ele>1805.0</ele>
        <time>2014-06-30T14:38:31Z</time>
      </trkpt>
      <trkpt lat="40.685850" lon="-4.731400">
        <ele>1804.0</ele>
        <time>2014-06-30T14:38:32Z</time>
      </trkpt>
      <trkpt lat="40.685933" lon="-4.731433">
        <ele>1804.0</ele>
        <time>2014-06-30T14:38:33Z</time>
      </trkpt>
      <trkpt lat="40.686017" lon="-4.731450">
        <ele>1804.0</ele>
        <time>2014-06-30T14:38:34Z</time>
      </trkpt>
      <trkpt lat="40.686100" lon="-4.731467">
        <ele>1804.0</ele>
        <time>2014-06-30T14:38:35Z</time>
      </trkpt>
      <trkpt lat="40.686200" lon="-4.731450">
        <ele>1803.0</ele>
        <time>2014-06-30T14:38:36Z</time>
      </trkpt>
      <trkpt lat="40.686300" lon="-4.731433">
        <ele>1803.0</ele>
        <time>2014-06-30T14:38:37Z</time>
      </trkpt>
      <trkpt lat="40.686417" lon="-4.731417">
        <ele>1802.0</ele>
        <time>2014-06-30T14:38:38Z</time>
      </trkpt>
      <trkpt lat="40.686533" lon="-4.731400">
        <ele>1803.0</ele>
        <time>2014-06-30T14:38:39Z</time>
      </trkpt>
      <trkpt lat="40.686633" lon="-4.731400">
        <ele>1803.0</ele>
        <time>2014-06-30T14:38:40Z</time>
      </trkpt>
      <trkpt lat="40.686717" lon="-4.731417">
        <ele>1804.0</ele>
        <time>2014-06-30T14:38:41Z</time>
      </trkpt>
      <trkpt lat="40.686817" lon="-4.731417">
        <ele>1805.0</ele>
        <time>2014-06-30T14:38:42Z</time>
      </trkpt>
      <trkpt lat="40.686900" lon="-4.731383">
        <ele>1805.0</ele>
        <time>2014-06-30T14:38:43Z</time>
      </trkpt>
      <trkpt lat="40.687017" lon="-4.731350">
        <ele>1806.0</ele>
        <time>2014-06-30T14:38:44Z</time>
      </trkpt>
      <trkpt lat="40.687117" lon="-4.731300">
        <ele>1806.0</ele>
        <time>2014-06-30T14:38:45Z</time>
      </trkpt>
      <trkpt lat="40.687217" lon="-4.731283">
        <ele>1806.0</ele>
        <time>2014-06-30T14:38:46Z</time>
      </trkpt>
      <trkpt lat="40.687333" lon="-4.731300">
        <ele>1806.0</ele>
        <time>2014-06-30T14:38:47Z</time>
      </trkpt>
      <trkpt lat="40.687433" lon="-4.731317">
        <ele>1807.0</ele>
        <time>2014-06-30T14:38:48Z</time>
      </trkpt>
      <trkpt lat="40.687517" lon="-4.731317">
        <ele>1807.0</ele>
        <time>2014-06-30T14:38:49Z</time>
      </trkpt>
      <trkpt lat="40.687617" lon="-4.731300">
        <ele>1807.0</ele>
        <time>2014-06-30T14:38:50Z</time>
      </trkpt>
      <trkpt lat="40.687700" lon="-4.731267">
        <ele>1806.0</ele>
        <time>2014-06-30T14:38:51Z</time>
      </trkpt>
      <trkpt lat="40.687800" lon="-4.731233">
        <ele>1805.0</ele>
        <time>2014-06-30T14:38:52Z</time>
      </trkpt>
      <trkpt lat="40.687900" lon="-4.731183">
        <ele>1804.0</ele>
        <time>2014-06-30T14:38:53Z</time>
      </trkpt>
      <trkpt lat="40.687983" lon="-4.731117">
        <ele>1803.0</ele>
        <time>2014-06-30T14:38:54Z</time>
      </trkpt>
      <trkpt lat="40.688067" lon="-4.731033">
        <ele>1803.0</ele>
        <time>2014-06-30T14:38:55Z</time>
      </trkpt>
      <trkpt lat="40.688133" lon="-4.730933">
        <ele>1802.0</ele>
        <time>2014-06-30T14:38:56Z</time>
      </trkpt>
      <trkpt lat="40.688217" lon="-4.730833">
        <ele>1801.0</ele>
        <time>2014-06-30T14:38:57Z</time>
      </trkpt>
      <trkpt lat="40.688283" lon="-4.730700">
        <ele>1799.0</ele>
        <time>2014-06-30T14:38:58Z</time>
      </trkpt>
      <trkpt lat="40.688350" lon="-4.730600">
        <ele>1799.0</ele>
        <time>2014-06-30T14:38:59Z</time>
      </trkpt>
      <trkpt lat="40.688433" lon="-4.730483">
        <ele>1799.0</ele>
        <time>2014-06-30T14:39:00Z</time>
      </trkpt>
      <trkpt lat="40.688517" lon="-4.730367">
        <ele>1798.0</ele>
        <time>2014-06-30T14:39:01Z</time>
      </trkpt>
      <trkpt lat="40.688600" lon="-4.730267">
        <ele>1797.0</ele>
        <time>2014-06-30T14:39:02Z</time>
      </trkpt>
      <trkpt lat="40.688683" lon="-4.730150">
        <ele>1797.0</ele>
        <time>2014-06-30T14:39:03Z</time>
      </trkpt>
      <trkpt lat="40.688767" lon="-4.730050">
        <ele>1797.0</ele>
        <time>2014-06-30T14:39:04Z</time>
      </trkpt>
      <trkpt lat="40.688833" lon="-4.729967">
        <ele>1797.0</ele>
        <time>2014-06-30T14:39:05Z</time>
      </trkpt>
      <trkpt lat="40.688917" lon="-4.729883">
        <ele>1797.0</ele>
        <time>2014-06-30T14:39:06Z</time>
      </trkpt>
      <trkpt lat="40.689000" lon="-4.729800">
        <ele>1796.0</ele>
        <time>2014-06-30T14:39:07Z</time>
      </trkpt>
      <trkpt lat="40.689083" lon="-4.729700">
        <ele>1796.0</ele>
        <time>2014-06-30T14:39:08Z</time>
      </trkpt>
      <trkpt lat="40.689167" lon="-4.729617">
        <ele>1795.0</ele>
        <time>2014-06-30T14:39:09Z</time>
      </trkpt>
      <trkpt lat="40.689250" lon="-4.729517">
        <ele>1793.0</ele>
        <time>2014-06-30T14:39:10Z</time>
      </trkpt>
      <trkpt lat="40.689333" lon="-4.729417">
        <ele>1792.0</ele>
        <time>2014-06-30T14:39:11Z</time>
      </trkpt>
      <trkpt lat="40.689417" lon="-4.729300">
        <ele>1790.0</ele>
        <time>2014-06-30T14:39:12Z</time>
      </trkpt>
      <trkpt lat="40.689483" lon="-4.729167">
        <ele>1789.0</ele>
        <time>2014-06-30T14:39:13Z</time>
      </trkpt>
      <trkpt lat="40.689550" lon="-4.729050">
        <ele>1788.0</ele>
        <time>2014-06-30T14:39:14Z</time>
      </trkpt>
      <trkpt lat="40.689617" lon="-4.728950">
        <ele>1787.0</ele>
        <time>2014-06-30T14:39:15Z</time>
      </trkpt>
      <trkpt lat="40.689683" lon="-4.728850">
        <ele>1786.0</ele>
        <time>2014-06-30T14:39:16Z</time>
      </trkpt>
      <trkpt lat="40.689767" lon="-4.728733">
        <ele>1785.0</ele>
        <time>2014-06-30T14:39:17Z</time>
      </trkpt>
      <trkpt lat="40.689833" lon="-4.728633">
        <ele>1784.0</ele>
        <time>2014-06-30T14:39:18Z</time>
      </trkpt>
      <trkpt lat="40.689917" lon="-4.728533">
        <ele>1783.0</ele>
        <time>2014-06-30T14:39:19Z</time>
      </trkpt>
      <trkpt lat="40.689983" lon="-4.728433">
        <ele>1783.0</ele>
        <time>2014-06-30T14:39:20Z</time>
      </trkpt>
      <trkpt lat="40.690050" lon="-4.728333">
        <ele>1781.0</ele>
        <time>2014-06-30T14:39:21Z</time>
      </trkpt>
      <trkpt lat="40.690133" lon="-4.728233">
        <ele>1780.0</ele>
        <time>2014-06-30T14:39:22Z</time>
      </trkpt>
      <trkpt lat="40.690217" lon="-4.728117">
        <ele>1778.0</ele>
        <time>2014-06-30T14:39:23Z</time>
      </trkpt>
      <trkpt lat="40.690300" lon="-4.728000">
        <ele>1777.0</ele>
        <time>2014-06-30T14:39:24Z</time>
      </trkpt>
      <trkpt lat="40.690383" lon="-4.727883">
        <ele>1776.0</ele>
        <time>2014-06-30T14:39:25Z</time>
      </trkpt>
      <trkpt lat="40.690450" lon="-4.727783">
        <ele>1777.0</ele>
        <time>2014-06-30T14:39:26Z</time>
      </trkpt>
      <trkpt lat="40.690533" lon="-4.727683">
        <ele>1778.0</ele>
        <time>2014-06-30T14:39:27Z</time>
      </trkpt>
      <trkpt lat="40.690600" lon="-4.727600">
        <ele>1778.0</ele>
        <time>2014-06-30T14:39:28Z</time>
      </trkpt>
      <trkpt lat="40.690667" lon="-4.727517">
        <ele>1778.0</ele>
        <time>2014-06-30T14:39:29Z</time>
      </trkpt>
      <trkpt lat="40.690750" lon="-4.727417">
        <ele>1779.0</ele>
        <time>2014-06-30T14:39:30Z</time>
      </trkpt>
      <trkpt lat="40.690817" lon="-4.727300">
        <ele>1778.0</ele>
        <time>2014-06-30T14:39:31Z</time>
      </trkpt>
      <trkpt lat="40.690883" lon="-4.727200">
        <ele>1777.0</ele>
        <time>2014-06-30T14:39:32Z</time>
      </trkpt>
      <trkpt lat="40.690950" lon="-4.727083">
        <ele>1777.0</ele>
        <time>2014-06-30T14:39:33Z</time>
      </trkpt>
      <trkpt lat="40.691000" lon="-4.726967">
        <ele>1776.0</ele>
        <time>2014-06-30T14:39:34Z</time>
      </trkpt>
      <trkpt lat="40.691067" lon="-4.726867">
        <ele>1776.0</ele>
        <time>2014-06-30T14:39:35Z</time>
      </trkpt>
      <trkpt lat="40.691150" lon="-4.726767">
        <ele>1776.0</ele>
        <time>2014-06-30T14:39:36Z</time>
      </trkpt>
      <trkpt lat="40.691233" lon="-4.726683">
        <ele>1775.0</ele>
        <time>2014-06-30T14:39:37Z</time>
      </trkpt>
      <trkpt lat="40.691300" lon="-4.726583">
        <ele>1775.0</ele>
        <time>2014-06-30T14:39:38Z</time>
      </trkpt>
      <trkpt lat="40.691383" lon="-4.726483">
        <ele>1774.0</ele>
        <time>2014-06-30T14:39:39Z</time>
      </trkpt>
      <trkpt lat="40.691450" lon="-4.726383">
        <ele>1773.0</ele>
        <time>2014-06-30T14:39:40Z</time>
      </trkpt>
      <trkpt lat="40.691517" lon="-4.726267">
        <ele>1772.0</ele>
        <time>2014-06-30T14:39:41Z</time>
      </trkpt>
      <trkpt lat="40.691600" lon="-4.726150">
        <ele>1770.0</ele>
        <time>2014-06-30T14:39:42Z</time>
      </trkpt>
      <trkpt lat="40.691667" lon="-4.726033">
        <ele>1769.0</ele>
        <time>2014-06-30T14:39:43Z</time>
      </trkpt>
      <trkpt lat="40.691750" lon="-4.725933">
        <ele>1767.0</ele>
        <time>2014-06-30T14:39:44Z</time>
      </trkpt>
      <trkpt lat="40.691817" lon="-4.725833">
        <ele>1766.0</ele>
        <time>2014-06-30T14:39:45Z</time>
      </trkpt>
      <trkpt lat="40.691900" lon="-4.725717">
        <ele>1765.0</ele>
        <time>2014-06-30T14:39:46Z</time>
      </trkpt>
      <trkpt lat="40.692000" lon="-4.725617">
        <ele>1764.0</ele>
        <time>2014-06-30T14:39:47Z</time>
      </trkpt>
      <trkpt lat="40.692083" lon="-4.725517">
        <ele>1763.0</ele>
        <time>2014-06-30T14:39:48Z</time>
      </trkpt>
      <trkpt lat="40.692183" lon="-4.725400">
        <ele>1762.0</ele>
        <time>2014-06-30T14:39:49Z</time>
      </trkpt>
      <trkpt lat="40.692267" lon="-4.725283">
        <ele>1761.0</ele>
        <time>2014-06-30T14:39:50Z</time>
      </trkpt>
      <trkpt lat="40.692367" lon="-4.725167">
        <ele>1760.0</ele>
        <time>2014-06-30T14:39:51Z</time>
      </trkpt>
      <trkpt lat="40.692450" lon="-4.725050">
        <ele>1760.0</ele>
        <time>2014-06-30T14:39:52Z</time>
      </trkpt>
      <trkpt lat="40.692533" lon="-4.724950">
        <ele>1761.0</ele>
        <time>2014-06-30T14:39:53Z</time>
      </trkpt>
      <trkpt lat="40.692600" lon="-4.724850">
        <ele>1761.0</ele>
        <time>2014-06-30T14:39:54Z</time>
      </trkpt>
      <trkpt lat="40.692683" lon="-4.724767">
        <ele>1761.0</ele>
        <time>2014-06-30T14:39:55Z</time>
      </trkpt>
      <trkpt lat="40.692767" lon="-4.724683">
        <ele>1760.0</ele>
        <time>2014-06-30T14:39:56Z</time>
      </trkpt>
      <trkpt lat="40.692850" lon="-4.724600">
        <ele>1760.0</ele>
        <time>2014-06-30T14:39:57Z</time>
      </trkpt>
      <trkpt lat="40.692933" lon="-4.724517">
        <ele>1760.0</ele>
        <time>2014-06-30T14:39:58Z</time>
      </trkpt>
      <trkpt lat="40.693017" lon="-4.724433">
        <ele>1760.0</ele>
        <time>2014-06-30T14:39:59Z</time>
      </trkpt>
      <trkpt lat="40.693083" lon="-4.724367">
        <ele>1760.0</ele>
        <time>2014-06-30T14:40:00Z</time>
      </trkpt>
      <trkpt lat="40.693150" lon="-4.724283">
        <ele>1760.0</ele>
        <time>2014-06-30T14:40:01Z</time>
      </trkpt>
      <trkpt lat="40.693233" lon="-4.724200">
        <ele>1759.0</ele>
        <time>2014-06-30T14:40:02Z</time>
      </trkpt>
      <trkpt lat="40.693300" lon="-4.724100">
        <ele>1758.0</ele>
        <time>2014-06-30T14:40:03Z</time>
      </trkpt>
      <trkpt lat="40.693367" lon="-4.724000">
        <ele>1757.0</ele>
        <time>2014-06-30T14:40:04Z</time>
      </trkpt>
      <trkpt lat="40.693450" lon="-4.723883">
        <ele>1757.0</ele>
        <time>2014-06-30T14:40:05Z</time>
      </trkpt>
      <trkpt lat="40.693517" lon="-4.723783">
        <ele>1756.0</ele>
        <time>2014-06-30T14:40:06Z</time>
      </trkpt>
      <trkpt lat="40.693583" lon="-4.723683">
        <ele>1756.0</ele>
        <time>2014-06-30T14:40:07Z</time>
      </trkpt>
      <trkpt lat="40.693650" lon="-4.723600">
        <ele>1755.0</ele>
        <time>2014-06-30T14:40:08Z</time>
      </trkpt>
      <trkpt lat="40.693717" lon="-4.723500">
        <ele>1755.0</ele>
        <time>2014-06-30T14:40:09Z</time>
      </trkpt>
      <trkpt lat="40.693800" lon="-4.723417">
        <ele>1754.0</ele>
        <time>2014-06-30T14:40:10Z</time>
      </trkpt>
      <trkpt lat="40.693867" lon="-4.723317">
        <ele>1752.0</ele>
        <time>2014-06-30T14:40:11Z</time>
      </trkpt>
      <trkpt lat="40.693950" lon="-4.723217">
        <ele>1751.0</ele>
        <time>2014-06-30T14:40:12Z</time>
      </trkpt>
      <trkpt lat="40.694017" lon="-4.723100">
        <ele>1750.0</ele>
        <time>2014-06-30T14:40:13Z</time>
      </trkpt>
      <trkpt lat="40.694083" lon="-4.723000">
        <ele>1749.0</ele>
        <time>2014-06-30T14:40:14Z</time>
      </trkpt>
      <trkpt lat="40.694150" lon="-4.722883">
        <ele>1748.0</ele>
        <time>2014-06-30T14:40:15Z</time>
      </trkpt>
      <trkpt lat="40.694200" lon="-4.722750">
        <ele>1747.0</ele>
        <time>2014-06-30T14:40:16Z</time>
      </trkpt>
      <trkpt lat="40.694267" lon="-4.722633">
        <ele>1746.0</ele>
        <time>2014-06-30T14:40:17Z</time>
      </trkpt>
      <trkpt lat="40.694333" lon="-4.722517">
        <ele>1746.0</ele>
        <time>2014-06-30T14:40:18Z</time>
      </trkpt>
      <trkpt lat="40.694383" lon="-4.722400">
        <ele>1745.0</ele>
        <time>2014-06-30T14:40:19Z</time>
      </trkpt>
      <trkpt lat="40.694450" lon="-4.722267">
        <ele>1744.0</ele>
        <time>2014-06-30T14:40:20Z</time>
      </trkpt>
      <trkpt lat="40.694517" lon="-4.722133">
        <ele>1744.0</ele>
        <time>2014-06-30T14:40:21Z</time>
      </trkpt>
      <trkpt lat="40.694567" lon="-4.722017">
        <ele>1743.0</ele>
        <time>2014-06-30T14:40:22Z</time>
      </trkpt>
      <trkpt lat="40.694617" lon="-4.721900">
        <ele>1743.0</ele>
        <time>2014-06-30T14:40:23Z</time>
      </trkpt>
      <trkpt lat="40.694683" lon="-4.721783">
        <ele>1743.0</ele>
        <time>2014-06-30T14:40:24Z</time>
      </trkpt>
      <trkpt lat="40.694750" lon="-4.721683">
        <ele>1742.0</ele>
        <time>2014-06-30T14:40:25Z</time>
      </trkpt>
      <trkpt lat="40.694817" lon="-4.721583">
        <ele>1742.0</ele>
        <time>2014-06-30T14:40:26Z</time>
      </trkpt>
      <trkpt lat="40.694883" lon="-4.721483">
        <ele>1741.0</ele>
        <time>2014-06-30T14:40:27Z</time>
      </trkpt>
      <trkpt lat="40.694950" lon="-4.721367">
        <ele>1741.0</ele>
        <time>2014-06-30T14:40:28Z</time>
      </trkpt>
      <trkpt lat="40.695017" lon="-4.721283">
        <ele>1740.0</ele>
        <time>2014-06-30T14:40:29Z</time>
      </trkpt>
      <trkpt lat="40.695083" lon="-4.721183">
        <ele>1739.0</ele>
        <time>2014-06-30T14:40:30Z</time>
      </trkpt>
      <trkpt lat="40.695150" lon="-4.721100">
        <ele>1739.0</ele>
        <time>2014-06-30T14:40:31Z</time>
      </trkpt>
      <trkpt lat="40.695233" lon="-4.721017">
        <ele>1738.0</ele>
        <time>2014-06-30T14:40:32Z</time>
      </trkpt>
      <trkpt lat="40.695300" lon="-4.720933">
        <ele>1737.0</ele>
        <time>2014-06-30T14:40:33Z</time>
      </trkpt>
      <trkpt lat="40.695383" lon="-4.720850">
        <ele>1737.0</ele>
        <time>2014-06-30T14:40:34Z</time>
      </trkpt>
      <trkpt lat="40.695450" lon="-4.720767">
        <ele>1736.0</ele>
        <time>2014-06-30T14:40:35Z</time>
      </trkpt>
      <trkpt lat="40.695533" lon="-4.720700">
        <ele>1736.0</ele>
        <time>2014-06-30T14:40:36Z</time>
      </trkpt>
      <trkpt lat="40.695600" lon="-4.720633">
        <ele>1736.0</ele>
        <time>2014-06-30T14:40:37Z</time>
      </trkpt>
      <trkpt lat="40.695683" lon="-4.720567">
        <ele>1736.0</ele>
        <time>2014-06-30T14:40:38Z</time>
      </trkpt>
      <trkpt lat="40.695767" lon="-4.720517">
        <ele>1737.0</ele>
        <time>2014-06-30T14:40:39Z</time>
      </trkpt>
      <trkpt lat="40.695833" lon="-4.720467">
        <ele>1737.0</ele>
        <time>2014-06-30T14:40:40Z</time>
      </trkpt>
      <trkpt lat="40.695900" lon="-4.720450">
        <ele>1738.0</ele>
        <time>2014-06-30T14:40:41Z</time>
      </trkpt>
      <trkpt lat="40.695967" lon="-4.720467">
        <ele>1738.0</ele>
        <time>2014-06-30T14:40:42Z</time>
      </trkpt>
      <trkpt lat="40.696017" lon="-4.720467">
        <ele>1738.0</ele>
        <time>2014-06-30T14:40:43Z</time>
      </trkpt>
      <trkpt lat="40.696067" lon="-4.720483">
        <ele>1738.0</ele>
        <time>2014-06-30T14:40:44Z</time>
      </trkpt>
      <trkpt lat="40.696117" lon="-4.720483">
        <ele>1738.0</ele>
        <time>2014-06-30T14:40:45Z</time>
      </trkpt>
      <trkpt lat="40.696167" lon="-4.720500">
        <ele>1738.0</ele>
        <time>2014-06-30T14:40:46Z</time>
      </trkpt>
      <trkpt lat="40.696200" lon="-4.720533">
        <ele>1738.0</ele>
        <time>2014-06-30T14:40:47Z</time>
      </trkpt>
      <trkpt lat="40.696233" lon="-4.720567">
        <ele>1738.0</ele>
        <time>2014-06-30T14:40:48Z</time>
      </trkpt>
      <trkpt lat="40.696233" lon="-4.720600">
        <ele>1738.0</ele>
        <time>2014-06-30T14:40:49Z</time>
      </trkpt>
      <trkpt lat="40.696233" lon="-4.720650">
        <ele>1738.0</ele>
        <time>2014-06-30T14:40:50Z</time>
      </trkpt>
      <trkpt lat="40.696217" lon="-4.720683">
        <ele>1738.0</ele>
        <time>2014-06-30T14:40:51Z</time>
      </trkpt>
      <trkpt lat="40.696183" lon="-4.720733">
        <ele>1737.0</ele>
        <time>2014-06-30T14:40:52Z</time>
      </trkpt>
      <trkpt lat="40.696150" lon="-4.720767">
        <ele>1738.0</ele>
        <time>2014-06-30T14:40:53Z</time>
      </trkpt>
      <trkpt lat="40.696100" lon="-4.720783">
        <ele>1738.0</ele>
        <time>2014-06-30T14:40:54Z</time>
      </trkpt>
      <trkpt lat="40.696050" lon="-4.720817">
        <ele>1738.0</ele>
        <time>2014-06-30T14:40:55Z</time>
      </trkpt>
      <trkpt lat="40.695967" lon="-4.720817">
        <ele>1738.0</ele>
        <time>2014-06-30T14:40:56Z</time>
      </trkpt>
      <trkpt lat="40.695900" lon="-4.720800">
        <ele>1738.0</ele>
        <time>2014-06-30T14:40:57Z</time>
      </trkpt>
      <trkpt lat="40.695817" lon="-4.720750">
        <ele>1738.0</ele>
        <time>2014-06-30T14:40:58Z</time>
      </trkpt>
      <trkpt lat="40.695733" lon="-4.720700">
        <ele>1737.0</ele>
        <time>2014-06-30T14:40:59Z</time>
      </trkpt>
      <trkpt lat="40.695650" lon="-4.720600">
        <ele>1737.0</ele>
        <time>2014-06-30T14:41:00Z</time>
      </trkpt>
      <trkpt lat="40.695550" lon="-4.720500">
        <ele>1737.0</ele>
        <time>2014-06-30T14:41:01Z</time>
      </trkpt>
      <trkpt lat="40.695467" lon="-4.720367">
        <ele>1736.0</ele>
        <time>2014-06-30T14:41:02Z</time>
      </trkpt>
      <trkpt lat="40.695400" lon="-4.720217">
        <ele>1735.0</ele>
        <time>2014-06-30T14:41:03Z</time>
      </trkpt>
      <trkpt lat="40.695333" lon="-4.720033">
        <ele>1735.0</ele>
        <time>2014-06-30T14:41:04Z</time>
      </trkpt>
      <trkpt lat="40.695300" lon="-4.719850">
        <ele>1735.0</ele>
        <time>2014-06-30T14:41:05Z</time>
      </trkpt>
      <trkpt lat="40.695283" lon="-4.719683">
        <ele>1735.0</ele>
        <time>2014-06-30T14:41:06Z</time>
      </trkpt>
      <trkpt lat="40.695283" lon="-4.719517">
        <ele>1735.0</ele>
        <time>2014-06-30T14:41:07Z</time>
      </trkpt>
      <trkpt lat="40.695283" lon="-4.719367">
        <ele>1735.0</ele>
        <time>2014-06-30T14:41:08Z</time>
      </trkpt>
      <trkpt lat="40.695300" lon="-4.719200">
        <ele>1734.0</ele>
        <time>2014-06-30T14:41:09Z</time>
      </trkpt>
      <trkpt lat="40.695317" lon="-4.719033">
        <ele>1734.0</ele>
        <time>2014-06-30T14:41:10Z</time>
      </trkpt>
      <trkpt lat="40.695367" lon="-4.718883">
        <ele>1733.0</ele>
        <time>2014-06-30T14:41:11Z</time>
      </trkpt>
      <trkpt lat="40.695417" lon="-4.718733">
        <ele>1732.0</ele>
        <time>2014-06-30T14:41:12Z</time>
      </trkpt>
      <trkpt lat="40.695483" lon="-4.718617">
        <ele>1731.0</ele>
        <time>2014-06-30T14:41:13Z</time>
      </trkpt>
      <trkpt lat="40.695567" lon="-4.718533">
        <ele>1731.0</ele>
        <time>2014-06-30T14:41:14Z</time>
      </trkpt>
      <trkpt lat="40.695633" lon="-4.718467">
        <ele>1731.0</ele>
        <time>2014-06-30T14:41:15Z</time>
      </trkpt>
      <trkpt lat="40.695717" lon="-4.718400">
        <ele>1731.0</ele>
        <time>2014-06-30T14:41:16Z</time>
      </trkpt>
      <trkpt lat="40.695800" lon="-4.718350">
        <ele>1730.0</ele>
        <time>2014-06-30T14:41:17Z</time>
      </trkpt>
      <trkpt lat="40.695867" lon="-4.718300">
        <ele>1730.0</ele>
        <time>2014-06-30T14:41:18Z</time>
      </trkpt>
      <trkpt lat="40.695933" lon="-4.718267">
        <ele>1730.0</ele>
        <time>2014-06-30T14:41:19Z</time>
      </trkpt>
      <trkpt lat="40.696017" lon="-4.718217">
        <ele>1730.0</ele>
        <time>2014-06-30T14:41:20Z</time>
      </trkpt>
      <trkpt lat="40.696083" lon="-4.718167">
        <ele>1730.0</ele>
        <time>2014-06-30T14:41:21Z</time>
      </trkpt>
      <trkpt lat="40.696150" lon="-4.718150">
        <ele>1729.0</ele>
        <time>2014-06-30T14:41:22Z</time>
      </trkpt>
      <trkpt lat="40.696217" lon="-4.718150">
        <ele>1728.0</ele>
        <time>2014-06-30T14:41:23Z</time>
      </trkpt>
      <trkpt lat="40.696283" lon="-4.718150">
        <ele>1727.0</ele>
        <time>2014-06-30T14:41:24Z</time>
      </trkpt>
      <trkpt lat="40.696350" lon="-4.718167">
        <ele>1727.0</ele>
        <time>2014-06-30T14:41:25Z</time>
      </trkpt>
      <trkpt lat="40.696400" lon="-4.718167">
        <ele>1726.0</ele>
        <time>2014-06-30T14:41:26Z</time>
      </trkpt>
      <trkpt lat="40.696450" lon="-4.718167">
        <ele>1726.0</ele>
        <time>2014-06-30T14:41:27Z</time>
      </trkpt>
      <trkpt lat="40.696500" lon="-4.718183">
        <ele>1725.0</ele>
        <time>2014-06-30T14:41:28Z</time>
      </trkpt>
      <trkpt lat="40.696533" lon="-4.718217">
        <ele>1723.0</ele>
        <time>2014-06-30T14:41:29Z</time>
      </trkpt>
      <trkpt lat="40.696567" lon="-4.718250">
        <ele>1722.0</ele>
        <time>2014-06-30T14:41:30Z</time>
      </trkpt>
      <trkpt lat="40.696600" lon="-4.718283">
        <ele>1721.0</ele>
        <time>2014-06-30T14:41:31Z</time>
      </trkpt>
      <trkpt lat="40.696633" lon="-4.718333">
        <ele>1719.0</ele>
        <time>2014-06-30T14:41:32Z</time>
      </trkpt>
      <trkpt lat="40.696650" lon="-4.718367">
        <ele>1718.0</ele>
        <time>2014-06-30T14:41:33Z</time>
      </trkpt>
      <trkpt lat="40.696667" lon="-4.718433">
        <ele>1717.0</ele>
        <time>2014-06-30T14:41:34Z</time>
      </trkpt>
      <trkpt lat="40.696683" lon="-4.718483">
        <ele>1715.0</ele>
        <time>2014-06-30T14:41:35Z</time>
      </trkpt>
      <trkpt lat="40.696700" lon="-4.718550">
        <ele>1714.0</ele>
        <time>2014-06-30T14:41:36Z</time>
      </trkpt>
      <trkpt lat="40.696700" lon="-4.718617">
        <ele>1714.0</ele>
        <time>2014-06-30T14:41:37Z</time>
      </trkpt>
      <trkpt lat="40.696717" lon="-4.718667">
        <ele>1715.0</ele>
        <time>2014-06-30T14:41:38Z</time>
      </trkpt>
      <trkpt lat="40.696717" lon="-4.718717">
        <ele>1715.0</ele>
        <time>2014-06-30T14:41:39Z</time>
      </trkpt>
      <trkpt lat="40.696717" lon="-4.718767">
        <ele>1715.0</ele>
        <time>2014-06-30T14:41:40Z</time>
      </trkpt>
      <trkpt lat="40.696733" lon="-4.718833">
        <ele>1715.0</ele>
        <time>2014-06-30T14:41:41Z</time>
      </trkpt>
      <trkpt lat="40.696733" lon="-4.718883">
        <ele>1715.0</ele>
        <time>2014-06-30T14:41:42Z</time>
      </trkpt>
      <trkpt lat="40.696750" lon="-4.718950">
        <ele>1715.0</ele>
        <time>2014-06-30T14:41:43Z</time>
      </trkpt>
      <trkpt lat="40.696767" lon="-4.719000">
        <ele>1715.0</ele>
        <time>2014-06-30T14:41:44Z</time>
      </trkpt>
      <trkpt lat="40.696767" lon="-4.719050">
        <ele>1716.0</ele>
        <time>2014-06-30T14:41:45Z</time>
      </trkpt>
      <trkpt lat="40.696783" lon="-4.719100">
        <ele>1716.0</ele>
        <time>2014-06-30T14:41:46Z</time>
      </trkpt>
      <trkpt lat="40.696783" lon="-4.719150">
        <ele>1715.0</ele>
        <time>2014-06-30T14:41:47Z</time>
      </trkpt>
      <trkpt lat="40.696800" lon="-4.719200">
        <ele>1715.0</ele>
        <time>2014-06-30T14:41:48Z</time>
      </trkpt>
      <trkpt lat="40.696800" lon="-4.719250">
        <ele>1716.0</ele>
        <time>2014-06-30T14:41:49Z</time>
      </trkpt>
      <trkpt lat="40.696800" lon="-4.719267">
        <ele>1716.0</ele>
        <time>2014-06-30T14:41:50Z</time>
      </trkpt>
      <trkpt lat="40.696800" lon="-4.719300">
        <ele>1717.0</ele>
        <time>2014-06-30T14:41:51Z</time>
      </trkpt>
      <trkpt lat="40.696800" lon="-4.719333">
        <ele>1717.0</ele>
        <time>2014-06-30T14:41:52Z</time>
      </trkpt>
      <trkpt lat="40.696800" lon="-4.719367">
        <ele>1717.0</ele>
        <time>2014-06-30T14:41:53Z</time>
      </trkpt>
      <trkpt lat="40.696800" lon="-4.719417">
        <ele>1717.0</ele>
        <time>2014-06-30T14:41:54Z</time>
      </trkpt>
      <trkpt lat="40.696800" lon="-4.719450">
        <ele>1718.0</ele>
        <time>2014-06-30T14:41:55Z</time>
      </trkpt>
      <trkpt lat="40.696800" lon="-4.719483">
        <ele>1718.0</ele>
        <time>2014-06-30T14:41:56Z</time>
      </trkpt>
      <trkpt lat="40.696783" lon="-4.719517">
        <ele>1719.0</ele>
        <time>2014-06-30T14:41:57Z</time>
      </trkpt>
      <trkpt lat="40.696767" lon="-4.719550">
        <ele>1720.0</ele>
        <time>2014-06-30T14:41:58Z</time>
      </trkpt>
      <trkpt lat="40.696750" lon="-4.719583">
        <ele>1720.0</ele>
        <time>2014-06-30T14:41:59Z</time>
      </trkpt>
      <trkpt lat="40.696717" lon="-4.719633">
        <ele>1719.0</ele>
        <time>2014-06-30T14:42:00Z</time>
      </trkpt>
      <trkpt lat="40.696700" lon="-4.719683">
        <ele>1719.0</ele>
        <time>2014-06-30T14:42:01Z</time>
      </trkpt>
      <trkpt lat="40.696667" lon="-4.719717">
        <ele>1719.0</ele>
        <time>2014-06-30T14:42:02Z</time>
      </trkpt>
      <trkpt lat="40.696633" lon="-4.719750">
        <ele>1719.0</ele>
        <time>2014-06-30T14:42:03Z</time>
      </trkpt>
      <trkpt lat="40.696617" lon="-4.719800">
        <ele>1719.0</ele>
        <time>2014-06-30T14:42:04Z</time>
      </trkpt>
      <trkpt lat="40.696600" lon="-4.719867">
        <ele>1719.0</ele>
        <time>2014-06-30T14:42:05Z</time>
      </trkpt>
      <trkpt lat="40.696567" lon="-4.719917">
        <ele>1719.0</ele>
        <time>2014-06-30T14:42:06Z</time>
      </trkpt>
      <trkpt lat="40.696550" lon="-4.720000">
        <ele>1719.0</ele>
        <time>2014-06-30T14:42:07Z</time>
      </trkpt>
      <trkpt lat="40.696533" lon="-4.720067">
        <ele>1719.0</ele>
        <time>2014-06-30T14:42:08Z</time>
      </trkpt>
      <trkpt lat="40.696517" lon="-4.720150">
        <ele>1719.0</ele>
        <time>2014-06-30T14:42:09Z</time>
      </trkpt>
      <trkpt lat="40.696500" lon="-4.720233">
        <ele>1718.0</ele>
        <time>2014-06-30T14:42:10Z</time>
      </trkpt>
      <trkpt lat="40.696483" lon="-4.720300">
        <ele>1718.0</ele>
        <time>2014-06-30T14:42:11Z</time>
      </trkpt>
      <trkpt lat="40.696467" lon="-4.720350">
        <ele>1718.0</ele>
        <time>2014-06-30T14:42:12Z</time>
      </trkpt>
      <trkpt lat="40.696467" lon="-4.720400">
        <ele>1718.0</ele>
        <time>2014-06-30T14:42:13Z</time>
      </trkpt>
      <trkpt lat="40.696450" lon="-4.720433">
        <ele>1717.0</ele>
        <time>2014-06-30T14:42:14Z</time>
      </trkpt>
      <trkpt lat="40.696433" lon="-4.720467">
        <ele>1717.0</ele>
        <time>2014-06-30T14:42:15Z</time>
      </trkpt>
      <trkpt lat="40.696400" lon="-4.720483">
        <ele>1717.0</ele>
        <time>2014-06-30T14:42:16Z</time>
      </trkpt>
      <trkpt lat="40.696367" lon="-4.720500">
        <ele>1717.0</ele>
        <time>2014-06-30T14:42:17Z</time>
      </trkpt>
      <trkpt lat="40.696350" lon="-4.720533">
        <ele>1717.0</ele>
        <time>2014-06-30T14:42:18Z</time>
      </trkpt>
      <trkpt lat="40.696317" lon="-4.720550">
        <ele>1717.0</ele>
        <time>2014-06-30T14:42:19Z</time>
      </trkpt>
      <trkpt lat="40.696317" lon="-4.720583">
        <ele>1718.0</ele>
        <time>2014-06-30T14:42:20Z</time>
      </trkpt>
      <trkpt lat="40.696300" lon="-4.720617">
        <ele>1717.0</ele>
        <time>2014-06-30T14:42:21Z</time>
      </trkpt>
      <trkpt lat="40.696300" lon="-4.720667">
        <ele>1717.0</ele>
        <time>2014-06-30T14:42:22Z</time>
      </trkpt>
      <trkpt lat="40.696317" lon="-4.720717">
        <ele>1717.0</ele>
        <time>2014-06-30T14:42:23Z</time>
      </trkpt>
      <trkpt lat="40.696317" lon="-4.720750">
        <ele>1717.0</ele>
        <time>2014-06-30T14:42:24Z</time>
      </trkpt>
      <trkpt lat="40.696317" lon="-4.720800">
        <ele>1717.0</ele>
        <time>2014-06-30T14:42:25Z</time>
      </trkpt>
      <trkpt lat="40.696317" lon="-4.720833">
        <ele>1717.0</ele>
        <time>2014-06-30T14:42:26Z</time>
      </trkpt>
      <trkpt lat="40.696333" lon="-4.720850">
        <ele>1717.0</ele>
        <time>2014-06-30T14:42:27Z</time>
      </trkpt>
      <trkpt lat="40.696350" lon="-4.720883">
        <ele>1718.0</ele>
        <time>2014-06-30T14:42:28Z</time>
      </trkpt>
      <trkpt lat="40.696383" lon="-4.720933">
        <ele>1718.0</ele>
        <time>2014-06-30T14:42:29Z</time>
      </trkpt>
      <trkpt lat="40.696400" lon="-4.720983">
        <ele>1718.0</ele>
        <time>2014-06-30T14:42:30Z</time>
      </trkpt>
      <trkpt lat="40.696417" lon="-4.721017">
        <ele>1719.0</ele>
        <time>2014-06-30T14:42:31Z</time>
      </trkpt>
      <trkpt lat="40.696433" lon="-4.721033">
        <ele>1721.0</ele>
        <time>2014-06-30T14:42:32Z</time>
      </trkpt>
      <trkpt lat="40.696433" lon="-4.721033">
        <ele>1722.0</ele>
        <time>2014-06-30T14:42:33Z</time>
      </trkpt>
      <trkpt lat="40.696433" lon="-4.721050">
        <ele>1720.0</ele>
        <time>2014-06-30T14:42:34Z</time>
      </trkpt>
      <trkpt lat="40.696450" lon="-4.721083">
        <ele>1720.0</ele>
        <time>2014-06-30T14:42:35Z</time>
      </trkpt>
      <trkpt lat="40.696467" lon="-4.721117">
        <ele>1721.0</ele>
        <time>2014-06-30T14:42:36Z</time>
      </trkpt>
      <trkpt lat="40.696483" lon="-4.721150">
        <ele>1721.0</ele>
        <time>2014-06-30T14:42:37Z</time>
      </trkpt>
      <trkpt lat="40.696483" lon="-4.721200">
        <ele>1721.0</ele>
        <time>2014-06-30T14:42:38Z</time>
      </trkpt>
      <trkpt lat="40.696500" lon="-4.721233">
        <ele>1721.0</ele>
        <time>2014-06-30T14:42:39Z</time>
      </trkpt>
      <trkpt lat="40.696533" lon="-4.721267">
        <ele>1721.0</ele>
        <time>2014-06-30T14:42:40Z</time>
      </trkpt>
      <trkpt lat="40.696550" lon="-4.721283">
        <ele>1722.0</ele>
        <time>2014-06-30T14:42:41Z</time>
      </trkpt>
      <trkpt lat="40.696567" lon="-4.721283">
        <ele>1722.0</ele>
        <time>2014-06-30T14:42:42Z</time>
      </trkpt>
      <trkpt lat="40.696583" lon="-4.721300">
        <ele>1723.0</ele>
        <time>2014-06-30T14:42:43Z</time>
      </trkpt>
      <trkpt lat="40.696600" lon="-4.721317">
        <ele>1723.0</ele>
        <time>2014-06-30T14:42:44Z</time>
      </trkpt>
      <trkpt lat="40.696633" lon="-4.721367">
        <ele>1723.0</ele>
        <time>2014-06-30T14:42:45Z</time>
      </trkpt>
      <trkpt lat="40.696667" lon="-4.721417">
        <ele>1723.0</ele>
        <time>2014-06-30T14:42:46Z</time>
      </trkpt>
      <trkpt lat="40.696700" lon="-4.721433">
        <ele>1724.0</ele>
        <time>2014-06-30T14:42:47Z</time>
      </trkpt>
      <trkpt lat="40.696750" lon="-4.721433">
        <ele>1724.0</ele>
        <time>2014-06-30T14:42:48Z</time>
      </trkpt>
      <trkpt lat="40.696800" lon="-4.721417">
        <ele>1723.0</ele>
        <time>2014-06-30T14:42:49Z</time>
      </trkpt>
      <trkpt lat="40.696850" lon="-4.721417">
        <ele>1723.0</ele>
        <time>2014-06-30T14:42:50Z</time>
      </trkpt>
      <trkpt lat="40.696883" lon="-4.721450">
        <ele>1723.0</ele>
        <time>2014-06-30T14:42:51Z</time>
      </trkpt>
      <trkpt lat="40.696917" lon="-4.721483">
        <ele>1724.0</ele>
        <time>2014-06-30T14:42:52Z</time>
      </trkpt>
      <trkpt lat="40.696933" lon="-4.721517">
        <ele>1725.0</ele>
        <time>2014-06-30T14:42:53Z</time>
      </trkpt>
      <trkpt lat="40.696950" lon="-4.721550">
        <ele>1726.0</ele>
        <time>2014-06-30T14:42:54Z</time>
      </trkpt>
      <trkpt lat="40.696967" lon="-4.721550">
        <ele>1727.0</ele>
        <time>2014-06-30T14:42:55Z</time>
      </trkpt>
      <trkpt lat="40.697000" lon="-4.721567">
        <ele>1728.0</ele>
        <time>2014-06-30T14:42:56Z</time>
      </trkpt>
      <trkpt lat="40.697033" lon="-4.721583">
        <ele>1729.0</ele>
        <time>2014-06-30T14:42:57Z</time>
      </trkpt>
      <trkpt lat="40.697067" lon="-4.721617">
        <ele>1731.0</ele>
        <time>2014-06-30T14:42:58Z</time>
      </trkpt>
      <trkpt lat="40.697083" lon="-4.721650">
        <ele>1732.0</ele>
        <time>2014-06-30T14:42:59Z</time>
      </trkpt>
      <trkpt lat="40.697117" lon="-4.721683">
        <ele>1732.0</ele>
        <time>2014-06-30T14:43:00Z</time>
      </trkpt>
      <trkpt lat="40.697150" lon="-4.721717">
        <ele>1733.0</ele>
        <time>2014-06-30T14:43:01Z</time>
      </trkpt>
      <trkpt lat="40.697183" lon="-4.721733">
        <ele>1735.0</ele>
        <time>2014-06-30T14:43:02Z</time>
      </trkpt>
      <trkpt lat="40.697200" lon="-4.721783">
        <ele>1737.0</ele>
        <time>2014-06-30T14:43:03Z</time>
      </trkpt>
      <trkpt lat="40.697217" lon="-4.721817">
        <ele>1741.0</ele>
        <time>2014-06-30T14:43:04Z</time>
      </trkpt>
      <trkpt lat="40.697233" lon="-4.721833">
        <ele>1744.0</ele>
        <time>2014-06-30T14:43:05Z</time>
      </trkpt>
      <trkpt lat="40.697250" lon="-4.721867">
        <ele>1747.0</ele>
        <time>2014-06-30T14:43:06Z</time>
      </trkpt>
      <trkpt lat="40.697283" lon="-4.721900">
        <ele>1749.0</ele>
        <time>2014-06-30T14:43:07Z</time>
      </trkpt>
      <trkpt lat="40.697300" lon="-4.721933">
        <ele>1751.0</ele>
        <time>2014-06-30T14:43:08Z</time>
      </trkpt>
      <trkpt lat="40.697300" lon="-4.721983">
        <ele>1753.0</ele>
        <time>2014-06-30T14:43:09Z</time>
      </trkpt>
      <trkpt lat="40.697317" lon="-4.722017">
        <ele>1756.0</ele>
        <time>2014-06-30T14:43:10Z</time>
      </trkpt>
      <trkpt lat="40.697300" lon="-4.722050">
        <ele>1759.0</ele>
        <time>2014-06-30T14:43:11Z</time>
      </trkpt>
      <trkpt lat="40.697300" lon="-4.722083">
        <ele>1763.0</ele>
        <time>2014-06-30T14:43:12Z</time>
      </trkpt>
      <trkpt lat="40.697300" lon="-4.722100">
        <ele>1766.0</ele>
        <time>2014-06-30T14:43:13Z</time>
      </trkpt>
      <trkpt lat="40.697283" lon="-4.722133">
        <ele>1769.0</ele>
        <time>2014-06-30T14:43:14Z</time>
      </trkpt>
      <trkpt lat="40.697283" lon="-4.722167">
        <ele>1772.0</ele>
        <time>2014-06-30T14:43:15Z</time>
      </trkpt>
      <trkpt lat="40.697300" lon="-4.722200">
        <ele>1776.0</ele>
        <time>2014-06-30T14:43:16Z</time>
      </trkpt>
      <trkpt lat="40.697317" lon="-4.722233">
        <ele>1779.0</ele>
        <time>2014-06-30T14:43:17Z</time>
      </trkpt>
      <trkpt lat="40.697350" lon="-4.722267">
        <ele>1783.0</ele>
        <time>2014-06-30T14:43:18Z</time>
      </trkpt>
      <trkpt lat="40.697367" lon="-4.722317">
        <ele>1786.0</ele>
        <time>2014-06-30T14:43:19Z</time>
      </trkpt>
      <trkpt lat="40.697383" lon="-4.722350">
        <ele>1790.0</ele>
        <time>2014-06-30T14:43:20Z</time>
      </trkpt>
      <trkpt lat="40.697400" lon="-4.722400">
        <ele>1794.0</ele>
        <time>2014-06-30T14:43:21Z</time>
      </trkpt>
      <trkpt lat="40.697417" lon="-4.722433">
        <ele>1798.0</ele>
        <time>2014-06-30T14:43:22Z</time>
      </trkpt>
      <trkpt lat="40.697450" lon="-4.722450">
        <ele>1801.0</ele>
        <time>2014-06-30T14:43:23Z</time>
      </trkpt>
      <trkpt lat="40.697483" lon="-4.722483">
        <ele>1805.0</ele>
        <time>2014-06-30T14:43:24Z</time>
      </trkpt>
      <trkpt lat="40.697500" lon="-4.722500">
        <ele>1808.0</ele>
        <time>2014-06-30T14:43:25Z</time>
      </trkpt>
      <trkpt lat="40.697517" lon="-4.722533">
        <ele>1812.0</ele>
        <time>2014-06-30T14:43:26Z</time>
      </trkpt>
      <trkpt lat="40.697533" lon="-4.722567">
        <ele>1815.0</ele>
        <time>2014-06-30T14:43:27Z</time>
      </trkpt>
      <trkpt lat="40.697550" lon="-4.722617">
        <ele>1818.0</ele>
        <time>2014-06-30T14:43:28Z</time>
      </trkpt>
      <trkpt lat="40.697533" lon="-4.722650">
        <ele>1822.0</ele>
        <time>2014-06-30T14:43:29Z</time>
      </trkpt>
      <trkpt lat="40.697533" lon="-4.722683">
        <ele>1826.0</ele>
        <time>2014-06-30T14:43:30Z</time>
      </trkpt>
      <trkpt lat="40.697517" lon="-4.722700">
        <ele>1830.0</ele>
        <time>2014-06-30T14:43:31Z</time>
      </trkpt>
      <trkpt lat="40.697533" lon="-4.722717">
        <ele>1833.0</ele>
        <time>2014-06-30T14:43:32Z</time>
      </trkpt>
      <trkpt lat="40.697533" lon="-4.722733">
        <ele>1837.0</ele>
        <time>2014-06-30T14:43:33Z</time>
      </trkpt>
      <trkpt lat="40.697533" lon="-4.722767">
        <ele>1840.0</ele>
        <time>2014-06-30T14:43:34Z</time>
      </trkpt>
      <trkpt lat="40.697550" lon="-4.722800">
        <ele>1844.0</ele>
        <time>2014-06-30T14:43:35Z</time>
      </trkpt>
      <trkpt lat="40.697433" lon="-4.722750">
        <ele>1847.0</ele>
        <time>2014-06-30T14:43:36Z</time>
      </trkpt>
      <trkpt lat="40.697433" lon="-4.722767">
        <ele>1833.0</ele>
        <time>2014-06-30T14:43:37Z</time>
      </trkpt>
      <trkpt lat="40.697400" lon="-4.722800">
        <ele>1835.0</ele>
        <time>2014-06-30T14:43:38Z</time>
      </trkpt>
      <trkpt lat="40.697383" lon="-4.722833">
        <ele>1836.0</ele>
        <time>2014-06-30T14:43:39Z</time>
      </trkpt>
      <trkpt lat="40.697367" lon="-4.722867">
        <ele>1838.0</ele>
        <time>2014-06-30T14:43:40Z</time>
      </trkpt>
      <trkpt lat="40.697350" lon="-4.722883">
        <ele>1840.0</ele>
        <time>2014-06-30T14:43:41Z</time>
      </trkpt>
      <trkpt lat="40.697350" lon="-4.722917">
        <ele>1842.0</ele>
        <time>2014-06-30T14:43:42Z</time>
      </trkpt>
      <trkpt lat="40.697367" lon="-4.722933">
        <ele>1845.0</ele>
        <time>2014-06-30T14:43:43Z</time>
      </trkpt>
      <trkpt lat="40.697433" lon="-4.722950">
        <ele>1849.0</ele>
        <time>2014-06-30T14:43:44Z</time>
      </trkpt>
      <trkpt lat="40.697500" lon="-4.722950">
        <ele>1855.0</ele>
        <time>2014-06-30T14:43:45Z</time>
      </trkpt>
      <trkpt lat="40.697583" lon="-4.722917">
        <ele>1862.0</ele>
        <time>2014-06-30T14:43:46Z</time>
      </trkpt>
      <trkpt lat="40.697633" lon="-4.722833">
        <ele>1869.0</ele>
        <time>2014-06-30T14:43:47Z</time>
      </trkpt>
      <trkpt lat="40.697683" lon="-4.722750">
        <ele>1874.0</ele>
        <time>2014-06-30T14:43:48Z</time>
      </trkpt>
      <trkpt lat="40.697717" lon="-4.722650">
        <ele>1878.0</ele>
        <time>2014-06-30T14:43:49Z</time>
      </trkpt>
      <trkpt lat="40.697750" lon="-4.722533">
        <ele>1882.0</ele>
        <time>2014-06-30T14:43:50Z</time>
      </trkpt>
      <trkpt lat="40.697767" lon="-4.722400">
        <ele>1886.0</ele>
        <time>2014-06-30T14:43:51Z</time>
      </trkpt>
      <trkpt lat="40.697767" lon="-4.722267">
        <ele>1890.0</ele>
        <time>2014-06-30T14:43:52Z</time>
      </trkpt>
      <trkpt lat="40.697750" lon="-4.722117">
        <ele>1894.0</ele>
        <time>2014-06-30T14:43:53Z</time>
      </trkpt>
      <trkpt lat="40.697700" lon="-4.721983">
        <ele>1897.0</ele>
        <time>2014-06-30T14:43:54Z</time>
      </trkpt>
      <trkpt lat="40.697633" lon="-4.721850">
        <ele>1899.0</ele>
        <time>2014-06-30T14:43:55Z</time>
      </trkpt>
      <trkpt lat="40.697550" lon="-4.721717">
        <ele>1901.0</ele>
        <time>2014-06-30T14:43:56Z</time>
      </trkpt>
      <trkpt lat="40.697433" lon="-4.721617">
        <ele>1903.0</ele>
        <time>2014-06-30T14:43:57Z</time>
      </trkpt>
      <trkpt lat="40.697333" lon="-4.721517">
        <ele>1906.0</ele>
        <time>2014-06-30T14:43:58Z</time>
      </trkpt>
      <trkpt lat="40.697217" lon="-4.721450">
        <ele>1908.0</ele>
        <time>2014-06-30T14:43:59Z</time>
      </trkpt>
      <trkpt lat="40.697100" lon="-4.721417">
        <ele>1911.0</ele>
        <time>2014-06-30T14:44:00Z</time>
      </trkpt>
      <trkpt lat="40.697000" lon="-4.721400">
        <ele>1913.0</ele>
        <time>2014-06-30T14:44:01Z</time>
      </trkpt>
      <trkpt lat="40.696900" lon="-4.721417">
        <ele>1913.0</ele>
        <time>2014-06-30T14:44:02Z</time>
      </trkpt>
      <trkpt lat="40.696800" lon="-4.721433">
        <ele>1917.0</ele>
        <time>2014-06-30T14:44:03Z</time>
      </trkpt>
      <trkpt lat="40.696700" lon="-4.721467">
        <ele>1919.0</ele>
        <time>2014-06-30T14:44:04Z</time>
      </trkpt>
      <trkpt lat="40.696617" lon="-4.721533">
        <ele>1922.0</ele>
        <time>2014-06-30T14:44:05Z</time>
      </trkpt>
      <trkpt lat="40.696583" lon="-4.721600">
        <ele>1917.0</ele>
        <time>2014-06-30T14:44:06Z</time>
      </trkpt>
      <trkpt lat="40.696567" lon="-4.721667">
        <ele>1916.0</ele>
        <time>2014-06-30T14:44:07Z</time>
      </trkpt>
      <trkpt lat="40.696550" lon="-4.721733">
        <ele>1917.0</ele>
        <time>2014-06-30T14:44:08Z</time>
      </trkpt>
      <trkpt lat="40.696550" lon="-4.721800">
        <ele>1917.0</ele>
        <time>2014-06-30T14:44:09Z</time>
      </trkpt>
      <trkpt lat="40.696533" lon="-4.721850">
        <ele>1917.0</ele>
        <time>2014-06-30T14:44:10Z</time>
      </trkpt>
      <trkpt lat="40.696533" lon="-4.721917">
        <ele>1918.0</ele>
        <time>2014-06-30T14:44:11Z</time>
      </trkpt>
      <trkpt lat="40.696567" lon="-4.721967">
        <ele>1918.0</ele>
        <time>2014-06-30T14:44:12Z</time>
      </trkpt>
      <trkpt lat="40.696600" lon="-4.722050">
        <ele>1919.0</ele>
        <time>2014-06-30T14:44:13Z</time>
      </trkpt>
      <trkpt lat="40.696650" lon="-4.722100">
        <ele>1920.0</ele>
        <time>2014-06-30T14:44:14Z</time>
      </trkpt>
      <trkpt lat="40.696700" lon="-4.722150">
        <ele>1922.0</ele>
        <time>2014-06-30T14:44:15Z</time>
      </trkpt>
      <trkpt lat="40.696750" lon="-4.722167">
        <ele>1924.0</ele>
        <time>2014-06-30T14:44:16Z</time>
      </trkpt>
      <trkpt lat="40.696817" lon="-4.722200">
        <ele>1926.0</ele>
        <time>2014-06-30T14:44:17Z</time>
      </trkpt>
      <trkpt lat="40.696883" lon="-4.722233">
        <ele>1929.0</ele>
        <time>2014-06-30T14:44:18Z</time>
      </trkpt>
      <trkpt lat="40.696950" lon="-4.722283">
        <ele>1932.0</ele>
        <time>2014-06-30T14:44:19Z</time>
      </trkpt>
      <trkpt lat="40.697017" lon="-4.722333">
        <ele>1938.0</ele>
        <time>2014-06-30T14:44:20Z</time>
      </trkpt>
      <trkpt lat="40.697067" lon="-4.722400">
        <ele>1943.0</ele>
        <time>2014-06-30T14:44:21Z</time>
      </trkpt>
      <trkpt lat="40.697117" lon="-4.722450">
        <ele>1947.0</ele>
        <time>2014-06-30T14:44:22Z</time>
      </trkpt>
      <trkpt lat="40.697167" lon="-4.722517">
        <ele>1951.0</ele>
        <time>2014-06-30T14:44:23Z</time>
      </trkpt>
      <trkpt lat="40.697250" lon="-4.722583">
        <ele>1954.0</ele>
        <time>2014-06-30T14:44:24Z</time>
      </trkpt>
      <trkpt lat="40.697317" lon="-4.722650">
        <ele>1958.0</ele>
        <time>2014-06-30T14:44:25Z</time>
      </trkpt>
      <trkpt lat="40.697400" lon="-4.722700">
        <ele>1962.0</ele>
        <time>2014-06-30T14:44:26Z</time>
      </trkpt>
      <trkpt lat="40.697483" lon="-4.722733">
        <ele>1965.0</ele>
        <time>2014-06-30T14:44:27Z</time>
      </trkpt>
      <trkpt lat="40.697583" lon="-4.722717">
        <ele>1969.0</ele>
        <time>2014-06-30T14:44:28Z</time>
      </trkpt>
      <trkpt lat="40.697683" lon="-4.722683">
        <ele>1971.0</ele>
        <time>2014-06-30T14:44:29Z</time>
      </trkpt>
      <trkpt lat="40.697767" lon="-4.722617">
        <ele>1974.0</ele>
        <time>2014-06-30T14:44:30Z</time>
      </trkpt>
      <trkpt lat="40.697867" lon="-4.722533">
        <ele>1977.0</ele>
        <time>2014-06-30T14:44:31Z</time>
      </trkpt>
      <trkpt lat="40.697950" lon="-4.722433">
        <ele>1979.0</ele>
        <time>2014-06-30T14:44:32Z</time>
      </trkpt>
      <trkpt lat="40.698033" lon="-4.722300">
        <ele>1982.0</ele>
        <time>2014-06-30T14:44:33Z</time>
      </trkpt>
      <trkpt lat="40.698117" lon="-4.722133">
        <ele>1984.0</ele>
        <time>2014-06-30T14:44:34Z</time>
      </trkpt>
      <trkpt lat="40.698150" lon="-4.721983">
        <ele>1987.0</ele>
        <time>2014-06-30T14:44:35Z</time>
      </trkpt>
      <trkpt lat="40.698167" lon="-4.721800">
        <ele>1989.0</ele>
        <time>2014-06-30T14:44:36Z</time>
      </trkpt>
      <trkpt lat="40.698150" lon="-4.721650">
        <ele>1991.0</ele>
        <time>2014-06-30T14:44:37Z</time>
      </trkpt>
      <trkpt lat="40.698100" lon="-4.721500">
        <ele>1994.0</ele>
        <time>2014-06-30T14:44:38Z</time>
      </trkpt>
      <trkpt lat="40.698050" lon="-4.721367">
        <ele>1997.0</ele>
        <time>2014-06-30T14:44:39Z</time>
      </trkpt>
      <trkpt lat="40.697983" lon="-4.721250">
        <ele>2002.0</ele>
        <time>2014-06-30T14:44:40Z</time>
      </trkpt>
      <trkpt lat="40.697933" lon="-4.721150">
        <ele>2006.0</ele>
        <time>2014-06-30T14:44:41Z</time>
      </trkpt>
      <trkpt lat="40.697850" lon="-4.721083">
        <ele>2011.0</ele>
        <time>2014-06-30T14:44:42Z</time>
      </trkpt>
      <trkpt lat="40.697783" lon="-4.721033">
        <ele>2016.0</ele>
        <time>2014-06-30T14:44:43Z</time>
      </trkpt>
      <trkpt lat="40.697700" lon="-4.721017">
        <ele>2020.0</ele>
        <time>2014-06-30T14:44:44Z</time>
      </trkpt>
      <trkpt lat="40.697567" lon="-4.721033">
        <ele>2025.0</ele>
        <time>2014-06-30T14:44:45Z</time>
      </trkpt>
      <trkpt lat="40.697467" lon="-4.721050">
        <ele>2019.0</ele>
        <time>2014-06-30T14:44:46Z</time>
      </trkpt>
      <trkpt lat="40.697383" lon="-4.721083">
        <ele>2023.0</ele>
        <time>2014-06-30T14:44:47Z</time>
      </trkpt>
      <trkpt lat="40.697283" lon="-4.721150">
        <ele>2027.0</ele>
        <time>2014-06-30T14:44:48Z</time>
      </trkpt>
      <trkpt lat="40.697250" lon="-4.721183">
        <ele>2025.0</ele>
        <time>2014-06-30T14:44:49Z</time>
      </trkpt>
      <trkpt lat="40.697217" lon="-4.721200">
        <ele>2027.0</ele>
        <time>2014-06-30T14:44:50Z</time>
      </trkpt>
      <trkpt lat="40.697200" lon="-4.721233">
        <ele>2028.0</ele>
        <time>2014-06-30T14:44:51Z</time>
      </trkpt>
      <trkpt lat="40.697183" lon="-4.721283">
        <ele>2030.0</ele>
        <time>2014-06-30T14:44:52Z</time>
      </trkpt>
      <trkpt lat="40.697167" lon="-4.721333">
        <ele>2031.0</ele>
        <time>2014-06-30T14:44:53Z</time>
      </trkpt>
      <trkpt lat="40.697167" lon="-4.721383">
        <ele>2032.0</ele>
        <time>2014-06-30T14:44:54Z</time>
      </trkpt>
      <trkpt lat="40.697183" lon="-4.721417">
        <ele>2034.0</ele>
        <time>2014-06-30T14:44:55Z</time>
      </trkpt>
      <trkpt lat="40.697200" lon="-4.721467">
        <ele>2036.0</ele>
        <time>2014-06-30T14:44:56Z</time>
      </trkpt>
      <trkpt lat="40.697267" lon="-4.721500">
        <ele>2037.0</ele>
        <time>2014-06-30T14:44:57Z</time>
      </trkpt>
      <trkpt lat="40.697350" lon="-4.721550">
        <ele>2039.0</ele>
        <time>2014-06-30T14:44:58Z</time>
      </trkpt>
      <trkpt lat="40.697450" lon="-4.721583">
        <ele>2042.0</ele>
        <time>2014-06-30T14:44:59Z</time>
      </trkpt>
      <trkpt lat="40.697567" lon="-4.721600">
        <ele>2046.0</ele>
        <time>2014-06-30T14:45:00Z</time>
      </trkpt>
      <trkpt lat="40.697683" lon="-4.721583">
        <ele>2051.0</ele>
        <time>2014-06-30T14:45:01Z</time>
      </trkpt>
      <trkpt lat="40.697800" lon="-4.721567">
        <ele>2055.0</ele>
        <time>2014-06-30T14:45:02Z</time>
      </trkpt>
      <trkpt lat="40.697917" lon="-4.721533">
        <ele>2059.0</ele>
        <time>2014-06-30T14:45:03Z</time>
      </trkpt>
      <trkpt lat="40.698033" lon="-4.721500">
        <ele>2063.0</ele>
        <time>2014-06-30T14:45:04Z</time>
      </trkpt>
      <trkpt lat="40.698167" lon="-4.721450">
        <ele>2068.0</ele>
        <time>2014-06-30T14:45:05Z</time>
      </trkpt>
      <trkpt lat="40.698283" lon="-4.721383">
        <ele>2073.0</ele>
        <time>2014-06-30T14:45:06Z</time>
      </trkpt>
      <trkpt lat="40.698400" lon="-4.721300">
        <ele>2077.0</ele>
        <time>2014-06-30T14:45:07Z</time>
      </trkpt>
      <trkpt lat="40.698500" lon="-4.721200">
        <ele>2081.0</ele>
        <time>2014-06-30T14:45:08Z</time>
      </trkpt>
      <trkpt lat="40.698600" lon="-4.721083">
        <ele>2086.0</ele>
        <time>2014-06-30T14:45:09Z</time>
      </trkpt>
      <trkpt lat="40.698683" lon="-4.720950">
        <ele>2089.0</ele>
        <time>2014-06-30T14:45:10Z</time>
      </trkpt>
      <trkpt lat="40.698767" lon="-4.720817">
        <ele>2093.0</ele>
        <time>2014-06-30T14:45:11Z</time>
      </trkpt>
      <trkpt lat="40.698833" lon="-4.720667">
        <ele>2096.0</ele>
        <time>2014-06-30T14:45:12Z</time>
      </trkpt>
      <trkpt lat="40.698883" lon="-4.720500">
        <ele>2099.0</ele>
        <time>2014-06-30T14:45:13Z</time>
      </trkpt>
      <trkpt lat="40.698917" lon="-4.720333">
        <ele>2102.0</ele>
        <time>2014-06-30T14:45:14Z</time>
      </trkpt>
      <trkpt lat="40.698933" lon="-4.720167">
        <ele>2105.0</ele>
        <time>2014-06-30T14:45:15Z</time>
      </trkpt>
      <trkpt lat="40.698933" lon="-4.720017">
        <ele>2108.0</ele>
        <time>2014-06-30T14:45:16Z</time>
      </trkpt>
      <trkpt lat="40.698933" lon="-4.719867">
        <ele>2112.0</ele>
        <time>2014-06-30T14:45:17Z</time>
      </trkpt>
      <trkpt lat="40.698900" lon="-4.719733">
        <ele>2115.0</ele>
        <time>2014-06-30T14:45:18Z</time>
      </trkpt>
      <trkpt lat="40.698867" lon="-4.719583">
        <ele>2117.0</ele>
        <time>2014-06-30T14:45:19Z</time>
      </trkpt>
      <trkpt lat="40.698817" lon="-4.719467">
        <ele>2118.0</ele>
        <time>2014-06-30T14:45:20Z</time>
      </trkpt>
      <trkpt lat="40.698750" lon="-4.719367">
        <ele>2121.0</ele>
        <time>2014-06-30T14:45:21Z</time>
      </trkpt>
      <trkpt lat="40.698683" lon="-4.719333">
        <ele>2124.0</ele>
        <time>2014-06-30T14:45:22Z</time>
      </trkpt>
      <trkpt lat="40.698583" lon="-4.719317">
        <ele>2119.0</ele>
        <time>2014-06-30T14:45:23Z</time>
      </trkpt>
      <trkpt lat="40.698467" lon="-4.719333">
        <ele>2118.0</ele>
        <time>2014-06-30T14:45:24Z</time>
      </trkpt>
      <trkpt lat="40.698367" lon="-4.719367">
        <ele>2120.0</ele>
        <time>2014-06-30T14:45:25Z</time>
      </trkpt>
      <trkpt lat="40.698300" lon="-4.719383">
        <ele>2123.0</ele>
        <time>2014-06-30T14:45:26Z</time>
      </trkpt>
      <trkpt lat="40.698233" lon="-4.719367">
        <ele>2127.0</ele>
        <time>2014-06-30T14:45:27Z</time>
      </trkpt>
      <trkpt lat="40.698167" lon="-4.719383">
        <ele>2130.0</ele>
        <time>2014-06-30T14:45:28Z</time>
      </trkpt>
      <trkpt lat="40.698100" lon="-4.719400">
        <ele>2131.0</ele>
        <time>2014-06-30T14:45:29Z</time>
      </trkpt>
      <trkpt lat="40.698050" lon="-4.719417">
        <ele>2132.0</ele>
        <time>2014-06-30T14:45:30Z</time>
      </trkpt>
      <trkpt lat="40.697983" lon="-4.719467">
        <ele>2134.0</ele>
        <time>2014-06-30T14:45:31Z</time>
      </trkpt>
      <trkpt lat="40.697933" lon="-4.719533">
        <ele>2135.0</ele>
        <time>2014-06-30T14:45:32Z</time>
      </trkpt>
      <trkpt lat="40.697900" lon="-4.719583">
        <ele>2136.0</ele>
        <time>2014-06-30T14:45:33Z</time>
      </trkpt>
      <trkpt lat="40.697883" lon="-4.719633">
        <ele>2137.0</ele>
        <time>2014-06-30T14:45:34Z</time>
      </trkpt>
      <trkpt lat="40.697867" lon="-4.719683">
        <ele>2141.0</ele>
        <time>2014-06-30T14:45:35Z</time>
      </trkpt>
      <trkpt lat="40.697850" lon="-4.719733">
        <ele>2144.0</ele>
        <time>2014-06-30T14:45:36Z</time>
      </trkpt>
      <trkpt lat="40.697833" lon="-4.719800">
        <ele>2148.0</ele>
        <time>2014-06-30T14:45:37Z</time>
      </trkpt>
      <trkpt lat="40.697817" lon="-4.719850">
        <ele>2152.0</ele>
        <time>2014-06-30T14:45:38Z</time>
      </trkpt>
      <trkpt lat="40.697817" lon="-4.719900">
        <ele>2156.0</ele>
        <time>2014-06-30T14:45:39Z</time>
      </trkpt>
      <trkpt lat="40.697783" lon="-4.719950">
        <ele>2160.0</ele>
        <time>2014-06-30T14:45:40Z</time>
      </trkpt>
      <trkpt lat="40.697817" lon="-4.719967">
        <ele>2157.0</ele>
        <time>2014-06-30T14:45:41Z</time>
      </trkpt>
      <trkpt lat="40.697850" lon="-4.719983">
        <ele>2158.0</ele>
        <time>2014-06-30T14:45:42Z</time>
      </trkpt>
      <trkpt lat="40.697900" lon="-4.720033">
        <ele>2160.0</ele>
        <time>2014-06-30T14:45:43Z</time>
      </trkpt>
      <trkpt lat="40.697967" lon="-4.720067">
        <ele>2161.0</ele>
        <time>2014-06-30T14:45:44Z</time>
      </trkpt>
      <trkpt lat="40.698050" lon="-4.720083">
        <ele>2163.0</ele>
        <time>2014-06-30T14:45:45Z</time>
      </trkpt>
      <trkpt lat="40.698150" lon="-4.720083">
        <ele>2166.0</ele>
        <time>2014-06-30T14:45:46Z</time>
      </trkpt>
      <trkpt lat="40.698250" lon="-4.720067">
        <ele>2171.0</ele>
        <time>2014-06-30T14:45:47Z</time>
      </trkpt>
      <trkpt lat="40.698367" lon="-4.720017">
        <ele>2176.0</ele>
        <time>2014-06-30T14:45:48Z</time>
      </trkpt>
      <trkpt lat="40.698450" lon="-4.719933">
        <ele>2182.0</ele>
        <time>2014-06-30T14:45:49Z</time>
      </trkpt>
      <trkpt lat="40.698550" lon="-4.719850">
        <ele>2186.0</ele>
        <time>2014-06-30T14:45:50Z</time>
      </trkpt>
      <trkpt lat="40.698633" lon="-4.719733">
        <ele>2190.0</ele>
        <time>2014-06-30T14:45:51Z</time>
      </trkpt>
      <trkpt lat="40.698700" lon="-4.719600">
        <ele>2194.0</ele>
        <time>2014-06-30T14:45:52Z</time>
      </trkpt>
      <trkpt lat="40.698767" lon="-4.719450">
        <ele>2198.0</ele>
        <time>2014-06-30T14:45:53Z</time>
      </trkpt>
      <trkpt lat="40.698800" lon="-4.719267">
        <ele>2202.0</ele>
        <time>2014-06-30T14:45:54Z</time>
      </trkpt>
      <trkpt lat="40.698800" lon="-4.719100">
        <ele>2206.0</ele>
        <time>2014-06-30T14:45:55Z</time>
      </trkpt>
      <trkpt lat="40.698783" lon="-4.718933">
        <ele>2211.0</ele>
        <time>2014-06-30T14:45:56Z</time>
      </trkpt>
      <trkpt lat="40.698767" lon="-4.718800">
        <ele>2216.0</ele>
        <time>2014-06-30T14:45:57Z</time>
      </trkpt>
      <trkpt lat="40.698717" lon="-4.718683">
        <ele>2220.0</ele>
        <time>2014-06-30T14:45:58Z</time>
      </trkpt>
      <trkpt lat="40.698683" lon="-4.718567">
        <ele>2225.0</ele>
        <time>2014-06-30T14:45:59Z</time>
      </trkpt>
      <trkpt lat="40.698633" lon="-4.718483">
        <ele>2228.0</ele>
        <time>2014-06-30T14:46:00Z</time>
      </trkpt>
      <trkpt lat="40.698583" lon="-4.718400">
        <ele>2231.0</ele>
        <time>2014-06-30T14:46:01Z</time>
      </trkpt>
      <trkpt lat="40.698517" lon="-4.718333">
        <ele>2234.0</ele>
        <time>2014-06-30T14:46:02Z</time>
      </trkpt>
      <trkpt lat="40.698467" lon="-4.718283">
        <ele>2238.0</ele>
        <time>2014-06-30T14:46:03Z</time>
      </trkpt>
      <trkpt lat="40.698417" lon="-4.718250">
        <ele>2242.0</ele>
        <time>2014-06-30T14:46:04Z</time>
      </trkpt>
      <trkpt lat="40.698367" lon="-4.718233">
        <ele>2245.0</ele>
        <time>2014-06-30T14:46:05Z</time>
      </trkpt>
      <trkpt lat="40.698300" lon="-4.718217">
        <ele>2248.0</ele>
        <time>2014-06-30T14:46:06Z</time>
      </trkpt>
      <trkpt lat="40.698233" lon="-4.718233">
        <ele>2249.0</ele>
        <time>2014-06-30T14:46:07Z</time>
      </trkpt>
      <trkpt lat="40.698183" lon="-4.718250">
        <ele>2251.0</ele>
        <time>2014-06-30T14:46:08Z</time>
      </trkpt>
      <trkpt lat="40.698117" lon="-4.718283">
        <ele>2253.0</ele>
        <time>2014-06-30T14:46:09Z</time>
      </trkpt>
      <trkpt lat="40.698083" lon="-4.718333">
        <ele>2249.0</ele>
        <time>2014-06-30T14:46:10Z</time>
      </trkpt>
      <trkpt lat="40.698067" lon="-4.718383">
        <ele>2248.0</ele>
        <time>2014-06-30T14:46:11Z</time>
      </trkpt>
      <trkpt lat="40.698067" lon="-4.718433">
        <ele>2249.0</ele>
        <time>2014-06-30T14:46:12Z</time>
      </trkpt>
      <trkpt lat="40.698050" lon="-4.718500">
        <ele>2249.0</ele>
        <time>2014-06-30T14:46:13Z</time>
      </trkpt>
      <trkpt lat="40.698050" lon="-4.718550">
        <ele>2249.0</ele>
        <time>2014-06-30T14:46:14Z</time>
      </trkpt>
      <trkpt lat="40.698050" lon="-4.718600">
        <ele>2250.0</ele>
        <time>2014-06-30T14:46:15Z</time>
      </trkpt>
      <trkpt lat="40.698067" lon="-4.718650">
        <ele>2250.0</ele>
        <time>2014-06-30T14:46:16Z</time>
      </trkpt>
      <trkpt lat="40.698083" lon="-4.718700">
        <ele>2251.0</ele>
        <time>2014-06-30T14:46:17Z</time>
      </trkpt>
      <trkpt lat="40.698133" lon="-4.718733">
        <ele>2252.0</ele>
        <time>2014-06-30T14:46:18Z</time>
      </trkpt>
      <trkpt lat="40.698183" lon="-4.718783">
        <ele>2253.0</ele>
        <time>2014-06-30T14:46:19Z</time>
      </trkpt>
      <trkpt lat="40.698217" lon="-4.718833">
        <ele>2255.0</ele>
        <time>2014-06-30T14:46:20Z</time>
      </trkpt>
      <trkpt lat="40.698250" lon="-4.718883">
        <ele>2257.0</ele>
        <time>2014-06-30T14:46:21Z</time>
      </trkpt>
      <trkpt lat="40.698300" lon="-4.718950">
        <ele>2258.0</ele>
        <time>2014-06-30T14:46:22Z</time>
      </trkpt>
      <trkpt lat="40.698350" lon="-4.719000">
        <ele>2260.0</ele>
        <time>2014-06-30T14:46:23Z</time>
      </trkpt>
      <trkpt lat="40.698433" lon="-4.719050">
        <ele>2263.0</ele>
        <time>2014-06-30T14:46:24Z</time>
      </trkpt>
      <trkpt lat="40.698550" lon="-4.719133">
        <ele>2268.0</ele>
        <time>2014-06-30T14:46:25Z</time>
      </trkpt>
      <trkpt lat="40.698633" lon="-4.719183">
        <ele>2279.0</ele>
        <time>2014-06-30T14:46:26Z</time>
      </trkpt>
      <trkpt lat="40.698733" lon="-4.719233">
        <ele>2284.0</ele>
        <time>2014-06-30T14:46:27Z</time>
      </trkpt>
      <trkpt lat="40.698817" lon="-4.719267">
        <ele>2292.0</ele>
        <time>2014-06-30T14:46:28Z</time>
      </trkpt>
      <trkpt lat="40.698900" lon="-4.719283">
        <ele>2298.0</ele>
        <time>2014-06-30T14:46:29Z</time>
      </trkpt>
      <trkpt lat="40.698983" lon="-4.719300">
        <ele>2303.0</ele>
        <time>2014-06-30T14:46:30Z</time>
      </trkpt>
      <trkpt lat="40.699083" lon="-4.719317">
        <ele>2308.0</ele>
        <time>2014-06-30T14:46:31Z</time>
      </trkpt>
      <trkpt lat="40.699183" lon="-4.719333">
        <ele>2313.0</ele>
        <time>2014-06-30T14:46:32Z</time>
      </trkpt>
      <trkpt lat="40.699267" lon="-4.719317">
        <ele>2317.0</ele>
        <time>2014-06-30T14:46:33Z</time>
      </trkpt>
      <trkpt lat="40.699367" lon="-4.719300">
        <ele>2320.0</ele>
        <time>2014-06-30T14:46:34Z</time>
      </trkpt>
      <trkpt lat="40.699450" lon="-4.719250">
        <ele>2324.0</ele>
        <time>2014-06-30T14:46:35Z</time>
      </trkpt>
      <trkpt lat="40.699533" lon="-4.719200">
        <ele>2328.0</ele>
        <time>2014-06-30T14:46:36Z</time>
      </trkpt>
      <trkpt lat="40.699617" lon="-4.719117">
        <ele>2332.0</ele>
        <time>2014-06-30T14:46:37Z</time>
      </trkpt>
      <trkpt lat="40.699683" lon="-4.719033">
        <ele>2336.0</ele>
        <time>2014-06-30T14:46:38Z</time>
      </trkpt>
      <trkpt lat="40.699750" lon="-4.718933">
        <ele>2339.0</ele>
        <time>2014-06-30T14:46:39Z</time>
      </trkpt>
      <trkpt lat="40.699833" lon="-4.718833">
        <ele>2342.0</ele>
        <time>2014-06-30T14:46:40Z</time>
      </trkpt>
      <trkpt lat="40.699917" lon="-4.718717">
        <ele>2345.0</ele>
        <time>2014-06-30T14:46:41Z</time>
      </trkpt>
      <trkpt lat="40.700000" lon="-4.718583">
        <ele>2348.0</ele>
        <time>2014-06-30T14:46:42Z</time>
      </trkpt>
      <trkpt lat="40.700050" lon="-4.718450">
        <ele>2352.0</ele>
        <time>2014-06-30T14:46:43Z</time>
      </trkpt>
      <trkpt lat="40.700100" lon="-4.718300">
        <ele>2355.0</ele>
        <time>2014-06-30T14:46:44Z</time>
      </trkpt>
      <trkpt lat="40.700117" lon="-4.718167">
        <ele>2359.0</ele>
        <time>2014-06-30T14:46:45Z</time>
      </trkpt>
      <trkpt lat="40.700117" lon="-4.718033">
        <ele>2362.0</ele>
        <time>2014-06-30T14:46:46Z</time>
      </trkpt>
      <trkpt lat="40.700117" lon="-4.717900">
        <ele>2366.0</ele>
        <time>2014-06-30T14:46:47Z</time>
      </trkpt>
      <trkpt lat="40.700100" lon="-4.717783">
        <ele>2369.0</ele>
        <time>2014-06-30T14:46:48Z</time>
      </trkpt>
      <trkpt lat="40.700083" lon="-4.717667">
        <ele>2372.0</ele>
        <time>2014-06-30T14:46:49Z</time>
      </trkpt>
      <trkpt lat="40.700050" lon="-4.717533">
        <ele>2375.0</ele>
        <time>2014-06-30T14:46:50Z</time>
      </trkpt>
      <trkpt lat="40.700033" lon="-4.717433">
        <ele>2378.0</ele>
        <time>2014-06-30T14:46:51Z</time>
      </trkpt>
      <trkpt lat="40.700000" lon="-4.717333">
        <ele>2382.0</ele>
        <time>2014-06-30T14:46:52Z</time>
      </trkpt>
      <trkpt lat="40.699950" lon="-4.717267">
        <ele>2386.0</ele>
        <time>2014-06-30T14:46:53Z</time>
      </trkpt>
      <trkpt lat="40.699883" lon="-4.717233">
        <ele>2390.0</ele>
        <time>2014-06-30T14:46:54Z</time>
      </trkpt>
      <trkpt lat="40.699833" lon="-4.717200">
        <ele>2394.0</ele>
        <time>2014-06-30T14:46:55Z</time>
      </trkpt>
      <trkpt lat="40.699783" lon="-4.717200">
        <ele>2398.0</ele>
        <time>2014-06-30T14:46:56Z</time>
      </trkpt>
      <trkpt lat="40.699733" lon="-4.717200">
        <ele>2401.0</ele>
        <time>2014-06-30T14:46:57Z</time>
      </trkpt>
      <trkpt lat="40.699633" lon="-4.717250">
        <ele>2405.0</ele>
        <time>2014-06-30T14:46:58Z</time>
      </trkpt>
      <trkpt lat="40.699583" lon="-4.717283">
        <ele>2398.0</ele>
        <time>2014-06-30T14:46:59Z</time>
      </trkpt>
      <trkpt lat="40.699550" lon="-4.717300">
        <ele>2398.0</ele>
        <time>2014-06-30T14:47:00Z</time>
      </trkpt>
      <trkpt lat="40.699533" lon="-4.717317">
        <ele>2398.0</ele>
        <time>2014-06-30T14:47:01Z</time>
      </trkpt>
      <trkpt lat="40.699500" lon="-4.717367">
        <ele>2399.0</ele>
        <time>2014-06-30T14:47:02Z</time>
      </trkpt>
      <trkpt lat="40.699467" lon="-4.717400">
        <ele>2401.0</ele>
        <time>2014-06-30T14:47:03Z</time>
      </trkpt>
      <trkpt lat="40.699467" lon="-4.717450">
        <ele>2402.0</ele>
        <time>2014-06-30T14:47:04Z</time>
      </trkpt>
      <trkpt lat="40.699433" lon="-4.717500">
        <ele>2404.0</ele>
        <time>2014-06-30T14:47:05Z</time>
      </trkpt>
      <trkpt lat="40.699433" lon="-4.717567">
        <ele>2405.0</ele>
        <time>2014-06-30T14:47:06Z</time>
      </trkpt>
      <trkpt lat="40.699450" lon="-4.717617">
        <ele>2407.0</ele>
        <time>2014-06-30T14:47:07Z</time>
      </trkpt>
      <trkpt lat="40.699483" lon="-4.717650">
        <ele>2409.0</ele>
        <time>2014-06-30T14:47:08Z</time>
      </trkpt>
      <trkpt lat="40.699533" lon="-4.717683">
        <ele>2412.0</ele>
        <time>2014-06-30T14:47:09Z</time>
      </trkpt>
      <trkpt lat="40.699583" lon="-4.717717">
        <ele>2415.0</ele>
        <time>2014-06-30T14:47:10Z</time>
      </trkpt>
      <trkpt lat="40.699633" lon="-4.717750">
        <ele>2420.0</ele>
        <time>2014-06-30T14:47:11Z</time>
      </trkpt>
      <trkpt lat="40.699700" lon="-4.717800">
        <ele>2423.0</ele>
        <time>2014-06-30T14:47:12Z</time>
      </trkpt>
      <trkpt lat="40.699767" lon="-4.717833">
        <ele>2428.0</ele>
        <time>2014-06-30T14:47:13Z</time>
      </trkpt>
      <trkpt lat="40.699867" lon="-4.717850">
        <ele>2431.0</ele>
        <time>2014-06-30T14:47:14Z</time>
      </trkpt>
      <trkpt lat="40.699967" lon="-4.717867">
        <ele>2436.0</ele>
        <time>2014-06-30T14:47:15Z</time>
      </trkpt>
      <trkpt lat="40.700067" lon="-4.717867">
        <ele>2443.0</ele>
        <time>2014-06-30T14:47:16Z</time>
      </trkpt>
      <trkpt lat="40.700167" lon="-4.717867">
        <ele>2449.0</ele>
        <time>2014-06-30T14:47:17Z</time>
      </trkpt>
      <trkpt lat="40.700267" lon="-4.717833">
        <ele>2452.0</ele>
        <time>2014-06-30T14:47:18Z</time>
      </trkpt>
      <trkpt lat="40.700383" lon="-4.717783">
        <ele>2454.0</ele>
        <time>2014-06-30T14:47:19Z</time>
      </trkpt>
      <trkpt lat="40.700483" lon="-4.717717">
        <ele>2457.0</ele>
        <time>2014-06-30T14:47:20Z</time>
      </trkpt>
      <trkpt lat="40.700583" lon="-4.717633">
        <ele>2460.0</ele>
        <time>2014-06-30T14:47:21Z</time>
      </trkpt>
      <trkpt lat="40.700667" lon="-4.717517">
        <ele>2462.0</ele>
        <time>2014-06-30T14:47:22Z</time>
      </trkpt>
      <trkpt lat="40.700750" lon="-4.717400">
        <ele>2464.0</ele>
        <time>2014-06-30T14:47:23Z</time>
      </trkpt>
      <trkpt lat="40.700817" lon="-4.717283">
        <ele>2466.0</ele>
        <time>2014-06-30T14:47:24Z</time>
      </trkpt>
      <trkpt lat="40.700883" lon="-4.717150">
        <ele>2468.0</ele>
        <time>2014-06-30T14:47:25Z</time>
      </trkpt>
      <trkpt lat="40.700950" lon="-4.717000">
        <ele>2470.0</ele>
        <time>2014-06-30T14:47:26Z</time>
      </trkpt>
      <trkpt lat="40.701000" lon="-4.716867">
        <ele>2471.0</ele>
        <time>2014-06-30T14:47:27Z</time>
      </trkpt>
      <trkpt lat="40.701033" lon="-4.716733">
        <ele>2472.0</ele>
        <time>2014-06-30T14:47:28Z</time>
      </trkpt>
      <trkpt lat="40.701067" lon="-4.716583">
        <ele>2473.0</ele>
        <time>2014-06-30T14:47:29Z</time>
      </trkpt>
      <trkpt lat="40.701083" lon="-4.716433">
        <ele>2474.0</ele>
        <time>2014-06-30T14:47:30Z</time>
      </trkpt>
      <trkpt lat="40.701100" lon="-4.716283">
        <ele>2475.0</ele>
        <time>2014-06-30T14:47:31Z</time>
      </trkpt>
      <trkpt lat="40.701100" lon="-4.716133">
        <ele>2476.0</ele>
        <time>2014-06-30T14:47:32Z</time>
      </trkpt>
      <trkpt lat="40.701083" lon="-4.716000">
        <ele>2477.0</ele>
        <time>2014-06-30T14:47:33Z</time>
      </trkpt>
      <trkpt lat="40.701067" lon="-4.715867">
        <ele>2478.0</ele>
        <time>2014-06-30T14:47:34Z</time>
      </trkpt>
      <trkpt lat="40.701033" lon="-4.715733">
        <ele>2478.0</ele>
        <time>2014-06-30T14:47:35Z</time>
      </trkpt>
      <trkpt lat="40.700983" lon="-4.715600">
        <ele>2478.0</ele>
        <time>2014-06-30T14:47:36Z</time>
      </trkpt>
      <trkpt lat="40.700933" lon="-4.715483">
        <ele>2479.0</ele>
        <time>2014-06-30T14:47:37Z</time>
      </trkpt>
      <trkpt lat="40.700850" lon="-4.715367">
        <ele>2479.0</ele>
        <time>2014-06-30T14:47:38Z</time>
      </trkpt>
      <trkpt lat="40.700783" lon="-4.715267">
        <ele>2479.0</ele>
        <time>2014-06-30T14:47:39Z</time>
      </trkpt>
      <trkpt lat="40.700717" lon="-4.715167">
        <ele>2480.0</ele>
        <time>2014-06-30T14:47:40Z</time>
      </trkpt>
      <trkpt lat="40.700633" lon="-4.715067">
        <ele>2482.0</ele>
        <time>2014-06-30T14:47:41Z</time>
      </trkpt>
      <trkpt lat="40.700567" lon="-4.714967">
        <ele>2485.0</ele>
        <time>2014-06-30T14:47:42Z</time>
      </trkpt>
      <trkpt lat="40.700500" lon="-4.714867">
        <ele>2486.0</ele>
        <time>2014-06-30T14:47:43Z</time>
      </trkpt>
      <trkpt lat="40.700417" lon="-4.714767">
        <ele>2488.0</ele>
        <time>2014-06-30T14:47:44Z</time>
      </trkpt>
      <trkpt lat="40.700333" lon="-4.714667">
        <ele>2490.0</ele>
        <time>2014-06-30T14:47:45Z</time>
      </trkpt>
      <trkpt lat="40.700283" lon="-4.714567">
        <ele>2495.0</ele>
        <time>2014-06-30T14:47:46Z</time>
      </trkpt>
      <trkpt lat="40.700233" lon="-4.714467">
        <ele>2499.0</ele>
        <time>2014-06-30T14:47:47Z</time>
      </trkpt>
      <trkpt lat="40.700183" lon="-4.714383">
        <ele>2505.0</ele>
        <time>2014-06-30T14:47:48Z</time>
      </trkpt>
      <trkpt lat="40.700150" lon="-4.714300">
        <ele>2510.0</ele>
        <time>2014-06-30T14:47:49Z</time>
      </trkpt>
      <trkpt lat="40.700117" lon="-4.714217">
        <ele>2515.0</ele>
        <time>2014-06-30T14:47:50Z</time>
      </trkpt>
      <trkpt lat="40.700067" lon="-4.714117">
        <ele>2519.0</ele>
        <time>2014-06-30T14:47:51Z</time>
      </trkpt>
      <trkpt lat="40.700033" lon="-4.714017">
        <ele>2522.0</ele>
        <time>2014-06-30T14:47:52Z</time>
      </trkpt>
      <trkpt lat="40.700000" lon="-4.713900">
        <ele>2526.0</ele>
        <time>2014-06-30T14:47:53Z</time>
      </trkpt>
      <trkpt lat="40.699933" lon="-4.713800">
        <ele>2530.0</ele>
        <time>2014-06-30T14:47:54Z</time>
      </trkpt>
      <trkpt lat="40.699867" lon="-4.713700">
        <ele>2533.0</ele>
        <time>2014-06-30T14:47:55Z</time>
      </trkpt>
      <trkpt lat="40.699817" lon="-4.713633">
        <ele>2536.0</ele>
        <time>2014-06-30T14:47:56Z</time>
      </trkpt>
      <trkpt lat="40.699750" lon="-4.713567">
        <ele>2540.0</ele>
        <time>2014-06-30T14:47:57Z</time>
      </trkpt>
      <trkpt lat="40.699700" lon="-4.713517">
        <ele>2543.0</ele>
        <time>2014-06-30T14:47:58Z</time>
      </trkpt>
      <trkpt lat="40.699633" lon="-4.713500">
        <ele>2545.0</ele>
        <time>2014-06-30T14:47:59Z</time>
      </trkpt>
      <trkpt lat="40.699583" lon="-4.713517">
        <ele>2548.0</ele>
        <time>2014-06-30T14:48:00Z</time>
      </trkpt>
      <trkpt lat="40.699500" lon="-4.713550">
        <ele>2551.0</ele>
        <time>2014-06-30T14:48:01Z</time>
      </trkpt>
      <trkpt lat="40.699450" lon="-4.713617">
        <ele>2545.0</ele>
        <time>2014-06-30T14:48:02Z</time>
      </trkpt>
      <trkpt lat="40.699433" lon="-4.713667">
        <ele>2547.0</ele>
        <time>2014-06-30T14:48:03Z</time>
      </trkpt>
      <trkpt lat="40.699417" lon="-4.713717">
        <ele>2548.0</ele>
        <time>2014-06-30T14:48:04Z</time>
      </trkpt>
      <trkpt lat="40.699417" lon="-4.713783">
        <ele>2549.0</ele>
        <time>2014-06-30T14:48:05Z</time>
      </trkpt>
      <trkpt lat="40.699417" lon="-4.713850">
        <ele>2550.0</ele>
        <time>2014-06-30T14:48:06Z</time>
      </trkpt>
      <trkpt lat="40.699400" lon="-4.713917">
        <ele>2549.0</ele>
        <time>2014-06-30T14:48:07Z</time>
      </trkpt>
      <trkpt lat="40.699433" lon="-4.713983">
        <ele>2549.0</ele>
        <time>2014-06-30T14:48:08Z</time>
      </trkpt>
      <trkpt lat="40.699467" lon="-4.714033">
        <ele>2550.0</ele>
        <time>2014-06-30T14:48:09Z</time>
      </trkpt>
      <trkpt lat="40.699550" lon="-4.714083">
        <ele>2550.0</ele>
        <time>2014-06-30T14:48:10Z</time>
      </trkpt>
      <trkpt lat="40.699633" lon="-4.714100">
        <ele>2551.0</ele>
        <time>2014-06-30T14:48:11Z</time>
      </trkpt>
      <trkpt lat="40.699733" lon="-4.714117">
        <ele>2551.0</ele>
        <time>2014-06-30T14:48:12Z</time>
      </trkpt>
      <trkpt lat="40.699833" lon="-4.714117">
        <ele>2553.0</ele>
        <time>2014-06-30T14:48:13Z</time>
      </trkpt>
      <trkpt lat="40.699950" lon="-4.714100">
        <ele>2555.0</ele>
        <time>2014-06-30T14:48:14Z</time>
      </trkpt>
      <trkpt lat="40.700067" lon="-4.714050">
        <ele>2557.0</ele>
        <time>2014-06-30T14:48:15Z</time>
      </trkpt>
      <trkpt lat="40.700183" lon="-4.714000">
        <ele>2559.0</ele>
        <time>2014-06-30T14:48:16Z</time>
      </trkpt>
      <trkpt lat="40.700300" lon="-4.713950">
        <ele>2561.0</ele>
        <time>2014-06-30T14:48:17Z</time>
      </trkpt>
      <trkpt lat="40.700417" lon="-4.713883">
        <ele>2563.0</ele>
        <time>2014-06-30T14:48:18Z</time>
      </trkpt>
      <trkpt lat="40.700533" lon="-4.713800">
        <ele>2568.0</ele>
        <time>2014-06-30T14:48:19Z</time>
      </trkpt>
      <trkpt lat="40.700633" lon="-4.713700">
        <ele>2572.0</ele>
        <time>2014-06-30T14:48:20Z</time>
      </trkpt>
      <trkpt lat="40.700717" lon="-4.713567">
        <ele>2575.0</ele>
        <time>2014-06-30T14:48:21Z</time>
      </trkpt>
      <trkpt lat="40.700767" lon="-4.713433">
        <ele>2579.0</ele>
        <time>2014-06-30T14:48:22Z</time>
      </trkpt>
      <trkpt lat="40.700817" lon="-4.713300">
        <ele>2583.0</ele>
        <time>2014-06-30T14:48:23Z</time>
      </trkpt>
      <trkpt lat="40.700833" lon="-4.713167">
        <ele>2586.0</ele>
        <time>2014-06-30T14:48:24Z</time>
      </trkpt>
      <trkpt lat="40.700867" lon="-4.713017">
        <ele>2589.0</ele>
        <time>2014-06-30T14:48:25Z</time>
      </trkpt>
      <trkpt lat="40.700883" lon="-4.712867">
        <ele>2592.0</ele>
        <time>2014-06-30T14:48:26Z</time>
      </trkpt>
      <trkpt lat="40.700900" lon="-4.712717">
        <ele>2595.0</ele>
        <time>2014-06-30T14:48:27Z</time>
      </trkpt>
      <trkpt lat="40.700883" lon="-4.712550">
        <ele>2595.0</ele>
        <time>2014-06-30T14:48:28Z</time>
      </trkpt>
      <trkpt lat="40.700867" lon="-4.712400">
        <ele>2596.0</ele>
        <time>2014-06-30T14:48:29Z</time>
      </trkpt>
      <trkpt lat="40.700833" lon="-4.712250">
        <ele>2596.0</ele>
        <time>2014-06-30T14:48:30Z</time>
      </trkpt>
      <trkpt lat="40.700800" lon="-4.712117">
        <ele>2597.0</ele>
        <time>2014-06-30T14:48:31Z</time>
      </trkpt>
      <trkpt lat="40.700733" lon="-4.712000">
        <ele>2597.0</ele>
        <time>2014-06-30T14:48:32Z</time>
      </trkpt>
      <trkpt lat="40.700667" lon="-4.711883">
        <ele>2597.0</ele>
        <time>2014-06-30T14:48:33Z</time>
      </trkpt>
      <trkpt lat="40.700567" lon="-4.711783">
        <ele>2597.0</ele>
        <time>2014-06-30T14:48:34Z</time>
      </trkpt>
      <trkpt lat="40.700483" lon="-4.711700">
        <ele>2596.0</ele>
        <time>2014-06-30T14:48:35Z</time>
      </trkpt>
      <trkpt lat="40.700383" lon="-4.711600">
        <ele>2596.0</ele>
        <time>2014-06-30T14:48:36Z</time>
      </trkpt>
      <trkpt lat="40.700283" lon="-4.711533">
        <ele>2597.0</ele>
        <time>2014-06-30T14:48:37Z</time>
      </trkpt>
      <trkpt lat="40.700200" lon="-4.711467">
        <ele>2598.0</ele>
        <time>2014-06-30T14:48:38Z</time>
      </trkpt>
      <trkpt lat="40.700117" lon="-4.711383">
        <ele>2599.0</ele>
        <time>2014-06-30T14:48:39Z</time>
      </trkpt>
      <trkpt lat="40.700033" lon="-4.711300">
        <ele>2600.0</ele>
        <time>2014-06-30T14:48:40Z</time>
      </trkpt>
      <trkpt lat="40.699950" lon="-4.711200">
        <ele>2601.0</ele>
        <time>2014-06-30T14:48:41Z</time>
      </trkpt>
      <trkpt lat="40.699867" lon="-4.711083">
        <ele>2602.0</ele>
        <time>2014-06-30T14:48:42Z</time>
      </trkpt>
      <trkpt lat="40.699783" lon="-4.710967">
        <ele>2602.0</ele>
        <time>2014-06-30T14:48:43Z</time>
      </trkpt>
      <trkpt lat="40.699717" lon="-4.710833">
        <ele>2604.0</ele>
        <time>2014-06-30T14:48:44Z</time>
      </trkpt>
      <trkpt lat="40.699650" lon="-4.710683">
        <ele>2606.0</ele>
        <time>2014-06-30T14:48:45Z</time>
      </trkpt>
      <trkpt lat="40.699583" lon="-4.710550">
        <ele>2607.0</ele>
        <time>2014-06-30T14:48:46Z</time>
      </trkpt>
      <trkpt lat="40.699483" lon="-4.710433">
        <ele>2608.0</ele>
        <time>2014-06-30T14:48:47Z</time>
      </trkpt>
      <trkpt lat="40.699400" lon="-4.710333">
        <ele>2610.0</ele>
        <time>2014-06-30T14:48:48Z</time>
      </trkpt>
      <trkpt lat="40.699300" lon="-4.710250">
        <ele>2613.0</ele>
        <time>2014-06-30T14:48:49Z</time>
      </trkpt>
      <trkpt lat="40.699200" lon="-4.710150">
        <ele>2616.0</ele>
        <time>2014-06-30T14:48:50Z</time>
      </trkpt>
      <trkpt lat="40.699133" lon="-4.710050">
        <ele>2620.0</ele>
        <time>2014-06-30T14:48:51Z</time>
      </trkpt>
      <trkpt lat="40.699050" lon="-4.709950">
        <ele>2623.0</ele>
        <time>2014-06-30T14:48:52Z</time>
      </trkpt>
      <trkpt lat="40.698967" lon="-4.709833">
        <ele>2625.0</ele>
        <time>2014-06-30T14:48:53Z</time>
      </trkpt>
      <trkpt lat="40.698883" lon="-4.709733">
        <ele>2627.0</ele>
        <time>2014-06-30T14:48:54Z</time>
      </trkpt>
      <trkpt lat="40.698800" lon="-4.709617">
        <ele>2629.0</ele>
        <time>2014-06-30T14:48:55Z</time>
      </trkpt>
      <trkpt lat="40.698700" lon="-4.709533">
        <ele>2631.0</ele>
        <time>2014-06-30T14:48:56Z</time>
      </trkpt>
      <trkpt lat="40.698600" lon="-4.709450">
        <ele>2633.0</ele>
        <time>2014-06-30T14:48:57Z</time>
      </trkpt>
      <trkpt lat="40.698483" lon="-4.709400">
        <ele>2635.0</ele>
        <time>2014-06-30T14:48:58Z</time>
      </trkpt>
      <trkpt lat="40.698367" lon="-4.709367">
        <ele>2638.0</ele>
        <time>2014-06-30T14:48:59Z</time>
      </trkpt>
      <trkpt lat="40.698267" lon="-4.709350">
        <ele>2641.0</ele>
        <time>2014-06-30T14:49:00Z</time>
      </trkpt>
      <trkpt lat="40.698150" lon="-4.709383">
        <ele>2644.0</ele>
        <time>2014-06-30T14:49:01Z</time>
      </trkpt>
      <trkpt lat="40.698067" lon="-4.709400">
        <ele>2650.0</ele>
        <time>2014-06-30T14:49:02Z</time>
      </trkpt>
      <trkpt lat="40.698000" lon="-4.709433">
        <ele>2654.0</ele>
        <time>2014-06-30T14:49:03Z</time>
      </trkpt>
      <trkpt lat="40.697933" lon="-4.709467">
        <ele>2658.0</ele>
        <time>2014-06-30T14:49:04Z</time>
      </trkpt>
      <trkpt lat="40.697867" lon="-4.709500">
        <ele>2661.0</ele>
        <time>2014-06-30T14:49:05Z</time>
      </trkpt>
      <trkpt lat="40.697817" lon="-4.709550">
        <ele>2665.0</ele>
        <time>2014-06-30T14:49:06Z</time>
      </trkpt>
      <trkpt lat="40.697767" lon="-4.709617">
        <ele>2668.0</ele>
        <time>2014-06-30T14:49:07Z</time>
      </trkpt>
      <trkpt lat="40.697683" lon="-4.709650">
        <ele>2672.0</ele>
        <time>2014-06-30T14:49:08Z</time>
      </trkpt>
      <trkpt lat="40.697667" lon="-4.709683">
        <ele>2665.0</ele>
        <time>2014-06-30T14:49:09Z</time>
      </trkpt>
      <trkpt lat="40.697683" lon="-4.709717">
        <ele>2664.0</ele>
        <time>2014-06-30T14:49:10Z</time>
      </trkpt>
      <trkpt lat="40.697717" lon="-4.709717">
        <ele>2665.0</ele>
        <time>2014-06-30T14:49:11Z</time>
      </trkpt>
      <trkpt lat="40.697750" lon="-4.709717">
        <ele>2667.0</ele>
        <time>2014-06-30T14:49:12Z</time>
      </trkpt>
      <trkpt lat="40.697817" lon="-4.709700">
        <ele>2670.0</ele>
        <time>2014-06-30T14:49:13Z</time>
      </trkpt>
      <trkpt lat="40.697883" lon="-4.709683">
        <ele>2674.0</ele>
        <time>2014-06-30T14:49:14Z</time>
      </trkpt>
      <trkpt lat="40.697967" lon="-4.709667">
        <ele>2677.0</ele>
        <time>2014-06-30T14:49:15Z</time>
      </trkpt>
      <trkpt lat="40.698050" lon="-4.709650">
        <ele>2679.0</ele>
        <time>2014-06-30T14:49:16Z</time>
      </trkpt>
      <trkpt lat="40.698167" lon="-4.709617">
        <ele>2682.0</ele>
        <time>2014-06-30T14:49:17Z</time>
      </trkpt>
      <trkpt lat="40.698267" lon="-4.709567">
        <ele>2687.0</ele>
        <time>2014-06-30T14:49:18Z</time>
      </trkpt>
      <trkpt lat="40.698367" lon="-4.709500">
        <ele>2695.0</ele>
        <time>2014-06-30T14:49:19Z</time>
      </trkpt>
      <trkpt lat="40.698450" lon="-4.709417">
        <ele>2703.0</ele>
        <time>2014-06-30T14:49:20Z</time>
      </trkpt>
      <trkpt lat="40.698517" lon="-4.709317">
        <ele>2708.0</ele>
        <time>2014-06-30T14:49:21Z</time>
      </trkpt>
      <trkpt lat="40.698600" lon="-4.709233">
        <ele>2712.0</ele>
        <time>2014-06-30T14:49:22Z</time>
      </trkpt>
      <trkpt lat="40.698667" lon="-4.709133">
        <ele>2716.0</ele>
        <time>2014-06-30T14:49:23Z</time>
      </trkpt>
      <trkpt lat="40.698717" lon="-4.709033">
        <ele>2720.0</ele>
        <time>2014-06-30T14:49:24Z</time>
      </trkpt>
      <trkpt lat="40.698767" lon="-4.708917">
        <ele>2723.0</ele>
        <time>2014-06-30T14:49:25Z</time>
      </trkpt>
      <trkpt lat="40.698783" lon="-4.708750">
        <ele>2725.0</ele>
        <time>2014-06-30T14:49:26Z</time>
      </trkpt>
      <trkpt lat="40.698817" lon="-4.708600">
        <ele>2728.0</ele>
        <time>2014-06-30T14:49:27Z</time>
      </trkpt>
      <trkpt lat="40.698817" lon="-4.708450">
        <ele>2731.0</ele>
        <time>2014-06-30T14:49:28Z</time>
      </trkpt>
      <trkpt lat="40.698833" lon="-4.708300">
        <ele>2733.0</ele>
        <time>2014-06-30T14:49:29Z</time>
      </trkpt>
      <trkpt lat="40.698833" lon="-4.708150">
        <ele>2736.0</ele>
        <time>2014-06-30T14:49:30Z</time>
      </trkpt>
      <trkpt lat="40.698833" lon="-4.707983">
        <ele>2738.0</ele>
        <time>2014-06-30T14:49:31Z</time>
      </trkpt>
      <trkpt lat="40.698817" lon="-4.707833">
        <ele>2740.0</ele>
        <time>2014-06-30T14:49:32Z</time>
      </trkpt>
      <trkpt lat="40.698783" lon="-4.707683">
        <ele>2741.0</ele>
        <time>2014-06-30T14:49:33Z</time>
      </trkpt>
      <trkpt lat="40.698750" lon="-4.707533">
        <ele>2742.0</ele>
        <time>2014-06-30T14:49:34Z</time>
      </trkpt>
      <trkpt lat="40.698717" lon="-4.707367">
        <ele>2744.0</ele>
        <time>2014-06-30T14:49:35Z</time>
      </trkpt>
      <trkpt lat="40.698667" lon="-4.707217">
        <ele>2745.0</ele>
        <time>2014-06-30T14:49:36Z</time>
      </trkpt>
      <trkpt lat="40.698633" lon="-4.707067">
        <ele>2747.0</ele>
        <time>2014-06-30T14:49:37Z</time>
      </trkpt>
      <trkpt lat="40.698600" lon="-4.706917">
        <ele>2749.0</ele>
        <time>2014-06-30T14:49:38Z</time>
      </trkpt>
      <trkpt lat="40.698550" lon="-4.706783">
        <ele>2750.0</ele>
        <time>2014-06-30T14:49:39Z</time>
      </trkpt>
      <trkpt lat="40.698517" lon="-4.706650">
        <ele>2752.0</ele>
        <time>2014-06-30T14:49:40Z</time>
      </trkpt>
      <trkpt lat="40.698467" lon="-4.706517">
        <ele>2753.0</ele>
        <time>2014-06-30T14:49:41Z</time>
      </trkpt>
      <trkpt lat="40.698400" lon="-4.706383">
        <ele>2754.0</ele>
        <time>2014-06-30T14:49:42Z</time>
      </trkpt>
      <trkpt lat="40.698333" lon="-4.706250">
        <ele>2756.0</ele>
        <time>2014-06-30T14:49:43Z</time>
      </trkpt>
      <trkpt lat="40.698267" lon="-4.706117">
        <ele>2757.0</ele>
        <time>2014-06-30T14:49:44Z</time>
      </trkpt>
      <trkpt lat="40.698200" lon="-4.706033">
        <ele>2760.0</ele>
        <time>2014-06-30T14:49:45Z</time>
      </trkpt>
      <trkpt lat="40.698133" lon="-4.705950">
        <ele>2763.0</ele>
        <time>2014-06-30T14:49:46Z</time>
      </trkpt>
      <trkpt lat="40.698067" lon="-4.705900">
        <ele>2764.0</ele>
        <time>2014-06-30T14:49:47Z</time>
      </trkpt>
      <trkpt lat="40.697983" lon="-4.705850">
        <ele>2764.0</ele>
        <time>2014-06-30T14:49:48Z</time>
      </trkpt>
      <trkpt lat="40.697883" lon="-4.705783">
        <ele>2764.0</ele>
        <time>2014-06-30T14:49:49Z</time>
      </trkpt>
      <trkpt lat="40.697800" lon="-4.705733">
        <ele>2764.0</ele>
        <time>2014-06-30T14:49:50Z</time>
      </trkpt>
      <trkpt lat="40.697700" lon="-4.705650">
        <ele>2763.0</ele>
        <time>2014-06-30T14:49:51Z</time>
      </trkpt>
      <trkpt lat="40.697600" lon="-4.705583">
        <ele>2763.0</ele>
        <time>2014-06-30T14:49:52Z</time>
      </trkpt>
      <trkpt lat="40.697517" lon="-4.705533">
        <ele>2763.0</ele>
        <time>2014-06-30T14:49:53Z</time>
      </trkpt>
      <trkpt lat="40.697417" lon="-4.705517">
        <ele>2763.0</ele>
        <time>2014-06-30T14:49:54Z</time>
      </trkpt>
      <trkpt lat="40.697350" lon="-4.705517">
        <ele>2764.0</ele>
        <time>2014-06-30T14:49:55Z</time>
      </trkpt>
      <trkpt lat="40.697283" lon="-4.705533">
        <ele>2763.0</ele>
        <time>2014-06-30T14:49:56Z</time>
      </trkpt>
      <trkpt lat="40.697217" lon="-4.705567">
        <ele>2763.0</ele>
        <time>2014-06-30T14:49:57Z</time>
      </trkpt>
      <trkpt lat="40.697133" lon="-4.705600">
        <ele>2763.0</ele>
        <time>2014-06-30T14:49:58Z</time>
      </trkpt>
      <trkpt lat="40.697050" lon="-4.705667">
        <ele>2763.0</ele>
        <time>2014-06-30T14:49:59Z</time>
      </trkpt>
      <trkpt lat="40.696950" lon="-4.705717">
        <ele>2763.0</ele>
        <time>2014-06-30T14:50:00Z</time>
      </trkpt>
      <trkpt lat="40.696883" lon="-4.705767">
        <ele>2763.0</ele>
        <time>2014-06-30T14:50:01Z</time>
      </trkpt>
      <trkpt lat="40.696817" lon="-4.705833">
        <ele>2763.0</ele>
        <time>2014-06-30T14:50:02Z</time>
      </trkpt>
      <trkpt lat="40.696783" lon="-4.705917">
        <ele>2763.0</ele>
        <time>2014-06-30T14:50:03Z</time>
      </trkpt>
      <trkpt lat="40.696750" lon="-4.706000">
        <ele>2763.0</ele>
        <time>2014-06-30T14:50:04Z</time>
      </trkpt>
      <trkpt lat="40.696733" lon="-4.706083">
        <ele>2763.0</ele>
        <time>2014-06-30T14:50:05Z</time>
      </trkpt>
      <trkpt lat="40.696717" lon="-4.706167">
        <ele>2763.0</ele>
        <time>2014-06-30T14:50:06Z</time>
      </trkpt>
      <trkpt lat="40.696700" lon="-4.706233">
        <ele>2763.0</ele>
        <time>2014-06-30T14:50:07Z</time>
      </trkpt>
      <trkpt lat="40.696700" lon="-4.706283">
        <ele>2763.0</ele>
        <time>2014-06-30T14:50:08Z</time>
      </trkpt>
      <trkpt lat="40.696717" lon="-4.706317">
        <ele>2763.0</ele>
        <time>2014-06-30T14:50:09Z</time>
      </trkpt>
      <trkpt lat="40.696733" lon="-4.706350">
        <ele>2763.0</ele>
        <time>2014-06-30T14:50:10Z</time>
      </trkpt>
      <trkpt lat="40.696767" lon="-4.706400">
        <ele>2764.0</ele>
        <time>2014-06-30T14:50:11Z</time>
      </trkpt>
      <trkpt lat="40.696783" lon="-4.706433">
        <ele>2764.0</ele>
        <time>2014-06-30T14:50:12Z</time>
      </trkpt>
      <trkpt lat="40.696833" lon="-4.706483">
        <ele>2765.0</ele>
        <time>2014-06-30T14:50:13Z</time>
      </trkpt>
      <trkpt lat="40.696867" lon="-4.706500">
        <ele>2765.0</ele>
        <time>2014-06-30T14:50:14Z</time>
      </trkpt>
      <trkpt lat="40.696933" lon="-4.706533">
        <ele>2767.0</ele>
        <time>2014-06-30T14:50:15Z</time>
      </trkpt>
      <trkpt lat="40.697000" lon="-4.706550">
        <ele>2770.0</ele>
        <time>2014-06-30T14:50:16Z</time>
      </trkpt>
      <trkpt lat="40.697083" lon="-4.706583">
        <ele>2774.0</ele>
        <time>2014-06-30T14:50:17Z</time>
      </trkpt>
      <trkpt lat="40.697150" lon="-4.706600">
        <ele>2778.0</ele>
        <time>2014-06-30T14:50:18Z</time>
      </trkpt>
      <trkpt lat="40.697217" lon="-4.706633">
        <ele>2782.0</ele>
        <time>2014-06-30T14:50:19Z</time>
      </trkpt>
      <trkpt lat="40.697283" lon="-4.706633">
        <ele>2786.0</ele>
        <time>2014-06-30T14:50:20Z</time>
      </trkpt>
      <trkpt lat="40.697350" lon="-4.706633">
        <ele>2789.0</ele>
        <time>2014-06-30T14:50:21Z</time>
      </trkpt>
      <trkpt lat="40.697400" lon="-4.706633">
        <ele>2791.0</ele>
        <time>2014-06-30T14:50:22Z</time>
      </trkpt>
      <trkpt lat="40.697467" lon="-4.706617">
        <ele>2793.0</ele>
        <time>2014-06-30T14:50:23Z</time>
      </trkpt>
      <trkpt lat="40.697533" lon="-4.706617">
        <ele>2795.0</ele>
        <time>2014-06-30T14:50:24Z</time>
      </trkpt>
      <trkpt lat="40.697617" lon="-4.706617">
        <ele>2796.0</ele>
        <time>2014-06-30T14:50:25Z</time>
      </trkpt>
      <trkpt lat="40.697700" lon="-4.706583">
        <ele>2798.0</ele>
        <time>2014-06-30T14:50:26Z</time>
      </trkpt>
      <trkpt lat="40.697783" lon="-4.706533">
        <ele>2799.0</ele>
        <time>2014-06-30T14:50:27Z</time>
      </trkpt>
      <trkpt lat="40.697867" lon="-4.706467">
        <ele>2800.0</ele>
        <time>2014-06-30T14:50:28Z</time>
      </trkpt>
      <trkpt lat="40.697950" lon="-4.706400">
        <ele>2801.0</ele>
        <time>2014-06-30T14:50:29Z</time>
      </trkpt>
      <trkpt lat="40.698017" lon="-4.706317">
        <ele>2803.0</ele>
        <time>2014-06-30T14:50:30Z</time>
      </trkpt>
      <trkpt lat="40.698067" lon="-4.706217">
        <ele>2805.0</ele>
        <time>2014-06-30T14:50:31Z</time>
      </trkpt>
      <trkpt lat="40.698117" lon="-4.706133">
        <ele>2806.0</ele>
        <time>2014-06-30T14:50:32Z</time>
      </trkpt>
      <trkpt lat="40.698167" lon="-4.706050">
        <ele>2807.0</ele>
        <time>2014-06-30T14:50:33Z</time>
      </trkpt>
      <trkpt lat="40.698217" lon="-4.705950">
        <ele>2808.0</ele>
        <time>2014-06-30T14:50:34Z</time>
      </trkpt>
      <trkpt lat="40.698283" lon="-4.705850">
        <ele>2809.0</ele>
        <time>2014-06-30T14:50:35Z</time>
      </trkpt>
      <trkpt lat="40.698333" lon="-4.705767">
        <ele>2811.0</ele>
        <time>2014-06-30T14:50:36Z</time>
      </trkpt>
      <trkpt lat="40.698400" lon="-4.705683">
        <ele>2813.0</ele>
        <time>2014-06-30T14:50:37Z</time>
      </trkpt>
      <trkpt lat="40.698467" lon="-4.705583">
        <ele>2815.0</ele>
        <time>2014-06-30T14:50:38Z</time>
      </trkpt>
      <trkpt lat="40.698517" lon="-4.705467">
        <ele>2817.0</ele>
        <time>2014-06-30T14:50:39Z</time>
      </trkpt>
      <trkpt lat="40.698567" lon="-4.705367">
        <ele>2819.0</ele>
        <time>2014-06-30T14:50:40Z</time>
      </trkpt>
      <trkpt lat="40.698617" lon="-4.705250">
        <ele>2821.0</ele>
        <time>2014-06-30T14:50:41Z</time>
      </trkpt>
      <trkpt lat="40.698667" lon="-4.705133">
        <ele>2823.0</ele>
        <time>2014-06-30T14:50:42Z</time>
      </trkpt>
      <trkpt lat="40.698733" lon="-4.705033">
        <ele>2825.0</ele>
        <time>2014-06-30T14:50:43Z</time>
      </trkpt>
      <trkpt lat="40.698783" lon="-4.704917">
        <ele>2827.0</ele>
        <time>2014-06-30T14:50:44Z</time>
      </trkpt>
      <trkpt lat="40.698817" lon="-4.704800">
        <ele>2829.0</ele>
        <time>2014-06-30T14:50:45Z</time>
      </trkpt>
      <trkpt lat="40.698867" lon="-4.704700">
        <ele>2831.0</ele>
        <time>2014-06-30T14:50:46Z</time>
      </trkpt>
      <trkpt lat="40.698900" lon="-4.704600">
        <ele>2832.0</ele>
        <time>2014-06-30T14:50:47Z</time>
      </trkpt>
      <trkpt lat="40.698917" lon="-4.704500">
        <ele>2833.0</ele>
        <time>2014-06-30T14:50:48Z</time>
      </trkpt>
      <trkpt lat="40.698950" lon="-4.704383">
        <ele>2834.0</ele>
        <time>2014-06-30T14:50:49Z</time>
      </trkpt>
      <trkpt lat="40.698983" lon="-4.704267">
        <ele>2835.0</ele>
        <time>2014-06-30T14:50:50Z</time>
      </trkpt>
      <trkpt lat="40.699033" lon="-4.704150">
        <ele>2835.0</ele>
        <time>2014-06-30T14:50:51Z</time>
      </trkpt>
      <trkpt lat="40.699067" lon="-4.704033">
        <ele>2836.0</ele>
        <time>2014-06-30T14:50:52Z</time>
      </trkpt>
      <trkpt lat="40.699117" lon="-4.703900">
        <ele>2836.0</ele>
        <time>2014-06-30T14:50:53Z</time>
      </trkpt>
      <trkpt lat="40.699150" lon="-4.703767">
        <ele>2837.0</ele>
        <time>2014-06-30T14:50:54Z</time>
      </trkpt>
      <trkpt lat="40.699183" lon="-4.703633">
        <ele>2837.0</ele>
        <time>2014-06-30T14:50:55Z</time>
      </trkpt>
      <trkpt lat="40.699200" lon="-4.703500">
        <ele>2837.0</ele>
        <time>2014-06-30T14:50:56Z</time>
      </trkpt>
      <trkpt lat="40.699233" lon="-4.703350">
        <ele>2837.0</ele>
        <time>2014-06-30T14:50:57Z</time>
      </trkpt>
      <trkpt lat="40.699267" lon="-4.703200">
        <ele>2836.0</ele>
        <time>2014-06-30T14:50:58Z</time>
      </trkpt>
      <trkpt lat="40.699317" lon="-4.703050">
        <ele>2834.0</ele>
        <time>2014-06-30T14:50:59Z</time>
      </trkpt>
      <trkpt lat="40.699367" lon="-4.702900">
        <ele>2832.0</ele>
        <time>2014-06-30T14:51:00Z</time>
      </trkpt>
      <trkpt lat="40.699400" lon="-4.702750">
        <ele>2830.0</ele>
        <time>2014-06-30T14:51:01Z</time>
      </trkpt>
      <trkpt lat="40.699433" lon="-4.702600">
        <ele>2828.0</ele>
        <time>2014-06-30T14:51:02Z</time>
      </trkpt>
      <trkpt lat="40.699450" lon="-4.702467">
        <ele>2828.0</ele>
        <time>2014-06-30T14:51:03Z</time>
      </trkpt>
      <trkpt lat="40.699450" lon="-4.702333">
        <ele>2828.0</ele>
        <time>2014-06-30T14:51:04Z</time>
      </trkpt>
      <trkpt lat="40.699467" lon="-4.702200">
        <ele>2827.0</ele>
        <time>2014-06-30T14:51:05Z</time>
      </trkpt>
      <trkpt lat="40.699500" lon="-4.702050">
        <ele>2826.0</ele>
        <time>2014-06-30T14:51:06Z</time>
      </trkpt>
      <trkpt lat="40.699533" lon="-4.701900">
        <ele>2824.0</ele>
        <time>2014-06-30T14:51:07Z</time>
      </trkpt>
      <trkpt lat="40.699583" lon="-4.701750">
        <ele>2823.0</ele>
        <time>2014-06-30T14:51:08Z</time>
      </trkpt>
      <trkpt lat="40.699650" lon="-4.701600">
        <ele>2822.0</ele>
        <time>2014-06-30T14:51:09Z</time>
      </trkpt>
      <trkpt lat="40.699700" lon="-4.701483">
        <ele>2823.0</ele>
        <time>2014-06-30T14:51:10Z</time>
      </trkpt>
      <trkpt lat="40.699750" lon="-4.701367">
        <ele>2825.0</ele>
        <time>2014-06-30T14:51:11Z</time>
      </trkpt>
      <trkpt lat="40.699800" lon="-4.701267">
        <ele>2825.0</ele>
        <time>2014-06-30T14:51:12Z</time>
      </trkpt>
      <trkpt lat="40.699850" lon="-4.701150">
        <ele>2824.0</ele>
        <time>2014-06-30T14:51:13Z</time>
      </trkpt>
      <trkpt lat="40.699883" lon="-4.701017">
        <ele>2823.0</ele>
        <time>2014-06-30T14:51:14Z</time>
      </trkpt>
      <trkpt lat="40.699933" lon="-4.700883">
        <ele>2822.0</ele>
        <time>2014-06-30T14:51:15Z</time>
      </trkpt>
      <trkpt lat="40.700000" lon="-4.700750">
        <ele>2822.0</ele>
        <time>2014-06-30T14:51:16Z</time>
      </trkpt>
      <trkpt lat="40.700050" lon="-4.700633">
        <ele>2821.0</ele>
        <time>2014-06-30T14:51:17Z</time>
      </trkpt>
      <trkpt lat="40.700100" lon="-4.700500">
        <ele>2821.0</ele>
        <time>2014-06-30T14:51:18Z</time>
      </trkpt>
      <trkpt lat="40.700167" lon="-4.700383">
        <ele>2822.0</ele>
        <time>2014-06-30T14:51:19Z</time>
      </trkpt>
      <trkpt lat="40.700217" lon="-4.700267">
        <ele>2823.0</ele>
        <time>2014-06-30T14:51:20Z</time>
      </trkpt>
      <trkpt lat="40.700267" lon="-4.700150">
        <ele>2824.0</ele>
        <time>2014-06-30T14:51:21Z</time>
      </trkpt>
      <trkpt lat="40.700333" lon="-4.700050">
        <ele>2824.0</ele>
        <time>2014-06-30T14:51:22Z</time>
      </trkpt>
      <trkpt lat="40.700400" lon="-4.699933">
        <ele>2825.0</ele>
        <time>2014-06-30T14:51:23Z</time>
      </trkpt>
      <trkpt lat="40.700467" lon="-4.699817">
        <ele>2825.0</ele>
        <time>2014-06-30T14:51:24Z</time>
      </trkpt>
      <trkpt lat="40.700533" lon="-4.699700">
        <ele>2824.0</ele>
        <time>2014-06-30T14:51:25Z</time>
      </trkpt>
      <trkpt lat="40.700583" lon="-4.699583">
        <ele>2824.0</ele>
        <time>2014-06-30T14:51:26Z</time>
      </trkpt>
      <trkpt lat="40.700650" lon="-4.699467">
        <ele>2822.0</ele>
        <time>2014-06-30T14:51:27Z</time>
      </trkpt>
      <trkpt lat="40.700733" lon="-4.699350">
        <ele>2821.0</ele>
        <time>2014-06-30T14:51:28Z</time>
      </trkpt>
      <trkpt lat="40.700800" lon="-4.699217">
        <ele>2820.0</ele>
        <time>2014-06-30T14:51:29Z</time>
      </trkpt>
      <trkpt lat="40.700850" lon="-4.699100">
        <ele>2820.0</ele>
        <time>2014-06-30T14:51:30Z</time>
      </trkpt>
      <trkpt lat="40.700900" lon="-4.698983">
        <ele>2819.0</ele>
        <time>2014-06-30T14:51:31Z</time>
      </trkpt>
      <trkpt lat="40.700950" lon="-4.698867">
        <ele>2818.0</ele>
        <time>2014-06-30T14:51:32Z</time>
      </trkpt>
      <trkpt lat="40.701000" lon="-4.698750">
        <ele>2816.0</ele>
        <time>2014-06-30T14:51:33Z</time>
      </trkpt>
      <trkpt lat="40.701067" lon="-4.698617">
        <ele>2814.0</ele>
        <time>2014-06-30T14:51:34Z</time>
      </trkpt>
      <trkpt lat="40.701133" lon="-4.698483">
        <ele>2812.0</ele>
        <time>2014-06-30T14:51:35Z</time>
      </trkpt>
      <trkpt lat="40.701217" lon="-4.698350">
        <ele>2811.0</ele>
        <time>2014-06-30T14:51:36Z</time>
      </trkpt>
      <trkpt lat="40.701283" lon="-4.698233">
        <ele>2810.0</ele>
        <time>2014-06-30T14:51:37Z</time>
      </trkpt>
      <trkpt lat="40.701350" lon="-4.698100">
        <ele>2809.0</ele>
        <time>2014-06-30T14:51:38Z</time>
      </trkpt>
      <trkpt lat="40.701417" lon="-4.697967">
        <ele>2808.0</ele>
        <time>2014-06-30T14:51:39Z</time>
      </trkpt>
      <trkpt lat="40.701483" lon="-4.697833">
        <ele>2806.0</ele>
        <time>2014-06-30T14:51:40Z</time>
      </trkpt>
      <trkpt lat="40.701567" lon="-4.697683">
        <ele>2805.0</ele>
        <time>2014-06-30T14:51:41Z</time>
      </trkpt>
      <trkpt lat="40.701633" lon="-4.697550">
        <ele>2805.0</ele>
        <time>2014-06-30T14:51:42Z</time>
      </trkpt>
      <trkpt lat="40.701717" lon="-4.697417">
        <ele>2804.0</ele>
        <time>2014-06-30T14:51:43Z</time>
      </trkpt>
      <trkpt lat="40.701783" lon="-4.697300">
        <ele>2804.0</ele>
        <time>2014-06-30T14:51:44Z</time>
      </trkpt>
      <trkpt lat="40.701850" lon="-4.697167">
        <ele>2802.0</ele>
        <time>2014-06-30T14:51:45Z</time>
      </trkpt>
      <trkpt lat="40.701933" lon="-4.697050">
        <ele>2800.0</ele>
        <time>2014-06-30T14:51:46Z</time>
      </trkpt>
      <trkpt lat="40.702017" lon="-4.696950">
        <ele>2799.0</ele>
        <time>2014-06-30T14:51:47Z</time>
      </trkpt>
      <trkpt lat="40.702100" lon="-4.696833">
        <ele>2797.0</ele>
        <time>2014-06-30T14:51:48Z</time>
      </trkpt>
      <trkpt lat="40.702183" lon="-4.696717">
        <ele>2795.0</ele>
        <time>2014-06-30T14:51:49Z</time>
      </trkpt>
      <trkpt lat="40.702250" lon="-4.696583">
        <ele>2793.0</ele>
        <time>2014-06-30T14:51:50Z</time>
      </trkpt>
      <trkpt lat="40.702317" lon="-4.696433">
        <ele>2790.0</ele>
        <time>2014-06-30T14:51:51Z</time>
      </trkpt>
      <trkpt lat="40.702383" lon="-4.696300">
        <ele>2787.0</ele>
        <time>2014-06-30T14:51:52Z</time>
      </trkpt>
      <trkpt lat="40.702433" lon="-4.696167">
        <ele>2785.0</ele>
        <time>2014-06-30T14:51:53Z</time>
      </trkpt>
      <trkpt lat="40.702500" lon="-4.696050">
        <ele>2783.0</ele>
        <time>2014-06-30T14:51:54Z</time>
      </trkpt>
      <trkpt lat="40.702550" lon="-4.695933">
        <ele>2782.0</ele>
        <time>2014-06-30T14:51:55Z</time>
      </trkpt>
      <trkpt lat="40.702617" lon="-4.695817">
        <ele>2779.0</ele>
        <time>2014-06-30T14:51:56Z</time>
      </trkpt>
      <trkpt lat="40.702700" lon="-4.695700">
        <ele>2776.0</ele>
        <time>2014-06-30T14:51:57Z</time>
      </trkpt>
      <trkpt lat="40.702783" lon="-4.695617">
        <ele>2773.0</ele>
        <time>2014-06-30T14:51:58Z</time>
      </trkpt>
      <trkpt lat="40.702883" lon="-4.695550">
        <ele>2770.0</ele>
        <time>2014-06-30T14:51:59Z</time>
      </trkpt>
      <trkpt lat="40.703000" lon="-4.695483">
        <ele>2767.0</ele>
        <time>2014-06-30T14:52:00Z</time>
      </trkpt>
      <trkpt lat="40.703100" lon="-4.695400">
        <ele>2764.0</ele>
        <time>2014-06-30T14:52:01Z</time>
      </trkpt>
      <trkpt lat="40.703183" lon="-4.695300">
        <ele>2762.0</ele>
        <time>2014-06-30T14:52:02Z</time>
      </trkpt>
      <trkpt lat="40.703267" lon="-4.695200">
        <ele>2759.0</ele>
        <time>2014-06-30T14:52:03Z</time>
      </trkpt>
      <trkpt lat="40.703367" lon="-4.695083">
        <ele>2757.0</ele>
        <time>2014-06-30T14:52:04Z</time>
      </trkpt>
      <trkpt lat="40.703467" lon="-4.694983">
        <ele>2754.0</ele>
        <time>2014-06-30T14:52:05Z</time>
      </trkpt>
      <trkpt lat="40.703567" lon="-4.694883">
        <ele>2751.0</ele>
        <time>2014-06-30T14:52:06Z</time>
      </trkpt>
      <trkpt lat="40.703667" lon="-4.694750">
        <ele>2748.0</ele>
        <time>2014-06-30T14:52:07Z</time>
      </trkpt>
      <trkpt lat="40.703767" lon="-4.694633">
        <ele>2746.0</ele>
        <time>2014-06-30T14:52:08Z</time>
      </trkpt>
      <trkpt lat="40.703850" lon="-4.694517">
        <ele>2744.0</ele>
        <time>2014-06-30T14:52:09Z</time>
      </trkpt>
      <trkpt lat="40.703933" lon="-4.694400">
        <ele>2745.0</ele>
        <time>2014-06-30T14:52:10Z</time>
      </trkpt>
      <trkpt lat="40.704000" lon="-4.694267">
        <ele>2744.0</ele>
        <time>2014-06-30T14:52:11Z</time>
      </trkpt>
      <trkpt lat="40.704067" lon="-4.694117">
        <ele>2743.0</ele>
        <time>2014-06-30T14:52:12Z</time>
      </trkpt>
      <trkpt lat="40.704150" lon="-4.693983">
        <ele>2741.0</ele>
        <time>2014-06-30T14:52:13Z</time>
      </trkpt>
      <trkpt lat="40.704217" lon="-4.693867">
        <ele>2739.0</ele>
        <time>2014-06-30T14:52:14Z</time>
      </trkpt>
      <trkpt lat="40.704300" lon="-4.693733">
        <ele>2738.0</ele>
        <time>2014-06-30T14:52:15Z</time>
      </trkpt>
      <trkpt lat="40.704383" lon="-4.693617">
        <ele>2737.0</ele>
        <time>2014-06-30T14:52:16Z</time>
      </trkpt>
      <trkpt lat="40.704467" lon="-4.693483">
        <ele>2735.0</ele>
        <time>2014-06-30T14:52:17Z</time>
      </trkpt>
      <trkpt lat="40.704550" lon="-4.693350">
        <ele>2733.0</ele>
        <time>2014-06-30T14:52:18Z</time>
      </trkpt>
      <trkpt lat="40.704633" lon="-4.693217">
        <ele>2730.0</ele>
        <time>2014-06-30T14:52:19Z</time>
      </trkpt>
      <trkpt lat="40.704717" lon="-4.693083">
        <ele>2728.0</ele>
        <time>2014-06-30T14:52:20Z</time>
      </trkpt>
      <trkpt lat="40.704800" lon="-4.692950">
        <ele>2726.0</ele>
        <time>2014-06-30T14:52:21Z</time>
      </trkpt>
      <trkpt lat="40.704900" lon="-4.692817">
        <ele>2723.0</ele>
        <time>2014-06-30T14:52:22Z</time>
      </trkpt>
      <trkpt lat="40.704967" lon="-4.692683">
        <ele>2721.0</ele>
        <time>2014-06-30T14:52:23Z</time>
      </trkpt>
      <trkpt lat="40.705033" lon="-4.692550">
        <ele>2719.0</ele>
        <time>2014-06-30T14:52:24Z</time>
      </trkpt>
      <trkpt lat="40.705100" lon="-4.692417">
        <ele>2716.0</ele>
        <time>2014-06-30T14:52:25Z</time>
      </trkpt>
      <trkpt lat="40.705183" lon="-4.692283">
        <ele>2713.0</ele>
        <time>2014-06-30T14:52:26Z</time>
      </trkpt>
      <trkpt lat="40.705250" lon="-4.692150">
        <ele>2711.0</ele>
        <time>2014-06-30T14:52:27Z</time>
      </trkpt>
      <trkpt lat="40.705317" lon="-4.692000">
        <ele>2708.0</ele>
        <time>2014-06-30T14:52:28Z</time>
      </trkpt>
      <trkpt lat="40.705350" lon="-4.691867">
        <ele>2706.0</ele>
        <time>2014-06-30T14:52:29Z</time>
      </trkpt>
      <trkpt lat="40.705383" lon="-4.691750">
        <ele>2705.0</ele>
        <time>2014-06-30T14:52:30Z</time>
      </trkpt>
      <trkpt lat="40.705400" lon="-4.691633">
        <ele>2703.0</ele>
        <time>2014-06-30T14:52:31Z</time>
      </trkpt>
      <trkpt lat="40.705417" lon="-4.691500">
        <ele>2700.0</ele>
        <time>2014-06-30T14:52:32Z</time>
      </trkpt>
      <trkpt lat="40.705450" lon="-4.691383">
        <ele>2697.0</ele>
        <time>2014-06-30T14:52:33Z</time>
      </trkpt>
      <trkpt lat="40.705500" lon="-4.691250">
        <ele>2694.0</ele>
        <time>2014-06-30T14:52:34Z</time>
      </trkpt>
      <trkpt lat="40.705533" lon="-4.691133">
        <ele>2691.0</ele>
        <time>2014-06-30T14:52:35Z</time>
      </trkpt>
      <trkpt lat="40.705567" lon="-4.691000">
        <ele>2688.0</ele>
        <time>2014-06-30T14:52:36Z</time>
      </trkpt>
      <trkpt lat="40.705600" lon="-4.690883">
        <ele>2686.0</ele>
        <time>2014-06-30T14:52:37Z</time>
      </trkpt>
      <trkpt lat="40.705633" lon="-4.690767">
        <ele>2683.0</ele>
        <time>2014-06-30T14:52:38Z</time>
      </trkpt>
      <trkpt lat="40.705667" lon="-4.690633">
        <ele>2681.0</ele>
        <time>2014-06-30T14:52:39Z</time>
      </trkpt>
      <trkpt lat="40.705717" lon="-4.690500">
        <ele>2678.0</ele>
        <time>2014-06-30T14:52:40Z</time>
      </trkpt>
      <trkpt lat="40.705767" lon="-4.690383">
        <ele>2675.0</ele>
        <time>2014-06-30T14:52:41Z</time>
      </trkpt>
      <trkpt lat="40.705817" lon="-4.690250">
        <ele>2673.0</ele>
        <time>2014-06-30T14:52:42Z</time>
      </trkpt>
      <trkpt lat="40.705883" lon="-4.690133">
        <ele>2672.0</ele>
        <time>2014-06-30T14:52:43Z</time>
      </trkpt>
      <trkpt lat="40.705933" lon="-4.690017">
        <ele>2671.0</ele>
        <time>2014-06-30T14:52:44Z</time>
      </trkpt>
      <trkpt lat="40.705983" lon="-4.689900">
        <ele>2672.0</ele>
        <time>2014-06-30T14:52:45Z</time>
      </trkpt>
      <trkpt lat="40.706033" lon="-4.689800">
        <ele>2672.0</ele>
        <time>2014-06-30T14:52:46Z</time>
      </trkpt>
      <trkpt lat="40.706083" lon="-4.689683">
        <ele>2671.0</ele>
        <time>2014-06-30T14:52:47Z</time>
      </trkpt>
      <trkpt lat="40.706133" lon="-4.689583">
        <ele>2670.0</ele>
        <time>2014-06-30T14:52:48Z</time>
      </trkpt>
      <trkpt lat="40.706217" lon="-4.689500">
        <ele>2668.0</ele>
        <time>2014-06-30T14:52:49Z</time>
      </trkpt>
      <trkpt lat="40.706283" lon="-4.689417">
        <ele>2666.0</ele>
        <time>2014-06-30T14:52:50Z</time>
      </trkpt>
      <trkpt lat="40.706367" lon="-4.689333">
        <ele>2665.0</ele>
        <time>2014-06-30T14:52:51Z</time>
      </trkpt>
      <trkpt lat="40.706433" lon="-4.689267">
        <ele>2665.0</ele>
        <time>2014-06-30T14:52:52Z</time>
      </trkpt>
      <trkpt lat="40.706500" lon="-4.689200">
        <ele>2666.0</ele>
        <time>2014-06-30T14:52:53Z</time>
      </trkpt>
      <trkpt lat="40.706550" lon="-4.689133">
        <ele>2665.0</ele>
        <time>2014-06-30T14:52:54Z</time>
      </trkpt>
      <trkpt lat="40.706617" lon="-4.689083">
        <ele>2664.0</ele>
        <time>2014-06-30T14:52:55Z</time>
      </trkpt>
      <trkpt lat="40.706683" lon="-4.689017">
        <ele>2662.0</ele>
        <time>2014-06-30T14:52:56Z</time>
      </trkpt>
      <trkpt lat="40.706750" lon="-4.688950">
        <ele>2660.0</ele>
        <time>2014-06-30T14:52:57Z</time>
      </trkpt>
      <trkpt lat="40.706833" lon="-4.688883">
        <ele>2657.0</ele>
        <time>2014-06-30T14:52:58Z</time>
      </trkpt>
      <trkpt lat="40.706917" lon="-4.688833">
        <ele>2655.0</ele>
        <time>2014-06-30T14:52:59Z</time>
      </trkpt>
      <trkpt lat="40.707000" lon="-4.688783">
        <ele>2653.0</ele>
        <time>2014-06-30T14:53:00Z</time>
      </trkpt>
      <trkpt lat="40.707067" lon="-4.688733">
        <ele>2651.0</ele>
        <time>2014-06-30T14:53:01Z</time>
      </trkpt>
      <trkpt lat="40.707133" lon="-4.688667">
        <ele>2651.0</ele>
        <time>2014-06-30T14:53:02Z</time>
      </trkpt>
      <trkpt lat="40.707183" lon="-4.688600">
        <ele>2651.0</ele>
        <time>2014-06-30T14:53:03Z</time>
      </trkpt>
      <trkpt lat="40.707233" lon="-4.688500">
        <ele>2649.0</ele>
        <time>2014-06-30T14:53:04Z</time>
      </trkpt>
      <trkpt lat="40.707300" lon="-4.688400">
        <ele>2648.0</ele>
        <time>2014-06-30T14:53:05Z</time>
      </trkpt>
      <trkpt lat="40.707350" lon="-4.688300">
        <ele>2646.0</ele>
        <time>2014-06-30T14:53:06Z</time>
      </trkpt>
      <trkpt lat="40.707417" lon="-4.688183">
        <ele>2644.0</ele>
        <time>2014-06-30T14:53:07Z</time>
      </trkpt>
      <trkpt lat="40.707467" lon="-4.688067">
        <ele>2643.0</ele>
        <time>2014-06-30T14:53:08Z</time>
      </trkpt>
      <trkpt lat="40.707517" lon="-4.687950">
        <ele>2642.0</ele>
        <time>2014-06-30T14:53:09Z</time>
      </trkpt>
      <trkpt lat="40.707550" lon="-4.687833">
        <ele>2642.0</ele>
        <time>2014-06-30T14:53:10Z</time>
      </trkpt>
      <trkpt lat="40.707583" lon="-4.687733">
        <ele>2642.0</ele>
        <time>2014-06-30T14:53:11Z</time>
      </trkpt>
      <trkpt lat="40.707617" lon="-4.687667">
        <ele>2643.0</ele>
        <time>2014-06-30T14:53:12Z</time>
      </trkpt>
      <trkpt lat="40.707667" lon="-4.687600">
        <ele>2642.0</ele>
        <time>2014-06-30T14:53:13Z</time>
      </trkpt>
      <trkpt lat="40.707717" lon="-4.687550">
        <ele>2641.0</ele>
        <time>2014-06-30T14:53:14Z</time>
      </trkpt>
      <trkpt lat="40.707817" lon="-4.687500">
        <ele>2639.0</ele>
        <time>2014-06-30T14:53:15Z</time>
      </trkpt>
      <trkpt lat="40.707900" lon="-4.687433">
        <ele>2637.0</ele>
        <time>2014-06-30T14:53:16Z</time>
      </trkpt>
      <trkpt lat="40.707967" lon="-4.687333">
        <ele>2636.0</ele>
        <time>2014-06-30T14:53:17Z</time>
      </trkpt>
      <trkpt lat="40.708017" lon="-4.687250">
        <ele>2635.0</ele>
        <time>2014-06-30T14:53:18Z</time>
      </trkpt>
      <trkpt lat="40.708067" lon="-4.687133">
        <ele>2635.0</ele>
        <time>2014-06-30T14:53:19Z</time>
      </trkpt>
      <trkpt lat="40.708083" lon="-4.687017">
        <ele>2634.0</ele>
        <time>2014-06-30T14:53:20Z</time>
      </trkpt>
      <trkpt lat="40.708117" lon="-4.686883">
        <ele>2633.0</ele>
        <time>2014-06-30T14:53:21Z</time>
      </trkpt>
      <trkpt lat="40.708133" lon="-4.686750">
        <ele>2632.0</ele>
        <time>2014-06-30T14:53:22Z</time>
      </trkpt>
      <trkpt lat="40.708167" lon="-4.686617">
        <ele>2630.0</ele>
        <time>2014-06-30T14:53:23Z</time>
      </trkpt>
      <trkpt lat="40.708183" lon="-4.686467">
        <ele>2629.0</ele>
        <time>2014-06-30T14:53:24Z</time>
      </trkpt>
      <trkpt lat="40.708183" lon="-4.686333">
        <ele>2627.0</ele>
        <time>2014-06-30T14:53:25Z</time>
      </trkpt>
      <trkpt lat="40.708200" lon="-4.686200">
        <ele>2626.0</ele>
        <time>2014-06-30T14:53:26Z</time>
      </trkpt>
      <trkpt lat="40.708217" lon="-4.686067">
        <ele>2624.0</ele>
        <time>2014-06-30T14:53:27Z</time>
      </trkpt>
      <trkpt lat="40.708233" lon="-4.685933">
        <ele>2622.0</ele>
        <time>2014-06-30T14:53:28Z</time>
      </trkpt>
      <trkpt lat="40.708267" lon="-4.685800">
        <ele>2620.0</ele>
        <time>2014-06-30T14:53:29Z</time>
      </trkpt>
      <trkpt lat="40.708300" lon="-4.685667">
        <ele>2618.0</ele>
        <time>2014-06-30T14:53:30Z</time>
      </trkpt>
      <trkpt lat="40.708317" lon="-4.685517">
        <ele>2616.0</ele>
        <time>2014-06-30T14:53:31Z</time>
      </trkpt>
      <trkpt lat="40.708367" lon="-4.685383">
        <ele>2613.0</ele>
        <time>2014-06-30T14:53:32Z</time>
      </trkpt>
      <trkpt lat="40.708400" lon="-4.685250">
        <ele>2611.0</ele>
        <time>2014-06-30T14:53:33Z</time>
      </trkpt>
      <trkpt lat="40.708450" lon="-4.685117">
        <ele>2608.0</ele>
        <time>2014-06-30T14:53:34Z</time>
      </trkpt>
      <trkpt lat="40.708500" lon="-4.684983">
        <ele>2605.0</ele>
        <time>2014-06-30T14:53:35Z</time>
      </trkpt>
      <trkpt lat="40.708567" lon="-4.684833">
        <ele>2602.0</ele>
        <time>2014-06-30T14:53:36Z</time>
      </trkpt>
      <trkpt lat="40.708633" lon="-4.684700">
        <ele>2599.0</ele>
        <time>2014-06-30T14:53:37Z</time>
      </trkpt>
      <trkpt lat="40.708700" lon="-4.684583">
        <ele>2596.0</ele>
        <time>2014-06-30T14:53:38Z</time>
      </trkpt>
      <trkpt lat="40.708783" lon="-4.684450">
        <ele>2591.0</ele>
        <time>2014-06-30T14:53:39Z</time>
      </trkpt>
      <trkpt lat="40.708867" lon="-4.684317">
        <ele>2588.0</ele>
        <time>2014-06-30T14:53:40Z</time>
      </trkpt>
      <trkpt lat="40.708967" lon="-4.684200">
        <ele>2585.0</ele>
        <time>2014-06-30T14:53:41Z</time>
      </trkpt>
      <trkpt lat="40.709050" lon="-4.684083">
        <ele>2582.0</ele>
        <time>2014-06-30T14:53:42Z</time>
      </trkpt>
      <trkpt lat="40.709117" lon="-4.683950">
        <ele>2579.0</ele>
        <time>2014-06-30T14:53:43Z</time>
      </trkpt>
      <trkpt lat="40.709200" lon="-4.683833">
        <ele>2577.0</ele>
        <time>2014-06-30T14:53:44Z</time>
      </trkpt>
      <trkpt lat="40.709283" lon="-4.683733">
        <ele>2574.0</ele>
        <time>2014-06-30T14:53:45Z</time>
      </trkpt>
      <trkpt lat="40.709383" lon="-4.683633">
        <ele>2571.0</ele>
        <time>2014-06-30T14:53:46Z</time>
      </trkpt>
      <trkpt lat="40.709483" lon="-4.683533">
        <ele>2568.0</ele>
        <time>2014-06-30T14:53:47Z</time>
      </trkpt>
      <trkpt lat="40.709583" lon="-4.683450">
        <ele>2565.0</ele>
        <time>2014-06-30T14:53:48Z</time>
      </trkpt>
      <trkpt lat="40.709683" lon="-4.683350">
        <ele>2562.0</ele>
        <time>2014-06-30T14:53:49Z</time>
      </trkpt>
      <trkpt lat="40.709783" lon="-4.683233">
        <ele>2559.0</ele>
        <time>2014-06-30T14:53:50Z</time>
      </trkpt>
      <trkpt lat="40.709883" lon="-4.683133">
        <ele>2557.0</ele>
        <time>2014-06-30T14:53:51Z</time>
      </trkpt>
      <trkpt lat="40.709983" lon="-4.683033">
        <ele>2555.0</ele>
        <time>2014-06-30T14:53:52Z</time>
      </trkpt>
      <trkpt lat="40.710083" lon="-4.682917">
        <ele>2553.0</ele>
        <time>2014-06-30T14:53:53Z</time>
      </trkpt>
      <trkpt lat="40.710183" lon="-4.682800">
        <ele>2552.0</ele>
        <time>2014-06-30T14:53:54Z</time>
      </trkpt>
      <trkpt lat="40.710283" lon="-4.682683">
        <ele>2551.0</ele>
        <time>2014-06-30T14:53:55Z</time>
      </trkpt>
      <trkpt lat="40.710367" lon="-4.682583">
        <ele>2551.0</ele>
        <time>2014-06-30T14:53:56Z</time>
      </trkpt>
      <trkpt lat="40.710450" lon="-4.682483">
        <ele>2553.0</ele>
        <time>2014-06-30T14:53:57Z</time>
      </trkpt>
      <trkpt lat="40.710533" lon="-4.682383">
        <ele>2553.0</ele>
        <time>2014-06-30T14:53:58Z</time>
      </trkpt>
      <trkpt lat="40.710617" lon="-4.682283">
        <ele>2552.0</ele>
        <time>2014-06-30T14:53:59Z</time>
      </trkpt>
      <trkpt lat="40.710700" lon="-4.682183">
        <ele>2551.0</ele>
        <time>2014-06-30T14:54:00Z</time>
      </trkpt>
      <trkpt lat="40.710800" lon="-4.682067">
        <ele>2550.0</ele>
        <time>2014-06-30T14:54:01Z</time>
      </trkpt>
      <trkpt lat="40.710883" lon="-4.681950">
        <ele>2549.0</ele>
        <time>2014-06-30T14:54:02Z</time>
      </trkpt>
      <trkpt lat="40.710983" lon="-4.681850">
        <ele>2547.0</ele>
        <time>2014-06-30T14:54:03Z</time>
      </trkpt>
      <trkpt lat="40.711067" lon="-4.681717">
        <ele>2546.0</ele>
        <time>2014-06-30T14:54:04Z</time>
      </trkpt>
      <trkpt lat="40.711150" lon="-4.681600">
        <ele>2544.0</ele>
        <time>2014-06-30T14:54:05Z</time>
      </trkpt>
      <trkpt lat="40.711217" lon="-4.681483">
        <ele>2542.0</ele>
        <time>2014-06-30T14:54:06Z</time>
      </trkpt>
      <trkpt lat="40.711300" lon="-4.681350">
        <ele>2540.0</ele>
        <time>2014-06-30T14:54:07Z</time>
      </trkpt>
      <trkpt lat="40.711400" lon="-4.681233">
        <ele>2539.0</ele>
        <time>2014-06-30T14:54:08Z</time>
      </trkpt>
      <trkpt lat="40.711500" lon="-4.681133">
        <ele>2537.0</ele>
        <time>2014-06-30T14:54:09Z</time>
      </trkpt>
      <trkpt lat="40.711600" lon="-4.681017">
        <ele>2535.0</ele>
        <time>2014-06-30T14:54:10Z</time>
      </trkpt>
      <trkpt lat="40.711700" lon="-4.680900">
        <ele>2533.0</ele>
        <time>2014-06-30T14:54:11Z</time>
      </trkpt>
      <trkpt lat="40.711783" lon="-4.680767">
        <ele>2531.0</ele>
        <time>2014-06-30T14:54:12Z</time>
      </trkpt>
      <trkpt lat="40.711867" lon="-4.680633">
        <ele>2528.0</ele>
        <time>2014-06-30T14:54:13Z</time>
      </trkpt>
      <trkpt lat="40.711967" lon="-4.680500">
        <ele>2526.0</ele>
        <time>2014-06-30T14:54:14Z</time>
      </trkpt>
      <trkpt lat="40.712067" lon="-4.680367">
        <ele>2524.0</ele>
        <time>2014-06-30T14:54:15Z</time>
      </trkpt>
      <trkpt lat="40.712167" lon="-4.680250">
        <ele>2521.0</ele>
        <time>2014-06-30T14:54:16Z</time>
      </trkpt>
      <trkpt lat="40.712283" lon="-4.680117">
        <ele>2518.0</ele>
        <time>2014-06-30T14:54:17Z</time>
      </trkpt>
      <trkpt lat="40.712383" lon="-4.679983">
        <ele>2516.0</ele>
        <time>2014-06-30T14:54:18Z</time>
      </trkpt>
      <trkpt lat="40.712500" lon="-4.679850">
        <ele>2514.0</ele>
        <time>2014-06-30T14:54:19Z</time>
      </trkpt>
      <trkpt lat="40.712583" lon="-4.679700">
        <ele>2511.0</ele>
        <time>2014-06-30T14:54:20Z</time>
      </trkpt>
      <trkpt lat="40.712683" lon="-4.679567">
        <ele>2509.0</ele>
        <time>2014-06-30T14:54:21Z</time>
      </trkpt>
      <trkpt lat="40.712783" lon="-4.679417">
        <ele>2506.0</ele>
        <time>2014-06-30T14:54:22Z</time>
      </trkpt>
      <trkpt lat="40.712900" lon="-4.679267">
        <ele>2503.0</ele>
        <time>2014-06-30T14:54:23Z</time>
      </trkpt>
      <trkpt lat="40.713000" lon="-4.679133">
        <ele>2501.0</ele>
        <time>2014-06-30T14:54:24Z</time>
      </trkpt>
      <trkpt lat="40.713117" lon="-4.678983">
        <ele>2499.0</ele>
        <time>2014-06-30T14:54:25Z</time>
      </trkpt>
      <trkpt lat="40.713200" lon="-4.678833">
        <ele>2498.0</ele>
        <time>2014-06-30T14:54:26Z</time>
      </trkpt>
      <trkpt lat="40.713300" lon="-4.678683">
        <ele>2497.0</ele>
        <time>2014-06-30T14:54:27Z</time>
      </trkpt>
      <trkpt lat="40.713383" lon="-4.678533">
        <ele>2496.0</ele>
        <time>2014-06-30T14:54:28Z</time>
      </trkpt>
      <trkpt lat="40.713467" lon="-4.678400">
        <ele>2494.0</ele>
        <time>2014-06-30T14:54:29Z</time>
      </trkpt>
      <trkpt lat="40.713550" lon="-4.678250">
        <ele>2493.0</ele>
        <time>2014-06-30T14:54:30Z</time>
      </trkpt>
      <trkpt lat="40.713633" lon="-4.678117">
        <ele>2491.0</ele>
        <time>2014-06-30T14:54:31Z</time>
      </trkpt>
      <trkpt lat="40.713733" lon="-4.677967">
        <ele>2490.0</ele>
        <time>2014-06-30T14:54:32Z</time>
      </trkpt>
      <trkpt lat="40.713817" lon="-4.677817">
        <ele>2488.0</ele>
        <time>2014-06-30T14:54:33Z</time>
      </trkpt>
      <trkpt lat="40.713900" lon="-4.677667">
        <ele>2487.0</ele>
        <time>2014-06-30T14:54:34Z</time>
      </trkpt>
      <trkpt lat="40.713983" lon="-4.677517">
        <ele>2485.0</ele>
        <time>2014-06-30T14:54:35Z</time>
      </trkpt>
      <trkpt lat="40.714067" lon="-4.677367">
        <ele>2484.0</ele>
        <time>2014-06-30T14:54:36Z</time>
      </trkpt>
      <trkpt lat="40.714150" lon="-4.677217">
        <ele>2483.0</ele>
        <time>2014-06-30T14:54:37Z</time>
      </trkpt>
      <trkpt lat="40.714217" lon="-4.677067">
        <ele>2481.0</ele>
        <time>2014-06-30T14:54:38Z</time>
      </trkpt>
      <trkpt lat="40.714300" lon="-4.676917">
        <ele>2480.0</ele>
        <time>2014-06-30T14:54:39Z</time>
      </trkpt>
      <trkpt lat="40.714383" lon="-4.676783">
        <ele>2479.0</ele>
        <time>2014-06-30T14:54:40Z</time>
      </trkpt>
      <trkpt lat="40.714467" lon="-4.676650">
        <ele>2477.0</ele>
        <time>2014-06-30T14:54:41Z</time>
      </trkpt>
      <trkpt lat="40.714533" lon="-4.676517">
        <ele>2476.0</ele>
        <time>2014-06-30T14:54:42Z</time>
      </trkpt>
      <trkpt lat="40.714600" lon="-4.676367">
        <ele>2475.0</ele>
        <time>2014-06-30T14:54:43Z</time>
      </trkpt>
      <trkpt lat="40.714667" lon="-4.676233">
        <ele>2473.0</ele>
        <time>2014-06-30T14:54:44Z</time>
      </trkpt>
      <trkpt lat="40.714733" lon="-4.676083">
        <ele>2471.0</ele>
        <time>2014-06-30T14:54:45Z</time>
      </trkpt>
      <trkpt lat="40.714800" lon="-4.675950">
        <ele>2470.0</ele>
        <time>2014-06-30T14:54:46Z</time>
      </trkpt>
      <trkpt lat="40.714883" lon="-4.675817">
        <ele>2469.0</ele>
        <time>2014-06-30T14:54:47Z</time>
      </trkpt>
      <trkpt lat="40.714967" lon="-4.675683">
        <ele>2467.0</ele>
        <time>2014-06-30T14:54:48Z</time>
      </trkpt>
      <trkpt lat="40.715033" lon="-4.675550">
        <ele>2466.0</ele>
        <time>2014-06-30T14:54:49Z</time>
      </trkpt>
      <trkpt lat="40.715117" lon="-4.675417">
        <ele>2464.0</ele>
        <time>2014-06-30T14:54:50Z</time>
      </trkpt>
      <trkpt lat="40.715200" lon="-4.675267">
        <ele>2462.0</ele>
        <time>2014-06-30T14:54:51Z</time>
      </trkpt>
      <trkpt lat="40.715300" lon="-4.675133">
        <ele>2460.0</ele>
        <time>2014-06-30T14:54:52Z</time>
      </trkpt>
      <trkpt lat="40.715383" lon="-4.674983">
        <ele>2458.0</ele>
        <time>2014-06-30T14:54:53Z</time>
      </trkpt>
      <trkpt lat="40.715483" lon="-4.674850">
        <ele>2455.0</ele>
        <time>2014-06-30T14:54:54Z</time>
      </trkpt>
      <trkpt lat="40.715567" lon="-4.674700">
        <ele>2453.0</ele>
        <time>2014-06-30T14:54:55Z</time>
      </trkpt>
      <trkpt lat="40.715667" lon="-4.674567">
        <ele>2451.0</ele>
        <time>2014-06-30T14:54:56Z</time>
      </trkpt>
      <trkpt lat="40.715767" lon="-4.674450">
        <ele>2448.0</ele>
        <time>2014-06-30T14:54:57Z</time>
      </trkpt>
      <trkpt lat="40.715867" lon="-4.674317">
        <ele>2446.0</ele>
        <time>2014-06-30T14:54:58Z</time>
      </trkpt>
      <trkpt lat="40.715967" lon="-4.674183">
        <ele>2443.0</ele>
        <time>2014-06-30T14:54:59Z</time>
      </trkpt>
      <trkpt lat="40.716067" lon="-4.674033">
        <ele>2440.0</ele>
        <time>2014-06-30T14:55:00Z</time>
      </trkpt>
      <trkpt lat="40.716183" lon="-4.673883">
        <ele>2437.0</ele>
        <time>2014-06-30T14:55:01Z</time>
      </trkpt>
      <trkpt lat="40.716283" lon="-4.673750">
        <ele>2435.0</ele>
        <time>2014-06-30T14:55:02Z</time>
      </trkpt>
      <trkpt lat="40.716367" lon="-4.673617">
        <ele>2434.0</ele>
        <time>2014-06-30T14:55:03Z</time>
      </trkpt>
      <trkpt lat="40.716467" lon="-4.673483">
        <ele>2432.0</ele>
        <time>2014-06-30T14:55:04Z</time>
      </trkpt>
      <trkpt lat="40.716567" lon="-4.673350">
        <ele>2430.0</ele>
        <time>2014-06-30T14:55:05Z</time>
      </trkpt>
      <trkpt lat="40.716667" lon="-4.673200">
        <ele>2428.0</ele>
        <time>2014-06-30T14:55:06Z</time>
      </trkpt>
      <trkpt lat="40.716750" lon="-4.673083">
        <ele>2425.0</ele>
        <time>2014-06-30T14:55:07Z</time>
      </trkpt>
      <trkpt lat="40.716850" lon="-4.672950">
        <ele>2422.0</ele>
        <time>2014-06-30T14:55:08Z</time>
      </trkpt>
      <trkpt lat="40.716950" lon="-4.672833">
        <ele>2419.0</ele>
        <time>2014-06-30T14:55:09Z</time>
      </trkpt>
      <trkpt lat="40.717033" lon="-4.672683">
        <ele>2416.0</ele>
        <time>2014-06-30T14:55:10Z</time>
      </trkpt>
      <trkpt lat="40.717133" lon="-4.672550">
        <ele>2413.0</ele>
        <time>2014-06-30T14:55:11Z</time>
      </trkpt>
      <trkpt lat="40.717217" lon="-4.672383">
        <ele>2409.0</ele>
        <time>2014-06-30T14:55:12Z</time>
      </trkpt>
      <trkpt lat="40.717317" lon="-4.672233">
        <ele>2406.0</ele>
        <time>2014-06-30T14:55:13Z</time>
      </trkpt>
      <trkpt lat="40.717417" lon="-4.672083">
        <ele>2403.0</ele>
        <time>2014-06-30T14:55:14Z</time>
      </trkpt>
      <trkpt lat="40.717500" lon="-4.671950">
        <ele>2400.0</ele>
        <time>2014-06-30T14:55:15Z</time>
      </trkpt>
      <trkpt lat="40.717600" lon="-4.671817">
        <ele>2398.0</ele>
        <time>2014-06-30T14:55:16Z</time>
      </trkpt>
      <trkpt lat="40.717700" lon="-4.671667">
        <ele>2395.0</ele>
        <time>2014-06-30T14:55:17Z</time>
      </trkpt>
      <trkpt lat="40.717783" lon="-4.671533">
        <ele>2392.0</ele>
        <time>2014-06-30T14:55:18Z</time>
      </trkpt>
      <trkpt lat="40.717867" lon="-4.671400">
        <ele>2389.0</ele>
        <time>2014-06-30T14:55:19Z</time>
      </trkpt>
      <trkpt lat="40.717950" lon="-4.671267">
        <ele>2386.0</ele>
        <time>2014-06-30T14:55:20Z</time>
      </trkpt>
      <trkpt lat="40.718033" lon="-4.671133">
        <ele>2383.0</ele>
        <time>2014-06-30T14:55:21Z</time>
      </trkpt>
      <trkpt lat="40.718100" lon="-4.670983">
        <ele>2379.0</ele>
        <time>2014-06-30T14:55:22Z</time>
      </trkpt>
      <trkpt lat="40.718167" lon="-4.670817">
        <ele>2379.0</ele>
        <time>2014-06-30T14:55:23Z</time>
      </trkpt>
      <trkpt lat="40.718233" lon="-4.670650">
        <ele>2370.0</ele>
        <time>2014-06-30T14:55:24Z</time>
      </trkpt>
      <trkpt lat="40.718300" lon="-4.670483">
        <ele>2366.0</ele>
        <time>2014-06-30T14:55:25Z</time>
      </trkpt>
      <trkpt lat="40.718383" lon="-4.670300">
        <ele>2363.0</ele>
        <time>2014-06-30T14:55:26Z</time>
      </trkpt>
      <trkpt lat="40.718450" lon="-4.670133">
        <ele>2359.0</ele>
        <time>2014-06-30T14:55:27Z</time>
      </trkpt>
      <trkpt lat="40.718533" lon="-4.669967">
        <ele>2356.0</ele>
        <time>2014-06-30T14:55:28Z</time>
      </trkpt>
      <trkpt lat="40.718617" lon="-4.669767">
        <ele>2352.0</ele>
        <time>2014-06-30T14:55:29Z</time>
      </trkpt>
      <trkpt lat="40.718683" lon="-4.669583">
        <ele>2349.0</ele>
        <time>2014-06-30T14:55:30Z</time>
      </trkpt>
      <trkpt lat="40.718750" lon="-4.669400">
        <ele>2346.0</ele>
        <time>2014-06-30T14:55:31Z</time>
      </trkpt>
      <trkpt lat="40.718833" lon="-4.669217">
        <ele>2343.0</ele>
        <time>2014-06-30T14:55:32Z</time>
      </trkpt>
      <trkpt lat="40.718883" lon="-4.669033">
        <ele>2340.0</ele>
        <time>2014-06-30T14:55:33Z</time>
      </trkpt>
      <trkpt lat="40.718950" lon="-4.668883">
        <ele>2337.0</ele>
        <time>2014-06-30T14:55:34Z</time>
      </trkpt>
      <trkpt lat="40.719017" lon="-4.668717">
        <ele>2335.0</ele>
        <time>2014-06-30T14:55:35Z</time>
      </trkpt>
      <trkpt lat="40.719083" lon="-4.668533">
        <ele>2332.0</ele>
        <time>2014-06-30T14:55:36Z</time>
      </trkpt>
      <trkpt lat="40.719150" lon="-4.668350">
        <ele>2329.0</ele>
        <time>2014-06-30T14:55:37Z</time>
      </trkpt>
      <trkpt lat="40.719233" lon="-4.668183">
        <ele>2326.0</ele>
        <time>2014-06-30T14:55:38Z</time>
      </trkpt>
      <trkpt lat="40.719333" lon="-4.668000">
        <ele>2324.0</ele>
        <time>2014-06-30T14:55:39Z</time>
      </trkpt>
      <trkpt lat="40.719433" lon="-4.667833">
        <ele>2321.0</ele>
        <time>2014-06-30T14:55:40Z</time>
      </trkpt>
      <trkpt lat="40.719517" lon="-4.667650">
        <ele>2319.0</ele>
        <time>2014-06-30T14:55:41Z</time>
      </trkpt>
      <trkpt lat="40.719600" lon="-4.667483">
        <ele>2317.0</ele>
        <time>2014-06-30T14:55:42Z</time>
      </trkpt>
      <trkpt lat="40.719667" lon="-4.667367">
        <ele>2315.0</ele>
        <time>2014-06-30T14:55:43Z</time>
      </trkpt>
      <trkpt lat="40.719733" lon="-4.667267">
        <ele>2314.0</ele>
        <time>2014-06-30T14:55:44Z</time>
      </trkpt>
      <trkpt lat="40.719800" lon="-4.667150">
        <ele>2313.0</ele>
        <time>2014-06-30T14:55:45Z</time>
      </trkpt>
      <trkpt lat="40.719867" lon="-4.667017">
        <ele>2310.0</ele>
        <time>2014-06-30T14:55:46Z</time>
      </trkpt>
      <trkpt lat="40.719933" lon="-4.666883">
        <ele>2307.0</ele>
        <time>2014-06-30T14:55:47Z</time>
      </trkpt>
      <trkpt lat="40.720033" lon="-4.666733">
        <ele>2304.0</ele>
        <time>2014-06-30T14:55:48Z</time>
      </trkpt>
      <trkpt lat="40.720133" lon="-4.666600">
        <ele>2302.0</ele>
        <time>2014-06-30T14:55:49Z</time>
      </trkpt>
      <trkpt lat="40.720217" lon="-4.666450">
        <ele>2300.0</ele>
        <time>2014-06-30T14:55:50Z</time>
      </trkpt>
      <trkpt lat="40.720300" lon="-4.666333">
        <ele>2300.0</ele>
        <time>2014-06-30T14:55:51Z</time>
      </trkpt>
      <trkpt lat="40.720350" lon="-4.666200">
        <ele>2298.0</ele>
        <time>2014-06-30T14:55:52Z</time>
      </trkpt>
      <trkpt lat="40.720417" lon="-4.666067">
        <ele>2296.0</ele>
        <time>2014-06-30T14:55:53Z</time>
      </trkpt>
      <trkpt lat="40.720500" lon="-4.665933">
        <ele>2293.0</ele>
        <time>2014-06-30T14:55:54Z</time>
      </trkpt>
      <trkpt lat="40.720583" lon="-4.665800">
        <ele>2290.0</ele>
        <time>2014-06-30T14:55:55Z</time>
      </trkpt>
      <trkpt lat="40.720667" lon="-4.665667">
        <ele>2287.0</ele>
        <time>2014-06-30T14:55:56Z</time>
      </trkpt>
      <trkpt lat="40.720767" lon="-4.665550">
        <ele>2283.0</ele>
        <time>2014-06-30T14:55:57Z</time>
      </trkpt>
      <trkpt lat="40.720850" lon="-4.665400">
        <ele>2280.0</ele>
        <time>2014-06-30T14:55:58Z</time>
      </trkpt>
      <trkpt lat="40.720950" lon="-4.665267">
        <ele>2276.0</ele>
        <time>2014-06-30T14:55:59Z</time>
      </trkpt>
      <trkpt lat="40.721033" lon="-4.665100">
        <ele>2272.0</ele>
        <time>2014-06-30T14:56:00Z</time>
      </trkpt>
      <trkpt lat="40.721133" lon="-4.664950">
        <ele>2267.0</ele>
        <time>2014-06-30T14:56:01Z</time>
      </trkpt>
      <trkpt lat="40.721233" lon="-4.664783">
        <ele>2263.0</ele>
        <time>2014-06-30T14:56:02Z</time>
      </trkpt>
      <trkpt lat="40.721333" lon="-4.664617">
        <ele>2259.0</ele>
        <time>2014-06-30T14:56:03Z</time>
      </trkpt>
      <trkpt lat="40.721417" lon="-4.664450">
        <ele>2255.0</ele>
        <time>2014-06-30T14:56:04Z</time>
      </trkpt>
      <trkpt lat="40.721500" lon="-4.664300">
        <ele>2252.0</ele>
        <time>2014-06-30T14:56:05Z</time>
      </trkpt>
      <trkpt lat="40.721583" lon="-4.664133">
        <ele>2249.0</ele>
        <time>2014-06-30T14:56:06Z</time>
      </trkpt>
      <trkpt lat="40.721683" lon="-4.663983">
        <ele>2245.0</ele>
        <time>2014-06-30T14:56:07Z</time>
      </trkpt>
      <trkpt lat="40.721783" lon="-4.663833">
        <ele>2242.0</ele>
        <time>2014-06-30T14:56:08Z</time>
      </trkpt>
      <trkpt lat="40.721867" lon="-4.663683">
        <ele>2239.0</ele>
        <time>2014-06-30T14:56:09Z</time>
      </trkpt>
      <trkpt lat="40.721950" lon="-4.663517">
        <ele>2236.0</ele>
        <time>2014-06-30T14:56:10Z</time>
      </trkpt>
      <trkpt lat="40.722017" lon="-4.663367">
        <ele>2233.0</ele>
        <time>2014-06-30T14:56:11Z</time>
      </trkpt>
      <trkpt lat="40.722083" lon="-4.663217">
        <ele>2230.0</ele>
        <time>2014-06-30T14:56:12Z</time>
      </trkpt>
      <trkpt lat="40.722167" lon="-4.663050">
        <ele>2226.0</ele>
        <time>2014-06-30T14:56:13Z</time>
      </trkpt>
      <trkpt lat="40.722233" lon="-4.662883">
        <ele>2222.0</ele>
        <time>2014-06-30T14:56:14Z</time>
      </trkpt>
      <trkpt lat="40.722333" lon="-4.662717">
        <ele>2219.0</ele>
        <time>2014-06-30T14:56:15Z</time>
      </trkpt>
      <trkpt lat="40.722417" lon="-4.662533">
        <ele>2215.0</ele>
        <time>2014-06-30T14:56:16Z</time>
      </trkpt>
      <trkpt lat="40.722500" lon="-4.662367">
        <ele>2213.0</ele>
        <time>2014-06-30T14:56:17Z</time>
      </trkpt>
      <trkpt lat="40.722567" lon="-4.662183">
        <ele>2210.0</ele>
        <time>2014-06-30T14:56:18Z</time>
      </trkpt>
      <trkpt lat="40.722650" lon="-4.662017">
        <ele>2208.0</ele>
        <time>2014-06-30T14:56:19Z</time>
      </trkpt>
      <trkpt lat="40.722733" lon="-4.661850">
        <ele>2206.0</ele>
        <time>2014-06-30T14:56:20Z</time>
      </trkpt>
      <trkpt lat="40.722817" lon="-4.661683">
        <ele>2204.0</ele>
        <time>2014-06-30T14:56:21Z</time>
      </trkpt>
      <trkpt lat="40.722900" lon="-4.661517">
        <ele>2202.0</ele>
        <time>2014-06-30T14:56:22Z</time>
      </trkpt>
      <trkpt lat="40.723000" lon="-4.661350">
        <ele>2200.0</ele>
        <time>2014-06-30T14:56:23Z</time>
      </trkpt>
      <trkpt lat="40.723100" lon="-4.661183">
        <ele>2198.0</ele>
        <time>2014-06-30T14:56:24Z</time>
      </trkpt>
      <trkpt lat="40.723200" lon="-4.661017">
        <ele>2197.0</ele>
        <time>2014-06-30T14:56:25Z</time>
      </trkpt>
      <trkpt lat="40.723283" lon="-4.660867">
        <ele>2198.0</ele>
        <time>2014-06-30T14:56:26Z</time>
      </trkpt>
      <trkpt lat="40.723350" lon="-4.660733">
        <ele>2199.0</ele>
        <time>2014-06-30T14:56:27Z</time>
      </trkpt>
      <trkpt lat="40.723417" lon="-4.660600">
        <ele>2200.0</ele>
        <time>2014-06-30T14:56:28Z</time>
      </trkpt>
      <trkpt lat="40.723500" lon="-4.660467">
        <ele>2200.0</ele>
        <time>2014-06-30T14:56:29Z</time>
      </trkpt>
      <trkpt lat="40.723583" lon="-4.660350">
        <ele>2200.0</ele>
        <time>2014-06-30T14:56:30Z</time>
      </trkpt>
      <trkpt lat="40.723683" lon="-4.660200">
        <ele>2199.0</ele>
        <time>2014-06-30T14:56:31Z</time>
      </trkpt>
      <trkpt lat="40.723767" lon="-4.660067">
        <ele>2198.0</ele>
        <time>2014-06-30T14:56:32Z</time>
      </trkpt>
      <trkpt lat="40.723833" lon="-4.659917">
        <ele>2198.0</ele>
        <time>2014-06-30T14:56:33Z</time>
      </trkpt>
      <trkpt lat="40.723900" lon="-4.659767">
        <ele>2198.0</ele>
        <time>2014-06-30T14:56:34Z</time>
      </trkpt>
      <trkpt lat="40.723967" lon="-4.659600">
        <ele>2198.0</ele>
        <time>2014-06-30T14:56:35Z</time>
      </trkpt>
      <trkpt lat="40.724050" lon="-4.659450">
        <ele>2197.0</ele>
        <time>2014-06-30T14:56:36Z</time>
      </trkpt>
      <trkpt lat="40.724117" lon="-4.659300">
        <ele>2197.0</ele>
        <time>2014-06-30T14:56:37Z</time>
      </trkpt>
      <trkpt lat="40.724200" lon="-4.659150">
        <ele>2197.0</ele>
        <time>2014-06-30T14:56:38Z</time>
      </trkpt>
      <trkpt lat="40.724267" lon="-4.658983">
        <ele>2196.0</ele>
        <time>2014-06-30T14:56:39Z</time>
      </trkpt>
      <trkpt lat="40.724333" lon="-4.658817">
        <ele>2195.0</ele>
        <time>2014-06-30T14:56:40Z</time>
      </trkpt>
      <trkpt lat="40.724383" lon="-4.658633">
        <ele>2195.0</ele>
        <time>2014-06-30T14:56:41Z</time>
      </trkpt>
      <trkpt lat="40.724433" lon="-4.658467">
        <ele>2194.0</ele>
        <time>2014-06-30T14:56:42Z</time>
      </trkpt>
      <trkpt lat="40.724467" lon="-4.658283">
        <ele>2194.0</ele>
        <time>2014-06-30T14:56:43Z</time>
      </trkpt>
      <trkpt lat="40.724517" lon="-4.658117">
        <ele>2193.0</ele>
        <time>2014-06-30T14:56:44Z</time>
      </trkpt>
      <trkpt lat="40.724583" lon="-4.657950">
        <ele>2191.0</ele>
        <time>2014-06-30T14:56:45Z</time>
      </trkpt>
      <trkpt lat="40.724650" lon="-4.657783">
        <ele>2189.0</ele>
        <time>2014-06-30T14:56:46Z</time>
      </trkpt>
      <trkpt lat="40.724717" lon="-4.657617">
        <ele>2187.0</ele>
        <time>2014-06-30T14:56:47Z</time>
      </trkpt>
      <trkpt lat="40.724783" lon="-4.657433">
        <ele>2184.0</ele>
        <time>2014-06-30T14:56:48Z</time>
      </trkpt>
      <trkpt lat="40.724850" lon="-4.657250">
        <ele>2182.0</ele>
        <time>2014-06-30T14:56:49Z</time>
      </trkpt>
      <trkpt lat="40.724917" lon="-4.657067">
        <ele>2180.0</ele>
        <time>2014-06-30T14:56:50Z</time>
      </trkpt>
      <trkpt lat="40.724983" lon="-4.656900">
        <ele>2178.0</ele>
        <time>2014-06-30T14:56:51Z</time>
      </trkpt>
      <trkpt lat="40.725050" lon="-4.656733">
        <ele>2176.0</ele>
        <time>2014-06-30T14:56:52Z</time>
      </trkpt>
      <trkpt lat="40.725133" lon="-4.656567">
        <ele>2173.0</ele>
        <time>2014-06-30T14:56:53Z</time>
      </trkpt>
      <trkpt lat="40.725200" lon="-4.656400">
        <ele>2171.0</ele>
        <time>2014-06-30T14:56:54Z</time>
      </trkpt>
      <trkpt lat="40.725267" lon="-4.656233">
        <ele>2168.0</ele>
        <time>2014-06-30T14:56:55Z</time>
      </trkpt>
      <trkpt lat="40.725350" lon="-4.656067">
        <ele>2166.0</ele>
        <time>2014-06-30T14:56:56Z</time>
      </trkpt>
      <trkpt lat="40.725433" lon="-4.655900">
        <ele>2163.0</ele>
        <time>2014-06-30T14:56:57Z</time>
      </trkpt>
      <trkpt lat="40.725517" lon="-4.655733">
        <ele>2161.0</ele>
        <time>2014-06-30T14:56:58Z</time>
      </trkpt>
      <trkpt lat="40.725600" lon="-4.655567">
        <ele>2159.0</ele>
        <time>2014-06-30T14:56:59Z</time>
      </trkpt>
      <trkpt lat="40.725667" lon="-4.655417">
        <ele>2159.0</ele>
        <time>2014-06-30T14:57:00Z</time>
      </trkpt>
      <trkpt lat="40.725733" lon="-4.655267">
        <ele>2158.0</ele>
        <time>2014-06-30T14:57:01Z</time>
      </trkpt>
      <trkpt lat="40.725817" lon="-4.655133">
        <ele>2157.0</ele>
        <time>2014-06-30T14:57:02Z</time>
      </trkpt>
      <trkpt lat="40.725900" lon="-4.654983">
        <ele>2155.0</ele>
        <time>2014-06-30T14:57:03Z</time>
      </trkpt>
      <trkpt lat="40.725983" lon="-4.654833">
        <ele>2153.0</ele>
        <time>2014-06-30T14:57:04Z</time>
      </trkpt>
      <trkpt lat="40.726083" lon="-4.654683">
        <ele>2151.0</ele>
        <time>2014-06-30T14:57:05Z</time>
      </trkpt>
      <trkpt lat="40.726183" lon="-4.654517">
        <ele>2150.0</ele>
        <time>2014-06-30T14:57:06Z</time>
      </trkpt>
      <trkpt lat="40.726267" lon="-4.654367">
        <ele>2149.0</ele>
        <time>2014-06-30T14:57:07Z</time>
      </trkpt>
      <trkpt lat="40.726350" lon="-4.654200">
        <ele>2149.0</ele>
        <time>2014-06-30T14:57:08Z</time>
      </trkpt>
      <trkpt lat="40.726433" lon="-4.654050">
        <ele>2148.0</ele>
        <time>2014-06-30T14:57:09Z</time>
      </trkpt>
      <trkpt lat="40.726517" lon="-4.653900">
        <ele>2147.0</ele>
        <time>2014-06-30T14:57:10Z</time>
      </trkpt>
      <trkpt lat="40.726617" lon="-4.653733">
        <ele>2145.0</ele>
        <time>2014-06-30T14:57:11Z</time>
      </trkpt>
      <trkpt lat="40.726717" lon="-4.653583">
        <ele>2143.0</ele>
        <time>2014-06-30T14:57:12Z</time>
      </trkpt>
      <trkpt lat="40.726817" lon="-4.653433">
        <ele>2142.0</ele>
        <time>2014-06-30T14:57:13Z</time>
      </trkpt>
      <trkpt lat="40.726900" lon="-4.653267">
        <ele>2141.0</ele>
        <time>2014-06-30T14:57:14Z</time>
      </trkpt>
      <trkpt lat="40.727000" lon="-4.653100">
        <ele>2140.0</ele>
        <time>2014-06-30T14:57:15Z</time>
      </trkpt>
      <trkpt lat="40.727100" lon="-4.652950">
        <ele>2138.0</ele>
        <time>2014-06-30T14:57:16Z</time>
      </trkpt>
      <trkpt lat="40.727200" lon="-4.652817">
        <ele>2137.0</ele>
        <time>2014-06-30T14:57:17Z</time>
      </trkpt>
      <trkpt lat="40.727283" lon="-4.652667">
        <ele>2135.0</ele>
        <time>2014-06-30T14:57:18Z</time>
      </trkpt>
      <trkpt lat="40.727367" lon="-4.652517">
        <ele>2134.0</ele>
        <time>2014-06-30T14:57:19Z</time>
      </trkpt>
      <trkpt lat="40.727450" lon="-4.652367">
        <ele>2132.0</ele>
        <time>2014-06-30T14:57:20Z</time>
      </trkpt>
      <trkpt lat="40.727533" lon="-4.652200">
        <ele>2129.0</ele>
        <time>2014-06-30T14:57:21Z</time>
      </trkpt>
      <trkpt lat="40.727633" lon="-4.652033">
        <ele>2127.0</ele>
        <time>2014-06-30T14:57:22Z</time>
      </trkpt>
      <trkpt lat="40.727717" lon="-4.651883">
        <ele>2126.0</ele>
        <time>2014-06-30T14:57:23Z</time>
      </trkpt>
      <trkpt lat="40.727800" lon="-4.651733">
        <ele>2125.0</ele>
        <time>2014-06-30T14:57:24Z</time>
      </trkpt>
      <trkpt lat="40.727867" lon="-4.651600">
        <ele>2123.0</ele>
        <time>2014-06-30T14:57:25Z</time>
      </trkpt>
      <trkpt lat="40.727950" lon="-4.651467">
        <ele>2121.0</ele>
        <time>2014-06-30T14:57:26Z</time>
      </trkpt>
      <trkpt lat="40.728033" lon="-4.651317">
        <ele>2118.0</ele>
        <time>2014-06-30T14:57:27Z</time>
      </trkpt>
      <trkpt lat="40.728117" lon="-4.651183">
        <ele>2115.0</ele>
        <time>2014-06-30T14:57:28Z</time>
      </trkpt>
      <trkpt lat="40.728217" lon="-4.651033">
        <ele>2112.0</ele>
        <time>2014-06-30T14:57:29Z</time>
      </trkpt>
      <trkpt lat="40.728300" lon="-4.650883">
        <ele>2109.0</ele>
        <time>2014-06-30T14:57:30Z</time>
      </trkpt>
      <trkpt lat="40.728383" lon="-4.650733">
        <ele>2107.0</ele>
        <time>2014-06-30T14:57:31Z</time>
      </trkpt>
      <trkpt lat="40.728467" lon="-4.650583">
        <ele>2104.0</ele>
        <time>2014-06-30T14:57:32Z</time>
      </trkpt>
      <trkpt lat="40.728550" lon="-4.650450">
        <ele>2102.0</ele>
        <time>2014-06-30T14:57:33Z</time>
      </trkpt>
      <trkpt lat="40.728633" lon="-4.650300">
        <ele>2099.0</ele>
        <time>2014-06-30T14:57:34Z</time>
      </trkpt>
      <trkpt lat="40.728717" lon="-4.650150">
        <ele>2097.0</ele>
        <time>2014-06-30T14:57:35Z</time>
      </trkpt>
      <trkpt lat="40.728800" lon="-4.649983">
        <ele>2095.0</ele>
        <time>2014-06-30T14:57:36Z</time>
      </trkpt>
      <trkpt lat="40.728883" lon="-4.649833">
        <ele>2093.0</ele>
        <time>2014-06-30T14:57:37Z</time>
      </trkpt>
      <trkpt lat="40.728950" lon="-4.649683">
        <ele>2091.0</ele>
        <time>2014-06-30T14:57:38Z</time>
      </trkpt>
      <trkpt lat="40.729017" lon="-4.649533">
        <ele>2089.0</ele>
        <time>2014-06-30T14:57:39Z</time>
      </trkpt>
      <trkpt lat="40.729083" lon="-4.649350">
        <ele>2086.0</ele>
        <time>2014-06-30T14:57:40Z</time>
      </trkpt>
      <trkpt lat="40.729167" lon="-4.649183">
        <ele>2083.0</ele>
        <time>2014-06-30T14:57:41Z</time>
      </trkpt>
      <trkpt lat="40.729233" lon="-4.649017">
        <ele>2080.0</ele>
        <time>2014-06-30T14:57:42Z</time>
      </trkpt>
      <trkpt lat="40.729317" lon="-4.648833">
        <ele>2078.0</ele>
        <time>2014-06-30T14:57:43Z</time>
      </trkpt>
      <trkpt lat="40.729383" lon="-4.648667">
        <ele>2076.0</ele>
        <time>2014-06-30T14:57:44Z</time>
      </trkpt>
      <trkpt lat="40.729450" lon="-4.648500">
        <ele>2074.0</ele>
        <time>2014-06-30T14:57:45Z</time>
      </trkpt>
      <trkpt lat="40.729517" lon="-4.648333">
        <ele>2071.0</ele>
        <time>2014-06-30T14:57:46Z</time>
      </trkpt>
      <trkpt lat="40.729583" lon="-4.648150">
        <ele>2069.0</ele>
        <time>2014-06-30T14:57:47Z</time>
      </trkpt>
      <trkpt lat="40.729633" lon="-4.647967">
        <ele>2067.0</ele>
        <time>2014-06-30T14:57:48Z</time>
      </trkpt>
      <trkpt lat="40.729700" lon="-4.647800">
        <ele>2064.0</ele>
        <time>2014-06-30T14:57:49Z</time>
      </trkpt>
      <trkpt lat="40.729750" lon="-4.647617">
        <ele>2062.0</ele>
        <time>2014-06-30T14:57:50Z</time>
      </trkpt>
      <trkpt lat="40.729800" lon="-4.647450">
        <ele>2060.0</ele>
        <time>2014-06-30T14:57:51Z</time>
      </trkpt>
      <trkpt lat="40.729867" lon="-4.647283">
        <ele>2058.0</ele>
        <time>2014-06-30T14:57:52Z</time>
      </trkpt>
      <trkpt lat="40.729917" lon="-4.647117">
        <ele>2056.0</ele>
        <time>2014-06-30T14:57:53Z</time>
      </trkpt>
      <trkpt lat="40.729967" lon="-4.646933">
        <ele>2055.0</ele>
        <time>2014-06-30T14:57:54Z</time>
      </trkpt>
      <trkpt lat="40.730017" lon="-4.646767">
        <ele>2053.0</ele>
        <time>2014-06-30T14:57:55Z</time>
      </trkpt>
      <trkpt lat="40.730083" lon="-4.646583">
        <ele>2051.0</ele>
        <time>2014-06-30T14:57:56Z</time>
      </trkpt>
      <trkpt lat="40.730150" lon="-4.646400">
        <ele>2048.0</ele>
        <time>2014-06-30T14:57:57Z</time>
      </trkpt>
      <trkpt lat="40.730200" lon="-4.646217">
        <ele>2046.0</ele>
        <time>2014-06-30T14:57:58Z</time>
      </trkpt>
      <trkpt lat="40.730267" lon="-4.646033">
        <ele>2043.0</ele>
        <time>2014-06-30T14:57:59Z</time>
      </trkpt>
      <trkpt lat="40.730300" lon="-4.645850">
        <ele>2041.0</ele>
        <time>2014-06-30T14:58:00Z</time>
      </trkpt>
      <trkpt lat="40.730350" lon="-4.645667">
        <ele>2039.0</ele>
        <time>2014-06-30T14:58:01Z</time>
      </trkpt>
      <trkpt lat="40.730383" lon="-4.645500">
        <ele>2037.0</ele>
        <time>2014-06-30T14:58:02Z</time>
      </trkpt>
      <trkpt lat="40.730417" lon="-4.645333">
        <ele>2035.0</ele>
        <time>2014-06-30T14:58:03Z</time>
      </trkpt>
      <trkpt lat="40.730467" lon="-4.645167">
        <ele>2032.0</ele>
        <time>2014-06-30T14:58:04Z</time>
      </trkpt>
      <trkpt lat="40.730517" lon="-4.644983">
        <ele>2029.0</ele>
        <time>2014-06-30T14:58:05Z</time>
      </trkpt>
      <trkpt lat="40.730550" lon="-4.644800">
        <ele>2027.0</ele>
        <time>2014-06-30T14:58:06Z</time>
      </trkpt>
      <trkpt lat="40.730600" lon="-4.644617">
        <ele>2025.0</ele>
        <time>2014-06-30T14:58:07Z</time>
      </trkpt>
      <trkpt lat="40.730650" lon="-4.644433">
        <ele>2023.0</ele>
        <time>2014-06-30T14:58:08Z</time>
      </trkpt>
      <trkpt lat="40.730683" lon="-4.644267">
        <ele>2021.0</ele>
        <time>2014-06-30T14:58:09Z</time>
      </trkpt>
      <trkpt lat="40.730717" lon="-4.644117">
        <ele>2022.0</ele>
        <time>2014-06-30T14:58:10Z</time>
      </trkpt>
      <trkpt lat="40.730767" lon="-4.643983">
        <ele>2020.0</ele>
        <time>2014-06-30T14:58:11Z</time>
      </trkpt>
      <trkpt lat="40.730783" lon="-4.643833">
        <ele>2019.0</ele>
        <time>2014-06-30T14:58:12Z</time>
      </trkpt>
      <trkpt lat="40.730817" lon="-4.643683">
        <ele>2017.0</ele>
        <time>2014-06-30T14:58:13Z</time>
      </trkpt>
      <trkpt lat="40.730850" lon="-4.643517">
        <ele>2015.0</ele>
        <time>2014-06-30T14:58:14Z</time>
      </trkpt>
      <trkpt lat="40.730883" lon="-4.643350">
        <ele>2014.0</ele>
        <time>2014-06-30T14:58:15Z</time>
      </trkpt>
      <trkpt lat="40.730917" lon="-4.643200">
        <ele>2012.0</ele>
        <time>2014-06-30T14:58:16Z</time>
      </trkpt>
      <trkpt lat="40.730967" lon="-4.643033">
        <ele>2011.0</ele>
        <time>2014-06-30T14:58:17Z</time>
      </trkpt>
      <trkpt lat="40.731017" lon="-4.642883">
        <ele>2009.0</ele>
        <time>2014-06-30T14:58:18Z</time>
      </trkpt>
      <trkpt lat="40.731067" lon="-4.642733">
        <ele>2008.0</ele>
        <time>2014-06-30T14:58:19Z</time>
      </trkpt>
      <trkpt lat="40.731117" lon="-4.642567">
        <ele>2008.0</ele>
        <time>2014-06-30T14:58:20Z</time>
      </trkpt>
      <trkpt lat="40.731167" lon="-4.642417">
        <ele>2007.0</ele>
        <time>2014-06-30T14:58:21Z</time>
      </trkpt>
      <trkpt lat="40.731217" lon="-4.642250">
        <ele>2005.0</ele>
        <time>2014-06-30T14:58:22Z</time>
      </trkpt>
      <trkpt lat="40.731283" lon="-4.642100">
        <ele>2004.0</ele>
        <time>2014-06-30T14:58:23Z</time>
      </trkpt>
      <trkpt lat="40.731333" lon="-4.641917">
        <ele>2002.0</ele>
        <time>2014-06-30T14:58:24Z</time>
      </trkpt>
      <trkpt lat="40.731367" lon="-4.641733">
        <ele>2001.0</ele>
        <time>2014-06-30T14:58:25Z</time>
      </trkpt>
      <trkpt lat="40.731383" lon="-4.641567">
        <ele>2001.0</ele>
        <time>2014-06-30T14:58:26Z</time>
      </trkpt>
      <trkpt lat="40.731417" lon="-4.641400">
        <ele>2002.0</ele>
        <time>2014-06-30T14:58:27Z</time>
      </trkpt>
      <trkpt lat="40.731433" lon="-4.641233">
        <ele>2002.0</ele>
        <time>2014-06-30T14:58:28Z</time>
      </trkpt>
      <trkpt lat="40.731467" lon="-4.641083">
        <ele>2001.0</ele>
        <time>2014-06-30T14:58:29Z</time>
      </trkpt>
      <trkpt lat="40.731500" lon="-4.640933">
        <ele>2001.0</ele>
        <time>2014-06-30T14:58:30Z</time>
      </trkpt>
      <trkpt lat="40.731517" lon="-4.640767">
        <ele>2001.0</ele>
        <time>2014-06-30T14:58:31Z</time>
      </trkpt>
      <trkpt lat="40.731550" lon="-4.640617">
        <ele>2002.0</ele>
        <time>2014-06-30T14:58:32Z</time>
      </trkpt>
      <trkpt lat="40.731600" lon="-4.640450">
        <ele>2003.0</ele>
        <time>2014-06-30T14:58:33Z</time>
      </trkpt>
      <trkpt lat="40.731633" lon="-4.640300">
        <ele>2005.0</ele>
        <time>2014-06-30T14:58:34Z</time>
      </trkpt>
      <trkpt lat="40.731683" lon="-4.640133">
        <ele>2006.0</ele>
        <time>2014-06-30T14:58:35Z</time>
      </trkpt>
      <trkpt lat="40.731717" lon="-4.639967">
        <ele>2008.0</ele>
        <time>2014-06-30T14:58:36Z</time>
      </trkpt>
      <trkpt lat="40.731733" lon="-4.639817">
        <ele>2011.0</ele>
        <time>2014-06-30T14:58:37Z</time>
      </trkpt>
      <trkpt lat="40.731783" lon="-4.639650">
        <ele>2014.0</ele>
        <time>2014-06-30T14:58:38Z</time>
      </trkpt>
      <trkpt lat="40.731833" lon="-4.639500">
        <ele>2016.0</ele>
        <time>2014-06-30T14:58:39Z</time>
      </trkpt>
      <trkpt lat="40.731900" lon="-4.639367">
        <ele>2018.0</ele>
        <time>2014-06-30T14:58:40Z</time>
      </trkpt>
      <trkpt lat="40.731967" lon="-4.639217">
        <ele>2020.0</ele>
        <time>2014-06-30T14:58:41Z</time>
      </trkpt>
      <trkpt lat="40.732033" lon="-4.639067">
        <ele>2024.0</ele>
        <time>2014-06-30T14:58:42Z</time>
      </trkpt>
      <trkpt lat="40.732050" lon="-4.638900">
        <ele>2027.0</ele>
        <time>2014-06-30T14:58:43Z</time>
      </trkpt>
      <trkpt lat="40.732050" lon="-4.638733">
        <ele>2029.0</ele>
        <time>2014-06-30T14:58:44Z</time>
      </trkpt>
      <trkpt lat="40.732050" lon="-4.638567">
        <ele>2031.0</ele>
        <time>2014-06-30T14:58:45Z</time>
      </trkpt>
      <trkpt lat="40.732017" lon="-4.638400">
        <ele>2034.0</ele>
        <time>2014-06-30T14:58:46Z</time>
      </trkpt>
      <trkpt lat="40.731967" lon="-4.638267">
        <ele>2036.0</ele>
        <time>2014-06-30T14:58:47Z</time>
      </trkpt>
      <trkpt lat="40.731917" lon="-4.638150">
        <ele>2038.0</ele>
        <time>2014-06-30T14:58:48Z</time>
      </trkpt>
      <trkpt lat="40.731833" lon="-4.638033">
        <ele>2039.0</ele>
        <time>2014-06-30T14:58:49Z</time>
      </trkpt>
      <trkpt lat="40.731750" lon="-4.637933">
        <ele>2041.0</ele>
        <time>2014-06-30T14:58:50Z</time>
      </trkpt>
      <trkpt lat="40.731667" lon="-4.637817">
        <ele>2039.0</ele>
        <time>2014-06-30T14:58:51Z</time>
      </trkpt>
      <trkpt lat="40.731550" lon="-4.637750">
        <ele>2038.0</ele>
        <time>2014-06-30T14:58:52Z</time>
      </trkpt>
      <trkpt lat="40.731450" lon="-4.637717">
        <ele>2038.0</ele>
        <time>2014-06-30T14:58:53Z</time>
      </trkpt>
      <trkpt lat="40.731333" lon="-4.637717">
        <ele>2038.0</ele>
        <time>2014-06-30T14:58:54Z</time>
      </trkpt>
      <trkpt lat="40.731233" lon="-4.637750">
        <ele>2038.0</ele>
        <time>2014-06-30T14:58:55Z</time>
      </trkpt>
      <trkpt lat="40.731167" lon="-4.637800">
        <ele>2037.0</ele>
        <time>2014-06-30T14:58:56Z</time>
      </trkpt>
      <trkpt lat="40.731100" lon="-4.637833">
        <ele>2036.0</ele>
        <time>2014-06-30T14:58:57Z</time>
      </trkpt>
      <trkpt lat="40.731050" lon="-4.637883">
        <ele>2035.0</ele>
        <time>2014-06-30T14:58:58Z</time>
      </trkpt>
      <trkpt lat="40.731017" lon="-4.637950">
        <ele>2034.0</ele>
        <time>2014-06-30T14:58:59Z</time>
      </trkpt>
      <trkpt lat="40.731017" lon="-4.638017">
        <ele>2033.0</ele>
        <time>2014-06-30T14:59:00Z</time>
      </trkpt>
      <trkpt lat="40.731017" lon="-4.638083">
        <ele>2033.0</ele>
        <time>2014-06-30T14:59:01Z</time>
      </trkpt>
      <trkpt lat="40.731050" lon="-4.638117">
        <ele>2034.0</ele>
        <time>2014-06-30T14:59:02Z</time>
      </trkpt>
      <trkpt lat="40.731083" lon="-4.638150">
        <ele>2035.0</ele>
        <time>2014-06-30T14:59:03Z</time>
      </trkpt>
      <trkpt lat="40.731100" lon="-4.638183">
        <ele>2036.0</ele>
        <time>2014-06-30T14:59:04Z</time>
      </trkpt>
      <trkpt lat="40.731133" lon="-4.638217">
        <ele>2037.0</ele>
        <time>2014-06-30T14:59:05Z</time>
      </trkpt>
      <trkpt lat="40.731150" lon="-4.638250">
        <ele>2039.0</ele>
        <time>2014-06-30T14:59:06Z</time>
      </trkpt>
      <trkpt lat="40.731167" lon="-4.638283">
        <ele>2041.0</ele>
        <time>2014-06-30T14:59:07Z</time>
      </trkpt>
      <trkpt lat="40.731183" lon="-4.638300">
        <ele>2044.0</ele>
        <time>2014-06-30T14:59:08Z</time>
      </trkpt>
      <trkpt lat="40.731200" lon="-4.638333">
        <ele>2046.0</ele>
        <time>2014-06-30T14:59:09Z</time>
      </trkpt>
      <trkpt lat="40.731233" lon="-4.638350">
        <ele>2048.0</ele>
        <time>2014-06-30T14:59:10Z</time>
      </trkpt>
      <trkpt lat="40.731267" lon="-4.638383">
        <ele>2050.0</ele>
        <time>2014-06-30T14:59:11Z</time>
      </trkpt>
      <trkpt lat="40.731300" lon="-4.638417">
        <ele>2051.0</ele>
        <time>2014-06-30T14:59:12Z</time>
      </trkpt>
      <trkpt lat="40.731333" lon="-4.638450">
        <ele>2052.0</ele>
        <time>2014-06-30T14:59:13Z</time>
      </trkpt>
      <trkpt lat="40.731383" lon="-4.638450">
        <ele>2055.0</ele>
        <time>2014-06-30T14:59:14Z</time>
      </trkpt>
      <trkpt lat="40.731433" lon="-4.638433">
        <ele>2057.0</ele>
        <time>2014-06-30T14:59:15Z</time>
      </trkpt>
      <trkpt lat="40.731483" lon="-4.638417">
        <ele>2059.0</ele>
        <time>2014-06-30T14:59:16Z</time>
      </trkpt>
      <trkpt lat="40.731550" lon="-4.638400">
        <ele>2060.0</ele>
        <time>2014-06-30T14:59:17Z</time>
      </trkpt>
      <trkpt lat="40.731617" lon="-4.638400">
        <ele>2060.0</ele>
        <time>2014-06-30T14:59:18Z</time>
      </trkpt>
      <trkpt lat="40.731683" lon="-4.638400">
        <ele>2061.0</ele>
        <time>2014-06-30T14:59:19Z</time>
      </trkpt>
      <trkpt lat="40.731733" lon="-4.638400">
        <ele>2062.0</ele>
        <time>2014-06-30T14:59:20Z</time>
      </trkpt>
      <trkpt lat="40.731783" lon="-4.638417">
        <ele>2064.0</ele>
        <time>2014-06-30T14:59:21Z</time>
      </trkpt>
      <trkpt lat="40.731833" lon="-4.638433">
        <ele>2065.0</ele>
        <time>2014-06-30T14:59:22Z</time>
      </trkpt>
      <trkpt lat="40.731883" lon="-4.638467">
        <ele>2065.0</ele>
        <time>2014-06-30T14:59:23Z</time>
      </trkpt>
      <trkpt lat="40.731917" lon="-4.638517">
        <ele>2066.0</ele>
        <time>2014-06-30T14:59:24Z</time>
      </trkpt>
      <trkpt lat="40.731933" lon="-4.638583">
        <ele>2068.0</ele>
        <time>2014-06-30T14:59:25Z</time>
      </trkpt>
      <trkpt lat="40.731967" lon="-4.638633">
        <ele>2069.0</ele>
        <time>2014-06-30T14:59:26Z</time>
      </trkpt>
      <trkpt lat="40.732000" lon="-4.638683">
        <ele>2070.0</ele>
        <time>2014-06-30T14:59:27Z</time>
      </trkpt>
      <trkpt lat="40.732050" lon="-4.638700">
        <ele>2071.0</ele>
        <time>2014-06-30T14:59:28Z</time>
      </trkpt>
      <trkpt lat="40.732117" lon="-4.638700">
        <ele>2071.0</ele>
        <time>2014-06-30T14:59:29Z</time>
      </trkpt>
      <trkpt lat="40.732183" lon="-4.638700">
        <ele>2071.0</ele>
        <time>2014-06-30T14:59:30Z</time>
      </trkpt>
      <trkpt lat="40.732267" lon="-4.638683">
        <ele>2071.0</ele>
        <time>2014-06-30T14:59:31Z</time>
      </trkpt>
      <trkpt lat="40.732333" lon="-4.638667">
        <ele>2071.0</ele>
        <time>2014-06-30T14:59:32Z</time>
      </trkpt>
      <trkpt lat="40.732417" lon="-4.638650">
        <ele>2071.0</ele>
        <time>2014-06-30T14:59:33Z</time>
      </trkpt>
      <trkpt lat="40.732483" lon="-4.638617">
        <ele>2072.0</ele>
        <time>2014-06-30T14:59:34Z</time>
      </trkpt>
      <trkpt lat="40.732550" lon="-4.638583">
        <ele>2072.0</ele>
        <time>2014-06-30T14:59:35Z</time>
      </trkpt>
      <trkpt lat="40.732633" lon="-4.638550">
        <ele>2072.0</ele>
        <time>2014-06-30T14:59:36Z</time>
      </trkpt>
      <trkpt lat="40.732717" lon="-4.638500">
        <ele>2072.0</ele>
        <time>2014-06-30T14:59:37Z</time>
      </trkpt>
      <trkpt lat="40.732817" lon="-4.638450">
        <ele>2073.0</ele>
        <time>2014-06-30T14:59:38Z</time>
      </trkpt>
      <trkpt lat="40.732900" lon="-4.638367">
        <ele>2073.0</ele>
        <time>2014-06-30T14:59:39Z</time>
      </trkpt>
      <trkpt lat="40.732967" lon="-4.638283">
        <ele>2073.0</ele>
        <time>2014-06-30T14:59:40Z</time>
      </trkpt>
      <trkpt lat="40.733050" lon="-4.638167">
        <ele>2072.0</ele>
        <time>2014-06-30T14:59:41Z</time>
      </trkpt>
      <trkpt lat="40.733133" lon="-4.638050">
        <ele>2072.0</ele>
        <time>2014-06-30T14:59:42Z</time>
      </trkpt>
      <trkpt lat="40.733217" lon="-4.637933">
        <ele>2072.0</ele>
        <time>2014-06-30T14:59:43Z</time>
      </trkpt>
      <trkpt lat="40.733283" lon="-4.637833">
        <ele>2072.0</ele>
        <time>2014-06-30T14:59:44Z</time>
      </trkpt>
      <trkpt lat="40.733350" lon="-4.637717">
        <ele>2073.0</ele>
        <time>2014-06-30T14:59:45Z</time>
      </trkpt>
      <trkpt lat="40.733417" lon="-4.637600">
        <ele>2072.0</ele>
        <time>2014-06-30T14:59:46Z</time>
      </trkpt>
      <trkpt lat="40.733500" lon="-4.637483">
        <ele>2072.0</ele>
        <time>2014-06-30T14:59:47Z</time>
      </trkpt>
      <trkpt lat="40.733583" lon="-4.637367">
        <ele>2072.0</ele>
        <time>2014-06-30T14:59:48Z</time>
      </trkpt>
      <trkpt lat="40.733667" lon="-4.637267">
        <ele>2072.0</ele>
        <time>2014-06-30T14:59:49Z</time>
      </trkpt>
      <trkpt lat="40.733750" lon="-4.637167">
        <ele>2072.0</ele>
        <time>2014-06-30T14:59:50Z</time>
      </trkpt>
      <trkpt lat="40.733817" lon="-4.637067">
        <ele>2072.0</ele>
        <time>2014-06-30T14:59:51Z</time>
      </trkpt>
      <trkpt lat="40.733900" lon="-4.636983">
        <ele>2072.0</ele>
        <time>2014-06-30T14:59:52Z</time>
      </trkpt>
      <trkpt lat="40.733983" lon="-4.636883">
        <ele>2071.0</ele>
        <time>2014-06-30T14:59:53Z</time>
      </trkpt>
      <trkpt lat="40.734050" lon="-4.636783">
        <ele>2071.0</ele>
        <time>2014-06-30T14:59:54Z</time>
      </trkpt>
      <trkpt lat="40.734133" lon="-4.636667">
        <ele>2070.0</ele>
        <time>2014-06-30T14:59:55Z</time>
      </trkpt>
      <trkpt lat="40.734200" lon="-4.636550">
        <ele>2069.0</ele>
        <time>2014-06-30T14:59:56Z</time>
      </trkpt>
      <trkpt lat="40.734267" lon="-4.636417">
        <ele>2068.0</ele>
        <time>2014-06-30T14:59:57Z</time>
      </trkpt>
      <trkpt lat="40.734317" lon="-4.636300">
        <ele>2067.0</ele>
        <time>2014-06-30T14:59:58Z</time>
      </trkpt>
      <trkpt lat="40.734350" lon="-4.636167">
        <ele>2066.0</ele>
        <time>2014-06-30T14:59:59Z</time>
      </trkpt>
      <trkpt lat="40.734400" lon="-4.636050">
        <ele>2064.0</ele>
        <time>2014-06-30T15:00:00Z</time>
      </trkpt>
      <trkpt lat="40.734450" lon="-4.635917">
        <ele>2062.0</ele>
        <time>2014-06-30T15:00:01Z</time>
      </trkpt>
      <trkpt lat="40.734517" lon="-4.635800">
        <ele>2060.0</ele>
        <time>2014-06-30T15:00:02Z</time>
      </trkpt>
      <trkpt lat="40.734567" lon="-4.635667">
        <ele>2056.0</ele>
        <time>2014-06-30T15:00:03Z</time>
      </trkpt>
      <trkpt lat="40.734600" lon="-4.635517">
        <ele>2054.0</ele>
        <time>2014-06-30T15:00:04Z</time>
      </trkpt>
      <trkpt lat="40.734633" lon="-4.635383">
        <ele>2051.0</ele>
        <time>2014-06-30T15:00:05Z</time>
      </trkpt>
      <trkpt lat="40.734667" lon="-4.635217">
        <ele>2047.0</ele>
        <time>2014-06-30T15:00:06Z</time>
      </trkpt>
      <trkpt lat="40.734700" lon="-4.635067">
        <ele>2044.0</ele>
        <time>2014-06-30T15:00:07Z</time>
      </trkpt>
      <trkpt lat="40.734733" lon="-4.634900">
        <ele>2041.0</ele>
        <time>2014-06-30T15:00:08Z</time>
      </trkpt>
      <trkpt lat="40.734750" lon="-4.634750">
        <ele>2038.0</ele>
        <time>2014-06-30T15:00:09Z</time>
      </trkpt>
      <trkpt lat="40.734750" lon="-4.634617">
        <ele>2035.0</ele>
        <time>2014-06-30T15:00:10Z</time>
      </trkpt>
      <trkpt lat="40.734767" lon="-4.634467">
        <ele>2032.0</ele>
        <time>2014-06-30T15:00:11Z</time>
      </trkpt>
      <trkpt lat="40.734767" lon="-4.634317">
        <ele>2029.0</ele>
        <time>2014-06-30T15:00:12Z</time>
      </trkpt>
      <trkpt lat="40.734750" lon="-4.634167">
        <ele>2023.0</ele>
        <time>2014-06-30T15:00:13Z</time>
      </trkpt>
      <trkpt lat="40.734750" lon="-4.634000">
        <ele>2018.0</ele>
        <time>2014-06-30T15:00:14Z</time>
      </trkpt>
      <trkpt lat="40.734767" lon="-4.633833">
        <ele>2014.0</ele>
        <time>2014-06-30T15:00:15Z</time>
      </trkpt>
      <trkpt lat="40.734767" lon="-4.633700">
        <ele>2010.0</ele>
        <time>2014-06-30T15:00:16Z</time>
      </trkpt>
      <trkpt lat="40.734767" lon="-4.633550">
        <ele>2006.0</ele>
        <time>2014-06-30T15:00:17Z</time>
      </trkpt>
      <trkpt lat="40.734783" lon="-4.633400">
        <ele>2003.0</ele>
        <time>2014-06-30T15:00:18Z</time>
      </trkpt>
      <trkpt lat="40.734800" lon="-4.633267">
        <ele>1998.0</ele>
        <time>2014-06-30T15:00:19Z</time>
      </trkpt>
      <trkpt lat="40.734833" lon="-4.633117">
        <ele>1994.0</ele>
        <time>2014-06-30T15:00:20Z</time>
      </trkpt>
      <trkpt lat="40.734867" lon="-4.632967">
        <ele>1989.0</ele>
        <time>2014-06-30T15:00:21Z</time>
      </trkpt>
      <trkpt lat="40.734900" lon="-4.632817">
        <ele>1984.0</ele>
        <time>2014-06-30T15:00:22Z</time>
      </trkpt>
      <trkpt lat="40.734950" lon="-4.632650">
        <ele>1980.0</ele>
        <time>2014-06-30T15:00:23Z</time>
      </trkpt>
      <trkpt lat="40.735000" lon="-4.632483">
        <ele>1977.0</ele>
        <time>2014-06-30T15:00:24Z</time>
      </trkpt>
      <trkpt lat="40.735050" lon="-4.632333">
        <ele>1974.0</ele>
        <time>2014-06-30T15:00:25Z</time>
      </trkpt>
      <trkpt lat="40.735083" lon="-4.632150">
        <ele>1971.0</ele>
        <time>2014-06-30T15:00:26Z</time>
      </trkpt>
      <trkpt lat="40.735100" lon="-4.631983">
        <ele>1969.0</ele>
        <time>2014-06-30T15:00:27Z</time>
      </trkpt>
      <trkpt lat="40.735117" lon="-4.631833">
        <ele>1969.0</ele>
        <time>2014-06-30T15:00:28Z</time>
      </trkpt>
      <trkpt lat="40.735150" lon="-4.631667">
        <ele>1968.0</ele>
        <time>2014-06-30T15:00:29Z</time>
      </trkpt>
      <trkpt lat="40.735167" lon="-4.631500">
        <ele>1968.0</ele>
        <time>2014-06-30T15:00:30Z</time>
      </trkpt>
      <trkpt lat="40.735217" lon="-4.631333">
        <ele>1968.0</ele>
        <time>2014-06-30T15:00:31Z</time>
      </trkpt>
      <trkpt lat="40.735250" lon="-4.631183">
        <ele>1968.0</ele>
        <time>2014-06-30T15:00:32Z</time>
      </trkpt>
      <trkpt lat="40.735300" lon="-4.631017">
        <ele>1968.0</ele>
        <time>2014-06-30T15:00:33Z</time>
      </trkpt>
      <trkpt lat="40.735333" lon="-4.630867">
        <ele>1970.0</ele>
        <time>2014-06-30T15:00:34Z</time>
      </trkpt>
      <trkpt lat="40.735367" lon="-4.630700">
        <ele>1971.0</ele>
        <time>2014-06-30T15:00:35Z</time>
      </trkpt>
      <trkpt lat="40.735400" lon="-4.630550">
        <ele>1974.0</ele>
        <time>2014-06-30T15:00:36Z</time>
      </trkpt>
      <trkpt lat="40.735417" lon="-4.630417">
        <ele>1977.0</ele>
        <time>2014-06-30T15:00:37Z</time>
      </trkpt>
      <trkpt lat="40.735433" lon="-4.630283">
        <ele>1980.0</ele>
        <time>2014-06-30T15:00:38Z</time>
      </trkpt>
      <trkpt lat="40.735450" lon="-4.630150">
        <ele>1983.0</ele>
        <time>2014-06-30T15:00:39Z</time>
      </trkpt>
      <trkpt lat="40.735467" lon="-4.630017">
        <ele>1985.0</ele>
        <time>2014-06-30T15:00:40Z</time>
      </trkpt>
      <trkpt lat="40.735500" lon="-4.629883">
        <ele>1987.0</ele>
        <time>2014-06-30T15:00:41Z</time>
      </trkpt>
      <trkpt lat="40.735533" lon="-4.629733">
        <ele>1989.0</ele>
        <time>2014-06-30T15:00:42Z</time>
      </trkpt>
      <trkpt lat="40.735583" lon="-4.629567">
        <ele>1991.0</ele>
        <time>2014-06-30T15:00:43Z</time>
      </trkpt>
      <trkpt lat="40.735633" lon="-4.629417">
        <ele>1992.0</ele>
        <time>2014-06-30T15:00:44Z</time>
      </trkpt>
      <trkpt lat="40.735683" lon="-4.629250">
        <ele>1994.0</ele>
        <time>2014-06-30T15:00:45Z</time>
      </trkpt>
      <trkpt lat="40.735700" lon="-4.629100">
        <ele>1996.0</ele>
        <time>2014-06-30T15:00:46Z</time>
      </trkpt>
      <trkpt lat="40.735717" lon="-4.628950">
        <ele>1999.0</ele>
        <time>2014-06-30T15:00:47Z</time>
      </trkpt>
      <trkpt lat="40.735717" lon="-4.628800">
        <ele>2002.0</ele>
        <time>2014-06-30T15:00:48Z</time>
      </trkpt>
      <trkpt lat="40.735717" lon="-4.628650">
        <ele>2004.0</ele>
        <time>2014-06-30T15:00:49Z</time>
      </trkpt>
      <trkpt lat="40.735733" lon="-4.628500">
        <ele>2006.0</ele>
        <time>2014-06-30T15:00:50Z</time>
      </trkpt>
      <trkpt lat="40.735767" lon="-4.628333">
        <ele>2007.0</ele>
        <time>2014-06-30T15:00:51Z</time>
      </trkpt>
      <trkpt lat="40.735783" lon="-4.628183">
        <ele>2008.0</ele>
        <time>2014-06-30T15:00:52Z</time>
      </trkpt>
      <trkpt lat="40.735783" lon="-4.628017">
        <ele>2010.0</ele>
        <time>2014-06-30T15:00:53Z</time>
      </trkpt>
      <trkpt lat="40.735783" lon="-4.627833">
        <ele>2011.0</ele>
        <time>2014-06-30T15:00:54Z</time>
      </trkpt>
      <trkpt lat="40.735750" lon="-4.627667">
        <ele>2013.0</ele>
        <time>2014-06-30T15:00:55Z</time>
      </trkpt>
      <trkpt lat="40.735700" lon="-4.627517">
        <ele>2015.0</ele>
        <time>2014-06-30T15:00:56Z</time>
      </trkpt>
      <trkpt lat="40.735633" lon="-4.627367">
        <ele>2017.0</ele>
        <time>2014-06-30T15:00:57Z</time>
      </trkpt>
      <trkpt lat="40.735567" lon="-4.627250">
        <ele>2019.0</ele>
        <time>2014-06-30T15:00:58Z</time>
      </trkpt>
      <trkpt lat="40.735483" lon="-4.627133">
        <ele>2022.0</ele>
        <time>2014-06-30T15:00:59Z</time>
      </trkpt>
      <trkpt lat="40.735400" lon="-4.627033">
        <ele>2024.0</ele>
        <time>2014-06-30T15:01:00Z</time>
      </trkpt>
      <trkpt lat="40.735317" lon="-4.626933">
        <ele>2026.0</ele>
        <time>2014-06-30T15:01:01Z</time>
      </trkpt>
      <trkpt lat="40.735250" lon="-4.626817">
        <ele>2028.0</ele>
        <time>2014-06-30T15:01:02Z</time>
      </trkpt>
      <trkpt lat="40.735167" lon="-4.626700">
        <ele>2030.0</ele>
        <time>2014-06-30T15:01:03Z</time>
      </trkpt>
      <trkpt lat="40.735083" lon="-4.626600">
        <ele>2032.0</ele>
        <time>2014-06-30T15:01:04Z</time>
      </trkpt>
      <trkpt lat="40.735000" lon="-4.626500">
        <ele>2034.0</ele>
        <time>2014-06-30T15:01:05Z</time>
      </trkpt>
      <trkpt lat="40.734917" lon="-4.626417">
        <ele>2035.0</ele>
        <time>2014-06-30T15:01:06Z</time>
      </trkpt>
      <trkpt lat="40.734817" lon="-4.626350">
        <ele>2036.0</ele>
        <time>2014-06-30T15:01:07Z</time>
      </trkpt>
      <trkpt lat="40.734700" lon="-4.626300">
        <ele>2037.0</ele>
        <time>2014-06-30T15:01:08Z</time>
      </trkpt>
      <trkpt lat="40.734600" lon="-4.626267">
        <ele>2039.0</ele>
        <time>2014-06-30T15:01:09Z</time>
      </trkpt>
      <trkpt lat="40.734500" lon="-4.626250">
        <ele>2041.0</ele>
        <time>2014-06-30T15:01:10Z</time>
      </trkpt>
      <trkpt lat="40.734400" lon="-4.626250">
        <ele>2043.0</ele>
        <time>2014-06-30T15:01:11Z</time>
      </trkpt>
      <trkpt lat="40.734333" lon="-4.626250">
        <ele>2046.0</ele>
        <time>2014-06-30T15:01:12Z</time>
      </trkpt>
      <trkpt lat="40.734283" lon="-4.626267">
        <ele>2048.0</ele>
        <time>2014-06-30T15:01:13Z</time>
      </trkpt>
      <trkpt lat="40.734233" lon="-4.626300">
        <ele>2050.0</ele>
        <time>2014-06-30T15:01:14Z</time>
      </trkpt>
      <trkpt lat="40.734200" lon="-4.626350">
        <ele>2053.0</ele>
        <time>2014-06-30T15:01:15Z</time>
      </trkpt>
      <trkpt lat="40.734183" lon="-4.626400">
        <ele>2055.0</ele>
        <time>2014-06-30T15:01:16Z</time>
      </trkpt>
      <trkpt lat="40.734183" lon="-4.626450">
        <ele>2058.0</ele>
        <time>2014-06-30T15:01:17Z</time>
      </trkpt>
      <trkpt lat="40.734200" lon="-4.626517">
        <ele>2060.0</ele>
        <time>2014-06-30T15:01:18Z</time>
      </trkpt>
      <trkpt lat="40.734217" lon="-4.626600">
        <ele>2060.0</ele>
        <time>2014-06-30T15:01:19Z</time>
      </trkpt>
      <trkpt lat="40.734267" lon="-4.626683">
        <ele>2061.0</ele>
        <time>2014-06-30T15:01:20Z</time>
      </trkpt>
      <trkpt lat="40.734350" lon="-4.626717">
        <ele>2060.0</ele>
        <time>2014-06-30T15:01:21Z</time>
      </trkpt>
      <trkpt lat="40.734450" lon="-4.626750">
        <ele>2060.0</ele>
        <time>2014-06-30T15:01:22Z</time>
      </trkpt>
      <trkpt lat="40.734550" lon="-4.626750">
        <ele>2060.0</ele>
        <time>2014-06-30T15:01:23Z</time>
      </trkpt>
      <trkpt lat="40.734667" lon="-4.626717">
        <ele>2061.0</ele>
        <time>2014-06-30T15:01:24Z</time>
      </trkpt>
      <trkpt lat="40.734767" lon="-4.626667">
        <ele>2061.0</ele>
        <time>2014-06-30T15:01:25Z</time>
      </trkpt>
      <trkpt lat="40.734867" lon="-4.626617">
        <ele>2062.0</ele>
        <time>2014-06-30T15:01:26Z</time>
      </trkpt>
      <trkpt lat="40.734967" lon="-4.626567">
        <ele>2063.0</ele>
        <time>2014-06-30T15:01:27Z</time>
      </trkpt>
      <trkpt lat="40.735083" lon="-4.626483">
        <ele>2064.0</ele>
        <time>2014-06-30T15:01:28Z</time>
      </trkpt>
      <trkpt lat="40.735183" lon="-4.626400">
        <ele>2065.0</ele>
        <time>2014-06-30T15:01:29Z</time>
      </trkpt>
      <trkpt lat="40.735283" lon="-4.626300">
        <ele>2066.0</ele>
        <time>2014-06-30T15:01:30Z</time>
      </trkpt>
      <trkpt lat="40.735383" lon="-4.626183">
        <ele>2068.0</ele>
        <time>2014-06-30T15:01:31Z</time>
      </trkpt>
      <trkpt lat="40.735467" lon="-4.626067">
        <ele>2071.0</ele>
        <time>2014-06-30T15:01:32Z</time>
      </trkpt>
      <trkpt lat="40.735533" lon="-4.625967">
        <ele>2073.0</ele>
        <time>2014-06-30T15:01:33Z</time>
      </trkpt>
      <trkpt lat="40.735600" lon="-4.625883">
        <ele>2075.0</ele>
        <time>2014-06-30T15:01:34Z</time>
      </trkpt>
      <trkpt lat="40.735683" lon="-4.625800">
        <ele>2078.0</ele>
        <time>2014-06-30T15:01:35Z</time>
      </trkpt>
      <trkpt lat="40.735750" lon="-4.625717">
        <ele>2080.0</ele>
        <time>2014-06-30T15:01:36Z</time>
      </trkpt>
      <trkpt lat="40.735817" lon="-4.625633">
        <ele>2081.0</ele>
        <time>2014-06-30T15:01:37Z</time>
      </trkpt>
      <trkpt lat="40.735883" lon="-4.625517">
        <ele>2081.0</ele>
        <time>2014-06-30T15:01:38Z</time>
      </trkpt>
      <trkpt lat="40.735950" lon="-4.625383">
        <ele>2082.0</ele>
        <time>2014-06-30T15:01:39Z</time>
      </trkpt>
      <trkpt lat="40.736000" lon="-4.625233">
        <ele>2083.0</ele>
        <time>2014-06-30T15:01:40Z</time>
      </trkpt>
      <trkpt lat="40.736033" lon="-4.625083">
        <ele>2085.0</ele>
        <time>2014-06-30T15:01:41Z</time>
      </trkpt>
      <trkpt lat="40.736067" lon="-4.624933">
        <ele>2087.0</ele>
        <time>2014-06-30T15:01:42Z</time>
      </trkpt>
      <trkpt lat="40.736083" lon="-4.624783">
        <ele>2088.0</ele>
        <time>2014-06-30T15:01:43Z</time>
      </trkpt>
      <trkpt lat="40.736100" lon="-4.624633">
        <ele>2090.0</ele>
        <time>2014-06-30T15:01:44Z</time>
      </trkpt>
      <trkpt lat="40.736100" lon="-4.624483">
        <ele>2092.0</ele>
        <time>2014-06-30T15:01:45Z</time>
      </trkpt>
      <trkpt lat="40.736083" lon="-4.624317">
        <ele>2093.0</ele>
        <time>2014-06-30T15:01:46Z</time>
      </trkpt>
      <trkpt lat="40.736050" lon="-4.624167">
        <ele>2096.0</ele>
        <time>2014-06-30T15:01:47Z</time>
      </trkpt>
      <trkpt lat="40.736000" lon="-4.624033">
        <ele>2098.0</ele>
        <time>2014-06-30T15:01:48Z</time>
      </trkpt>
      <trkpt lat="40.735933" lon="-4.623917">
        <ele>2101.0</ele>
        <time>2014-06-30T15:01:49Z</time>
      </trkpt>
      <trkpt lat="40.735850" lon="-4.623817">
        <ele>2103.0</ele>
        <time>2014-06-30T15:01:50Z</time>
      </trkpt>
      <trkpt lat="40.735750" lon="-4.623733">
        <ele>2106.0</ele>
        <time>2014-06-30T15:01:51Z</time>
      </trkpt>
      <trkpt lat="40.735650" lon="-4.623683">
        <ele>2108.0</ele>
        <time>2014-06-30T15:01:52Z</time>
      </trkpt>
      <trkpt lat="40.735550" lon="-4.623617">
        <ele>2111.0</ele>
        <time>2014-06-30T15:01:53Z</time>
      </trkpt>
      <trkpt lat="40.735467" lon="-4.623583">
        <ele>2113.0</ele>
        <time>2014-06-30T15:01:54Z</time>
      </trkpt>
      <trkpt lat="40.735367" lon="-4.623550">
        <ele>2116.0</ele>
        <time>2014-06-30T15:01:55Z</time>
      </trkpt>
      <trkpt lat="40.735267" lon="-4.623533">
        <ele>2118.0</ele>
        <time>2014-06-30T15:01:56Z</time>
      </trkpt>
      <trkpt lat="40.735167" lon="-4.623517">
        <ele>2120.0</ele>
        <time>2014-06-30T15:01:57Z</time>
      </trkpt>
      <trkpt lat="40.735100" lon="-4.623500">
        <ele>2123.0</ele>
        <time>2014-06-30T15:01:58Z</time>
      </trkpt>
      <trkpt lat="40.735033" lon="-4.623500">
        <ele>2125.0</ele>
        <time>2014-06-30T15:01:59Z</time>
      </trkpt>
      <trkpt lat="40.734983" lon="-4.623533">
        <ele>2127.0</ele>
        <time>2014-06-30T15:02:00Z</time>
      </trkpt>
      <trkpt lat="40.734933" lon="-4.623567">
        <ele>2129.0</ele>
        <time>2014-06-30T15:02:01Z</time>
      </trkpt>
      <trkpt lat="40.734900" lon="-4.623617">
        <ele>2130.0</ele>
        <time>2014-06-30T15:02:02Z</time>
      </trkpt>
      <trkpt lat="40.734883" lon="-4.623650">
        <ele>2133.0</ele>
        <time>2014-06-30T15:02:03Z</time>
      </trkpt>
      <trkpt lat="40.734867" lon="-4.623717">
        <ele>2135.0</ele>
        <time>2014-06-30T15:02:04Z</time>
      </trkpt>
      <trkpt lat="40.734867" lon="-4.623767">
        <ele>2137.0</ele>
        <time>2014-06-30T15:02:05Z</time>
      </trkpt>
      <trkpt lat="40.734883" lon="-4.623817">
        <ele>2139.0</ele>
        <time>2014-06-30T15:02:06Z</time>
      </trkpt>
      <trkpt lat="40.734917" lon="-4.623867">
        <ele>2142.0</ele>
        <time>2014-06-30T15:02:07Z</time>
      </trkpt>
      <trkpt lat="40.734967" lon="-4.623900">
        <ele>2144.0</ele>
        <time>2014-06-30T15:02:08Z</time>
      </trkpt>
      <trkpt lat="40.735017" lon="-4.623933">
        <ele>2146.0</ele>
        <time>2014-06-30T15:02:09Z</time>
      </trkpt>
      <trkpt lat="40.735067" lon="-4.624000">
        <ele>2146.0</ele>
        <time>2014-06-30T15:02:10Z</time>
      </trkpt>
      <trkpt lat="40.735117" lon="-4.624050">
        <ele>2148.0</ele>
        <time>2014-06-30T15:02:11Z</time>
      </trkpt>
      <trkpt lat="40.735183" lon="-4.624100">
        <ele>2150.0</ele>
        <time>2014-06-30T15:02:12Z</time>
      </trkpt>
      <trkpt lat="40.735267" lon="-4.624117">
        <ele>2153.0</ele>
        <time>2014-06-30T15:02:13Z</time>
      </trkpt>
      <trkpt lat="40.735350" lon="-4.624117">
        <ele>2156.0</ele>
        <time>2014-06-30T15:02:14Z</time>
      </trkpt>
      <trkpt lat="40.735433" lon="-4.624100">
        <ele>2158.0</ele>
        <time>2014-06-30T15:02:15Z</time>
      </trkpt>
      <trkpt lat="40.735533" lon="-4.624067">
        <ele>2160.0</ele>
        <time>2014-06-30T15:02:16Z</time>
      </trkpt>
      <trkpt lat="40.735633" lon="-4.624017">
        <ele>2162.0</ele>
        <time>2014-06-30T15:02:17Z</time>
      </trkpt>
      <trkpt lat="40.735733" lon="-4.623950">
        <ele>2164.0</ele>
        <time>2014-06-30T15:02:18Z</time>
      </trkpt>
      <trkpt lat="40.735817" lon="-4.623867">
        <ele>2166.0</ele>
        <time>2014-06-30T15:02:19Z</time>
      </trkpt>
      <trkpt lat="40.735900" lon="-4.623783">
        <ele>2169.0</ele>
        <time>2014-06-30T15:02:20Z</time>
      </trkpt>
      <trkpt lat="40.735967" lon="-4.623683">
        <ele>2171.0</ele>
        <time>2014-06-30T15:02:21Z</time>
      </trkpt>
      <trkpt lat="40.736050" lon="-4.623567">
        <ele>2173.0</ele>
        <time>2014-06-30T15:02:22Z</time>
      </trkpt>
      <trkpt lat="40.736117" lon="-4.623450">
        <ele>2175.0</ele>
        <time>2014-06-30T15:02:23Z</time>
      </trkpt>
      <trkpt lat="40.736183" lon="-4.623317">
        <ele>2177.0</ele>
        <time>2014-06-30T15:02:24Z</time>
      </trkpt>
      <trkpt lat="40.736250" lon="-4.623183">
        <ele>2180.0</ele>
        <time>2014-06-30T15:02:25Z</time>
      </trkpt>
      <trkpt lat="40.736283" lon="-4.623050">
        <ele>2182.0</ele>
        <time>2014-06-30T15:02:26Z</time>
      </trkpt>
      <trkpt lat="40.736317" lon="-4.622900">
        <ele>2183.0</ele>
        <time>2014-06-30T15:02:27Z</time>
      </trkpt>
      <trkpt lat="40.736333" lon="-4.622750">
        <ele>2185.0</ele>
        <time>2014-06-30T15:02:28Z</time>
      </trkpt>
      <trkpt lat="40.736333" lon="-4.622583">
        <ele>2187.0</ele>
        <time>2014-06-30T15:02:29Z</time>
      </trkpt>
      <trkpt lat="40.736317" lon="-4.622400">
        <ele>2189.0</ele>
        <time>2014-06-30T15:02:30Z</time>
      </trkpt>
      <trkpt lat="40.736283" lon="-4.622233">
        <ele>2191.0</ele>
        <time>2014-06-30T15:02:31Z</time>
      </trkpt>
      <trkpt lat="40.736250" lon="-4.622067">
        <ele>2193.0</ele>
        <time>2014-06-30T15:02:32Z</time>
      </trkpt>
      <trkpt lat="40.736183" lon="-4.621917">
        <ele>2195.0</ele>
        <time>2014-06-30T15:02:33Z</time>
      </trkpt>
      <trkpt lat="40.736100" lon="-4.621767">
        <ele>2199.0</ele>
        <time>2014-06-30T15:02:34Z</time>
      </trkpt>
      <trkpt lat="40.736017" lon="-4.621633">
        <ele>2202.0</ele>
        <time>2014-06-30T15:02:35Z</time>
      </trkpt>
      <trkpt lat="40.735917" lon="-4.621517">
        <ele>2205.0</ele>
        <time>2014-06-30T15:02:36Z</time>
      </trkpt>
      <trkpt lat="40.735800" lon="-4.621433">
        <ele>2209.0</ele>
        <time>2014-06-30T15:02:37Z</time>
      </trkpt>
      <trkpt lat="40.735700" lon="-4.621367">
        <ele>2213.0</ele>
        <time>2014-06-30T15:02:38Z</time>
      </trkpt>
      <trkpt lat="40.735600" lon="-4.621317">
        <ele>2218.0</ele>
        <time>2014-06-30T15:02:39Z</time>
      </trkpt>
      <trkpt lat="40.735517" lon="-4.621300">
        <ele>2222.0</ele>
        <time>2014-06-30T15:02:40Z</time>
      </trkpt>
      <trkpt lat="40.735417" lon="-4.621317">
        <ele>2225.0</ele>
        <time>2014-06-30T15:02:41Z</time>
      </trkpt>
      <trkpt lat="40.735333" lon="-4.621350">
        <ele>2228.0</ele>
        <time>2014-06-30T15:02:42Z</time>
      </trkpt>
      <trkpt lat="40.735267" lon="-4.621383">
        <ele>2231.0</ele>
        <time>2014-06-30T15:02:43Z</time>
      </trkpt>
      <trkpt lat="40.735217" lon="-4.621367">
        <ele>2236.0</ele>
        <time>2014-06-30T15:02:44Z</time>
      </trkpt>
      <trkpt lat="40.735217" lon="-4.621383">
        <ele>2225.0</ele>
        <time>2014-06-30T15:02:45Z</time>
      </trkpt>
      <trkpt lat="40.735200" lon="-4.621400">
        <ele>2227.0</ele>
        <time>2014-06-30T15:02:46Z</time>
      </trkpt>
      <trkpt lat="40.735217" lon="-4.621433">
        <ele>2228.0</ele>
        <time>2014-06-30T15:02:47Z</time>
      </trkpt>
      <trkpt lat="40.735217" lon="-4.621483">
        <ele>2231.0</ele>
        <time>2014-06-30T15:02:48Z</time>
      </trkpt>
      <trkpt lat="40.735233" lon="-4.621533">
        <ele>2233.0</ele>
        <time>2014-06-30T15:02:49Z</time>
      </trkpt>
      <trkpt lat="40.735250" lon="-4.621600">
        <ele>2236.0</ele>
        <time>2014-06-30T15:02:50Z</time>
      </trkpt>
      <trkpt lat="40.735283" lon="-4.621667">
        <ele>2239.0</ele>
        <time>2014-06-30T15:02:51Z</time>
      </trkpt>
      <trkpt lat="40.735350" lon="-4.621717">
        <ele>2243.0</ele>
        <time>2014-06-30T15:02:52Z</time>
      </trkpt>
      <trkpt lat="40.735417" lon="-4.621750">
        <ele>2248.0</ele>
        <time>2014-06-30T15:02:53Z</time>
      </trkpt>
      <trkpt lat="40.735517" lon="-4.621750">
        <ele>2253.0</ele>
        <time>2014-06-30T15:02:54Z</time>
      </trkpt>
      <trkpt lat="40.735600" lon="-4.621733">
        <ele>2258.0</ele>
        <time>2014-06-30T15:02:55Z</time>
      </trkpt>
      <trkpt lat="40.735683" lon="-4.621700">
        <ele>2262.0</ele>
        <time>2014-06-30T15:02:56Z</time>
      </trkpt>
      <trkpt lat="40.735767" lon="-4.621650">
        <ele>2267.0</ele>
        <time>2014-06-30T15:02:57Z</time>
      </trkpt>
      <trkpt lat="40.735867" lon="-4.621600">
        <ele>2271.0</ele>
        <time>2014-06-30T15:02:58Z</time>
      </trkpt>
      <trkpt lat="40.735950" lon="-4.621533">
        <ele>2274.0</ele>
        <time>2014-06-30T15:02:59Z</time>
      </trkpt>
      <trkpt lat="40.736033" lon="-4.621467">
        <ele>2278.0</ele>
        <time>2014-06-30T15:03:00Z</time>
      </trkpt>
      <trkpt lat="40.736133" lon="-4.621367">
        <ele>2281.0</ele>
        <time>2014-06-30T15:03:01Z</time>
      </trkpt>
      <trkpt lat="40.736200" lon="-4.621250">
        <ele>2285.0</ele>
        <time>2014-06-30T15:03:02Z</time>
      </trkpt>
      <trkpt lat="40.736233" lon="-4.621117">
        <ele>2289.0</ele>
        <time>2014-06-30T15:03:03Z</time>
      </trkpt>
      <trkpt lat="40.736283" lon="-4.621000">
        <ele>2292.0</ele>
        <time>2014-06-30T15:03:04Z</time>
      </trkpt>
      <trkpt lat="40.736300" lon="-4.620850">
        <ele>2296.0</ele>
        <time>2014-06-30T15:03:05Z</time>
      </trkpt>
      <trkpt lat="40.736317" lon="-4.620717">
        <ele>2300.0</ele>
        <time>2014-06-30T15:03:06Z</time>
      </trkpt>
      <trkpt lat="40.736317" lon="-4.620567">
        <ele>2304.0</ele>
        <time>2014-06-30T15:03:07Z</time>
      </trkpt>
      <trkpt lat="40.736283" lon="-4.620417">
        <ele>2306.0</ele>
        <time>2014-06-30T15:03:08Z</time>
      </trkpt>
      <trkpt lat="40.736267" lon="-4.620283">
        <ele>2309.0</ele>
        <time>2014-06-30T15:03:09Z</time>
      </trkpt>
      <trkpt lat="40.736217" lon="-4.620133">
        <ele>2312.0</ele>
        <time>2014-06-30T15:03:10Z</time>
      </trkpt>
      <trkpt lat="40.736133" lon="-4.620000">
        <ele>2316.0</ele>
        <time>2014-06-30T15:03:11Z</time>
      </trkpt>
      <trkpt lat="40.736050" lon="-4.619883">
        <ele>2320.0</ele>
        <time>2014-06-30T15:03:12Z</time>
      </trkpt>
      <trkpt lat="40.735967" lon="-4.619783">
        <ele>2324.0</ele>
        <time>2014-06-30T15:03:13Z</time>
      </trkpt>
      <trkpt lat="40.735867" lon="-4.619683">
        <ele>2328.0</ele>
        <time>2014-06-30T15:03:14Z</time>
      </trkpt>
      <trkpt lat="40.735767" lon="-4.619600">
        <ele>2332.0</ele>
        <time>2014-06-30T15:03:15Z</time>
      </trkpt>
      <trkpt lat="40.735683" lon="-4.619517">
        <ele>2336.0</ele>
        <time>2014-06-30T15:03:16Z</time>
      </trkpt>
      <trkpt lat="40.735583" lon="-4.619467">
        <ele>2339.0</ele>
        <time>2014-06-30T15:03:17Z</time>
      </trkpt>
      <trkpt lat="40.735500" lon="-4.619433">
        <ele>2342.0</ele>
        <time>2014-06-30T15:03:18Z</time>
      </trkpt>
      <trkpt lat="40.735400" lon="-4.619417">
        <ele>2345.0</ele>
        <time>2014-06-30T15:03:19Z</time>
      </trkpt>
      <trkpt lat="40.735317" lon="-4.619417">
        <ele>2348.0</ele>
        <time>2014-06-30T15:03:20Z</time>
      </trkpt>
      <trkpt lat="40.735200" lon="-4.619417">
        <ele>2351.0</ele>
        <time>2014-06-30T15:03:21Z</time>
      </trkpt>
      <trkpt lat="40.735117" lon="-4.619467">
        <ele>2344.0</ele>
        <time>2014-06-30T15:03:22Z</time>
      </trkpt>
      <trkpt lat="40.735050" lon="-4.619517">
        <ele>2342.0</ele>
        <time>2014-06-30T15:03:23Z</time>
      </trkpt>
      <trkpt lat="40.735017" lon="-4.619567">
        <ele>2342.0</ele>
        <time>2014-06-30T15:03:24Z</time>
      </trkpt>
      <trkpt lat="40.735000" lon="-4.619600">
        <ele>2343.0</ele>
        <time>2014-06-30T15:03:25Z</time>
      </trkpt>
      <trkpt lat="40.735000" lon="-4.619650">
        <ele>2344.0</ele>
        <time>2014-06-30T15:03:26Z</time>
      </trkpt>
      <trkpt lat="40.735000" lon="-4.619700">
        <ele>2346.0</ele>
        <time>2014-06-30T15:03:27Z</time>
      </trkpt>
      <trkpt lat="40.735033" lon="-4.619750">
        <ele>2348.0</ele>
        <time>2014-06-30T15:03:28Z</time>
      </trkpt>
      <trkpt lat="40.735083" lon="-4.619800">
        <ele>2349.0</ele>
        <time>2014-06-30T15:03:29Z</time>
      </trkpt>
      <trkpt lat="40.735133" lon="-4.619833">
        <ele>2351.0</ele>
        <time>2014-06-30T15:03:30Z</time>
      </trkpt>
      <trkpt lat="40.735200" lon="-4.619867">
        <ele>2354.0</ele>
        <time>2014-06-30T15:03:31Z</time>
      </trkpt>
      <trkpt lat="40.735250" lon="-4.619917">
        <ele>2358.0</ele>
        <time>2014-06-30T15:03:32Z</time>
      </trkpt>
      <trkpt lat="40.735317" lon="-4.619933">
        <ele>2362.0</ele>
        <time>2014-06-30T15:03:33Z</time>
      </trkpt>
      <trkpt lat="40.735367" lon="-4.619933">
        <ele>2366.0</ele>
        <time>2014-06-30T15:03:34Z</time>
      </trkpt>
      <trkpt lat="40.735433" lon="-4.619933">
        <ele>2369.0</ele>
        <time>2014-06-30T15:03:35Z</time>
      </trkpt>
      <trkpt lat="40.735483" lon="-4.619933">
        <ele>2373.0</ele>
        <time>2014-06-30T15:03:36Z</time>
      </trkpt>
      <trkpt lat="40.735550" lon="-4.619933">
        <ele>2376.0</ele>
        <time>2014-06-30T15:03:37Z</time>
      </trkpt>
      <trkpt lat="40.735633" lon="-4.619917">
        <ele>2379.0</ele>
        <time>2014-06-30T15:03:38Z</time>
      </trkpt>
      <trkpt lat="40.735700" lon="-4.619917">
        <ele>2382.0</ele>
        <time>2014-06-30T15:03:39Z</time>
      </trkpt>
      <trkpt lat="40.735767" lon="-4.619883">
        <ele>2385.0</ele>
        <time>2014-06-30T15:03:40Z</time>
      </trkpt>
      <trkpt lat="40.735850" lon="-4.619867">
        <ele>2388.0</ele>
        <time>2014-06-30T15:03:41Z</time>
      </trkpt>
      <trkpt lat="40.735933" lon="-4.619817">
        <ele>2391.0</ele>
        <time>2014-06-30T15:03:42Z</time>
      </trkpt>
      <trkpt lat="40.736000" lon="-4.619767">
        <ele>2395.0</ele>
        <time>2014-06-30T15:03:43Z</time>
      </trkpt>
      <trkpt lat="40.736067" lon="-4.619700">
        <ele>2398.0</ele>
        <time>2014-06-30T15:03:44Z</time>
      </trkpt>
      <trkpt lat="40.736133" lon="-4.619617">
        <ele>2402.0</ele>
        <time>2014-06-30T15:03:45Z</time>
      </trkpt>
      <trkpt lat="40.736183" lon="-4.619533">
        <ele>2405.0</ele>
        <time>2014-06-30T15:03:46Z</time>
      </trkpt>
      <trkpt lat="40.736233" lon="-4.619450">
        <ele>2408.0</ele>
        <time>2014-06-30T15:03:47Z</time>
      </trkpt>
      <trkpt lat="40.736267" lon="-4.619350">
        <ele>2412.0</ele>
        <time>2014-06-30T15:03:48Z</time>
      </trkpt>
      <trkpt lat="40.736300" lon="-4.619233">
        <ele>2414.0</ele>
        <time>2014-06-30T15:03:49Z</time>
      </trkpt>
      <trkpt lat="40.736333" lon="-4.619117">
        <ele>2417.0</ele>
        <time>2014-06-30T15:03:50Z</time>
      </trkpt>
      <trkpt lat="40.736350" lon="-4.619000">
        <ele>2420.0</ele>
        <time>2014-06-30T15:03:51Z</time>
      </trkpt>
      <trkpt lat="40.736367" lon="-4.618867">
        <ele>2422.0</ele>
        <time>2014-06-30T15:03:52Z</time>
      </trkpt>
      <trkpt lat="40.736367" lon="-4.618733">
        <ele>2424.0</ele>
        <time>2014-06-30T15:03:53Z</time>
      </trkpt>
      <trkpt lat="40.736350" lon="-4.618583">
        <ele>2425.0</ele>
        <time>2014-06-30T15:03:54Z</time>
      </trkpt>
      <trkpt lat="40.736317" lon="-4.618433">
        <ele>2427.0</ele>
        <time>2014-06-30T15:03:55Z</time>
      </trkpt>
      <trkpt lat="40.736267" lon="-4.618283">
        <ele>2428.0</ele>
        <time>2014-06-30T15:03:56Z</time>
      </trkpt>
      <trkpt lat="40.736200" lon="-4.618150">
        <ele>2430.0</ele>
        <time>2014-06-30T15:03:57Z</time>
      </trkpt>
      <trkpt lat="40.736117" lon="-4.618033">
        <ele>2432.0</ele>
        <time>2014-06-30T15:03:58Z</time>
      </trkpt>
      <trkpt lat="40.736017" lon="-4.617933">
        <ele>2433.0</ele>
        <time>2014-06-30T15:03:59Z</time>
      </trkpt>
      <trkpt lat="40.735917" lon="-4.617850">
        <ele>2435.0</ele>
        <time>2014-06-30T15:04:00Z</time>
      </trkpt>
      <trkpt lat="40.735800" lon="-4.617800">
        <ele>2438.0</ele>
        <time>2014-06-30T15:04:01Z</time>
      </trkpt>
      <trkpt lat="40.735683" lon="-4.617750">
        <ele>2440.0</ele>
        <time>2014-06-30T15:04:02Z</time>
      </trkpt>
      <trkpt lat="40.735567" lon="-4.617733">
        <ele>2442.0</ele>
        <time>2014-06-30T15:04:03Z</time>
      </trkpt>
      <trkpt lat="40.735467" lon="-4.617733">
        <ele>2444.0</ele>
        <time>2014-06-30T15:04:04Z</time>
      </trkpt>
      <trkpt lat="40.735367" lon="-4.617733">
        <ele>2446.0</ele>
        <time>2014-06-30T15:04:05Z</time>
      </trkpt>
      <trkpt lat="40.735283" lon="-4.617750">
        <ele>2449.0</ele>
        <time>2014-06-30T15:04:06Z</time>
      </trkpt>
      <trkpt lat="40.735183" lon="-4.617783">
        <ele>2451.0</ele>
        <time>2014-06-30T15:04:07Z</time>
      </trkpt>
      <trkpt lat="40.735100" lon="-4.617833">
        <ele>2452.0</ele>
        <time>2014-06-30T15:04:08Z</time>
      </trkpt>
      <trkpt lat="40.735033" lon="-4.617900">
        <ele>2453.0</ele>
        <time>2014-06-30T15:04:09Z</time>
      </trkpt>
      <trkpt lat="40.734967" lon="-4.617983">
        <ele>2455.0</ele>
        <time>2014-06-30T15:04:10Z</time>
      </trkpt>
      <trkpt lat="40.734900" lon="-4.618083">
        <ele>2456.0</ele>
        <time>2014-06-30T15:04:11Z</time>
      </trkpt>
      <trkpt lat="40.734867" lon="-4.618167">
        <ele>2458.0</ele>
        <time>2014-06-30T15:04:12Z</time>
      </trkpt>
      <trkpt lat="40.734850" lon="-4.618250">
        <ele>2461.0</ele>
        <time>2014-06-30T15:04:13Z</time>
      </trkpt>
      <trkpt lat="40.734833" lon="-4.618333">
        <ele>2463.0</ele>
        <time>2014-06-30T15:04:14Z</time>
      </trkpt>
      <trkpt lat="40.734850" lon="-4.618417">
        <ele>2465.0</ele>
        <time>2014-06-30T15:04:15Z</time>
      </trkpt>
      <trkpt lat="40.734850" lon="-4.618500">
        <ele>2466.0</ele>
        <time>2014-06-30T15:04:16Z</time>
      </trkpt>
      <trkpt lat="40.734883" lon="-4.618567">
        <ele>2468.0</ele>
        <time>2014-06-30T15:04:17Z</time>
      </trkpt>
      <trkpt lat="40.734917" lon="-4.618617">
        <ele>2471.0</ele>
        <time>2014-06-30T15:04:18Z</time>
      </trkpt>
      <trkpt lat="40.734967" lon="-4.618633">
        <ele>2475.0</ele>
        <time>2014-06-30T15:04:19Z</time>
      </trkpt>
      <trkpt lat="40.735017" lon="-4.618650">
        <ele>2477.0</ele>
        <time>2014-06-30T15:04:20Z</time>
      </trkpt>
      <trkpt lat="40.735067" lon="-4.618683">
        <ele>2480.0</ele>
        <time>2014-06-30T15:04:21Z</time>
      </trkpt>
      <trkpt lat="40.735133" lon="-4.618717">
        <ele>2483.0</ele>
        <time>2014-06-30T15:04:22Z</time>
      </trkpt>
      <trkpt lat="40.735183" lon="-4.618750">
        <ele>2486.0</ele>
        <time>2014-06-30T15:04:23Z</time>
      </trkpt>
      <trkpt lat="40.735250" lon="-4.618767">
        <ele>2490.0</ele>
        <time>2014-06-30T15:04:24Z</time>
      </trkpt>
      <trkpt lat="40.735317" lon="-4.618750">
        <ele>2495.0</ele>
        <time>2014-06-30T15:04:25Z</time>
      </trkpt>
      <trkpt lat="40.735383" lon="-4.618733">
        <ele>2498.0</ele>
        <time>2014-06-30T15:04:26Z</time>
      </trkpt>
      <trkpt lat="40.735433" lon="-4.618683">
        <ele>2502.0</ele>
        <time>2014-06-30T15:04:27Z</time>
      </trkpt>
      <trkpt lat="40.735483" lon="-4.618650">
        <ele>2505.0</ele>
        <time>2014-06-30T15:04:28Z</time>
      </trkpt>
      <trkpt lat="40.735533" lon="-4.618600">
        <ele>2508.0</ele>
        <time>2014-06-30T15:04:29Z</time>
      </trkpt>
      <trkpt lat="40.735567" lon="-4.618550">
        <ele>2510.0</ele>
        <time>2014-06-30T15:04:30Z</time>
      </trkpt>
      <trkpt lat="40.735617" lon="-4.618467">
        <ele>2511.0</ele>
        <time>2014-06-30T15:04:31Z</time>
      </trkpt>
      <trkpt lat="40.735667" lon="-4.618367">
        <ele>2512.0</ele>
        <time>2014-06-30T15:04:32Z</time>
      </trkpt>
      <trkpt lat="40.735683" lon="-4.618233">
        <ele>2514.0</ele>
        <time>2014-06-30T15:04:33Z</time>
      </trkpt>
      <trkpt lat="40.735700" lon="-4.618067">
        <ele>2514.0</ele>
        <time>2014-06-30T15:04:34Z</time>
      </trkpt>
      <trkpt lat="40.735717" lon="-4.617917">
        <ele>2514.0</ele>
        <time>2014-06-30T15:04:35Z</time>
      </trkpt>
      <trkpt lat="40.735733" lon="-4.617767">
        <ele>2515.0</ele>
        <time>2014-06-30T15:04:36Z</time>
      </trkpt>
      <trkpt lat="40.735750" lon="-4.617633">
        <ele>2517.0</ele>
        <time>2014-06-30T15:04:37Z</time>
      </trkpt>
      <trkpt lat="40.735767" lon="-4.617500">
        <ele>2518.0</ele>
        <time>2014-06-30T15:04:38Z</time>
      </trkpt>
      <trkpt lat="40.735767" lon="-4.617367">
        <ele>2520.0</ele>
        <time>2014-06-30T15:04:39Z</time>
      </trkpt>
      <trkpt lat="40.735767" lon="-4.617217">
        <ele>2521.0</ele>
        <time>2014-06-30T15:04:40Z</time>
      </trkpt>
      <trkpt lat="40.735750" lon="-4.617083">
        <ele>2522.0</ele>
        <time>2014-06-30T15:04:41Z</time>
      </trkpt>
      <trkpt lat="40.735717" lon="-4.616933">
        <ele>2524.0</ele>
        <time>2014-06-30T15:04:42Z</time>
      </trkpt>
      <trkpt lat="40.735667" lon="-4.616800">
        <ele>2527.0</ele>
        <time>2014-06-30T15:04:43Z</time>
      </trkpt>
      <trkpt lat="40.735617" lon="-4.616667">
        <ele>2528.0</ele>
        <time>2014-06-30T15:04:44Z</time>
      </trkpt>
      <trkpt lat="40.735533" lon="-4.616533">
        <ele>2531.0</ele>
        <time>2014-06-30T15:04:45Z</time>
      </trkpt>
      <trkpt lat="40.735467" lon="-4.616400">
        <ele>2535.0</ele>
        <time>2014-06-30T15:04:46Z</time>
      </trkpt>
      <trkpt lat="40.735367" lon="-4.616283">
        <ele>2538.0</ele>
        <time>2014-06-30T15:04:47Z</time>
      </trkpt>
      <trkpt lat="40.735283" lon="-4.616183">
        <ele>2542.0</ele>
        <time>2014-06-30T15:04:48Z</time>
      </trkpt>
      <trkpt lat="40.735183" lon="-4.616100">
        <ele>2545.0</ele>
        <time>2014-06-30T15:04:49Z</time>
      </trkpt>
      <trkpt lat="40.735083" lon="-4.616033">
        <ele>2548.0</ele>
        <time>2014-06-30T15:04:50Z</time>
      </trkpt>
      <trkpt lat="40.734983" lon="-4.615983">
        <ele>2551.0</ele>
        <time>2014-06-30T15:04:51Z</time>
      </trkpt>
      <trkpt lat="40.734883" lon="-4.615950">
        <ele>2554.0</ele>
        <time>2014-06-30T15:04:52Z</time>
      </trkpt>
      <trkpt lat="40.734800" lon="-4.615933">
        <ele>2556.0</ele>
        <time>2014-06-30T15:04:53Z</time>
      </trkpt>
      <trkpt lat="40.734700" lon="-4.615950">
        <ele>2558.0</ele>
        <time>2014-06-30T15:04:54Z</time>
      </trkpt>
      <trkpt lat="40.734617" lon="-4.616000">
        <ele>2560.0</ele>
        <time>2014-06-30T15:04:55Z</time>
      </trkpt>
      <trkpt lat="40.734550" lon="-4.616067">
        <ele>2561.0</ele>
        <time>2014-06-30T15:04:56Z</time>
      </trkpt>
      <trkpt lat="40.734500" lon="-4.616133">
        <ele>2563.0</ele>
        <time>2014-06-30T15:04:57Z</time>
      </trkpt>
      <trkpt lat="40.734450" lon="-4.616200">
        <ele>2565.0</ele>
        <time>2014-06-30T15:04:58Z</time>
      </trkpt>
      <trkpt lat="40.734400" lon="-4.616283">
        <ele>2567.0</ele>
        <time>2014-06-30T15:04:59Z</time>
      </trkpt>
      <trkpt lat="40.734367" lon="-4.616367">
        <ele>2570.0</ele>
        <time>2014-06-30T15:05:00Z</time>
      </trkpt>
      <trkpt lat="40.734367" lon="-4.616450">
        <ele>2573.0</ele>
        <time>2014-06-30T15:05:01Z</time>
      </trkpt>
      <trkpt lat="40.734367" lon="-4.616533">
        <ele>2575.0</ele>
        <time>2014-06-30T15:05:02Z</time>
      </trkpt>
      <trkpt lat="40.734383" lon="-4.616617">
        <ele>2577.0</ele>
        <time>2014-06-30T15:05:03Z</time>
      </trkpt>
      <trkpt lat="40.734417" lon="-4.616683">
        <ele>2579.0</ele>
        <time>2014-06-30T15:05:04Z</time>
      </trkpt>
      <trkpt lat="40.734450" lon="-4.616750">
        <ele>2582.0</ele>
        <time>2014-06-30T15:05:05Z</time>
      </trkpt>
      <trkpt lat="40.734500" lon="-4.616783">
        <ele>2585.0</ele>
        <time>2014-06-30T15:05:06Z</time>
      </trkpt>
      <trkpt lat="40.734550" lon="-4.616817">
        <ele>2588.0</ele>
        <time>2014-06-30T15:05:07Z</time>
      </trkpt>
      <trkpt lat="40.734600" lon="-4.616833">
        <ele>2590.0</ele>
        <time>2014-06-30T15:05:08Z</time>
      </trkpt>
      <trkpt lat="40.734667" lon="-4.616833">
        <ele>2592.0</ele>
        <time>2014-06-30T15:05:09Z</time>
      </trkpt>
      <trkpt lat="40.734733" lon="-4.616800">
        <ele>2594.0</ele>
        <time>2014-06-30T15:05:10Z</time>
      </trkpt>
      <trkpt lat="40.734800" lon="-4.616767">
        <ele>2597.0</ele>
        <time>2014-06-30T15:05:11Z</time>
      </trkpt>
      <trkpt lat="40.734850" lon="-4.616717">
        <ele>2600.0</ele>
        <time>2014-06-30T15:05:12Z</time>
      </trkpt>
      <trkpt lat="40.734917" lon="-4.616633">
        <ele>2602.0</ele>
        <time>2014-06-30T15:05:13Z</time>
      </trkpt>
      <trkpt lat="40.734967" lon="-4.616567">
        <ele>2604.0</ele>
        <time>2014-06-30T15:05:14Z</time>
      </trkpt>
      <trkpt lat="40.735000" lon="-4.616483">
        <ele>2606.0</ele>
        <time>2014-06-30T15:05:15Z</time>
      </trkpt>
      <trkpt lat="40.735033" lon="-4.616383">
        <ele>2607.0</ele>
        <time>2014-06-30T15:05:16Z</time>
      </trkpt>
      <trkpt lat="40.735067" lon="-4.616267">
        <ele>2609.0</ele>
        <time>2014-06-30T15:05:17Z</time>
      </trkpt>
      <trkpt lat="40.735083" lon="-4.616150">
        <ele>2610.0</ele>
        <time>2014-06-30T15:05:18Z</time>
      </trkpt>
      <trkpt lat="40.735100" lon="-4.616017">
        <ele>2612.0</ele>
        <time>2014-06-30T15:05:19Z</time>
      </trkpt>
      <trkpt lat="40.735133" lon="-4.615883">
        <ele>2614.0</ele>
        <time>2014-06-30T15:05:20Z</time>
      </trkpt>
      <trkpt lat="40.735167" lon="-4.615750">
        <ele>2616.0</ele>
        <time>2014-06-30T15:05:21Z</time>
      </trkpt>
      <trkpt lat="40.735200" lon="-4.615633">
        <ele>2618.0</ele>
        <time>2014-06-30T15:05:22Z</time>
      </trkpt>
      <trkpt lat="40.735233" lon="-4.615500">
        <ele>2621.0</ele>
        <time>2014-06-30T15:05:23Z</time>
      </trkpt>
      <trkpt lat="40.735267" lon="-4.615367">
        <ele>2623.0</ele>
        <time>2014-06-30T15:05:24Z</time>
      </trkpt>
      <trkpt lat="40.735283" lon="-4.615217">
        <ele>2626.0</ele>
        <time>2014-06-30T15:05:25Z</time>
      </trkpt>
      <trkpt lat="40.735317" lon="-4.615083">
        <ele>2628.0</ele>
        <time>2014-06-30T15:05:26Z</time>
      </trkpt>
      <trkpt lat="40.735317" lon="-4.614933">
        <ele>2631.0</ele>
        <time>2014-06-30T15:05:27Z</time>
      </trkpt>
      <trkpt lat="40.735317" lon="-4.614800">
        <ele>2634.0</ele>
        <time>2014-06-30T15:05:28Z</time>
      </trkpt>
      <trkpt lat="40.735317" lon="-4.614650">
        <ele>2637.0</ele>
        <time>2014-06-30T15:05:29Z</time>
      </trkpt>
      <trkpt lat="40.735300" lon="-4.614500">
        <ele>2640.0</ele>
        <time>2014-06-30T15:05:30Z</time>
      </trkpt>
      <trkpt lat="40.735283" lon="-4.614350">
        <ele>2643.0</ele>
        <time>2014-06-30T15:05:31Z</time>
      </trkpt>
      <trkpt lat="40.735267" lon="-4.614200">
        <ele>2646.0</ele>
        <time>2014-06-30T15:05:32Z</time>
      </trkpt>
      <trkpt lat="40.735217" lon="-4.614050">
        <ele>2650.0</ele>
        <time>2014-06-30T15:05:33Z</time>
      </trkpt>
      <trkpt lat="40.735167" lon="-4.613917">
        <ele>2655.0</ele>
        <time>2014-06-30T15:05:34Z</time>
      </trkpt>
      <trkpt lat="40.735083" lon="-4.613800">
        <ele>2659.0</ele>
        <time>2014-06-30T15:05:35Z</time>
      </trkpt>
      <trkpt lat="40.735017" lon="-4.613683">
        <ele>2662.0</ele>
        <time>2014-06-30T15:05:36Z</time>
      </trkpt>
      <trkpt lat="40.734917" lon="-4.613583">
        <ele>2665.0</ele>
        <time>2014-06-30T15:05:37Z</time>
      </trkpt>
      <trkpt lat="40.734817" lon="-4.613500">
        <ele>2668.0</ele>
        <time>2014-06-30T15:05:38Z</time>
      </trkpt>
      <trkpt lat="40.734700" lon="-4.613450">
        <ele>2671.0</ele>
        <time>2014-06-30T15:05:39Z</time>
      </trkpt>
      <trkpt lat="40.734600" lon="-4.613417">
        <ele>2671.0</ele>
        <time>2014-06-30T15:05:40Z</time>
      </trkpt>
      <trkpt lat="40.734500" lon="-4.613400">
        <ele>2673.0</ele>
        <time>2014-06-30T15:05:41Z</time>
      </trkpt>
      <trkpt lat="40.734400" lon="-4.613400">
        <ele>2675.0</ele>
        <time>2014-06-30T15:05:42Z</time>
      </trkpt>
      <trkpt lat="40.734300" lon="-4.613433">
        <ele>2677.0</ele>
        <time>2014-06-30T15:05:43Z</time>
      </trkpt>
      <trkpt lat="40.734217" lon="-4.613467">
        <ele>2678.0</ele>
        <time>2014-06-30T15:05:44Z</time>
      </trkpt>
      <trkpt lat="40.734117" lon="-4.613500">
        <ele>2679.0</ele>
        <time>2014-06-30T15:05:45Z</time>
      </trkpt>
      <trkpt lat="40.734050" lon="-4.613550">
        <ele>2679.0</ele>
        <time>2014-06-30T15:05:46Z</time>
      </trkpt>
      <trkpt lat="40.734000" lon="-4.613617">
        <ele>2680.0</ele>
        <time>2014-06-30T15:05:47Z</time>
      </trkpt>
      <trkpt lat="40.733950" lon="-4.613683">
        <ele>2681.0</ele>
        <time>2014-06-30T15:05:48Z</time>
      </trkpt>
      <trkpt lat="40.733933" lon="-4.613733">
        <ele>2682.0</ele>
        <time>2014-06-30T15:05:49Z</time>
      </trkpt>
      <trkpt lat="40.733933" lon="-4.613800">
        <ele>2682.0</ele>
        <time>2014-06-30T15:05:50Z</time>
      </trkpt>
      <trkpt lat="40.733933" lon="-4.613867">
        <ele>2681.0</ele>
        <time>2014-06-30T15:05:51Z</time>
      </trkpt>
      <trkpt lat="40.733933" lon="-4.613933">
        <ele>2680.0</ele>
        <time>2014-06-30T15:05:52Z</time>
      </trkpt>
      <trkpt lat="40.733967" lon="-4.614017">
        <ele>2680.0</ele>
        <time>2014-06-30T15:05:53Z</time>
      </trkpt>
      <trkpt lat="40.734000" lon="-4.614083">
        <ele>2680.0</ele>
        <time>2014-06-30T15:05:54Z</time>
      </trkpt>
      <trkpt lat="40.734083" lon="-4.614133">
        <ele>2681.0</ele>
        <time>2014-06-30T15:05:55Z</time>
      </trkpt>
      <trkpt lat="40.734150" lon="-4.614167">
        <ele>2685.0</ele>
        <time>2014-06-30T15:05:56Z</time>
      </trkpt>
      <trkpt lat="40.734217" lon="-4.614183">
        <ele>2690.0</ele>
        <time>2014-06-30T15:05:57Z</time>
      </trkpt>
      <trkpt lat="40.734283" lon="-4.614183">
        <ele>2694.0</ele>
        <time>2014-06-30T15:05:58Z</time>
      </trkpt>
      <trkpt lat="40.734350" lon="-4.614167">
        <ele>2697.0</ele>
        <time>2014-06-30T15:05:59Z</time>
      </trkpt>
      <trkpt lat="40.734400" lon="-4.614167">
        <ele>2701.0</ele>
        <time>2014-06-30T15:06:00Z</time>
      </trkpt>
      <trkpt lat="40.734483" lon="-4.614133">
        <ele>2704.0</ele>
        <time>2014-06-30T15:06:01Z</time>
      </trkpt>
      <trkpt lat="40.734550" lon="-4.614100">
        <ele>2707.0</ele>
        <time>2014-06-30T15:06:02Z</time>
      </trkpt>
      <trkpt lat="40.734633" lon="-4.614050">
        <ele>2710.0</ele>
        <time>2014-06-30T15:06:03Z</time>
      </trkpt>
      <trkpt lat="40.734700" lon="-4.613983">
        <ele>2714.0</ele>
        <time>2014-06-30T15:06:04Z</time>
      </trkpt>
      <trkpt lat="40.734750" lon="-4.613883">
        <ele>2717.0</ele>
        <time>2014-06-30T15:06:05Z</time>
      </trkpt>
      <trkpt lat="40.734800" lon="-4.613783">
        <ele>2720.0</ele>
        <time>2014-06-30T15:06:06Z</time>
      </trkpt>
      <trkpt lat="40.734833" lon="-4.613650">
        <ele>2723.0</ele>
        <time>2014-06-30T15:06:07Z</time>
      </trkpt>
      <trkpt lat="40.734850" lon="-4.613500">
        <ele>2725.0</ele>
        <time>2014-06-30T15:06:08Z</time>
      </trkpt>
      <trkpt lat="40.734867" lon="-4.613367">
        <ele>2727.0</ele>
        <time>2014-06-30T15:06:09Z</time>
      </trkpt>
      <trkpt lat="40.734900" lon="-4.613233">
        <ele>2729.0</ele>
        <time>2014-06-30T15:06:10Z</time>
      </trkpt>
      <trkpt lat="40.734917" lon="-4.613117">
        <ele>2732.0</ele>
        <time>2014-06-30T15:06:11Z</time>
      </trkpt>
      <trkpt lat="40.734950" lon="-4.613000">
        <ele>2735.0</ele>
        <time>2014-06-30T15:06:12Z</time>
      </trkpt>
      <trkpt lat="40.734983" lon="-4.612883">
        <ele>2737.0</ele>
        <time>2014-06-30T15:06:13Z</time>
      </trkpt>
      <trkpt lat="40.734983" lon="-4.612750">
        <ele>2740.0</ele>
        <time>2014-06-30T15:06:14Z</time>
      </trkpt>
      <trkpt lat="40.734983" lon="-4.612617">
        <ele>2743.0</ele>
        <time>2014-06-30T15:06:15Z</time>
      </trkpt>
      <trkpt lat="40.734967" lon="-4.612500">
        <ele>2746.0</ele>
        <time>2014-06-30T15:06:16Z</time>
      </trkpt>
      <trkpt lat="40.734950" lon="-4.612367">
        <ele>2748.0</ele>
        <time>2014-06-30T15:06:17Z</time>
      </trkpt>
      <trkpt lat="40.734917" lon="-4.612250">
        <ele>2752.0</ele>
        <time>2014-06-30T15:06:18Z</time>
      </trkpt>
      <trkpt lat="40.734867" lon="-4.612133">
        <ele>2754.0</ele>
        <time>2014-06-30T15:06:19Z</time>
      </trkpt>
      <trkpt lat="40.734817" lon="-4.612033">
        <ele>2757.0</ele>
        <time>2014-06-30T15:06:20Z</time>
      </trkpt>
      <trkpt lat="40.734733" lon="-4.611950">
        <ele>2760.0</ele>
        <time>2014-06-30T15:06:21Z</time>
      </trkpt>
      <trkpt lat="40.734650" lon="-4.611867">
        <ele>2763.0</ele>
        <time>2014-06-30T15:06:22Z</time>
      </trkpt>
      <trkpt lat="40.734583" lon="-4.611800">
        <ele>2766.0</ele>
        <time>2014-06-30T15:06:23Z</time>
      </trkpt>
      <trkpt lat="40.734500" lon="-4.611767">
        <ele>2769.0</ele>
        <time>2014-06-30T15:06:24Z</time>
      </trkpt>
      <trkpt lat="40.734400" lon="-4.611750">
        <ele>2773.0</ele>
        <time>2014-06-30T15:06:25Z</time>
      </trkpt>
      <trkpt lat="40.734317" lon="-4.611750">
        <ele>2776.0</ele>
        <time>2014-06-30T15:06:26Z</time>
      </trkpt>
      <trkpt lat="40.734250" lon="-4.611767">
        <ele>2780.0</ele>
        <time>2014-06-30T15:06:27Z</time>
      </trkpt>
      <trkpt lat="40.734183" lon="-4.611767">
        <ele>2783.0</ele>
        <time>2014-06-30T15:06:28Z</time>
      </trkpt>
      <trkpt lat="40.734117" lon="-4.611783">
        <ele>2785.0</ele>
        <time>2014-06-30T15:06:29Z</time>
      </trkpt>
      <trkpt lat="40.734067" lon="-4.611833">
        <ele>2786.0</ele>
        <time>2014-06-30T15:06:30Z</time>
      </trkpt>
      <trkpt lat="40.734000" lon="-4.611867">
        <ele>2788.0</ele>
        <time>2014-06-30T15:06:31Z</time>
      </trkpt>
      <trkpt lat="40.733933" lon="-4.611917">
        <ele>2789.0</ele>
        <time>2014-06-30T15:06:32Z</time>
      </trkpt>
      <trkpt lat="40.733883" lon="-4.611983">
        <ele>2791.0</ele>
        <time>2014-06-30T15:06:33Z</time>
      </trkpt>
      <trkpt lat="40.733850" lon="-4.612050">
        <ele>2793.0</ele>
        <time>2014-06-30T15:06:34Z</time>
      </trkpt>
      <trkpt lat="40.733833" lon="-4.612133">
        <ele>2795.0</ele>
        <time>2014-06-30T15:06:35Z</time>
      </trkpt>
      <trkpt lat="40.733833" lon="-4.612217">
        <ele>2798.0</ele>
        <time>2014-06-30T15:06:36Z</time>
      </trkpt>
      <trkpt lat="40.733850" lon="-4.612283">
        <ele>2801.0</ele>
        <time>2014-06-30T15:06:37Z</time>
      </trkpt>
      <trkpt lat="40.733867" lon="-4.612367">
        <ele>2804.0</ele>
        <time>2014-06-30T15:06:38Z</time>
      </trkpt>
      <trkpt lat="40.733900" lon="-4.612433">
        <ele>2807.0</ele>
        <time>2014-06-30T15:06:39Z</time>
      </trkpt>
      <trkpt lat="40.733950" lon="-4.612500">
        <ele>2810.0</ele>
        <time>2014-06-30T15:06:40Z</time>
      </trkpt>
      <trkpt lat="40.734000" lon="-4.612550">
        <ele>2812.0</ele>
        <time>2014-06-30T15:06:41Z</time>
      </trkpt>
      <trkpt lat="40.734050" lon="-4.612583">
        <ele>2814.0</ele>
        <time>2014-06-30T15:06:42Z</time>
      </trkpt>
      <trkpt lat="40.734117" lon="-4.612617">
        <ele>2817.0</ele>
        <time>2014-06-30T15:06:43Z</time>
      </trkpt>
      <trkpt lat="40.734183" lon="-4.612650">
        <ele>2817.0</ele>
        <time>2014-06-30T15:06:44Z</time>
      </trkpt>
      <trkpt lat="40.734250" lon="-4.612667">
        <ele>2822.0</ele>
        <time>2014-06-30T15:06:45Z</time>
      </trkpt>
      <trkpt lat="40.734317" lon="-4.612683">
        <ele>2825.0</ele>
        <time>2014-06-30T15:06:46Z</time>
      </trkpt>
      <trkpt lat="40.734400" lon="-4.612683">
        <ele>2828.0</ele>
        <time>2014-06-30T15:06:47Z</time>
      </trkpt>
      <trkpt lat="40.734483" lon="-4.612683">
        <ele>2831.0</ele>
        <time>2014-06-30T15:06:48Z</time>
      </trkpt>
      <trkpt lat="40.734550" lon="-4.612667">
        <ele>2833.0</ele>
        <time>2014-06-30T15:06:49Z</time>
      </trkpt>
      <trkpt lat="40.734633" lon="-4.612633">
        <ele>2836.0</ele>
        <time>2014-06-30T15:06:50Z</time>
      </trkpt>
      <trkpt lat="40.734700" lon="-4.612583">
        <ele>2838.0</ele>
        <time>2014-06-30T15:06:51Z</time>
      </trkpt>
      <trkpt lat="40.734767" lon="-4.612500">
        <ele>2840.0</ele>
        <time>2014-06-30T15:06:52Z</time>
      </trkpt>
      <trkpt lat="40.734833" lon="-4.612417">
        <ele>2841.0</ele>
        <time>2014-06-30T15:06:53Z</time>
      </trkpt>
      <trkpt lat="40.734900" lon="-4.612317">
        <ele>2842.0</ele>
        <time>2014-06-30T15:06:54Z</time>
      </trkpt>
      <trkpt lat="40.734950" lon="-4.612183">
        <ele>2844.0</ele>
        <time>2014-06-30T15:06:55Z</time>
      </trkpt>
      <trkpt lat="40.734983" lon="-4.612050">
        <ele>2845.0</ele>
        <time>2014-06-30T15:06:56Z</time>
      </trkpt>
      <trkpt lat="40.735017" lon="-4.611917">
        <ele>2845.0</ele>
        <time>2014-06-30T15:06:57Z</time>
      </trkpt>
      <trkpt lat="40.735050" lon="-4.611800">
        <ele>2846.0</ele>
        <time>2014-06-30T15:06:58Z</time>
      </trkpt>
      <trkpt lat="40.735067" lon="-4.611667">
        <ele>2847.0</ele>
        <time>2014-06-30T15:06:59Z</time>
      </trkpt>
      <trkpt lat="40.735050" lon="-4.611533">
        <ele>2847.0</ele>
        <time>2014-06-30T15:07:00Z</time>
      </trkpt>
      <trkpt lat="40.735033" lon="-4.611400">
        <ele>2847.0</ele>
        <time>2014-06-30T15:07:01Z</time>
      </trkpt>
      <trkpt lat="40.735000" lon="-4.611267">
        <ele>2846.0</ele>
        <time>2014-06-30T15:07:02Z</time>
      </trkpt>
      <trkpt lat="40.734967" lon="-4.611133">
        <ele>2846.0</ele>
        <time>2014-06-30T15:07:03Z</time>
      </trkpt>
      <trkpt lat="40.734950" lon="-4.611000">
        <ele>2846.0</ele>
        <time>2014-06-30T15:07:04Z</time>
      </trkpt>
      <trkpt lat="40.734933" lon="-4.610867">
        <ele>2846.0</ele>
        <time>2014-06-30T15:07:05Z</time>
      </trkpt>
      <trkpt lat="40.734917" lon="-4.610750">
        <ele>2846.0</ele>
        <time>2014-06-30T15:07:06Z</time>
      </trkpt>
      <trkpt lat="40.734917" lon="-4.610633">
        <ele>2845.0</ele>
        <time>2014-06-30T15:07:07Z</time>
      </trkpt>
      <trkpt lat="40.734900" lon="-4.610500">
        <ele>2845.0</ele>
        <time>2014-06-30T15:07:08Z</time>
      </trkpt>
      <trkpt lat="40.734900" lon="-4.610367">
        <ele>2843.0</ele>
        <time>2014-06-30T15:07:09Z</time>
      </trkpt>
      <trkpt lat="40.734917" lon="-4.610233">
        <ele>2842.0</ele>
        <time>2014-06-30T15:07:10Z</time>
      </trkpt>
      <trkpt lat="40.734933" lon="-4.610100">
        <ele>2840.0</ele>
        <time>2014-06-30T15:07:11Z</time>
      </trkpt>
      <trkpt lat="40.734933" lon="-4.609967">
        <ele>2839.0</ele>
        <time>2014-06-30T15:07:12Z</time>
      </trkpt>
      <trkpt lat="40.734950" lon="-4.609833">
        <ele>2839.0</ele>
        <time>2014-06-30T15:07:13Z</time>
      </trkpt>
      <trkpt lat="40.734967" lon="-4.609700">
        <ele>2837.0</ele>
        <time>2014-06-30T15:07:14Z</time>
      </trkpt>
      <trkpt lat="40.734983" lon="-4.609550">
        <ele>2836.0</ele>
        <time>2014-06-30T15:07:15Z</time>
      </trkpt>
      <trkpt lat="40.735000" lon="-4.609417">
        <ele>2835.0</ele>
        <time>2014-06-30T15:07:16Z</time>
      </trkpt>
      <trkpt lat="40.735017" lon="-4.609267">
        <ele>2833.0</ele>
        <time>2014-06-30T15:07:17Z</time>
      </trkpt>
      <trkpt lat="40.735050" lon="-4.609117">
        <ele>2831.0</ele>
        <time>2014-06-30T15:07:18Z</time>
      </trkpt>
      <trkpt lat="40.735083" lon="-4.608967">
        <ele>2830.0</ele>
        <time>2014-06-30T15:07:19Z</time>
      </trkpt>
      <trkpt lat="40.735100" lon="-4.608833">
        <ele>2829.0</ele>
        <time>2014-06-30T15:07:20Z</time>
      </trkpt>
      <trkpt lat="40.735117" lon="-4.608700">
        <ele>2828.0</ele>
        <time>2014-06-30T15:07:21Z</time>
      </trkpt>
      <trkpt lat="40.735150" lon="-4.608550">
        <ele>2826.0</ele>
        <time>2014-06-30T15:07:22Z</time>
      </trkpt>
      <trkpt lat="40.735167" lon="-4.608417">
        <ele>2825.0</ele>
        <time>2014-06-30T15:07:23Z</time>
      </trkpt>
      <trkpt lat="40.735200" lon="-4.608283">
        <ele>2823.0</ele>
        <time>2014-06-30T15:07:24Z</time>
      </trkpt>
      <trkpt lat="40.735217" lon="-4.608167">
        <ele>2821.0</ele>
        <time>2014-06-30T15:07:25Z</time>
      </trkpt>
      <trkpt lat="40.735250" lon="-4.608050">
        <ele>2820.0</ele>
        <time>2014-06-30T15:07:26Z</time>
      </trkpt>
      <trkpt lat="40.735300" lon="-4.607933">
        <ele>2825.0</ele>
        <time>2014-06-30T15:07:27Z</time>
      </trkpt>
      <trkpt lat="40.735317" lon="-4.607817">
        <ele>2826.0</ele>
        <time>2014-06-30T15:07:28Z</time>
      </trkpt>
      <trkpt lat="40.735350" lon="-4.607700">
        <ele>2825.0</ele>
        <time>2014-06-30T15:07:29Z</time>
      </trkpt>
      <trkpt lat="40.735367" lon="-4.607600">
        <ele>2825.0</ele>
        <time>2014-06-30T15:07:30Z</time>
      </trkpt>
      <trkpt lat="40.735400" lon="-4.607433">
        <ele>2825.0</ele>
        <time>2014-06-30T15:07:31Z</time>
      </trkpt>
      <trkpt lat="40.735433" lon="-4.607283">
        <ele>2824.0</ele>
        <time>2014-06-30T15:07:32Z</time>
      </trkpt>
      <trkpt lat="40.735450" lon="-4.607133">
        <ele>2824.0</ele>
        <time>2014-06-30T15:07:33Z</time>
      </trkpt>
      <trkpt lat="40.735483" lon="-4.607000">
        <ele>2823.0</ele>
        <time>2014-06-30T15:07:34Z</time>
      </trkpt>
      <trkpt lat="40.735517" lon="-4.606850">
        <ele>2822.0</ele>
        <time>2014-06-30T15:07:35Z</time>
      </trkpt>
      <trkpt lat="40.735550" lon="-4.606717">
        <ele>2820.0</ele>
        <time>2014-06-30T15:07:36Z</time>
      </trkpt>
      <trkpt lat="40.735583" lon="-4.606600">
        <ele>2818.0</ele>
        <time>2014-06-30T15:07:37Z</time>
      </trkpt>
      <trkpt lat="40.735617" lon="-4.606483">
        <ele>2816.0</ele>
        <time>2014-06-30T15:07:38Z</time>
      </trkpt>
      <trkpt lat="40.735650" lon="-4.606350">
        <ele>2814.0</ele>
        <time>2014-06-30T15:07:39Z</time>
      </trkpt>
      <trkpt lat="40.735667" lon="-4.606233">
        <ele>2812.0</ele>
        <time>2014-06-30T15:07:40Z</time>
      </trkpt>
      <trkpt lat="40.735700" lon="-4.606083">
        <ele>2809.0</ele>
        <time>2014-06-30T15:07:41Z</time>
      </trkpt>
      <trkpt lat="40.735733" lon="-4.605967">
        <ele>2806.0</ele>
        <time>2014-06-30T15:07:42Z</time>
      </trkpt>
      <trkpt lat="40.735767" lon="-4.605833">
        <ele>2804.0</ele>
        <time>2014-06-30T15:07:43Z</time>
      </trkpt>
      <trkpt lat="40.735817" lon="-4.605717">
        <ele>2801.0</ele>
        <time>2014-06-30T15:07:44Z</time>
      </trkpt>
      <trkpt lat="40.735867" lon="-4.605617">
        <ele>2798.0</ele>
        <time>2014-06-30T15:07:45Z</time>
      </trkpt>
      <trkpt lat="40.735917" lon="-4.605500">
        <ele>2794.0</ele>
        <time>2014-06-30T15:07:46Z</time>
      </trkpt>
      <trkpt lat="40.735983" lon="-4.605383">
        <ele>2792.0</ele>
        <time>2014-06-30T15:07:47Z</time>
      </trkpt>
      <trkpt lat="40.736033" lon="-4.605267">
        <ele>2789.0</ele>
        <time>2014-06-30T15:07:48Z</time>
      </trkpt>
      <trkpt lat="40.736083" lon="-4.605117">
        <ele>2786.0</ele>
        <time>2014-06-30T15:07:49Z</time>
      </trkpt>
      <trkpt lat="40.736117" lon="-4.604967">
        <ele>2783.0</ele>
        <time>2014-06-30T15:07:50Z</time>
      </trkpt>
      <trkpt lat="40.736150" lon="-4.604800">
        <ele>2780.0</ele>
        <time>2014-06-30T15:07:51Z</time>
      </trkpt>
      <trkpt lat="40.736167" lon="-4.604650">
        <ele>2778.0</ele>
        <time>2014-06-30T15:07:52Z</time>
      </trkpt>
      <trkpt lat="40.736183" lon="-4.604500">
        <ele>2777.0</ele>
        <time>2014-06-30T15:07:53Z</time>
      </trkpt>
      <trkpt lat="40.736183" lon="-4.604350">
        <ele>2775.0</ele>
        <time>2014-06-30T15:07:54Z</time>
      </trkpt>
      <trkpt lat="40.736200" lon="-4.604200">
        <ele>2772.0</ele>
        <time>2014-06-30T15:07:55Z</time>
      </trkpt>
      <trkpt lat="40.736217" lon="-4.604033">
        <ele>2770.0</ele>
        <time>2014-06-30T15:07:56Z</time>
      </trkpt>
      <trkpt lat="40.736233" lon="-4.603867">
        <ele>2768.0</ele>
        <time>2014-06-30T15:07:57Z</time>
      </trkpt>
      <trkpt lat="40.736250" lon="-4.603700">
        <ele>2767.0</ele>
        <time>2014-06-30T15:07:58Z</time>
      </trkpt>
      <trkpt lat="40.736267" lon="-4.603550">
        <ele>2765.0</ele>
        <time>2014-06-30T15:07:59Z</time>
      </trkpt>
      <trkpt lat="40.736300" lon="-4.603383">
        <ele>2763.0</ele>
        <time>2014-06-30T15:08:00Z</time>
      </trkpt>
      <trkpt lat="40.736317" lon="-4.603217">
        <ele>2761.0</ele>
        <time>2014-06-30T15:08:01Z</time>
      </trkpt>
      <trkpt lat="40.736350" lon="-4.603050">
        <ele>2759.0</ele>
        <time>2014-06-30T15:08:02Z</time>
      </trkpt>
      <trkpt lat="40.736383" lon="-4.602867">
        <ele>2757.0</ele>
        <time>2014-06-30T15:08:03Z</time>
      </trkpt>
      <trkpt lat="40.736417" lon="-4.602700">
        <ele>2756.0</ele>
        <time>2014-06-30T15:08:04Z</time>
      </trkpt>
      <trkpt lat="40.736450" lon="-4.602533">
        <ele>2755.0</ele>
        <time>2014-06-30T15:08:05Z</time>
      </trkpt>
      <trkpt lat="40.736483" lon="-4.602383">
        <ele>2754.0</ele>
        <time>2014-06-30T15:08:06Z</time>
      </trkpt>
      <trkpt lat="40.736500" lon="-4.602233">
        <ele>2752.0</ele>
        <time>2014-06-30T15:08:07Z</time>
      </trkpt>
      <trkpt lat="40.736533" lon="-4.602067">
        <ele>2751.0</ele>
        <time>2014-06-30T15:08:08Z</time>
      </trkpt>
      <trkpt lat="40.736550" lon="-4.601917">
        <ele>2748.0</ele>
        <time>2014-06-30T15:08:09Z</time>
      </trkpt>
      <trkpt lat="40.736583" lon="-4.601750">
        <ele>2746.0</ele>
        <time>2014-06-30T15:08:10Z</time>
      </trkpt>
      <trkpt lat="40.736600" lon="-4.601583">
        <ele>2744.0</ele>
        <time>2014-06-30T15:08:11Z</time>
      </trkpt>
      <trkpt lat="40.736633" lon="-4.601417">
        <ele>2741.0</ele>
        <time>2014-06-30T15:08:12Z</time>
      </trkpt>
      <trkpt lat="40.736650" lon="-4.601250">
        <ele>2739.0</ele>
        <time>2014-06-30T15:08:13Z</time>
      </trkpt>
      <trkpt lat="40.736667" lon="-4.601083">
        <ele>2737.0</ele>
        <time>2014-06-30T15:08:14Z</time>
      </trkpt>
      <trkpt lat="40.736700" lon="-4.600900">
        <ele>2734.0</ele>
        <time>2014-06-30T15:08:15Z</time>
      </trkpt>
      <trkpt lat="40.736700" lon="-4.600733">
        <ele>2731.0</ele>
        <time>2014-06-30T15:08:16Z</time>
      </trkpt>
      <trkpt lat="40.736717" lon="-4.600550">
        <ele>2728.0</ele>
        <time>2014-06-30T15:08:17Z</time>
      </trkpt>
      <trkpt lat="40.736733" lon="-4.600383">
        <ele>2725.0</ele>
        <time>2014-06-30T15:08:18Z</time>
      </trkpt>
      <trkpt lat="40.736750" lon="-4.600200">
        <ele>2721.0</ele>
        <time>2014-06-30T15:08:19Z</time>
      </trkpt>
      <trkpt lat="40.736750" lon="-4.600000">
        <ele>2719.0</ele>
        <time>2014-06-30T15:08:20Z</time>
      </trkpt>
      <trkpt lat="40.736767" lon="-4.599817">
        <ele>2716.0</ele>
        <time>2014-06-30T15:08:21Z</time>
      </trkpt>
      <trkpt lat="40.736783" lon="-4.599633">
        <ele>2713.0</ele>
        <time>2014-06-30T15:08:22Z</time>
      </trkpt>
      <trkpt lat="40.736783" lon="-4.599467">
        <ele>2710.0</ele>
        <time>2014-06-30T15:08:23Z</time>
      </trkpt>
      <trkpt lat="40.736783" lon="-4.599300">
        <ele>2707.0</ele>
        <time>2014-06-30T15:08:24Z</time>
      </trkpt>
      <trkpt lat="40.736800" lon="-4.599133">
        <ele>2705.0</ele>
        <time>2014-06-30T15:08:25Z</time>
      </trkpt>
      <trkpt lat="40.736800" lon="-4.598967">
        <ele>2703.0</ele>
        <time>2014-06-30T15:08:26Z</time>
      </trkpt>
      <trkpt lat="40.736783" lon="-4.598800">
        <ele>2701.0</ele>
        <time>2014-06-30T15:08:27Z</time>
      </trkpt>
      <trkpt lat="40.736783" lon="-4.598633">
        <ele>2699.0</ele>
        <time>2014-06-30T15:08:28Z</time>
      </trkpt>
      <trkpt lat="40.736783" lon="-4.598467">
        <ele>2697.0</ele>
        <time>2014-06-30T15:08:29Z</time>
      </trkpt>
      <trkpt lat="40.736800" lon="-4.598300">
        <ele>2694.0</ele>
        <time>2014-06-30T15:08:30Z</time>
      </trkpt>
      <trkpt lat="40.736817" lon="-4.598133">
        <ele>2691.0</ele>
        <time>2014-06-30T15:08:31Z</time>
      </trkpt>
      <trkpt lat="40.736867" lon="-4.597950">
        <ele>2687.0</ele>
        <time>2014-06-30T15:08:32Z</time>
      </trkpt>
      <trkpt lat="40.736900" lon="-4.597783">
        <ele>2685.0</ele>
        <time>2014-06-30T15:08:33Z</time>
      </trkpt>
      <trkpt lat="40.736950" lon="-4.597617">
        <ele>2683.0</ele>
        <time>2014-06-30T15:08:34Z</time>
      </trkpt>
      <trkpt lat="40.736983" lon="-4.597467">
        <ele>2681.0</ele>
        <time>2014-06-30T15:08:35Z</time>
      </trkpt>
      <trkpt lat="40.737017" lon="-4.597317">
        <ele>2679.0</ele>
        <time>2014-06-30T15:08:36Z</time>
      </trkpt>
      <trkpt lat="40.737050" lon="-4.597167">
        <ele>2678.0</ele>
        <time>2014-06-30T15:08:37Z</time>
      </trkpt>
      <trkpt lat="40.737067" lon="-4.597017">
        <ele>2676.0</ele>
        <time>2014-06-30T15:08:38Z</time>
      </trkpt>
      <trkpt lat="40.737083" lon="-4.596883">
        <ele>2674.0</ele>
        <time>2014-06-30T15:08:39Z</time>
      </trkpt>
      <trkpt lat="40.737117" lon="-4.596733">
        <ele>2672.0</ele>
        <time>2014-06-30T15:08:40Z</time>
      </trkpt>
      <trkpt lat="40.737167" lon="-4.596583">
        <ele>2670.0</ele>
        <time>2014-06-30T15:08:41Z</time>
      </trkpt>
      <trkpt lat="40.737200" lon="-4.596450">
        <ele>2668.0</ele>
        <time>2014-06-30T15:08:42Z</time>
      </trkpt>
      <trkpt lat="40.737233" lon="-4.596333">
        <ele>2667.0</ele>
        <time>2014-06-30T15:08:43Z</time>
      </trkpt>
      <trkpt lat="40.737283" lon="-4.596217">
        <ele>2665.0</ele>
        <time>2014-06-30T15:08:44Z</time>
      </trkpt>
      <trkpt lat="40.737317" lon="-4.596083">
        <ele>2663.0</ele>
        <time>2014-06-30T15:08:45Z</time>
      </trkpt>
      <trkpt lat="40.737367" lon="-4.595950">
        <ele>2661.0</ele>
        <time>2014-06-30T15:08:46Z</time>
      </trkpt>
      <trkpt lat="40.737400" lon="-4.595800">
        <ele>2659.0</ele>
        <time>2014-06-30T15:08:47Z</time>
      </trkpt>
      <trkpt lat="40.737433" lon="-4.595633">
        <ele>2657.0</ele>
        <time>2014-06-30T15:08:48Z</time>
      </trkpt>
      <trkpt lat="40.737450" lon="-4.595467">
        <ele>2654.0</ele>
        <time>2014-06-30T15:08:49Z</time>
      </trkpt>
      <trkpt lat="40.737483" lon="-4.595317">
        <ele>2652.0</ele>
        <time>2014-06-30T15:08:50Z</time>
      </trkpt>
      <trkpt lat="40.737517" lon="-4.595150">
        <ele>2650.0</ele>
        <time>2014-06-30T15:08:51Z</time>
      </trkpt>
      <trkpt lat="40.737550" lon="-4.595000">
        <ele>2648.0</ele>
        <time>2014-06-30T15:08:52Z</time>
      </trkpt>
      <trkpt lat="40.737583" lon="-4.594850">
        <ele>2646.0</ele>
        <time>2014-06-30T15:08:53Z</time>
      </trkpt>
      <trkpt lat="40.737633" lon="-4.594700">
        <ele>2644.0</ele>
        <time>2014-06-30T15:08:54Z</time>
      </trkpt>
      <trkpt lat="40.737667" lon="-4.594567">
        <ele>2641.0</ele>
        <time>2014-06-30T15:08:55Z</time>
      </trkpt>
      <trkpt lat="40.737717" lon="-4.594400">
        <ele>2639.0</ele>
        <time>2014-06-30T15:08:56Z</time>
      </trkpt>
      <trkpt lat="40.737750" lon="-4.594250">
        <ele>2636.0</ele>
        <time>2014-06-30T15:08:57Z</time>
      </trkpt>
      <trkpt lat="40.737783" lon="-4.594083">
        <ele>2633.0</ele>
        <time>2014-06-30T15:08:58Z</time>
      </trkpt>
      <trkpt lat="40.737817" lon="-4.593917">
        <ele>2630.0</ele>
        <time>2014-06-30T15:08:59Z</time>
      </trkpt>
      <trkpt lat="40.737850" lon="-4.593733">
        <ele>2626.0</ele>
        <time>2014-06-30T15:09:00Z</time>
      </trkpt>
      <trkpt lat="40.737883" lon="-4.593550">
        <ele>2623.0</ele>
        <time>2014-06-30T15:09:01Z</time>
      </trkpt>
      <trkpt lat="40.737933" lon="-4.593367">
        <ele>2620.0</ele>
        <time>2014-06-30T15:09:02Z</time>
      </trkpt>
      <trkpt lat="40.737967" lon="-4.593183">
        <ele>2617.0</ele>
        <time>2014-06-30T15:09:03Z</time>
      </trkpt>
      <trkpt lat="40.738000" lon="-4.593000">
        <ele>2614.0</ele>
        <time>2014-06-30T15:09:04Z</time>
      </trkpt>
      <trkpt lat="40.738033" lon="-4.592850">
        <ele>2612.0</ele>
        <time>2014-06-30T15:09:05Z</time>
      </trkpt>
      <trkpt lat="40.738083" lon="-4.592700">
        <ele>2609.0</ele>
        <time>2014-06-30T15:09:06Z</time>
      </trkpt>
      <trkpt lat="40.738150" lon="-4.592567">
        <ele>2606.0</ele>
        <time>2014-06-30T15:09:07Z</time>
      </trkpt>
      <trkpt lat="40.738217" lon="-4.592417">
        <ele>2602.0</ele>
        <time>2014-06-30T15:09:08Z</time>
      </trkpt>
      <trkpt lat="40.738267" lon="-4.592283">
        <ele>2599.0</ele>
        <time>2014-06-30T15:09:09Z</time>
      </trkpt>
      <trkpt lat="40.738333" lon="-4.592117">
        <ele>2596.0</ele>
        <time>2014-06-30T15:09:10Z</time>
      </trkpt>
      <trkpt lat="40.738383" lon="-4.591967">
        <ele>2593.0</ele>
        <time>2014-06-30T15:09:11Z</time>
      </trkpt>
      <trkpt lat="40.738433" lon="-4.591800">
        <ele>2591.0</ele>
        <time>2014-06-30T15:09:12Z</time>
      </trkpt>
      <trkpt lat="40.738483" lon="-4.591633">
        <ele>2588.0</ele>
        <time>2014-06-30T15:09:13Z</time>
      </trkpt>
      <trkpt lat="40.738533" lon="-4.591467">
        <ele>2585.0</ele>
        <time>2014-06-30T15:09:14Z</time>
      </trkpt>
      <trkpt lat="40.738567" lon="-4.591317">
        <ele>2583.0</ele>
        <time>2014-06-30T15:09:15Z</time>
      </trkpt>
      <trkpt lat="40.738617" lon="-4.591183">
        <ele>2581.0</ele>
        <time>2014-06-30T15:09:16Z</time>
      </trkpt>
      <trkpt lat="40.738683" lon="-4.591083">
        <ele>2580.0</ele>
        <time>2014-06-30T15:09:17Z</time>
      </trkpt>
      <trkpt lat="40.738733" lon="-4.590950">
        <ele>2579.0</ele>
        <time>2014-06-30T15:09:18Z</time>
      </trkpt>
      <trkpt lat="40.738800" lon="-4.590833">
        <ele>2577.0</ele>
        <time>2014-06-30T15:09:19Z</time>
      </trkpt>
      <trkpt lat="40.738867" lon="-4.590700">
        <ele>2575.0</ele>
        <time>2014-06-30T15:09:20Z</time>
      </trkpt>
      <trkpt lat="40.738933" lon="-4.590583">
        <ele>2573.0</ele>
        <time>2014-06-30T15:09:21Z</time>
      </trkpt>
      <trkpt lat="40.739000" lon="-4.590467">
        <ele>2571.0</ele>
        <time>2014-06-30T15:09:22Z</time>
      </trkpt>
      <trkpt lat="40.739067" lon="-4.590367">
        <ele>2569.0</ele>
        <time>2014-06-30T15:09:23Z</time>
      </trkpt>
      <trkpt lat="40.739133" lon="-4.590250">
        <ele>2567.0</ele>
        <time>2014-06-30T15:09:24Z</time>
      </trkpt>
      <trkpt lat="40.739200" lon="-4.590133">
        <ele>2566.0</ele>
        <time>2014-06-30T15:09:25Z</time>
      </trkpt>
      <trkpt lat="40.739267" lon="-4.590017">
        <ele>2564.0</ele>
        <time>2014-06-30T15:09:26Z</time>
      </trkpt>
      <trkpt lat="40.739333" lon="-4.589883">
        <ele>2561.0</ele>
        <time>2014-06-30T15:09:27Z</time>
      </trkpt>
      <trkpt lat="40.739417" lon="-4.589733">
        <ele>2559.0</ele>
        <time>2014-06-30T15:09:28Z</time>
      </trkpt>
      <trkpt lat="40.739483" lon="-4.589617">
        <ele>2558.0</ele>
        <time>2014-06-30T15:09:29Z</time>
      </trkpt>
      <trkpt lat="40.739550" lon="-4.589500">
        <ele>2557.0</ele>
        <time>2014-06-30T15:09:30Z</time>
      </trkpt>
      <trkpt lat="40.739617" lon="-4.589383">
        <ele>2556.0</ele>
        <time>2014-06-30T15:09:31Z</time>
      </trkpt>
      <trkpt lat="40.739683" lon="-4.589250">
        <ele>2555.0</ele>
        <time>2014-06-30T15:09:32Z</time>
      </trkpt>
      <trkpt lat="40.739750" lon="-4.589117">
        <ele>2552.0</ele>
        <time>2014-06-30T15:09:33Z</time>
      </trkpt>
      <trkpt lat="40.739817" lon="-4.588967">
        <ele>2550.0</ele>
        <time>2014-06-30T15:09:34Z</time>
      </trkpt>
      <trkpt lat="40.739883" lon="-4.588817">
        <ele>2548.0</ele>
        <time>2014-06-30T15:09:35Z</time>
      </trkpt>
      <trkpt lat="40.739950" lon="-4.588683">
        <ele>2546.0</ele>
        <time>2014-06-30T15:09:36Z</time>
      </trkpt>
      <trkpt lat="40.740017" lon="-4.588533">
        <ele>2544.0</ele>
        <time>2014-06-30T15:09:37Z</time>
      </trkpt>
      <trkpt lat="40.740083" lon="-4.588383">
        <ele>2542.0</ele>
        <time>2014-06-30T15:09:38Z</time>
      </trkpt>
      <trkpt lat="40.740150" lon="-4.588217">
        <ele>2540.0</ele>
        <time>2014-06-30T15:09:39Z</time>
      </trkpt>
      <trkpt lat="40.740233" lon="-4.588067">
        <ele>2537.0</ele>
        <time>2014-06-30T15:09:40Z</time>
      </trkpt>
      <trkpt lat="40.740317" lon="-4.587900">
        <ele>2535.0</ele>
        <time>2014-06-30T15:09:41Z</time>
      </trkpt>
      <trkpt lat="40.740400" lon="-4.587733">
        <ele>2533.0</ele>
        <time>2014-06-30T15:09:42Z</time>
      </trkpt>
      <trkpt lat="40.740467" lon="-4.587583">
        <ele>2530.0</ele>
        <time>2014-06-30T15:09:43Z</time>
      </trkpt>
      <trkpt lat="40.740550" lon="-4.587433">
        <ele>2527.0</ele>
        <time>2014-06-30T15:09:44Z</time>
      </trkpt>
      <trkpt lat="40.740633" lon="-4.587267">
        <ele>2523.0</ele>
        <time>2014-06-30T15:09:45Z</time>
      </trkpt>
      <trkpt lat="40.740717" lon="-4.587117">
        <ele>2520.0</ele>
        <time>2014-06-30T15:09:46Z</time>
      </trkpt>
      <trkpt lat="40.740783" lon="-4.586950">
        <ele>2517.0</ele>
        <time>2014-06-30T15:09:47Z</time>
      </trkpt>
      <trkpt lat="40.740867" lon="-4.586783">
        <ele>2514.0</ele>
        <time>2014-06-30T15:09:48Z</time>
      </trkpt>
      <trkpt lat="40.740917" lon="-4.586617">
        <ele>2511.0</ele>
        <time>2014-06-30T15:09:49Z</time>
      </trkpt>
      <trkpt lat="40.740983" lon="-4.586433">
        <ele>2507.0</ele>
        <time>2014-06-30T15:09:50Z</time>
      </trkpt>
      <trkpt lat="40.741033" lon="-4.586233">
        <ele>2503.0</ele>
        <time>2014-06-30T15:09:51Z</time>
      </trkpt>
      <trkpt lat="40.741083" lon="-4.586050">
        <ele>2499.0</ele>
        <time>2014-06-30T15:09:52Z</time>
      </trkpt>
      <trkpt lat="40.741133" lon="-4.585850">
        <ele>2496.0</ele>
        <time>2014-06-30T15:09:53Z</time>
      </trkpt>
      <trkpt lat="40.741183" lon="-4.585667">
        <ele>2492.0</ele>
        <time>2014-06-30T15:09:54Z</time>
      </trkpt>
      <trkpt lat="40.741233" lon="-4.585483">
        <ele>2489.0</ele>
        <time>2014-06-30T15:09:55Z</time>
      </trkpt>
      <trkpt lat="40.741267" lon="-4.585300">
        <ele>2486.0</ele>
        <time>2014-06-30T15:09:56Z</time>
      </trkpt>
      <trkpt lat="40.741317" lon="-4.585133">
        <ele>2483.0</ele>
        <time>2014-06-30T15:09:57Z</time>
      </trkpt>
      <trkpt lat="40.741350" lon="-4.584950">
        <ele>2481.0</ele>
        <time>2014-06-30T15:09:58Z</time>
      </trkpt>
      <trkpt lat="40.741383" lon="-4.584767">
        <ele>2478.0</ele>
        <time>2014-06-30T15:09:59Z</time>
      </trkpt>
      <trkpt lat="40.741400" lon="-4.584583">
        <ele>2474.0</ele>
        <time>2014-06-30T15:10:00Z</time>
      </trkpt>
      <trkpt lat="40.741433" lon="-4.584400">
        <ele>2470.0</ele>
        <time>2014-06-30T15:10:01Z</time>
      </trkpt>
      <trkpt lat="40.741467" lon="-4.584200">
        <ele>2465.0</ele>
        <time>2014-06-30T15:10:02Z</time>
      </trkpt>
      <trkpt lat="40.741500" lon="-4.584000">
        <ele>2461.0</ele>
        <time>2014-06-30T15:10:03Z</time>
      </trkpt>
      <trkpt lat="40.741533" lon="-4.583817">
        <ele>2456.0</ele>
        <time>2014-06-30T15:10:04Z</time>
      </trkpt>
      <trkpt lat="40.741567" lon="-4.583633">
        <ele>2453.0</ele>
        <time>2014-06-30T15:10:05Z</time>
      </trkpt>
      <trkpt lat="40.741617" lon="-4.583450">
        <ele>2449.0</ele>
        <time>2014-06-30T15:10:06Z</time>
      </trkpt>
      <trkpt lat="40.741650" lon="-4.583250">
        <ele>2445.0</ele>
        <time>2014-06-30T15:10:07Z</time>
      </trkpt>
      <trkpt lat="40.741683" lon="-4.583050">
        <ele>2441.0</ele>
        <time>2014-06-30T15:10:08Z</time>
      </trkpt>
      <trkpt lat="40.741717" lon="-4.582867">
        <ele>2437.0</ele>
        <time>2014-06-30T15:10:09Z</time>
      </trkpt>
      <trkpt lat="40.741750" lon="-4.582667">
        <ele>2434.0</ele>
        <time>2014-06-30T15:10:10Z</time>
      </trkpt>
      <trkpt lat="40.741783" lon="-4.582483">
        <ele>2431.0</ele>
        <time>2014-06-30T15:10:11Z</time>
      </trkpt>
      <trkpt lat="40.741817" lon="-4.582333">
        <ele>2428.0</ele>
        <time>2014-06-30T15:10:12Z</time>
      </trkpt>
      <trkpt lat="40.741867" lon="-4.582167">
        <ele>2424.0</ele>
        <time>2014-06-30T15:10:13Z</time>
      </trkpt>
      <trkpt lat="40.741917" lon="-4.582017">
        <ele>2420.0</ele>
        <time>2014-06-30T15:10:14Z</time>
      </trkpt>
      <trkpt lat="40.741983" lon="-4.581850">
        <ele>2416.0</ele>
        <time>2014-06-30T15:10:15Z</time>
      </trkpt>
      <trkpt lat="40.742033" lon="-4.581683">
        <ele>2412.0</ele>
        <time>2014-06-30T15:10:16Z</time>
      </trkpt>
      <trkpt lat="40.742100" lon="-4.581533">
        <ele>2407.0</ele>
        <time>2014-06-30T15:10:17Z</time>
      </trkpt>
      <trkpt lat="40.742150" lon="-4.581367">
        <ele>2402.0</ele>
        <time>2014-06-30T15:10:18Z</time>
      </trkpt>
      <trkpt lat="40.742200" lon="-4.581200">
        <ele>2398.0</ele>
        <time>2014-06-30T15:10:19Z</time>
      </trkpt>
      <trkpt lat="40.742233" lon="-4.581050">
        <ele>2394.0</ele>
        <time>2014-06-30T15:10:20Z</time>
      </trkpt>
      <trkpt lat="40.742267" lon="-4.580900">
        <ele>2391.0</ele>
        <time>2014-06-30T15:10:21Z</time>
      </trkpt>
      <trkpt lat="40.742300" lon="-4.580767">
        <ele>2387.0</ele>
        <time>2014-06-30T15:10:22Z</time>
      </trkpt>
      <trkpt lat="40.742317" lon="-4.580633">
        <ele>2383.0</ele>
        <time>2014-06-30T15:10:23Z</time>
      </trkpt>
      <trkpt lat="40.742367" lon="-4.580483">
        <ele>2379.0</ele>
        <time>2014-06-30T15:10:24Z</time>
      </trkpt>
      <trkpt lat="40.742417" lon="-4.580333">
        <ele>2374.0</ele>
        <time>2014-06-30T15:10:25Z</time>
      </trkpt>
      <trkpt lat="40.742483" lon="-4.580183">
        <ele>2370.0</ele>
        <time>2014-06-30T15:10:26Z</time>
      </trkpt>
      <trkpt lat="40.742550" lon="-4.580033">
        <ele>2367.0</ele>
        <time>2014-06-30T15:10:27Z</time>
      </trkpt>
      <trkpt lat="40.742600" lon="-4.579900">
        <ele>2364.0</ele>
        <time>2014-06-30T15:10:28Z</time>
      </trkpt>
      <trkpt lat="40.742633" lon="-4.579750">
        <ele>2362.0</ele>
        <time>2014-06-30T15:10:29Z</time>
      </trkpt>
      <trkpt lat="40.742683" lon="-4.579617">
        <ele>2360.0</ele>
        <time>2014-06-30T15:10:30Z</time>
      </trkpt>
      <trkpt lat="40.742717" lon="-4.579467">
        <ele>2357.0</ele>
        <time>2014-06-30T15:10:31Z</time>
      </trkpt>
      <trkpt lat="40.742767" lon="-4.579300">
        <ele>2355.0</ele>
        <time>2014-06-30T15:10:32Z</time>
      </trkpt>
      <trkpt lat="40.742800" lon="-4.579133">
        <ele>2352.0</ele>
        <time>2014-06-30T15:10:33Z</time>
      </trkpt>
      <trkpt lat="40.742850" lon="-4.578983">
        <ele>2350.0</ele>
        <time>2014-06-30T15:10:34Z</time>
      </trkpt>
      <trkpt lat="40.742883" lon="-4.578833">
        <ele>2348.0</ele>
        <time>2014-06-30T15:10:35Z</time>
      </trkpt>
      <trkpt lat="40.742917" lon="-4.578717">
        <ele>2348.0</ele>
        <time>2014-06-30T15:10:36Z</time>
      </trkpt>
      <trkpt lat="40.742950" lon="-4.578600">
        <ele>2349.0</ele>
        <time>2014-06-30T15:10:37Z</time>
      </trkpt>
      <trkpt lat="40.743000" lon="-4.578483">
        <ele>2349.0</ele>
        <time>2014-06-30T15:10:38Z</time>
      </trkpt>
      <trkpt lat="40.743033" lon="-4.578350">
        <ele>2349.0</ele>
        <time>2014-06-30T15:10:39Z</time>
      </trkpt>
      <trkpt lat="40.743083" lon="-4.578217">
        <ele>2350.0</ele>
        <time>2014-06-30T15:10:40Z</time>
      </trkpt>
      <trkpt lat="40.743133" lon="-4.578083">
        <ele>2349.0</ele>
        <time>2014-06-30T15:10:41Z</time>
      </trkpt>
      <trkpt lat="40.743167" lon="-4.577967">
        <ele>2349.0</ele>
        <time>2014-06-30T15:10:42Z</time>
      </trkpt>
      <trkpt lat="40.743217" lon="-4.577833">
        <ele>2350.0</ele>
        <time>2014-06-30T15:10:43Z</time>
      </trkpt>
      <trkpt lat="40.743267" lon="-4.577717">
        <ele>2351.0</ele>
        <time>2014-06-30T15:10:44Z</time>
      </trkpt>
      <trkpt lat="40.743317" lon="-4.577600">
        <ele>2353.0</ele>
        <time>2014-06-30T15:10:45Z</time>
      </trkpt>
      <trkpt lat="40.743383" lon="-4.577483">
        <ele>2354.0</ele>
        <time>2014-06-30T15:10:46Z</time>
      </trkpt>
      <trkpt lat="40.743433" lon="-4.577350">
        <ele>2355.0</ele>
        <time>2014-06-30T15:10:47Z</time>
      </trkpt>
      <trkpt lat="40.743467" lon="-4.577233">
        <ele>2356.0</ele>
        <time>2014-06-30T15:10:48Z</time>
      </trkpt>
      <trkpt lat="40.743517" lon="-4.577117">
        <ele>2356.0</ele>
        <time>2014-06-30T15:10:49Z</time>
      </trkpt>
      <trkpt lat="40.743550" lon="-4.577000">
        <ele>2357.0</ele>
        <time>2014-06-30T15:10:50Z</time>
      </trkpt>
      <trkpt lat="40.743583" lon="-4.576867">
        <ele>2358.0</ele>
        <time>2014-06-30T15:10:51Z</time>
      </trkpt>
      <trkpt lat="40.743600" lon="-4.576733">
        <ele>2358.0</ele>
        <time>2014-06-30T15:10:52Z</time>
      </trkpt>
      <trkpt lat="40.743617" lon="-4.576583">
        <ele>2358.0</ele>
        <time>2014-06-30T15:10:53Z</time>
      </trkpt>
      <trkpt lat="40.743633" lon="-4.576433">
        <ele>2359.0</ele>
        <time>2014-06-30T15:10:54Z</time>
      </trkpt>
      <trkpt lat="40.743650" lon="-4.576300">
        <ele>2361.0</ele>
        <time>2014-06-30T15:10:55Z</time>
      </trkpt>
      <trkpt lat="40.743650" lon="-4.576167">
        <ele>2362.0</ele>
        <time>2014-06-30T15:10:56Z</time>
      </trkpt>
      <trkpt lat="40.743667" lon="-4.576050">
        <ele>2363.0</ele>
        <time>2014-06-30T15:10:57Z</time>
      </trkpt>
      <trkpt lat="40.743683" lon="-4.575933">
        <ele>2364.0</ele>
        <time>2014-06-30T15:10:58Z</time>
      </trkpt>
      <trkpt lat="40.743700" lon="-4.575783">
        <ele>2363.0</ele>
        <time>2014-06-30T15:10:59Z</time>
      </trkpt>
      <trkpt lat="40.743717" lon="-4.575650">
        <ele>2362.0</ele>
        <time>2014-06-30T15:11:00Z</time>
      </trkpt>
      <trkpt lat="40.743767" lon="-4.575500">
        <ele>2361.0</ele>
        <time>2014-06-30T15:11:01Z</time>
      </trkpt>
      <trkpt lat="40.743800" lon="-4.575367">
        <ele>2359.0</ele>
        <time>2014-06-30T15:11:02Z</time>
      </trkpt>
      <trkpt lat="40.743833" lon="-4.575250">
        <ele>2359.0</ele>
        <time>2014-06-30T15:11:03Z</time>
      </trkpt>
      <trkpt lat="40.743867" lon="-4.575117">
        <ele>2359.0</ele>
        <time>2014-06-30T15:11:04Z</time>
      </trkpt>
      <trkpt lat="40.743917" lon="-4.575000">
        <ele>2359.0</ele>
        <time>2014-06-30T15:11:05Z</time>
      </trkpt>
      <trkpt lat="40.743967" lon="-4.574883">
        <ele>2359.0</ele>
        <time>2014-06-30T15:11:06Z</time>
      </trkpt>
      <trkpt lat="40.744017" lon="-4.574767">
        <ele>2360.0</ele>
        <time>2014-06-30T15:11:07Z</time>
      </trkpt>
      <trkpt lat="40.744067" lon="-4.574650">
        <ele>2360.0</ele>
        <time>2014-06-30T15:11:08Z</time>
      </trkpt>
      <trkpt lat="40.744133" lon="-4.574517">
        <ele>2361.0</ele>
        <time>2014-06-30T15:11:09Z</time>
      </trkpt>
      <trkpt lat="40.744167" lon="-4.574400">
        <ele>2361.0</ele>
        <time>2014-06-30T15:11:10Z</time>
      </trkpt>
      <trkpt lat="40.744233" lon="-4.574283">
        <ele>2361.0</ele>
        <time>2014-06-30T15:11:11Z</time>
      </trkpt>
      <trkpt lat="40.744283" lon="-4.574167">
        <ele>2361.0</ele>
        <time>2014-06-30T15:11:12Z</time>
      </trkpt>
      <trkpt lat="40.744350" lon="-4.574033">
        <ele>2361.0</ele>
        <time>2014-06-30T15:11:13Z</time>
      </trkpt>
      <trkpt lat="40.744417" lon="-4.573917">
        <ele>2363.0</ele>
        <time>2014-06-30T15:11:14Z</time>
      </trkpt>
      <trkpt lat="40.744483" lon="-4.573817">
        <ele>2365.0</ele>
        <time>2014-06-30T15:11:15Z</time>
      </trkpt>
      <trkpt lat="40.744550" lon="-4.573717">
        <ele>2365.0</ele>
        <time>2014-06-30T15:11:16Z</time>
      </trkpt>
      <trkpt lat="40.744600" lon="-4.573617">
        <ele>2366.0</ele>
        <time>2014-06-30T15:11:17Z</time>
      </trkpt>
      <trkpt lat="40.744667" lon="-4.573517">
        <ele>2365.0</ele>
        <time>2014-06-30T15:11:18Z</time>
      </trkpt>
      <trkpt lat="40.744750" lon="-4.573417">
        <ele>2365.0</ele>
        <time>2014-06-30T15:11:19Z</time>
      </trkpt>
      <trkpt lat="40.744833" lon="-4.573283">
        <ele>2365.0</ele>
        <time>2014-06-30T15:11:20Z</time>
      </trkpt>
      <trkpt lat="40.744917" lon="-4.573150">
        <ele>2364.0</ele>
        <time>2014-06-30T15:11:21Z</time>
      </trkpt>
      <trkpt lat="40.745000" lon="-4.573017">
        <ele>2362.0</ele>
        <time>2014-06-30T15:11:22Z</time>
      </trkpt>
      <trkpt lat="40.745083" lon="-4.572867">
        <ele>2360.0</ele>
        <time>2014-06-30T15:11:23Z</time>
      </trkpt>
      <trkpt lat="40.745183" lon="-4.572717">
        <ele>2357.0</ele>
        <time>2014-06-30T15:11:24Z</time>
      </trkpt>
      <trkpt lat="40.745267" lon="-4.572567">
        <ele>2355.0</ele>
        <time>2014-06-30T15:11:25Z</time>
      </trkpt>
      <trkpt lat="40.745350" lon="-4.572400">
        <ele>2352.0</ele>
        <time>2014-06-30T15:11:26Z</time>
      </trkpt>
      <trkpt lat="40.745433" lon="-4.572233">
        <ele>2349.0</ele>
        <time>2014-06-30T15:11:27Z</time>
      </trkpt>
      <trkpt lat="40.745533" lon="-4.572067">
        <ele>2347.0</ele>
        <time>2014-06-30T15:11:28Z</time>
      </trkpt>
      <trkpt lat="40.745617" lon="-4.571900">
        <ele>2344.0</ele>
        <time>2014-06-30T15:11:29Z</time>
      </trkpt>
      <trkpt lat="40.745700" lon="-4.571750">
        <ele>2342.0</ele>
        <time>2014-06-30T15:11:30Z</time>
      </trkpt>
      <trkpt lat="40.745767" lon="-4.571583">
        <ele>2339.0</ele>
        <time>2014-06-30T15:11:31Z</time>
      </trkpt>
      <trkpt lat="40.745833" lon="-4.571417">
        <ele>2337.0</ele>
        <time>2014-06-30T15:11:32Z</time>
      </trkpt>
      <trkpt lat="40.745900" lon="-4.571250">
        <ele>2335.0</ele>
        <time>2014-06-30T15:11:33Z</time>
      </trkpt>
      <trkpt lat="40.745950" lon="-4.571100">
        <ele>2333.0</ele>
        <time>2014-06-30T15:11:34Z</time>
      </trkpt>
      <trkpt lat="40.746000" lon="-4.570917">
        <ele>2330.0</ele>
        <time>2014-06-30T15:11:35Z</time>
      </trkpt>
      <trkpt lat="40.746050" lon="-4.570717">
        <ele>2328.0</ele>
        <time>2014-06-30T15:11:36Z</time>
      </trkpt>
      <trkpt lat="40.746100" lon="-4.570550">
        <ele>2327.0</ele>
        <time>2014-06-30T15:11:37Z</time>
      </trkpt>
      <trkpt lat="40.746133" lon="-4.570400">
        <ele>2326.0</ele>
        <time>2014-06-30T15:11:38Z</time>
      </trkpt>
      <trkpt lat="40.746183" lon="-4.570250">
        <ele>2325.0</ele>
        <time>2014-06-30T15:11:39Z</time>
      </trkpt>
      <trkpt lat="40.746233" lon="-4.570100">
        <ele>2324.0</ele>
        <time>2014-06-30T15:11:40Z</time>
      </trkpt>
      <trkpt lat="40.746283" lon="-4.569950">
        <ele>2322.0</ele>
        <time>2014-06-30T15:11:41Z</time>
      </trkpt>
      <trkpt lat="40.746333" lon="-4.569783">
        <ele>2321.0</ele>
        <time>2014-06-30T15:11:42Z</time>
      </trkpt>
      <trkpt lat="40.746383" lon="-4.569600">
        <ele>2322.0</ele>
        <time>2014-06-30T15:11:43Z</time>
      </trkpt>
      <trkpt lat="40.746433" lon="-4.569433">
        <ele>2322.0</ele>
        <time>2014-06-30T15:11:44Z</time>
      </trkpt>
      <trkpt lat="40.746483" lon="-4.569267">
        <ele>2323.0</ele>
        <time>2014-06-30T15:11:45Z</time>
      </trkpt>
      <trkpt lat="40.746533" lon="-4.569133">
        <ele>2323.0</ele>
        <time>2014-06-30T15:11:46Z</time>
      </trkpt>
      <trkpt lat="40.746567" lon="-4.569000">
        <ele>2322.0</ele>
        <time>2014-06-30T15:11:47Z</time>
      </trkpt>
      <trkpt lat="40.746600" lon="-4.568883">
        <ele>2322.0</ele>
        <time>2014-06-30T15:11:48Z</time>
      </trkpt>
      <trkpt lat="40.746650" lon="-4.568733">
        <ele>2321.0</ele>
        <time>2014-06-30T15:11:49Z</time>
      </trkpt>
      <trkpt lat="40.746683" lon="-4.568583">
        <ele>2317.0</ele>
        <time>2014-06-30T15:11:50Z</time>
      </trkpt>
      <trkpt lat="40.746733" lon="-4.568417">
        <ele>2314.0</ele>
        <time>2014-06-30T15:11:51Z</time>
      </trkpt>
      <trkpt lat="40.746767" lon="-4.568250">
        <ele>2312.0</ele>
        <time>2014-06-30T15:11:52Z</time>
      </trkpt>
      <trkpt lat="40.746800" lon="-4.568083">
        <ele>2310.0</ele>
        <time>2014-06-30T15:11:53Z</time>
      </trkpt>
      <trkpt lat="40.746833" lon="-4.567917">
        <ele>2308.0</ele>
        <time>2014-06-30T15:11:54Z</time>
      </trkpt>
      <trkpt lat="40.746850" lon="-4.567750">
        <ele>2307.0</ele>
        <time>2014-06-30T15:11:55Z</time>
      </trkpt>
      <trkpt lat="40.746867" lon="-4.567583">
        <ele>2306.0</ele>
        <time>2014-06-30T15:11:56Z</time>
      </trkpt>
      <trkpt lat="40.746883" lon="-4.567433">
        <ele>2305.0</ele>
        <time>2014-06-30T15:11:57Z</time>
      </trkpt>
      <trkpt lat="40.746900" lon="-4.567267">
        <ele>2304.0</ele>
        <time>2014-06-30T15:11:58Z</time>
      </trkpt>
      <trkpt lat="40.746883" lon="-4.567083">
        <ele>2302.0</ele>
        <time>2014-06-30T15:11:59Z</time>
      </trkpt>
      <trkpt lat="40.746883" lon="-4.566917">
        <ele>2300.0</ele>
        <time>2014-06-30T15:12:00Z</time>
      </trkpt>
      <trkpt lat="40.746867" lon="-4.566733">
        <ele>2299.0</ele>
        <time>2014-06-30T15:12:01Z</time>
      </trkpt>
      <trkpt lat="40.746867" lon="-4.566567">
        <ele>2298.0</ele>
        <time>2014-06-30T15:12:02Z</time>
      </trkpt>
      <trkpt lat="40.746867" lon="-4.566417">
        <ele>2297.0</ele>
        <time>2014-06-30T15:12:03Z</time>
      </trkpt>
      <trkpt lat="40.746883" lon="-4.566250">
        <ele>2297.0</ele>
        <time>2014-06-30T15:12:04Z</time>
      </trkpt>
      <trkpt lat="40.746900" lon="-4.566100">
        <ele>2296.0</ele>
        <time>2014-06-30T15:12:05Z</time>
      </trkpt>
      <trkpt lat="40.746933" lon="-4.565933">
        <ele>2295.0</ele>
        <time>2014-06-30T15:12:06Z</time>
      </trkpt>
      <trkpt lat="40.746950" lon="-4.565750">
        <ele>2294.0</ele>
        <time>2014-06-30T15:12:07Z</time>
      </trkpt>
      <trkpt lat="40.746983" lon="-4.565583">
        <ele>2294.0</ele>
        <time>2014-06-30T15:12:08Z</time>
      </trkpt>
      <trkpt lat="40.747017" lon="-4.565433">
        <ele>2293.0</ele>
        <time>2014-06-30T15:12:09Z</time>
      </trkpt>
      <trkpt lat="40.747050" lon="-4.565283">
        <ele>2294.0</ele>
        <time>2014-06-30T15:12:10Z</time>
      </trkpt>
      <trkpt lat="40.747067" lon="-4.565133">
        <ele>2294.0</ele>
        <time>2014-06-30T15:12:11Z</time>
      </trkpt>
      <trkpt lat="40.747083" lon="-4.564983">
        <ele>2294.0</ele>
        <time>2014-06-30T15:12:12Z</time>
      </trkpt>
      <trkpt lat="40.747083" lon="-4.564833">
        <ele>2293.0</ele>
        <time>2014-06-30T15:12:13Z</time>
      </trkpt>
      <trkpt lat="40.747100" lon="-4.564683">
        <ele>2293.0</ele>
        <time>2014-06-30T15:12:14Z</time>
      </trkpt>
      <trkpt lat="40.747100" lon="-4.564517">
        <ele>2291.0</ele>
        <time>2014-06-30T15:12:15Z</time>
      </trkpt>
      <trkpt lat="40.747117" lon="-4.564350">
        <ele>2291.0</ele>
        <time>2014-06-30T15:12:16Z</time>
      </trkpt>
      <trkpt lat="40.747117" lon="-4.564183">
        <ele>2290.0</ele>
        <time>2014-06-30T15:12:17Z</time>
      </trkpt>
      <trkpt lat="40.747133" lon="-4.564017">
        <ele>2289.0</ele>
        <time>2014-06-30T15:12:18Z</time>
      </trkpt>
      <trkpt lat="40.747150" lon="-4.563833">
        <ele>2288.0</ele>
        <time>2014-06-30T15:12:19Z</time>
      </trkpt>
      <trkpt lat="40.747167" lon="-4.563667">
        <ele>2287.0</ele>
        <time>2014-06-30T15:12:20Z</time>
      </trkpt>
      <trkpt lat="40.747183" lon="-4.563483">
        <ele>2285.0</ele>
        <time>2014-06-30T15:12:21Z</time>
      </trkpt>
      <trkpt lat="40.747200" lon="-4.563333">
        <ele>2285.0</ele>
        <time>2014-06-30T15:12:22Z</time>
      </trkpt>
      <trkpt lat="40.747217" lon="-4.563150">
        <ele>2284.0</ele>
        <time>2014-06-30T15:12:23Z</time>
      </trkpt>
      <trkpt lat="40.747250" lon="-4.562983">
        <ele>2282.0</ele>
        <time>2014-06-30T15:12:24Z</time>
      </trkpt>
      <trkpt lat="40.747250" lon="-4.562800">
        <ele>2281.0</ele>
        <time>2014-06-30T15:12:25Z</time>
      </trkpt>
      <trkpt lat="40.747267" lon="-4.562617">
        <ele>2280.0</ele>
        <time>2014-06-30T15:12:26Z</time>
      </trkpt>
      <trkpt lat="40.747267" lon="-4.562433">
        <ele>2279.0</ele>
        <time>2014-06-30T15:12:27Z</time>
      </trkpt>
      <trkpt lat="40.747267" lon="-4.562250">
        <ele>2279.0</ele>
        <time>2014-06-30T15:12:28Z</time>
      </trkpt>
      <trkpt lat="40.747250" lon="-4.562050">
        <ele>2277.0</ele>
        <time>2014-06-30T15:12:29Z</time>
      </trkpt>
      <trkpt lat="40.747267" lon="-4.561867">
        <ele>2276.0</ele>
        <time>2014-06-30T15:12:30Z</time>
      </trkpt>
      <trkpt lat="40.747267" lon="-4.561667">
        <ele>2274.0</ele>
        <time>2014-06-30T15:12:31Z</time>
      </trkpt>
      <trkpt lat="40.747267" lon="-4.561483">
        <ele>2273.0</ele>
        <time>2014-06-30T15:12:32Z</time>
      </trkpt>
      <trkpt lat="40.747267" lon="-4.561300">
        <ele>2271.0</ele>
        <time>2014-06-30T15:12:33Z</time>
      </trkpt>
      <trkpt lat="40.747267" lon="-4.561117">
        <ele>2270.0</ele>
        <time>2014-06-30T15:12:34Z</time>
      </trkpt>
      <trkpt lat="40.747267" lon="-4.560933">
        <ele>2269.0</ele>
        <time>2014-06-30T15:12:35Z</time>
      </trkpt>
      <trkpt lat="40.747267" lon="-4.560750">
        <ele>2267.0</ele>
        <time>2014-06-30T15:12:36Z</time>
      </trkpt>
      <trkpt lat="40.747267" lon="-4.560567">
        <ele>2266.0</ele>
        <time>2014-06-30T15:12:37Z</time>
      </trkpt>
      <trkpt lat="40.747283" lon="-4.560383">
        <ele>2264.0</ele>
        <time>2014-06-30T15:12:38Z</time>
      </trkpt>
      <trkpt lat="40.747300" lon="-4.560217">
        <ele>2264.0</ele>
        <time>2014-06-30T15:12:39Z</time>
      </trkpt>
      <trkpt lat="40.747300" lon="-4.560050">
        <ele>2262.0</ele>
        <time>2014-06-30T15:12:40Z</time>
      </trkpt>
      <trkpt lat="40.747317" lon="-4.559867">
        <ele>2261.0</ele>
        <time>2014-06-30T15:12:41Z</time>
      </trkpt>
      <trkpt lat="40.747333" lon="-4.559683">
        <ele>2259.0</ele>
        <time>2014-06-30T15:12:42Z</time>
      </trkpt>
      <trkpt lat="40.747350" lon="-4.559517">
        <ele>2257.0</ele>
        <time>2014-06-30T15:12:43Z</time>
      </trkpt>
      <trkpt lat="40.747367" lon="-4.559350">
        <ele>2255.0</ele>
        <time>2014-06-30T15:12:44Z</time>
      </trkpt>
      <trkpt lat="40.747383" lon="-4.559200">
        <ele>2253.0</ele>
        <time>2014-06-30T15:12:45Z</time>
      </trkpt>
      <trkpt lat="40.747400" lon="-4.559017">
        <ele>2251.0</ele>
        <time>2014-06-30T15:12:46Z</time>
      </trkpt>
      <trkpt lat="40.747400" lon="-4.558850">
        <ele>2248.0</ele>
        <time>2014-06-30T15:12:47Z</time>
      </trkpt>
      <trkpt lat="40.747417" lon="-4.558667">
        <ele>2246.0</ele>
        <time>2014-06-30T15:12:48Z</time>
      </trkpt>
      <trkpt lat="40.747417" lon="-4.558483">
        <ele>2243.0</ele>
        <time>2014-06-30T15:12:49Z</time>
      </trkpt>
      <trkpt lat="40.747433" lon="-4.558300">
        <ele>2241.0</ele>
        <time>2014-06-30T15:12:50Z</time>
      </trkpt>
      <trkpt lat="40.747433" lon="-4.558133">
        <ele>2239.0</ele>
        <time>2014-06-30T15:12:51Z</time>
      </trkpt>
      <trkpt lat="40.747433" lon="-4.557967">
        <ele>2238.0</ele>
        <time>2014-06-30T15:12:52Z</time>
      </trkpt>
      <trkpt lat="40.747417" lon="-4.557800">
        <ele>2237.0</ele>
        <time>2014-06-30T15:12:53Z</time>
      </trkpt>
      <trkpt lat="40.747400" lon="-4.557617">
        <ele>2234.0</ele>
        <time>2014-06-30T15:12:54Z</time>
      </trkpt>
      <trkpt lat="40.747383" lon="-4.557433">
        <ele>2231.0</ele>
        <time>2014-06-30T15:12:55Z</time>
      </trkpt>
      <trkpt lat="40.747383" lon="-4.557233">
        <ele>2229.0</ele>
        <time>2014-06-30T15:12:56Z</time>
      </trkpt>
      <trkpt lat="40.747367" lon="-4.557033">
        <ele>2227.0</ele>
        <time>2014-06-30T15:12:57Z</time>
      </trkpt>
      <trkpt lat="40.747350" lon="-4.556850">
        <ele>2226.0</ele>
        <time>2014-06-30T15:12:58Z</time>
      </trkpt>
      <trkpt lat="40.747333" lon="-4.556667">
        <ele>2225.0</ele>
        <time>2014-06-30T15:12:59Z</time>
      </trkpt>
      <trkpt lat="40.747333" lon="-4.556483">
        <ele>2223.0</ele>
        <time>2014-06-30T15:13:00Z</time>
      </trkpt>
      <trkpt lat="40.747333" lon="-4.556283">
        <ele>2221.0</ele>
        <time>2014-06-30T15:13:01Z</time>
      </trkpt>
      <trkpt lat="40.747333" lon="-4.556083">
        <ele>2218.0</ele>
        <time>2014-06-30T15:13:02Z</time>
      </trkpt>
      <trkpt lat="40.747350" lon="-4.555883">
        <ele>2217.0</ele>
        <time>2014-06-30T15:13:03Z</time>
      </trkpt>
      <trkpt lat="40.747333" lon="-4.555700">
        <ele>2216.0</ele>
        <time>2014-06-30T15:13:04Z</time>
      </trkpt>
      <trkpt lat="40.747333" lon="-4.555533">
        <ele>2215.0</ele>
        <time>2014-06-30T15:13:05Z</time>
      </trkpt>
      <trkpt lat="40.747333" lon="-4.555367">
        <ele>2213.0</ele>
        <time>2014-06-30T15:13:06Z</time>
      </trkpt>
      <trkpt lat="40.747317" lon="-4.555183">
        <ele>2211.0</ele>
        <time>2014-06-30T15:13:07Z</time>
      </trkpt>
      <trkpt lat="40.747333" lon="-4.555000">
        <ele>2208.0</ele>
        <time>2014-06-30T15:13:08Z</time>
      </trkpt>
      <trkpt lat="40.747333" lon="-4.554817">
        <ele>2205.0</ele>
        <time>2014-06-30T15:13:09Z</time>
      </trkpt>
      <trkpt lat="40.747350" lon="-4.554617">
        <ele>2203.0</ele>
        <time>2014-06-30T15:13:10Z</time>
      </trkpt>
      <trkpt lat="40.747350" lon="-4.554417">
        <ele>2201.0</ele>
        <time>2014-06-30T15:13:11Z</time>
      </trkpt>
      <trkpt lat="40.747350" lon="-4.554217">
        <ele>2199.0</ele>
        <time>2014-06-30T15:13:12Z</time>
      </trkpt>
      <trkpt lat="40.747367" lon="-4.554017">
        <ele>2197.0</ele>
        <time>2014-06-30T15:13:13Z</time>
      </trkpt>
      <trkpt lat="40.747383" lon="-4.553800">
        <ele>2195.0</ele>
        <time>2014-06-30T15:13:14Z</time>
      </trkpt>
      <trkpt lat="40.747417" lon="-4.553583">
        <ele>2193.0</ele>
        <time>2014-06-30T15:13:15Z</time>
      </trkpt>
      <trkpt lat="40.747450" lon="-4.553383">
        <ele>2192.0</ele>
        <time>2014-06-30T15:13:16Z</time>
      </trkpt>
      <trkpt lat="40.747500" lon="-4.553183">
        <ele>2192.0</ele>
        <time>2014-06-30T15:13:17Z</time>
      </trkpt>
      <trkpt lat="40.747533" lon="-4.552983">
        <ele>2193.0</ele>
        <time>2014-06-30T15:13:18Z</time>
      </trkpt>
      <trkpt lat="40.747550" lon="-4.552800">
        <ele>2195.0</ele>
        <time>2014-06-30T15:13:19Z</time>
      </trkpt>
      <trkpt lat="40.747567" lon="-4.552633">
        <ele>2198.0</ele>
        <time>2014-06-30T15:13:20Z</time>
      </trkpt>
      <trkpt lat="40.747583" lon="-4.552483">
        <ele>2199.0</ele>
        <time>2014-06-30T15:13:21Z</time>
      </trkpt>
      <trkpt lat="40.747617" lon="-4.552350">
        <ele>2201.0</ele>
        <time>2014-06-30T15:13:22Z</time>
      </trkpt>
      <trkpt lat="40.747667" lon="-4.552217">
        <ele>2202.0</ele>
        <time>2014-06-30T15:13:23Z</time>
      </trkpt>
      <trkpt lat="40.747717" lon="-4.552100">
        <ele>2202.0</ele>
        <time>2014-06-30T15:13:24Z</time>
      </trkpt>
      <trkpt lat="40.747750" lon="-4.551950">
        <ele>2202.0</ele>
        <time>2014-06-30T15:13:25Z</time>
      </trkpt>
      <trkpt lat="40.747800" lon="-4.551783">
        <ele>2202.0</ele>
        <time>2014-06-30T15:13:26Z</time>
      </trkpt>
      <trkpt lat="40.747833" lon="-4.551617">
        <ele>2202.0</ele>
        <time>2014-06-30T15:13:27Z</time>
      </trkpt>
      <trkpt lat="40.747850" lon="-4.551450">
        <ele>2202.0</ele>
        <time>2014-06-30T15:13:28Z</time>
      </trkpt>
      <trkpt lat="40.747883" lon="-4.551283">
        <ele>2202.0</ele>
        <time>2014-06-30T15:13:29Z</time>
      </trkpt>
      <trkpt lat="40.747900" lon="-4.551117">
        <ele>2202.0</ele>
        <time>2014-06-30T15:13:30Z</time>
      </trkpt>
      <trkpt lat="40.747917" lon="-4.550933">
        <ele>2200.0</ele>
        <time>2014-06-30T15:13:31Z</time>
      </trkpt>
      <trkpt lat="40.747933" lon="-4.550750">
        <ele>2199.0</ele>
        <time>2014-06-30T15:13:32Z</time>
      </trkpt>
      <trkpt lat="40.747967" lon="-4.550567">
        <ele>2198.0</ele>
        <time>2014-06-30T15:13:33Z</time>
      </trkpt>
      <trkpt lat="40.747983" lon="-4.550400">
        <ele>2198.0</ele>
        <time>2014-06-30T15:13:34Z</time>
      </trkpt>
      <trkpt lat="40.748000" lon="-4.550217">
        <ele>2197.0</ele>
        <time>2014-06-30T15:13:35Z</time>
      </trkpt>
      <trkpt lat="40.748017" lon="-4.550017">
        <ele>2196.0</ele>
        <time>2014-06-30T15:13:36Z</time>
      </trkpt>
      <trkpt lat="40.748050" lon="-4.549800">
        <ele>2195.0</ele>
        <time>2014-06-30T15:13:37Z</time>
      </trkpt>
      <trkpt lat="40.748067" lon="-4.549600">
        <ele>2195.0</ele>
        <time>2014-06-30T15:13:38Z</time>
      </trkpt>
      <trkpt lat="40.748100" lon="-4.549400">
        <ele>2194.0</ele>
        <time>2014-06-30T15:13:39Z</time>
      </trkpt>
      <trkpt lat="40.748150" lon="-4.549200">
        <ele>2194.0</ele>
        <time>2014-06-30T15:13:40Z</time>
      </trkpt>
      <trkpt lat="40.748183" lon="-4.549017">
        <ele>2193.0</ele>
        <time>2014-06-30T15:13:41Z</time>
      </trkpt>
      <trkpt lat="40.748233" lon="-4.548833">
        <ele>2192.0</ele>
        <time>2014-06-30T15:13:42Z</time>
      </trkpt>
      <trkpt lat="40.748283" lon="-4.548650">
        <ele>2190.0</ele>
        <time>2014-06-30T15:13:43Z</time>
      </trkpt>
      <trkpt lat="40.748333" lon="-4.548467">
        <ele>2188.0</ele>
        <time>2014-06-30T15:13:44Z</time>
      </trkpt>
      <trkpt lat="40.748383" lon="-4.548267">
        <ele>2186.0</ele>
        <time>2014-06-30T15:13:45Z</time>
      </trkpt>
      <trkpt lat="40.748450" lon="-4.548067">
        <ele>2183.0</ele>
        <time>2014-06-30T15:13:46Z</time>
      </trkpt>
      <trkpt lat="40.748500" lon="-4.547850">
        <ele>2181.0</ele>
        <time>2014-06-30T15:13:47Z</time>
      </trkpt>
      <trkpt lat="40.748533" lon="-4.547633">
        <ele>2178.0</ele>
        <time>2014-06-30T15:13:48Z</time>
      </trkpt>
      <trkpt lat="40.748567" lon="-4.547433">
        <ele>2177.0</ele>
        <time>2014-06-30T15:13:49Z</time>
      </trkpt>
      <trkpt lat="40.748600" lon="-4.547250">
        <ele>2175.0</ele>
        <time>2014-06-30T15:13:50Z</time>
      </trkpt>
      <trkpt lat="40.748617" lon="-4.547067">
        <ele>2174.0</ele>
        <time>2014-06-30T15:13:51Z</time>
      </trkpt>
      <trkpt lat="40.748650" lon="-4.546867">
        <ele>2171.0</ele>
        <time>2014-06-30T15:13:52Z</time>
      </trkpt>
      <trkpt lat="40.748700" lon="-4.546667">
        <ele>2169.0</ele>
        <time>2014-06-30T15:13:53Z</time>
      </trkpt>
      <trkpt lat="40.748750" lon="-4.546450">
        <ele>2166.0</ele>
        <time>2014-06-30T15:13:54Z</time>
      </trkpt>
      <trkpt lat="40.748800" lon="-4.546267">
        <ele>2164.0</ele>
        <time>2014-06-30T15:13:55Z</time>
      </trkpt>
      <trkpt lat="40.748867" lon="-4.546117">
        <ele>2163.0</ele>
        <time>2014-06-30T15:13:56Z</time>
      </trkpt>
      <trkpt lat="40.748917" lon="-4.545967">
        <ele>2162.0</ele>
        <time>2014-06-30T15:13:57Z</time>
      </trkpt>
      <trkpt lat="40.748967" lon="-4.545817">
        <ele>2160.0</ele>
        <time>2014-06-30T15:13:58Z</time>
      </trkpt>
      <trkpt lat="40.749033" lon="-4.545667">
        <ele>2158.0</ele>
        <time>2014-06-30T15:13:59Z</time>
      </trkpt>
      <trkpt lat="40.749083" lon="-4.545500">
        <ele>2155.0</ele>
        <time>2014-06-30T15:14:00Z</time>
      </trkpt>
      <trkpt lat="40.749150" lon="-4.545317">
        <ele>2153.0</ele>
        <time>2014-06-30T15:14:01Z</time>
      </trkpt>
      <trkpt lat="40.749217" lon="-4.545133">
        <ele>2150.0</ele>
        <time>2014-06-30T15:14:02Z</time>
      </trkpt>
      <trkpt lat="40.749283" lon="-4.544967">
        <ele>2148.0</ele>
        <time>2014-06-30T15:14:03Z</time>
      </trkpt>
      <trkpt lat="40.749333" lon="-4.544783">
        <ele>2146.0</ele>
        <time>2014-06-30T15:14:04Z</time>
      </trkpt>
      <trkpt lat="40.749383" lon="-4.544617">
        <ele>2145.0</ele>
        <time>2014-06-30T15:14:05Z</time>
      </trkpt>
      <trkpt lat="40.749450" lon="-4.544433">
        <ele>2143.0</ele>
        <time>2014-06-30T15:14:06Z</time>
      </trkpt>
      <trkpt lat="40.749500" lon="-4.544267">
        <ele>2141.0</ele>
        <time>2014-06-30T15:14:07Z</time>
      </trkpt>
      <trkpt lat="40.749567" lon="-4.544083">
        <ele>2139.0</ele>
        <time>2014-06-30T15:14:08Z</time>
      </trkpt>
      <trkpt lat="40.749633" lon="-4.543917">
        <ele>2136.0</ele>
        <time>2014-06-30T15:14:09Z</time>
      </trkpt>
      <trkpt lat="40.749700" lon="-4.543750">
        <ele>2134.0</ele>
        <time>2014-06-30T15:14:10Z</time>
      </trkpt>
      <trkpt lat="40.749783" lon="-4.543583">
        <ele>2131.0</ele>
        <time>2014-06-30T15:14:11Z</time>
      </trkpt>
      <trkpt lat="40.749850" lon="-4.543400">
        <ele>2128.0</ele>
        <time>2014-06-30T15:14:12Z</time>
      </trkpt>
      <trkpt lat="40.749917" lon="-4.543217">
        <ele>2124.0</ele>
        <time>2014-06-30T15:14:13Z</time>
      </trkpt>
      <trkpt lat="40.749983" lon="-4.543033">
        <ele>2121.0</ele>
        <time>2014-06-30T15:14:14Z</time>
      </trkpt>
      <trkpt lat="40.750050" lon="-4.542833">
        <ele>2117.0</ele>
        <time>2014-06-30T15:14:15Z</time>
      </trkpt>
      <trkpt lat="40.750133" lon="-4.542617">
        <ele>2113.0</ele>
        <time>2014-06-30T15:14:16Z</time>
      </trkpt>
      <trkpt lat="40.750183" lon="-4.542417">
        <ele>2110.0</ele>
        <time>2014-06-30T15:14:17Z</time>
      </trkpt>
      <trkpt lat="40.750250" lon="-4.542200">
        <ele>2106.0</ele>
        <time>2014-06-30T15:14:18Z</time>
      </trkpt>
      <trkpt lat="40.750300" lon="-4.541983">
        <ele>2103.0</ele>
        <time>2014-06-30T15:14:19Z</time>
      </trkpt>
      <trkpt lat="40.750350" lon="-4.541767">
        <ele>2101.0</ele>
        <time>2014-06-30T15:14:20Z</time>
      </trkpt>
      <trkpt lat="40.750400" lon="-4.541567">
        <ele>2098.0</ele>
        <time>2014-06-30T15:14:21Z</time>
      </trkpt>
      <trkpt lat="40.750450" lon="-4.541350">
        <ele>2096.0</ele>
        <time>2014-06-30T15:14:22Z</time>
      </trkpt>
      <trkpt lat="40.750500" lon="-4.541133">
        <ele>2093.0</ele>
        <time>2014-06-30T15:14:23Z</time>
      </trkpt>
      <trkpt lat="40.750550" lon="-4.540917">
        <ele>2090.0</ele>
        <time>2014-06-30T15:14:24Z</time>
      </trkpt>
      <trkpt lat="40.750600" lon="-4.540683">
        <ele>2088.0</ele>
        <time>2014-06-30T15:14:25Z</time>
      </trkpt>
      <trkpt lat="40.750650" lon="-4.540483">
        <ele>2086.0</ele>
        <time>2014-06-30T15:14:26Z</time>
      </trkpt>
      <trkpt lat="40.750717" lon="-4.540300">
        <ele>2084.0</ele>
        <time>2014-06-30T15:14:27Z</time>
      </trkpt>
      <trkpt lat="40.750783" lon="-4.540100">
        <ele>2082.0</ele>
        <time>2014-06-30T15:14:28Z</time>
      </trkpt>
      <trkpt lat="40.750850" lon="-4.539917">
        <ele>2081.0</ele>
        <time>2014-06-30T15:14:29Z</time>
      </trkpt>
      <trkpt lat="40.750900" lon="-4.539717">
        <ele>2079.0</ele>
        <time>2014-06-30T15:14:30Z</time>
      </trkpt>
      <trkpt lat="40.750950" lon="-4.539533">
        <ele>2078.0</ele>
        <time>2014-06-30T15:14:31Z</time>
      </trkpt>
      <trkpt lat="40.751017" lon="-4.539367">
        <ele>2076.0</ele>
        <time>2014-06-30T15:14:32Z</time>
      </trkpt>
      <trkpt lat="40.751083" lon="-4.539200">
        <ele>2074.0</ele>
        <time>2014-06-30T15:14:33Z</time>
      </trkpt>
      <trkpt lat="40.751150" lon="-4.539050">
        <ele>2072.0</ele>
        <time>2014-06-30T15:14:34Z</time>
      </trkpt>
      <trkpt lat="40.751200" lon="-4.538900">
        <ele>2071.0</ele>
        <time>2014-06-30T15:14:35Z</time>
      </trkpt>
      <trkpt lat="40.751267" lon="-4.538750">
        <ele>2068.0</ele>
        <time>2014-06-30T15:14:36Z</time>
      </trkpt>
      <trkpt lat="40.751333" lon="-4.538600">
        <ele>2066.0</ele>
        <time>2014-06-30T15:14:37Z</time>
      </trkpt>
      <trkpt lat="40.751400" lon="-4.538433">
        <ele>2064.0</ele>
        <time>2014-06-30T15:14:38Z</time>
      </trkpt>
      <trkpt lat="40.751467" lon="-4.538250">
        <ele>2062.0</ele>
        <time>2014-06-30T15:14:39Z</time>
      </trkpt>
      <trkpt lat="40.751533" lon="-4.538083">
        <ele>2059.0</ele>
        <time>2014-06-30T15:14:40Z</time>
      </trkpt>
      <trkpt lat="40.751600" lon="-4.537933">
        <ele>2058.0</ele>
        <time>2014-06-30T15:14:41Z</time>
      </trkpt>
      <trkpt lat="40.751667" lon="-4.537767">
        <ele>2056.0</ele>
        <time>2014-06-30T15:14:42Z</time>
      </trkpt>
      <trkpt lat="40.751717" lon="-4.537617">
        <ele>2055.0</ele>
        <time>2014-06-30T15:14:43Z</time>
      </trkpt>
      <trkpt lat="40.751783" lon="-4.537483">
        <ele>2053.0</ele>
        <time>2014-06-30T15:14:44Z</time>
      </trkpt>
      <trkpt lat="40.751850" lon="-4.537317">
        <ele>2052.0</ele>
        <time>2014-06-30T15:14:45Z</time>
      </trkpt>
      <trkpt lat="40.751883" lon="-4.537150">
        <ele>2050.0</ele>
        <time>2014-06-30T15:14:46Z</time>
      </trkpt>
      <trkpt lat="40.751917" lon="-4.536983">
        <ele>2047.0</ele>
        <time>2014-06-30T15:14:47Z</time>
      </trkpt>
      <trkpt lat="40.751967" lon="-4.536833">
        <ele>2045.0</ele>
        <time>2014-06-30T15:14:48Z</time>
      </trkpt>
      <trkpt lat="40.752000" lon="-4.536683">
        <ele>2044.0</ele>
        <time>2014-06-30T15:14:49Z</time>
      </trkpt>
      <trkpt lat="40.752067" lon="-4.536550">
        <ele>2042.0</ele>
        <time>2014-06-30T15:14:50Z</time>
      </trkpt>
      <trkpt lat="40.752133" lon="-4.536417">
        <ele>2040.0</ele>
        <time>2014-06-30T15:14:51Z</time>
      </trkpt>
      <trkpt lat="40.752183" lon="-4.536283">
        <ele>2038.0</ele>
        <time>2014-06-30T15:14:52Z</time>
      </trkpt>
      <trkpt lat="40.752250" lon="-4.536150">
        <ele>2036.0</ele>
        <time>2014-06-30T15:14:53Z</time>
      </trkpt>
      <trkpt lat="40.752300" lon="-4.536017">
        <ele>2033.0</ele>
        <time>2014-06-30T15:14:54Z</time>
      </trkpt>
      <trkpt lat="40.752350" lon="-4.535883">
        <ele>2031.0</ele>
        <time>2014-06-30T15:14:55Z</time>
      </trkpt>
      <trkpt lat="40.752400" lon="-4.535750">
        <ele>2029.0</ele>
        <time>2014-06-30T15:14:56Z</time>
      </trkpt>
      <trkpt lat="40.752467" lon="-4.535617">
        <ele>2026.0</ele>
        <time>2014-06-30T15:14:57Z</time>
      </trkpt>
      <trkpt lat="40.752533" lon="-4.535450">
        <ele>2022.0</ele>
        <time>2014-06-30T15:14:58Z</time>
      </trkpt>
      <trkpt lat="40.752600" lon="-4.535300">
        <ele>2019.0</ele>
        <time>2014-06-30T15:14:59Z</time>
      </trkpt>
      <trkpt lat="40.752667" lon="-4.535133">
        <ele>2016.0</ele>
        <time>2014-06-30T15:15:00Z</time>
      </trkpt>
      <trkpt lat="40.752733" lon="-4.534967">
        <ele>2013.0</ele>
        <time>2014-06-30T15:15:01Z</time>
      </trkpt>
      <trkpt lat="40.752767" lon="-4.534800">
        <ele>2010.0</ele>
        <time>2014-06-30T15:15:02Z</time>
      </trkpt>
      <trkpt lat="40.752800" lon="-4.534650">
        <ele>2007.0</ele>
        <time>2014-06-30T15:15:03Z</time>
      </trkpt>
      <trkpt lat="40.752833" lon="-4.534500">
        <ele>2004.0</ele>
        <time>2014-06-30T15:15:04Z</time>
      </trkpt>
      <trkpt lat="40.752867" lon="-4.534333">
        <ele>2001.0</ele>
        <time>2014-06-30T15:15:05Z</time>
      </trkpt>
      <trkpt lat="40.752917" lon="-4.534150">
        <ele>1997.0</ele>
        <time>2014-06-30T15:15:06Z</time>
      </trkpt>
      <trkpt lat="40.752950" lon="-4.533967">
        <ele>1993.0</ele>
        <time>2014-06-30T15:15:07Z</time>
      </trkpt>
      <trkpt lat="40.752983" lon="-4.533767">
        <ele>1990.0</ele>
        <time>2014-06-30T15:15:08Z</time>
      </trkpt>
      <trkpt lat="40.753000" lon="-4.533583">
        <ele>1987.0</ele>
        <time>2014-06-30T15:15:09Z</time>
      </trkpt>
      <trkpt lat="40.753033" lon="-4.533400">
        <ele>1984.0</ele>
        <time>2014-06-30T15:15:10Z</time>
      </trkpt>
      <trkpt lat="40.753067" lon="-4.533217">
        <ele>1981.0</ele>
        <time>2014-06-30T15:15:11Z</time>
      </trkpt>
      <trkpt lat="40.753117" lon="-4.533033">
        <ele>1978.0</ele>
        <time>2014-06-30T15:15:12Z</time>
      </trkpt>
      <trkpt lat="40.753150" lon="-4.532850">
        <ele>1976.0</ele>
        <time>2014-06-30T15:15:13Z</time>
      </trkpt>
      <trkpt lat="40.753183" lon="-4.532667">
        <ele>1974.0</ele>
        <time>2014-06-30T15:15:14Z</time>
      </trkpt>
      <trkpt lat="40.753233" lon="-4.532483">
        <ele>1972.0</ele>
        <time>2014-06-30T15:15:15Z</time>
      </trkpt>
      <trkpt lat="40.753267" lon="-4.532300">
        <ele>1970.0</ele>
        <time>2014-06-30T15:15:16Z</time>
      </trkpt>
      <trkpt lat="40.753317" lon="-4.532117">
        <ele>1968.0</ele>
        <time>2014-06-30T15:15:17Z</time>
      </trkpt>
      <trkpt lat="40.753350" lon="-4.531933">
        <ele>1967.0</ele>
        <time>2014-06-30T15:15:18Z</time>
      </trkpt>
      <trkpt lat="40.753383" lon="-4.531750">
        <ele>1967.0</ele>
        <time>2014-06-30T15:15:19Z</time>
      </trkpt>
      <trkpt lat="40.753433" lon="-4.531583">
        <ele>1967.0</ele>
        <time>2014-06-30T15:15:20Z</time>
      </trkpt>
      <trkpt lat="40.753467" lon="-4.531433">
        <ele>1968.0</ele>
        <time>2014-06-30T15:15:21Z</time>
      </trkpt>
      <trkpt lat="40.753500" lon="-4.531300">
        <ele>1968.0</ele>
        <time>2014-06-30T15:15:22Z</time>
      </trkpt>
      <trkpt lat="40.753550" lon="-4.531150">
        <ele>1967.0</ele>
        <time>2014-06-30T15:15:23Z</time>
      </trkpt>
      <trkpt lat="40.753600" lon="-4.531000">
        <ele>1966.0</ele>
        <time>2014-06-30T15:15:24Z</time>
      </trkpt>
      <trkpt lat="40.753650" lon="-4.530833">
        <ele>1964.0</ele>
        <time>2014-06-30T15:15:25Z</time>
      </trkpt>
      <trkpt lat="40.753700" lon="-4.530667">
        <ele>1964.0</ele>
        <time>2014-06-30T15:15:26Z</time>
      </trkpt>
      <trkpt lat="40.753750" lon="-4.530517">
        <ele>1964.0</ele>
        <time>2014-06-30T15:15:27Z</time>
      </trkpt>
      <trkpt lat="40.753783" lon="-4.530383">
        <ele>1964.0</ele>
        <time>2014-06-30T15:15:28Z</time>
      </trkpt>
      <trkpt lat="40.753833" lon="-4.530250">
        <ele>1963.0</ele>
        <time>2014-06-30T15:15:29Z</time>
      </trkpt>
      <trkpt lat="40.753867" lon="-4.530117">
        <ele>1962.0</ele>
        <time>2014-06-30T15:15:30Z</time>
      </trkpt>
      <trkpt lat="40.753933" lon="-4.529967">
        <ele>1960.0</ele>
        <time>2014-06-30T15:15:31Z</time>
      </trkpt>
      <trkpt lat="40.754000" lon="-4.529817">
        <ele>1957.0</ele>
        <time>2014-06-30T15:15:32Z</time>
      </trkpt>
      <trkpt lat="40.754067" lon="-4.529667">
        <ele>1955.0</ele>
        <time>2014-06-30T15:15:33Z</time>
      </trkpt>
      <trkpt lat="40.754133" lon="-4.529533">
        <ele>1953.0</ele>
        <time>2014-06-30T15:15:34Z</time>
      </trkpt>
      <trkpt lat="40.754183" lon="-4.529400">
        <ele>1951.0</ele>
        <time>2014-06-30T15:15:35Z</time>
      </trkpt>
      <trkpt lat="40.754233" lon="-4.529233">
        <ele>1948.0</ele>
        <time>2014-06-30T15:15:36Z</time>
      </trkpt>
      <trkpt lat="40.754300" lon="-4.529083">
        <ele>1944.0</ele>
        <time>2014-06-30T15:15:37Z</time>
      </trkpt>
      <trkpt lat="40.754350" lon="-4.528917">
        <ele>1942.0</ele>
        <time>2014-06-30T15:15:38Z</time>
      </trkpt>
      <trkpt lat="40.754400" lon="-4.528767">
        <ele>1940.0</ele>
        <time>2014-06-30T15:15:39Z</time>
      </trkpt>
      <trkpt lat="40.754450" lon="-4.528617">
        <ele>1937.0</ele>
        <time>2014-06-30T15:15:40Z</time>
      </trkpt>
      <trkpt lat="40.754500" lon="-4.528467">
        <ele>1935.0</ele>
        <time>2014-06-30T15:15:41Z</time>
      </trkpt>
      <trkpt lat="40.754550" lon="-4.528333">
        <ele>1933.0</ele>
        <time>2014-06-30T15:15:42Z</time>
      </trkpt>
      <trkpt lat="40.754600" lon="-4.528200">
        <ele>1931.0</ele>
        <time>2014-06-30T15:15:43Z</time>
      </trkpt>
      <trkpt lat="40.754650" lon="-4.528067">
        <ele>1929.0</ele>
        <time>2014-06-30T15:15:44Z</time>
      </trkpt>
      <trkpt lat="40.754700" lon="-4.527933">
        <ele>1928.0</ele>
        <time>2014-06-30T15:15:45Z</time>
      </trkpt>
      <trkpt lat="40.754767" lon="-4.527800">
        <ele>1925.0</ele>
        <time>2014-06-30T15:15:46Z</time>
      </trkpt>
      <trkpt lat="40.754817" lon="-4.527650">
        <ele>1924.0</ele>
        <time>2014-06-30T15:15:47Z</time>
      </trkpt>
      <trkpt lat="40.754883" lon="-4.527483">
        <ele>1922.0</ele>
        <time>2014-06-30T15:15:48Z</time>
      </trkpt>
      <trkpt lat="40.754933" lon="-4.527333">
        <ele>1920.0</ele>
        <time>2014-06-30T15:15:49Z</time>
      </trkpt>
      <trkpt lat="40.754967" lon="-4.527167">
        <ele>1918.0</ele>
        <time>2014-06-30T15:15:50Z</time>
      </trkpt>
      <trkpt lat="40.754983" lon="-4.527000">
        <ele>1917.0</ele>
        <time>2014-06-30T15:15:51Z</time>
      </trkpt>
      <trkpt lat="40.754983" lon="-4.526817">
        <ele>1915.0</ele>
        <time>2014-06-30T15:15:52Z</time>
      </trkpt>
      <trkpt lat="40.755000" lon="-4.526667">
        <ele>1914.0</ele>
        <time>2014-06-30T15:15:53Z</time>
      </trkpt>
      <trkpt lat="40.755000" lon="-4.526517">
        <ele>1913.0</ele>
        <time>2014-06-30T15:15:54Z</time>
      </trkpt>
      <trkpt lat="40.755017" lon="-4.526383">
        <ele>1912.0</ele>
        <time>2014-06-30T15:15:55Z</time>
      </trkpt>
      <trkpt lat="40.755017" lon="-4.526250">
        <ele>1909.0</ele>
        <time>2014-06-30T15:15:56Z</time>
      </trkpt>
      <trkpt lat="40.755033" lon="-4.526100">
        <ele>1906.0</ele>
        <time>2014-06-30T15:15:57Z</time>
      </trkpt>
      <trkpt lat="40.755067" lon="-4.525950">
        <ele>1903.0</ele>
        <time>2014-06-30T15:15:58Z</time>
      </trkpt>
      <trkpt lat="40.755117" lon="-4.525800">
        <ele>1899.0</ele>
        <time>2014-06-30T15:15:59Z</time>
      </trkpt>
      <trkpt lat="40.755167" lon="-4.525617">
        <ele>1895.0</ele>
        <time>2014-06-30T15:16:00Z</time>
      </trkpt>
      <trkpt lat="40.755217" lon="-4.525433">
        <ele>1891.0</ele>
        <time>2014-06-30T15:16:01Z</time>
      </trkpt>
      <trkpt lat="40.755250" lon="-4.525267">
        <ele>1889.0</ele>
        <time>2014-06-30T15:16:02Z</time>
      </trkpt>
      <trkpt lat="40.755267" lon="-4.525100">
        <ele>1887.0</ele>
        <time>2014-06-30T15:16:03Z</time>
      </trkpt>
      <trkpt lat="40.755300" lon="-4.524933">
        <ele>1885.0</ele>
        <time>2014-06-30T15:16:04Z</time>
      </trkpt>
      <trkpt lat="40.755317" lon="-4.524767">
        <ele>1882.0</ele>
        <time>2014-06-30T15:16:05Z</time>
      </trkpt>
      <trkpt lat="40.755350" lon="-4.524600">
        <ele>1880.0</ele>
        <time>2014-06-30T15:16:06Z</time>
      </trkpt>
      <trkpt lat="40.755383" lon="-4.524417">
        <ele>1877.0</ele>
        <time>2014-06-30T15:16:07Z</time>
      </trkpt>
      <trkpt lat="40.755400" lon="-4.524233">
        <ele>1875.0</ele>
        <time>2014-06-30T15:16:08Z</time>
      </trkpt>
      <trkpt lat="40.755433" lon="-4.524050">
        <ele>1873.0</ele>
        <time>2014-06-30T15:16:09Z</time>
      </trkpt>
      <trkpt lat="40.755467" lon="-4.523867">
        <ele>1871.0</ele>
        <time>2014-06-30T15:16:10Z</time>
      </trkpt>
      <trkpt lat="40.755500" lon="-4.523683">
        <ele>1869.0</ele>
        <time>2014-06-30T15:16:11Z</time>
      </trkpt>
      <trkpt lat="40.755517" lon="-4.523517">
        <ele>1867.0</ele>
        <time>2014-06-30T15:16:12Z</time>
      </trkpt>
      <trkpt lat="40.755550" lon="-4.523350">
        <ele>1864.0</ele>
        <time>2014-06-30T15:16:13Z</time>
      </trkpt>
      <trkpt lat="40.755567" lon="-4.523150">
        <ele>1861.0</ele>
        <time>2014-06-30T15:16:14Z</time>
      </trkpt>
      <trkpt lat="40.755600" lon="-4.522967">
        <ele>1859.0</ele>
        <time>2014-06-30T15:16:15Z</time>
      </trkpt>
      <trkpt lat="40.755617" lon="-4.522767">
        <ele>1856.0</ele>
        <time>2014-06-30T15:16:16Z</time>
      </trkpt>
      <trkpt lat="40.755650" lon="-4.522583">
        <ele>1854.0</ele>
        <time>2014-06-30T15:16:17Z</time>
      </trkpt>
      <trkpt lat="40.755667" lon="-4.522383">
        <ele>1852.0</ele>
        <time>2014-06-30T15:16:18Z</time>
      </trkpt>
      <trkpt lat="40.755717" lon="-4.522183">
        <ele>1850.0</ele>
        <time>2014-06-30T15:16:19Z</time>
      </trkpt>
      <trkpt lat="40.755750" lon="-4.521983">
        <ele>1847.0</ele>
        <time>2014-06-30T15:16:20Z</time>
      </trkpt>
      <trkpt lat="40.755783" lon="-4.521783">
        <ele>1845.0</ele>
        <time>2014-06-30T15:16:21Z</time>
      </trkpt>
      <trkpt lat="40.755817" lon="-4.521567">
        <ele>1842.0</ele>
        <time>2014-06-30T15:16:22Z</time>
      </trkpt>
      <trkpt lat="40.755833" lon="-4.521350">
        <ele>1840.0</ele>
        <time>2014-06-30T15:16:23Z</time>
      </trkpt>
      <trkpt lat="40.755867" lon="-4.521150">
        <ele>1838.0</ele>
        <time>2014-06-30T15:16:24Z</time>
      </trkpt>
      <trkpt lat="40.755900" lon="-4.520950">
        <ele>1837.0</ele>
        <time>2014-06-30T15:16:25Z</time>
      </trkpt>
      <trkpt lat="40.755917" lon="-4.520750">
        <ele>1835.0</ele>
        <time>2014-06-30T15:16:26Z</time>
      </trkpt>
      <trkpt lat="40.755950" lon="-4.520567">
        <ele>1833.0</ele>
        <time>2014-06-30T15:16:27Z</time>
      </trkpt>
      <trkpt lat="40.755983" lon="-4.520367">
        <ele>1830.0</ele>
        <time>2014-06-30T15:16:28Z</time>
      </trkpt>
      <trkpt lat="40.756000" lon="-4.520183">
        <ele>1827.0</ele>
        <time>2014-06-30T15:16:29Z</time>
      </trkpt>
      <trkpt lat="40.756033" lon="-4.520000">
        <ele>1825.0</ele>
        <time>2014-06-30T15:16:30Z</time>
      </trkpt>
      <trkpt lat="40.756067" lon="-4.519817">
        <ele>1823.0</ele>
        <time>2014-06-30T15:16:31Z</time>
      </trkpt>
      <trkpt lat="40.756083" lon="-4.519633">
        <ele>1820.0</ele>
        <time>2014-06-30T15:16:32Z</time>
      </trkpt>
      <trkpt lat="40.756100" lon="-4.519467">
        <ele>1818.0</ele>
        <time>2014-06-30T15:16:33Z</time>
      </trkpt>
      <trkpt lat="40.756117" lon="-4.519267">
        <ele>1815.0</ele>
        <time>2014-06-30T15:16:34Z</time>
      </trkpt>
      <trkpt lat="40.756133" lon="-4.519083">
        <ele>1812.0</ele>
        <time>2014-06-30T15:16:35Z</time>
      </trkpt>
      <trkpt lat="40.756150" lon="-4.518883">
        <ele>1809.0</ele>
        <time>2014-06-30T15:16:36Z</time>
      </trkpt>
      <trkpt lat="40.756167" lon="-4.518683">
        <ele>1807.0</ele>
        <time>2014-06-30T15:16:37Z</time>
      </trkpt>
      <trkpt lat="40.756183" lon="-4.518500">
        <ele>1804.0</ele>
        <time>2014-06-30T15:16:38Z</time>
      </trkpt>
      <trkpt lat="40.756200" lon="-4.518300">
        <ele>1801.0</ele>
        <time>2014-06-30T15:16:39Z</time>
      </trkpt>
      <trkpt lat="40.756217" lon="-4.518117">
        <ele>1798.0</ele>
        <time>2014-06-30T15:16:40Z</time>
      </trkpt>
      <trkpt lat="40.756233" lon="-4.517933">
        <ele>1795.0</ele>
        <time>2014-06-30T15:16:41Z</time>
      </trkpt>
      <trkpt lat="40.756250" lon="-4.517733">
        <ele>1792.0</ele>
        <time>2014-06-30T15:16:42Z</time>
      </trkpt>
      <trkpt lat="40.756267" lon="-4.517517">
        <ele>1788.0</ele>
        <time>2014-06-30T15:16:43Z</time>
      </trkpt>
      <trkpt lat="40.756300" lon="-4.517300">
        <ele>1785.0</ele>
        <time>2014-06-30T15:16:44Z</time>
      </trkpt>
      <trkpt lat="40.756350" lon="-4.517100">
        <ele>1783.0</ele>
        <time>2014-06-30T15:16:45Z</time>
      </trkpt>
      <trkpt lat="40.756400" lon="-4.516900">
        <ele>1781.0</ele>
        <time>2014-06-30T15:16:46Z</time>
      </trkpt>
      <trkpt lat="40.756450" lon="-4.516700">
        <ele>1779.0</ele>
        <time>2014-06-30T15:16:47Z</time>
      </trkpt>
      <trkpt lat="40.756500" lon="-4.516517">
        <ele>1777.0</ele>
        <time>2014-06-30T15:16:48Z</time>
      </trkpt>
      <trkpt lat="40.756533" lon="-4.516333">
        <ele>1775.0</ele>
        <time>2014-06-30T15:16:49Z</time>
      </trkpt>
      <trkpt lat="40.756583" lon="-4.516150">
        <ele>1773.0</ele>
        <time>2014-06-30T15:16:50Z</time>
      </trkpt>
      <trkpt lat="40.756633" lon="-4.515967">
        <ele>1771.0</ele>
        <time>2014-06-30T15:16:51Z</time>
      </trkpt>
      <trkpt lat="40.756683" lon="-4.515783">
        <ele>1768.0</ele>
        <time>2014-06-30T15:16:52Z</time>
      </trkpt>
      <trkpt lat="40.756733" lon="-4.515617">
        <ele>1767.0</ele>
        <time>2014-06-30T15:16:53Z</time>
      </trkpt>
      <trkpt lat="40.756783" lon="-4.515450">
        <ele>1765.0</ele>
        <time>2014-06-30T15:16:54Z</time>
      </trkpt>
      <trkpt lat="40.756817" lon="-4.515300">
        <ele>1764.0</ele>
        <time>2014-06-30T15:16:55Z</time>
      </trkpt>
      <trkpt lat="40.756867" lon="-4.515133">
        <ele>1762.0</ele>
        <time>2014-06-30T15:16:56Z</time>
      </trkpt>
      <trkpt lat="40.756900" lon="-4.514967">
        <ele>1760.0</ele>
        <time>2014-06-30T15:16:57Z</time>
      </trkpt>
      <trkpt lat="40.756933" lon="-4.514783">
        <ele>1757.0</ele>
        <time>2014-06-30T15:16:58Z</time>
      </trkpt>
      <trkpt lat="40.756967" lon="-4.514583">
        <ele>1755.0</ele>
        <time>2014-06-30T15:16:59Z</time>
      </trkpt>
      <trkpt lat="40.757000" lon="-4.514400">
        <ele>1753.0</ele>
        <time>2014-06-30T15:17:00Z</time>
      </trkpt>
      <trkpt lat="40.757017" lon="-4.514200">
        <ele>1751.0</ele>
        <time>2014-06-30T15:17:01Z</time>
      </trkpt>
      <trkpt lat="40.757050" lon="-4.514017">
        <ele>1749.0</ele>
        <time>2014-06-30T15:17:02Z</time>
      </trkpt>
      <trkpt lat="40.757083" lon="-4.513817">
        <ele>1747.0</ele>
        <time>2014-06-30T15:17:03Z</time>
      </trkpt>
      <trkpt lat="40.757117" lon="-4.513617">
        <ele>1744.0</ele>
        <time>2014-06-30T15:17:04Z</time>
      </trkpt>
      <trkpt lat="40.757150" lon="-4.513417">
        <ele>1743.0</ele>
        <time>2014-06-30T15:17:05Z</time>
      </trkpt>
      <trkpt lat="40.757167" lon="-4.513233">
        <ele>1742.0</ele>
        <time>2014-06-30T15:17:06Z</time>
      </trkpt>
      <trkpt lat="40.757200" lon="-4.513050">
        <ele>1741.0</ele>
        <time>2014-06-30T15:17:07Z</time>
      </trkpt>
      <trkpt lat="40.757217" lon="-4.512867">
        <ele>1740.0</ele>
        <time>2014-06-30T15:17:08Z</time>
      </trkpt>
      <trkpt lat="40.757250" lon="-4.512683">
        <ele>1740.0</ele>
        <time>2014-06-30T15:17:09Z</time>
      </trkpt>
      <trkpt lat="40.757267" lon="-4.512500">
        <ele>1741.0</ele>
        <time>2014-06-30T15:17:10Z</time>
      </trkpt>
      <trkpt lat="40.757300" lon="-4.512317">
        <ele>1741.0</ele>
        <time>2014-06-30T15:17:11Z</time>
      </trkpt>
      <trkpt lat="40.757317" lon="-4.512150">
        <ele>1741.0</ele>
        <time>2014-06-30T15:17:12Z</time>
      </trkpt>
      <trkpt lat="40.757333" lon="-4.511983">
        <ele>1741.0</ele>
        <time>2014-06-30T15:17:13Z</time>
      </trkpt>
      <trkpt lat="40.757367" lon="-4.511800">
        <ele>1741.0</ele>
        <time>2014-06-30T15:17:14Z</time>
      </trkpt>
      <trkpt lat="40.757400" lon="-4.511633">
        <ele>1740.0</ele>
        <time>2014-06-30T15:17:15Z</time>
      </trkpt>
      <trkpt lat="40.757433" lon="-4.511433">
        <ele>1740.0</ele>
        <time>2014-06-30T15:17:16Z</time>
      </trkpt>
      <trkpt lat="40.757450" lon="-4.511250">
        <ele>1740.0</ele>
        <time>2014-06-30T15:17:17Z</time>
      </trkpt>
      <trkpt lat="40.757483" lon="-4.511050">
        <ele>1740.0</ele>
        <time>2014-06-30T15:17:18Z</time>
      </trkpt>
      <trkpt lat="40.757483" lon="-4.510867">
        <ele>1740.0</ele>
        <time>2014-06-30T15:17:19Z</time>
      </trkpt>
      <trkpt lat="40.757500" lon="-4.510667">
        <ele>1740.0</ele>
        <time>2014-06-30T15:17:20Z</time>
      </trkpt>
      <trkpt lat="40.757517" lon="-4.510483">
        <ele>1739.0</ele>
        <time>2014-06-30T15:17:21Z</time>
      </trkpt>
      <trkpt lat="40.757550" lon="-4.510300">
        <ele>1738.0</ele>
        <time>2014-06-30T15:17:22Z</time>
      </trkpt>
      <trkpt lat="40.757583" lon="-4.510100">
        <ele>1737.0</ele>
        <time>2014-06-30T15:17:23Z</time>
      </trkpt>
      <trkpt lat="40.757633" lon="-4.509900">
        <ele>1737.0</ele>
        <time>2014-06-30T15:17:24Z</time>
      </trkpt>
      <trkpt lat="40.757667" lon="-4.509733">
        <ele>1737.0</ele>
        <time>2014-06-30T15:17:25Z</time>
      </trkpt>
      <trkpt lat="40.757683" lon="-4.509550">
        <ele>1738.0</ele>
        <time>2014-06-30T15:17:26Z</time>
      </trkpt>
      <trkpt lat="40.757717" lon="-4.509383">
        <ele>1739.0</ele>
        <time>2014-06-30T15:17:27Z</time>
      </trkpt>
      <trkpt lat="40.757750" lon="-4.509217">
        <ele>1740.0</ele>
        <time>2014-06-30T15:17:28Z</time>
      </trkpt>
      <trkpt lat="40.757783" lon="-4.509033">
        <ele>1740.0</ele>
        <time>2014-06-30T15:17:29Z</time>
      </trkpt>
      <trkpt lat="40.757817" lon="-4.508867">
        <ele>1741.0</ele>
        <time>2014-06-30T15:17:30Z</time>
      </trkpt>
      <trkpt lat="40.757833" lon="-4.508700">
        <ele>1742.0</ele>
        <time>2014-06-30T15:17:31Z</time>
      </trkpt>
      <trkpt lat="40.757867" lon="-4.508517">
        <ele>1742.0</ele>
        <time>2014-06-30T15:17:32Z</time>
      </trkpt>
      <trkpt lat="40.757917" lon="-4.508333">
        <ele>1742.0</ele>
        <time>2014-06-30T15:17:33Z</time>
      </trkpt>
      <trkpt lat="40.757950" lon="-4.508150">
        <ele>1743.0</ele>
        <time>2014-06-30T15:17:34Z</time>
      </trkpt>
      <trkpt lat="40.758000" lon="-4.507967">
        <ele>1744.0</ele>
        <time>2014-06-30T15:17:35Z</time>
      </trkpt>
      <trkpt lat="40.758033" lon="-4.507783">
        <ele>1745.0</ele>
        <time>2014-06-30T15:17:36Z</time>
      </trkpt>
      <trkpt lat="40.758067" lon="-4.507617">
        <ele>1746.0</ele>
        <time>2014-06-30T15:17:37Z</time>
      </trkpt>
      <trkpt lat="40.758117" lon="-4.507433">
        <ele>1748.0</ele>
        <time>2014-06-30T15:17:38Z</time>
      </trkpt>
      <trkpt lat="40.758150" lon="-4.507267">
        <ele>1749.0</ele>
        <time>2014-06-30T15:17:39Z</time>
      </trkpt>
      <trkpt lat="40.758183" lon="-4.507100">
        <ele>1750.0</ele>
        <time>2014-06-30T15:17:40Z</time>
      </trkpt>
      <trkpt lat="40.758217" lon="-4.506933">
        <ele>1752.0</ele>
        <time>2014-06-30T15:17:41Z</time>
      </trkpt>
      <trkpt lat="40.758233" lon="-4.506783">
        <ele>1754.0</ele>
        <time>2014-06-30T15:17:42Z</time>
      </trkpt>
      <trkpt lat="40.758283" lon="-4.506633">
        <ele>1756.0</ele>
        <time>2014-06-30T15:17:43Z</time>
      </trkpt>
      <trkpt lat="40.758333" lon="-4.506500">
        <ele>1756.0</ele>
        <time>2014-06-30T15:17:44Z</time>
      </trkpt>
      <trkpt lat="40.758383" lon="-4.506350">
        <ele>1757.0</ele>
        <time>2014-06-30T15:17:45Z</time>
      </trkpt>
      <trkpt lat="40.758433" lon="-4.506200">
        <ele>1759.0</ele>
        <time>2014-06-30T15:17:46Z</time>
      </trkpt>
      <trkpt lat="40.758483" lon="-4.506050">
        <ele>1760.0</ele>
        <time>2014-06-30T15:17:47Z</time>
      </trkpt>
      <trkpt lat="40.758500" lon="-4.505900">
        <ele>1760.0</ele>
        <time>2014-06-30T15:17:48Z</time>
      </trkpt>
      <trkpt lat="40.758500" lon="-4.505733">
        <ele>1761.0</ele>
        <time>2014-06-30T15:17:49Z</time>
      </trkpt>
      <trkpt lat="40.758483" lon="-4.505583">
        <ele>1762.0</ele>
        <time>2014-06-30T15:17:50Z</time>
      </trkpt>
      <trkpt lat="40.758433" lon="-4.505417">
        <ele>1762.0</ele>
        <time>2014-06-30T15:17:51Z</time>
      </trkpt>
      <trkpt lat="40.758400" lon="-4.505233">
        <ele>1760.0</ele>
        <time>2014-06-30T15:17:52Z</time>
      </trkpt>
      <trkpt lat="40.758350" lon="-4.505050">
        <ele>1758.0</ele>
        <time>2014-06-30T15:17:53Z</time>
      </trkpt>
      <trkpt lat="40.758283" lon="-4.504867">
        <ele>1758.0</ele>
        <time>2014-06-30T15:17:54Z</time>
      </trkpt>
      <trkpt lat="40.758217" lon="-4.504683">
        <ele>1758.0</ele>
        <time>2014-06-30T15:17:55Z</time>
      </trkpt>
      <trkpt lat="40.758150" lon="-4.504517">
        <ele>1762.0</ele>
        <time>2014-06-30T15:17:56Z</time>
      </trkpt>
      <trkpt lat="40.758067" lon="-4.504383">
        <ele>1765.0</ele>
        <time>2014-06-30T15:17:57Z</time>
      </trkpt>
      <trkpt lat="40.758000" lon="-4.504267">
        <ele>1767.0</ele>
        <time>2014-06-30T15:17:58Z</time>
      </trkpt>
      <trkpt lat="40.757917" lon="-4.504150">
        <ele>1769.0</ele>
        <time>2014-06-30T15:17:59Z</time>
      </trkpt>
      <trkpt lat="40.757833" lon="-4.504067">
        <ele>1771.0</ele>
        <time>2014-06-30T15:18:00Z</time>
      </trkpt>
      <trkpt lat="40.757733" lon="-4.504000">
        <ele>1772.0</ele>
        <time>2014-06-30T15:18:01Z</time>
      </trkpt>
      <trkpt lat="40.757633" lon="-4.503950">
        <ele>1774.0</ele>
        <time>2014-06-30T15:18:02Z</time>
      </trkpt>
      <trkpt lat="40.757533" lon="-4.503900">
        <ele>1776.0</ele>
        <time>2014-06-30T15:18:03Z</time>
      </trkpt>
      <trkpt lat="40.757433" lon="-4.503850">
        <ele>1778.0</ele>
        <time>2014-06-30T15:18:04Z</time>
      </trkpt>
      <trkpt lat="40.757317" lon="-4.503817">
        <ele>1778.0</ele>
        <time>2014-06-30T15:18:05Z</time>
      </trkpt>
      <trkpt lat="40.757217" lon="-4.503783">
        <ele>1781.0</ele>
        <time>2014-06-30T15:18:06Z</time>
      </trkpt>
      <trkpt lat="40.757117" lon="-4.503767">
        <ele>1782.0</ele>
        <time>2014-06-30T15:18:07Z</time>
      </trkpt>
      <trkpt lat="40.757017" lon="-4.503767">
        <ele>1782.0</ele>
        <time>2014-06-30T15:18:08Z</time>
      </trkpt>
      <trkpt lat="40.756933" lon="-4.503783">
        <ele>1783.0</ele>
        <time>2014-06-30T15:18:09Z</time>
      </trkpt>
      <trkpt lat="40.756867" lon="-4.503783">
        <ele>1783.0</ele>
        <time>2014-06-30T15:18:10Z</time>
      </trkpt>
      <trkpt lat="40.756817" lon="-4.503817">
        <ele>1784.0</ele>
        <time>2014-06-30T15:18:11Z</time>
      </trkpt>
      <trkpt lat="40.756783" lon="-4.503833">
        <ele>1783.0</ele>
        <time>2014-06-30T15:18:12Z</time>
      </trkpt>
      <trkpt lat="40.756783" lon="-4.503833">
        <ele>1781.0</ele>
        <time>2014-06-30T15:18:13Z</time>
      </trkpt>
      <trkpt lat="40.756817" lon="-4.503850">
        <ele>1779.0</ele>
        <time>2014-06-30T15:18:14Z</time>
      </trkpt>
      <trkpt lat="40.756833" lon="-4.503867">
        <ele>1778.0</ele>
        <time>2014-06-30T15:18:15Z</time>
      </trkpt>
      <trkpt lat="40.756867" lon="-4.503883">
        <ele>1778.0</ele>
        <time>2014-06-30T15:18:16Z</time>
      </trkpt>
      <trkpt lat="40.756883" lon="-4.503900">
        <ele>1778.0</ele>
        <time>2014-06-30T15:18:17Z</time>
      </trkpt>
      <trkpt lat="40.756917" lon="-4.503917">
        <ele>1778.0</ele>
        <time>2014-06-30T15:18:18Z</time>
      </trkpt>
      <trkpt lat="40.756950" lon="-4.503917">
        <ele>1778.0</ele>
        <time>2014-06-30T15:18:19Z</time>
      </trkpt>
      <trkpt lat="40.756967" lon="-4.503933">
        <ele>1778.0</ele>
        <time>2014-06-30T15:18:20Z</time>
      </trkpt>
      <trkpt lat="40.757000" lon="-4.503950">
        <ele>1779.0</ele>
        <time>2014-06-30T15:18:21Z</time>
      </trkpt>
      <trkpt lat="40.757033" lon="-4.503967">
        <ele>1780.0</ele>
        <time>2014-06-30T15:18:22Z</time>
      </trkpt>
      <trkpt lat="40.757083" lon="-4.503967">
        <ele>1780.0</ele>
        <time>2014-06-30T15:18:23Z</time>
      </trkpt>
      <trkpt lat="40.757133" lon="-4.503967">
        <ele>1782.0</ele>
        <time>2014-06-30T15:18:24Z</time>
      </trkpt>
      <trkpt lat="40.757183" lon="-4.503967">
        <ele>1784.0</ele>
        <time>2014-06-30T15:18:25Z</time>
      </trkpt>
      <trkpt lat="40.757250" lon="-4.503967">
        <ele>1786.0</ele>
        <time>2014-06-30T15:18:26Z</time>
      </trkpt>
      <trkpt lat="40.757317" lon="-4.503950">
        <ele>1787.0</ele>
        <time>2014-06-30T15:18:27Z</time>
      </trkpt>
      <trkpt lat="40.757383" lon="-4.503917">
        <ele>1788.0</ele>
        <time>2014-06-30T15:18:28Z</time>
      </trkpt>
      <trkpt lat="40.757450" lon="-4.503883">
        <ele>1789.0</ele>
        <time>2014-06-30T15:18:29Z</time>
      </trkpt>
      <trkpt lat="40.757500" lon="-4.503850">
        <ele>1790.0</ele>
        <time>2014-06-30T15:18:30Z</time>
      </trkpt>
      <trkpt lat="40.757567" lon="-4.503800">
        <ele>1791.0</ele>
        <time>2014-06-30T15:18:31Z</time>
      </trkpt>
      <trkpt lat="40.757633" lon="-4.503750">
        <ele>1792.0</ele>
        <time>2014-06-30T15:18:32Z</time>
      </trkpt>
      <trkpt lat="40.757717" lon="-4.503667">
        <ele>1792.0</ele>
        <time>2014-06-30T15:18:33Z</time>
      </trkpt>
      <trkpt lat="40.757783" lon="-4.503567">
        <ele>1791.0</ele>
        <time>2014-06-30T15:18:34Z</time>
      </trkpt>
      <trkpt lat="40.757850" lon="-4.503433">
        <ele>1791.0</ele>
        <time>2014-06-30T15:18:35Z</time>
      </trkpt>
      <trkpt lat="40.757900" lon="-4.503283">
        <ele>1791.0</ele>
        <time>2014-06-30T15:18:36Z</time>
      </trkpt>
      <trkpt lat="40.757933" lon="-4.503133">
        <ele>1792.0</ele>
        <time>2014-06-30T15:18:37Z</time>
      </trkpt>
      <trkpt lat="40.757950" lon="-4.502950">
        <ele>1792.0</ele>
        <time>2014-06-30T15:18:38Z</time>
      </trkpt>
      <trkpt lat="40.757933" lon="-4.502767">
        <ele>1792.0</ele>
        <time>2014-06-30T15:18:39Z</time>
      </trkpt>
      <trkpt lat="40.757900" lon="-4.502583">
        <ele>1792.0</ele>
        <time>2014-06-30T15:18:40Z</time>
      </trkpt>
      <trkpt lat="40.757867" lon="-4.502400">
        <ele>1792.0</ele>
        <time>2014-06-30T15:18:41Z</time>
      </trkpt>
      <trkpt lat="40.757800" lon="-4.502233">
        <ele>1792.0</ele>
        <time>2014-06-30T15:18:42Z</time>
      </trkpt>
      <trkpt lat="40.757717" lon="-4.502067">
        <ele>1792.0</ele>
        <time>2014-06-30T15:18:43Z</time>
      </trkpt>
      <trkpt lat="40.757650" lon="-4.501900">
        <ele>1793.0</ele>
        <time>2014-06-30T15:18:44Z</time>
      </trkpt>
      <trkpt lat="40.757567" lon="-4.501767">
        <ele>1795.0</ele>
        <time>2014-06-30T15:18:45Z</time>
      </trkpt>
      <trkpt lat="40.757483" lon="-4.501650">
        <ele>1796.0</ele>
        <time>2014-06-30T15:18:46Z</time>
      </trkpt>
      <trkpt lat="40.757400" lon="-4.501517">
        <ele>1797.0</ele>
        <time>2014-06-30T15:18:47Z</time>
      </trkpt>
      <trkpt lat="40.757300" lon="-4.501417">
        <ele>1798.0</ele>
        <time>2014-06-30T15:18:48Z</time>
      </trkpt>
      <trkpt lat="40.757183" lon="-4.501333">
        <ele>1799.0</ele>
        <time>2014-06-30T15:18:49Z</time>
      </trkpt>
      <trkpt lat="40.757083" lon="-4.501267">
        <ele>1801.0</ele>
        <time>2014-06-30T15:18:50Z</time>
      </trkpt>
      <trkpt lat="40.756983" lon="-4.501217">
        <ele>1802.0</ele>
        <time>2014-06-30T15:18:51Z</time>
      </trkpt>
      <trkpt lat="40.756900" lon="-4.501183">
        <ele>1804.0</ele>
        <time>2014-06-30T15:18:52Z</time>
      </trkpt>
      <trkpt lat="40.756833" lon="-4.501167">
        <ele>1806.0</ele>
        <time>2014-06-30T15:18:53Z</time>
      </trkpt>
      <trkpt lat="40.756767" lon="-4.501150">
        <ele>1808.0</ele>
        <time>2014-06-30T15:18:54Z</time>
      </trkpt>
      <trkpt lat="40.756700" lon="-4.501150">
        <ele>1810.0</ele>
        <time>2014-06-30T15:18:55Z</time>
      </trkpt>
      <trkpt lat="40.756667" lon="-4.501167">
        <ele>1811.0</ele>
        <time>2014-06-30T15:18:56Z</time>
      </trkpt>
      <trkpt lat="40.756667" lon="-4.501200">
        <ele>1813.0</ele>
        <time>2014-06-30T15:18:57Z</time>
      </trkpt>
      <trkpt lat="40.756650" lon="-4.501233">
        <ele>1815.0</ele>
        <time>2014-06-30T15:18:58Z</time>
      </trkpt>
      <trkpt lat="40.756667" lon="-4.501250">
        <ele>1817.0</ele>
        <time>2014-06-30T15:18:59Z</time>
      </trkpt>
      <trkpt lat="40.756683" lon="-4.501267">
        <ele>1820.0</ele>
        <time>2014-06-30T15:19:00Z</time>
      </trkpt>
      <trkpt lat="40.756700" lon="-4.501267">
        <ele>1821.0</ele>
        <time>2014-06-30T15:19:01Z</time>
      </trkpt>
      <trkpt lat="40.756733" lon="-4.501283">
        <ele>1822.0</ele>
        <time>2014-06-30T15:19:02Z</time>
      </trkpt>
      <trkpt lat="40.756767" lon="-4.501283">
        <ele>1823.0</ele>
        <time>2014-06-30T15:19:03Z</time>
      </trkpt>
      <trkpt lat="40.756800" lon="-4.501267">
        <ele>1824.0</ele>
        <time>2014-06-30T15:19:04Z</time>
      </trkpt>
      <trkpt lat="40.756850" lon="-4.501250">
        <ele>1823.0</ele>
        <time>2014-06-30T15:19:05Z</time>
      </trkpt>
      <trkpt lat="40.756900" lon="-4.501200">
        <ele>1823.0</ele>
        <time>2014-06-30T15:19:06Z</time>
      </trkpt>
      <trkpt lat="40.756967" lon="-4.501133">
        <ele>1824.0</ele>
        <time>2014-06-30T15:19:07Z</time>
      </trkpt>
      <trkpt lat="40.757017" lon="-4.501033">
        <ele>1824.0</ele>
        <time>2014-06-30T15:19:08Z</time>
      </trkpt>
      <trkpt lat="40.757083" lon="-4.500917">
        <ele>1825.0</ele>
        <time>2014-06-30T15:19:09Z</time>
      </trkpt>
      <trkpt lat="40.757133" lon="-4.500783">
        <ele>1825.0</ele>
        <time>2014-06-30T15:19:10Z</time>
      </trkpt>
      <trkpt lat="40.757183" lon="-4.500633">
        <ele>1826.0</ele>
        <time>2014-06-30T15:19:11Z</time>
      </trkpt>
      <trkpt lat="40.757217" lon="-4.500467">
        <ele>1827.0</ele>
        <time>2014-06-30T15:19:12Z</time>
      </trkpt>
      <trkpt lat="40.757250" lon="-4.500283">
        <ele>1828.0</ele>
        <time>2014-06-30T15:19:13Z</time>
      </trkpt>
      <trkpt lat="40.757267" lon="-4.500100">
        <ele>1829.0</ele>
        <time>2014-06-30T15:19:14Z</time>
      </trkpt>
      <trkpt lat="40.757267" lon="-4.499917">
        <ele>1829.0</ele>
        <time>2014-06-30T15:19:15Z</time>
      </trkpt>
      <trkpt lat="40.757283" lon="-4.499750">
        <ele>1831.0</ele>
        <time>2014-06-30T15:19:16Z</time>
      </trkpt>
      <trkpt lat="40.757283" lon="-4.499567">
        <ele>1832.0</ele>
        <time>2014-06-30T15:19:17Z</time>
      </trkpt>
      <trkpt lat="40.757267" lon="-4.499400">
        <ele>1833.0</ele>
        <time>2014-06-30T15:19:18Z</time>
      </trkpt>
      <trkpt lat="40.757267" lon="-4.499200">
        <ele>1834.0</ele>
        <time>2014-06-30T15:19:19Z</time>
      </trkpt>
      <trkpt lat="40.757250" lon="-4.499000">
        <ele>1835.0</ele>
        <time>2014-06-30T15:19:20Z</time>
      </trkpt>
      <trkpt lat="40.757217" lon="-4.498800">
        <ele>1836.0</ele>
        <time>2014-06-30T15:19:21Z</time>
      </trkpt>
      <trkpt lat="40.757167" lon="-4.498617">
        <ele>1839.0</ele>
        <time>2014-06-30T15:19:22Z</time>
      </trkpt>
      <trkpt lat="40.757117" lon="-4.498450">
        <ele>1841.0</ele>
        <time>2014-06-30T15:19:23Z</time>
      </trkpt>
      <trkpt lat="40.757033" lon="-4.498283">
        <ele>1842.0</ele>
        <time>2014-06-30T15:19:24Z</time>
      </trkpt>
      <trkpt lat="40.756950" lon="-4.498133">
        <ele>1843.0</ele>
        <time>2014-06-30T15:19:25Z</time>
      </trkpt>
      <trkpt lat="40.756850" lon="-4.497983">
        <ele>1845.0</ele>
        <time>2014-06-30T15:19:26Z</time>
      </trkpt>
      <trkpt lat="40.756750" lon="-4.497867">
        <ele>1847.0</ele>
        <time>2014-06-30T15:19:27Z</time>
      </trkpt>
      <trkpt lat="40.756667" lon="-4.497767">
        <ele>1850.0</ele>
        <time>2014-06-30T15:19:28Z</time>
      </trkpt>
      <trkpt lat="40.756583" lon="-4.497683">
        <ele>1852.0</ele>
        <time>2014-06-30T15:19:29Z</time>
      </trkpt>
      <trkpt lat="40.756483" lon="-4.497650">
        <ele>1854.0</ele>
        <time>2014-06-30T15:19:30Z</time>
      </trkpt>
      <trkpt lat="40.756400" lon="-4.497633">
        <ele>1850.0</ele>
        <time>2014-06-30T15:19:31Z</time>
      </trkpt>
      <trkpt lat="40.756317" lon="-4.497633">
        <ele>1851.0</ele>
        <time>2014-06-30T15:19:32Z</time>
      </trkpt>
      <trkpt lat="40.756250" lon="-4.497650">
        <ele>1851.0</ele>
        <time>2014-06-30T15:19:33Z</time>
      </trkpt>
      <trkpt lat="40.756217" lon="-4.497667">
        <ele>1852.0</ele>
        <time>2014-06-30T15:19:34Z</time>
      </trkpt>
      <trkpt lat="40.756167" lon="-4.497683">
        <ele>1853.0</ele>
        <time>2014-06-30T15:19:35Z</time>
      </trkpt>
      <trkpt lat="40.756117" lon="-4.497717">
        <ele>1854.0</ele>
        <time>2014-06-30T15:19:36Z</time>
      </trkpt>
      <trkpt lat="40.756083" lon="-4.497750">
        <ele>1854.0</ele>
        <time>2014-06-30T15:19:37Z</time>
      </trkpt>
      <trkpt lat="40.756067" lon="-4.497767">
        <ele>1855.0</ele>
        <time>2014-06-30T15:19:38Z</time>
      </trkpt>
      <trkpt lat="40.756050" lon="-4.497800">
        <ele>1857.0</ele>
        <time>2014-06-30T15:19:39Z</time>
      </trkpt>
      <trkpt lat="40.756033" lon="-4.497817">
        <ele>1859.0</ele>
        <time>2014-06-30T15:19:40Z</time>
      </trkpt>
      <trkpt lat="40.756050" lon="-4.497833">
        <ele>1861.0</ele>
        <time>2014-06-30T15:19:41Z</time>
      </trkpt>
      <trkpt lat="40.756050" lon="-4.497867">
        <ele>1864.0</ele>
        <time>2014-06-30T15:19:42Z</time>
      </trkpt>
      <trkpt lat="40.756067" lon="-4.497900">
        <ele>1866.0</ele>
        <time>2014-06-30T15:19:43Z</time>
      </trkpt>
      <trkpt lat="40.756067" lon="-4.497917">
        <ele>1869.0</ele>
        <time>2014-06-30T15:19:44Z</time>
      </trkpt>
      <trkpt lat="40.756083" lon="-4.497917">
        <ele>1871.0</ele>
        <time>2014-06-30T15:19:45Z</time>
      </trkpt>
      <trkpt lat="40.756117" lon="-4.497917">
        <ele>1873.0</ele>
        <time>2014-06-30T15:19:46Z</time>
      </trkpt>
      <trkpt lat="40.756150" lon="-4.497933">
        <ele>1874.0</ele>
        <time>2014-06-30T15:19:47Z</time>
      </trkpt>
      <trkpt lat="40.756183" lon="-4.497950">
        <ele>1876.0</ele>
        <time>2014-06-30T15:19:48Z</time>
      </trkpt>
      <trkpt lat="40.756217" lon="-4.497933">
        <ele>1877.0</ele>
        <time>2014-06-30T15:19:49Z</time>
      </trkpt>
      <trkpt lat="40.756267" lon="-4.497883">
        <ele>1878.0</ele>
        <time>2014-06-30T15:19:50Z</time>
      </trkpt>
      <trkpt lat="40.756333" lon="-4.497817">
        <ele>1879.0</ele>
        <time>2014-06-30T15:19:51Z</time>
      </trkpt>
      <trkpt lat="40.756400" lon="-4.497717">
        <ele>1880.0</ele>
        <time>2014-06-30T15:19:52Z</time>
      </trkpt>
      <trkpt lat="40.756467" lon="-4.497617">
        <ele>1880.0</ele>
        <time>2014-06-30T15:19:53Z</time>
      </trkpt>
      <trkpt lat="40.756533" lon="-4.497500">
        <ele>1880.0</ele>
        <time>2014-06-30T15:19:54Z</time>
      </trkpt>
      <trkpt lat="40.756600" lon="-4.497383">
        <ele>1881.0</ele>
        <time>2014-06-30T15:19:55Z</time>
      </trkpt>
      <trkpt lat="40.756667" lon="-4.497250">
        <ele>1881.0</ele>
        <time>2014-06-30T15:19:56Z</time>
      </trkpt>
      <trkpt lat="40.756733" lon="-4.497117">
        <ele>1882.0</ele>
        <time>2014-06-30T15:19:57Z</time>
      </trkpt>
      <trkpt lat="40.756783" lon="-4.496967">
        <ele>1883.0</ele>
        <time>2014-06-30T15:19:58Z</time>
      </trkpt>
      <trkpt lat="40.756833" lon="-4.496800">
        <ele>1884.0</ele>
        <time>2014-06-30T15:19:59Z</time>
      </trkpt>
      <trkpt lat="40.756867" lon="-4.496650">
        <ele>1885.0</ele>
        <time>2014-06-30T15:20:00Z</time>
      </trkpt>
      <trkpt lat="40.756900" lon="-4.496500">
        <ele>1886.0</ele>
        <time>2014-06-30T15:20:01Z</time>
      </trkpt>
      <trkpt lat="40.756917" lon="-4.496333">
        <ele>1886.0</ele>
        <time>2014-06-30T15:20:02Z</time>
      </trkpt>
      <trkpt lat="40.756950" lon="-4.496150">
        <ele>1887.0</ele>
        <time>2014-06-30T15:20:03Z</time>
      </trkpt>
      <trkpt lat="40.756967" lon="-4.495967">
        <ele>1887.0</ele>
        <time>2014-06-30T15:20:04Z</time>
      </trkpt>
      <trkpt lat="40.756967" lon="-4.495783">
        <ele>1888.0</ele>
        <time>2014-06-30T15:20:05Z</time>
      </trkpt>
      <trkpt lat="40.756950" lon="-4.495600">
        <ele>1889.0</ele>
        <time>2014-06-30T15:20:06Z</time>
      </trkpt>
      <trkpt lat="40.756917" lon="-4.495417">
        <ele>1889.0</ele>
        <time>2014-06-30T15:20:07Z</time>
      </trkpt>
      <trkpt lat="40.756850" lon="-4.495233">
        <ele>1890.0</ele>
        <time>2014-06-30T15:20:08Z</time>
      </trkpt>
      <trkpt lat="40.756783" lon="-4.495067">
        <ele>1891.0</ele>
        <time>2014-06-30T15:20:09Z</time>
      </trkpt>
      <trkpt lat="40.756700" lon="-4.494933">
        <ele>1892.0</ele>
        <time>2014-06-30T15:20:10Z</time>
      </trkpt>
      <trkpt lat="40.756617" lon="-4.494817">
        <ele>1893.0</ele>
        <time>2014-06-30T15:20:11Z</time>
      </trkpt>
      <trkpt lat="40.756517" lon="-4.494717">
        <ele>1894.0</ele>
        <time>2014-06-30T15:20:12Z</time>
      </trkpt>
      <trkpt lat="40.756417" lon="-4.494617">
        <ele>1894.0</ele>
        <time>2014-06-30T15:20:13Z</time>
      </trkpt>
      <trkpt lat="40.756317" lon="-4.494550">
        <ele>1895.0</ele>
        <time>2014-06-30T15:20:14Z</time>
      </trkpt>
      <trkpt lat="40.756217" lon="-4.494533">
        <ele>1896.0</ele>
        <time>2014-06-30T15:20:15Z</time>
      </trkpt>
      <trkpt lat="40.756117" lon="-4.494533">
        <ele>1896.0</ele>
        <time>2014-06-30T15:20:16Z</time>
      </trkpt>
      <trkpt lat="40.756017" lon="-4.494567">
        <ele>1896.0</ele>
        <time>2014-06-30T15:20:17Z</time>
      </trkpt>
      <trkpt lat="40.755950" lon="-4.494617">
        <ele>1896.0</ele>
        <time>2014-06-30T15:20:18Z</time>
      </trkpt>
      <trkpt lat="40.755900" lon="-4.494650">
        <ele>1897.0</ele>
        <time>2014-06-30T15:20:19Z</time>
      </trkpt>
      <trkpt lat="40.755850" lon="-4.494683">
        <ele>1898.0</ele>
        <time>2014-06-30T15:20:20Z</time>
      </trkpt>
      <trkpt lat="40.755817" lon="-4.494717">
        <ele>1899.0</ele>
        <time>2014-06-30T15:20:21Z</time>
      </trkpt>
      <trkpt lat="40.755783" lon="-4.494767">
        <ele>1900.0</ele>
        <time>2014-06-30T15:20:22Z</time>
      </trkpt>
      <trkpt lat="40.755750" lon="-4.494800">
        <ele>1900.0</ele>
        <time>2014-06-30T15:20:23Z</time>
      </trkpt>
      <trkpt lat="40.755717" lon="-4.494850">
        <ele>1900.0</ele>
        <time>2014-06-30T15:20:24Z</time>
      </trkpt>
      <trkpt lat="40.755717" lon="-4.494883">
        <ele>1900.0</ele>
        <time>2014-06-30T15:20:25Z</time>
      </trkpt>
      <trkpt lat="40.755700" lon="-4.494917">
        <ele>1900.0</ele>
        <time>2014-06-30T15:20:26Z</time>
      </trkpt>
      <trkpt lat="40.755700" lon="-4.494950">
        <ele>1900.0</ele>
        <time>2014-06-30T15:20:27Z</time>
      </trkpt>
      <trkpt lat="40.755683" lon="-4.494983">
        <ele>1901.0</ele>
        <time>2014-06-30T15:20:28Z</time>
      </trkpt>
      <trkpt lat="40.755683" lon="-4.495017">
        <ele>1902.0</ele>
        <time>2014-06-30T15:20:29Z</time>
      </trkpt>
      <trkpt lat="40.755667" lon="-4.495067">
        <ele>1905.0</ele>
        <time>2014-06-30T15:20:30Z</time>
      </trkpt>
      <trkpt lat="40.755650" lon="-4.495083">
        <ele>1908.0</ele>
        <time>2014-06-30T15:20:31Z</time>
      </trkpt>
      <trkpt lat="40.755617" lon="-4.495117">
        <ele>1911.0</ele>
        <time>2014-06-30T15:20:32Z</time>
      </trkpt>
      <trkpt lat="40.755600" lon="-4.495133">
        <ele>1913.0</ele>
        <time>2014-06-30T15:20:33Z</time>
      </trkpt>
      <trkpt lat="40.755567" lon="-4.495150">
        <ele>1916.0</ele>
        <time>2014-06-30T15:20:34Z</time>
      </trkpt>
      <trkpt lat="40.755533" lon="-4.495200">
        <ele>1917.0</ele>
        <time>2014-06-30T15:20:35Z</time>
      </trkpt>
      <trkpt lat="40.755483" lon="-4.495233">
        <ele>1919.0</ele>
        <time>2014-06-30T15:20:36Z</time>
      </trkpt>
      <trkpt lat="40.755450" lon="-4.495267">
        <ele>1922.0</ele>
        <time>2014-06-30T15:20:37Z</time>
      </trkpt>
      <trkpt lat="40.755417" lon="-4.495300">
        <ele>1924.0</ele>
        <time>2014-06-30T15:20:38Z</time>
      </trkpt>
      <trkpt lat="40.755400" lon="-4.495317">
        <ele>1928.0</ele>
        <time>2014-06-30T15:20:39Z</time>
      </trkpt>
      <trkpt lat="40.755383" lon="-4.495333">
        <ele>1931.0</ele>
        <time>2014-06-30T15:20:40Z</time>
      </trkpt>
      <trkpt lat="40.755367" lon="-4.495367">
        <ele>1934.0</ele>
        <time>2014-06-30T15:20:41Z</time>
      </trkpt>
      <trkpt lat="40.755367" lon="-4.495383">
        <ele>1936.0</ele>
        <time>2014-06-30T15:20:42Z</time>
      </trkpt>
      <trkpt lat="40.755383" lon="-4.495433">
        <ele>1937.0</ele>
        <time>2014-06-30T15:20:43Z</time>
      </trkpt>
      <trkpt lat="40.755400" lon="-4.495450">
        <ele>1939.0</ele>
        <time>2014-06-30T15:20:44Z</time>
      </trkpt>
      <trkpt lat="40.755433" lon="-4.495467">
        <ele>1941.0</ele>
        <time>2014-06-30T15:20:45Z</time>
      </trkpt>
      <trkpt lat="40.755467" lon="-4.495450">
        <ele>1943.0</ele>
        <time>2014-06-30T15:20:46Z</time>
      </trkpt>
      <trkpt lat="40.755517" lon="-4.495450">
        <ele>1944.0</ele>
        <time>2014-06-30T15:20:47Z</time>
      </trkpt>
      <trkpt lat="40.755567" lon="-4.495417">
        <ele>1946.0</ele>
        <time>2014-06-30T15:20:48Z</time>
      </trkpt>
      <trkpt lat="40.755617" lon="-4.495383">
        <ele>1949.0</ele>
        <time>2014-06-30T15:20:49Z</time>
      </trkpt>
      <trkpt lat="40.755683" lon="-4.495317">
        <ele>1951.0</ele>
        <time>2014-06-30T15:20:50Z</time>
      </trkpt>
      <trkpt lat="40.755750" lon="-4.495233">
        <ele>1954.0</ele>
        <time>2014-06-30T15:20:51Z</time>
      </trkpt>
      <trkpt lat="40.755783" lon="-4.495117">
        <ele>1956.0</ele>
        <time>2014-06-30T15:20:52Z</time>
      </trkpt>
      <trkpt lat="40.755817" lon="-4.494967">
        <ele>1959.0</ele>
        <time>2014-06-30T15:20:53Z</time>
      </trkpt>
      <trkpt lat="40.755817" lon="-4.494817">
        <ele>1962.0</ele>
        <time>2014-06-30T15:20:54Z</time>
      </trkpt>
      <trkpt lat="40.755817" lon="-4.494667">
        <ele>1965.0</ele>
        <time>2014-06-30T15:20:55Z</time>
      </trkpt>
      <trkpt lat="40.755767" lon="-4.494483">
        <ele>1969.0</ele>
        <time>2014-06-30T15:20:56Z</time>
      </trkpt>
      <trkpt lat="40.755717" lon="-4.494317">
        <ele>1974.0</ele>
        <time>2014-06-30T15:20:57Z</time>
      </trkpt>
      <trkpt lat="40.755650" lon="-4.494150">
        <ele>1980.0</ele>
        <time>2014-06-30T15:20:58Z</time>
      </trkpt>
      <trkpt lat="40.755567" lon="-4.494017">
        <ele>1983.0</ele>
        <time>2014-06-30T15:20:59Z</time>
      </trkpt>
      <trkpt lat="40.755483" lon="-4.493867">
        <ele>1981.0</ele>
        <time>2014-06-30T15:21:00Z</time>
      </trkpt>
      <trkpt lat="40.755383" lon="-4.493733">
        <ele>1983.0</ele>
        <time>2014-06-30T15:21:01Z</time>
      </trkpt>
      <trkpt lat="40.755283" lon="-4.493633">
        <ele>1985.0</ele>
        <time>2014-06-30T15:21:02Z</time>
      </trkpt>
      <trkpt lat="40.755183" lon="-4.493583">
        <ele>1987.0</ele>
        <time>2014-06-30T15:21:03Z</time>
      </trkpt>
      <trkpt lat="40.755083" lon="-4.493567">
        <ele>1990.0</ele>
        <time>2014-06-30T15:21:04Z</time>
      </trkpt>
      <trkpt lat="40.755000" lon="-4.493567">
        <ele>1993.0</ele>
        <time>2014-06-30T15:21:05Z</time>
      </trkpt>
      <trkpt lat="40.754900" lon="-4.493583">
        <ele>1995.0</ele>
        <time>2014-06-30T15:21:06Z</time>
      </trkpt>
      <trkpt lat="40.754783" lon="-4.493583">
        <ele>1996.0</ele>
        <time>2014-06-30T15:21:07Z</time>
      </trkpt>
      <trkpt lat="40.754700" lon="-4.493583">
        <ele>1990.0</ele>
        <time>2014-06-30T15:21:08Z</time>
      </trkpt>
      <trkpt lat="40.754617" lon="-4.493600">
        <ele>1990.0</ele>
        <time>2014-06-30T15:21:09Z</time>
      </trkpt>
      <trkpt lat="40.754567" lon="-4.493617">
        <ele>1990.0</ele>
        <time>2014-06-30T15:21:10Z</time>
      </trkpt>
      <trkpt lat="40.754517" lon="-4.493633">
        <ele>1990.0</ele>
        <time>2014-06-30T15:21:11Z</time>
      </trkpt>
      <trkpt lat="40.754483" lon="-4.493667">
        <ele>1991.0</ele>
        <time>2014-06-30T15:21:12Z</time>
      </trkpt>
      <trkpt lat="40.754467" lon="-4.493683">
        <ele>1992.0</ele>
        <time>2014-06-30T15:21:13Z</time>
      </trkpt>
      <trkpt lat="40.754467" lon="-4.493733">
        <ele>1993.0</ele>
        <time>2014-06-30T15:21:14Z</time>
      </trkpt>
      <trkpt lat="40.754467" lon="-4.493767">
        <ele>1994.0</ele>
        <time>2014-06-30T15:21:15Z</time>
      </trkpt>
      <trkpt lat="40.754483" lon="-4.493800">
        <ele>1994.0</ele>
        <time>2014-06-30T15:21:16Z</time>
      </trkpt>
      <trkpt lat="40.754517" lon="-4.493833">
        <ele>1996.0</ele>
        <time>2014-06-30T15:21:17Z</time>
      </trkpt>
      <trkpt lat="40.754533" lon="-4.493850">
        <ele>1998.0</ele>
        <time>2014-06-30T15:21:18Z</time>
      </trkpt>
      <trkpt lat="40.754567" lon="-4.493883">
        <ele>1999.0</ele>
        <time>2014-06-30T15:21:19Z</time>
      </trkpt>
      <trkpt lat="40.754617" lon="-4.493900">
        <ele>2001.0</ele>
        <time>2014-06-30T15:21:20Z</time>
      </trkpt>
      <trkpt lat="40.754667" lon="-4.493900">
        <ele>2002.0</ele>
        <time>2014-06-30T15:21:21Z</time>
      </trkpt>
      <trkpt lat="40.754717" lon="-4.493900">
        <ele>2004.0</ele>
        <time>2014-06-30T15:21:22Z</time>
      </trkpt>
      <trkpt lat="40.754783" lon="-4.493883">
        <ele>2004.0</ele>
        <time>2014-06-30T15:21:23Z</time>
      </trkpt>
      <trkpt lat="40.754833" lon="-4.493883">
        <ele>2006.0</ele>
        <time>2014-06-30T15:21:24Z</time>
      </trkpt>
      <trkpt lat="40.754900" lon="-4.493867">
        <ele>2007.0</ele>
        <time>2014-06-30T15:21:25Z</time>
      </trkpt>
      <trkpt lat="40.754967" lon="-4.493867">
        <ele>2008.0</ele>
        <time>2014-06-30T15:21:26Z</time>
      </trkpt>
      <trkpt lat="40.755033" lon="-4.493850">
        <ele>2008.0</ele>
        <time>2014-06-30T15:21:27Z</time>
      </trkpt>
      <trkpt lat="40.755100" lon="-4.493833">
        <ele>2009.0</ele>
        <time>2014-06-30T15:21:28Z</time>
      </trkpt>
      <trkpt lat="40.755167" lon="-4.493817">
        <ele>2010.0</ele>
        <time>2014-06-30T15:21:29Z</time>
      </trkpt>
      <trkpt lat="40.755250" lon="-4.493783">
        <ele>2013.0</ele>
        <time>2014-06-30T15:21:30Z</time>
      </trkpt>
      <trkpt lat="40.755317" lon="-4.493733">
        <ele>2014.0</ele>
        <time>2014-06-30T15:21:31Z</time>
      </trkpt>
      <trkpt lat="40.755400" lon="-4.493667">
        <ele>2016.0</ele>
        <time>2014-06-30T15:21:32Z</time>
      </trkpt>
      <trkpt lat="40.755467" lon="-4.493617">
        <ele>2019.0</ele>
        <time>2014-06-30T15:21:33Z</time>
      </trkpt>
      <trkpt lat="40.755533" lon="-4.493583">
        <ele>2022.0</ele>
        <time>2014-06-30T15:21:34Z</time>
      </trkpt>
      <trkpt lat="40.755583" lon="-4.493533">
        <ele>2024.0</ele>
        <time>2014-06-30T15:21:35Z</time>
      </trkpt>
      <trkpt lat="40.755650" lon="-4.493500">
        <ele>2026.0</ele>
        <time>2014-06-30T15:21:36Z</time>
      </trkpt>
      <trkpt lat="40.755700" lon="-4.493433">
        <ele>2028.0</ele>
        <time>2014-06-30T15:21:37Z</time>
      </trkpt>
      <trkpt lat="40.755767" lon="-4.493350">
        <ele>2030.0</ele>
        <time>2014-06-30T15:21:38Z</time>
      </trkpt>
      <trkpt lat="40.755833" lon="-4.493233">
        <ele>2031.0</ele>
        <time>2014-06-30T15:21:39Z</time>
      </trkpt>
      <trkpt lat="40.755883" lon="-4.493100">
        <ele>2033.0</ele>
        <time>2014-06-30T15:21:40Z</time>
      </trkpt>
      <trkpt lat="40.755917" lon="-4.492950">
        <ele>2035.0</ele>
        <time>2014-06-30T15:21:41Z</time>
      </trkpt>
      <trkpt lat="40.755933" lon="-4.492783">
        <ele>2037.0</ele>
        <time>2014-06-30T15:21:42Z</time>
      </trkpt>
      <trkpt lat="40.755933" lon="-4.492600">
        <ele>2039.0</ele>
        <time>2014-06-30T15:21:43Z</time>
      </trkpt>
      <trkpt lat="40.755900" lon="-4.492417">
        <ele>2041.0</ele>
        <time>2014-06-30T15:21:44Z</time>
      </trkpt>
      <trkpt lat="40.755867" lon="-4.492233">
        <ele>2043.0</ele>
        <time>2014-06-30T15:21:45Z</time>
      </trkpt>
      <trkpt lat="40.755817" lon="-4.492067">
        <ele>2046.0</ele>
        <time>2014-06-30T15:21:46Z</time>
      </trkpt>
      <trkpt lat="40.755733" lon="-4.491933">
        <ele>2048.0</ele>
        <time>2014-06-30T15:21:47Z</time>
      </trkpt>
      <trkpt lat="40.755667" lon="-4.491800">
        <ele>2050.0</ele>
        <time>2014-06-30T15:21:48Z</time>
      </trkpt>
      <trkpt lat="40.755567" lon="-4.491700">
        <ele>2051.0</ele>
        <time>2014-06-30T15:21:49Z</time>
      </trkpt>
      <trkpt lat="40.755483" lon="-4.491583">
        <ele>2053.0</ele>
        <time>2014-06-30T15:21:50Z</time>
      </trkpt>
      <trkpt lat="40.755417" lon="-4.491467">
        <ele>2053.0</ele>
        <time>2014-06-30T15:21:51Z</time>
      </trkpt>
      <trkpt lat="40.755333" lon="-4.491333">
        <ele>2054.0</ele>
        <time>2014-06-30T15:21:52Z</time>
      </trkpt>
      <trkpt lat="40.755233" lon="-4.491200">
        <ele>2055.0</ele>
        <time>2014-06-30T15:21:53Z</time>
      </trkpt>
      <trkpt lat="40.755150" lon="-4.491100">
        <ele>2056.0</ele>
        <time>2014-06-30T15:21:54Z</time>
      </trkpt>
      <trkpt lat="40.755050" lon="-4.491050">
        <ele>2057.0</ele>
        <time>2014-06-30T15:21:55Z</time>
      </trkpt>
      <trkpt lat="40.754950" lon="-4.491033">
        <ele>2056.0</ele>
        <time>2014-06-30T15:21:56Z</time>
      </trkpt>
      <trkpt lat="40.754867" lon="-4.491050">
        <ele>2056.0</ele>
        <time>2014-06-30T15:21:57Z</time>
      </trkpt>
      <trkpt lat="40.754783" lon="-4.491100">
        <ele>2056.0</ele>
        <time>2014-06-30T15:21:58Z</time>
      </trkpt>
      <trkpt lat="40.754750" lon="-4.491150">
        <ele>2057.0</ele>
        <time>2014-06-30T15:21:59Z</time>
      </trkpt>
      <trkpt lat="40.754733" lon="-4.491217">
        <ele>2058.0</ele>
        <time>2014-06-30T15:22:00Z</time>
      </trkpt>
      <trkpt lat="40.754717" lon="-4.491267">
        <ele>2059.0</ele>
        <time>2014-06-30T15:22:01Z</time>
      </trkpt>
      <trkpt lat="40.754683" lon="-4.491317">
        <ele>2060.0</ele>
        <time>2014-06-30T15:22:02Z</time>
      </trkpt>
      <trkpt lat="40.754667" lon="-4.491350">
        <ele>2061.0</ele>
        <time>2014-06-30T15:22:03Z</time>
      </trkpt>
      <trkpt lat="40.754633" lon="-4.491400">
        <ele>2062.0</ele>
        <time>2014-06-30T15:22:04Z</time>
      </trkpt>
      <trkpt lat="40.754617" lon="-4.491433">
        <ele>2064.0</ele>
        <time>2014-06-30T15:22:05Z</time>
      </trkpt>
      <trkpt lat="40.754583" lon="-4.491483">
        <ele>2065.0</ele>
        <time>2014-06-30T15:22:06Z</time>
      </trkpt>
      <trkpt lat="40.754550" lon="-4.491517">
        <ele>2067.0</ele>
        <time>2014-06-30T15:22:07Z</time>
      </trkpt>
      <trkpt lat="40.754517" lon="-4.491550">
        <ele>2068.0</ele>
        <time>2014-06-30T15:22:08Z</time>
      </trkpt>
      <trkpt lat="40.754517" lon="-4.491583">
        <ele>2070.0</ele>
        <time>2014-06-30T15:22:09Z</time>
      </trkpt>
      <trkpt lat="40.754517" lon="-4.491600">
        <ele>2070.0</ele>
        <time>2014-06-30T15:22:10Z</time>
      </trkpt>
      <trkpt lat="40.754533" lon="-4.491617">
        <ele>2070.0</ele>
        <time>2014-06-30T15:22:11Z</time>
      </trkpt>
      <trkpt lat="40.754567" lon="-4.491650">
        <ele>2070.0</ele>
        <time>2014-06-30T15:22:12Z</time>
      </trkpt>
      <trkpt lat="40.754600" lon="-4.491667">
        <ele>2070.0</ele>
        <time>2014-06-30T15:22:13Z</time>
      </trkpt>
      <trkpt lat="40.754650" lon="-4.491683">
        <ele>2071.0</ele>
        <time>2014-06-30T15:22:14Z</time>
      </trkpt>
      <trkpt lat="40.754683" lon="-4.491700">
        <ele>2072.0</ele>
        <time>2014-06-30T15:22:15Z</time>
      </trkpt>
      <trkpt lat="40.754733" lon="-4.491717">
        <ele>2073.0</ele>
        <time>2014-06-30T15:22:16Z</time>
      </trkpt>
      <trkpt lat="40.754767" lon="-4.491717">
        <ele>2074.0</ele>
        <time>2014-06-30T15:22:17Z</time>
      </trkpt>
      <trkpt lat="40.754817" lon="-4.491733">
        <ele>2075.0</ele>
        <time>2014-06-30T15:22:18Z</time>
      </trkpt>
      <trkpt lat="40.754850" lon="-4.491733">
        <ele>2076.0</ele>
        <time>2014-06-30T15:22:19Z</time>
      </trkpt>
      <trkpt lat="40.754900" lon="-4.491733">
        <ele>2077.0</ele>
        <time>2014-06-30T15:22:20Z</time>
      </trkpt>
      <trkpt lat="40.754967" lon="-4.491733">
        <ele>2077.0</ele>
        <time>2014-06-30T15:22:21Z</time>
      </trkpt>
      <trkpt lat="40.755017" lon="-4.491733">
        <ele>2077.0</ele>
        <time>2014-06-30T15:22:22Z</time>
      </trkpt>
      <trkpt lat="40.755083" lon="-4.491700">
        <ele>2078.0</ele>
        <time>2014-06-30T15:22:23Z</time>
      </trkpt>
      <trkpt lat="40.755150" lon="-4.491667">
        <ele>2079.0</ele>
        <time>2014-06-30T15:22:24Z</time>
      </trkpt>
      <trkpt lat="40.755217" lon="-4.491633">
        <ele>2080.0</ele>
        <time>2014-06-30T15:22:25Z</time>
      </trkpt>
      <trkpt lat="40.755283" lon="-4.491567">
        <ele>2081.0</ele>
        <time>2014-06-30T15:22:26Z</time>
      </trkpt>
      <trkpt lat="40.755350" lon="-4.491500">
        <ele>2081.0</ele>
        <time>2014-06-30T15:22:27Z</time>
      </trkpt>
      <trkpt lat="40.755417" lon="-4.491417">
        <ele>2082.0</ele>
        <time>2014-06-30T15:22:28Z</time>
      </trkpt>
      <trkpt lat="40.755483" lon="-4.491333">
        <ele>2083.0</ele>
        <time>2014-06-30T15:22:29Z</time>
      </trkpt>
      <trkpt lat="40.755567" lon="-4.491233">
        <ele>2084.0</ele>
        <time>2014-06-30T15:22:30Z</time>
      </trkpt>
      <trkpt lat="40.755633" lon="-4.491133">
        <ele>2085.0</ele>
        <time>2014-06-30T15:22:31Z</time>
      </trkpt>
      <trkpt lat="40.755683" lon="-4.491033">
        <ele>2086.0</ele>
        <time>2014-06-30T15:22:32Z</time>
      </trkpt>
      <trkpt lat="40.755750" lon="-4.490917">
        <ele>2087.0</ele>
        <time>2014-06-30T15:22:33Z</time>
      </trkpt>
      <trkpt lat="40.755817" lon="-4.490783">
        <ele>2087.0</ele>
        <time>2014-06-30T15:22:34Z</time>
      </trkpt>
      <trkpt lat="40.755883" lon="-4.490683">
        <ele>2088.0</ele>
        <time>2014-06-30T15:22:35Z</time>
      </trkpt>
      <trkpt lat="40.755950" lon="-4.490583">
        <ele>2089.0</ele>
        <time>2014-06-30T15:22:36Z</time>
      </trkpt>
      <trkpt lat="40.756017" lon="-4.490483">
        <ele>2089.0</ele>
        <time>2014-06-30T15:22:37Z</time>
      </trkpt>
      <trkpt lat="40.756083" lon="-4.490367">
        <ele>2090.0</ele>
        <time>2014-06-30T15:22:38Z</time>
      </trkpt>
      <trkpt lat="40.756133" lon="-4.490250">
        <ele>2090.0</ele>
        <time>2014-06-30T15:22:39Z</time>
      </trkpt>
      <trkpt lat="40.756183" lon="-4.490100">
        <ele>2091.0</ele>
        <time>2014-06-30T15:22:40Z</time>
      </trkpt>
      <trkpt lat="40.756233" lon="-4.489967">
        <ele>2091.0</ele>
        <time>2014-06-30T15:22:41Z</time>
      </trkpt>
      <trkpt lat="40.756283" lon="-4.489817">
        <ele>2091.0</ele>
        <time>2014-06-30T15:22:42Z</time>
      </trkpt>
      <trkpt lat="40.756317" lon="-4.489667">
        <ele>2091.0</ele>
        <time>2014-06-30T15:22:43Z</time>
      </trkpt>
      <trkpt lat="40.756333" lon="-4.489483">
        <ele>2091.0</ele>
        <time>2014-06-30T15:22:44Z</time>
      </trkpt>
      <trkpt lat="40.756333" lon="-4.489300">
        <ele>2090.0</ele>
        <time>2014-06-30T15:22:45Z</time>
      </trkpt>
      <trkpt lat="40.756317" lon="-4.489100">
        <ele>2090.0</ele>
        <time>2014-06-30T15:22:46Z</time>
      </trkpt>
      <trkpt lat="40.756300" lon="-4.488900">
        <ele>2089.0</ele>
        <time>2014-06-30T15:22:47Z</time>
      </trkpt>
      <trkpt lat="40.756267" lon="-4.488700">
        <ele>2089.0</ele>
        <time>2014-06-30T15:22:48Z</time>
      </trkpt>
      <trkpt lat="40.756217" lon="-4.488517">
        <ele>2089.0</ele>
        <time>2014-06-30T15:22:49Z</time>
      </trkpt>
      <trkpt lat="40.756150" lon="-4.488350">
        <ele>2088.0</ele>
        <time>2014-06-30T15:22:50Z</time>
      </trkpt>
      <trkpt lat="40.756067" lon="-4.488183">
        <ele>2087.0</ele>
        <time>2014-06-30T15:22:51Z</time>
      </trkpt>
      <trkpt lat="40.755983" lon="-4.488017">
        <ele>2087.0</ele>
        <time>2014-06-30T15:22:52Z</time>
      </trkpt>
      <trkpt lat="40.755900" lon="-4.487850">
        <ele>2087.0</ele>
        <time>2014-06-30T15:22:53Z</time>
      </trkpt>
      <trkpt lat="40.755817" lon="-4.487700">
        <ele>2088.0</ele>
        <time>2014-06-30T15:22:54Z</time>
      </trkpt>
      <trkpt lat="40.755750" lon="-4.487550">
        <ele>2088.0</ele>
        <time>2014-06-30T15:22:55Z</time>
      </trkpt>
      <trkpt lat="40.755683" lon="-4.487400">
        <ele>2089.0</ele>
        <time>2014-06-30T15:22:56Z</time>
      </trkpt>
      <trkpt lat="40.755617" lon="-4.487233">
        <ele>2090.0</ele>
        <time>2014-06-30T15:22:57Z</time>
      </trkpt>
      <trkpt lat="40.755567" lon="-4.487050">
        <ele>2090.0</ele>
        <time>2014-06-30T15:22:58Z</time>
      </trkpt>
      <trkpt lat="40.755483" lon="-4.486867">
        <ele>2090.0</ele>
        <time>2014-06-30T15:22:59Z</time>
      </trkpt>
      <trkpt lat="40.755433" lon="-4.486667">
        <ele>2091.0</ele>
        <time>2014-06-30T15:23:00Z</time>
      </trkpt>
      <trkpt lat="40.755400" lon="-4.486483">
        <ele>2093.0</ele>
        <time>2014-06-30T15:23:01Z</time>
      </trkpt>
      <trkpt lat="40.755383" lon="-4.486317">
        <ele>2097.0</ele>
        <time>2014-06-30T15:23:02Z</time>
      </trkpt>
      <trkpt lat="40.755350" lon="-4.486133">
        <ele>2099.0</ele>
        <time>2014-06-30T15:23:03Z</time>
      </trkpt>
      <trkpt lat="40.755317" lon="-4.485950">
        <ele>2101.0</ele>
        <time>2014-06-30T15:23:04Z</time>
      </trkpt>
      <trkpt lat="40.755283" lon="-4.485767">
        <ele>2102.0</ele>
        <time>2014-06-30T15:23:05Z</time>
      </trkpt>
      <trkpt lat="40.755283" lon="-4.485583">
        <ele>2104.0</ele>
        <time>2014-06-30T15:23:06Z</time>
      </trkpt>
      <trkpt lat="40.755283" lon="-4.485400">
        <ele>2105.0</ele>
        <time>2014-06-30T15:23:07Z</time>
      </trkpt>
      <trkpt lat="40.755300" lon="-4.485217">
        <ele>2107.0</ele>
        <time>2014-06-30T15:23:08Z</time>
      </trkpt>
      <trkpt lat="40.755333" lon="-4.485033">
        <ele>2108.0</ele>
        <time>2014-06-30T15:23:09Z</time>
      </trkpt>
      <trkpt lat="40.755333" lon="-4.484867">
        <ele>2110.0</ele>
        <time>2014-06-30T15:23:10Z</time>
      </trkpt>
      <trkpt lat="40.755333" lon="-4.484683">
        <ele>2110.0</ele>
        <time>2014-06-30T15:23:11Z</time>
      </trkpt>
      <trkpt lat="40.755300" lon="-4.484500">
        <ele>2111.0</ele>
        <time>2014-06-30T15:23:12Z</time>
      </trkpt>
      <trkpt lat="40.755250" lon="-4.484333">
        <ele>2112.0</ele>
        <time>2014-06-30T15:23:13Z</time>
      </trkpt>
      <trkpt lat="40.755167" lon="-4.484183">
        <ele>2112.0</ele>
        <time>2014-06-30T15:23:14Z</time>
      </trkpt>
      <trkpt lat="40.755083" lon="-4.484100">
        <ele>2112.0</ele>
        <time>2014-06-30T15:23:15Z</time>
      </trkpt>
      <trkpt lat="40.754983" lon="-4.484017">
        <ele>2111.0</ele>
        <time>2014-06-30T15:23:16Z</time>
      </trkpt>
      <trkpt lat="40.754900" lon="-4.483983">
        <ele>2111.0</ele>
        <time>2014-06-30T15:23:17Z</time>
      </trkpt>
      <trkpt lat="40.754817" lon="-4.483983">
        <ele>2111.0</ele>
        <time>2014-06-30T15:23:18Z</time>
      </trkpt>
      <trkpt lat="40.754750" lon="-4.484000">
        <ele>2111.0</ele>
        <time>2014-06-30T15:23:19Z</time>
      </trkpt>
      <trkpt lat="40.754683" lon="-4.484033">
        <ele>2109.0</ele>
        <time>2014-06-30T15:23:20Z</time>
      </trkpt>
      <trkpt lat="40.754617" lon="-4.484067">
        <ele>2109.0</ele>
        <time>2014-06-30T15:23:21Z</time>
      </trkpt>
      <trkpt lat="40.754567" lon="-4.484083">
        <ele>2109.0</ele>
        <time>2014-06-30T15:23:22Z</time>
      </trkpt>
      <trkpt lat="40.754517" lon="-4.484100">
        <ele>2109.0</ele>
        <time>2014-06-30T15:23:23Z</time>
      </trkpt>
      <trkpt lat="40.754483" lon="-4.484117">
        <ele>2109.0</ele>
        <time>2014-06-30T15:23:24Z</time>
      </trkpt>
      <trkpt lat="40.754450" lon="-4.484150">
        <ele>2109.0</ele>
        <time>2014-06-30T15:23:25Z</time>
      </trkpt>
      <trkpt lat="40.754433" lon="-4.484200">
        <ele>2110.0</ele>
        <time>2014-06-30T15:23:26Z</time>
      </trkpt>
      <trkpt lat="40.754417" lon="-4.484233">
        <ele>2111.0</ele>
        <time>2014-06-30T15:23:27Z</time>
      </trkpt>
      <trkpt lat="40.754400" lon="-4.484250">
        <ele>2112.0</ele>
        <time>2014-06-30T15:23:28Z</time>
      </trkpt>
      <trkpt lat="40.754383" lon="-4.484283">
        <ele>2114.0</ele>
        <time>2014-06-30T15:23:29Z</time>
      </trkpt>
      <trkpt lat="40.754383" lon="-4.484317">
        <ele>2115.0</ele>
        <time>2014-06-30T15:23:30Z</time>
      </trkpt>
      <trkpt lat="40.754383" lon="-4.484333">
        <ele>2116.0</ele>
        <time>2014-06-30T15:23:31Z</time>
      </trkpt>
      <trkpt lat="40.754400" lon="-4.484367">
        <ele>2116.0</ele>
        <time>2014-06-30T15:23:32Z</time>
      </trkpt>
      <trkpt lat="40.754417" lon="-4.484383">
        <ele>2116.0</ele>
        <time>2014-06-30T15:23:33Z</time>
      </trkpt>
      <trkpt lat="40.754467" lon="-4.484433">
        <ele>2116.0</ele>
        <time>2014-06-30T15:23:34Z</time>
      </trkpt>
      <trkpt lat="40.754517" lon="-4.484467">
        <ele>2116.0</ele>
        <time>2014-06-30T15:23:35Z</time>
      </trkpt>
      <trkpt lat="40.754583" lon="-4.484483">
        <ele>2117.0</ele>
        <time>2014-06-30T15:23:36Z</time>
      </trkpt>
      <trkpt lat="40.754650" lon="-4.484483">
        <ele>2119.0</ele>
        <time>2014-06-30T15:23:37Z</time>
      </trkpt>
      <trkpt lat="40.754717" lon="-4.484467">
        <ele>2120.0</ele>
        <time>2014-06-30T15:23:38Z</time>
      </trkpt>
      <trkpt lat="40.754783" lon="-4.484450">
        <ele>2122.0</ele>
        <time>2014-06-30T15:23:39Z</time>
      </trkpt>
      <trkpt lat="40.754850" lon="-4.484450">
        <ele>2122.0</ele>
        <time>2014-06-30T15:23:40Z</time>
      </trkpt>
      <trkpt lat="40.754917" lon="-4.484467">
        <ele>2123.0</ele>
        <time>2014-06-30T15:23:41Z</time>
      </trkpt>
      <trkpt lat="40.754983" lon="-4.484467">
        <ele>2123.0</ele>
        <time>2014-06-30T15:23:42Z</time>
      </trkpt>
      <trkpt lat="40.755050" lon="-4.484450">
        <ele>2123.0</ele>
        <time>2014-06-30T15:23:43Z</time>
      </trkpt>
      <trkpt lat="40.755133" lon="-4.484433">
        <ele>2122.0</ele>
        <time>2014-06-30T15:23:44Z</time>
      </trkpt>
      <trkpt lat="40.755217" lon="-4.484367">
        <ele>2122.0</ele>
        <time>2014-06-30T15:23:45Z</time>
      </trkpt>
      <trkpt lat="40.755300" lon="-4.484300">
        <ele>2122.0</ele>
        <time>2014-06-30T15:23:46Z</time>
      </trkpt>
      <trkpt lat="40.755400" lon="-4.484183">
        <ele>2122.0</ele>
        <time>2014-06-30T15:23:47Z</time>
      </trkpt>
      <trkpt lat="40.755483" lon="-4.484083">
        <ele>2122.0</ele>
        <time>2014-06-30T15:23:48Z</time>
      </trkpt>
      <trkpt lat="40.755567" lon="-4.483950">
        <ele>2122.0</ele>
        <time>2014-06-30T15:23:49Z</time>
      </trkpt>
      <trkpt lat="40.755650" lon="-4.483817">
        <ele>2122.0</ele>
        <time>2014-06-30T15:23:50Z</time>
      </trkpt>
      <trkpt lat="40.755717" lon="-4.483650">
        <ele>2122.0</ele>
        <time>2014-06-30T15:23:51Z</time>
      </trkpt>
      <trkpt lat="40.755783" lon="-4.483483">
        <ele>2122.0</ele>
        <time>2014-06-30T15:23:52Z</time>
      </trkpt>
      <trkpt lat="40.755833" lon="-4.483317">
        <ele>2122.0</ele>
        <time>2014-06-30T15:23:53Z</time>
      </trkpt>
      <trkpt lat="40.755917" lon="-4.483133">
        <ele>2123.0</ele>
        <time>2014-06-30T15:23:54Z</time>
      </trkpt>
      <trkpt lat="40.755983" lon="-4.482967">
        <ele>2123.0</ele>
        <time>2014-06-30T15:23:55Z</time>
      </trkpt>
      <trkpt lat="40.756050" lon="-4.482800">
        <ele>2124.0</ele>
        <time>2014-06-30T15:23:56Z</time>
      </trkpt>
      <trkpt lat="40.756100" lon="-4.482633">
        <ele>2126.0</ele>
        <time>2014-06-30T15:23:57Z</time>
      </trkpt>
      <trkpt lat="40.756167" lon="-4.482450">
        <ele>2127.0</ele>
        <time>2014-06-30T15:23:58Z</time>
      </trkpt>
      <trkpt lat="40.756217" lon="-4.482283">
        <ele>2127.0</ele>
        <time>2014-06-30T15:23:59Z</time>
      </trkpt>
      <trkpt lat="40.756267" lon="-4.482100">
        <ele>2128.0</ele>
        <time>2014-06-30T15:24:00Z</time>
      </trkpt>
      <trkpt lat="40.756300" lon="-4.481933">
        <ele>2129.0</ele>
        <time>2014-06-30T15:24:01Z</time>
      </trkpt>
      <trkpt lat="40.756333" lon="-4.481767">
        <ele>2129.0</ele>
        <time>2014-06-30T15:24:02Z</time>
      </trkpt>
      <trkpt lat="40.756350" lon="-4.481600">
        <ele>2129.0</ele>
        <time>2014-06-30T15:24:03Z</time>
      </trkpt>
      <trkpt lat="40.756367" lon="-4.481417">
        <ele>2128.0</ele>
        <time>2014-06-30T15:24:04Z</time>
      </trkpt>
      <trkpt lat="40.756367" lon="-4.481217">
        <ele>2125.0</ele>
        <time>2014-06-30T15:24:05Z</time>
      </trkpt>
      <trkpt lat="40.756350" lon="-4.481017">
        <ele>2122.0</ele>
        <time>2014-06-30T15:24:06Z</time>
      </trkpt>
      <trkpt lat="40.756317" lon="-4.480817">
        <ele>2120.0</ele>
        <time>2014-06-30T15:24:07Z</time>
      </trkpt>
      <trkpt lat="40.756283" lon="-4.480617">
        <ele>2118.0</ele>
        <time>2014-06-30T15:24:08Z</time>
      </trkpt>
      <trkpt lat="40.756250" lon="-4.480417">
        <ele>2117.0</ele>
        <time>2014-06-30T15:24:09Z</time>
      </trkpt>
      <trkpt lat="40.756233" lon="-4.480217">
        <ele>2116.0</ele>
        <time>2014-06-30T15:24:10Z</time>
      </trkpt>
      <trkpt lat="40.756217" lon="-4.480033">
        <ele>2115.0</ele>
        <time>2014-06-30T15:24:11Z</time>
      </trkpt>
      <trkpt lat="40.756183" lon="-4.479850">
        <ele>2116.0</ele>
        <time>2014-06-30T15:24:12Z</time>
      </trkpt>
      <trkpt lat="40.756150" lon="-4.479667">
        <ele>2116.0</ele>
        <time>2014-06-30T15:24:13Z</time>
      </trkpt>
      <trkpt lat="40.756100" lon="-4.479483">
        <ele>2117.0</ele>
        <time>2014-06-30T15:24:14Z</time>
      </trkpt>
      <trkpt lat="40.756050" lon="-4.479283">
        <ele>2118.0</ele>
        <time>2014-06-30T15:24:15Z</time>
      </trkpt>
      <trkpt lat="40.756000" lon="-4.479117">
        <ele>2122.0</ele>
        <time>2014-06-30T15:24:16Z</time>
      </trkpt>
      <trkpt lat="40.755950" lon="-4.478950">
        <ele>2125.0</ele>
        <time>2014-06-30T15:24:17Z</time>
      </trkpt>
      <trkpt lat="40.755883" lon="-4.478800">
        <ele>2127.0</ele>
        <time>2014-06-30T15:24:18Z</time>
      </trkpt>
      <trkpt lat="40.755850" lon="-4.478650">
        <ele>2131.0</ele>
        <time>2014-06-30T15:24:19Z</time>
      </trkpt>
      <trkpt lat="40.755800" lon="-4.478483">
        <ele>2134.0</ele>
        <time>2014-06-30T15:24:20Z</time>
      </trkpt>
      <trkpt lat="40.755783" lon="-4.478317">
        <ele>2136.0</ele>
        <time>2014-06-30T15:24:21Z</time>
      </trkpt>
      <trkpt lat="40.755750" lon="-4.478150">
        <ele>2137.0</ele>
        <time>2014-06-30T15:24:22Z</time>
      </trkpt>
      <trkpt lat="40.755733" lon="-4.477967">
        <ele>2138.0</ele>
        <time>2014-06-30T15:24:23Z</time>
      </trkpt>
      <trkpt lat="40.755700" lon="-4.477817">
        <ele>2140.0</ele>
        <time>2014-06-30T15:24:24Z</time>
      </trkpt>
      <trkpt lat="40.755650" lon="-4.477667">
        <ele>2142.0</ele>
        <time>2014-06-30T15:24:25Z</time>
      </trkpt>
      <trkpt lat="40.755583" lon="-4.477550">
        <ele>2143.0</ele>
        <time>2014-06-30T15:24:26Z</time>
      </trkpt>
      <trkpt lat="40.755517" lon="-4.477433">
        <ele>2145.0</ele>
        <time>2014-06-30T15:24:27Z</time>
      </trkpt>
      <trkpt lat="40.755450" lon="-4.477333">
        <ele>2147.0</ele>
        <time>2014-06-30T15:24:28Z</time>
      </trkpt>
      <trkpt lat="40.755367" lon="-4.477267">
        <ele>2149.0</ele>
        <time>2014-06-30T15:24:29Z</time>
      </trkpt>
      <trkpt lat="40.755300" lon="-4.477233">
        <ele>2151.0</ele>
        <time>2014-06-30T15:24:30Z</time>
      </trkpt>
      <trkpt lat="40.755233" lon="-4.477200">
        <ele>2153.0</ele>
        <time>2014-06-30T15:24:31Z</time>
      </trkpt>
      <trkpt lat="40.755167" lon="-4.477200">
        <ele>2155.0</ele>
        <time>2014-06-30T15:24:32Z</time>
      </trkpt>
      <trkpt lat="40.755100" lon="-4.477200">
        <ele>2157.0</ele>
        <time>2014-06-30T15:24:33Z</time>
      </trkpt>
      <trkpt lat="40.755067" lon="-4.477217">
        <ele>2159.0</ele>
        <time>2014-06-30T15:24:34Z</time>
      </trkpt>
      <trkpt lat="40.755050" lon="-4.477250">
        <ele>2161.0</ele>
        <time>2014-06-30T15:24:35Z</time>
      </trkpt>
      <trkpt lat="40.755050" lon="-4.477283">
        <ele>2161.0</ele>
        <time>2014-06-30T15:24:36Z</time>
      </trkpt>
      <trkpt lat="40.755050" lon="-4.477317">
        <ele>2161.0</ele>
        <time>2014-06-30T15:24:37Z</time>
      </trkpt>
      <trkpt lat="40.755067" lon="-4.477350">
        <ele>2161.0</ele>
        <time>2014-06-30T15:24:38Z</time>
      </trkpt>
      <trkpt lat="40.755100" lon="-4.477367">
        <ele>2162.0</ele>
        <time>2014-06-30T15:24:39Z</time>
      </trkpt>
      <trkpt lat="40.755150" lon="-4.477383">
        <ele>2162.0</ele>
        <time>2014-06-30T15:24:40Z</time>
      </trkpt>
      <trkpt lat="40.755200" lon="-4.477383">
        <ele>2163.0</ele>
        <time>2014-06-30T15:24:41Z</time>
      </trkpt>
      <trkpt lat="40.755267" lon="-4.477367">
        <ele>2163.0</ele>
        <time>2014-06-30T15:24:42Z</time>
      </trkpt>
      <trkpt lat="40.755350" lon="-4.477317">
        <ele>2162.0</ele>
        <time>2014-06-30T15:24:43Z</time>
      </trkpt>
      <trkpt lat="40.755433" lon="-4.477283">
        <ele>2161.0</ele>
        <time>2014-06-30T15:24:44Z</time>
      </trkpt>
      <trkpt lat="40.755533" lon="-4.477217">
        <ele>2161.0</ele>
        <time>2014-06-30T15:24:45Z</time>
      </trkpt>
      <trkpt lat="40.755633" lon="-4.477133">
        <ele>2161.0</ele>
        <time>2014-06-30T15:24:46Z</time>
      </trkpt>
      <trkpt lat="40.755733" lon="-4.477017">
        <ele>2162.0</ele>
        <time>2014-06-30T15:24:47Z</time>
      </trkpt>
      <trkpt lat="40.755817" lon="-4.476867">
        <ele>2163.0</ele>
        <time>2014-06-30T15:24:48Z</time>
      </trkpt>
      <trkpt lat="40.755883" lon="-4.476733">
        <ele>2164.0</ele>
        <time>2014-06-30T15:24:49Z</time>
      </trkpt>
      <trkpt lat="40.755967" lon="-4.476567">
        <ele>2165.0</ele>
        <time>2014-06-30T15:24:50Z</time>
      </trkpt>
      <trkpt lat="40.756033" lon="-4.476400">
        <ele>2166.0</ele>
        <time>2014-06-30T15:24:51Z</time>
      </trkpt>
      <trkpt lat="40.756083" lon="-4.476233">
        <ele>2167.0</ele>
        <time>2014-06-30T15:24:52Z</time>
      </trkpt>
      <trkpt lat="40.756117" lon="-4.476050">
        <ele>2168.0</ele>
        <time>2014-06-30T15:24:53Z</time>
      </trkpt>
      <trkpt lat="40.756150" lon="-4.475850">
        <ele>2168.0</ele>
        <time>2014-06-30T15:24:54Z</time>
      </trkpt>
      <trkpt lat="40.756167" lon="-4.475650">
        <ele>2169.0</ele>
        <time>2014-06-30T15:24:55Z</time>
      </trkpt>
      <trkpt lat="40.756183" lon="-4.475450">
        <ele>2170.0</ele>
        <time>2014-06-30T15:24:56Z</time>
      </trkpt>
      <trkpt lat="40.756200" lon="-4.475250">
        <ele>2171.0</ele>
        <time>2014-06-30T15:24:57Z</time>
      </trkpt>
      <trkpt lat="40.756200" lon="-4.475033">
        <ele>2172.0</ele>
        <time>2014-06-30T15:24:58Z</time>
      </trkpt>
      <trkpt lat="40.756183" lon="-4.474817">
        <ele>2174.0</ele>
        <time>2014-06-30T15:24:59Z</time>
      </trkpt>
      <trkpt lat="40.756167" lon="-4.474617">
        <ele>2176.0</ele>
        <time>2014-06-30T15:25:00Z</time>
      </trkpt>
      <trkpt lat="40.756150" lon="-4.474417">
        <ele>2178.0</ele>
        <time>2014-06-30T15:25:01Z</time>
      </trkpt>
      <trkpt lat="40.756133" lon="-4.474233">
        <ele>2179.0</ele>
        <time>2014-06-30T15:25:02Z</time>
      </trkpt>
      <trkpt lat="40.756100" lon="-4.474017">
        <ele>2179.0</ele>
        <time>2014-06-30T15:25:03Z</time>
      </trkpt>
      <trkpt lat="40.756083" lon="-4.473817">
        <ele>2181.0</ele>
        <time>2014-06-30T15:25:04Z</time>
      </trkpt>
      <trkpt lat="40.756067" lon="-4.473600">
        <ele>2183.0</ele>
        <time>2014-06-30T15:25:05Z</time>
      </trkpt>
      <trkpt lat="40.756050" lon="-4.473383">
        <ele>2186.0</ele>
        <time>2014-06-30T15:25:06Z</time>
      </trkpt>
      <trkpt lat="40.756033" lon="-4.473183">
        <ele>2190.0</ele>
        <time>2014-06-30T15:25:07Z</time>
      </trkpt>
      <trkpt lat="40.756033" lon="-4.472983">
        <ele>2193.0</ele>
        <time>2014-06-30T15:25:08Z</time>
      </trkpt>
      <trkpt lat="40.756017" lon="-4.472783">
        <ele>2196.0</ele>
        <time>2014-06-30T15:25:09Z</time>
      </trkpt>
      <trkpt lat="40.756017" lon="-4.472567">
        <ele>2199.0</ele>
        <time>2014-06-30T15:25:10Z</time>
      </trkpt>
      <trkpt lat="40.756000" lon="-4.472367">
        <ele>2202.0</ele>
        <time>2014-06-30T15:25:11Z</time>
      </trkpt>
      <trkpt lat="40.755983" lon="-4.472150">
        <ele>2205.0</ele>
        <time>2014-06-30T15:25:12Z</time>
      </trkpt>
      <trkpt lat="40.755950" lon="-4.471950">
        <ele>2208.0</ele>
        <time>2014-06-30T15:25:13Z</time>
      </trkpt>
      <trkpt lat="40.755900" lon="-4.471750">
        <ele>2211.0</ele>
        <time>2014-06-30T15:25:14Z</time>
      </trkpt>
      <trkpt lat="40.755833" lon="-4.471583">
        <ele>2214.0</ele>
        <time>2014-06-30T15:25:15Z</time>
      </trkpt>
      <trkpt lat="40.755767" lon="-4.471450">
        <ele>2216.0</ele>
        <time>2014-06-30T15:25:16Z</time>
      </trkpt>
      <trkpt lat="40.755683" lon="-4.471350">
        <ele>2218.0</ele>
        <time>2014-06-30T15:25:17Z</time>
      </trkpt>
      <trkpt lat="40.755583" lon="-4.471283">
        <ele>2220.0</ele>
        <time>2014-06-30T15:25:18Z</time>
      </trkpt>
      <trkpt lat="40.755483" lon="-4.471250">
        <ele>2222.0</ele>
        <time>2014-06-30T15:25:19Z</time>
      </trkpt>
      <trkpt lat="40.755417" lon="-4.471233">
        <ele>2225.0</ele>
        <time>2014-06-30T15:25:20Z</time>
      </trkpt>
      <trkpt lat="40.755350" lon="-4.471217">
        <ele>2228.0</ele>
        <time>2014-06-30T15:25:21Z</time>
      </trkpt>
      <trkpt lat="40.755317" lon="-4.471217">
        <ele>2231.0</ele>
        <time>2014-06-30T15:25:22Z</time>
      </trkpt>
      <trkpt lat="40.755300" lon="-4.471217">
        <ele>2234.0</ele>
        <time>2014-06-30T15:25:23Z</time>
      </trkpt>
      <trkpt lat="40.755300" lon="-4.471217">
        <ele>2236.0</ele>
        <time>2014-06-30T15:25:24Z</time>
      </trkpt>
      <trkpt lat="40.755283" lon="-4.471217">
        <ele>2238.0</ele>
        <time>2014-06-30T15:25:25Z</time>
      </trkpt>
      <trkpt lat="40.755300" lon="-4.471250">
        <ele>2239.0</ele>
        <time>2014-06-30T15:25:26Z</time>
      </trkpt>
      <trkpt lat="40.755333" lon="-4.471267">
        <ele>2240.0</ele>
        <time>2014-06-30T15:25:27Z</time>
      </trkpt>
      <trkpt lat="40.755383" lon="-4.471267">
        <ele>2242.0</ele>
        <time>2014-06-30T15:25:28Z</time>
      </trkpt>
      <trkpt lat="40.755467" lon="-4.471267">
        <ele>2244.0</ele>
        <time>2014-06-30T15:25:29Z</time>
      </trkpt>
      <trkpt lat="40.755533" lon="-4.471217">
        <ele>2247.0</ele>
        <time>2014-06-30T15:25:30Z</time>
      </trkpt>
      <trkpt lat="40.755617" lon="-4.471150">
        <ele>2250.0</ele>
        <time>2014-06-30T15:25:31Z</time>
      </trkpt>
      <trkpt lat="40.755700" lon="-4.471067">
        <ele>2252.0</ele>
        <time>2014-06-30T15:25:32Z</time>
      </trkpt>
      <trkpt lat="40.755800" lon="-4.470967">
        <ele>2254.0</ele>
        <time>2014-06-30T15:25:33Z</time>
      </trkpt>
      <trkpt lat="40.755900" lon="-4.470883">
        <ele>2256.0</ele>
        <time>2014-06-30T15:25:34Z</time>
      </trkpt>
      <trkpt lat="40.756017" lon="-4.470767">
        <ele>2258.0</ele>
        <time>2014-06-30T15:25:35Z</time>
      </trkpt>
      <trkpt lat="40.756117" lon="-4.470650">
        <ele>2262.0</ele>
        <time>2014-06-30T15:25:36Z</time>
      </trkpt>
      <trkpt lat="40.756200" lon="-4.470517">
        <ele>2266.0</ele>
        <time>2014-06-30T15:25:37Z</time>
      </trkpt>
      <trkpt lat="40.756267" lon="-4.470400">
        <ele>2269.0</ele>
        <time>2014-06-30T15:25:38Z</time>
      </trkpt>
      <trkpt lat="40.756350" lon="-4.470267">
        <ele>2272.0</ele>
        <time>2014-06-30T15:25:39Z</time>
      </trkpt>
      <trkpt lat="40.756433" lon="-4.470150">
        <ele>2275.0</ele>
        <time>2014-06-30T15:25:40Z</time>
      </trkpt>
      <trkpt lat="40.756517" lon="-4.470017">
        <ele>2276.0</ele>
        <time>2014-06-30T15:25:41Z</time>
      </trkpt>
      <trkpt lat="40.756600" lon="-4.469867">
        <ele>2278.0</ele>
        <time>2014-06-30T15:25:42Z</time>
      </trkpt>
      <trkpt lat="40.756650" lon="-4.469683">
        <ele>2280.0</ele>
        <time>2014-06-30T15:25:43Z</time>
      </trkpt>
      <trkpt lat="40.756717" lon="-4.469500">
        <ele>2282.0</ele>
        <time>2014-06-30T15:25:44Z</time>
      </trkpt>
      <trkpt lat="40.756767" lon="-4.469283">
        <ele>2283.0</ele>
        <time>2014-06-30T15:25:45Z</time>
      </trkpt>
      <trkpt lat="40.756800" lon="-4.469067">
        <ele>2285.0</ele>
        <time>2014-06-30T15:25:46Z</time>
      </trkpt>
      <trkpt lat="40.756817" lon="-4.468833">
        <ele>2286.0</ele>
        <time>2014-06-30T15:25:47Z</time>
      </trkpt>
      <trkpt lat="40.756833" lon="-4.468583">
        <ele>2288.0</ele>
        <time>2014-06-30T15:25:48Z</time>
      </trkpt>
      <trkpt lat="40.756833" lon="-4.468350">
        <ele>2290.0</ele>
        <time>2014-06-30T15:25:49Z</time>
      </trkpt>
      <trkpt lat="40.756800" lon="-4.468117">
        <ele>2291.0</ele>
        <time>2014-06-30T15:25:50Z</time>
      </trkpt>
      <trkpt lat="40.756767" lon="-4.467900">
        <ele>2292.0</ele>
        <time>2014-06-30T15:25:51Z</time>
      </trkpt>
      <trkpt lat="40.756717" lon="-4.467700">
        <ele>2293.0</ele>
        <time>2014-06-30T15:25:52Z</time>
      </trkpt>
      <trkpt lat="40.756633" lon="-4.467517">
        <ele>2295.0</ele>
        <time>2014-06-30T15:25:53Z</time>
      </trkpt>
      <trkpt lat="40.756533" lon="-4.467350">
        <ele>2296.0</ele>
        <time>2014-06-30T15:25:54Z</time>
      </trkpt>
      <trkpt lat="40.756450" lon="-4.467200">
        <ele>2299.0</ele>
        <time>2014-06-30T15:25:55Z</time>
      </trkpt>
      <trkpt lat="40.756350" lon="-4.467067">
        <ele>2301.0</ele>
        <time>2014-06-30T15:25:56Z</time>
      </trkpt>
      <trkpt lat="40.756267" lon="-4.466933">
        <ele>2303.0</ele>
        <time>2014-06-30T15:25:57Z</time>
      </trkpt>
      <trkpt lat="40.756183" lon="-4.466817">
        <ele>2306.0</ele>
        <time>2014-06-30T15:25:58Z</time>
      </trkpt>
      <trkpt lat="40.756083" lon="-4.466717">
        <ele>2308.0</ele>
        <time>2014-06-30T15:25:59Z</time>
      </trkpt>
      <trkpt lat="40.756000" lon="-4.466633">
        <ele>2310.0</ele>
        <time>2014-06-30T15:26:00Z</time>
      </trkpt>
      <trkpt lat="40.755900" lon="-4.466583">
        <ele>2312.0</ele>
        <time>2014-06-30T15:26:01Z</time>
      </trkpt>
      <trkpt lat="40.755817" lon="-4.466533">
        <ele>2314.0</ele>
        <time>2014-06-30T15:26:02Z</time>
      </trkpt>
      <trkpt lat="40.755733" lon="-4.466517">
        <ele>2317.0</ele>
        <time>2014-06-30T15:26:03Z</time>
      </trkpt>
      <trkpt lat="40.755650" lon="-4.466483">
        <ele>2319.0</ele>
        <time>2014-06-30T15:26:04Z</time>
      </trkpt>
      <trkpt lat="40.755583" lon="-4.466467">
        <ele>2321.0</ele>
        <time>2014-06-30T15:26:05Z</time>
      </trkpt>
      <trkpt lat="40.755517" lon="-4.466467">
        <ele>2323.0</ele>
        <time>2014-06-30T15:26:06Z</time>
      </trkpt>
      <trkpt lat="40.755483" lon="-4.466450">
        <ele>2324.0</ele>
        <time>2014-06-30T15:26:07Z</time>
      </trkpt>
      <trkpt lat="40.755433" lon="-4.466467">
        <ele>2326.0</ele>
        <time>2014-06-30T15:26:08Z</time>
      </trkpt>
      <trkpt lat="40.755417" lon="-4.466483">
        <ele>2327.0</ele>
        <time>2014-06-30T15:26:09Z</time>
      </trkpt>
      <trkpt lat="40.755417" lon="-4.466517">
        <ele>2328.0</ele>
        <time>2014-06-30T15:26:10Z</time>
      </trkpt>
      <trkpt lat="40.755433" lon="-4.466550">
        <ele>2328.0</ele>
        <time>2014-06-30T15:26:11Z</time>
      </trkpt>
      <trkpt lat="40.755467" lon="-4.466550">
        <ele>2330.0</ele>
        <time>2014-06-30T15:26:12Z</time>
      </trkpt>
      <trkpt lat="40.755500" lon="-4.466533">
        <ele>2334.0</ele>
        <time>2014-06-30T15:26:13Z</time>
      </trkpt>
      <trkpt lat="40.755517" lon="-4.466517">
        <ele>2337.0</ele>
        <time>2014-06-30T15:26:14Z</time>
      </trkpt>
      <trkpt lat="40.755533" lon="-4.466500">
        <ele>2341.0</ele>
        <time>2014-06-30T15:26:15Z</time>
      </trkpt>
      <trkpt lat="40.755533" lon="-4.466500">
        <ele>2342.0</ele>
        <time>2014-06-30T15:26:16Z</time>
      </trkpt>
      <trkpt lat="40.755550" lon="-4.466500">
        <ele>2345.0</ele>
        <time>2014-06-30T15:26:17Z</time>
      </trkpt>
      <trkpt lat="40.755583" lon="-4.466500">
        <ele>2347.0</ele>
        <time>2014-06-30T15:26:18Z</time>
      </trkpt>
      <trkpt lat="40.755633" lon="-4.466467">
        <ele>2350.0</ele>
        <time>2014-06-30T15:26:19Z</time>
      </trkpt>
      <trkpt lat="40.755700" lon="-4.466417">
        <ele>2354.0</ele>
        <time>2014-06-30T15:26:20Z</time>
      </trkpt>
      <trkpt lat="40.755783" lon="-4.466333">
        <ele>2357.0</ele>
        <time>2014-06-30T15:26:21Z</time>
      </trkpt>
      <trkpt lat="40.755850" lon="-4.466250">
        <ele>2360.0</ele>
        <time>2014-06-30T15:26:22Z</time>
      </trkpt>
      <trkpt lat="40.755917" lon="-4.466133">
        <ele>2363.0</ele>
        <time>2014-06-30T15:26:23Z</time>
      </trkpt>
      <trkpt lat="40.756000" lon="-4.466017">
        <ele>2365.0</ele>
        <time>2014-06-30T15:26:24Z</time>
      </trkpt>
      <trkpt lat="40.756067" lon="-4.465867">
        <ele>2368.0</ele>
        <time>2014-06-30T15:26:25Z</time>
      </trkpt>
      <trkpt lat="40.756133" lon="-4.465717">
        <ele>2370.0</ele>
        <time>2014-06-30T15:26:26Z</time>
      </trkpt>
      <trkpt lat="40.756217" lon="-4.465550">
        <ele>2372.0</ele>
        <time>2014-06-30T15:26:27Z</time>
      </trkpt>
      <trkpt lat="40.756283" lon="-4.465400">
        <ele>2374.0</ele>
        <time>2014-06-30T15:26:28Z</time>
      </trkpt>
      <trkpt lat="40.756367" lon="-4.465233">
        <ele>2377.0</ele>
        <time>2014-06-30T15:26:29Z</time>
      </trkpt>
      <trkpt lat="40.756433" lon="-4.465083">
        <ele>2379.0</ele>
        <time>2014-06-30T15:26:30Z</time>
      </trkpt>
      <trkpt lat="40.756517" lon="-4.464950">
        <ele>2383.0</ele>
        <time>2014-06-30T15:26:31Z</time>
      </trkpt>
      <trkpt lat="40.756583" lon="-4.464817">
        <ele>2388.0</ele>
        <time>2014-06-30T15:26:32Z</time>
      </trkpt>
      <trkpt lat="40.756667" lon="-4.464683">
        <ele>2392.0</ele>
        <time>2014-06-30T15:26:33Z</time>
      </trkpt>
      <trkpt lat="40.756750" lon="-4.464550">
        <ele>2396.0</ele>
        <time>2014-06-30T15:26:34Z</time>
      </trkpt>
      <trkpt lat="40.756817" lon="-4.464417">
        <ele>2400.0</ele>
        <time>2014-06-30T15:26:35Z</time>
      </trkpt>
      <trkpt lat="40.756900" lon="-4.464300">
        <ele>2405.0</ele>
        <time>2014-06-30T15:26:36Z</time>
      </trkpt>
      <trkpt lat="40.756967" lon="-4.464167">
        <ele>2409.0</ele>
        <time>2014-06-30T15:26:37Z</time>
      </trkpt>
      <trkpt lat="40.757033" lon="-4.464017">
        <ele>2413.0</ele>
        <time>2014-06-30T15:26:38Z</time>
      </trkpt>
      <trkpt lat="40.757083" lon="-4.463850">
        <ele>2417.0</ele>
        <time>2014-06-30T15:26:39Z</time>
      </trkpt>
      <trkpt lat="40.757133" lon="-4.463683">
        <ele>2421.0</ele>
        <time>2014-06-30T15:26:40Z</time>
      </trkpt>
      <trkpt lat="40.757183" lon="-4.463500">
        <ele>2424.0</ele>
        <time>2014-06-30T15:26:41Z</time>
      </trkpt>
      <trkpt lat="40.757183" lon="-4.463300">
        <ele>2427.0</ele>
        <time>2014-06-30T15:26:42Z</time>
      </trkpt>
      <trkpt lat="40.757183" lon="-4.463100">
        <ele>2430.0</ele>
        <time>2014-06-30T15:26:43Z</time>
      </trkpt>
      <trkpt lat="40.757150" lon="-4.462917">
        <ele>2433.0</ele>
        <time>2014-06-30T15:26:44Z</time>
      </trkpt>
      <trkpt lat="40.757100" lon="-4.462733">
        <ele>2436.0</ele>
        <time>2014-06-30T15:26:45Z</time>
      </trkpt>
      <trkpt lat="40.757033" lon="-4.462567">
        <ele>2439.0</ele>
        <time>2014-06-30T15:26:46Z</time>
      </trkpt>
      <trkpt lat="40.756967" lon="-4.462417">
        <ele>2443.0</ele>
        <time>2014-06-30T15:26:47Z</time>
      </trkpt>
      <trkpt lat="40.756883" lon="-4.462317">
        <ele>2446.0</ele>
        <time>2014-06-30T15:26:48Z</time>
      </trkpt>
      <trkpt lat="40.756800" lon="-4.462233">
        <ele>2448.0</ele>
        <time>2014-06-30T15:26:49Z</time>
      </trkpt>
      <trkpt lat="40.756717" lon="-4.462183">
        <ele>2450.0</ele>
        <time>2014-06-30T15:26:50Z</time>
      </trkpt>
      <trkpt lat="40.756633" lon="-4.462150">
        <ele>2452.0</ele>
        <time>2014-06-30T15:26:51Z</time>
      </trkpt>
      <trkpt lat="40.756567" lon="-4.462133">
        <ele>2454.0</ele>
        <time>2014-06-30T15:26:52Z</time>
      </trkpt>
      <trkpt lat="40.756517" lon="-4.462117">
        <ele>2456.0</ele>
        <time>2014-06-30T15:26:53Z</time>
      </trkpt>
      <trkpt lat="40.756467" lon="-4.462133">
        <ele>2458.0</ele>
        <time>2014-06-30T15:26:54Z</time>
      </trkpt>
      <trkpt lat="40.756433" lon="-4.462167">
        <ele>2460.0</ele>
        <time>2014-06-30T15:26:55Z</time>
      </trkpt>
      <trkpt lat="40.756417" lon="-4.462200">
        <ele>2463.0</ele>
        <time>2014-06-30T15:26:56Z</time>
      </trkpt>
      <trkpt lat="40.756417" lon="-4.462233">
        <ele>2467.0</ele>
        <time>2014-06-30T15:26:57Z</time>
      </trkpt>
      <trkpt lat="40.756417" lon="-4.462250">
        <ele>2472.0</ele>
        <time>2014-06-30T15:26:58Z</time>
      </trkpt>
      <trkpt lat="40.756400" lon="-4.462267">
        <ele>2475.0</ele>
        <time>2014-06-30T15:26:59Z</time>
      </trkpt>
      <trkpt lat="40.756383" lon="-4.462283">
        <ele>2479.0</ele>
        <time>2014-06-30T15:27:00Z</time>
      </trkpt>
      <trkpt lat="40.756383" lon="-4.462300">
        <ele>2482.0</ele>
        <time>2014-06-30T15:27:01Z</time>
      </trkpt>
      <trkpt lat="40.756383" lon="-4.462317">
        <ele>2485.0</ele>
        <time>2014-06-30T15:27:02Z</time>
      </trkpt>
      <trkpt lat="40.756383" lon="-4.462317">
        <ele>2488.0</ele>
        <time>2014-06-30T15:27:03Z</time>
      </trkpt>
      <trkpt lat="40.756417" lon="-4.462300">
        <ele>2490.0</ele>
        <time>2014-06-30T15:27:04Z</time>
      </trkpt>
      <trkpt lat="40.756467" lon="-4.462283">
        <ele>2492.0</ele>
        <time>2014-06-30T15:27:05Z</time>
      </trkpt>
      <trkpt lat="40.756517" lon="-4.462283">
        <ele>2494.0</ele>
        <time>2014-06-30T15:27:06Z</time>
      </trkpt>
      <trkpt lat="40.756567" lon="-4.462267">
        <ele>2496.0</ele>
        <time>2014-06-30T15:27:07Z</time>
      </trkpt>
      <trkpt lat="40.756633" lon="-4.462250">
        <ele>2499.0</ele>
        <time>2014-06-30T15:27:08Z</time>
      </trkpt>
      <trkpt lat="40.756700" lon="-4.462217">
        <ele>2502.0</ele>
        <time>2014-06-30T15:27:09Z</time>
      </trkpt>
      <trkpt lat="40.756767" lon="-4.462183">
        <ele>2505.0</ele>
        <time>2014-06-30T15:27:10Z</time>
      </trkpt>
      <trkpt lat="40.756833" lon="-4.462150">
        <ele>2507.0</ele>
        <time>2014-06-30T15:27:11Z</time>
      </trkpt>
      <trkpt lat="40.756917" lon="-4.462083">
        <ele>2509.0</ele>
        <time>2014-06-30T15:27:12Z</time>
      </trkpt>
      <trkpt lat="40.757017" lon="-4.462017">
        <ele>2512.0</ele>
        <time>2014-06-30T15:27:13Z</time>
      </trkpt>
      <trkpt lat="40.757117" lon="-4.461933">
        <ele>2514.0</ele>
        <time>2014-06-30T15:27:14Z</time>
      </trkpt>
      <trkpt lat="40.757217" lon="-4.461833">
        <ele>2517.0</ele>
        <time>2014-06-30T15:27:15Z</time>
      </trkpt>
      <trkpt lat="40.757317" lon="-4.461717">
        <ele>2520.0</ele>
        <time>2014-06-30T15:27:16Z</time>
      </trkpt>
      <trkpt lat="40.757417" lon="-4.461600">
        <ele>2524.0</ele>
        <time>2014-06-30T15:27:17Z</time>
      </trkpt>
      <trkpt lat="40.757500" lon="-4.461450">
        <ele>2527.0</ele>
        <time>2014-06-30T15:27:18Z</time>
      </trkpt>
      <trkpt lat="40.757567" lon="-4.461283">
        <ele>2530.0</ele>
        <time>2014-06-30T15:27:19Z</time>
      </trkpt>
      <trkpt lat="40.757650" lon="-4.461117">
        <ele>2534.0</ele>
        <time>2014-06-30T15:27:20Z</time>
      </trkpt>
      <trkpt lat="40.757700" lon="-4.460933">
        <ele>2537.0</ele>
        <time>2014-06-30T15:27:21Z</time>
      </trkpt>
      <trkpt lat="40.757767" lon="-4.460750">
        <ele>2540.0</ele>
        <time>2014-06-30T15:27:22Z</time>
      </trkpt>
      <trkpt lat="40.757800" lon="-4.460550">
        <ele>2543.0</ele>
        <time>2014-06-30T15:27:23Z</time>
      </trkpt>
      <trkpt lat="40.757817" lon="-4.460333">
        <ele>2545.0</ele>
        <time>2014-06-30T15:27:24Z</time>
      </trkpt>
      <trkpt lat="40.757833" lon="-4.460117">
        <ele>2548.0</ele>
        <time>2014-06-30T15:27:25Z</time>
      </trkpt>
      <trkpt lat="40.757817" lon="-4.459900">
        <ele>2550.0</ele>
        <time>2014-06-30T15:27:26Z</time>
      </trkpt>
      <trkpt lat="40.757817" lon="-4.459683">
        <ele>2551.0</ele>
        <time>2014-06-30T15:27:27Z</time>
      </trkpt>
      <trkpt lat="40.757817" lon="-4.459450">
        <ele>2553.0</ele>
        <time>2014-06-30T15:27:28Z</time>
      </trkpt>
      <trkpt lat="40.757800" lon="-4.459233">
        <ele>2555.0</ele>
        <time>2014-06-30T15:27:29Z</time>
      </trkpt>
      <trkpt lat="40.757767" lon="-4.459017">
        <ele>2559.0</ele>
        <time>2014-06-30T15:27:30Z</time>
      </trkpt>
      <trkpt lat="40.757717" lon="-4.458817">
        <ele>2562.0</ele>
        <time>2014-06-30T15:27:31Z</time>
      </trkpt>
      <trkpt lat="40.757667" lon="-4.458650">
        <ele>2565.0</ele>
        <time>2014-06-30T15:27:32Z</time>
      </trkpt>
      <trkpt lat="40.757617" lon="-4.458467">
        <ele>2566.0</ele>
        <time>2014-06-30T15:27:33Z</time>
      </trkpt>
      <trkpt lat="40.757533" lon="-4.458300">
        <ele>2568.0</ele>
        <time>2014-06-30T15:27:34Z</time>
      </trkpt>
      <trkpt lat="40.757450" lon="-4.458133">
        <ele>2569.0</ele>
        <time>2014-06-30T15:27:35Z</time>
      </trkpt>
      <trkpt lat="40.757350" lon="-4.458000">
        <ele>2571.0</ele>
        <time>2014-06-30T15:27:36Z</time>
      </trkpt>
      <trkpt lat="40.757267" lon="-4.457900">
        <ele>2573.0</ele>
        <time>2014-06-30T15:27:37Z</time>
      </trkpt>
      <trkpt lat="40.757167" lon="-4.457850">
        <ele>2575.0</ele>
        <time>2014-06-30T15:27:38Z</time>
      </trkpt>
      <trkpt lat="40.757083" lon="-4.457800">
        <ele>2577.0</ele>
        <time>2014-06-30T15:27:39Z</time>
      </trkpt>
      <trkpt lat="40.757017" lon="-4.457783">
        <ele>2579.0</ele>
        <time>2014-06-30T15:27:40Z</time>
      </trkpt>
      <trkpt lat="40.756967" lon="-4.457783">
        <ele>2580.0</ele>
        <time>2014-06-30T15:27:41Z</time>
      </trkpt>
      <trkpt lat="40.756917" lon="-4.457783">
        <ele>2582.0</ele>
        <time>2014-06-30T15:27:42Z</time>
      </trkpt>
      <trkpt lat="40.756883" lon="-4.457800">
        <ele>2583.0</ele>
        <time>2014-06-30T15:27:43Z</time>
      </trkpt>
      <trkpt lat="40.756867" lon="-4.457800">
        <ele>2585.0</ele>
        <time>2014-06-30T15:27:44Z</time>
      </trkpt>
      <trkpt lat="40.756833" lon="-4.457817">
        <ele>2587.0</ele>
        <time>2014-06-30T15:27:45Z</time>
      </trkpt>
      <trkpt lat="40.756817" lon="-4.457833">
        <ele>2588.0</ele>
        <time>2014-06-30T15:27:46Z</time>
      </trkpt>
      <trkpt lat="40.756783" lon="-4.457850">
        <ele>2589.0</ele>
        <time>2014-06-30T15:27:47Z</time>
      </trkpt>
      <trkpt lat="40.756767" lon="-4.457883">
        <ele>2591.0</ele>
        <time>2014-06-30T15:27:48Z</time>
      </trkpt>
      <trkpt lat="40.756767" lon="-4.457917">
        <ele>2592.0</ele>
        <time>2014-06-30T15:27:49Z</time>
      </trkpt>
      <trkpt lat="40.756767" lon="-4.457950">
        <ele>2594.0</ele>
        <time>2014-06-30T15:27:50Z</time>
      </trkpt>
      <trkpt lat="40.756767" lon="-4.457983">
        <ele>2597.0</ele>
        <time>2014-06-30T15:27:51Z</time>
      </trkpt>
      <trkpt lat="40.756783" lon="-4.458017">
        <ele>2599.0</ele>
        <time>2014-06-30T15:27:52Z</time>
      </trkpt>
      <trkpt lat="40.756800" lon="-4.458050">
        <ele>2601.0</ele>
        <time>2014-06-30T15:27:53Z</time>
      </trkpt>
      <trkpt lat="40.756850" lon="-4.458083">
        <ele>2603.0</ele>
        <time>2014-06-30T15:27:54Z</time>
      </trkpt>
      <trkpt lat="40.756900" lon="-4.458117">
        <ele>2605.0</ele>
        <time>2014-06-30T15:27:55Z</time>
      </trkpt>
      <trkpt lat="40.756967" lon="-4.458133">
        <ele>2607.0</ele>
        <time>2014-06-30T15:27:56Z</time>
      </trkpt>
      <trkpt lat="40.757033" lon="-4.458133">
        <ele>2609.0</ele>
        <time>2014-06-30T15:27:57Z</time>
      </trkpt>
      <trkpt lat="40.757100" lon="-4.458133">
        <ele>2611.0</ele>
        <time>2014-06-30T15:27:58Z</time>
      </trkpt>
      <trkpt lat="40.757167" lon="-4.458117">
        <ele>2613.0</ele>
        <time>2014-06-30T15:27:59Z</time>
      </trkpt>
      <trkpt lat="40.757250" lon="-4.458100">
        <ele>2614.0</ele>
        <time>2014-06-30T15:28:00Z</time>
      </trkpt>
      <trkpt lat="40.757350" lon="-4.458067">
        <ele>2615.0</ele>
        <time>2014-06-30T15:28:01Z</time>
      </trkpt>
      <trkpt lat="40.757450" lon="-4.458017">
        <ele>2618.0</ele>
        <time>2014-06-30T15:28:02Z</time>
      </trkpt>
      <trkpt lat="40.757550" lon="-4.457967">
        <ele>2620.0</ele>
        <time>2014-06-30T15:28:03Z</time>
      </trkpt>
      <trkpt lat="40.757667" lon="-4.457900">
        <ele>2623.0</ele>
        <time>2014-06-30T15:28:04Z</time>
      </trkpt>
      <trkpt lat="40.757767" lon="-4.457817">
        <ele>2625.0</ele>
        <time>2014-06-30T15:28:05Z</time>
      </trkpt>
      <trkpt lat="40.757850" lon="-4.457717">
        <ele>2628.0</ele>
        <time>2014-06-30T15:28:06Z</time>
      </trkpt>
      <trkpt lat="40.757950" lon="-4.457633">
        <ele>2631.0</ele>
        <time>2014-06-30T15:28:07Z</time>
      </trkpt>
      <trkpt lat="40.758050" lon="-4.457533">
        <ele>2633.0</ele>
        <time>2014-06-30T15:28:08Z</time>
      </trkpt>
      <trkpt lat="40.758150" lon="-4.457450">
        <ele>2635.0</ele>
        <time>2014-06-30T15:28:09Z</time>
      </trkpt>
      <trkpt lat="40.758250" lon="-4.457350">
        <ele>2637.0</ele>
        <time>2014-06-30T15:28:10Z</time>
      </trkpt>
      <trkpt lat="40.758350" lon="-4.457233">
        <ele>2639.0</ele>
        <time>2014-06-30T15:28:11Z</time>
      </trkpt>
      <trkpt lat="40.758450" lon="-4.457117">
        <ele>2641.0</ele>
        <time>2014-06-30T15:28:12Z</time>
      </trkpt>
      <trkpt lat="40.758517" lon="-4.456967">
        <ele>2644.0</ele>
        <time>2014-06-30T15:28:13Z</time>
      </trkpt>
      <trkpt lat="40.758583" lon="-4.456817">
        <ele>2647.0</ele>
        <time>2014-06-30T15:28:14Z</time>
      </trkpt>
      <trkpt lat="40.758667" lon="-4.456667">
        <ele>2648.0</ele>
        <time>2014-06-30T15:28:15Z</time>
      </trkpt>
      <trkpt lat="40.758733" lon="-4.456500">
        <ele>2650.0</ele>
        <time>2014-06-30T15:28:16Z</time>
      </trkpt>
      <trkpt lat="40.758817" lon="-4.456333">
        <ele>2652.0</ele>
        <time>2014-06-30T15:28:17Z</time>
      </trkpt>
      <trkpt lat="40.758900" lon="-4.456167">
        <ele>2654.0</ele>
        <time>2014-06-30T15:28:18Z</time>
      </trkpt>
      <trkpt lat="40.758983" lon="-4.456000">
        <ele>2656.0</ele>
        <time>2014-06-30T15:28:19Z</time>
      </trkpt>
      <trkpt lat="40.759050" lon="-4.455817">
        <ele>2659.0</ele>
        <time>2014-06-30T15:28:20Z</time>
      </trkpt>
      <trkpt lat="40.759117" lon="-4.455633">
        <ele>2661.0</ele>
        <time>2014-06-30T15:28:21Z</time>
      </trkpt>
      <trkpt lat="40.759183" lon="-4.455450">
        <ele>2663.0</ele>
        <time>2014-06-30T15:28:22Z</time>
      </trkpt>
      <trkpt lat="40.759233" lon="-4.455250">
        <ele>2664.0</ele>
        <time>2014-06-30T15:28:23Z</time>
      </trkpt>
      <trkpt lat="40.759283" lon="-4.455050">
        <ele>2666.0</ele>
        <time>2014-06-30T15:28:24Z</time>
      </trkpt>
      <trkpt lat="40.759317" lon="-4.454850">
        <ele>2668.0</ele>
        <time>2014-06-30T15:28:25Z</time>
      </trkpt>
      <trkpt lat="40.759333" lon="-4.454633">
        <ele>2669.0</ele>
        <time>2014-06-30T15:28:26Z</time>
      </trkpt>
      <trkpt lat="40.759350" lon="-4.454417">
        <ele>2669.0</ele>
        <time>2014-06-30T15:28:27Z</time>
      </trkpt>
      <trkpt lat="40.759350" lon="-4.454183">
        <ele>2669.0</ele>
        <time>2014-06-30T15:28:28Z</time>
      </trkpt>
      <trkpt lat="40.759333" lon="-4.453950">
        <ele>2668.0</ele>
        <time>2014-06-30T15:28:29Z</time>
      </trkpt>
      <trkpt lat="40.759317" lon="-4.453733">
        <ele>2668.0</ele>
        <time>2014-06-30T15:28:30Z</time>
      </trkpt>
      <trkpt lat="40.759267" lon="-4.453517">
        <ele>2669.0</ele>
        <time>2014-06-30T15:28:31Z</time>
      </trkpt>
      <trkpt lat="40.759217" lon="-4.453317">
        <ele>2670.0</ele>
        <time>2014-06-30T15:28:32Z</time>
      </trkpt>
      <trkpt lat="40.759167" lon="-4.453150">
        <ele>2671.0</ele>
        <time>2014-06-30T15:28:33Z</time>
      </trkpt>
      <trkpt lat="40.759100" lon="-4.453000">
        <ele>2672.0</ele>
        <time>2014-06-30T15:28:34Z</time>
      </trkpt>
      <trkpt lat="40.759017" lon="-4.452883">
        <ele>2672.0</ele>
        <time>2014-06-30T15:28:35Z</time>
      </trkpt>
      <trkpt lat="40.758933" lon="-4.452767">
        <ele>2673.0</ele>
        <time>2014-06-30T15:28:36Z</time>
      </trkpt>
      <trkpt lat="40.758833" lon="-4.452667">
        <ele>2674.0</ele>
        <time>2014-06-30T15:28:37Z</time>
      </trkpt>
      <trkpt lat="40.758750" lon="-4.452583">
        <ele>2676.0</ele>
        <time>2014-06-30T15:28:38Z</time>
      </trkpt>
      <trkpt lat="40.758667" lon="-4.452517">
        <ele>2677.0</ele>
        <time>2014-06-30T15:28:39Z</time>
      </trkpt>
      <trkpt lat="40.758583" lon="-4.452467">
        <ele>2679.0</ele>
        <time>2014-06-30T15:28:40Z</time>
      </trkpt>
      <trkpt lat="40.758517" lon="-4.452450">
        <ele>2681.0</ele>
        <time>2014-06-30T15:28:41Z</time>
      </trkpt>
      <trkpt lat="40.758450" lon="-4.452450">
        <ele>2683.0</ele>
        <time>2014-06-30T15:28:42Z</time>
      </trkpt>
      <trkpt lat="40.758400" lon="-4.452450">
        <ele>2685.0</ele>
        <time>2014-06-30T15:28:43Z</time>
      </trkpt>
      <trkpt lat="40.758350" lon="-4.452433">
        <ele>2687.0</ele>
        <time>2014-06-30T15:28:44Z</time>
      </trkpt>
      <trkpt lat="40.758300" lon="-4.452417">
        <ele>2689.0</ele>
        <time>2014-06-30T15:28:45Z</time>
      </trkpt>
      <trkpt lat="40.758267" lon="-4.452417">
        <ele>2691.0</ele>
        <time>2014-06-30T15:28:46Z</time>
      </trkpt>
      <trkpt lat="40.758217" lon="-4.452433">
        <ele>2693.0</ele>
        <time>2014-06-30T15:28:47Z</time>
      </trkpt>
      <trkpt lat="40.758183" lon="-4.452450">
        <ele>2695.0</ele>
        <time>2014-06-30T15:28:48Z</time>
      </trkpt>
      <trkpt lat="40.758167" lon="-4.452467">
        <ele>2698.0</ele>
        <time>2014-06-30T15:28:49Z</time>
      </trkpt>
      <trkpt lat="40.758167" lon="-4.452483">
        <ele>2700.0</ele>
        <time>2014-06-30T15:28:50Z</time>
      </trkpt>
      <trkpt lat="40.758183" lon="-4.452517">
        <ele>2703.0</ele>
        <time>2014-06-30T15:28:51Z</time>
      </trkpt>
      <trkpt lat="40.758217" lon="-4.452533">
        <ele>2705.0</ele>
        <time>2014-06-30T15:28:52Z</time>
      </trkpt>
      <trkpt lat="40.758267" lon="-4.452567">
        <ele>2708.0</ele>
        <time>2014-06-30T15:28:53Z</time>
      </trkpt>
      <trkpt lat="40.758333" lon="-4.452567">
        <ele>2712.0</ele>
        <time>2014-06-30T15:28:54Z</time>
      </trkpt>
      <trkpt lat="40.758417" lon="-4.452550">
        <ele>2717.0</ele>
        <time>2014-06-30T15:28:55Z</time>
      </trkpt>
      <trkpt lat="40.758483" lon="-4.452517">
        <ele>2721.0</ele>
        <time>2014-06-30T15:28:56Z</time>
      </trkpt>
      <trkpt lat="40.758550" lon="-4.452467">
        <ele>2724.0</ele>
        <time>2014-06-30T15:28:57Z</time>
      </trkpt>
      <trkpt lat="40.758633" lon="-4.452417">
        <ele>2727.0</ele>
        <time>2014-06-30T15:28:58Z</time>
      </trkpt>
      <trkpt lat="40.758733" lon="-4.452350">
        <ele>2729.0</ele>
        <time>2014-06-30T15:28:59Z</time>
      </trkpt>
      <trkpt lat="40.758833" lon="-4.452250">
        <ele>2731.0</ele>
        <time>2014-06-30T15:29:00Z</time>
      </trkpt>
      <trkpt lat="40.758933" lon="-4.452117">
        <ele>2733.0</ele>
        <time>2014-06-30T15:29:01Z</time>
      </trkpt>
      <trkpt lat="40.759033" lon="-4.451967">
        <ele>2735.0</ele>
        <time>2014-06-30T15:29:02Z</time>
      </trkpt>
      <trkpt lat="40.759133" lon="-4.451817">
        <ele>2737.0</ele>
        <time>2014-06-30T15:29:03Z</time>
      </trkpt>
      <trkpt lat="40.759217" lon="-4.451650">
        <ele>2739.0</ele>
        <time>2014-06-30T15:29:04Z</time>
      </trkpt>
      <trkpt lat="40.759283" lon="-4.451467">
        <ele>2741.0</ele>
        <time>2014-06-30T15:29:05Z</time>
      </trkpt>
      <trkpt lat="40.759383" lon="-4.451267">
        <ele>2742.0</ele>
        <time>2014-06-30T15:29:06Z</time>
      </trkpt>
      <trkpt lat="40.759467" lon="-4.451067">
        <ele>2742.0</ele>
        <time>2014-06-30T15:29:07Z</time>
      </trkpt>
      <trkpt lat="40.759550" lon="-4.450850">
        <ele>2742.0</ele>
        <time>2014-06-30T15:29:08Z</time>
      </trkpt>
      <trkpt lat="40.759600" lon="-4.450633">
        <ele>2743.0</ele>
        <time>2014-06-30T15:29:09Z</time>
      </trkpt>
      <trkpt lat="40.759633" lon="-4.450400">
        <ele>2743.0</ele>
        <time>2014-06-30T15:29:10Z</time>
      </trkpt>
      <trkpt lat="40.759633" lon="-4.450183">
        <ele>2742.0</ele>
        <time>2014-06-30T15:29:11Z</time>
      </trkpt>
      <trkpt lat="40.759617" lon="-4.449967">
        <ele>2743.0</ele>
        <time>2014-06-30T15:29:12Z</time>
      </trkpt>
      <trkpt lat="40.759583" lon="-4.449750">
        <ele>2743.0</ele>
        <time>2014-06-30T15:29:13Z</time>
      </trkpt>
      <trkpt lat="40.759533" lon="-4.449533">
        <ele>2744.0</ele>
        <time>2014-06-30T15:29:14Z</time>
      </trkpt>
      <trkpt lat="40.759483" lon="-4.449317">
        <ele>2746.0</ele>
        <time>2014-06-30T15:29:15Z</time>
      </trkpt>
      <trkpt lat="40.759433" lon="-4.449117">
        <ele>2748.0</ele>
        <time>2014-06-30T15:29:16Z</time>
      </trkpt>
      <trkpt lat="40.759383" lon="-4.448950">
        <ele>2748.0</ele>
        <time>2014-06-30T15:29:17Z</time>
      </trkpt>
      <trkpt lat="40.759317" lon="-4.448767">
        <ele>2749.0</ele>
        <time>2014-06-30T15:29:18Z</time>
      </trkpt>
      <trkpt lat="40.759250" lon="-4.448567">
        <ele>2749.0</ele>
        <time>2014-06-30T15:29:19Z</time>
      </trkpt>
      <trkpt lat="40.759200" lon="-4.448367">
        <ele>2750.0</ele>
        <time>2014-06-30T15:29:20Z</time>
      </trkpt>
      <trkpt lat="40.759150" lon="-4.448167">
        <ele>2751.0</ele>
        <time>2014-06-30T15:29:21Z</time>
      </trkpt>
      <trkpt lat="40.759117" lon="-4.447967">
        <ele>2755.0</ele>
        <time>2014-06-30T15:29:22Z</time>
      </trkpt>
      <trkpt lat="40.759067" lon="-4.447817">
        <ele>2757.0</ele>
        <time>2014-06-30T15:29:23Z</time>
      </trkpt>
      <trkpt lat="40.759017" lon="-4.447667">
        <ele>2759.0</ele>
        <time>2014-06-30T15:29:24Z</time>
      </trkpt>
      <trkpt lat="40.758967" lon="-4.447533">
        <ele>2760.0</ele>
        <time>2014-06-30T15:29:25Z</time>
      </trkpt>
      <trkpt lat="40.758883" lon="-4.447417">
        <ele>2760.0</ele>
        <time>2014-06-30T15:29:26Z</time>
      </trkpt>
      <trkpt lat="40.758800" lon="-4.447300">
        <ele>2761.0</ele>
        <time>2014-06-30T15:29:27Z</time>
      </trkpt>
      <trkpt lat="40.758717" lon="-4.447217">
        <ele>2761.0</ele>
        <time>2014-06-30T15:29:28Z</time>
      </trkpt>
      <trkpt lat="40.758650" lon="-4.447133">
        <ele>2762.0</ele>
        <time>2014-06-30T15:29:29Z</time>
      </trkpt>
      <trkpt lat="40.758567" lon="-4.447083">
        <ele>2762.0</ele>
        <time>2014-06-30T15:29:30Z</time>
      </trkpt>
      <trkpt lat="40.758483" lon="-4.447017">
        <ele>2762.0</ele>
        <time>2014-06-30T15:29:31Z</time>
      </trkpt>
      <trkpt lat="40.758400" lon="-4.446983">
        <ele>2762.0</ele>
        <time>2014-06-30T15:29:32Z</time>
      </trkpt>
      <trkpt lat="40.758333" lon="-4.446950">
        <ele>2761.0</ele>
        <time>2014-06-30T15:29:33Z</time>
      </trkpt>
      <trkpt lat="40.758250" lon="-4.446950">
        <ele>2762.0</ele>
        <time>2014-06-30T15:29:34Z</time>
      </trkpt>
      <trkpt lat="40.758200" lon="-4.446950">
        <ele>2764.0</ele>
        <time>2014-06-30T15:29:35Z</time>
      </trkpt>
      <trkpt lat="40.758167" lon="-4.446950">
        <ele>2765.0</ele>
        <time>2014-06-30T15:29:36Z</time>
      </trkpt>
      <trkpt lat="40.758150" lon="-4.446950">
        <ele>2766.0</ele>
        <time>2014-06-30T15:29:37Z</time>
      </trkpt>
      <trkpt lat="40.758150" lon="-4.446967">
        <ele>2768.0</ele>
        <time>2014-06-30T15:29:38Z</time>
      </trkpt>
      <trkpt lat="40.758150" lon="-4.446983">
        <ele>2768.0</ele>
        <time>2014-06-30T15:29:39Z</time>
      </trkpt>
      <trkpt lat="40.758150" lon="-4.447033">
        <ele>2769.0</ele>
        <time>2014-06-30T15:29:40Z</time>
      </trkpt>
      <trkpt lat="40.758183" lon="-4.447083">
        <ele>2768.0</ele>
        <time>2014-06-30T15:29:41Z</time>
      </trkpt>
      <trkpt lat="40.758200" lon="-4.447133">
        <ele>2769.0</ele>
        <time>2014-06-30T15:29:42Z</time>
      </trkpt>
      <trkpt lat="40.758250" lon="-4.447150">
        <ele>2772.0</ele>
        <time>2014-06-30T15:29:43Z</time>
      </trkpt>
      <trkpt lat="40.758300" lon="-4.447133">
        <ele>2774.0</ele>
        <time>2014-06-30T15:29:44Z</time>
      </trkpt>
      <trkpt lat="40.758367" lon="-4.447100">
        <ele>2774.0</ele>
        <time>2014-06-30T15:29:45Z</time>
      </trkpt>
      <trkpt lat="40.758433" lon="-4.447083">
        <ele>2775.0</ele>
        <time>2014-06-30T15:29:46Z</time>
      </trkpt>
      <trkpt lat="40.758500" lon="-4.447083">
        <ele>2774.0</ele>
        <time>2014-06-30T15:29:47Z</time>
      </trkpt>
      <trkpt lat="40.758583" lon="-4.447067">
        <ele>2773.0</ele>
        <time>2014-06-30T15:29:48Z</time>
      </trkpt>
      <trkpt lat="40.758683" lon="-4.447050">
        <ele>2773.0</ele>
        <time>2014-06-30T15:29:49Z</time>
      </trkpt>
      <trkpt lat="40.758783" lon="-4.447017">
        <ele>2774.0</ele>
        <time>2014-06-30T15:29:50Z</time>
      </trkpt>
      <trkpt lat="40.758867" lon="-4.446983">
        <ele>2774.0</ele>
        <time>2014-06-30T15:29:51Z</time>
      </trkpt>
      <trkpt lat="40.758967" lon="-4.446933">
        <ele>2774.0</ele>
        <time>2014-06-30T15:29:52Z</time>
      </trkpt>
      <trkpt lat="40.759067" lon="-4.446900">
        <ele>2774.0</ele>
        <time>2014-06-30T15:29:53Z</time>
      </trkpt>
      <trkpt lat="40.759167" lon="-4.446833">
        <ele>2773.0</ele>
        <time>2014-06-30T15:29:54Z</time>
      </trkpt>
      <trkpt lat="40.759267" lon="-4.446750">
        <ele>2773.0</ele>
        <time>2014-06-30T15:29:55Z</time>
      </trkpt>
      <trkpt lat="40.759367" lon="-4.446633">
        <ele>2773.0</ele>
        <time>2014-06-30T15:29:56Z</time>
      </trkpt>
      <trkpt lat="40.759467" lon="-4.446500">
        <ele>2773.0</ele>
        <time>2014-06-30T15:29:57Z</time>
      </trkpt>
      <trkpt lat="40.759567" lon="-4.446383">
        <ele>2773.0</ele>
        <time>2014-06-30T15:29:58Z</time>
      </trkpt>
      <trkpt lat="40.759667" lon="-4.446267">
        <ele>2773.0</ele>
        <time>2014-06-30T15:29:59Z</time>
      </trkpt>
      <trkpt lat="40.759783" lon="-4.446133">
        <ele>2772.0</ele>
        <time>2014-06-30T15:30:00Z</time>
      </trkpt>
      <trkpt lat="40.759900" lon="-4.445983">
        <ele>2772.0</ele>
        <time>2014-06-30T15:30:01Z</time>
      </trkpt>
      <trkpt lat="40.760000" lon="-4.445817">
        <ele>2771.0</ele>
        <time>2014-06-30T15:30:02Z</time>
      </trkpt>
      <trkpt lat="40.760083" lon="-4.445633">
        <ele>2771.0</ele>
        <time>2014-06-30T15:30:03Z</time>
      </trkpt>
      <trkpt lat="40.760183" lon="-4.445450">
        <ele>2770.0</ele>
        <time>2014-06-30T15:30:04Z</time>
      </trkpt>
      <trkpt lat="40.760267" lon="-4.445267">
        <ele>2769.0</ele>
        <time>2014-06-30T15:30:05Z</time>
      </trkpt>
      <trkpt lat="40.760350" lon="-4.445100">
        <ele>2768.0</ele>
        <time>2014-06-30T15:30:06Z</time>
      </trkpt>
      <trkpt lat="40.760417" lon="-4.444917">
        <ele>2767.0</ele>
        <time>2014-06-30T15:30:07Z</time>
      </trkpt>
      <trkpt lat="40.760483" lon="-4.444733">
        <ele>2766.0</ele>
        <time>2014-06-30T15:30:08Z</time>
      </trkpt>
      <trkpt lat="40.760567" lon="-4.444550">
        <ele>2765.0</ele>
        <time>2014-06-30T15:30:09Z</time>
      </trkpt>
      <trkpt lat="40.760650" lon="-4.444383">
        <ele>2763.0</ele>
        <time>2014-06-30T15:30:10Z</time>
      </trkpt>
      <trkpt lat="40.760750" lon="-4.444217">
        <ele>2762.0</ele>
        <time>2014-06-30T15:30:11Z</time>
      </trkpt>
      <trkpt lat="40.760850" lon="-4.444050">
        <ele>2761.0</ele>
        <time>2014-06-30T15:30:12Z</time>
      </trkpt>
      <trkpt lat="40.760917" lon="-4.443900">
        <ele>2760.0</ele>
        <time>2014-06-30T15:30:13Z</time>
      </trkpt>
      <trkpt lat="40.761000" lon="-4.443733">
        <ele>2758.0</ele>
        <time>2014-06-30T15:30:14Z</time>
      </trkpt>
      <trkpt lat="40.761067" lon="-4.443567">
        <ele>2757.0</ele>
        <time>2014-06-30T15:30:15Z</time>
      </trkpt>
      <trkpt lat="40.761133" lon="-4.443400">
        <ele>2754.0</ele>
        <time>2014-06-30T15:30:16Z</time>
      </trkpt>
      <trkpt lat="40.761217" lon="-4.443233">
        <ele>2752.0</ele>
        <time>2014-06-30T15:30:17Z</time>
      </trkpt>
      <trkpt lat="40.761300" lon="-4.443083">
        <ele>2751.0</ele>
        <time>2014-06-30T15:30:18Z</time>
      </trkpt>
      <trkpt lat="40.761367" lon="-4.442950">
        <ele>2749.0</ele>
        <time>2014-06-30T15:30:19Z</time>
      </trkpt>
      <trkpt lat="40.761450" lon="-4.442817">
        <ele>2747.0</ele>
        <time>2014-06-30T15:30:20Z</time>
      </trkpt>
      <trkpt lat="40.761550" lon="-4.442667">
        <ele>2744.0</ele>
        <time>2014-06-30T15:30:21Z</time>
      </trkpt>
      <trkpt lat="40.761650" lon="-4.442533">
        <ele>2741.0</ele>
        <time>2014-06-30T15:30:22Z</time>
      </trkpt>
      <trkpt lat="40.761750" lon="-4.442383">
        <ele>2738.0</ele>
        <time>2014-06-30T15:30:23Z</time>
      </trkpt>
      <trkpt lat="40.761850" lon="-4.442250">
        <ele>2736.0</ele>
        <time>2014-06-30T15:30:24Z</time>
      </trkpt>
      <trkpt lat="40.761950" lon="-4.442100">
        <ele>2733.0</ele>
        <time>2014-06-30T15:30:25Z</time>
      </trkpt>
      <trkpt lat="40.762017" lon="-4.441950">
        <ele>2730.0</ele>
        <time>2014-06-30T15:30:26Z</time>
      </trkpt>
      <trkpt lat="40.762100" lon="-4.441817">
        <ele>2727.0</ele>
        <time>2014-06-30T15:30:27Z</time>
      </trkpt>
      <trkpt lat="40.762167" lon="-4.441667">
        <ele>2723.0</ele>
        <time>2014-06-30T15:30:28Z</time>
      </trkpt>
      <trkpt lat="40.762250" lon="-4.441500">
        <ele>2720.0</ele>
        <time>2014-06-30T15:30:29Z</time>
      </trkpt>
      <trkpt lat="40.762333" lon="-4.441350">
        <ele>2716.0</ele>
        <time>2014-06-30T15:30:30Z</time>
      </trkpt>
      <trkpt lat="40.762433" lon="-4.441217">
        <ele>2712.0</ele>
        <time>2014-06-30T15:30:31Z</time>
      </trkpt>
      <trkpt lat="40.762517" lon="-4.441083">
        <ele>2710.0</ele>
        <time>2014-06-30T15:30:32Z</time>
      </trkpt>
      <trkpt lat="40.762617" lon="-4.440950">
        <ele>2707.0</ele>
        <time>2014-06-30T15:30:33Z</time>
      </trkpt>
      <trkpt lat="40.762717" lon="-4.440817">
        <ele>2705.0</ele>
        <time>2014-06-30T15:30:34Z</time>
      </trkpt>
      <trkpt lat="40.762817" lon="-4.440667">
        <ele>2703.0</ele>
        <time>2014-06-30T15:30:35Z</time>
      </trkpt>
      <trkpt lat="40.762933" lon="-4.440533">
        <ele>2700.0</ele>
        <time>2014-06-30T15:30:36Z</time>
      </trkpt>
      <trkpt lat="40.763033" lon="-4.440400">
        <ele>2698.0</ele>
        <time>2014-06-30T15:30:37Z</time>
      </trkpt>
      <trkpt lat="40.763117" lon="-4.440283">
        <ele>2696.0</ele>
        <time>2014-06-30T15:30:38Z</time>
      </trkpt>
      <trkpt lat="40.763200" lon="-4.440133">
        <ele>2694.0</ele>
        <time>2014-06-30T15:30:39Z</time>
      </trkpt>
      <trkpt lat="40.763283" lon="-4.440000">
        <ele>2692.0</ele>
        <time>2014-06-30T15:30:40Z</time>
      </trkpt>
      <trkpt lat="40.763350" lon="-4.439850">
        <ele>2689.0</ele>
        <time>2014-06-30T15:30:41Z</time>
      </trkpt>
      <trkpt lat="40.763433" lon="-4.439700">
        <ele>2687.0</ele>
        <time>2014-06-30T15:30:42Z</time>
      </trkpt>
      <trkpt lat="40.763500" lon="-4.439550">
        <ele>2684.0</ele>
        <time>2014-06-30T15:30:43Z</time>
      </trkpt>
      <trkpt lat="40.763567" lon="-4.439417">
        <ele>2682.0</ele>
        <time>2014-06-30T15:30:44Z</time>
      </trkpt>
      <trkpt lat="40.763650" lon="-4.439267">
        <ele>2680.0</ele>
        <time>2014-06-30T15:30:45Z</time>
      </trkpt>
      <trkpt lat="40.763733" lon="-4.439133">
        <ele>2679.0</ele>
        <time>2014-06-30T15:30:46Z</time>
      </trkpt>
      <trkpt lat="40.763817" lon="-4.439000">
        <ele>2678.0</ele>
        <time>2014-06-30T15:30:47Z</time>
      </trkpt>
      <trkpt lat="40.763883" lon="-4.438883">
        <ele>2678.0</ele>
        <time>2014-06-30T15:30:48Z</time>
      </trkpt>
      <trkpt lat="40.763967" lon="-4.438767">
        <ele>2678.0</ele>
        <time>2014-06-30T15:30:49Z</time>
      </trkpt>
      <trkpt lat="40.764033" lon="-4.438667">
        <ele>2678.0</ele>
        <time>2014-06-30T15:30:50Z</time>
      </trkpt>
      <trkpt lat="40.764133" lon="-4.438550">
        <ele>2678.0</ele>
        <time>2014-06-30T15:30:51Z</time>
      </trkpt>
      <trkpt lat="40.764233" lon="-4.438450">
        <ele>2678.0</ele>
        <time>2014-06-30T15:30:52Z</time>
      </trkpt>
      <trkpt lat="40.764317" lon="-4.438350">
        <ele>2678.0</ele>
        <time>2014-06-30T15:30:53Z</time>
      </trkpt>
      <trkpt lat="40.764400" lon="-4.438233">
        <ele>2678.0</ele>
        <time>2014-06-30T15:30:54Z</time>
      </trkpt>
      <trkpt lat="40.764467" lon="-4.438100">
        <ele>2677.0</ele>
        <time>2014-06-30T15:30:55Z</time>
      </trkpt>
      <trkpt lat="40.764517" lon="-4.437950">
        <ele>2676.0</ele>
        <time>2014-06-30T15:30:56Z</time>
      </trkpt>
      <trkpt lat="40.764550" lon="-4.437783">
        <ele>2674.0</ele>
        <time>2014-06-30T15:30:57Z</time>
      </trkpt>
      <trkpt lat="40.764583" lon="-4.437617">
        <ele>2671.0</ele>
        <time>2014-06-30T15:30:58Z</time>
      </trkpt>
      <trkpt lat="40.764633" lon="-4.437433">
        <ele>2668.0</ele>
        <time>2014-06-30T15:30:59Z</time>
      </trkpt>
      <trkpt lat="40.764667" lon="-4.437233">
        <ele>2665.0</ele>
        <time>2014-06-30T15:31:00Z</time>
      </trkpt>
      <trkpt lat="40.764700" lon="-4.437050">
        <ele>2663.0</ele>
        <time>2014-06-30T15:31:01Z</time>
      </trkpt>
      <trkpt lat="40.764767" lon="-4.436867">
        <ele>2661.0</ele>
        <time>2014-06-30T15:31:02Z</time>
      </trkpt>
      <trkpt lat="40.764833" lon="-4.436717">
        <ele>2659.0</ele>
        <time>2014-06-30T15:31:03Z</time>
      </trkpt>
      <trkpt lat="40.764900" lon="-4.436550">
        <ele>2657.0</ele>
        <time>2014-06-30T15:31:04Z</time>
      </trkpt>
      <trkpt lat="40.764967" lon="-4.436383">
        <ele>2654.0</ele>
        <time>2014-06-30T15:31:05Z</time>
      </trkpt>
      <trkpt lat="40.765033" lon="-4.436200">
        <ele>2651.0</ele>
        <time>2014-06-30T15:31:06Z</time>
      </trkpt>
      <trkpt lat="40.765117" lon="-4.436033">
        <ele>2648.0</ele>
        <time>2014-06-30T15:31:07Z</time>
      </trkpt>
      <trkpt lat="40.765217" lon="-4.435883">
        <ele>2645.0</ele>
        <time>2014-06-30T15:31:08Z</time>
      </trkpt>
      <trkpt lat="40.765300" lon="-4.435733">
        <ele>2645.0</ele>
        <time>2014-06-30T15:31:09Z</time>
      </trkpt>
      <trkpt lat="40.765383" lon="-4.435617">
        <ele>2644.0</ele>
        <time>2014-06-30T15:31:10Z</time>
      </trkpt>
      <trkpt lat="40.765467" lon="-4.435483">
        <ele>2643.0</ele>
        <time>2014-06-30T15:31:11Z</time>
      </trkpt>
      <trkpt lat="40.765533" lon="-4.435350">
        <ele>2640.0</ele>
        <time>2014-06-30T15:31:12Z</time>
      </trkpt>
      <trkpt lat="40.765617" lon="-4.435217">
        <ele>2637.0</ele>
        <time>2014-06-30T15:31:13Z</time>
      </trkpt>
      <trkpt lat="40.765700" lon="-4.435067">
        <ele>2634.0</ele>
        <time>2014-06-30T15:31:14Z</time>
      </trkpt>
      <trkpt lat="40.765800" lon="-4.434933">
        <ele>2632.0</ele>
        <time>2014-06-30T15:31:15Z</time>
      </trkpt>
      <trkpt lat="40.765883" lon="-4.434800">
        <ele>2630.0</ele>
        <time>2014-06-30T15:31:16Z</time>
      </trkpt>
      <trkpt lat="40.765967" lon="-4.434683">
        <ele>2630.0</ele>
        <time>2014-06-30T15:31:17Z</time>
      </trkpt>
      <trkpt lat="40.766050" lon="-4.434550">
        <ele>2629.0</ele>
        <time>2014-06-30T15:31:18Z</time>
      </trkpt>
      <trkpt lat="40.766117" lon="-4.434433">
        <ele>2628.0</ele>
        <time>2014-06-30T15:31:19Z</time>
      </trkpt>
      <trkpt lat="40.766200" lon="-4.434300">
        <ele>2627.0</ele>
        <time>2014-06-30T15:31:20Z</time>
      </trkpt>
      <trkpt lat="40.766283" lon="-4.434167">
        <ele>2625.0</ele>
        <time>2014-06-30T15:31:21Z</time>
      </trkpt>
      <trkpt lat="40.766367" lon="-4.434017">
        <ele>2625.0</ele>
        <time>2014-06-30T15:31:22Z</time>
      </trkpt>
      <trkpt lat="40.766450" lon="-4.433867">
        <ele>2624.0</ele>
        <time>2014-06-30T15:31:23Z</time>
      </trkpt>
      <trkpt lat="40.766550" lon="-4.433733">
        <ele>2624.0</ele>
        <time>2014-06-30T15:31:24Z</time>
      </trkpt>
      <trkpt lat="40.766617" lon="-4.433600">
        <ele>2625.0</ele>
        <time>2014-06-30T15:31:25Z</time>
      </trkpt>
      <trkpt lat="40.766700" lon="-4.433450">
        <ele>2626.0</ele>
        <time>2014-06-30T15:31:26Z</time>
      </trkpt>
      <trkpt lat="40.766767" lon="-4.433317">
        <ele>2625.0</ele>
        <time>2014-06-30T15:31:27Z</time>
      </trkpt>
      <trkpt lat="40.766850" lon="-4.433183">
        <ele>2624.0</ele>
        <time>2014-06-30T15:31:28Z</time>
      </trkpt>
      <trkpt lat="40.766933" lon="-4.433033">
        <ele>2623.0</ele>
        <time>2014-06-30T15:31:29Z</time>
      </trkpt>
      <trkpt lat="40.767033" lon="-4.432867">
        <ele>2621.0</ele>
        <time>2014-06-30T15:31:30Z</time>
      </trkpt>
      <trkpt lat="40.767117" lon="-4.432717">
        <ele>2619.0</ele>
        <time>2014-06-30T15:31:31Z</time>
      </trkpt>
      <trkpt lat="40.767200" lon="-4.432567">
        <ele>2619.0</ele>
        <time>2014-06-30T15:31:32Z</time>
      </trkpt>
      <trkpt lat="40.767267" lon="-4.432417">
        <ele>2619.0</ele>
        <time>2014-06-30T15:31:33Z</time>
      </trkpt>
      <trkpt lat="40.767333" lon="-4.432267">
        <ele>2618.0</ele>
        <time>2014-06-30T15:31:34Z</time>
      </trkpt>
      <trkpt lat="40.767417" lon="-4.432117">
        <ele>2617.0</ele>
        <time>2014-06-30T15:31:35Z</time>
      </trkpt>
      <trkpt lat="40.767517" lon="-4.431967">
        <ele>2616.0</ele>
        <time>2014-06-30T15:31:36Z</time>
      </trkpt>
      <trkpt lat="40.767600" lon="-4.431800">
        <ele>2614.0</ele>
        <time>2014-06-30T15:31:37Z</time>
      </trkpt>
      <trkpt lat="40.767700" lon="-4.431633">
        <ele>2612.0</ele>
        <time>2014-06-30T15:31:38Z</time>
      </trkpt>
      <trkpt lat="40.767783" lon="-4.431467">
        <ele>2610.0</ele>
        <time>2014-06-30T15:31:39Z</time>
      </trkpt>
      <trkpt lat="40.767883" lon="-4.431283">
        <ele>2609.0</ele>
        <time>2014-06-30T15:31:40Z</time>
      </trkpt>
      <trkpt lat="40.767967" lon="-4.431117">
        <ele>2607.0</ele>
        <time>2014-06-30T15:31:41Z</time>
      </trkpt>
      <trkpt lat="40.768050" lon="-4.430950">
        <ele>2606.0</ele>
        <time>2014-06-30T15:31:42Z</time>
      </trkpt>
      <trkpt lat="40.768117" lon="-4.430783">
        <ele>2605.0</ele>
        <time>2014-06-30T15:31:43Z</time>
      </trkpt>
      <trkpt lat="40.768200" lon="-4.430617">
        <ele>2604.0</ele>
        <time>2014-06-30T15:31:44Z</time>
      </trkpt>
      <trkpt lat="40.768267" lon="-4.430467">
        <ele>2603.0</ele>
        <time>2014-06-30T15:31:45Z</time>
      </trkpt>
      <trkpt lat="40.768333" lon="-4.430300">
        <ele>2601.0</ele>
        <time>2014-06-30T15:31:46Z</time>
      </trkpt>
      <trkpt lat="40.768400" lon="-4.430133">
        <ele>2599.0</ele>
        <time>2014-06-30T15:31:47Z</time>
      </trkpt>
      <trkpt lat="40.768483" lon="-4.429967">
        <ele>2597.0</ele>
        <time>2014-06-30T15:31:48Z</time>
      </trkpt>
      <trkpt lat="40.768567" lon="-4.429800">
        <ele>2595.0</ele>
        <time>2014-06-30T15:31:49Z</time>
      </trkpt>
      <trkpt lat="40.768650" lon="-4.429633">
        <ele>2593.0</ele>
        <time>2014-06-30T15:31:50Z</time>
      </trkpt>
      <trkpt lat="40.768717" lon="-4.429483">
        <ele>2591.0</ele>
        <time>2014-06-30T15:31:51Z</time>
      </trkpt>
      <trkpt lat="40.768783" lon="-4.429317">
        <ele>2590.0</ele>
        <time>2014-06-30T15:31:52Z</time>
      </trkpt>
      <trkpt lat="40.768850" lon="-4.429183">
        <ele>2590.0</ele>
        <time>2014-06-30T15:31:53Z</time>
      </trkpt>
      <trkpt lat="40.768917" lon="-4.429050">
        <ele>2590.0</ele>
        <time>2014-06-30T15:31:54Z</time>
      </trkpt>
      <trkpt lat="40.768983" lon="-4.428917">
        <ele>2588.0</ele>
        <time>2014-06-30T15:31:55Z</time>
      </trkpt>
      <trkpt lat="40.769067" lon="-4.428783">
        <ele>2586.0</ele>
        <time>2014-06-30T15:31:56Z</time>
      </trkpt>
      <trkpt lat="40.769167" lon="-4.428667">
        <ele>2584.0</ele>
        <time>2014-06-30T15:31:57Z</time>
      </trkpt>
      <trkpt lat="40.769267" lon="-4.428517">
        <ele>2582.0</ele>
        <time>2014-06-30T15:31:58Z</time>
      </trkpt>
      <trkpt lat="40.769350" lon="-4.428383">
        <ele>2581.0</ele>
        <time>2014-06-30T15:31:59Z</time>
      </trkpt>
      <trkpt lat="40.769433" lon="-4.428250">
        <ele>2579.0</ele>
        <time>2014-06-30T15:32:00Z</time>
      </trkpt>
      <trkpt lat="40.769533" lon="-4.428117">
        <ele>2578.0</ele>
        <time>2014-06-30T15:32:01Z</time>
      </trkpt>
      <trkpt lat="40.769617" lon="-4.427983">
        <ele>2576.0</ele>
        <time>2014-06-30T15:32:02Z</time>
      </trkpt>
      <trkpt lat="40.769717" lon="-4.427833">
        <ele>2574.0</ele>
        <time>2014-06-30T15:32:03Z</time>
      </trkpt>
      <trkpt lat="40.769817" lon="-4.427683">
        <ele>2571.0</ele>
        <time>2014-06-30T15:32:04Z</time>
      </trkpt>
      <trkpt lat="40.769933" lon="-4.427550">
        <ele>2569.0</ele>
        <time>2014-06-30T15:32:05Z</time>
      </trkpt>
      <trkpt lat="40.770033" lon="-4.427400">
        <ele>2567.0</ele>
        <time>2014-06-30T15:32:06Z</time>
      </trkpt>
      <trkpt lat="40.770117" lon="-4.427250">
        <ele>2565.0</ele>
        <time>2014-06-30T15:32:07Z</time>
      </trkpt>
      <trkpt lat="40.770217" lon="-4.427100">
        <ele>2562.0</ele>
        <time>2014-06-30T15:32:08Z</time>
      </trkpt>
      <trkpt lat="40.770317" lon="-4.426933">
        <ele>2560.0</ele>
        <time>2014-06-30T15:32:09Z</time>
      </trkpt>
      <trkpt lat="40.770417" lon="-4.426783">
        <ele>2558.0</ele>
        <time>2014-06-30T15:32:10Z</time>
      </trkpt>
      <trkpt lat="40.770500" lon="-4.426617">
        <ele>2555.0</ele>
        <time>2014-06-30T15:32:11Z</time>
      </trkpt>
      <trkpt lat="40.770583" lon="-4.426467">
        <ele>2553.0</ele>
        <time>2014-06-30T15:32:12Z</time>
      </trkpt>
      <trkpt lat="40.770667" lon="-4.426300">
        <ele>2550.0</ele>
        <time>2014-06-30T15:32:13Z</time>
      </trkpt>
      <trkpt lat="40.770733" lon="-4.426133">
        <ele>2548.0</ele>
        <time>2014-06-30T15:32:14Z</time>
      </trkpt>
      <trkpt lat="40.770817" lon="-4.425967">
        <ele>2545.0</ele>
        <time>2014-06-30T15:32:15Z</time>
      </trkpt>
      <trkpt lat="40.770917" lon="-4.425817">
        <ele>2543.0</ele>
        <time>2014-06-30T15:32:16Z</time>
      </trkpt>
      <trkpt lat="40.771000" lon="-4.425650">
        <ele>2541.0</ele>
        <time>2014-06-30T15:32:17Z</time>
      </trkpt>
      <trkpt lat="40.771100" lon="-4.425500">
        <ele>2539.0</ele>
        <time>2014-06-30T15:32:18Z</time>
      </trkpt>
      <trkpt lat="40.771200" lon="-4.425367">
        <ele>2537.0</ele>
        <time>2014-06-30T15:32:19Z</time>
      </trkpt>
      <trkpt lat="40.771300" lon="-4.425217">
        <ele>2535.0</ele>
        <time>2014-06-30T15:32:20Z</time>
      </trkpt>
      <trkpt lat="40.771400" lon="-4.425067">
        <ele>2532.0</ele>
        <time>2014-06-30T15:32:21Z</time>
      </trkpt>
      <trkpt lat="40.771500" lon="-4.424917">
        <ele>2530.0</ele>
        <time>2014-06-30T15:32:22Z</time>
      </trkpt>
      <trkpt lat="40.771600" lon="-4.424750">
        <ele>2527.0</ele>
        <time>2014-06-30T15:32:23Z</time>
      </trkpt>
      <trkpt lat="40.771700" lon="-4.424583">
        <ele>2524.0</ele>
        <time>2014-06-30T15:32:24Z</time>
      </trkpt>
      <trkpt lat="40.771800" lon="-4.424433">
        <ele>2521.0</ele>
        <time>2014-06-30T15:32:25Z</time>
      </trkpt>
      <trkpt lat="40.771900" lon="-4.424283">
        <ele>2519.0</ele>
        <time>2014-06-30T15:32:26Z</time>
      </trkpt>
      <trkpt lat="40.772017" lon="-4.424117">
        <ele>2517.0</ele>
        <time>2014-06-30T15:32:27Z</time>
      </trkpt>
      <trkpt lat="40.772117" lon="-4.423967">
        <ele>2515.0</ele>
        <time>2014-06-30T15:32:28Z</time>
      </trkpt>
      <trkpt lat="40.772217" lon="-4.423817">
        <ele>2514.0</ele>
        <time>2014-06-30T15:32:29Z</time>
      </trkpt>
      <trkpt lat="40.772300" lon="-4.423667">
        <ele>2512.0</ele>
        <time>2014-06-30T15:32:30Z</time>
      </trkpt>
      <trkpt lat="40.772400" lon="-4.423533">
        <ele>2511.0</ele>
        <time>2014-06-30T15:32:31Z</time>
      </trkpt>
      <trkpt lat="40.772483" lon="-4.423383">
        <ele>2509.0</ele>
        <time>2014-06-30T15:32:32Z</time>
      </trkpt>
      <trkpt lat="40.772583" lon="-4.423233">
        <ele>2508.0</ele>
        <time>2014-06-30T15:32:33Z</time>
      </trkpt>
      <trkpt lat="40.772683" lon="-4.423100">
        <ele>2506.0</ele>
        <time>2014-06-30T15:32:34Z</time>
      </trkpt>
      <trkpt lat="40.772767" lon="-4.422950">
        <ele>2504.0</ele>
        <time>2014-06-30T15:32:35Z</time>
      </trkpt>
      <trkpt lat="40.772850" lon="-4.422800">
        <ele>2503.0</ele>
        <time>2014-06-30T15:32:36Z</time>
      </trkpt>
      <trkpt lat="40.772933" lon="-4.422650">
        <ele>2501.0</ele>
        <time>2014-06-30T15:32:37Z</time>
      </trkpt>
      <trkpt lat="40.773017" lon="-4.422483">
        <ele>2498.0</ele>
        <time>2014-06-30T15:32:38Z</time>
      </trkpt>
      <trkpt lat="40.773100" lon="-4.422333">
        <ele>2496.0</ele>
        <time>2014-06-30T15:32:39Z</time>
      </trkpt>
      <trkpt lat="40.773167" lon="-4.422167">
        <ele>2493.0</ele>
        <time>2014-06-30T15:32:40Z</time>
      </trkpt>
      <trkpt lat="40.773233" lon="-4.422017">
        <ele>2492.0</ele>
        <time>2014-06-30T15:32:41Z</time>
      </trkpt>
      <trkpt lat="40.773300" lon="-4.421867">
        <ele>2490.0</ele>
        <time>2014-06-30T15:32:42Z</time>
      </trkpt>
      <trkpt lat="40.773350" lon="-4.421700">
        <ele>2488.0</ele>
        <time>2014-06-30T15:32:43Z</time>
      </trkpt>
      <trkpt lat="40.773433" lon="-4.421550">
        <ele>2485.0</ele>
        <time>2014-06-30T15:32:44Z</time>
      </trkpt>
      <trkpt lat="40.773517" lon="-4.421367">
        <ele>2482.0</ele>
        <time>2014-06-30T15:32:45Z</time>
      </trkpt>
      <trkpt lat="40.773583" lon="-4.421183">
        <ele>2479.0</ele>
        <time>2014-06-30T15:32:46Z</time>
      </trkpt>
      <trkpt lat="40.773650" lon="-4.421017">
        <ele>2477.0</ele>
        <time>2014-06-30T15:32:47Z</time>
      </trkpt>
      <trkpt lat="40.773717" lon="-4.420867">
        <ele>2477.0</ele>
        <time>2014-06-30T15:32:48Z</time>
      </trkpt>
      <trkpt lat="40.773767" lon="-4.420733">
        <ele>2476.0</ele>
        <time>2014-06-30T15:32:49Z</time>
      </trkpt>
      <trkpt lat="40.773833" lon="-4.420583">
        <ele>2475.0</ele>
        <time>2014-06-30T15:32:50Z</time>
      </trkpt>
      <trkpt lat="40.773900" lon="-4.420417">
        <ele>2473.0</ele>
        <time>2014-06-30T15:32:51Z</time>
      </trkpt>
      <trkpt lat="40.773983" lon="-4.420250">
        <ele>2471.0</ele>
        <time>2014-06-30T15:32:52Z</time>
      </trkpt>
      <trkpt lat="40.774050" lon="-4.420083">
        <ele>2470.0</ele>
        <time>2014-06-30T15:32:53Z</time>
      </trkpt>
      <trkpt lat="40.774117" lon="-4.419917">
        <ele>2468.0</ele>
        <time>2014-06-30T15:32:54Z</time>
      </trkpt>
      <trkpt lat="40.774183" lon="-4.419750">
        <ele>2466.0</ele>
        <time>2014-06-30T15:32:55Z</time>
      </trkpt>
      <trkpt lat="40.774267" lon="-4.419600">
        <ele>2464.0</ele>
        <time>2014-06-30T15:32:56Z</time>
      </trkpt>
      <trkpt lat="40.774367" lon="-4.419433">
        <ele>2461.0</ele>
        <time>2014-06-30T15:32:57Z</time>
      </trkpt>
      <trkpt lat="40.774450" lon="-4.419267">
        <ele>2460.0</ele>
        <time>2014-06-30T15:32:58Z</time>
      </trkpt>
      <trkpt lat="40.774533" lon="-4.419100">
        <ele>2459.0</ele>
        <time>2014-06-30T15:32:59Z</time>
      </trkpt>
      <trkpt lat="40.774633" lon="-4.418933">
        <ele>2458.0</ele>
        <time>2014-06-30T15:33:00Z</time>
      </trkpt>
      <trkpt lat="40.774717" lon="-4.418767">
        <ele>2457.0</ele>
        <time>2014-06-30T15:33:01Z</time>
      </trkpt>
      <trkpt lat="40.774800" lon="-4.418600">
        <ele>2456.0</ele>
        <time>2014-06-30T15:33:02Z</time>
      </trkpt>
      <trkpt lat="40.774883" lon="-4.418433">
        <ele>2456.0</ele>
        <time>2014-06-30T15:33:03Z</time>
      </trkpt>
      <trkpt lat="40.774967" lon="-4.418267">
        <ele>2455.0</ele>
        <time>2014-06-30T15:33:04Z</time>
      </trkpt>
      <trkpt lat="40.775050" lon="-4.418100">
        <ele>2453.0</ele>
        <time>2014-06-30T15:33:05Z</time>
      </trkpt>
      <trkpt lat="40.775150" lon="-4.417933">
        <ele>2452.0</ele>
        <time>2014-06-30T15:33:06Z</time>
      </trkpt>
      <trkpt lat="40.775233" lon="-4.417767">
        <ele>2451.0</ele>
        <time>2014-06-30T15:33:07Z</time>
      </trkpt>
      <trkpt lat="40.775317" lon="-4.417617">
        <ele>2450.0</ele>
        <time>2014-06-30T15:33:08Z</time>
      </trkpt>
      <trkpt lat="40.775400" lon="-4.417450">
        <ele>2449.0</ele>
        <time>2014-06-30T15:33:09Z</time>
      </trkpt>
      <trkpt lat="40.775500" lon="-4.417283">
        <ele>2449.0</ele>
        <time>2014-06-30T15:33:10Z</time>
      </trkpt>
      <trkpt lat="40.775583" lon="-4.417133">
        <ele>2448.0</ele>
        <time>2014-06-30T15:33:11Z</time>
      </trkpt>
      <trkpt lat="40.775667" lon="-4.417000">
        <ele>2448.0</ele>
        <time>2014-06-30T15:33:12Z</time>
      </trkpt>
      <trkpt lat="40.775767" lon="-4.416850">
        <ele>2447.0</ele>
        <time>2014-06-30T15:33:13Z</time>
      </trkpt>
      <trkpt lat="40.775850" lon="-4.416700">
        <ele>2447.0</ele>
        <time>2014-06-30T15:33:14Z</time>
      </trkpt>
      <trkpt lat="40.775933" lon="-4.416533">
        <ele>2446.0</ele>
        <time>2014-06-30T15:33:15Z</time>
      </trkpt>
      <trkpt lat="40.776033" lon="-4.416383">
        <ele>2445.0</ele>
        <time>2014-06-30T15:33:16Z</time>
      </trkpt>
      <trkpt lat="40.776117" lon="-4.416233">
        <ele>2444.0</ele>
        <time>2014-06-30T15:33:17Z</time>
      </trkpt>
      <trkpt lat="40.776200" lon="-4.416067">
        <ele>2443.0</ele>
        <time>2014-06-30T15:33:18Z</time>
      </trkpt>
      <trkpt lat="40.776283" lon="-4.415917">
        <ele>2442.0</ele>
        <time>2014-06-30T15:33:19Z</time>
      </trkpt>
      <trkpt lat="40.776350" lon="-4.415750">
        <ele>2441.0</ele>
        <time>2014-06-30T15:33:20Z</time>
      </trkpt>
      <trkpt lat="40.776433" lon="-4.415600">
        <ele>2440.0</ele>
        <time>2014-06-30T15:33:21Z</time>
      </trkpt>
      <trkpt lat="40.776500" lon="-4.415433">
        <ele>2439.0</ele>
        <time>2014-06-30T15:33:22Z</time>
      </trkpt>
      <trkpt lat="40.776583" lon="-4.415283">
        <ele>2437.0</ele>
        <time>2014-06-30T15:33:23Z</time>
      </trkpt>
      <trkpt lat="40.776650" lon="-4.415117">
        <ele>2436.0</ele>
        <time>2014-06-30T15:33:24Z</time>
      </trkpt>
      <trkpt lat="40.776717" lon="-4.414967">
        <ele>2436.0</ele>
        <time>2014-06-30T15:33:25Z</time>
      </trkpt>
      <trkpt lat="40.776800" lon="-4.414817">
        <ele>2434.0</ele>
        <time>2014-06-30T15:33:26Z</time>
      </trkpt>
      <trkpt lat="40.776867" lon="-4.414650">
        <ele>2433.0</ele>
        <time>2014-06-30T15:33:27Z</time>
      </trkpt>
      <trkpt lat="40.776950" lon="-4.414500">
        <ele>2431.0</ele>
        <time>2014-06-30T15:33:28Z</time>
      </trkpt>
      <trkpt lat="40.777033" lon="-4.414333">
        <ele>2430.0</ele>
        <time>2014-06-30T15:33:29Z</time>
      </trkpt>
      <trkpt lat="40.777100" lon="-4.414183">
        <ele>2429.0</ele>
        <time>2014-06-30T15:33:30Z</time>
      </trkpt>
      <trkpt lat="40.777183" lon="-4.414017">
        <ele>2427.0</ele>
        <time>2014-06-30T15:33:31Z</time>
      </trkpt>
      <trkpt lat="40.777250" lon="-4.413867">
        <ele>2426.0</ele>
        <time>2014-06-30T15:33:32Z</time>
      </trkpt>
      <trkpt lat="40.777333" lon="-4.413700">
        <ele>2425.0</ele>
        <time>2014-06-30T15:33:33Z</time>
      </trkpt>
      <trkpt lat="40.777400" lon="-4.413533">
        <ele>2423.0</ele>
        <time>2014-06-30T15:33:34Z</time>
      </trkpt>
      <trkpt lat="40.777467" lon="-4.413367">
        <ele>2422.0</ele>
        <time>2014-06-30T15:33:35Z</time>
      </trkpt>
      <trkpt lat="40.777550" lon="-4.413217">
        <ele>2421.0</ele>
        <time>2014-06-30T15:33:36Z</time>
      </trkpt>
      <trkpt lat="40.777617" lon="-4.413050">
        <ele>2419.0</ele>
        <time>2014-06-30T15:33:37Z</time>
      </trkpt>
      <trkpt lat="40.777683" lon="-4.412900">
        <ele>2418.0</ele>
        <time>2014-06-30T15:33:38Z</time>
      </trkpt>
      <trkpt lat="40.777767" lon="-4.412733">
        <ele>2417.0</ele>
        <time>2014-06-30T15:33:39Z</time>
      </trkpt>
      <trkpt lat="40.777850" lon="-4.412567">
        <ele>2415.0</ele>
        <time>2014-06-30T15:33:40Z</time>
      </trkpt>
      <trkpt lat="40.777933" lon="-4.412417">
        <ele>2414.0</ele>
        <time>2014-06-30T15:33:41Z</time>
      </trkpt>
      <trkpt lat="40.778000" lon="-4.412267">
        <ele>2414.0</ele>
        <time>2014-06-30T15:33:42Z</time>
      </trkpt>
      <trkpt lat="40.778067" lon="-4.412117">
        <ele>2413.0</ele>
        <time>2014-06-30T15:33:43Z</time>
      </trkpt>
      <trkpt lat="40.778133" lon="-4.411967">
        <ele>2411.0</ele>
        <time>2014-06-30T15:33:44Z</time>
      </trkpt>
      <trkpt lat="40.778200" lon="-4.411800">
        <ele>2410.0</ele>
        <time>2014-06-30T15:33:45Z</time>
      </trkpt>
      <trkpt lat="40.778283" lon="-4.411650">
        <ele>2408.0</ele>
        <time>2014-06-30T15:33:46Z</time>
      </trkpt>
      <trkpt lat="40.778350" lon="-4.411500">
        <ele>2406.0</ele>
        <time>2014-06-30T15:33:47Z</time>
      </trkpt>
      <trkpt lat="40.778433" lon="-4.411367">
        <ele>2404.0</ele>
        <time>2014-06-30T15:33:48Z</time>
      </trkpt>
      <trkpt lat="40.778500" lon="-4.411233">
        <ele>2402.0</ele>
        <time>2014-06-30T15:33:49Z</time>
      </trkpt>
      <trkpt lat="40.778567" lon="-4.411083">
        <ele>2400.0</ele>
        <time>2014-06-30T15:33:50Z</time>
      </trkpt>
      <trkpt lat="40.778633" lon="-4.410950">
        <ele>2399.0</ele>
        <time>2014-06-30T15:33:51Z</time>
      </trkpt>
      <trkpt lat="40.778683" lon="-4.410800">
        <ele>2396.0</ele>
        <time>2014-06-30T15:33:52Z</time>
      </trkpt>
      <trkpt lat="40.778750" lon="-4.410650">
        <ele>2394.0</ele>
        <time>2014-06-30T15:33:53Z</time>
      </trkpt>
      <trkpt lat="40.778817" lon="-4.410483">
        <ele>2392.0</ele>
        <time>2014-06-30T15:33:54Z</time>
      </trkpt>
      <trkpt lat="40.778900" lon="-4.410333">
        <ele>2389.0</ele>
        <time>2014-06-30T15:33:55Z</time>
      </trkpt>
      <trkpt lat="40.778950" lon="-4.410183">
        <ele>2387.0</ele>
        <time>2014-06-30T15:33:56Z</time>
      </trkpt>
      <trkpt lat="40.779017" lon="-4.410033">
        <ele>2385.0</ele>
        <time>2014-06-30T15:33:57Z</time>
      </trkpt>
      <trkpt lat="40.779083" lon="-4.409900">
        <ele>2383.0</ele>
        <time>2014-06-30T15:33:58Z</time>
      </trkpt>
      <trkpt lat="40.779150" lon="-4.409750">
        <ele>2380.0</ele>
        <time>2014-06-30T15:33:59Z</time>
      </trkpt>
      <trkpt lat="40.779233" lon="-4.409600">
        <ele>2377.0</ele>
        <time>2014-06-30T15:34:00Z</time>
      </trkpt>
      <trkpt lat="40.779300" lon="-4.409450">
        <ele>2375.0</ele>
        <time>2014-06-30T15:34:01Z</time>
      </trkpt>
      <trkpt lat="40.779367" lon="-4.409283">
        <ele>2372.0</ele>
        <time>2014-06-30T15:34:02Z</time>
      </trkpt>
      <trkpt lat="40.779450" lon="-4.409133">
        <ele>2370.0</ele>
        <time>2014-06-30T15:34:03Z</time>
      </trkpt>
      <trkpt lat="40.779517" lon="-4.408983">
        <ele>2368.0</ele>
        <time>2014-06-30T15:34:04Z</time>
      </trkpt>
      <trkpt lat="40.779583" lon="-4.408817">
        <ele>2366.0</ele>
        <time>2014-06-30T15:34:05Z</time>
      </trkpt>
      <trkpt lat="40.779633" lon="-4.408667">
        <ele>2363.0</ele>
        <time>2014-06-30T15:34:06Z</time>
      </trkpt>
      <trkpt lat="40.779700" lon="-4.408500">
        <ele>2360.0</ele>
        <time>2014-06-30T15:34:07Z</time>
      </trkpt>
      <trkpt lat="40.779767" lon="-4.408317">
        <ele>2358.0</ele>
        <time>2014-06-30T15:34:08Z</time>
      </trkpt>
      <trkpt lat="40.779833" lon="-4.408150">
        <ele>2355.0</ele>
        <time>2014-06-30T15:34:09Z</time>
      </trkpt>
      <trkpt lat="40.779900" lon="-4.407983">
        <ele>2353.0</ele>
        <time>2014-06-30T15:34:10Z</time>
      </trkpt>
      <trkpt lat="40.779983" lon="-4.407817">
        <ele>2351.0</ele>
        <time>2014-06-30T15:34:11Z</time>
      </trkpt>
      <trkpt lat="40.780033" lon="-4.407650">
        <ele>2349.0</ele>
        <time>2014-06-30T15:34:12Z</time>
      </trkpt>
      <trkpt lat="40.780100" lon="-4.407467">
        <ele>2347.0</ele>
        <time>2014-06-30T15:34:13Z</time>
      </trkpt>
      <trkpt lat="40.780167" lon="-4.407283">
        <ele>2345.0</ele>
        <time>2014-06-30T15:34:14Z</time>
      </trkpt>
      <trkpt lat="40.780250" lon="-4.407117">
        <ele>2343.0</ele>
        <time>2014-06-30T15:34:15Z</time>
      </trkpt>
      <trkpt lat="40.780317" lon="-4.406950">
        <ele>2341.0</ele>
        <time>2014-06-30T15:34:16Z</time>
      </trkpt>
      <trkpt lat="40.780383" lon="-4.406767">
        <ele>2340.0</ele>
        <time>2014-06-30T15:34:17Z</time>
      </trkpt>
      <trkpt lat="40.780450" lon="-4.406617">
        <ele>2339.0</ele>
        <time>2014-06-30T15:34:18Z</time>
      </trkpt>
      <trkpt lat="40.780533" lon="-4.406450">
        <ele>2338.0</ele>
        <time>2014-06-30T15:34:19Z</time>
      </trkpt>
      <trkpt lat="40.780600" lon="-4.406300">
        <ele>2336.0</ele>
        <time>2014-06-30T15:34:20Z</time>
      </trkpt>
      <trkpt lat="40.780683" lon="-4.406150">
        <ele>2335.0</ele>
        <time>2014-06-30T15:34:21Z</time>
      </trkpt>
      <trkpt lat="40.780767" lon="-4.406000">
        <ele>2334.0</ele>
        <time>2014-06-30T15:34:22Z</time>
      </trkpt>
      <trkpt lat="40.780850" lon="-4.405850">
        <ele>2332.0</ele>
        <time>2014-06-30T15:34:23Z</time>
      </trkpt>
      <trkpt lat="40.780917" lon="-4.405717">
        <ele>2331.0</ele>
        <time>2014-06-30T15:34:24Z</time>
      </trkpt>
      <trkpt lat="40.781017" lon="-4.405567">
        <ele>2330.0</ele>
        <time>2014-06-30T15:34:25Z</time>
      </trkpt>
      <trkpt lat="40.781100" lon="-4.405433">
        <ele>2328.0</ele>
        <time>2014-06-30T15:34:26Z</time>
      </trkpt>
      <trkpt lat="40.781200" lon="-4.405283">
        <ele>2325.0</ele>
        <time>2014-06-30T15:34:27Z</time>
      </trkpt>
      <trkpt lat="40.781283" lon="-4.405150">
        <ele>2323.0</ele>
        <time>2014-06-30T15:34:28Z</time>
      </trkpt>
      <trkpt lat="40.781383" lon="-4.405017">
        <ele>2321.0</ele>
        <time>2014-06-30T15:34:29Z</time>
      </trkpt>
      <trkpt lat="40.781467" lon="-4.404883">
        <ele>2319.0</ele>
        <time>2014-06-30T15:34:30Z</time>
      </trkpt>
      <trkpt lat="40.781550" lon="-4.404750">
        <ele>2317.0</ele>
        <time>2014-06-30T15:34:31Z</time>
      </trkpt>
      <trkpt lat="40.781617" lon="-4.404600">
        <ele>2315.0</ele>
        <time>2014-06-30T15:34:32Z</time>
      </trkpt>
      <trkpt lat="40.781700" lon="-4.404450">
        <ele>2313.0</ele>
        <time>2014-06-30T15:34:33Z</time>
      </trkpt>
      <trkpt lat="40.781783" lon="-4.404300">
        <ele>2310.0</ele>
        <time>2014-06-30T15:34:34Z</time>
      </trkpt>
      <trkpt lat="40.781850" lon="-4.404133">
        <ele>2307.0</ele>
        <time>2014-06-30T15:34:35Z</time>
      </trkpt>
      <trkpt lat="40.781917" lon="-4.404000">
        <ele>2305.0</ele>
        <time>2014-06-30T15:34:36Z</time>
      </trkpt>
      <trkpt lat="40.781983" lon="-4.403850">
        <ele>2303.0</ele>
        <time>2014-06-30T15:34:37Z</time>
      </trkpt>
      <trkpt lat="40.782050" lon="-4.403717">
        <ele>2300.0</ele>
        <time>2014-06-30T15:34:38Z</time>
      </trkpt>
      <trkpt lat="40.782133" lon="-4.403567">
        <ele>2297.0</ele>
        <time>2014-06-30T15:34:39Z</time>
      </trkpt>
      <trkpt lat="40.782200" lon="-4.403417">
        <ele>2294.0</ele>
        <time>2014-06-30T15:34:40Z</time>
      </trkpt>
      <trkpt lat="40.782267" lon="-4.403267">
        <ele>2291.0</ele>
        <time>2014-06-30T15:34:41Z</time>
      </trkpt>
      <trkpt lat="40.782333" lon="-4.403117">
        <ele>2288.0</ele>
        <time>2014-06-30T15:34:42Z</time>
      </trkpt>
      <trkpt lat="40.782417" lon="-4.402967">
        <ele>2285.0</ele>
        <time>2014-06-30T15:34:43Z</time>
      </trkpt>
      <trkpt lat="40.782483" lon="-4.402817">
        <ele>2283.0</ele>
        <time>2014-06-30T15:34:44Z</time>
      </trkpt>
      <trkpt lat="40.782567" lon="-4.402667">
        <ele>2280.0</ele>
        <time>2014-06-30T15:34:45Z</time>
      </trkpt>
      <trkpt lat="40.782633" lon="-4.402500">
        <ele>2278.0</ele>
        <time>2014-06-30T15:34:46Z</time>
      </trkpt>
      <trkpt lat="40.782717" lon="-4.402350">
        <ele>2277.0</ele>
        <time>2014-06-30T15:34:47Z</time>
      </trkpt>
      <trkpt lat="40.782783" lon="-4.402183">
        <ele>2276.0</ele>
        <time>2014-06-30T15:34:48Z</time>
      </trkpt>
      <trkpt lat="40.782850" lon="-4.402017">
        <ele>2276.0</ele>
        <time>2014-06-30T15:34:49Z</time>
      </trkpt>
      <trkpt lat="40.782917" lon="-4.401850">
        <ele>2276.0</ele>
        <time>2014-06-30T15:34:50Z</time>
      </trkpt>
      <trkpt lat="40.782983" lon="-4.401700">
        <ele>2277.0</ele>
        <time>2014-06-30T15:34:51Z</time>
      </trkpt>
      <trkpt lat="40.783050" lon="-4.401567">
        <ele>2278.0</ele>
        <time>2014-06-30T15:34:52Z</time>
      </trkpt>
      <trkpt lat="40.783117" lon="-4.401433">
        <ele>2278.0</ele>
        <time>2014-06-30T15:34:53Z</time>
      </trkpt>
      <trkpt lat="40.783167" lon="-4.401283">
        <ele>2277.0</ele>
        <time>2014-06-30T15:34:54Z</time>
      </trkpt>
      <trkpt lat="40.783217" lon="-4.401133">
        <ele>2277.0</ele>
        <time>2014-06-30T15:34:55Z</time>
      </trkpt>
      <trkpt lat="40.783267" lon="-4.400983">
        <ele>2276.0</ele>
        <time>2014-06-30T15:34:56Z</time>
      </trkpt>
      <trkpt lat="40.783317" lon="-4.400817">
        <ele>2275.0</ele>
        <time>2014-06-30T15:34:57Z</time>
      </trkpt>
      <trkpt lat="40.783350" lon="-4.400650">
        <ele>2275.0</ele>
        <time>2014-06-30T15:34:58Z</time>
      </trkpt>
      <trkpt lat="40.783400" lon="-4.400483">
        <ele>2274.0</ele>
        <time>2014-06-30T15:34:59Z</time>
      </trkpt>
      <trkpt lat="40.783450" lon="-4.400300">
        <ele>2274.0</ele>
        <time>2014-06-30T15:35:00Z</time>
      </trkpt>
      <trkpt lat="40.783500" lon="-4.400150">
        <ele>2273.0</ele>
        <time>2014-06-30T15:35:01Z</time>
      </trkpt>
      <trkpt lat="40.783550" lon="-4.400017">
        <ele>2274.0</ele>
        <time>2014-06-30T15:35:02Z</time>
      </trkpt>
      <trkpt lat="40.783617" lon="-4.399867">
        <ele>2273.0</ele>
        <time>2014-06-30T15:35:03Z</time>
      </trkpt>
      <trkpt lat="40.783667" lon="-4.399717">
        <ele>2273.0</ele>
        <time>2014-06-30T15:35:04Z</time>
      </trkpt>
      <trkpt lat="40.783733" lon="-4.399583">
        <ele>2272.0</ele>
        <time>2014-06-30T15:35:05Z</time>
      </trkpt>
      <trkpt lat="40.783800" lon="-4.399433">
        <ele>2270.0</ele>
        <time>2014-06-30T15:35:06Z</time>
      </trkpt>
      <trkpt lat="40.783883" lon="-4.399300">
        <ele>2269.0</ele>
        <time>2014-06-30T15:35:07Z</time>
      </trkpt>
      <trkpt lat="40.783967" lon="-4.399183">
        <ele>2268.0</ele>
        <time>2014-06-30T15:35:08Z</time>
      </trkpt>
      <trkpt lat="40.784033" lon="-4.399050">
        <ele>2268.0</ele>
        <time>2014-06-30T15:35:09Z</time>
      </trkpt>
      <trkpt lat="40.784100" lon="-4.398917">
        <ele>2268.0</ele>
        <time>2014-06-30T15:35:10Z</time>
      </trkpt>
      <trkpt lat="40.784150" lon="-4.398783">
        <ele>2267.0</ele>
        <time>2014-06-30T15:35:11Z</time>
      </trkpt>
      <trkpt lat="40.784217" lon="-4.398633">
        <ele>2267.0</ele>
        <time>2014-06-30T15:35:12Z</time>
      </trkpt>
      <trkpt lat="40.784283" lon="-4.398500">
        <ele>2266.0</ele>
        <time>2014-06-30T15:35:13Z</time>
      </trkpt>
      <trkpt lat="40.784350" lon="-4.398367">
        <ele>2265.0</ele>
        <time>2014-06-30T15:35:14Z</time>
      </trkpt>
      <trkpt lat="40.784400" lon="-4.398217">
        <ele>2265.0</ele>
        <time>2014-06-30T15:35:15Z</time>
      </trkpt>
      <trkpt lat="40.784467" lon="-4.398100">
        <ele>2265.0</ele>
        <time>2014-06-30T15:35:16Z</time>
      </trkpt>
      <trkpt lat="40.784517" lon="-4.397967">
        <ele>2264.0</ele>
        <time>2014-06-30T15:35:17Z</time>
      </trkpt>
      <trkpt lat="40.784583" lon="-4.397833">
        <ele>2263.0</ele>
        <time>2014-06-30T15:35:18Z</time>
      </trkpt>
      <trkpt lat="40.784650" lon="-4.397683">
        <ele>2262.0</ele>
        <time>2014-06-30T15:35:19Z</time>
      </trkpt>
      <trkpt lat="40.784717" lon="-4.397550">
        <ele>2260.0</ele>
        <time>2014-06-30T15:35:20Z</time>
      </trkpt>
      <trkpt lat="40.784767" lon="-4.397417">
        <ele>2259.0</ele>
        <time>2014-06-30T15:35:21Z</time>
      </trkpt>
      <trkpt lat="40.784817" lon="-4.397267">
        <ele>2258.0</ele>
        <time>2014-06-30T15:35:22Z</time>
      </trkpt>
      <trkpt lat="40.784867" lon="-4.397133">
        <ele>2256.0</ele>
        <time>2014-06-30T15:35:23Z</time>
      </trkpt>
      <trkpt lat="40.784900" lon="-4.396983">
        <ele>2255.0</ele>
        <time>2014-06-30T15:35:24Z</time>
      </trkpt>
      <trkpt lat="40.784950" lon="-4.396833">
        <ele>2252.0</ele>
        <time>2014-06-30T15:35:25Z</time>
      </trkpt>
      <trkpt lat="40.785000" lon="-4.396700">
        <ele>2250.0</ele>
        <time>2014-06-30T15:35:26Z</time>
      </trkpt>
      <trkpt lat="40.785050" lon="-4.396550">
        <ele>2248.0</ele>
        <time>2014-06-30T15:35:27Z</time>
      </trkpt>
      <trkpt lat="40.785083" lon="-4.396417">
        <ele>2246.0</ele>
        <time>2014-06-30T15:35:28Z</time>
      </trkpt>
      <trkpt lat="40.785133" lon="-4.396283">
        <ele>2245.0</ele>
        <time>2014-06-30T15:35:29Z</time>
      </trkpt>
      <trkpt lat="40.785167" lon="-4.396150">
        <ele>2244.0</ele>
        <time>2014-06-30T15:35:30Z</time>
      </trkpt>
      <trkpt lat="40.785200" lon="-4.396017">
        <ele>2242.0</ele>
        <time>2014-06-30T15:35:31Z</time>
      </trkpt>
      <trkpt lat="40.785233" lon="-4.395883">
        <ele>2241.0</ele>
        <time>2014-06-30T15:35:32Z</time>
      </trkpt>
      <trkpt lat="40.785250" lon="-4.395750">
        <ele>2240.0</ele>
        <time>2014-06-30T15:35:33Z</time>
      </trkpt>
      <trkpt lat="40.785267" lon="-4.395633">
        <ele>2239.0</ele>
        <time>2014-06-30T15:35:34Z</time>
      </trkpt>
      <trkpt lat="40.785300" lon="-4.395550">
        <ele>2238.0</ele>
        <time>2014-06-30T15:35:35Z</time>
      </trkpt>
      <trkpt lat="40.785333" lon="-4.395467">
        <ele>2237.0</ele>
        <time>2014-06-30T15:35:36Z</time>
      </trkpt>
      <trkpt lat="40.785367" lon="-4.395383">
        <ele>2235.0</ele>
        <time>2014-06-30T15:35:37Z</time>
      </trkpt>
      <trkpt lat="40.785400" lon="-4.395283">
        <ele>2233.0</ele>
        <time>2014-06-30T15:35:38Z</time>
      </trkpt>
      <trkpt lat="40.785433" lon="-4.395183">
        <ele>2232.0</ele>
        <time>2014-06-30T15:35:39Z</time>
      </trkpt>
      <trkpt lat="40.785467" lon="-4.395083">
        <ele>2229.0</ele>
        <time>2014-06-30T15:35:40Z</time>
      </trkpt>
      <trkpt lat="40.785517" lon="-4.394967">
        <ele>2227.0</ele>
        <time>2014-06-30T15:35:41Z</time>
      </trkpt>
      <trkpt lat="40.785550" lon="-4.394867">
        <ele>2226.0</ele>
        <time>2014-06-30T15:35:42Z</time>
      </trkpt>
      <trkpt lat="40.785583" lon="-4.394767">
        <ele>2225.0</ele>
        <time>2014-06-30T15:35:43Z</time>
      </trkpt>
      <trkpt lat="40.785617" lon="-4.394650">
        <ele>2224.0</ele>
        <time>2014-06-30T15:35:44Z</time>
      </trkpt>
      <trkpt lat="40.785650" lon="-4.394533">
        <ele>2222.0</ele>
        <time>2014-06-30T15:35:45Z</time>
      </trkpt>
      <trkpt lat="40.785717" lon="-4.394433">
        <ele>2221.0</ele>
        <time>2014-06-30T15:35:46Z</time>
      </trkpt>
      <trkpt lat="40.785767" lon="-4.394333">
        <ele>2219.0</ele>
        <time>2014-06-30T15:35:47Z</time>
      </trkpt>
      <trkpt lat="40.785833" lon="-4.394233">
        <ele>2217.0</ele>
        <time>2014-06-30T15:35:48Z</time>
      </trkpt>
      <trkpt lat="40.785900" lon="-4.394133">
        <ele>2215.0</ele>
        <time>2014-06-30T15:35:49Z</time>
      </trkpt>
      <trkpt lat="40.785950" lon="-4.394017">
        <ele>2213.0</ele>
        <time>2014-06-30T15:35:50Z</time>
      </trkpt>
      <trkpt lat="40.786017" lon="-4.393917">
        <ele>2210.0</ele>
        <time>2014-06-30T15:35:51Z</time>
      </trkpt>
      <trkpt lat="40.786083" lon="-4.393817">
        <ele>2208.0</ele>
        <time>2014-06-30T15:35:52Z</time>
      </trkpt>
      <trkpt lat="40.786150" lon="-4.393767">
        <ele>2205.0</ele>
        <time>2014-06-30T15:35:53Z</time>
      </trkpt>
      <trkpt lat="40.786217" lon="-4.393700">
        <ele>2203.0</ele>
        <time>2014-06-30T15:35:54Z</time>
      </trkpt>
      <trkpt lat="40.786267" lon="-4.393633">
        <ele>2201.0</ele>
        <time>2014-06-30T15:35:55Z</time>
      </trkpt>
      <trkpt lat="40.786317" lon="-4.393550">
        <ele>2199.0</ele>
        <time>2014-06-30T15:35:56Z</time>
      </trkpt>
      <trkpt lat="40.786367" lon="-4.393433">
        <ele>2196.0</ele>
        <time>2014-06-30T15:35:57Z</time>
      </trkpt>
      <trkpt lat="40.786417" lon="-4.393317">
        <ele>2194.0</ele>
        <time>2014-06-30T15:35:58Z</time>
      </trkpt>
      <trkpt lat="40.786450" lon="-4.393167">
        <ele>2191.0</ele>
        <time>2014-06-30T15:35:59Z</time>
      </trkpt>
      <trkpt lat="40.786483" lon="-4.393033">
        <ele>2188.0</ele>
        <time>2014-06-30T15:36:00Z</time>
      </trkpt>
      <trkpt lat="40.786517" lon="-4.392900">
        <ele>2185.0</ele>
        <time>2014-06-30T15:36:01Z</time>
      </trkpt>
      <trkpt lat="40.786550" lon="-4.392750">
        <ele>2182.0</ele>
        <time>2014-06-30T15:36:02Z</time>
      </trkpt>
      <trkpt lat="40.786567" lon="-4.392600">
        <ele>2179.0</ele>
        <time>2014-06-30T15:36:03Z</time>
      </trkpt>
      <trkpt lat="40.786600" lon="-4.392433">
        <ele>2175.0</ele>
        <time>2014-06-30T15:36:04Z</time>
      </trkpt>
      <trkpt lat="40.786617" lon="-4.392283">
        <ele>2172.0</ele>
        <time>2014-06-30T15:36:05Z</time>
      </trkpt>
      <trkpt lat="40.786650" lon="-4.392133">
        <ele>2168.0</ele>
        <time>2014-06-30T15:36:06Z</time>
      </trkpt>
      <trkpt lat="40.786683" lon="-4.391967">
        <ele>2164.0</ele>
        <time>2014-06-30T15:36:07Z</time>
      </trkpt>
      <trkpt lat="40.786733" lon="-4.391817">
        <ele>2160.0</ele>
        <time>2014-06-30T15:36:08Z</time>
      </trkpt>
      <trkpt lat="40.786767" lon="-4.391650">
        <ele>2157.0</ele>
        <time>2014-06-30T15:36:09Z</time>
      </trkpt>
      <trkpt lat="40.786817" lon="-4.391500">
        <ele>2153.0</ele>
        <time>2014-06-30T15:36:10Z</time>
      </trkpt>
      <trkpt lat="40.786867" lon="-4.391350">
        <ele>2150.0</ele>
        <time>2014-06-30T15:36:11Z</time>
      </trkpt>
      <trkpt lat="40.786917" lon="-4.391217">
        <ele>2147.0</ele>
        <time>2014-06-30T15:36:12Z</time>
      </trkpt>
      <trkpt lat="40.786950" lon="-4.391083">
        <ele>2145.0</ele>
        <time>2014-06-30T15:36:13Z</time>
      </trkpt>
      <trkpt lat="40.786983" lon="-4.390967">
        <ele>2143.0</ele>
        <time>2014-06-30T15:36:14Z</time>
      </trkpt>
      <trkpt lat="40.787017" lon="-4.390833">
        <ele>2140.0</ele>
        <time>2014-06-30T15:36:15Z</time>
      </trkpt>
      <trkpt lat="40.787067" lon="-4.390700">
        <ele>2137.0</ele>
        <time>2014-06-30T15:36:16Z</time>
      </trkpt>
      <trkpt lat="40.787100" lon="-4.390550">
        <ele>2132.0</ele>
        <time>2014-06-30T15:36:17Z</time>
      </trkpt>
      <trkpt lat="40.787133" lon="-4.390400">
        <ele>2128.0</ele>
        <time>2014-06-30T15:36:18Z</time>
      </trkpt>
      <trkpt lat="40.787167" lon="-4.390233">
        <ele>2125.0</ele>
        <time>2014-06-30T15:36:19Z</time>
      </trkpt>
      <trkpt lat="40.787200" lon="-4.390083">
        <ele>2122.0</ele>
        <time>2014-06-30T15:36:20Z</time>
      </trkpt>
      <trkpt lat="40.787233" lon="-4.389917">
        <ele>2119.0</ele>
        <time>2014-06-30T15:36:21Z</time>
      </trkpt>
      <trkpt lat="40.787267" lon="-4.389767">
        <ele>2116.0</ele>
        <time>2014-06-30T15:36:22Z</time>
      </trkpt>
      <trkpt lat="40.787300" lon="-4.389617">
        <ele>2113.0</ele>
        <time>2014-06-30T15:36:23Z</time>
      </trkpt>
      <trkpt lat="40.787333" lon="-4.389450">
        <ele>2110.0</ele>
        <time>2014-06-30T15:36:24Z</time>
      </trkpt>
      <trkpt lat="40.787367" lon="-4.389283">
        <ele>2108.0</ele>
        <time>2014-06-30T15:36:25Z</time>
      </trkpt>
      <trkpt lat="40.787400" lon="-4.389117">
        <ele>2105.0</ele>
        <time>2014-06-30T15:36:26Z</time>
      </trkpt>
      <trkpt lat="40.787433" lon="-4.388950">
        <ele>2104.0</ele>
        <time>2014-06-30T15:36:27Z</time>
      </trkpt>
      <trkpt lat="40.787467" lon="-4.388783">
        <ele>2103.0</ele>
        <time>2014-06-30T15:36:28Z</time>
      </trkpt>
      <trkpt lat="40.787483" lon="-4.388617">
        <ele>2101.0</ele>
        <time>2014-06-30T15:36:29Z</time>
      </trkpt>
      <trkpt lat="40.787500" lon="-4.388433">
        <ele>2098.0</ele>
        <time>2014-06-30T15:36:30Z</time>
      </trkpt>
      <trkpt lat="40.787533" lon="-4.388233">
        <ele>2095.0</ele>
        <time>2014-06-30T15:36:31Z</time>
      </trkpt>
      <trkpt lat="40.787567" lon="-4.388050">
        <ele>2092.0</ele>
        <time>2014-06-30T15:36:32Z</time>
      </trkpt>
      <trkpt lat="40.787617" lon="-4.387867">
        <ele>2090.0</ele>
        <time>2014-06-30T15:36:33Z</time>
      </trkpt>
      <trkpt lat="40.787650" lon="-4.387683">
        <ele>2087.0</ele>
        <time>2014-06-30T15:36:34Z</time>
      </trkpt>
      <trkpt lat="40.787667" lon="-4.387500">
        <ele>2087.0</ele>
        <time>2014-06-30T15:36:35Z</time>
      </trkpt>
      <trkpt lat="40.787683" lon="-4.387317">
        <ele>2088.0</ele>
        <time>2014-06-30T15:36:36Z</time>
      </trkpt>
      <trkpt lat="40.787700" lon="-4.387150">
        <ele>2088.0</ele>
        <time>2014-06-30T15:36:37Z</time>
      </trkpt>
      <trkpt lat="40.787717" lon="-4.386967">
        <ele>2089.0</ele>
        <time>2014-06-30T15:36:38Z</time>
      </trkpt>
      <trkpt lat="40.787733" lon="-4.386800">
        <ele>2090.0</ele>
        <time>2014-06-30T15:36:39Z</time>
      </trkpt>
      <trkpt lat="40.787767" lon="-4.386617">
        <ele>2091.0</ele>
        <time>2014-06-30T15:36:40Z</time>
      </trkpt>
      <trkpt lat="40.787783" lon="-4.386433">
        <ele>2092.0</ele>
        <time>2014-06-30T15:36:41Z</time>
      </trkpt>
      <trkpt lat="40.787800" lon="-4.386233">
        <ele>2093.0</ele>
        <time>2014-06-30T15:36:42Z</time>
      </trkpt>
      <trkpt lat="40.787817" lon="-4.386050">
        <ele>2094.0</ele>
        <time>2014-06-30T15:36:43Z</time>
      </trkpt>
      <trkpt lat="40.787850" lon="-4.385883">
        <ele>2097.0</ele>
        <time>2014-06-30T15:36:44Z</time>
      </trkpt>
      <trkpt lat="40.787867" lon="-4.385717">
        <ele>2099.0</ele>
        <time>2014-06-30T15:36:45Z</time>
      </trkpt>
      <trkpt lat="40.787900" lon="-4.385583">
        <ele>2099.0</ele>
        <time>2014-06-30T15:36:46Z</time>
      </trkpt>
      <trkpt lat="40.787933" lon="-4.385433">
        <ele>2100.0</ele>
        <time>2014-06-30T15:36:47Z</time>
      </trkpt>
      <trkpt lat="40.787967" lon="-4.385267">
        <ele>2100.0</ele>
        <time>2014-06-30T15:36:48Z</time>
      </trkpt>
      <trkpt lat="40.788000" lon="-4.385100">
        <ele>2101.0</ele>
        <time>2014-06-30T15:36:49Z</time>
      </trkpt>
      <trkpt lat="40.788000" lon="-4.384933">
        <ele>2103.0</ele>
        <time>2014-06-30T15:36:50Z</time>
      </trkpt>
      <trkpt lat="40.787967" lon="-4.384767">
        <ele>2104.0</ele>
        <time>2014-06-30T15:36:51Z</time>
      </trkpt>
      <trkpt lat="40.787917" lon="-4.384600">
        <ele>2105.0</ele>
        <time>2014-06-30T15:36:52Z</time>
      </trkpt>
      <trkpt lat="40.787867" lon="-4.384450">
        <ele>2107.0</ele>
        <time>2014-06-30T15:36:53Z</time>
      </trkpt>
      <trkpt lat="40.787833" lon="-4.384283">
        <ele>2109.0</ele>
        <time>2014-06-30T15:36:54Z</time>
      </trkpt>
      <trkpt lat="40.787800" lon="-4.384133">
        <ele>2110.0</ele>
        <time>2014-06-30T15:36:55Z</time>
      </trkpt>
      <trkpt lat="40.787783" lon="-4.383983">
        <ele>2111.0</ele>
        <time>2014-06-30T15:36:56Z</time>
      </trkpt>
      <trkpt lat="40.787767" lon="-4.383817">
        <ele>2113.0</ele>
        <time>2014-06-30T15:36:57Z</time>
      </trkpt>
      <trkpt lat="40.787733" lon="-4.383633">
        <ele>2114.0</ele>
        <time>2014-06-30T15:36:58Z</time>
      </trkpt>
      <trkpt lat="40.787667" lon="-4.383467">
        <ele>2116.0</ele>
        <time>2014-06-30T15:36:59Z</time>
      </trkpt>
      <trkpt lat="40.787583" lon="-4.383333">
        <ele>2118.0</ele>
        <time>2014-06-30T15:37:00Z</time>
      </trkpt>
      <trkpt lat="40.787483" lon="-4.383217">
        <ele>2122.0</ele>
        <time>2014-06-30T15:37:01Z</time>
      </trkpt>
      <trkpt lat="40.787383" lon="-4.383117">
        <ele>2126.0</ele>
        <time>2014-06-30T15:37:02Z</time>
      </trkpt>
      <trkpt lat="40.787283" lon="-4.383050">
        <ele>2129.0</ele>
        <time>2014-06-30T15:37:03Z</time>
      </trkpt>
      <trkpt lat="40.787167" lon="-4.382983">
        <ele>2131.0</ele>
        <time>2014-06-30T15:37:04Z</time>
      </trkpt>
      <trkpt lat="40.787067" lon="-4.382917">
        <ele>2133.0</ele>
        <time>2014-06-30T15:37:05Z</time>
      </trkpt>
      <trkpt lat="40.786950" lon="-4.382883">
        <ele>2134.0</ele>
        <time>2014-06-30T15:37:06Z</time>
      </trkpt>
      <trkpt lat="40.786850" lon="-4.382867">
        <ele>2134.0</ele>
        <time>2014-06-30T15:37:07Z</time>
      </trkpt>
      <trkpt lat="40.786767" lon="-4.382883">
        <ele>2132.0</ele>
        <time>2014-06-30T15:37:08Z</time>
      </trkpt>
      <trkpt lat="40.786700" lon="-4.382933">
        <ele>2132.0</ele>
        <time>2014-06-30T15:37:09Z</time>
      </trkpt>
      <trkpt lat="40.786650" lon="-4.382983">
        <ele>2131.0</ele>
        <time>2014-06-30T15:37:10Z</time>
      </trkpt>
      <trkpt lat="40.786600" lon="-4.383050">
        <ele>2130.0</ele>
        <time>2014-06-30T15:37:11Z</time>
      </trkpt>
      <trkpt lat="40.786567" lon="-4.383117">
        <ele>2130.0</ele>
        <time>2014-06-30T15:37:12Z</time>
      </trkpt>
      <trkpt lat="40.786550" lon="-4.383183">
        <ele>2130.0</ele>
        <time>2014-06-30T15:37:13Z</time>
      </trkpt>
      <trkpt lat="40.786533" lon="-4.383250">
        <ele>2129.0</ele>
        <time>2014-06-30T15:37:14Z</time>
      </trkpt>
      <trkpt lat="40.786517" lon="-4.383317">
        <ele>2128.0</ele>
        <time>2014-06-30T15:37:15Z</time>
      </trkpt>
      <trkpt lat="40.786533" lon="-4.383367">
        <ele>2129.0</ele>
        <time>2014-06-30T15:37:16Z</time>
      </trkpt>
      <trkpt lat="40.786550" lon="-4.383400">
        <ele>2129.0</ele>
        <time>2014-06-30T15:37:17Z</time>
      </trkpt>
      <trkpt lat="40.786583" lon="-4.383400">
        <ele>2130.0</ele>
        <time>2014-06-30T15:37:18Z</time>
      </trkpt>
      <trkpt lat="40.786617" lon="-4.383417">
        <ele>2131.0</ele>
        <time>2014-06-30T15:37:19Z</time>
      </trkpt>
      <trkpt lat="40.786633" lon="-4.383450">
        <ele>2131.0</ele>
        <time>2014-06-30T15:37:20Z</time>
      </trkpt>
      <trkpt lat="40.786667" lon="-4.383483">
        <ele>2131.0</ele>
        <time>2014-06-30T15:37:21Z</time>
      </trkpt>
      <trkpt lat="40.786700" lon="-4.383500">
        <ele>2132.0</ele>
        <time>2014-06-30T15:37:22Z</time>
      </trkpt>
      <trkpt lat="40.786733" lon="-4.383467">
        <ele>2131.0</ele>
        <time>2014-06-30T15:37:23Z</time>
      </trkpt>
      <trkpt lat="40.786800" lon="-4.383450">
        <ele>2131.0</ele>
        <time>2014-06-30T15:37:24Z</time>
      </trkpt>
      <trkpt lat="40.786867" lon="-4.383417">
        <ele>2130.0</ele>
        <time>2014-06-30T15:37:25Z</time>
      </trkpt>
      <trkpt lat="40.786950" lon="-4.383417">
        <ele>2130.0</ele>
        <time>2014-06-30T15:37:26Z</time>
      </trkpt>
      <trkpt lat="40.787017" lon="-4.383417">
        <ele>2129.0</ele>
        <time>2014-06-30T15:37:27Z</time>
      </trkpt>
      <trkpt lat="40.787083" lon="-4.383433">
        <ele>2129.0</ele>
        <time>2014-06-30T15:37:28Z</time>
      </trkpt>
      <trkpt lat="40.787150" lon="-4.383433">
        <ele>2131.0</ele>
        <time>2014-06-30T15:37:29Z</time>
      </trkpt>
      <trkpt lat="40.787200" lon="-4.383417">
        <ele>2132.0</ele>
        <time>2014-06-30T15:37:30Z</time>
      </trkpt>
      <trkpt lat="40.787250" lon="-4.383383">
        <ele>2132.0</ele>
        <time>2014-06-30T15:37:31Z</time>
      </trkpt>
      <trkpt lat="40.787300" lon="-4.383317">
        <ele>2133.0</ele>
        <time>2014-06-30T15:37:32Z</time>
      </trkpt>
      <trkpt lat="40.787333" lon="-4.383233">
        <ele>2132.0</ele>
        <time>2014-06-30T15:37:33Z</time>
      </trkpt>
      <trkpt lat="40.787400" lon="-4.383167">
        <ele>2132.0</ele>
        <time>2014-06-30T15:37:34Z</time>
      </trkpt>
      <trkpt lat="40.787483" lon="-4.383083">
        <ele>2130.0</ele>
        <time>2014-06-30T15:37:35Z</time>
      </trkpt>
      <trkpt lat="40.787567" lon="-4.383000">
        <ele>2130.0</ele>
        <time>2014-06-30T15:37:36Z</time>
      </trkpt>
      <trkpt lat="40.787633" lon="-4.382900">
        <ele>2130.0</ele>
        <time>2014-06-30T15:37:37Z</time>
      </trkpt>
      <trkpt lat="40.787683" lon="-4.382800">
        <ele>2132.0</ele>
        <time>2014-06-30T15:37:38Z</time>
      </trkpt>
      <trkpt lat="40.787717" lon="-4.382700">
        <ele>2133.0</ele>
        <time>2014-06-30T15:37:39Z</time>
      </trkpt>
      <trkpt lat="40.787767" lon="-4.382583">
        <ele>2135.0</ele>
        <time>2014-06-30T15:37:40Z</time>
      </trkpt>
      <trkpt lat="40.787817" lon="-4.382467">
        <ele>2137.0</ele>
        <time>2014-06-30T15:37:41Z</time>
      </trkpt>
      <trkpt lat="40.787867" lon="-4.382367">
        <ele>2139.0</ele>
        <time>2014-06-30T15:37:42Z</time>
      </trkpt>
      <trkpt lat="40.787900" lon="-4.382283">
        <ele>2143.0</ele>
        <time>2014-06-30T15:37:43Z</time>
      </trkpt>
      <trkpt lat="40.787933" lon="-4.382183">
        <ele>2146.0</ele>
        <time>2014-06-30T15:37:44Z</time>
      </trkpt>
      <trkpt lat="40.787967" lon="-4.382083">
        <ele>2148.0</ele>
        <time>2014-06-30T15:37:45Z</time>
      </trkpt>
      <trkpt lat="40.788000" lon="-4.381983">
        <ele>2150.0</ele>
        <time>2014-06-30T15:37:46Z</time>
      </trkpt>
      <trkpt lat="40.788050" lon="-4.381900">
        <ele>2152.0</ele>
        <time>2014-06-30T15:37:47Z</time>
      </trkpt>
      <trkpt lat="40.788100" lon="-4.381817">
        <ele>2153.0</ele>
        <time>2014-06-30T15:37:48Z</time>
      </trkpt>
      <trkpt lat="40.788150" lon="-4.381733">
        <ele>2155.0</ele>
        <time>2014-06-30T15:37:49Z</time>
      </trkpt>
      <trkpt lat="40.788183" lon="-4.381617">
        <ele>2157.0</ele>
        <time>2014-06-30T15:37:50Z</time>
      </trkpt>
      <trkpt lat="40.788200" lon="-4.381500">
        <ele>2159.0</ele>
        <time>2014-06-30T15:37:51Z</time>
      </trkpt>
      <trkpt lat="40.788217" lon="-4.381367">
        <ele>2161.0</ele>
        <time>2014-06-30T15:37:52Z</time>
      </trkpt>
      <trkpt lat="40.788217" lon="-4.381200">
        <ele>2164.0</ele>
        <time>2014-06-30T15:37:53Z</time>
      </trkpt>
      <trkpt lat="40.788200" lon="-4.381050">
        <ele>2166.0</ele>
        <time>2014-06-30T15:37:54Z</time>
      </trkpt>
      <trkpt lat="40.788150" lon="-4.380900">
        <ele>2169.0</ele>
        <time>2014-06-30T15:37:55Z</time>
      </trkpt>
      <trkpt lat="40.788067" lon="-4.380767">
        <ele>2172.0</ele>
        <time>2014-06-30T15:37:56Z</time>
      </trkpt>
      <trkpt lat="40.787983" lon="-4.380650">
        <ele>2174.0</ele>
        <time>2014-06-30T15:37:57Z</time>
      </trkpt>
      <trkpt lat="40.787867" lon="-4.380550">
        <ele>2176.0</ele>
        <time>2014-06-30T15:37:58Z</time>
      </trkpt>
      <trkpt lat="40.787733" lon="-4.380500">
        <ele>2180.0</ele>
        <time>2014-06-30T15:37:59Z</time>
      </trkpt>
      <trkpt lat="40.787633" lon="-4.380500">
        <ele>2183.0</ele>
        <time>2014-06-30T15:38:00Z</time>
      </trkpt>
      <trkpt lat="40.787533" lon="-4.380533">
        <ele>2185.0</ele>
        <time>2014-06-30T15:38:01Z</time>
      </trkpt>
      <trkpt lat="40.787483" lon="-4.380600">
        <ele>2188.0</ele>
        <time>2014-06-30T15:38:02Z</time>
      </trkpt>
      <trkpt lat="40.787433" lon="-4.380667">
        <ele>2189.0</ele>
        <time>2014-06-30T15:38:03Z</time>
      </trkpt>
      <trkpt lat="40.787417" lon="-4.380733">
        <ele>2192.0</ele>
        <time>2014-06-30T15:38:04Z</time>
      </trkpt>
      <trkpt lat="40.787383" lon="-4.380817">
        <ele>2194.0</ele>
        <time>2014-06-30T15:38:05Z</time>
      </trkpt>
      <trkpt lat="40.787383" lon="-4.380867">
        <ele>2196.0</ele>
        <time>2014-06-30T15:38:06Z</time>
      </trkpt>
      <trkpt lat="40.787383" lon="-4.380950">
        <ele>2197.0</ele>
        <time>2014-06-30T15:38:07Z</time>
      </trkpt>
      <trkpt lat="40.787400" lon="-4.381017">
        <ele>2199.0</ele>
        <time>2014-06-30T15:38:08Z</time>
      </trkpt>
      <trkpt lat="40.787433" lon="-4.381083">
        <ele>2200.0</ele>
        <time>2014-06-30T15:38:09Z</time>
      </trkpt>
      <trkpt lat="40.787483" lon="-4.381117">
        <ele>2201.0</ele>
        <time>2014-06-30T15:38:10Z</time>
      </trkpt>
      <trkpt lat="40.787533" lon="-4.381133">
        <ele>2202.0</ele>
        <time>2014-06-30T15:38:11Z</time>
      </trkpt>
      <trkpt lat="40.787600" lon="-4.381133">
        <ele>2202.0</ele>
        <time>2014-06-30T15:38:12Z</time>
      </trkpt>
      <trkpt lat="40.787650" lon="-4.381150">
        <ele>2204.0</ele>
        <time>2014-06-30T15:38:13Z</time>
      </trkpt>
      <trkpt lat="40.787717" lon="-4.381167">
        <ele>2205.0</ele>
        <time>2014-06-30T15:38:14Z</time>
      </trkpt>
      <trkpt lat="40.787783" lon="-4.381167">
        <ele>2207.0</ele>
        <time>2014-06-30T15:38:15Z</time>
      </trkpt>
      <trkpt lat="40.787833" lon="-4.381150">
        <ele>2209.0</ele>
        <time>2014-06-30T15:38:16Z</time>
      </trkpt>
      <trkpt lat="40.787900" lon="-4.381133">
        <ele>2210.0</ele>
        <time>2014-06-30T15:38:17Z</time>
      </trkpt>
      <trkpt lat="40.787967" lon="-4.381083">
        <ele>2212.0</ele>
        <time>2014-06-30T15:38:18Z</time>
      </trkpt>
      <trkpt lat="40.788033" lon="-4.381033">
        <ele>2214.0</ele>
        <time>2014-06-30T15:38:19Z</time>
      </trkpt>
      <trkpt lat="40.788117" lon="-4.380967">
        <ele>2215.0</ele>
        <time>2014-06-30T15:38:20Z</time>
      </trkpt>
      <trkpt lat="40.788183" lon="-4.380883">
        <ele>2217.0</ele>
        <time>2014-06-30T15:38:21Z</time>
      </trkpt>
      <trkpt lat="40.788233" lon="-4.380800">
        <ele>2219.0</ele>
        <time>2014-06-30T15:38:22Z</time>
      </trkpt>
      <trkpt lat="40.788283" lon="-4.380683">
        <ele>2221.0</ele>
        <time>2014-06-30T15:38:23Z</time>
      </trkpt>
      <trkpt lat="40.788317" lon="-4.380550">
        <ele>2223.0</ele>
        <time>2014-06-30T15:38:24Z</time>
      </trkpt>
      <trkpt lat="40.788317" lon="-4.380433">
        <ele>2226.0</ele>
        <time>2014-06-30T15:38:25Z</time>
      </trkpt>
      <trkpt lat="40.788300" lon="-4.380300">
        <ele>2228.0</ele>
        <time>2014-06-30T15:38:26Z</time>
      </trkpt>
      <trkpt lat="40.788267" lon="-4.380167">
        <ele>2231.0</ele>
        <time>2014-06-30T15:38:27Z</time>
      </trkpt>
      <trkpt lat="40.788217" lon="-4.380033">
        <ele>2233.0</ele>
        <time>2014-06-30T15:38:28Z</time>
      </trkpt>
      <trkpt lat="40.788150" lon="-4.379900">
        <ele>2236.0</ele>
        <time>2014-06-30T15:38:29Z</time>
      </trkpt>
      <trkpt lat="40.788067" lon="-4.379783">
        <ele>2238.0</ele>
        <time>2014-06-30T15:38:30Z</time>
      </trkpt>
      <trkpt lat="40.787967" lon="-4.379667">
        <ele>2240.0</ele>
        <time>2014-06-30T15:38:31Z</time>
      </trkpt>
      <trkpt lat="40.787867" lon="-4.379583">
        <ele>2243.0</ele>
        <time>2014-06-30T15:38:32Z</time>
      </trkpt>
      <trkpt lat="40.787750" lon="-4.379517">
        <ele>2246.0</ele>
        <time>2014-06-30T15:38:33Z</time>
      </trkpt>
      <trkpt lat="40.787650" lon="-4.379467">
        <ele>2248.0</ele>
        <time>2014-06-30T15:38:34Z</time>
      </trkpt>
      <trkpt lat="40.787550" lon="-4.379433">
        <ele>2251.0</ele>
        <time>2014-06-30T15:38:35Z</time>
      </trkpt>
      <trkpt lat="40.787433" lon="-4.379417">
        <ele>2254.0</ele>
        <time>2014-06-30T15:38:36Z</time>
      </trkpt>
      <trkpt lat="40.787333" lon="-4.379417">
        <ele>2255.0</ele>
        <time>2014-06-30T15:38:37Z</time>
      </trkpt>
      <trkpt lat="40.787233" lon="-4.379417">
        <ele>2257.0</ele>
        <time>2014-06-30T15:38:38Z</time>
      </trkpt>
      <trkpt lat="40.787133" lon="-4.379433">
        <ele>2260.0</ele>
        <time>2014-06-30T15:38:39Z</time>
      </trkpt>
      <trkpt lat="40.787067" lon="-4.379467">
        <ele>2263.0</ele>
        <time>2014-06-30T15:38:40Z</time>
      </trkpt>
      <trkpt lat="40.787000" lon="-4.379500">
        <ele>2265.0</ele>
        <time>2014-06-30T15:38:41Z</time>
      </trkpt>
      <trkpt lat="40.786967" lon="-4.379567">
        <ele>2267.0</ele>
        <time>2014-06-30T15:38:42Z</time>
      </trkpt>
      <trkpt lat="40.786950" lon="-4.379633">
        <ele>2269.0</ele>
        <time>2014-06-30T15:38:43Z</time>
      </trkpt>
      <trkpt lat="40.786950" lon="-4.379717">
        <ele>2269.0</ele>
        <time>2014-06-30T15:38:44Z</time>
      </trkpt>
      <trkpt lat="40.786950" lon="-4.379783">
        <ele>2268.0</ele>
        <time>2014-06-30T15:38:45Z</time>
      </trkpt>
      <trkpt lat="40.786983" lon="-4.379867">
        <ele>2269.0</ele>
        <time>2014-06-30T15:38:46Z</time>
      </trkpt>
      <trkpt lat="40.787017" lon="-4.379917">
        <ele>2270.0</ele>
        <time>2014-06-30T15:38:47Z</time>
      </trkpt>
      <trkpt lat="40.787067" lon="-4.379967">
        <ele>2271.0</ele>
        <time>2014-06-30T15:38:48Z</time>
      </trkpt>
      <trkpt lat="40.787117" lon="-4.380000">
        <ele>2272.0</ele>
        <time>2014-06-30T15:38:49Z</time>
      </trkpt>
      <trkpt lat="40.787183" lon="-4.379983">
        <ele>2273.0</ele>
        <time>2014-06-30T15:38:50Z</time>
      </trkpt>
      <trkpt lat="40.787267" lon="-4.379967">
        <ele>2273.0</ele>
        <time>2014-06-30T15:38:51Z</time>
      </trkpt>
      <trkpt lat="40.787350" lon="-4.379933">
        <ele>2275.0</ele>
        <time>2014-06-30T15:38:52Z</time>
      </trkpt>
      <trkpt lat="40.787433" lon="-4.379900">
        <ele>2275.0</ele>
        <time>2014-06-30T15:38:53Z</time>
      </trkpt>
      <trkpt lat="40.787500" lon="-4.379833">
        <ele>2278.0</ele>
        <time>2014-06-30T15:38:54Z</time>
      </trkpt>
      <trkpt lat="40.787567" lon="-4.379750">
        <ele>2279.0</ele>
        <time>2014-06-30T15:38:55Z</time>
      </trkpt>
      <trkpt lat="40.787617" lon="-4.379667">
        <ele>2281.0</ele>
        <time>2014-06-30T15:38:56Z</time>
      </trkpt>
      <trkpt lat="40.787683" lon="-4.379583">
        <ele>2283.0</ele>
        <time>2014-06-30T15:38:57Z</time>
      </trkpt>
      <trkpt lat="40.787733" lon="-4.379500">
        <ele>2284.0</ele>
        <time>2014-06-30T15:38:58Z</time>
      </trkpt>
      <trkpt lat="40.787800" lon="-4.379417">
        <ele>2286.0</ele>
        <time>2014-06-30T15:38:59Z</time>
      </trkpt>
      <trkpt lat="40.787867" lon="-4.379350">
        <ele>2288.0</ele>
        <time>2014-06-30T15:39:00Z</time>
      </trkpt>
      <trkpt lat="40.787917" lon="-4.379267">
        <ele>2290.0</ele>
        <time>2014-06-30T15:39:01Z</time>
      </trkpt>
      <trkpt lat="40.787983" lon="-4.379200">
        <ele>2293.0</ele>
        <time>2014-06-30T15:39:02Z</time>
      </trkpt>
      <trkpt lat="40.788033" lon="-4.379117">
        <ele>2295.0</ele>
        <time>2014-06-30T15:39:03Z</time>
      </trkpt>
      <trkpt lat="40.788083" lon="-4.379033">
        <ele>2298.0</ele>
        <time>2014-06-30T15:39:04Z</time>
      </trkpt>
      <trkpt lat="40.788133" lon="-4.378967">
        <ele>2301.0</ele>
        <time>2014-06-30T15:39:05Z</time>
      </trkpt>
      <trkpt lat="40.788183" lon="-4.378883">
        <ele>2303.0</ele>
        <time>2014-06-30T15:39:06Z</time>
      </trkpt>
      <trkpt lat="40.788217" lon="-4.378800">
        <ele>2306.0</ele>
        <time>2014-06-30T15:39:07Z</time>
      </trkpt>
      <trkpt lat="40.788250" lon="-4.378700">
        <ele>2308.0</ele>
        <time>2014-06-30T15:39:08Z</time>
      </trkpt>
      <trkpt lat="40.788267" lon="-4.378583">
        <ele>2310.0</ele>
        <time>2014-06-30T15:39:09Z</time>
      </trkpt>
      <trkpt lat="40.788283" lon="-4.378450">
        <ele>2313.0</ele>
        <time>2014-06-30T15:39:10Z</time>
      </trkpt>
      <trkpt lat="40.788283" lon="-4.378317">
        <ele>2315.0</ele>
        <time>2014-06-30T15:39:11Z</time>
      </trkpt>
      <trkpt lat="40.788300" lon="-4.378200">
        <ele>2318.0</ele>
        <time>2014-06-30T15:39:12Z</time>
      </trkpt>
      <trkpt lat="40.788300" lon="-4.378083">
        <ele>2320.0</ele>
        <time>2014-06-30T15:39:13Z</time>
      </trkpt>
      <trkpt lat="40.788300" lon="-4.377967">
        <ele>2323.0</ele>
        <time>2014-06-30T15:39:14Z</time>
      </trkpt>
      <trkpt lat="40.788300" lon="-4.377833">
        <ele>2324.0</ele>
        <time>2014-06-30T15:39:15Z</time>
      </trkpt>
      <trkpt lat="40.788267" lon="-4.377683">
        <ele>2325.0</ele>
        <time>2014-06-30T15:39:16Z</time>
      </trkpt>
      <trkpt lat="40.788217" lon="-4.377550">
        <ele>2327.0</ele>
        <time>2014-06-30T15:39:17Z</time>
      </trkpt>
      <trkpt lat="40.788150" lon="-4.377433">
        <ele>2329.0</ele>
        <time>2014-06-30T15:39:18Z</time>
      </trkpt>
      <trkpt lat="40.788067" lon="-4.377350">
        <ele>2331.0</ele>
        <time>2014-06-30T15:39:19Z</time>
      </trkpt>
      <trkpt lat="40.787983" lon="-4.377283">
        <ele>2333.0</ele>
        <time>2014-06-30T15:39:20Z</time>
      </trkpt>
      <trkpt lat="40.787883" lon="-4.377250">
        <ele>2334.0</ele>
        <time>2014-06-30T15:39:21Z</time>
      </trkpt>
      <trkpt lat="40.787783" lon="-4.377233">
        <ele>2335.0</ele>
        <time>2014-06-30T15:39:22Z</time>
      </trkpt>
      <trkpt lat="40.787683" lon="-4.377250">
        <ele>2336.0</ele>
        <time>2014-06-30T15:39:23Z</time>
      </trkpt>
      <trkpt lat="40.787583" lon="-4.377283">
        <ele>2338.0</ele>
        <time>2014-06-30T15:39:24Z</time>
      </trkpt>
      <trkpt lat="40.787517" lon="-4.377333">
        <ele>2339.0</ele>
        <time>2014-06-30T15:39:25Z</time>
      </trkpt>
      <trkpt lat="40.787450" lon="-4.377400">
        <ele>2340.0</ele>
        <time>2014-06-30T15:39:26Z</time>
      </trkpt>
      <trkpt lat="40.787400" lon="-4.377467">
        <ele>2341.0</ele>
        <time>2014-06-30T15:39:27Z</time>
      </trkpt>
      <trkpt lat="40.787350" lon="-4.377550">
        <ele>2343.0</ele>
        <time>2014-06-30T15:39:28Z</time>
      </trkpt>
      <trkpt lat="40.787333" lon="-4.377650">
        <ele>2344.0</ele>
        <time>2014-06-30T15:39:29Z</time>
      </trkpt>
      <trkpt lat="40.787333" lon="-4.377750">
        <ele>2345.0</ele>
        <time>2014-06-30T15:39:30Z</time>
      </trkpt>
      <trkpt lat="40.787350" lon="-4.377833">
        <ele>2345.0</ele>
        <time>2014-06-30T15:39:31Z</time>
      </trkpt>
      <trkpt lat="40.787367" lon="-4.377900">
        <ele>2346.0</ele>
        <time>2014-06-30T15:39:32Z</time>
      </trkpt>
      <trkpt lat="40.787417" lon="-4.377967">
        <ele>2347.0</ele>
        <time>2014-06-30T15:39:33Z</time>
      </trkpt>
      <trkpt lat="40.787467" lon="-4.378033">
        <ele>2347.0</ele>
        <time>2014-06-30T15:39:34Z</time>
      </trkpt>
      <trkpt lat="40.787517" lon="-4.378083">
        <ele>2348.0</ele>
        <time>2014-06-30T15:39:35Z</time>
      </trkpt>
      <trkpt lat="40.787583" lon="-4.378117">
        <ele>2349.0</ele>
        <time>2014-06-30T15:39:36Z</time>
      </trkpt>
      <trkpt lat="40.787650" lon="-4.378150">
        <ele>2351.0</ele>
        <time>2014-06-30T15:39:37Z</time>
      </trkpt>
      <trkpt lat="40.787733" lon="-4.378150">
        <ele>2353.0</ele>
        <time>2014-06-30T15:39:38Z</time>
      </trkpt>
      <trkpt lat="40.787817" lon="-4.378150">
        <ele>2354.0</ele>
        <time>2014-06-30T15:39:39Z</time>
      </trkpt>
      <trkpt lat="40.787883" lon="-4.378133">
        <ele>2356.0</ele>
        <time>2014-06-30T15:39:40Z</time>
      </trkpt>
      <trkpt lat="40.787967" lon="-4.378100">
        <ele>2359.0</ele>
        <time>2014-06-30T15:39:41Z</time>
      </trkpt>
      <trkpt lat="40.788033" lon="-4.378050">
        <ele>2361.0</ele>
        <time>2014-06-30T15:39:42Z</time>
      </trkpt>
      <trkpt lat="40.788100" lon="-4.378000">
        <ele>2363.0</ele>
        <time>2014-06-30T15:39:43Z</time>
      </trkpt>
      <trkpt lat="40.788167" lon="-4.377917">
        <ele>2366.0</ele>
        <time>2014-06-30T15:39:44Z</time>
      </trkpt>
      <trkpt lat="40.788233" lon="-4.377833">
        <ele>2368.0</ele>
        <time>2014-06-30T15:39:45Z</time>
      </trkpt>
      <trkpt lat="40.788300" lon="-4.377733">
        <ele>2370.0</ele>
        <time>2014-06-30T15:39:46Z</time>
      </trkpt>
      <trkpt lat="40.788367" lon="-4.377633">
        <ele>2373.0</ele>
        <time>2014-06-30T15:39:47Z</time>
      </trkpt>
      <trkpt lat="40.788400" lon="-4.377533">
        <ele>2376.0</ele>
        <time>2014-06-30T15:39:48Z</time>
      </trkpt>
      <trkpt lat="40.788433" lon="-4.377417">
        <ele>2379.0</ele>
        <time>2014-06-30T15:39:49Z</time>
      </trkpt>
      <trkpt lat="40.788467" lon="-4.377300">
        <ele>2381.0</ele>
        <time>2014-06-30T15:39:50Z</time>
      </trkpt>
      <trkpt lat="40.788483" lon="-4.377167">
        <ele>2383.0</ele>
        <time>2014-06-30T15:39:51Z</time>
      </trkpt>
      <trkpt lat="40.788467" lon="-4.377017">
        <ele>2385.0</ele>
        <time>2014-06-30T15:39:52Z</time>
      </trkpt>
      <trkpt lat="40.788433" lon="-4.376900">
        <ele>2386.0</ele>
        <time>2014-06-30T15:39:53Z</time>
      </trkpt>
      <trkpt lat="40.788383" lon="-4.376783">
        <ele>2387.0</ele>
        <time>2014-06-30T15:39:54Z</time>
      </trkpt>
      <trkpt lat="40.788317" lon="-4.376667">
        <ele>2387.0</ele>
        <time>2014-06-30T15:39:55Z</time>
      </trkpt>
      <trkpt lat="40.788233" lon="-4.376567">
        <ele>2386.0</ele>
        <time>2014-06-30T15:39:56Z</time>
      </trkpt>
      <trkpt lat="40.788133" lon="-4.376500">
        <ele>2387.0</ele>
        <time>2014-06-30T15:39:57Z</time>
      </trkpt>
      <trkpt lat="40.788033" lon="-4.376467">
        <ele>2389.0</ele>
        <time>2014-06-30T15:39:58Z</time>
      </trkpt>
      <trkpt lat="40.787950" lon="-4.376467">
        <ele>2390.0</ele>
        <time>2014-06-30T15:39:59Z</time>
      </trkpt>
      <trkpt lat="40.787850" lon="-4.376467">
        <ele>2391.0</ele>
        <time>2014-06-30T15:40:00Z</time>
      </trkpt>
      <trkpt lat="40.787750" lon="-4.376483">
        <ele>2391.0</ele>
        <time>2014-06-30T15:40:01Z</time>
      </trkpt>
      <trkpt lat="40.787633" lon="-4.376500">
        <ele>2392.0</ele>
        <time>2014-06-30T15:40:02Z</time>
      </trkpt>
      <trkpt lat="40.787533" lon="-4.376550">
        <ele>2393.0</ele>
        <time>2014-06-30T15:40:03Z</time>
      </trkpt>
      <trkpt lat="40.787450" lon="-4.376600">
        <ele>2394.0</ele>
        <time>2014-06-30T15:40:04Z</time>
      </trkpt>
      <trkpt lat="40.787400" lon="-4.376667">
        <ele>2395.0</ele>
        <time>2014-06-30T15:40:05Z</time>
      </trkpt>
      <trkpt lat="40.787350" lon="-4.376767">
        <ele>2397.0</ele>
        <time>2014-06-30T15:40:06Z</time>
      </trkpt>
      <trkpt lat="40.787300" lon="-4.376850">
        <ele>2398.0</ele>
        <time>2014-06-30T15:40:07Z</time>
      </trkpt>
      <trkpt lat="40.787267" lon="-4.376933">
        <ele>2399.0</ele>
        <time>2014-06-30T15:40:08Z</time>
      </trkpt>
      <trkpt lat="40.787217" lon="-4.377017">
        <ele>2401.0</ele>
        <time>2014-06-30T15:40:09Z</time>
      </trkpt>
      <trkpt lat="40.787183" lon="-4.377100">
        <ele>2402.0</ele>
        <time>2014-06-30T15:40:10Z</time>
      </trkpt>
      <trkpt lat="40.787150" lon="-4.377183">
        <ele>2404.0</ele>
        <time>2014-06-30T15:40:11Z</time>
      </trkpt>
      <trkpt lat="40.787133" lon="-4.377283">
        <ele>2405.0</ele>
        <time>2014-06-30T15:40:12Z</time>
      </trkpt>
      <trkpt lat="40.787117" lon="-4.377383">
        <ele>2405.0</ele>
        <time>2014-06-30T15:40:13Z</time>
      </trkpt>
      <trkpt lat="40.787133" lon="-4.377483">
        <ele>2403.0</ele>
        <time>2014-06-30T15:40:14Z</time>
      </trkpt>
      <trkpt lat="40.787183" lon="-4.377583">
        <ele>2401.0</ele>
        <time>2014-06-30T15:40:15Z</time>
      </trkpt>
      <trkpt lat="40.787233" lon="-4.377667">
        <ele>2400.0</ele>
        <time>2014-06-30T15:40:16Z</time>
      </trkpt>
      <trkpt lat="40.787300" lon="-4.377733">
        <ele>2400.0</ele>
        <time>2014-06-30T15:40:17Z</time>
      </trkpt>
      <trkpt lat="40.787383" lon="-4.377783">
        <ele>2401.0</ele>
        <time>2014-06-30T15:40:18Z</time>
      </trkpt>
      <trkpt lat="40.787467" lon="-4.377833">
        <ele>2402.0</ele>
        <time>2014-06-30T15:40:19Z</time>
      </trkpt>
      <trkpt lat="40.787550" lon="-4.377867">
        <ele>2402.0</ele>
        <time>2014-06-30T15:40:20Z</time>
      </trkpt>
      <trkpt lat="40.787633" lon="-4.377883">
        <ele>2402.0</ele>
        <time>2014-06-30T15:40:21Z</time>
      </trkpt>
      <trkpt lat="40.787717" lon="-4.377883">
        <ele>2403.0</ele>
        <time>2014-06-30T15:40:22Z</time>
      </trkpt>
      <trkpt lat="40.787800" lon="-4.377867">
        <ele>2403.0</ele>
        <time>2014-06-30T15:40:23Z</time>
      </trkpt>
      <trkpt lat="40.787883" lon="-4.377817">
        <ele>2403.0</ele>
        <time>2014-06-30T15:40:24Z</time>
      </trkpt>
      <trkpt lat="40.787967" lon="-4.377750">
        <ele>2402.0</ele>
        <time>2014-06-30T15:40:25Z</time>
      </trkpt>
      <trkpt lat="40.788050" lon="-4.377683">
        <ele>2401.0</ele>
        <time>2014-06-30T15:40:26Z</time>
      </trkpt>
      <trkpt lat="40.788117" lon="-4.377600">
        <ele>2399.0</ele>
        <time>2014-06-30T15:40:27Z</time>
      </trkpt>
      <trkpt lat="40.788183" lon="-4.377500">
        <ele>2399.0</ele>
        <time>2014-06-30T15:40:28Z</time>
      </trkpt>
      <trkpt lat="40.788250" lon="-4.377383">
        <ele>2398.0</ele>
        <time>2014-06-30T15:40:29Z</time>
      </trkpt>
      <trkpt lat="40.788317" lon="-4.377267">
        <ele>2397.0</ele>
        <time>2014-06-30T15:40:30Z</time>
      </trkpt>
      <trkpt lat="40.788367" lon="-4.377150">
        <ele>2396.0</ele>
        <time>2014-06-30T15:40:31Z</time>
      </trkpt>
      <trkpt lat="40.788433" lon="-4.377033">
        <ele>2397.0</ele>
        <time>2014-06-30T15:40:32Z</time>
      </trkpt>
      <trkpt lat="40.788483" lon="-4.376917">
        <ele>2397.0</ele>
        <time>2014-06-30T15:40:33Z</time>
      </trkpt>
      <trkpt lat="40.788550" lon="-4.376800">
        <ele>2397.0</ele>
        <time>2014-06-30T15:40:34Z</time>
      </trkpt>
      <trkpt lat="40.788600" lon="-4.376700">
        <ele>2397.0</ele>
        <time>2014-06-30T15:40:35Z</time>
      </trkpt>
      <trkpt lat="40.788650" lon="-4.376567">
        <ele>2398.0</ele>
        <time>2014-06-30T15:40:36Z</time>
      </trkpt>
      <trkpt lat="40.788717" lon="-4.376450">
        <ele>2398.0</ele>
        <time>2014-06-30T15:40:37Z</time>
      </trkpt>
      <trkpt lat="40.788767" lon="-4.376317">
        <ele>2398.0</ele>
        <time>2014-06-30T15:40:38Z</time>
      </trkpt>
      <trkpt lat="40.788800" lon="-4.376183">
        <ele>2398.0</ele>
        <time>2014-06-30T15:40:39Z</time>
      </trkpt>
      <trkpt lat="40.788850" lon="-4.376033">
        <ele>2399.0</ele>
        <time>2014-06-30T15:40:40Z</time>
      </trkpt>
      <trkpt lat="40.788900" lon="-4.375900">
        <ele>2399.0</ele>
        <time>2014-06-30T15:40:41Z</time>
      </trkpt>
      <trkpt lat="40.788933" lon="-4.375750">
        <ele>2400.0</ele>
        <time>2014-06-30T15:40:42Z</time>
      </trkpt>
      <trkpt lat="40.788967" lon="-4.375617">
        <ele>2400.0</ele>
        <time>2014-06-30T15:40:43Z</time>
      </trkpt>
      <trkpt lat="40.789000" lon="-4.375500">
        <ele>2400.0</ele>
        <time>2014-06-30T15:40:44Z</time>
      </trkpt>
      <trkpt lat="40.789050" lon="-4.375350">
        <ele>2399.0</ele>
        <time>2014-06-30T15:40:45Z</time>
      </trkpt>
      <trkpt lat="40.789083" lon="-4.375233">
        <ele>2399.0</ele>
        <time>2014-06-30T15:40:46Z</time>
      </trkpt>
      <trkpt lat="40.789150" lon="-4.375117">
        <ele>2399.0</ele>
        <time>2014-06-30T15:40:47Z</time>
      </trkpt>
      <trkpt lat="40.789200" lon="-4.375017">
        <ele>2398.0</ele>
        <time>2014-06-30T15:40:48Z</time>
      </trkpt>
      <trkpt lat="40.789283" lon="-4.374900">
        <ele>2398.0</ele>
        <time>2014-06-30T15:40:49Z</time>
      </trkpt>
      <trkpt lat="40.789350" lon="-4.374800">
        <ele>2399.0</ele>
        <time>2014-06-30T15:40:50Z</time>
      </trkpt>
      <trkpt lat="40.789417" lon="-4.374683">
        <ele>2399.0</ele>
        <time>2014-06-30T15:40:51Z</time>
      </trkpt>
      <trkpt lat="40.789483" lon="-4.374583">
        <ele>2399.0</ele>
        <time>2014-06-30T15:40:52Z</time>
      </trkpt>
      <trkpt lat="40.789550" lon="-4.374467">
        <ele>2399.0</ele>
        <time>2014-06-30T15:40:53Z</time>
      </trkpt>
      <trkpt lat="40.789633" lon="-4.374333">
        <ele>2399.0</ele>
        <time>2014-06-30T15:40:54Z</time>
      </trkpt>
      <trkpt lat="40.789717" lon="-4.374217">
        <ele>2398.0</ele>
        <time>2014-06-30T15:40:55Z</time>
      </trkpt>
      <trkpt lat="40.789783" lon="-4.374083">
        <ele>2399.0</ele>
        <time>2014-06-30T15:40:56Z</time>
      </trkpt>
      <trkpt lat="40.789833" lon="-4.373950">
        <ele>2400.0</ele>
        <time>2014-06-30T15:40:57Z</time>
      </trkpt>
      <trkpt lat="40.789867" lon="-4.373817">
        <ele>2402.0</ele>
        <time>2014-06-30T15:40:58Z</time>
      </trkpt>
      <trkpt lat="40.789917" lon="-4.373700">
        <ele>2404.0</ele>
        <time>2014-06-30T15:40:59Z</time>
      </trkpt>
      <trkpt lat="40.789950" lon="-4.373550">
        <ele>2405.0</ele>
        <time>2014-06-30T15:41:00Z</time>
      </trkpt>
      <trkpt lat="40.790000" lon="-4.373417">
        <ele>2406.0</ele>
        <time>2014-06-30T15:41:01Z</time>
      </trkpt>
      <trkpt lat="40.790050" lon="-4.373267">
        <ele>2407.0</ele>
        <time>2014-06-30T15:41:02Z</time>
      </trkpt>
      <trkpt lat="40.790100" lon="-4.373117">
        <ele>2409.0</ele>
        <time>2014-06-30T15:41:03Z</time>
      </trkpt>
      <trkpt lat="40.790133" lon="-4.372967">
        <ele>2410.0</ele>
        <time>2014-06-30T15:41:04Z</time>
      </trkpt>
      <trkpt lat="40.790150" lon="-4.372817">
        <ele>2412.0</ele>
        <time>2014-06-30T15:41:05Z</time>
      </trkpt>
      <trkpt lat="40.790183" lon="-4.372650">
        <ele>2413.0</ele>
        <time>2014-06-30T15:41:06Z</time>
      </trkpt>
      <trkpt lat="40.790217" lon="-4.372500">
        <ele>2414.0</ele>
        <time>2014-06-30T15:41:07Z</time>
      </trkpt>
      <trkpt lat="40.790250" lon="-4.372350">
        <ele>2416.0</ele>
        <time>2014-06-30T15:41:08Z</time>
      </trkpt>
      <trkpt lat="40.790267" lon="-4.372200">
        <ele>2416.0</ele>
        <time>2014-06-30T15:41:09Z</time>
      </trkpt>
      <trkpt lat="40.790300" lon="-4.372050">
        <ele>2418.0</ele>
        <time>2014-06-30T15:41:10Z</time>
      </trkpt>
      <trkpt lat="40.790317" lon="-4.371900">
        <ele>2419.0</ele>
        <time>2014-06-30T15:41:11Z</time>
      </trkpt>
      <trkpt lat="40.790317" lon="-4.371750">
        <ele>2420.0</ele>
        <time>2014-06-30T15:41:12Z</time>
      </trkpt>
      <trkpt lat="40.790300" lon="-4.371583">
        <ele>2421.0</ele>
        <time>2014-06-30T15:41:13Z</time>
      </trkpt>
      <trkpt lat="40.790267" lon="-4.371450">
        <ele>2422.0</ele>
        <time>2014-06-30T15:41:14Z</time>
      </trkpt>
      <trkpt lat="40.790217" lon="-4.371300">
        <ele>2422.0</ele>
        <time>2014-06-30T15:41:15Z</time>
      </trkpt>
      <trkpt lat="40.790150" lon="-4.371183">
        <ele>2422.0</ele>
        <time>2014-06-30T15:41:16Z</time>
      </trkpt>
      <trkpt lat="40.790067" lon="-4.371067">
        <ele>2423.0</ele>
        <time>2014-06-30T15:41:17Z</time>
      </trkpt>
      <trkpt lat="40.789983" lon="-4.370983">
        <ele>2424.0</ele>
        <time>2014-06-30T15:41:18Z</time>
      </trkpt>
      <trkpt lat="40.789900" lon="-4.370933">
        <ele>2424.0</ele>
        <time>2014-06-30T15:41:19Z</time>
      </trkpt>
      <trkpt lat="40.789800" lon="-4.370900">
        <ele>2425.0</ele>
        <time>2014-06-30T15:41:20Z</time>
      </trkpt>
      <trkpt lat="40.789717" lon="-4.370883">
        <ele>2425.0</ele>
        <time>2014-06-30T15:41:21Z</time>
      </trkpt>
      <trkpt lat="40.789633" lon="-4.370883">
        <ele>2426.0</ele>
        <time>2014-06-30T15:41:22Z</time>
      </trkpt>
      <trkpt lat="40.789550" lon="-4.370883">
        <ele>2427.0</ele>
        <time>2014-06-30T15:41:23Z</time>
      </trkpt>
      <trkpt lat="40.789467" lon="-4.370900">
        <ele>2428.0</ele>
        <time>2014-06-30T15:41:24Z</time>
      </trkpt>
      <trkpt lat="40.789417" lon="-4.370917">
        <ele>2429.0</ele>
        <time>2014-06-30T15:41:25Z</time>
      </trkpt>
      <trkpt lat="40.789350" lon="-4.370950">
        <ele>2428.0</ele>
        <time>2014-06-30T15:41:26Z</time>
      </trkpt>
      <trkpt lat="40.789283" lon="-4.370983">
        <ele>2426.0</ele>
        <time>2014-06-30T15:41:27Z</time>
      </trkpt>
      <trkpt lat="40.789200" lon="-4.371017">
        <ele>2425.0</ele>
        <time>2014-06-30T15:41:28Z</time>
      </trkpt>
      <trkpt lat="40.789100" lon="-4.371067">
        <ele>2423.0</ele>
        <time>2014-06-30T15:41:29Z</time>
      </trkpt>
      <trkpt lat="40.789033" lon="-4.371100">
        <ele>2423.0</ele>
        <time>2014-06-30T15:41:30Z</time>
      </trkpt>
      <trkpt lat="40.788967" lon="-4.371133">
        <ele>2425.0</ele>
        <time>2014-06-30T15:41:31Z</time>
      </trkpt>
      <trkpt lat="40.788933" lon="-4.371167">
        <ele>2426.0</ele>
        <time>2014-06-30T15:41:32Z</time>
      </trkpt>
      <trkpt lat="40.788917" lon="-4.371200">
        <ele>2426.0</ele>
        <time>2014-06-30T15:41:33Z</time>
      </trkpt>
      <trkpt lat="40.788917" lon="-4.371250">
        <ele>2425.0</ele>
        <time>2014-06-30T15:41:34Z</time>
      </trkpt>
      <trkpt lat="40.788883" lon="-4.371317">
        <ele>2424.0</ele>
        <time>2014-06-30T15:41:35Z</time>
      </trkpt>
      <trkpt lat="40.788867" lon="-4.371400">
        <ele>2423.0</ele>
        <time>2014-06-30T15:41:36Z</time>
      </trkpt>
      <trkpt lat="40.788833" lon="-4.371483">
        <ele>2421.0</ele>
        <time>2014-06-30T15:41:37Z</time>
      </trkpt>
      <trkpt lat="40.788850" lon="-4.371567">
        <ele>2421.0</ele>
        <time>2014-06-30T15:41:38Z</time>
      </trkpt>
      <trkpt lat="40.788867" lon="-4.371650">
        <ele>2421.0</ele>
        <time>2014-06-30T15:41:39Z</time>
      </trkpt>
      <trkpt lat="40.788917" lon="-4.371700">
        <ele>2422.0</ele>
        <time>2014-06-30T15:41:40Z</time>
      </trkpt>
      <trkpt lat="40.789000" lon="-4.371750">
        <ele>2422.0</ele>
        <time>2014-06-30T15:41:41Z</time>
      </trkpt>
      <trkpt lat="40.789100" lon="-4.371783">
        <ele>2423.0</ele>
        <time>2014-06-30T15:41:42Z</time>
      </trkpt>
      <trkpt lat="40.789183" lon="-4.371783">
        <ele>2424.0</ele>
        <time>2014-06-30T15:41:43Z</time>
      </trkpt>
      <trkpt lat="40.789283" lon="-4.371767">
        <ele>2425.0</ele>
        <time>2014-06-30T15:41:44Z</time>
      </trkpt>
      <trkpt lat="40.789367" lon="-4.371750">
        <ele>2426.0</ele>
        <time>2014-06-30T15:41:45Z</time>
      </trkpt>
      <trkpt lat="40.789450" lon="-4.371733">
        <ele>2426.0</ele>
        <time>2014-06-30T15:41:46Z</time>
      </trkpt>
      <trkpt lat="40.789550" lon="-4.371700">
        <ele>2426.0</ele>
        <time>2014-06-30T15:41:47Z</time>
      </trkpt>
      <trkpt lat="40.789650" lon="-4.371667">
        <ele>2426.0</ele>
        <time>2014-06-30T15:41:48Z</time>
      </trkpt>
      <trkpt lat="40.789767" lon="-4.371600">
        <ele>2425.0</ele>
        <time>2014-06-30T15:41:49Z</time>
      </trkpt>
      <trkpt lat="40.789867" lon="-4.371517">
        <ele>2425.0</ele>
        <time>2014-06-30T15:41:50Z</time>
      </trkpt>
      <trkpt lat="40.789967" lon="-4.371433">
        <ele>2425.0</ele>
        <time>2014-06-30T15:41:51Z</time>
      </trkpt>
      <trkpt lat="40.790050" lon="-4.371350">
        <ele>2425.0</ele>
        <time>2014-06-30T15:41:52Z</time>
      </trkpt>
      <trkpt lat="40.790133" lon="-4.371267">
        <ele>2424.0</ele>
        <time>2014-06-30T15:41:53Z</time>
      </trkpt>
      <trkpt lat="40.790233" lon="-4.371183">
        <ele>2424.0</ele>
        <time>2014-06-30T15:41:54Z</time>
      </trkpt>
      <trkpt lat="40.790317" lon="-4.371083">
        <ele>2423.0</ele>
        <time>2014-06-30T15:41:55Z</time>
      </trkpt>
      <trkpt lat="40.790417" lon="-4.371000">
        <ele>2423.0</ele>
        <time>2014-06-30T15:41:56Z</time>
      </trkpt>
      <trkpt lat="40.790500" lon="-4.370900">
        <ele>2424.0</ele>
        <time>2014-06-30T15:41:57Z</time>
      </trkpt>
      <trkpt lat="40.790583" lon="-4.370800">
        <ele>2424.0</ele>
        <time>2014-06-30T15:41:58Z</time>
      </trkpt>
      <trkpt lat="40.790650" lon="-4.370683">
        <ele>2424.0</ele>
        <time>2014-06-30T15:41:59Z</time>
      </trkpt>
      <trkpt lat="40.790733" lon="-4.370583">
        <ele>2424.0</ele>
        <time>2014-06-30T15:42:00Z</time>
      </trkpt>
      <trkpt lat="40.790800" lon="-4.370483">
        <ele>2424.0</ele>
        <time>2014-06-30T15:42:01Z</time>
      </trkpt>
      <trkpt lat="40.790883" lon="-4.370383">
        <ele>2425.0</ele>
        <time>2014-06-30T15:42:02Z</time>
      </trkpt>
      <trkpt lat="40.790950" lon="-4.370300">
        <ele>2425.0</ele>
        <time>2014-06-30T15:42:03Z</time>
      </trkpt>
      <trkpt lat="40.791033" lon="-4.370200">
        <ele>2425.0</ele>
        <time>2014-06-30T15:42:04Z</time>
      </trkpt>
      <trkpt lat="40.791117" lon="-4.370100">
        <ele>2425.0</ele>
        <time>2014-06-30T15:42:05Z</time>
      </trkpt>
      <trkpt lat="40.791183" lon="-4.370000">
        <ele>2425.0</ele>
        <time>2014-06-30T15:42:06Z</time>
      </trkpt>
      <trkpt lat="40.791250" lon="-4.369900">
        <ele>2425.0</ele>
        <time>2014-06-30T15:42:07Z</time>
      </trkpt>
      <trkpt lat="40.791317" lon="-4.369767">
        <ele>2424.0</ele>
        <time>2014-06-30T15:42:08Z</time>
      </trkpt>
      <trkpt lat="40.791367" lon="-4.369650">
        <ele>2424.0</ele>
        <time>2014-06-30T15:42:09Z</time>
      </trkpt>
      <trkpt lat="40.791417" lon="-4.369517">
        <ele>2425.0</ele>
        <time>2014-06-30T15:42:10Z</time>
      </trkpt>
      <trkpt lat="40.791483" lon="-4.369400">
        <ele>2425.0</ele>
        <time>2014-06-30T15:42:11Z</time>
      </trkpt>
      <trkpt lat="40.791533" lon="-4.369283">
        <ele>2426.0</ele>
        <time>2014-06-30T15:42:12Z</time>
      </trkpt>
      <trkpt lat="40.791583" lon="-4.369167">
        <ele>2426.0</ele>
        <time>2014-06-30T15:42:13Z</time>
      </trkpt>
      <trkpt lat="40.791617" lon="-4.369033">
        <ele>2426.0</ele>
        <time>2014-06-30T15:42:14Z</time>
      </trkpt>
      <trkpt lat="40.791650" lon="-4.368900">
        <ele>2426.0</ele>
        <time>2014-06-30T15:42:15Z</time>
      </trkpt>
      <trkpt lat="40.791700" lon="-4.368750">
        <ele>2425.0</ele>
        <time>2014-06-30T15:42:16Z</time>
      </trkpt>
      <trkpt lat="40.791733" lon="-4.368617">
        <ele>2425.0</ele>
        <time>2014-06-30T15:42:17Z</time>
      </trkpt>
      <trkpt lat="40.791783" lon="-4.368483">
        <ele>2425.0</ele>
        <time>2014-06-30T15:42:18Z</time>
      </trkpt>
      <trkpt lat="40.791817" lon="-4.368350">
        <ele>2425.0</ele>
        <time>2014-06-30T15:42:19Z</time>
      </trkpt>
      <trkpt lat="40.791850" lon="-4.368217">
        <ele>2426.0</ele>
        <time>2014-06-30T15:42:20Z</time>
      </trkpt>
      <trkpt lat="40.791867" lon="-4.368083">
        <ele>2426.0</ele>
        <time>2014-06-30T15:42:21Z</time>
      </trkpt>
      <trkpt lat="40.791900" lon="-4.367950">
        <ele>2425.0</ele>
        <time>2014-06-30T15:42:22Z</time>
      </trkpt>
      <trkpt lat="40.791933" lon="-4.367800">
        <ele>2424.0</ele>
        <time>2014-06-30T15:42:23Z</time>
      </trkpt>
      <trkpt lat="40.791950" lon="-4.367633">
        <ele>2424.0</ele>
        <time>2014-06-30T15:42:24Z</time>
      </trkpt>
      <trkpt lat="40.791983" lon="-4.367483">
        <ele>2424.0</ele>
        <time>2014-06-30T15:42:25Z</time>
      </trkpt>
      <trkpt lat="40.792017" lon="-4.367333">
        <ele>2424.0</ele>
        <time>2014-06-30T15:42:26Z</time>
      </trkpt>
      <trkpt lat="40.792050" lon="-4.367200">
        <ele>2423.0</ele>
        <time>2014-06-30T15:42:27Z</time>
      </trkpt>
      <trkpt lat="40.792067" lon="-4.367050">
        <ele>2423.0</ele>
        <time>2014-06-30T15:42:28Z</time>
      </trkpt>
      <trkpt lat="40.792100" lon="-4.366900">
        <ele>2423.0</ele>
        <time>2014-06-30T15:42:29Z</time>
      </trkpt>
      <trkpt lat="40.792133" lon="-4.366767">
        <ele>2423.0</ele>
        <time>2014-06-30T15:42:30Z</time>
      </trkpt>
      <trkpt lat="40.792167" lon="-4.366617">
        <ele>2423.0</ele>
        <time>2014-06-30T15:42:31Z</time>
      </trkpt>
      <trkpt lat="40.792200" lon="-4.366483">
        <ele>2423.0</ele>
        <time>2014-06-30T15:42:32Z</time>
      </trkpt>
      <trkpt lat="40.792233" lon="-4.366350">
        <ele>2423.0</ele>
        <time>2014-06-30T15:42:33Z</time>
      </trkpt>
      <trkpt lat="40.792267" lon="-4.366217">
        <ele>2423.0</ele>
        <time>2014-06-30T15:42:34Z</time>
      </trkpt>
      <trkpt lat="40.792283" lon="-4.366100">
        <ele>2425.0</ele>
        <time>2014-06-30T15:42:35Z</time>
      </trkpt>
      <trkpt lat="40.792317" lon="-4.366017">
        <ele>2426.0</ele>
        <time>2014-06-30T15:42:36Z</time>
      </trkpt>
      <trkpt lat="40.792350" lon="-4.365917">
        <ele>2426.0</ele>
        <time>2014-06-30T15:42:37Z</time>
      </trkpt>
      <trkpt lat="40.792383" lon="-4.365800">
        <ele>2425.0</ele>
        <time>2014-06-30T15:42:38Z</time>
      </trkpt>
      <trkpt lat="40.792417" lon="-4.365667">
        <ele>2424.0</ele>
        <time>2014-06-30T15:42:39Z</time>
      </trkpt>
      <trkpt lat="40.792467" lon="-4.365517">
        <ele>2423.0</ele>
        <time>2014-06-30T15:42:40Z</time>
      </trkpt>
      <trkpt lat="40.792500" lon="-4.365367">
        <ele>2423.0</ele>
        <time>2014-06-30T15:42:41Z</time>
      </trkpt>
      <trkpt lat="40.792533" lon="-4.365233">
        <ele>2423.0</ele>
        <time>2014-06-30T15:42:42Z</time>
      </trkpt>
      <trkpt lat="40.792567" lon="-4.365100">
        <ele>2423.0</ele>
        <time>2014-06-30T15:42:43Z</time>
      </trkpt>
      <trkpt lat="40.792600" lon="-4.364967">
        <ele>2424.0</ele>
        <time>2014-06-30T15:42:44Z</time>
      </trkpt>
      <trkpt lat="40.792633" lon="-4.364833">
        <ele>2424.0</ele>
        <time>2014-06-30T15:42:45Z</time>
      </trkpt>
      <trkpt lat="40.792667" lon="-4.364700">
        <ele>2423.0</ele>
        <time>2014-06-30T15:42:46Z</time>
      </trkpt>
      <trkpt lat="40.792717" lon="-4.364567">
        <ele>2423.0</ele>
        <time>2014-06-30T15:42:47Z</time>
      </trkpt>
      <trkpt lat="40.792750" lon="-4.364450">
        <ele>2422.0</ele>
        <time>2014-06-30T15:42:48Z</time>
      </trkpt>
      <trkpt lat="40.792800" lon="-4.364350">
        <ele>2422.0</ele>
        <time>2014-06-30T15:42:49Z</time>
      </trkpt>
      <trkpt lat="40.792867" lon="-4.364250">
        <ele>2420.0</ele>
        <time>2014-06-30T15:42:50Z</time>
      </trkpt>
      <trkpt lat="40.792917" lon="-4.364133">
        <ele>2419.0</ele>
        <time>2014-06-30T15:42:51Z</time>
      </trkpt>
      <trkpt lat="40.792983" lon="-4.364000">
        <ele>2418.0</ele>
        <time>2014-06-30T15:42:52Z</time>
      </trkpt>
      <trkpt lat="40.793033" lon="-4.363867">
        <ele>2417.0</ele>
        <time>2014-06-30T15:42:53Z</time>
      </trkpt>
      <trkpt lat="40.793083" lon="-4.363750">
        <ele>2417.0</ele>
        <time>2014-06-30T15:42:54Z</time>
      </trkpt>
      <trkpt lat="40.793117" lon="-4.363633">
        <ele>2417.0</ele>
        <time>2014-06-30T15:42:55Z</time>
      </trkpt>
      <trkpt lat="40.793150" lon="-4.363517">
        <ele>2417.0</ele>
        <time>2014-06-30T15:42:56Z</time>
      </trkpt>
      <trkpt lat="40.793183" lon="-4.363417">
        <ele>2416.0</ele>
        <time>2014-06-30T15:42:57Z</time>
      </trkpt>
      <trkpt lat="40.793217" lon="-4.363283">
        <ele>2416.0</ele>
        <time>2014-06-30T15:42:58Z</time>
      </trkpt>
      <trkpt lat="40.793250" lon="-4.363150">
        <ele>2414.0</ele>
        <time>2014-06-30T15:42:59Z</time>
      </trkpt>
      <trkpt lat="40.793300" lon="-4.363033">
        <ele>2414.0</ele>
        <time>2014-06-30T15:43:00Z</time>
      </trkpt>
      <trkpt lat="40.793350" lon="-4.362900">
        <ele>2413.0</ele>
        <time>2014-06-30T15:43:01Z</time>
      </trkpt>
      <trkpt lat="40.793383" lon="-4.362783">
        <ele>2412.0</ele>
        <time>2014-06-30T15:43:02Z</time>
      </trkpt>
      <trkpt lat="40.793417" lon="-4.362650">
        <ele>2412.0</ele>
        <time>2014-06-30T15:43:03Z</time>
      </trkpt>
      <trkpt lat="40.793450" lon="-4.362533">
        <ele>2412.0</ele>
        <time>2014-06-30T15:43:04Z</time>
      </trkpt>
      <trkpt lat="40.793483" lon="-4.362400">
        <ele>2411.0</ele>
        <time>2014-06-30T15:43:05Z</time>
      </trkpt>
      <trkpt lat="40.793517" lon="-4.362283">
        <ele>2412.0</ele>
        <time>2014-06-30T15:43:06Z</time>
      </trkpt>
      <trkpt lat="40.793550" lon="-4.362150">
        <ele>2412.0</ele>
        <time>2014-06-30T15:43:07Z</time>
      </trkpt>
      <trkpt lat="40.793583" lon="-4.362033">
        <ele>2412.0</ele>
        <time>2014-06-30T15:43:08Z</time>
      </trkpt>
      <trkpt lat="40.793633" lon="-4.361900">
        <ele>2412.0</ele>
        <time>2014-06-30T15:43:09Z</time>
      </trkpt>
      <trkpt lat="40.793667" lon="-4.361783">
        <ele>2412.0</ele>
        <time>2014-06-30T15:43:10Z</time>
      </trkpt>
      <trkpt lat="40.793717" lon="-4.361667">
        <ele>2412.0</ele>
        <time>2014-06-30T15:43:11Z</time>
      </trkpt>
      <trkpt lat="40.793783" lon="-4.361567">
        <ele>2413.0</ele>
        <time>2014-06-30T15:43:12Z</time>
      </trkpt>
      <trkpt lat="40.793850" lon="-4.361483">
        <ele>2413.0</ele>
        <time>2014-06-30T15:43:13Z</time>
      </trkpt>
      <trkpt lat="40.793933" lon="-4.361400">
        <ele>2412.0</ele>
        <time>2014-06-30T15:43:14Z</time>
      </trkpt>
      <trkpt lat="40.794000" lon="-4.361300">
        <ele>2412.0</ele>
        <time>2014-06-30T15:43:15Z</time>
      </trkpt>
      <trkpt lat="40.794067" lon="-4.361217">
        <ele>2412.0</ele>
        <time>2014-06-30T15:43:16Z</time>
      </trkpt>
      <trkpt lat="40.794150" lon="-4.361100">
        <ele>2412.0</ele>
        <time>2014-06-30T15:43:17Z</time>
      </trkpt>
      <trkpt lat="40.794217" lon="-4.361000">
        <ele>2412.0</ele>
        <time>2014-06-30T15:43:18Z</time>
      </trkpt>
      <trkpt lat="40.794283" lon="-4.360900">
        <ele>2412.0</ele>
        <time>2014-06-30T15:43:19Z</time>
      </trkpt>
      <trkpt lat="40.794350" lon="-4.360817">
        <ele>2412.0</ele>
        <time>2014-06-30T15:43:20Z</time>
      </trkpt>
      <trkpt lat="40.794433" lon="-4.360733">
        <ele>2412.0</ele>
        <time>2014-06-30T15:43:21Z</time>
      </trkpt>
      <trkpt lat="40.794500" lon="-4.360667">
        <ele>2412.0</ele>
        <time>2014-06-30T15:43:22Z</time>
      </trkpt>
      <trkpt lat="40.794600" lon="-4.360600">
        <ele>2412.0</ele>
        <time>2014-06-30T15:43:23Z</time>
      </trkpt>
      <trkpt lat="40.794683" lon="-4.360517">
        <ele>2412.0</ele>
        <time>2014-06-30T15:43:24Z</time>
      </trkpt>
      <trkpt lat="40.794750" lon="-4.360417">
        <ele>2412.0</ele>
        <time>2014-06-30T15:43:25Z</time>
      </trkpt>
      <trkpt lat="40.794800" lon="-4.360300">
        <ele>2412.0</ele>
        <time>2014-06-30T15:43:26Z</time>
      </trkpt>
      <trkpt lat="40.794833" lon="-4.360183">
        <ele>2412.0</ele>
        <time>2014-06-30T15:43:27Z</time>
      </trkpt>
      <trkpt lat="40.794867" lon="-4.360067">
        <ele>2411.0</ele>
        <time>2014-06-30T15:43:28Z</time>
      </trkpt>
      <trkpt lat="40.794917" lon="-4.359917">
        <ele>2409.0</ele>
        <time>2014-06-30T15:43:29Z</time>
      </trkpt>
      <trkpt lat="40.794967" lon="-4.359783">
        <ele>2407.0</ele>
        <time>2014-06-30T15:43:30Z</time>
      </trkpt>
      <trkpt lat="40.795033" lon="-4.359650">
        <ele>2405.0</ele>
        <time>2014-06-30T15:43:31Z</time>
      </trkpt>
      <trkpt lat="40.795100" lon="-4.359533">
        <ele>2403.0</ele>
        <time>2014-06-30T15:43:32Z</time>
      </trkpt>
      <trkpt lat="40.795150" lon="-4.359400">
        <ele>2401.0</ele>
        <time>2014-06-30T15:43:33Z</time>
      </trkpt>
      <trkpt lat="40.795217" lon="-4.359283">
        <ele>2400.0</ele>
        <time>2014-06-30T15:43:34Z</time>
      </trkpt>
      <trkpt lat="40.795250" lon="-4.359167">
        <ele>2400.0</ele>
        <time>2014-06-30T15:43:35Z</time>
      </trkpt>
      <trkpt lat="40.795283" lon="-4.359033">
        <ele>2399.0</ele>
        <time>2014-06-30T15:43:36Z</time>
      </trkpt>
      <trkpt lat="40.795317" lon="-4.358900">
        <ele>2398.0</ele>
        <time>2014-06-30T15:43:37Z</time>
      </trkpt>
      <trkpt lat="40.795350" lon="-4.358750">
        <ele>2397.0</ele>
        <time>2014-06-30T15:43:38Z</time>
      </trkpt>
      <trkpt lat="40.795400" lon="-4.358600">
        <ele>2394.0</ele>
        <time>2014-06-30T15:43:39Z</time>
      </trkpt>
      <trkpt lat="40.795450" lon="-4.358450">
        <ele>2392.0</ele>
        <time>2014-06-30T15:43:40Z</time>
      </trkpt>
      <trkpt lat="40.795483" lon="-4.358300">
        <ele>2390.0</ele>
        <time>2014-06-30T15:43:41Z</time>
      </trkpt>
      <trkpt lat="40.795533" lon="-4.358167">
        <ele>2388.0</ele>
        <time>2014-06-30T15:43:42Z</time>
      </trkpt>
      <trkpt lat="40.795583" lon="-4.358017">
        <ele>2386.0</ele>
        <time>2014-06-30T15:43:43Z</time>
      </trkpt>
      <trkpt lat="40.795617" lon="-4.357867">
        <ele>2385.0</ele>
        <time>2014-06-30T15:43:44Z</time>
      </trkpt>
      <trkpt lat="40.795633" lon="-4.357733">
        <ele>2384.0</ele>
        <time>2014-06-30T15:43:45Z</time>
      </trkpt>
      <trkpt lat="40.795667" lon="-4.357583">
        <ele>2382.0</ele>
        <time>2014-06-30T15:43:46Z</time>
      </trkpt>
      <trkpt lat="40.795700" lon="-4.357417">
        <ele>2380.0</ele>
        <time>2014-06-30T15:43:47Z</time>
      </trkpt>
      <trkpt lat="40.795750" lon="-4.357250">
        <ele>2378.0</ele>
        <time>2014-06-30T15:43:48Z</time>
      </trkpt>
      <trkpt lat="40.795800" lon="-4.357100">
        <ele>2376.0</ele>
        <time>2014-06-30T15:43:49Z</time>
      </trkpt>
      <trkpt lat="40.795867" lon="-4.356933">
        <ele>2374.0</ele>
        <time>2014-06-30T15:43:50Z</time>
      </trkpt>
      <trkpt lat="40.795917" lon="-4.356783">
        <ele>2373.0</ele>
        <time>2014-06-30T15:43:51Z</time>
      </trkpt>
      <trkpt lat="40.795967" lon="-4.356633">
        <ele>2373.0</ele>
        <time>2014-06-30T15:43:52Z</time>
      </trkpt>
      <trkpt lat="40.796000" lon="-4.356483">
        <ele>2372.0</ele>
        <time>2014-06-30T15:43:53Z</time>
      </trkpt>
      <trkpt lat="40.796033" lon="-4.356317">
        <ele>2371.0</ele>
        <time>2014-06-30T15:43:54Z</time>
      </trkpt>
      <trkpt lat="40.796083" lon="-4.356150">
        <ele>2370.0</ele>
        <time>2014-06-30T15:43:55Z</time>
      </trkpt>
      <trkpt lat="40.796117" lon="-4.355983">
        <ele>2369.0</ele>
        <time>2014-06-30T15:43:56Z</time>
      </trkpt>
      <trkpt lat="40.796167" lon="-4.355833">
        <ele>2367.0</ele>
        <time>2014-06-30T15:43:57Z</time>
      </trkpt>
      <trkpt lat="40.796217" lon="-4.355683">
        <ele>2365.0</ele>
        <time>2014-06-30T15:43:58Z</time>
      </trkpt>
      <trkpt lat="40.796267" lon="-4.355533">
        <ele>2362.0</ele>
        <time>2014-06-30T15:43:59Z</time>
      </trkpt>
      <trkpt lat="40.796317" lon="-4.355383">
        <ele>2359.0</ele>
        <time>2014-06-30T15:44:00Z</time>
      </trkpt>
      <trkpt lat="40.796367" lon="-4.355217">
        <ele>2357.0</ele>
        <time>2014-06-30T15:44:01Z</time>
      </trkpt>
      <trkpt lat="40.796417" lon="-4.355050">
        <ele>2355.0</ele>
        <time>2014-06-30T15:44:02Z</time>
      </trkpt>
      <trkpt lat="40.796467" lon="-4.354900">
        <ele>2353.0</ele>
        <time>2014-06-30T15:44:03Z</time>
      </trkpt>
      <trkpt lat="40.796517" lon="-4.354750">
        <ele>2351.0</ele>
        <time>2014-06-30T15:44:04Z</time>
      </trkpt>
      <trkpt lat="40.796567" lon="-4.354583">
        <ele>2348.0</ele>
        <time>2014-06-30T15:44:05Z</time>
      </trkpt>
      <trkpt lat="40.796617" lon="-4.354417">
        <ele>2346.0</ele>
        <time>2014-06-30T15:44:06Z</time>
      </trkpt>
      <trkpt lat="40.796683" lon="-4.354250">
        <ele>2343.0</ele>
        <time>2014-06-30T15:44:07Z</time>
      </trkpt>
      <trkpt lat="40.796750" lon="-4.354100">
        <ele>2340.0</ele>
        <time>2014-06-30T15:44:08Z</time>
      </trkpt>
      <trkpt lat="40.796817" lon="-4.353950">
        <ele>2338.0</ele>
        <time>2014-06-30T15:44:09Z</time>
      </trkpt>
      <trkpt lat="40.796883" lon="-4.353817">
        <ele>2335.0</ele>
        <time>2014-06-30T15:44:10Z</time>
      </trkpt>
      <trkpt lat="40.796950" lon="-4.353650">
        <ele>2332.0</ele>
        <time>2014-06-30T15:44:11Z</time>
      </trkpt>
      <trkpt lat="40.797017" lon="-4.353500">
        <ele>2329.0</ele>
        <time>2014-06-30T15:44:12Z</time>
      </trkpt>
      <trkpt lat="40.797100" lon="-4.353350">
        <ele>2326.0</ele>
        <time>2014-06-30T15:44:13Z</time>
      </trkpt>
      <trkpt lat="40.797167" lon="-4.353217">
        <ele>2325.0</ele>
        <time>2014-06-30T15:44:14Z</time>
      </trkpt>
      <trkpt lat="40.797233" lon="-4.353083">
        <ele>2325.0</ele>
        <time>2014-06-30T15:44:15Z</time>
      </trkpt>
      <trkpt lat="40.797300" lon="-4.352950">
        <ele>2324.0</ele>
        <time>2014-06-30T15:44:16Z</time>
      </trkpt>
      <trkpt lat="40.797350" lon="-4.352817">
        <ele>2323.0</ele>
        <time>2014-06-30T15:44:17Z</time>
      </trkpt>
      <trkpt lat="40.797433" lon="-4.352683">
        <ele>2321.0</ele>
        <time>2014-06-30T15:44:18Z</time>
      </trkpt>
      <trkpt lat="40.797500" lon="-4.352533">
        <ele>2320.0</ele>
        <time>2014-06-30T15:44:19Z</time>
      </trkpt>
      <trkpt lat="40.797583" lon="-4.352400">
        <ele>2319.0</ele>
        <time>2014-06-30T15:44:20Z</time>
      </trkpt>
      <trkpt lat="40.797667" lon="-4.352250">
        <ele>2318.0</ele>
        <time>2014-06-30T15:44:21Z</time>
      </trkpt>
      <trkpt lat="40.797733" lon="-4.352117">
        <ele>2318.0</ele>
        <time>2014-06-30T15:44:22Z</time>
      </trkpt>
      <trkpt lat="40.797783" lon="-4.351983">
        <ele>2317.0</ele>
        <time>2014-06-30T15:44:23Z</time>
      </trkpt>
      <trkpt lat="40.797850" lon="-4.351833">
        <ele>2315.0</ele>
        <time>2014-06-30T15:44:24Z</time>
      </trkpt>
      <trkpt lat="40.797917" lon="-4.351700">
        <ele>2314.0</ele>
        <time>2014-06-30T15:44:25Z</time>
      </trkpt>
      <trkpt lat="40.797983" lon="-4.351567">
        <ele>2312.0</ele>
        <time>2014-06-30T15:44:26Z</time>
      </trkpt>
      <trkpt lat="40.798050" lon="-4.351433">
        <ele>2310.0</ele>
        <time>2014-06-30T15:44:27Z</time>
      </trkpt>
      <trkpt lat="40.798117" lon="-4.351317">
        <ele>2309.0</ele>
        <time>2014-06-30T15:44:28Z</time>
      </trkpt>
      <trkpt lat="40.798183" lon="-4.351183">
        <ele>2306.0</ele>
        <time>2014-06-30T15:44:29Z</time>
      </trkpt>
      <trkpt lat="40.798250" lon="-4.351050">
        <ele>2303.0</ele>
        <time>2014-06-30T15:44:30Z</time>
      </trkpt>
      <trkpt lat="40.798317" lon="-4.350917">
        <ele>2301.0</ele>
        <time>2014-06-30T15:44:31Z</time>
      </trkpt>
      <trkpt lat="40.798383" lon="-4.350783">
        <ele>2299.0</ele>
        <time>2014-06-30T15:44:32Z</time>
      </trkpt>
      <trkpt lat="40.798450" lon="-4.350667">
        <ele>2299.0</ele>
        <time>2014-06-30T15:44:33Z</time>
      </trkpt>
      <trkpt lat="40.798517" lon="-4.350550">
        <ele>2297.0</ele>
        <time>2014-06-30T15:44:34Z</time>
      </trkpt>
      <trkpt lat="40.798583" lon="-4.350433">
        <ele>2296.0</ele>
        <time>2014-06-30T15:44:35Z</time>
      </trkpt>
      <trkpt lat="40.798650" lon="-4.350317">
        <ele>2293.0</ele>
        <time>2014-06-30T15:44:36Z</time>
      </trkpt>
      <trkpt lat="40.798717" lon="-4.350183">
        <ele>2290.0</ele>
        <time>2014-06-30T15:44:37Z</time>
      </trkpt>
      <trkpt lat="40.798800" lon="-4.350033">
        <ele>2287.0</ele>
        <time>2014-06-30T15:44:38Z</time>
      </trkpt>
      <trkpt lat="40.798867" lon="-4.349900">
        <ele>2285.0</ele>
        <time>2014-06-30T15:44:39Z</time>
      </trkpt>
      <trkpt lat="40.798917" lon="-4.349767">
        <ele>2283.0</ele>
        <time>2014-06-30T15:44:40Z</time>
      </trkpt>
      <trkpt lat="40.798983" lon="-4.349633">
        <ele>2281.0</ele>
        <time>2014-06-30T15:44:41Z</time>
      </trkpt>
      <trkpt lat="40.799050" lon="-4.349500">
        <ele>2278.0</ele>
        <time>2014-06-30T15:44:42Z</time>
      </trkpt>
      <trkpt lat="40.799117" lon="-4.349367">
        <ele>2275.0</ele>
        <time>2014-06-30T15:44:43Z</time>
      </trkpt>
      <trkpt lat="40.799167" lon="-4.349217">
        <ele>2272.0</ele>
        <time>2014-06-30T15:44:44Z</time>
      </trkpt>
      <trkpt lat="40.799250" lon="-4.349067">
        <ele>2269.0</ele>
        <time>2014-06-30T15:44:45Z</time>
      </trkpt>
      <trkpt lat="40.799333" lon="-4.348917">
        <ele>2266.0</ele>
        <time>2014-06-30T15:44:46Z</time>
      </trkpt>
      <trkpt lat="40.799417" lon="-4.348767">
        <ele>2263.0</ele>
        <time>2014-06-30T15:44:47Z</time>
      </trkpt>
      <trkpt lat="40.799500" lon="-4.348617">
        <ele>2260.0</ele>
        <time>2014-06-30T15:44:48Z</time>
      </trkpt>
      <trkpt lat="40.799583" lon="-4.348483">
        <ele>2257.0</ele>
        <time>2014-06-30T15:44:49Z</time>
      </trkpt>
      <trkpt lat="40.799650" lon="-4.348333">
        <ele>2255.0</ele>
        <time>2014-06-30T15:44:50Z</time>
      </trkpt>
      <trkpt lat="40.799717" lon="-4.348183">
        <ele>2252.0</ele>
        <time>2014-06-30T15:44:51Z</time>
      </trkpt>
      <trkpt lat="40.799783" lon="-4.348033">
        <ele>2250.0</ele>
        <time>2014-06-30T15:44:52Z</time>
      </trkpt>
      <trkpt lat="40.799850" lon="-4.347900">
        <ele>2248.0</ele>
        <time>2014-06-30T15:44:53Z</time>
      </trkpt>
      <trkpt lat="40.799917" lon="-4.347750">
        <ele>2246.0</ele>
        <time>2014-06-30T15:44:54Z</time>
      </trkpt>
      <trkpt lat="40.799983" lon="-4.347583">
        <ele>2244.0</ele>
        <time>2014-06-30T15:44:55Z</time>
      </trkpt>
      <trkpt lat="40.800050" lon="-4.347433">
        <ele>2243.0</ele>
        <time>2014-06-30T15:44:56Z</time>
      </trkpt>
      <trkpt lat="40.800117" lon="-4.347267">
        <ele>2241.0</ele>
        <time>2014-06-30T15:44:57Z</time>
      </trkpt>
      <trkpt lat="40.800183" lon="-4.347100">
        <ele>2239.0</ele>
        <time>2014-06-30T15:44:58Z</time>
      </trkpt>
      <trkpt lat="40.800250" lon="-4.346933">
        <ele>2237.0</ele>
        <time>2014-06-30T15:44:59Z</time>
      </trkpt>
      <trkpt lat="40.800317" lon="-4.346767">
        <ele>2234.0</ele>
        <time>2014-06-30T15:45:00Z</time>
      </trkpt>
      <trkpt lat="40.800383" lon="-4.346583">
        <ele>2232.0</ele>
        <time>2014-06-30T15:45:01Z</time>
      </trkpt>
      <trkpt lat="40.800450" lon="-4.346417">
        <ele>2229.0</ele>
        <time>2014-06-30T15:45:02Z</time>
      </trkpt>
      <trkpt lat="40.800517" lon="-4.346250">
        <ele>2227.0</ele>
        <time>2014-06-30T15:45:03Z</time>
      </trkpt>
      <trkpt lat="40.800600" lon="-4.346100">
        <ele>2224.0</ele>
        <time>2014-06-30T15:45:04Z</time>
      </trkpt>
      <trkpt lat="40.800683" lon="-4.345950">
        <ele>2222.0</ele>
        <time>2014-06-30T15:45:05Z</time>
      </trkpt>
      <trkpt lat="40.800750" lon="-4.345800">
        <ele>2220.0</ele>
        <time>2014-06-30T15:45:06Z</time>
      </trkpt>
      <trkpt lat="40.800833" lon="-4.345650">
        <ele>2217.0</ele>
        <time>2014-06-30T15:45:07Z</time>
      </trkpt>
      <trkpt lat="40.800917" lon="-4.345483">
        <ele>2214.0</ele>
        <time>2014-06-30T15:45:08Z</time>
      </trkpt>
      <trkpt lat="40.800983" lon="-4.345317">
        <ele>2211.0</ele>
        <time>2014-06-30T15:45:09Z</time>
      </trkpt>
      <trkpt lat="40.801050" lon="-4.345167">
        <ele>2208.0</ele>
        <time>2014-06-30T15:45:10Z</time>
      </trkpt>
      <trkpt lat="40.801117" lon="-4.345000">
        <ele>2206.0</ele>
        <time>2014-06-30T15:45:11Z</time>
      </trkpt>
      <trkpt lat="40.801183" lon="-4.344833">
        <ele>2203.0</ele>
        <time>2014-06-30T15:45:12Z</time>
      </trkpt>
      <trkpt lat="40.801250" lon="-4.344667">
        <ele>2200.0</ele>
        <time>2014-06-30T15:45:13Z</time>
      </trkpt>
      <trkpt lat="40.801317" lon="-4.344483">
        <ele>2197.0</ele>
        <time>2014-06-30T15:45:14Z</time>
      </trkpt>
      <trkpt lat="40.801400" lon="-4.344317">
        <ele>2195.0</ele>
        <time>2014-06-30T15:45:15Z</time>
      </trkpt>
      <trkpt lat="40.801467" lon="-4.344150">
        <ele>2194.0</ele>
        <time>2014-06-30T15:45:16Z</time>
      </trkpt>
      <trkpt lat="40.801533" lon="-4.344000">
        <ele>2194.0</ele>
        <time>2014-06-30T15:45:17Z</time>
      </trkpt>
      <trkpt lat="40.801583" lon="-4.343867">
        <ele>2193.0</ele>
        <time>2014-06-30T15:45:18Z</time>
      </trkpt>
      <trkpt lat="40.801650" lon="-4.343717">
        <ele>2191.0</ele>
        <time>2014-06-30T15:45:19Z</time>
      </trkpt>
      <trkpt lat="40.801717" lon="-4.343567">
        <ele>2189.0</ele>
        <time>2014-06-30T15:45:20Z</time>
      </trkpt>
      <trkpt lat="40.801800" lon="-4.343417">
        <ele>2187.0</ele>
        <time>2014-06-30T15:45:21Z</time>
      </trkpt>
      <trkpt lat="40.801867" lon="-4.343250">
        <ele>2185.0</ele>
        <time>2014-06-30T15:45:22Z</time>
      </trkpt>
      <trkpt lat="40.801933" lon="-4.343100">
        <ele>2182.0</ele>
        <time>2014-06-30T15:45:23Z</time>
      </trkpt>
      <trkpt lat="40.802000" lon="-4.342933">
        <ele>2180.0</ele>
        <time>2014-06-30T15:45:24Z</time>
      </trkpt>
      <trkpt lat="40.802067" lon="-4.342767">
        <ele>2178.0</ele>
        <time>2014-06-30T15:45:25Z</time>
      </trkpt>
      <trkpt lat="40.802117" lon="-4.342600">
        <ele>2175.0</ele>
        <time>2014-06-30T15:45:26Z</time>
      </trkpt>
      <trkpt lat="40.802167" lon="-4.342417">
        <ele>2173.0</ele>
        <time>2014-06-30T15:45:27Z</time>
      </trkpt>
      <trkpt lat="40.802217" lon="-4.342250">
        <ele>2170.0</ele>
        <time>2014-06-30T15:45:28Z</time>
      </trkpt>
      <trkpt lat="40.802267" lon="-4.342067">
        <ele>2167.0</ele>
        <time>2014-06-30T15:45:29Z</time>
      </trkpt>
      <trkpt lat="40.802317" lon="-4.341883">
        <ele>2163.0</ele>
        <time>2014-06-30T15:45:30Z</time>
      </trkpt>
      <trkpt lat="40.802350" lon="-4.341700">
        <ele>2160.0</ele>
        <time>2014-06-30T15:45:31Z</time>
      </trkpt>
      <trkpt lat="40.802383" lon="-4.341533">
        <ele>2156.0</ele>
        <time>2014-06-30T15:45:32Z</time>
      </trkpt>
      <trkpt lat="40.802417" lon="-4.341350">
        <ele>2153.0</ele>
        <time>2014-06-30T15:45:33Z</time>
      </trkpt>
      <trkpt lat="40.802450" lon="-4.341167">
        <ele>2149.0</ele>
        <time>2014-06-30T15:45:34Z</time>
      </trkpt>
      <trkpt lat="40.802483" lon="-4.340983">
        <ele>2145.0</ele>
        <time>2014-06-30T15:45:35Z</time>
      </trkpt>
      <trkpt lat="40.802517" lon="-4.340783">
        <ele>2141.0</ele>
        <time>2014-06-30T15:45:36Z</time>
      </trkpt>
      <trkpt lat="40.802550" lon="-4.340600">
        <ele>2137.0</ele>
        <time>2014-06-30T15:45:37Z</time>
      </trkpt>
      <trkpt lat="40.802600" lon="-4.340417">
        <ele>2133.0</ele>
        <time>2014-06-30T15:45:38Z</time>
      </trkpt>
      <trkpt lat="40.802617" lon="-4.340233">
        <ele>2130.0</ele>
        <time>2014-06-30T15:45:39Z</time>
      </trkpt>
      <trkpt lat="40.802650" lon="-4.340033">
        <ele>2126.0</ele>
        <time>2014-06-30T15:45:40Z</time>
      </trkpt>
      <trkpt lat="40.802667" lon="-4.339850">
        <ele>2122.0</ele>
        <time>2014-06-30T15:45:41Z</time>
      </trkpt>
      <trkpt lat="40.802683" lon="-4.339667">
        <ele>2118.0</ele>
        <time>2014-06-30T15:45:42Z</time>
      </trkpt>
      <trkpt lat="40.802700" lon="-4.339467">
        <ele>2114.0</ele>
        <time>2014-06-30T15:45:43Z</time>
      </trkpt>
      <trkpt lat="40.802733" lon="-4.339283">
        <ele>2111.0</ele>
        <time>2014-06-30T15:45:44Z</time>
      </trkpt>
      <trkpt lat="40.802733" lon="-4.339100">
        <ele>2107.0</ele>
        <time>2014-06-30T15:45:45Z</time>
      </trkpt>
      <trkpt lat="40.802750" lon="-4.338917">
        <ele>2103.0</ele>
        <time>2014-06-30T15:45:46Z</time>
      </trkpt>
      <trkpt lat="40.802750" lon="-4.338733">
        <ele>2100.0</ele>
        <time>2014-06-30T15:45:47Z</time>
      </trkpt>
      <trkpt lat="40.802767" lon="-4.338550">
        <ele>2096.0</ele>
        <time>2014-06-30T15:45:48Z</time>
      </trkpt>
      <trkpt lat="40.802783" lon="-4.338367">
        <ele>2092.0</ele>
        <time>2014-06-30T15:45:49Z</time>
      </trkpt>
      <trkpt lat="40.802800" lon="-4.338183">
        <ele>2088.0</ele>
        <time>2014-06-30T15:45:50Z</time>
      </trkpt>
      <trkpt lat="40.802817" lon="-4.338000">
        <ele>2084.0</ele>
        <time>2014-06-30T15:45:51Z</time>
      </trkpt>
      <trkpt lat="40.802833" lon="-4.337833">
        <ele>2080.0</ele>
        <time>2014-06-30T15:45:52Z</time>
      </trkpt>
      <trkpt lat="40.802833" lon="-4.337667">
        <ele>2077.0</ele>
        <time>2014-06-30T15:45:53Z</time>
      </trkpt>
      <trkpt lat="40.802850" lon="-4.337500">
        <ele>2075.0</ele>
        <time>2014-06-30T15:45:54Z</time>
      </trkpt>
      <trkpt lat="40.802850" lon="-4.337333">
        <ele>2073.0</ele>
        <time>2014-06-30T15:45:55Z</time>
      </trkpt>
      <trkpt lat="40.802867" lon="-4.337183">
        <ele>2071.0</ele>
        <time>2014-06-30T15:45:56Z</time>
      </trkpt>
      <trkpt lat="40.802883" lon="-4.337033">
        <ele>2070.0</ele>
        <time>2014-06-30T15:45:57Z</time>
      </trkpt>
      <trkpt lat="40.802900" lon="-4.336900">
        <ele>2069.0</ele>
        <time>2014-06-30T15:45:58Z</time>
      </trkpt>
      <trkpt lat="40.802917" lon="-4.336783">
        <ele>2068.0</ele>
        <time>2014-06-30T15:45:59Z</time>
      </trkpt>
      <trkpt lat="40.802950" lon="-4.336633">
        <ele>2066.0</ele>
        <time>2014-06-30T15:46:00Z</time>
      </trkpt>
      <trkpt lat="40.802983" lon="-4.336483">
        <ele>2063.0</ele>
        <time>2014-06-30T15:46:01Z</time>
      </trkpt>
      <trkpt lat="40.803033" lon="-4.336317">
        <ele>2060.0</ele>
        <time>2014-06-30T15:46:02Z</time>
      </trkpt>
      <trkpt lat="40.803067" lon="-4.336167">
        <ele>2058.0</ele>
        <time>2014-06-30T15:46:03Z</time>
      </trkpt>
      <trkpt lat="40.803100" lon="-4.336000">
        <ele>2056.0</ele>
        <time>2014-06-30T15:46:04Z</time>
      </trkpt>
      <trkpt lat="40.803117" lon="-4.335833">
        <ele>2054.0</ele>
        <time>2014-06-30T15:46:05Z</time>
      </trkpt>
      <trkpt lat="40.803133" lon="-4.335683">
        <ele>2051.0</ele>
        <time>2014-06-30T15:46:06Z</time>
      </trkpt>
      <trkpt lat="40.803167" lon="-4.335517">
        <ele>2049.0</ele>
        <time>2014-06-30T15:46:07Z</time>
      </trkpt>
      <trkpt lat="40.803200" lon="-4.335333">
        <ele>2047.0</ele>
        <time>2014-06-30T15:46:08Z</time>
      </trkpt>
      <trkpt lat="40.803250" lon="-4.335167">
        <ele>2044.0</ele>
        <time>2014-06-30T15:46:09Z</time>
      </trkpt>
      <trkpt lat="40.803267" lon="-4.335000">
        <ele>2042.0</ele>
        <time>2014-06-30T15:46:10Z</time>
      </trkpt>
      <trkpt lat="40.803300" lon="-4.334833">
        <ele>2040.0</ele>
        <time>2014-06-30T15:46:11Z</time>
      </trkpt>
      <trkpt lat="40.803317" lon="-4.334650">
        <ele>2038.0</ele>
        <time>2014-06-30T15:46:12Z</time>
      </trkpt>
      <trkpt lat="40.803333" lon="-4.334467">
        <ele>2035.0</ele>
        <time>2014-06-30T15:46:13Z</time>
      </trkpt>
      <trkpt lat="40.803350" lon="-4.334300">
        <ele>2033.0</ele>
        <time>2014-06-30T15:46:14Z</time>
      </trkpt>
      <trkpt lat="40.803367" lon="-4.334133">
        <ele>2031.0</ele>
        <time>2014-06-30T15:46:15Z</time>
      </trkpt>
      <trkpt lat="40.803383" lon="-4.333983">
        <ele>2030.0</ele>
        <time>2014-06-30T15:46:16Z</time>
      </trkpt>
      <trkpt lat="40.803400" lon="-4.333850">
        <ele>2028.0</ele>
        <time>2014-06-30T15:46:17Z</time>
      </trkpt>
      <trkpt lat="40.803417" lon="-4.333700">
        <ele>2026.0</ele>
        <time>2014-06-30T15:46:18Z</time>
      </trkpt>
      <trkpt lat="40.803450" lon="-4.333550">
        <ele>2023.0</ele>
        <time>2014-06-30T15:46:19Z</time>
      </trkpt>
      <trkpt lat="40.803483" lon="-4.333383">
        <ele>2019.0</ele>
        <time>2014-06-30T15:46:20Z</time>
      </trkpt>
      <trkpt lat="40.803500" lon="-4.333200">
        <ele>2015.0</ele>
        <time>2014-06-30T15:46:21Z</time>
      </trkpt>
      <trkpt lat="40.803533" lon="-4.333017">
        <ele>2012.0</ele>
        <time>2014-06-30T15:46:22Z</time>
      </trkpt>
      <trkpt lat="40.803567" lon="-4.332817">
        <ele>2009.0</ele>
        <time>2014-06-30T15:46:23Z</time>
      </trkpt>
      <trkpt lat="40.803583" lon="-4.332633">
        <ele>2007.0</ele>
        <time>2014-06-30T15:46:24Z</time>
      </trkpt>
      <trkpt lat="40.803583" lon="-4.332467">
        <ele>2005.0</ele>
        <time>2014-06-30T15:46:25Z</time>
      </trkpt>
      <trkpt lat="40.803600" lon="-4.332283">
        <ele>2003.0</ele>
        <time>2014-06-30T15:46:26Z</time>
      </trkpt>
      <trkpt lat="40.803617" lon="-4.332083">
        <ele>2001.0</ele>
        <time>2014-06-30T15:46:27Z</time>
      </trkpt>
      <trkpt lat="40.803633" lon="-4.331883">
        <ele>1999.0</ele>
        <time>2014-06-30T15:46:28Z</time>
      </trkpt>
      <trkpt lat="40.803650" lon="-4.331717">
        <ele>1997.0</ele>
        <time>2014-06-30T15:46:29Z</time>
      </trkpt>
      <trkpt lat="40.803667" lon="-4.331567">
        <ele>1997.0</ele>
        <time>2014-06-30T15:46:30Z</time>
      </trkpt>
      <trkpt lat="40.803683" lon="-4.331417">
        <ele>1997.0</ele>
        <time>2014-06-30T15:46:31Z</time>
      </trkpt>
      <trkpt lat="40.803700" lon="-4.331283">
        <ele>1997.0</ele>
        <time>2014-06-30T15:46:32Z</time>
      </trkpt>
      <trkpt lat="40.803717" lon="-4.331150">
        <ele>1995.0</ele>
        <time>2014-06-30T15:46:33Z</time>
      </trkpt>
      <trkpt lat="40.803717" lon="-4.331000">
        <ele>1993.0</ele>
        <time>2014-06-30T15:46:34Z</time>
      </trkpt>
      <trkpt lat="40.803733" lon="-4.330833">
        <ele>1990.0</ele>
        <time>2014-06-30T15:46:35Z</time>
      </trkpt>
      <trkpt lat="40.803733" lon="-4.330650">
        <ele>1988.0</ele>
        <time>2014-06-30T15:46:36Z</time>
      </trkpt>
      <trkpt lat="40.803750" lon="-4.330483">
        <ele>1986.0</ele>
        <time>2014-06-30T15:46:37Z</time>
      </trkpt>
      <trkpt lat="40.803767" lon="-4.330317">
        <ele>1983.0</ele>
        <time>2014-06-30T15:46:38Z</time>
      </trkpt>
      <trkpt lat="40.803800" lon="-4.330133">
        <ele>1981.0</ele>
        <time>2014-06-30T15:46:39Z</time>
      </trkpt>
      <trkpt lat="40.803817" lon="-4.329950">
        <ele>1978.0</ele>
        <time>2014-06-30T15:46:40Z</time>
      </trkpt>
      <trkpt lat="40.803833" lon="-4.329767">
        <ele>1974.0</ele>
        <time>2014-06-30T15:46:41Z</time>
      </trkpt>
      <trkpt lat="40.803850" lon="-4.329583">
        <ele>1971.0</ele>
        <time>2014-06-30T15:46:42Z</time>
      </trkpt>
      <trkpt lat="40.803867" lon="-4.329400">
        <ele>1969.0</ele>
        <time>2014-06-30T15:46:43Z</time>
      </trkpt>
      <trkpt lat="40.803883" lon="-4.329233">
        <ele>1968.0</ele>
        <time>2014-06-30T15:46:44Z</time>
      </trkpt>
      <trkpt lat="40.803883" lon="-4.329083">
        <ele>1966.0</ele>
        <time>2014-06-30T15:46:45Z</time>
      </trkpt>
      <trkpt lat="40.803883" lon="-4.328950">
        <ele>1964.0</ele>
        <time>2014-06-30T15:46:46Z</time>
      </trkpt>
      <trkpt lat="40.803883" lon="-4.328783">
        <ele>1960.0</ele>
        <time>2014-06-30T15:46:47Z</time>
      </trkpt>
      <trkpt lat="40.803883" lon="-4.328617">
        <ele>1957.0</ele>
        <time>2014-06-30T15:46:48Z</time>
      </trkpt>
      <trkpt lat="40.803883" lon="-4.328450">
        <ele>1954.0</ele>
        <time>2014-06-30T15:46:49Z</time>
      </trkpt>
      <trkpt lat="40.803900" lon="-4.328267">
        <ele>1951.0</ele>
        <time>2014-06-30T15:46:50Z</time>
      </trkpt>
      <trkpt lat="40.803900" lon="-4.328100">
        <ele>1948.0</ele>
        <time>2014-06-30T15:46:51Z</time>
      </trkpt>
      <trkpt lat="40.803917" lon="-4.327933">
        <ele>1945.0</ele>
        <time>2014-06-30T15:46:52Z</time>
      </trkpt>
      <trkpt lat="40.803933" lon="-4.327750">
        <ele>1942.0</ele>
        <time>2014-06-30T15:46:53Z</time>
      </trkpt>
      <trkpt lat="40.803967" lon="-4.327550">
        <ele>1939.0</ele>
        <time>2014-06-30T15:46:54Z</time>
      </trkpt>
      <trkpt lat="40.803983" lon="-4.327367">
        <ele>1936.0</ele>
        <time>2014-06-30T15:46:55Z</time>
      </trkpt>
      <trkpt lat="40.804000" lon="-4.327183">
        <ele>1933.0</ele>
        <time>2014-06-30T15:46:56Z</time>
      </trkpt>
      <trkpt lat="40.804017" lon="-4.327000">
        <ele>1930.0</ele>
        <time>2014-06-30T15:46:57Z</time>
      </trkpt>
      <trkpt lat="40.804017" lon="-4.326800">
        <ele>1927.0</ele>
        <time>2014-06-30T15:46:58Z</time>
      </trkpt>
      <trkpt lat="40.804017" lon="-4.326600">
        <ele>1924.0</ele>
        <time>2014-06-30T15:46:59Z</time>
      </trkpt>
      <trkpt lat="40.804033" lon="-4.326400">
        <ele>1920.0</ele>
        <time>2014-06-30T15:47:00Z</time>
      </trkpt>
      <trkpt lat="40.804050" lon="-4.326183">
        <ele>1917.0</ele>
        <time>2014-06-30T15:47:01Z</time>
      </trkpt>
      <trkpt lat="40.804050" lon="-4.325967">
        <ele>1914.0</ele>
        <time>2014-06-30T15:47:02Z</time>
      </trkpt>
      <trkpt lat="40.804050" lon="-4.325750">
        <ele>1911.0</ele>
        <time>2014-06-30T15:47:03Z</time>
      </trkpt>
      <trkpt lat="40.804033" lon="-4.325550">
        <ele>1910.0</ele>
        <time>2014-06-30T15:47:04Z</time>
      </trkpt>
      <trkpt lat="40.804017" lon="-4.325367">
        <ele>1909.0</ele>
        <time>2014-06-30T15:47:05Z</time>
      </trkpt>
      <trkpt lat="40.804000" lon="-4.325183">
        <ele>1909.0</ele>
        <time>2014-06-30T15:47:06Z</time>
      </trkpt>
      <trkpt lat="40.804000" lon="-4.325017">
        <ele>1907.0</ele>
        <time>2014-06-30T15:47:07Z</time>
      </trkpt>
      <trkpt lat="40.803983" lon="-4.324833">
        <ele>1905.0</ele>
        <time>2014-06-30T15:47:08Z</time>
      </trkpt>
      <trkpt lat="40.803967" lon="-4.324650">
        <ele>1903.0</ele>
        <time>2014-06-30T15:47:09Z</time>
      </trkpt>
      <trkpt lat="40.803950" lon="-4.324450">
        <ele>1901.0</ele>
        <time>2014-06-30T15:47:10Z</time>
      </trkpt>
      <trkpt lat="40.803933" lon="-4.324283">
        <ele>1899.0</ele>
        <time>2014-06-30T15:47:11Z</time>
      </trkpt>
      <trkpt lat="40.803917" lon="-4.324100">
        <ele>1898.0</ele>
        <time>2014-06-30T15:47:12Z</time>
      </trkpt>
      <trkpt lat="40.803917" lon="-4.323933">
        <ele>1896.0</ele>
        <time>2014-06-30T15:47:13Z</time>
      </trkpt>
      <trkpt lat="40.803900" lon="-4.323750">
        <ele>1895.0</ele>
        <time>2014-06-30T15:47:14Z</time>
      </trkpt>
      <trkpt lat="40.803900" lon="-4.323550">
        <ele>1893.0</ele>
        <time>2014-06-30T15:47:15Z</time>
      </trkpt>
      <trkpt lat="40.803900" lon="-4.323317">
        <ele>1891.0</ele>
        <time>2014-06-30T15:47:16Z</time>
      </trkpt>
      <trkpt lat="40.803917" lon="-4.323117">
        <ele>1890.0</ele>
        <time>2014-06-30T15:47:17Z</time>
      </trkpt>
      <trkpt lat="40.803950" lon="-4.322917">
        <ele>1890.0</ele>
        <time>2014-06-30T15:47:18Z</time>
      </trkpt>
      <trkpt lat="40.803983" lon="-4.322700">
        <ele>1892.0</ele>
        <time>2014-06-30T15:47:19Z</time>
      </trkpt>
      <trkpt lat="40.804017" lon="-4.322550">
        <ele>1900.0</ele>
        <time>2014-06-30T15:47:20Z</time>
      </trkpt>
      <trkpt lat="40.804033" lon="-4.322400">
        <ele>1902.0</ele>
        <time>2014-06-30T15:47:21Z</time>
      </trkpt>
      <trkpt lat="40.804050" lon="-4.322233">
        <ele>1904.0</ele>
        <time>2014-06-30T15:47:22Z</time>
      </trkpt>
      <trkpt lat="40.804067" lon="-4.322067">
        <ele>1906.0</ele>
        <time>2014-06-30T15:47:23Z</time>
      </trkpt>
      <trkpt lat="40.804083" lon="-4.321883">
        <ele>1909.0</ele>
        <time>2014-06-30T15:47:24Z</time>
      </trkpt>
      <trkpt lat="40.804083" lon="-4.321700">
        <ele>1912.0</ele>
        <time>2014-06-30T15:47:25Z</time>
      </trkpt>
      <trkpt lat="40.804067" lon="-4.321533">
        <ele>1914.0</ele>
        <time>2014-06-30T15:47:26Z</time>
      </trkpt>
      <trkpt lat="40.804050" lon="-4.321367">
        <ele>1917.0</ele>
        <time>2014-06-30T15:47:27Z</time>
      </trkpt>
      <trkpt lat="40.804000" lon="-4.321183">
        <ele>1919.0</ele>
        <time>2014-06-30T15:47:28Z</time>
      </trkpt>
      <trkpt lat="40.803950" lon="-4.321017">
        <ele>1922.0</ele>
        <time>2014-06-30T15:47:29Z</time>
      </trkpt>
      <trkpt lat="40.803883" lon="-4.320867">
        <ele>1924.0</ele>
        <time>2014-06-30T15:47:30Z</time>
      </trkpt>
      <trkpt lat="40.803800" lon="-4.320733">
        <ele>1927.0</ele>
        <time>2014-06-30T15:47:31Z</time>
      </trkpt>
      <trkpt lat="40.803717" lon="-4.320667">
        <ele>1931.0</ele>
        <time>2014-06-30T15:47:32Z</time>
      </trkpt>
      <trkpt lat="40.803667" lon="-4.320650">
        <ele>1934.0</ele>
        <time>2014-06-30T15:47:33Z</time>
      </trkpt>
      <trkpt lat="40.803600" lon="-4.320667">
        <ele>1936.0</ele>
        <time>2014-06-30T15:47:34Z</time>
      </trkpt>
      <trkpt lat="40.803550" lon="-4.320700">
        <ele>1939.0</ele>
        <time>2014-06-30T15:47:35Z</time>
      </trkpt>
      <trkpt lat="40.803533" lon="-4.320733">
        <ele>1941.0</ele>
        <time>2014-06-30T15:47:36Z</time>
      </trkpt>
      <trkpt lat="40.803533" lon="-4.320800">
        <ele>1944.0</ele>
        <time>2014-06-30T15:47:37Z</time>
      </trkpt>
      <trkpt lat="40.803550" lon="-4.320833">
        <ele>1947.0</ele>
        <time>2014-06-30T15:47:38Z</time>
      </trkpt>
      <trkpt lat="40.803583" lon="-4.320883">
        <ele>1949.0</ele>
        <time>2014-06-30T15:47:39Z</time>
      </trkpt>
      <trkpt lat="40.803617" lon="-4.320917">
        <ele>1952.0</ele>
        <time>2014-06-30T15:47:40Z</time>
      </trkpt>
      <trkpt lat="40.803650" lon="-4.320950">
        <ele>1955.0</ele>
        <time>2014-06-30T15:47:41Z</time>
      </trkpt>
      <trkpt lat="40.803700" lon="-4.320967">
        <ele>1958.0</ele>
        <time>2014-06-30T15:47:42Z</time>
      </trkpt>
      <trkpt lat="40.803733" lon="-4.320983">
        <ele>1960.0</ele>
        <time>2014-06-30T15:47:43Z</time>
      </trkpt>
      <trkpt lat="40.803783" lon="-4.320967">
        <ele>1963.0</ele>
        <time>2014-06-30T15:47:44Z</time>
      </trkpt>
      <trkpt lat="40.803850" lon="-4.320950">
        <ele>1965.0</ele>
        <time>2014-06-30T15:47:45Z</time>
      </trkpt>
      <trkpt lat="40.803933" lon="-4.320917">
        <ele>1967.0</ele>
        <time>2014-06-30T15:47:46Z</time>
      </trkpt>
      <trkpt lat="40.804033" lon="-4.320867">
        <ele>1968.0</ele>
        <time>2014-06-30T15:47:47Z</time>
      </trkpt>
      <trkpt lat="40.804133" lon="-4.320767">
        <ele>1969.0</ele>
        <time>2014-06-30T15:47:48Z</time>
      </trkpt>
      <trkpt lat="40.804233" lon="-4.320633">
        <ele>1970.0</ele>
        <time>2014-06-30T15:47:49Z</time>
      </trkpt>
      <trkpt lat="40.804317" lon="-4.320483">
        <ele>1972.0</ele>
        <time>2014-06-30T15:47:50Z</time>
      </trkpt>
      <trkpt lat="40.804367" lon="-4.320333">
        <ele>1974.0</ele>
        <time>2014-06-30T15:47:51Z</time>
      </trkpt>
      <trkpt lat="40.804417" lon="-4.320200">
        <ele>1977.0</ele>
        <time>2014-06-30T15:47:52Z</time>
      </trkpt>
      <trkpt lat="40.804450" lon="-4.320067">
        <ele>1979.0</ele>
        <time>2014-06-30T15:47:53Z</time>
      </trkpt>
      <trkpt lat="40.804483" lon="-4.319933">
        <ele>1981.0</ele>
        <time>2014-06-30T15:47:54Z</time>
      </trkpt>
      <trkpt lat="40.804517" lon="-4.319800">
        <ele>1982.0</ele>
        <time>2014-06-30T15:47:55Z</time>
      </trkpt>
      <trkpt lat="40.804550" lon="-4.319633">
        <ele>1982.0</ele>
        <time>2014-06-30T15:47:56Z</time>
      </trkpt>
      <trkpt lat="40.804567" lon="-4.319467">
        <ele>1981.0</ele>
        <time>2014-06-30T15:47:57Z</time>
      </trkpt>
      <trkpt lat="40.804567" lon="-4.319283">
        <ele>1981.0</ele>
        <time>2014-06-30T15:47:58Z</time>
      </trkpt>
      <trkpt lat="40.804583" lon="-4.319083">
        <ele>1980.0</ele>
        <time>2014-06-30T15:47:59Z</time>
      </trkpt>
      <trkpt lat="40.804567" lon="-4.318900">
        <ele>1979.0</ele>
        <time>2014-06-30T15:48:00Z</time>
      </trkpt>
      <trkpt lat="40.804533" lon="-4.318717">
        <ele>1978.0</ele>
        <time>2014-06-30T15:48:01Z</time>
      </trkpt>
      <trkpt lat="40.804500" lon="-4.318517">
        <ele>1977.0</ele>
        <time>2014-06-30T15:48:02Z</time>
      </trkpt>
      <trkpt lat="40.804433" lon="-4.318350">
        <ele>1976.0</ele>
        <time>2014-06-30T15:48:03Z</time>
      </trkpt>
      <trkpt lat="40.804367" lon="-4.318183">
        <ele>1972.0</ele>
        <time>2014-06-30T15:48:04Z</time>
      </trkpt>
      <trkpt lat="40.804300" lon="-4.318017">
        <ele>1968.0</ele>
        <time>2014-06-30T15:48:05Z</time>
      </trkpt>
      <trkpt lat="40.804250" lon="-4.317833">
        <ele>1967.0</ele>
        <time>2014-06-30T15:48:06Z</time>
      </trkpt>
      <trkpt lat="40.804200" lon="-4.317650">
        <ele>1966.0</ele>
        <time>2014-06-30T15:48:07Z</time>
      </trkpt>
      <trkpt lat="40.804167" lon="-4.317467">
        <ele>1965.0</ele>
        <time>2014-06-30T15:48:08Z</time>
      </trkpt>
      <trkpt lat="40.804133" lon="-4.317300">
        <ele>1965.0</ele>
        <time>2014-06-30T15:48:09Z</time>
      </trkpt>
      <trkpt lat="40.804100" lon="-4.317133">
        <ele>1965.0</ele>
        <time>2014-06-30T15:48:10Z</time>
      </trkpt>
      <trkpt lat="40.804083" lon="-4.316950">
        <ele>1965.0</ele>
        <time>2014-06-30T15:48:11Z</time>
      </trkpt>
      <trkpt lat="40.804067" lon="-4.316767">
        <ele>1966.0</ele>
        <time>2014-06-30T15:48:12Z</time>
      </trkpt>
      <trkpt lat="40.804050" lon="-4.316600">
        <ele>1968.0</ele>
        <time>2014-06-30T15:48:13Z</time>
      </trkpt>
      <trkpt lat="40.804050" lon="-4.316433">
        <ele>1970.0</ele>
        <time>2014-06-30T15:48:14Z</time>
      </trkpt>
      <trkpt lat="40.804050" lon="-4.316267">
        <ele>1971.0</ele>
        <time>2014-06-30T15:48:15Z</time>
      </trkpt>
      <trkpt lat="40.804050" lon="-4.316100">
        <ele>1972.0</ele>
        <time>2014-06-30T15:48:16Z</time>
      </trkpt>
      <trkpt lat="40.804083" lon="-4.315917">
        <ele>1974.0</ele>
        <time>2014-06-30T15:48:17Z</time>
      </trkpt>
      <trkpt lat="40.804117" lon="-4.315750">
        <ele>1976.0</ele>
        <time>2014-06-30T15:48:18Z</time>
      </trkpt>
      <trkpt lat="40.804167" lon="-4.315583">
        <ele>1979.0</ele>
        <time>2014-06-30T15:48:19Z</time>
      </trkpt>
      <trkpt lat="40.804233" lon="-4.315433">
        <ele>1982.0</ele>
        <time>2014-06-30T15:48:20Z</time>
      </trkpt>
      <trkpt lat="40.804317" lon="-4.315300">
        <ele>1985.0</ele>
        <time>2014-06-30T15:48:21Z</time>
      </trkpt>
      <trkpt lat="40.804383" lon="-4.315167">
        <ele>1988.0</ele>
        <time>2014-06-30T15:48:22Z</time>
      </trkpt>
      <trkpt lat="40.804450" lon="-4.315033">
        <ele>1992.0</ele>
        <time>2014-06-30T15:48:23Z</time>
      </trkpt>
      <trkpt lat="40.804500" lon="-4.314850">
        <ele>1995.0</ele>
        <time>2014-06-30T15:48:24Z</time>
      </trkpt>
      <trkpt lat="40.804500" lon="-4.314650">
        <ele>1998.0</ele>
        <time>2014-06-30T15:48:25Z</time>
      </trkpt>
      <trkpt lat="40.804483" lon="-4.314450">
        <ele>2001.0</ele>
        <time>2014-06-30T15:48:26Z</time>
      </trkpt>
      <trkpt lat="40.804417" lon="-4.314283">
        <ele>2005.0</ele>
        <time>2014-06-30T15:48:27Z</time>
      </trkpt>
      <trkpt lat="40.804350" lon="-4.314150">
        <ele>2009.0</ele>
        <time>2014-06-30T15:48:28Z</time>
      </trkpt>
      <trkpt lat="40.804283" lon="-4.314050">
        <ele>2012.0</ele>
        <time>2014-06-30T15:48:29Z</time>
      </trkpt>
      <trkpt lat="40.804200" lon="-4.313967">
        <ele>2015.0</ele>
        <time>2014-06-30T15:48:30Z</time>
      </trkpt>
      <trkpt lat="40.804133" lon="-4.313917">
        <ele>2017.0</ele>
        <time>2014-06-30T15:48:31Z</time>
      </trkpt>
      <trkpt lat="40.804050" lon="-4.313867">
        <ele>2020.0</ele>
        <time>2014-06-30T15:48:32Z</time>
      </trkpt>
      <trkpt lat="40.803983" lon="-4.313850">
        <ele>2022.0</ele>
        <time>2014-06-30T15:48:33Z</time>
      </trkpt>
      <trkpt lat="40.803917" lon="-4.313867">
        <ele>2025.0</ele>
        <time>2014-06-30T15:48:34Z</time>
      </trkpt>
      <trkpt lat="40.803900" lon="-4.313967">
        <ele>2028.0</ele>
        <time>2014-06-30T15:48:35Z</time>
      </trkpt>
      <trkpt lat="40.803917" lon="-4.314017">
        <ele>2019.0</ele>
        <time>2014-06-30T15:48:36Z</time>
      </trkpt>
      <trkpt lat="40.803950" lon="-4.314067">
        <ele>2019.0</ele>
        <time>2014-06-30T15:48:37Z</time>
      </trkpt>
      <trkpt lat="40.803983" lon="-4.314117">
        <ele>2019.0</ele>
        <time>2014-06-30T15:48:38Z</time>
      </trkpt>
      <trkpt lat="40.804033" lon="-4.314133">
        <ele>2020.0</ele>
        <time>2014-06-30T15:48:39Z</time>
      </trkpt>
      <trkpt lat="40.804083" lon="-4.314150">
        <ele>2022.0</ele>
        <time>2014-06-30T15:48:40Z</time>
      </trkpt>
      <trkpt lat="40.804133" lon="-4.314167">
        <ele>2023.0</ele>
        <time>2014-06-30T15:48:41Z</time>
      </trkpt>
      <trkpt lat="40.804183" lon="-4.314217">
        <ele>2025.0</ele>
        <time>2014-06-30T15:48:42Z</time>
      </trkpt>
      <trkpt lat="40.804267" lon="-4.314250">
        <ele>2026.0</ele>
        <time>2014-06-30T15:48:43Z</time>
      </trkpt>
      <trkpt lat="40.804350" lon="-4.314250">
        <ele>2028.0</ele>
        <time>2014-06-30T15:48:44Z</time>
      </trkpt>
      <trkpt lat="40.804450" lon="-4.314217">
        <ele>2029.0</ele>
        <time>2014-06-30T15:48:45Z</time>
      </trkpt>
      <trkpt lat="40.804550" lon="-4.314167">
        <ele>2031.0</ele>
        <time>2014-06-30T15:48:46Z</time>
      </trkpt>
      <trkpt lat="40.804633" lon="-4.314117">
        <ele>2033.0</ele>
        <time>2014-06-30T15:48:47Z</time>
      </trkpt>
      <trkpt lat="40.804717" lon="-4.314067">
        <ele>2036.0</ele>
        <time>2014-06-30T15:48:48Z</time>
      </trkpt>
      <trkpt lat="40.804800" lon="-4.314017">
        <ele>2038.0</ele>
        <time>2014-06-30T15:48:49Z</time>
      </trkpt>
      <trkpt lat="40.804867" lon="-4.313983">
        <ele>2040.0</ele>
        <time>2014-06-30T15:48:50Z</time>
      </trkpt>
      <trkpt lat="40.804950" lon="-4.313917">
        <ele>2042.0</ele>
        <time>2014-06-30T15:48:51Z</time>
      </trkpt>
      <trkpt lat="40.805033" lon="-4.313817">
        <ele>2044.0</ele>
        <time>2014-06-30T15:48:52Z</time>
      </trkpt>
      <trkpt lat="40.805117" lon="-4.313700">
        <ele>2045.0</ele>
        <time>2014-06-30T15:48:53Z</time>
      </trkpt>
      <trkpt lat="40.805200" lon="-4.313583">
        <ele>2048.0</ele>
        <time>2014-06-30T15:48:54Z</time>
      </trkpt>
      <trkpt lat="40.805267" lon="-4.313467">
        <ele>2050.0</ele>
        <time>2014-06-30T15:48:55Z</time>
      </trkpt>
      <trkpt lat="40.805333" lon="-4.313350">
        <ele>2053.0</ele>
        <time>2014-06-30T15:48:56Z</time>
      </trkpt>
      <trkpt lat="40.805383" lon="-4.313217">
        <ele>2056.0</ele>
        <time>2014-06-30T15:48:57Z</time>
      </trkpt>
      <trkpt lat="40.805417" lon="-4.313067">
        <ele>2058.0</ele>
        <time>2014-06-30T15:48:58Z</time>
      </trkpt>
      <trkpt lat="40.805467" lon="-4.312933">
        <ele>2062.0</ele>
        <time>2014-06-30T15:48:59Z</time>
      </trkpt>
      <trkpt lat="40.805517" lon="-4.312817">
        <ele>2065.0</ele>
        <time>2014-06-30T15:49:00Z</time>
      </trkpt>
      <trkpt lat="40.805533" lon="-4.312683">
        <ele>2069.0</ele>
        <time>2014-06-30T15:49:01Z</time>
      </trkpt>
      <trkpt lat="40.805550" lon="-4.312533">
        <ele>2071.0</ele>
        <time>2014-06-30T15:49:02Z</time>
      </trkpt>
      <trkpt lat="40.805567" lon="-4.312383">
        <ele>2073.0</ele>
        <time>2014-06-30T15:49:03Z</time>
      </trkpt>
      <trkpt lat="40.805567" lon="-4.312200">
        <ele>2075.0</ele>
        <time>2014-06-30T15:49:04Z</time>
      </trkpt>
      <trkpt lat="40.805567" lon="-4.312017">
        <ele>2076.0</ele>
        <time>2014-06-30T15:49:05Z</time>
      </trkpt>
      <trkpt lat="40.805567" lon="-4.311833">
        <ele>2077.0</ele>
        <time>2014-06-30T15:49:06Z</time>
      </trkpt>
      <trkpt lat="40.805550" lon="-4.311650">
        <ele>2078.0</ele>
        <time>2014-06-30T15:49:07Z</time>
      </trkpt>
      <trkpt lat="40.805533" lon="-4.311483">
        <ele>2080.0</ele>
        <time>2014-06-30T15:49:08Z</time>
      </trkpt>
      <trkpt lat="40.805500" lon="-4.311317">
        <ele>2081.0</ele>
        <time>2014-06-30T15:49:09Z</time>
      </trkpt>
      <trkpt lat="40.805483" lon="-4.311150">
        <ele>2081.0</ele>
        <time>2014-06-30T15:49:10Z</time>
      </trkpt>
      <trkpt lat="40.805450" lon="-4.310967">
        <ele>2081.0</ele>
        <time>2014-06-30T15:49:11Z</time>
      </trkpt>
      <trkpt lat="40.805417" lon="-4.310783">
        <ele>2082.0</ele>
        <time>2014-06-30T15:49:12Z</time>
      </trkpt>
      <trkpt lat="40.805367" lon="-4.310617">
        <ele>2082.0</ele>
        <time>2014-06-30T15:49:13Z</time>
      </trkpt>
      <trkpt lat="40.805300" lon="-4.310450">
        <ele>2081.0</ele>
        <time>2014-06-30T15:49:14Z</time>
      </trkpt>
      <trkpt lat="40.805217" lon="-4.310300">
        <ele>2081.0</ele>
        <time>2014-06-30T15:49:15Z</time>
      </trkpt>
      <trkpt lat="40.805117" lon="-4.310150">
        <ele>2082.0</ele>
        <time>2014-06-30T15:49:16Z</time>
      </trkpt>
      <trkpt lat="40.805033" lon="-4.309983">
        <ele>2084.0</ele>
        <time>2014-06-30T15:49:17Z</time>
      </trkpt>
      <trkpt lat="40.804967" lon="-4.309817">
        <ele>2086.0</ele>
        <time>2014-06-30T15:49:18Z</time>
      </trkpt>
      <trkpt lat="40.804917" lon="-4.309650">
        <ele>2086.0</ele>
        <time>2014-06-30T15:49:19Z</time>
      </trkpt>
      <trkpt lat="40.804867" lon="-4.309450">
        <ele>2087.0</ele>
        <time>2014-06-30T15:49:20Z</time>
      </trkpt>
      <trkpt lat="40.804833" lon="-4.309267">
        <ele>2088.0</ele>
        <time>2014-06-30T15:49:21Z</time>
      </trkpt>
      <trkpt lat="40.804783" lon="-4.309083">
        <ele>2089.0</ele>
        <time>2014-06-30T15:49:22Z</time>
      </trkpt>
      <trkpt lat="40.804733" lon="-4.308900">
        <ele>2091.0</ele>
        <time>2014-06-30T15:49:23Z</time>
      </trkpt>
      <trkpt lat="40.804683" lon="-4.308717">
        <ele>2091.0</ele>
        <time>2014-06-30T15:49:24Z</time>
      </trkpt>
      <trkpt lat="40.804617" lon="-4.308533">
        <ele>2092.0</ele>
        <time>2014-06-30T15:49:25Z</time>
      </trkpt>
      <trkpt lat="40.804550" lon="-4.308383">
        <ele>2093.0</ele>
        <time>2014-06-30T15:49:26Z</time>
      </trkpt>
      <trkpt lat="40.804450" lon="-4.308283">
        <ele>2094.0</ele>
        <time>2014-06-30T15:49:27Z</time>
      </trkpt>
      <trkpt lat="40.804367" lon="-4.308200">
        <ele>2095.0</ele>
        <time>2014-06-30T15:49:28Z</time>
      </trkpt>
      <trkpt lat="40.804283" lon="-4.308150">
        <ele>2097.0</ele>
        <time>2014-06-30T15:49:29Z</time>
      </trkpt>
      <trkpt lat="40.804233" lon="-4.308133">
        <ele>2098.0</ele>
        <time>2014-06-30T15:49:30Z</time>
      </trkpt>
      <trkpt lat="40.804183" lon="-4.308150">
        <ele>2098.0</ele>
        <time>2014-06-30T15:49:31Z</time>
      </trkpt>
      <trkpt lat="40.804133" lon="-4.308150">
        <ele>2098.0</ele>
        <time>2014-06-30T15:49:32Z</time>
      </trkpt>
      <trkpt lat="40.804117" lon="-4.308150">
        <ele>2097.0</ele>
        <time>2014-06-30T15:49:33Z</time>
      </trkpt>
      <trkpt lat="40.804100" lon="-4.308183">
        <ele>2095.0</ele>
        <time>2014-06-30T15:49:34Z</time>
      </trkpt>
      <trkpt lat="40.804100" lon="-4.308217">
        <ele>2094.0</ele>
        <time>2014-06-30T15:49:35Z</time>
      </trkpt>
      <trkpt lat="40.804100" lon="-4.308250">
        <ele>2092.0</ele>
        <time>2014-06-30T15:49:36Z</time>
      </trkpt>
      <trkpt lat="40.804100" lon="-4.308300">
        <ele>2092.0</ele>
        <time>2014-06-30T15:49:37Z</time>
      </trkpt>
      <trkpt lat="40.804083" lon="-4.308333">
        <ele>2093.0</ele>
        <time>2014-06-30T15:49:38Z</time>
      </trkpt>
      <trkpt lat="40.804050" lon="-4.308350">
        <ele>2093.0</ele>
        <time>2014-06-30T15:49:39Z</time>
      </trkpt>
      <trkpt lat="40.804050" lon="-4.308383">
        <ele>2094.0</ele>
        <time>2014-06-30T15:49:40Z</time>
      </trkpt>
      <trkpt lat="40.804083" lon="-4.308383">
        <ele>2094.0</ele>
        <time>2014-06-30T15:49:41Z</time>
      </trkpt>
      <trkpt lat="40.804117" lon="-4.308400">
        <ele>2094.0</ele>
        <time>2014-06-30T15:49:42Z</time>
      </trkpt>
      <trkpt lat="40.804133" lon="-4.308433">
        <ele>2092.0</ele>
        <time>2014-06-30T15:49:43Z</time>
      </trkpt>
      <trkpt lat="40.804150" lon="-4.308450">
        <ele>2092.0</ele>
        <time>2014-06-30T15:49:44Z</time>
      </trkpt>
      <trkpt lat="40.804167" lon="-4.308467">
        <ele>2093.0</ele>
        <time>2014-06-30T15:49:45Z</time>
      </trkpt>
      <trkpt lat="40.804183" lon="-4.308450">
        <ele>2096.0</ele>
        <time>2014-06-30T15:49:46Z</time>
      </trkpt>
      <trkpt lat="40.804217" lon="-4.308433">
        <ele>2096.0</ele>
        <time>2014-06-30T15:49:47Z</time>
      </trkpt>
      <trkpt lat="40.804267" lon="-4.308417">
        <ele>2097.0</ele>
        <time>2014-06-30T15:49:48Z</time>
      </trkpt>
      <trkpt lat="40.804333" lon="-4.308417">
        <ele>2097.0</ele>
        <time>2014-06-30T15:49:49Z</time>
      </trkpt>
      <trkpt lat="40.804417" lon="-4.308417">
        <ele>2097.0</ele>
        <time>2014-06-30T15:49:50Z</time>
      </trkpt>
      <trkpt lat="40.804500" lon="-4.308400">
        <ele>2098.0</ele>
        <time>2014-06-30T15:49:51Z</time>
      </trkpt>
      <trkpt lat="40.804567" lon="-4.308350">
        <ele>2100.0</ele>
        <time>2014-06-30T15:49:52Z</time>
      </trkpt>
      <trkpt lat="40.804650" lon="-4.308300">
        <ele>2102.0</ele>
        <time>2014-06-30T15:49:53Z</time>
      </trkpt>
      <trkpt lat="40.804717" lon="-4.308250">
        <ele>2103.0</ele>
        <time>2014-06-30T15:49:54Z</time>
      </trkpt>
      <trkpt lat="40.804767" lon="-4.308217">
        <ele>2104.0</ele>
        <time>2014-06-30T15:49:55Z</time>
      </trkpt>
      <trkpt lat="40.804850" lon="-4.308200">
        <ele>2104.0</ele>
        <time>2014-06-30T15:49:56Z</time>
      </trkpt>
      <trkpt lat="40.804917" lon="-4.308183">
        <ele>2105.0</ele>
        <time>2014-06-30T15:49:57Z</time>
      </trkpt>
      <trkpt lat="40.805017" lon="-4.308167">
        <ele>2105.0</ele>
        <time>2014-06-30T15:49:58Z</time>
      </trkpt>
      <trkpt lat="40.805100" lon="-4.308150">
        <ele>2104.0</ele>
        <time>2014-06-30T15:49:59Z</time>
      </trkpt>
      <trkpt lat="40.805200" lon="-4.308133">
        <ele>2104.0</ele>
        <time>2014-06-30T15:50:00Z</time>
      </trkpt>
      <trkpt lat="40.805267" lon="-4.308067">
        <ele>2105.0</ele>
        <time>2014-06-30T15:50:01Z</time>
      </trkpt>
      <trkpt lat="40.805350" lon="-4.308000">
        <ele>2105.0</ele>
        <time>2014-06-30T15:50:02Z</time>
      </trkpt>
      <trkpt lat="40.805433" lon="-4.307917">
        <ele>2105.0</ele>
        <time>2014-06-30T15:50:03Z</time>
      </trkpt>
      <trkpt lat="40.805517" lon="-4.307817">
        <ele>2105.0</ele>
        <time>2014-06-30T15:50:04Z</time>
      </trkpt>
      <trkpt lat="40.805600" lon="-4.307700">
        <ele>2107.0</ele>
        <time>2014-06-30T15:50:05Z</time>
      </trkpt>
      <trkpt lat="40.805667" lon="-4.307600">
        <ele>2109.0</ele>
        <time>2014-06-30T15:50:06Z</time>
      </trkpt>
      <trkpt lat="40.805733" lon="-4.307500">
        <ele>2112.0</ele>
        <time>2014-06-30T15:50:07Z</time>
      </trkpt>
      <trkpt lat="40.805767" lon="-4.307383">
        <ele>2113.0</ele>
        <time>2014-06-30T15:50:08Z</time>
      </trkpt>
      <trkpt lat="40.805817" lon="-4.307267">
        <ele>2114.0</ele>
        <time>2014-06-30T15:50:09Z</time>
      </trkpt>
      <trkpt lat="40.805867" lon="-4.307150">
        <ele>2115.0</ele>
        <time>2014-06-30T15:50:10Z</time>
      </trkpt>
      <trkpt lat="40.805917" lon="-4.307017">
        <ele>2116.0</ele>
        <time>2014-06-30T15:50:11Z</time>
      </trkpt>
      <trkpt lat="40.805983" lon="-4.306900">
        <ele>2117.0</ele>
        <time>2014-06-30T15:50:12Z</time>
      </trkpt>
      <trkpt lat="40.806033" lon="-4.306783">
        <ele>2118.0</ele>
        <time>2014-06-30T15:50:13Z</time>
      </trkpt>
      <trkpt lat="40.806100" lon="-4.306683">
        <ele>2119.0</ele>
        <time>2014-06-30T15:50:14Z</time>
      </trkpt>
      <trkpt lat="40.806167" lon="-4.306600">
        <ele>2121.0</ele>
        <time>2014-06-30T15:50:15Z</time>
      </trkpt>
      <trkpt lat="40.806233" lon="-4.306517">
        <ele>2122.0</ele>
        <time>2014-06-30T15:50:16Z</time>
      </trkpt>
      <trkpt lat="40.806300" lon="-4.306417">
        <ele>2124.0</ele>
        <time>2014-06-30T15:50:17Z</time>
      </trkpt>
      <trkpt lat="40.806350" lon="-4.306300">
        <ele>2125.0</ele>
        <time>2014-06-30T15:50:18Z</time>
      </trkpt>
      <trkpt lat="40.806400" lon="-4.306183">
        <ele>2125.0</ele>
        <time>2014-06-30T15:50:19Z</time>
      </trkpt>
      <trkpt lat="40.806450" lon="-4.306033">
        <ele>2126.0</ele>
        <time>2014-06-30T15:50:20Z</time>
      </trkpt>
      <trkpt lat="40.806483" lon="-4.305883">
        <ele>2126.0</ele>
        <time>2014-06-30T15:50:21Z</time>
      </trkpt>
      <trkpt lat="40.806517" lon="-4.305717">
        <ele>2126.0</ele>
        <time>2014-06-30T15:50:22Z</time>
      </trkpt>
      <trkpt lat="40.806550" lon="-4.305567">
        <ele>2125.0</ele>
        <time>2014-06-30T15:50:23Z</time>
      </trkpt>
      <trkpt lat="40.806550" lon="-4.305400">
        <ele>2124.0</ele>
        <time>2014-06-30T15:50:24Z</time>
      </trkpt>
      <trkpt lat="40.806550" lon="-4.305217">
        <ele>2123.0</ele>
        <time>2014-06-30T15:50:25Z</time>
      </trkpt>
      <trkpt lat="40.806550" lon="-4.305017">
        <ele>2123.0</ele>
        <time>2014-06-30T15:50:26Z</time>
      </trkpt>
      <trkpt lat="40.806550" lon="-4.304833">
        <ele>2122.0</ele>
        <time>2014-06-30T15:50:27Z</time>
      </trkpt>
      <trkpt lat="40.806567" lon="-4.304650">
        <ele>2120.0</ele>
        <time>2014-06-30T15:50:28Z</time>
      </trkpt>
      <trkpt lat="40.806583" lon="-4.304467">
        <ele>2119.0</ele>
        <time>2014-06-30T15:50:29Z</time>
      </trkpt>
      <trkpt lat="40.806633" lon="-4.304300">
        <ele>2118.0</ele>
        <time>2014-06-30T15:50:30Z</time>
      </trkpt>
      <trkpt lat="40.806683" lon="-4.304150">
        <ele>2116.0</ele>
        <time>2014-06-30T15:50:31Z</time>
      </trkpt>
      <trkpt lat="40.806750" lon="-4.304000">
        <ele>2114.0</ele>
        <time>2014-06-30T15:50:32Z</time>
      </trkpt>
      <trkpt lat="40.806800" lon="-4.303833">
        <ele>2112.0</ele>
        <time>2014-06-30T15:50:33Z</time>
      </trkpt>
      <trkpt lat="40.806850" lon="-4.303667">
        <ele>2110.0</ele>
        <time>2014-06-30T15:50:34Z</time>
      </trkpt>
      <trkpt lat="40.806917" lon="-4.303517">
        <ele>2109.0</ele>
        <time>2014-06-30T15:50:35Z</time>
      </trkpt>
      <trkpt lat="40.806983" lon="-4.303367">
        <ele>2107.0</ele>
        <time>2014-06-30T15:50:36Z</time>
      </trkpt>
      <trkpt lat="40.807067" lon="-4.303217">
        <ele>2103.0</ele>
        <time>2014-06-30T15:50:37Z</time>
      </trkpt>
      <trkpt lat="40.807150" lon="-4.303067">
        <ele>2100.0</ele>
        <time>2014-06-30T15:50:38Z</time>
      </trkpt>
      <trkpt lat="40.807233" lon="-4.302917">
        <ele>2097.0</ele>
        <time>2014-06-30T15:50:39Z</time>
      </trkpt>
      <trkpt lat="40.807300" lon="-4.302767">
        <ele>2094.0</ele>
        <time>2014-06-30T15:50:40Z</time>
      </trkpt>
      <trkpt lat="40.807367" lon="-4.302617">
        <ele>2091.0</ele>
        <time>2014-06-30T15:50:41Z</time>
      </trkpt>
      <trkpt lat="40.807450" lon="-4.302467">
        <ele>2088.0</ele>
        <time>2014-06-30T15:50:42Z</time>
      </trkpt>
      <trkpt lat="40.807517" lon="-4.302317">
        <ele>2085.0</ele>
        <time>2014-06-30T15:50:43Z</time>
      </trkpt>
      <trkpt lat="40.807583" lon="-4.302167">
        <ele>2082.0</ele>
        <time>2014-06-30T15:50:44Z</time>
      </trkpt>
      <trkpt lat="40.807667" lon="-4.302017">
        <ele>2079.0</ele>
        <time>2014-06-30T15:50:45Z</time>
      </trkpt>
      <trkpt lat="40.807750" lon="-4.301867">
        <ele>2076.0</ele>
        <time>2014-06-30T15:50:46Z</time>
      </trkpt>
      <trkpt lat="40.807833" lon="-4.301733">
        <ele>2073.0</ele>
        <time>2014-06-30T15:50:47Z</time>
      </trkpt>
      <trkpt lat="40.807917" lon="-4.301600">
        <ele>2071.0</ele>
        <time>2014-06-30T15:50:48Z</time>
      </trkpt>
      <trkpt lat="40.808000" lon="-4.301500">
        <ele>2069.0</ele>
        <time>2014-06-30T15:50:49Z</time>
      </trkpt>
      <trkpt lat="40.808083" lon="-4.301417">
        <ele>2067.0</ele>
        <time>2014-06-30T15:50:50Z</time>
      </trkpt>
      <trkpt lat="40.808150" lon="-4.301317">
        <ele>2065.0</ele>
        <time>2014-06-30T15:50:51Z</time>
      </trkpt>
      <trkpt lat="40.808217" lon="-4.301233">
        <ele>2064.0</ele>
        <time>2014-06-30T15:50:52Z</time>
      </trkpt>
      <trkpt lat="40.808283" lon="-4.301117">
        <ele>2061.0</ele>
        <time>2014-06-30T15:50:53Z</time>
      </trkpt>
      <trkpt lat="40.808350" lon="-4.301000">
        <ele>2059.0</ele>
        <time>2014-06-30T15:50:54Z</time>
      </trkpt>
      <trkpt lat="40.808417" lon="-4.300867">
        <ele>2056.0</ele>
        <time>2014-06-30T15:50:55Z</time>
      </trkpt>
      <trkpt lat="40.808483" lon="-4.300717">
        <ele>2053.0</ele>
        <time>2014-06-30T15:50:56Z</time>
      </trkpt>
      <trkpt lat="40.808533" lon="-4.300583">
        <ele>2050.0</ele>
        <time>2014-06-30T15:50:57Z</time>
      </trkpt>
      <trkpt lat="40.808600" lon="-4.300433">
        <ele>2048.0</ele>
        <time>2014-06-30T15:50:58Z</time>
      </trkpt>
      <trkpt lat="40.808667" lon="-4.300300">
        <ele>2045.0</ele>
        <time>2014-06-30T15:50:59Z</time>
      </trkpt>
      <trkpt lat="40.808750" lon="-4.300167">
        <ele>2042.0</ele>
        <time>2014-06-30T15:51:00Z</time>
      </trkpt>
      <trkpt lat="40.808817" lon="-4.300033">
        <ele>2040.0</ele>
        <time>2014-06-30T15:51:01Z</time>
      </trkpt>
      <trkpt lat="40.808900" lon="-4.299900">
        <ele>2037.0</ele>
        <time>2014-06-30T15:51:02Z</time>
      </trkpt>
      <trkpt lat="40.808983" lon="-4.299750">
        <ele>2035.0</ele>
        <time>2014-06-30T15:51:03Z</time>
      </trkpt>
      <trkpt lat="40.809050" lon="-4.299600">
        <ele>2033.0</ele>
        <time>2014-06-30T15:51:04Z</time>
      </trkpt>
      <trkpt lat="40.809133" lon="-4.299450">
        <ele>2030.0</ele>
        <time>2014-06-30T15:51:05Z</time>
      </trkpt>
      <trkpt lat="40.809217" lon="-4.299300">
        <ele>2028.0</ele>
        <time>2014-06-30T15:51:06Z</time>
      </trkpt>
      <trkpt lat="40.809300" lon="-4.299150">
        <ele>2026.0</ele>
        <time>2014-06-30T15:51:07Z</time>
      </trkpt>
      <trkpt lat="40.809383" lon="-4.299000">
        <ele>2024.0</ele>
        <time>2014-06-30T15:51:08Z</time>
      </trkpt>
      <trkpt lat="40.809467" lon="-4.298850">
        <ele>2023.0</ele>
        <time>2014-06-30T15:51:09Z</time>
      </trkpt>
      <trkpt lat="40.809533" lon="-4.298700">
        <ele>2022.0</ele>
        <time>2014-06-30T15:51:10Z</time>
      </trkpt>
      <trkpt lat="40.809583" lon="-4.298550">
        <ele>2021.0</ele>
        <time>2014-06-30T15:51:11Z</time>
      </trkpt>
      <trkpt lat="40.809650" lon="-4.298417">
        <ele>2019.0</ele>
        <time>2014-06-30T15:51:12Z</time>
      </trkpt>
      <trkpt lat="40.809717" lon="-4.298283">
        <ele>2017.0</ele>
        <time>2014-06-30T15:51:13Z</time>
      </trkpt>
      <trkpt lat="40.809783" lon="-4.298150">
        <ele>2014.0</ele>
        <time>2014-06-30T15:51:14Z</time>
      </trkpt>
      <trkpt lat="40.809867" lon="-4.298017">
        <ele>2010.0</ele>
        <time>2014-06-30T15:51:15Z</time>
      </trkpt>
      <trkpt lat="40.809933" lon="-4.297867">
        <ele>2007.0</ele>
        <time>2014-06-30T15:51:16Z</time>
      </trkpt>
      <trkpt lat="40.810000" lon="-4.297717">
        <ele>2004.0</ele>
        <time>2014-06-30T15:51:17Z</time>
      </trkpt>
      <trkpt lat="40.810067" lon="-4.297567">
        <ele>2002.0</ele>
        <time>2014-06-30T15:51:18Z</time>
      </trkpt>
      <trkpt lat="40.810133" lon="-4.297417">
        <ele>2000.0</ele>
        <time>2014-06-30T15:51:19Z</time>
      </trkpt>
      <trkpt lat="40.810183" lon="-4.297250">
        <ele>1998.0</ele>
        <time>2014-06-30T15:51:20Z</time>
      </trkpt>
      <trkpt lat="40.810250" lon="-4.297100">
        <ele>1996.0</ele>
        <time>2014-06-30T15:51:21Z</time>
      </trkpt>
      <trkpt lat="40.810317" lon="-4.296950">
        <ele>1994.0</ele>
        <time>2014-06-30T15:51:22Z</time>
      </trkpt>
      <trkpt lat="40.810367" lon="-4.296817">
        <ele>1992.0</ele>
        <time>2014-06-30T15:51:23Z</time>
      </trkpt>
      <trkpt lat="40.810383" lon="-4.296683">
        <ele>1989.0</ele>
        <time>2014-06-30T15:51:24Z</time>
      </trkpt>
      <trkpt lat="40.810417" lon="-4.296550">
        <ele>1986.0</ele>
        <time>2014-06-30T15:51:25Z</time>
      </trkpt>
      <trkpt lat="40.810467" lon="-4.296417">
        <ele>1982.0</ele>
        <time>2014-06-30T15:51:26Z</time>
      </trkpt>
      <trkpt lat="40.810517" lon="-4.296267">
        <ele>1977.0</ele>
        <time>2014-06-30T15:51:27Z</time>
      </trkpt>
      <trkpt lat="40.810583" lon="-4.296117">
        <ele>1973.0</ele>
        <time>2014-06-30T15:51:28Z</time>
      </trkpt>
      <trkpt lat="40.810633" lon="-4.295967">
        <ele>1970.0</ele>
        <time>2014-06-30T15:51:29Z</time>
      </trkpt>
      <trkpt lat="40.810700" lon="-4.295833">
        <ele>1970.0</ele>
        <time>2014-06-30T15:51:30Z</time>
      </trkpt>
      <trkpt lat="40.810733" lon="-4.295717">
        <ele>1968.0</ele>
        <time>2014-06-30T15:51:31Z</time>
      </trkpt>
      <trkpt lat="40.810783" lon="-4.295600">
        <ele>1967.0</ele>
        <time>2014-06-30T15:51:32Z</time>
      </trkpt>
      <trkpt lat="40.810833" lon="-4.295483">
        <ele>1965.0</ele>
        <time>2014-06-30T15:51:33Z</time>
      </trkpt>
      <trkpt lat="40.810883" lon="-4.295350">
        <ele>1962.0</ele>
        <time>2014-06-30T15:51:34Z</time>
      </trkpt>
      <trkpt lat="40.810933" lon="-4.295217">
        <ele>1959.0</ele>
        <time>2014-06-30T15:51:35Z</time>
      </trkpt>
      <trkpt lat="40.811000" lon="-4.295067">
        <ele>1957.0</ele>
        <time>2014-06-30T15:51:36Z</time>
      </trkpt>
      <trkpt lat="40.811050" lon="-4.294917">
        <ele>1954.0</ele>
        <time>2014-06-30T15:51:37Z</time>
      </trkpt>
      <trkpt lat="40.811083" lon="-4.294783">
        <ele>1952.0</ele>
        <time>2014-06-30T15:51:38Z</time>
      </trkpt>
      <trkpt lat="40.811133" lon="-4.294617">
        <ele>1949.0</ele>
        <time>2014-06-30T15:51:39Z</time>
      </trkpt>
      <trkpt lat="40.811183" lon="-4.294467">
        <ele>1946.0</ele>
        <time>2014-06-30T15:51:40Z</time>
      </trkpt>
      <trkpt lat="40.811217" lon="-4.294317">
        <ele>1944.0</ele>
        <time>2014-06-30T15:51:41Z</time>
      </trkpt>
      <trkpt lat="40.811267" lon="-4.294183">
        <ele>1943.0</ele>
        <time>2014-06-30T15:51:42Z</time>
      </trkpt>
      <trkpt lat="40.811300" lon="-4.294033">
        <ele>1941.0</ele>
        <time>2014-06-30T15:51:43Z</time>
      </trkpt>
      <trkpt lat="40.811333" lon="-4.293883">
        <ele>1939.0</ele>
        <time>2014-06-30T15:51:44Z</time>
      </trkpt>
      <trkpt lat="40.811383" lon="-4.293733">
        <ele>1937.0</ele>
        <time>2014-06-30T15:51:45Z</time>
      </trkpt>
      <trkpt lat="40.811417" lon="-4.293583">
        <ele>1935.0</ele>
        <time>2014-06-30T15:51:46Z</time>
      </trkpt>
      <trkpt lat="40.811450" lon="-4.293450">
        <ele>1934.0</ele>
        <time>2014-06-30T15:51:47Z</time>
      </trkpt>
      <trkpt lat="40.811500" lon="-4.293300">
        <ele>1933.0</ele>
        <time>2014-06-30T15:51:48Z</time>
      </trkpt>
      <trkpt lat="40.811533" lon="-4.293167">
        <ele>1931.0</ele>
        <time>2014-06-30T15:51:49Z</time>
      </trkpt>
      <trkpt lat="40.811567" lon="-4.293017">
        <ele>1930.0</ele>
        <time>2014-06-30T15:51:50Z</time>
      </trkpt>
      <trkpt lat="40.811617" lon="-4.292867">
        <ele>1929.0</ele>
        <time>2014-06-30T15:51:51Z</time>
      </trkpt>
      <trkpt lat="40.811667" lon="-4.292733">
        <ele>1928.0</ele>
        <time>2014-06-30T15:51:52Z</time>
      </trkpt>
      <trkpt lat="40.811717" lon="-4.292617">
        <ele>1927.0</ele>
        <time>2014-06-30T15:51:53Z</time>
      </trkpt>
      <trkpt lat="40.811767" lon="-4.292500">
        <ele>1927.0</ele>
        <time>2014-06-30T15:51:54Z</time>
      </trkpt>
      <trkpt lat="40.811800" lon="-4.292383">
        <ele>1927.0</ele>
        <time>2014-06-30T15:51:55Z</time>
      </trkpt>
      <trkpt lat="40.811850" lon="-4.292283">
        <ele>1926.0</ele>
        <time>2014-06-30T15:51:56Z</time>
      </trkpt>
      <trkpt lat="40.811900" lon="-4.292167">
        <ele>1925.0</ele>
        <time>2014-06-30T15:51:57Z</time>
      </trkpt>
      <trkpt lat="40.811950" lon="-4.292067">
        <ele>1924.0</ele>
        <time>2014-06-30T15:51:58Z</time>
      </trkpt>
      <trkpt lat="40.812000" lon="-4.291967">
        <ele>1923.0</ele>
        <time>2014-06-30T15:51:59Z</time>
      </trkpt>
      <trkpt lat="40.812050" lon="-4.291850">
        <ele>1922.0</ele>
        <time>2014-06-30T15:52:00Z</time>
      </trkpt>
      <trkpt lat="40.812100" lon="-4.291733">
        <ele>1921.0</ele>
        <time>2014-06-30T15:52:01Z</time>
      </trkpt>
      <trkpt lat="40.812133" lon="-4.291617">
        <ele>1919.0</ele>
        <time>2014-06-30T15:52:02Z</time>
      </trkpt>
      <trkpt lat="40.812183" lon="-4.291483">
        <ele>1918.0</ele>
        <time>2014-06-30T15:52:03Z</time>
      </trkpt>
      <trkpt lat="40.812217" lon="-4.291367">
        <ele>1917.0</ele>
        <time>2014-06-30T15:52:04Z</time>
      </trkpt>
      <trkpt lat="40.812250" lon="-4.291233">
        <ele>1916.0</ele>
        <time>2014-06-30T15:52:05Z</time>
      </trkpt>
      <trkpt lat="40.812300" lon="-4.291100">
        <ele>1915.0</ele>
        <time>2014-06-30T15:52:06Z</time>
      </trkpt>
      <trkpt lat="40.812333" lon="-4.290967">
        <ele>1914.0</ele>
        <time>2014-06-30T15:52:07Z</time>
      </trkpt>
      <trkpt lat="40.812367" lon="-4.290833">
        <ele>1914.0</ele>
        <time>2014-06-30T15:52:08Z</time>
      </trkpt>
      <trkpt lat="40.812400" lon="-4.290700">
        <ele>1912.0</ele>
        <time>2014-06-30T15:52:09Z</time>
      </trkpt>
      <trkpt lat="40.812433" lon="-4.290567">
        <ele>1911.0</ele>
        <time>2014-06-30T15:52:10Z</time>
      </trkpt>
      <trkpt lat="40.812467" lon="-4.290433">
        <ele>1911.0</ele>
        <time>2014-06-30T15:52:11Z</time>
      </trkpt>
      <trkpt lat="40.812517" lon="-4.290300">
        <ele>1910.0</ele>
        <time>2014-06-30T15:52:12Z</time>
      </trkpt>
      <trkpt lat="40.812567" lon="-4.290183">
        <ele>1908.0</ele>
        <time>2014-06-30T15:52:13Z</time>
      </trkpt>
      <trkpt lat="40.812617" lon="-4.290083">
        <ele>1907.0</ele>
        <time>2014-06-30T15:52:14Z</time>
      </trkpt>
      <trkpt lat="40.812667" lon="-4.289967">
        <ele>1906.0</ele>
        <time>2014-06-30T15:52:15Z</time>
      </trkpt>
      <trkpt lat="40.812717" lon="-4.289867">
        <ele>1906.0</ele>
        <time>2014-06-30T15:52:16Z</time>
      </trkpt>
      <trkpt lat="40.812767" lon="-4.289783">
        <ele>1905.0</ele>
        <time>2014-06-30T15:52:17Z</time>
      </trkpt>
      <trkpt lat="40.812817" lon="-4.289683">
        <ele>1904.0</ele>
        <time>2014-06-30T15:52:18Z</time>
      </trkpt>
      <trkpt lat="40.812883" lon="-4.289583">
        <ele>1902.0</ele>
        <time>2014-06-30T15:52:19Z</time>
      </trkpt>
      <trkpt lat="40.812950" lon="-4.289483">
        <ele>1900.0</ele>
        <time>2014-06-30T15:52:20Z</time>
      </trkpt>
      <trkpt lat="40.813017" lon="-4.289383">
        <ele>1898.0</ele>
        <time>2014-06-30T15:52:21Z</time>
      </trkpt>
      <trkpt lat="40.813067" lon="-4.289283">
        <ele>1897.0</ele>
        <time>2014-06-30T15:52:22Z</time>
      </trkpt>
      <trkpt lat="40.813133" lon="-4.289183">
        <ele>1895.0</ele>
        <time>2014-06-30T15:52:23Z</time>
      </trkpt>
      <trkpt lat="40.813183" lon="-4.289067">
        <ele>1894.0</ele>
        <time>2014-06-30T15:52:24Z</time>
      </trkpt>
      <trkpt lat="40.813250" lon="-4.288967">
        <ele>1892.0</ele>
        <time>2014-06-30T15:52:25Z</time>
      </trkpt>
      <trkpt lat="40.813300" lon="-4.288850">
        <ele>1890.0</ele>
        <time>2014-06-30T15:52:26Z</time>
      </trkpt>
      <trkpt lat="40.813350" lon="-4.288717">
        <ele>1888.0</ele>
        <time>2014-06-30T15:52:27Z</time>
      </trkpt>
      <trkpt lat="40.813400" lon="-4.288583">
        <ele>1886.0</ele>
        <time>2014-06-30T15:52:28Z</time>
      </trkpt>
      <trkpt lat="40.813450" lon="-4.288450">
        <ele>1885.0</ele>
        <time>2014-06-30T15:52:29Z</time>
      </trkpt>
      <trkpt lat="40.813500" lon="-4.288350">
        <ele>1883.0</ele>
        <time>2014-06-30T15:52:30Z</time>
      </trkpt>
      <trkpt lat="40.813550" lon="-4.288250">
        <ele>1882.0</ele>
        <time>2014-06-30T15:52:31Z</time>
      </trkpt>
      <trkpt lat="40.813617" lon="-4.288150">
        <ele>1881.0</ele>
        <time>2014-06-30T15:52:32Z</time>
      </trkpt>
      <trkpt lat="40.813700" lon="-4.288033">
        <ele>1880.0</ele>
        <time>2014-06-30T15:52:33Z</time>
      </trkpt>
      <trkpt lat="40.813767" lon="-4.287933">
        <ele>1879.0</ele>
        <time>2014-06-30T15:52:34Z</time>
      </trkpt>
      <trkpt lat="40.813850" lon="-4.287850">
        <ele>1879.0</ele>
        <time>2014-06-30T15:52:35Z</time>
      </trkpt>
      <trkpt lat="40.813900" lon="-4.287767">
        <ele>1878.0</ele>
        <time>2014-06-30T15:52:36Z</time>
      </trkpt>
      <trkpt lat="40.813967" lon="-4.287683">
        <ele>1877.0</ele>
        <time>2014-06-30T15:52:37Z</time>
      </trkpt>
      <trkpt lat="40.814017" lon="-4.287583">
        <ele>1876.0</ele>
        <time>2014-06-30T15:52:38Z</time>
      </trkpt>
      <trkpt lat="40.814067" lon="-4.287483">
        <ele>1874.0</ele>
        <time>2014-06-30T15:52:39Z</time>
      </trkpt>
      <trkpt lat="40.814133" lon="-4.287367">
        <ele>1872.0</ele>
        <time>2014-06-30T15:52:40Z</time>
      </trkpt>
      <trkpt lat="40.814200" lon="-4.287250">
        <ele>1870.0</ele>
        <time>2014-06-30T15:52:41Z</time>
      </trkpt>
      <trkpt lat="40.814267" lon="-4.287150">
        <ele>1867.0</ele>
        <time>2014-06-30T15:52:42Z</time>
      </trkpt>
      <trkpt lat="40.814317" lon="-4.287050">
        <ele>1866.0</ele>
        <time>2014-06-30T15:52:43Z</time>
      </trkpt>
      <trkpt lat="40.814383" lon="-4.286967">
        <ele>1865.0</ele>
        <time>2014-06-30T15:52:44Z</time>
      </trkpt>
      <trkpt lat="40.814433" lon="-4.286867">
        <ele>1864.0</ele>
        <time>2014-06-30T15:52:45Z</time>
      </trkpt>
      <trkpt lat="40.814483" lon="-4.286767">
        <ele>1863.0</ele>
        <time>2014-06-30T15:52:46Z</time>
      </trkpt>
      <trkpt lat="40.814533" lon="-4.286650">
        <ele>1862.0</ele>
        <time>2014-06-30T15:52:47Z</time>
      </trkpt>
      <trkpt lat="40.814583" lon="-4.286550">
        <ele>1861.0</ele>
        <time>2014-06-30T15:52:48Z</time>
      </trkpt>
      <trkpt lat="40.814633" lon="-4.286467">
        <ele>1859.0</ele>
        <time>2014-06-30T15:52:49Z</time>
      </trkpt>
      <trkpt lat="40.814667" lon="-4.286367">
        <ele>1858.0</ele>
        <time>2014-06-30T15:52:50Z</time>
      </trkpt>
      <trkpt lat="40.814717" lon="-4.286267">
        <ele>1855.0</ele>
        <time>2014-06-30T15:52:51Z</time>
      </trkpt>
      <trkpt lat="40.814767" lon="-4.286167">
        <ele>1854.0</ele>
        <time>2014-06-30T15:52:52Z</time>
      </trkpt>
      <trkpt lat="40.814800" lon="-4.286050">
        <ele>1854.0</ele>
        <time>2014-06-30T15:52:53Z</time>
      </trkpt>
      <trkpt lat="40.814817" lon="-4.285950">
        <ele>1853.0</ele>
        <time>2014-06-30T15:52:54Z</time>
      </trkpt>
      <trkpt lat="40.814850" lon="-4.285850">
        <ele>1854.0</ele>
        <time>2014-06-30T15:52:55Z</time>
      </trkpt>
      <trkpt lat="40.814883" lon="-4.285767">
        <ele>1853.0</ele>
        <time>2014-06-30T15:52:56Z</time>
      </trkpt>
      <trkpt lat="40.814933" lon="-4.285683">
        <ele>1853.0</ele>
        <time>2014-06-30T15:52:57Z</time>
      </trkpt>
      <trkpt lat="40.814983" lon="-4.285600">
        <ele>1852.0</ele>
        <time>2014-06-30T15:52:58Z</time>
      </trkpt>
      <trkpt lat="40.815033" lon="-4.285533">
        <ele>1852.0</ele>
        <time>2014-06-30T15:52:59Z</time>
      </trkpt>
      <trkpt lat="40.815067" lon="-4.285467">
        <ele>1853.0</ele>
        <time>2014-06-30T15:53:00Z</time>
      </trkpt>
      <trkpt lat="40.815117" lon="-4.285400">
        <ele>1853.0</ele>
        <time>2014-06-30T15:53:01Z</time>
      </trkpt>
      <trkpt lat="40.815167" lon="-4.285350">
        <ele>1852.0</ele>
        <time>2014-06-30T15:53:02Z</time>
      </trkpt>
      <trkpt lat="40.815217" lon="-4.285300">
        <ele>1852.0</ele>
        <time>2014-06-30T15:53:03Z</time>
      </trkpt>
      <trkpt lat="40.815267" lon="-4.285250">
        <ele>1851.0</ele>
        <time>2014-06-30T15:53:04Z</time>
      </trkpt>
      <trkpt lat="40.815317" lon="-4.285200">
        <ele>1851.0</ele>
        <time>2014-06-30T15:53:05Z</time>
      </trkpt>
      <trkpt lat="40.815350" lon="-4.285150">
        <ele>1850.0</ele>
        <time>2014-06-30T15:53:06Z</time>
      </trkpt>
      <trkpt lat="40.815417" lon="-4.285100">
        <ele>1849.0</ele>
        <time>2014-06-30T15:53:07Z</time>
      </trkpt>
      <trkpt lat="40.815483" lon="-4.285033">
        <ele>1848.0</ele>
        <time>2014-06-30T15:53:08Z</time>
      </trkpt>
      <trkpt lat="40.815567" lon="-4.284967">
        <ele>1847.0</ele>
        <time>2014-06-30T15:53:09Z</time>
      </trkpt>
      <trkpt lat="40.815633" lon="-4.284900">
        <ele>1846.0</ele>
        <time>2014-06-30T15:53:10Z</time>
      </trkpt>
      <trkpt lat="40.815700" lon="-4.284833">
        <ele>1846.0</ele>
        <time>2014-06-30T15:53:11Z</time>
      </trkpt>
      <trkpt lat="40.815750" lon="-4.284767">
        <ele>1846.0</ele>
        <time>2014-06-30T15:53:12Z</time>
      </trkpt>
      <trkpt lat="40.815800" lon="-4.284700">
        <ele>1846.0</ele>
        <time>2014-06-30T15:53:13Z</time>
      </trkpt>
      <trkpt lat="40.815850" lon="-4.284617">
        <ele>1845.0</ele>
        <time>2014-06-30T15:53:14Z</time>
      </trkpt>
      <trkpt lat="40.815917" lon="-4.284550">
        <ele>1843.0</ele>
        <time>2014-06-30T15:53:15Z</time>
      </trkpt>
      <trkpt lat="40.815967" lon="-4.284483">
        <ele>1842.0</ele>
        <time>2014-06-30T15:53:16Z</time>
      </trkpt>
      <trkpt lat="40.816033" lon="-4.284417">
        <ele>1841.0</ele>
        <time>2014-06-30T15:53:17Z</time>
      </trkpt>
      <trkpt lat="40.816100" lon="-4.284350">
        <ele>1839.0</ele>
        <time>2014-06-30T15:53:18Z</time>
      </trkpt>
      <trkpt lat="40.816150" lon="-4.284267">
        <ele>1838.0</ele>
        <time>2014-06-30T15:53:19Z</time>
      </trkpt>
      <trkpt lat="40.816217" lon="-4.284167">
        <ele>1835.0</ele>
        <time>2014-06-30T15:53:20Z</time>
      </trkpt>
      <trkpt lat="40.816267" lon="-4.284067">
        <ele>1833.0</ele>
        <time>2014-06-30T15:53:21Z</time>
      </trkpt>
      <trkpt lat="40.816317" lon="-4.283950">
        <ele>1830.0</ele>
        <time>2014-06-30T15:53:22Z</time>
      </trkpt>
      <trkpt lat="40.816383" lon="-4.283817">
        <ele>1827.0</ele>
        <time>2014-06-30T15:53:23Z</time>
      </trkpt>
      <trkpt lat="40.816450" lon="-4.283700">
        <ele>1825.0</ele>
        <time>2014-06-30T15:53:24Z</time>
      </trkpt>
      <trkpt lat="40.816517" lon="-4.283600">
        <ele>1823.0</ele>
        <time>2014-06-30T15:53:25Z</time>
      </trkpt>
      <trkpt lat="40.816583" lon="-4.283483">
        <ele>1821.0</ele>
        <time>2014-06-30T15:53:26Z</time>
      </trkpt>
      <trkpt lat="40.816650" lon="-4.283367">
        <ele>1819.0</ele>
        <time>2014-06-30T15:53:27Z</time>
      </trkpt>
      <trkpt lat="40.816717" lon="-4.283250">
        <ele>1817.0</ele>
        <time>2014-06-30T15:53:28Z</time>
      </trkpt>
      <trkpt lat="40.816783" lon="-4.283133">
        <ele>1814.0</ele>
        <time>2014-06-30T15:53:29Z</time>
      </trkpt>
      <trkpt lat="40.816867" lon="-4.283017">
        <ele>1811.0</ele>
        <time>2014-06-30T15:53:30Z</time>
      </trkpt>
      <trkpt lat="40.816950" lon="-4.282917">
        <ele>1808.0</ele>
        <time>2014-06-30T15:53:31Z</time>
      </trkpt>
      <trkpt lat="40.817050" lon="-4.282800">
        <ele>1805.0</ele>
        <time>2014-06-30T15:53:32Z</time>
      </trkpt>
      <trkpt lat="40.817133" lon="-4.282683">
        <ele>1801.0</ele>
        <time>2014-06-30T15:53:33Z</time>
      </trkpt>
      <trkpt lat="40.817250" lon="-4.282567">
        <ele>1798.0</ele>
        <time>2014-06-30T15:53:34Z</time>
      </trkpt>
      <trkpt lat="40.817350" lon="-4.282450">
        <ele>1794.0</ele>
        <time>2014-06-30T15:53:35Z</time>
      </trkpt>
      <trkpt lat="40.817433" lon="-4.282333">
        <ele>1791.0</ele>
        <time>2014-06-30T15:53:36Z</time>
      </trkpt>
      <trkpt lat="40.817517" lon="-4.282217">
        <ele>1789.0</ele>
        <time>2014-06-30T15:53:37Z</time>
      </trkpt>
      <trkpt lat="40.817600" lon="-4.282100">
        <ele>1786.0</ele>
        <time>2014-06-30T15:53:38Z</time>
      </trkpt>
      <trkpt lat="40.817683" lon="-4.282000">
        <ele>1785.0</ele>
        <time>2014-06-30T15:53:39Z</time>
      </trkpt>
      <trkpt lat="40.817750" lon="-4.281950">
        <ele>1783.0</ele>
        <time>2014-06-30T15:53:40Z</time>
      </trkpt>
      <trkpt lat="40.817800" lon="-4.281883">
        <ele>1782.0</ele>
        <time>2014-06-30T15:53:41Z</time>
      </trkpt>
      <trkpt lat="40.817850" lon="-4.281817">
        <ele>1780.0</ele>
        <time>2014-06-30T15:53:42Z</time>
      </trkpt>
      <trkpt lat="40.817917" lon="-4.281750">
        <ele>1777.0</ele>
        <time>2014-06-30T15:53:43Z</time>
      </trkpt>
      <trkpt lat="40.818000" lon="-4.281667">
        <ele>1775.0</ele>
        <time>2014-06-30T15:53:44Z</time>
      </trkpt>
      <trkpt lat="40.818100" lon="-4.281583">
        <ele>1772.0</ele>
        <time>2014-06-30T15:53:45Z</time>
      </trkpt>
      <trkpt lat="40.818200" lon="-4.281500">
        <ele>1769.0</ele>
        <time>2014-06-30T15:53:46Z</time>
      </trkpt>
      <trkpt lat="40.818300" lon="-4.281433">
        <ele>1765.0</ele>
        <time>2014-06-30T15:53:47Z</time>
      </trkpt>
      <trkpt lat="40.818400" lon="-4.281367">
        <ele>1760.0</ele>
        <time>2014-06-30T15:53:48Z</time>
      </trkpt>
      <trkpt lat="40.818500" lon="-4.281267">
        <ele>1757.0</ele>
        <time>2014-06-30T15:53:49Z</time>
      </trkpt>
      <trkpt lat="40.818600" lon="-4.281183">
        <ele>1754.0</ele>
        <time>2014-06-30T15:53:50Z</time>
      </trkpt>
      <trkpt lat="40.818683" lon="-4.281117">
        <ele>1753.0</ele>
        <time>2014-06-30T15:53:51Z</time>
      </trkpt>
      <trkpt lat="40.818750" lon="-4.281033">
        <ele>1751.0</ele>
        <time>2014-06-30T15:53:52Z</time>
      </trkpt>
      <trkpt lat="40.818833" lon="-4.280967">
        <ele>1750.0</ele>
        <time>2014-06-30T15:53:53Z</time>
      </trkpt>
      <trkpt lat="40.818917" lon="-4.280883">
        <ele>1747.0</ele>
        <time>2014-06-30T15:53:54Z</time>
      </trkpt>
      <trkpt lat="40.819000" lon="-4.280783">
        <ele>1745.0</ele>
        <time>2014-06-30T15:53:55Z</time>
      </trkpt>
      <trkpt lat="40.819083" lon="-4.280683">
        <ele>1743.0</ele>
        <time>2014-06-30T15:53:56Z</time>
      </trkpt>
      <trkpt lat="40.819183" lon="-4.280600">
        <ele>1741.0</ele>
        <time>2014-06-30T15:53:57Z</time>
      </trkpt>
      <trkpt lat="40.819283" lon="-4.280500">
        <ele>1738.0</ele>
        <time>2014-06-30T15:53:58Z</time>
      </trkpt>
      <trkpt lat="40.819367" lon="-4.280400">
        <ele>1736.0</ele>
        <time>2014-06-30T15:53:59Z</time>
      </trkpt>
      <trkpt lat="40.819467" lon="-4.280267">
        <ele>1734.0</ele>
        <time>2014-06-30T15:54:00Z</time>
      </trkpt>
      <trkpt lat="40.819567" lon="-4.280150">
        <ele>1732.0</ele>
        <time>2014-06-30T15:54:01Z</time>
      </trkpt>
      <trkpt lat="40.819667" lon="-4.280050">
        <ele>1731.0</ele>
        <time>2014-06-30T15:54:02Z</time>
      </trkpt>
      <trkpt lat="40.819750" lon="-4.279950">
        <ele>1729.0</ele>
        <time>2014-06-30T15:54:03Z</time>
      </trkpt>
      <trkpt lat="40.819850" lon="-4.279867">
        <ele>1728.0</ele>
        <time>2014-06-30T15:54:04Z</time>
      </trkpt>
      <trkpt lat="40.819933" lon="-4.279750">
        <ele>1727.0</ele>
        <time>2014-06-30T15:54:05Z</time>
      </trkpt>
      <trkpt lat="40.820033" lon="-4.279650">
        <ele>1726.0</ele>
        <time>2014-06-30T15:54:06Z</time>
      </trkpt>
      <trkpt lat="40.820117" lon="-4.279533">
        <ele>1725.0</ele>
        <time>2014-06-30T15:54:07Z</time>
      </trkpt>
      <trkpt lat="40.820183" lon="-4.279417">
        <ele>1724.0</ele>
        <time>2014-06-30T15:54:08Z</time>
      </trkpt>
      <trkpt lat="40.820267" lon="-4.279300">
        <ele>1724.0</ele>
        <time>2014-06-30T15:54:09Z</time>
      </trkpt>
      <trkpt lat="40.820333" lon="-4.279183">
        <ele>1722.0</ele>
        <time>2014-06-30T15:54:10Z</time>
      </trkpt>
      <trkpt lat="40.820417" lon="-4.279050">
        <ele>1720.0</ele>
        <time>2014-06-30T15:54:11Z</time>
      </trkpt>
      <trkpt lat="40.820500" lon="-4.278917">
        <ele>1718.0</ele>
        <time>2014-06-30T15:54:12Z</time>
      </trkpt>
      <trkpt lat="40.820600" lon="-4.278800">
        <ele>1716.0</ele>
        <time>2014-06-30T15:54:13Z</time>
      </trkpt>
      <trkpt lat="40.820683" lon="-4.278683">
        <ele>1715.0</ele>
        <time>2014-06-30T15:54:14Z</time>
      </trkpt>
      <trkpt lat="40.820750" lon="-4.278567">
        <ele>1714.0</ele>
        <time>2014-06-30T15:54:15Z</time>
      </trkpt>
      <trkpt lat="40.820817" lon="-4.278467">
        <ele>1713.0</ele>
        <time>2014-06-30T15:54:16Z</time>
      </trkpt>
      <trkpt lat="40.820883" lon="-4.278350">
        <ele>1712.0</ele>
        <time>2014-06-30T15:54:17Z</time>
      </trkpt>
      <trkpt lat="40.820950" lon="-4.278233">
        <ele>1710.0</ele>
        <time>2014-06-30T15:54:18Z</time>
      </trkpt>
      <trkpt lat="40.821033" lon="-4.278133">
        <ele>1707.0</ele>
        <time>2014-06-30T15:54:19Z</time>
      </trkpt>
      <trkpt lat="40.821133" lon="-4.278017">
        <ele>1704.0</ele>
        <time>2014-06-30T15:54:20Z</time>
      </trkpt>
      <trkpt lat="40.821200" lon="-4.277900">
        <ele>1702.0</ele>
        <time>2014-06-30T15:54:21Z</time>
      </trkpt>
      <trkpt lat="40.821283" lon="-4.277783">
        <ele>1700.0</ele>
        <time>2014-06-30T15:54:22Z</time>
      </trkpt>
      <trkpt lat="40.821367" lon="-4.277667">
        <ele>1699.0</ele>
        <time>2014-06-30T15:54:23Z</time>
      </trkpt>
      <trkpt lat="40.821450" lon="-4.277550">
        <ele>1697.0</ele>
        <time>2014-06-30T15:54:24Z</time>
      </trkpt>
      <trkpt lat="40.821533" lon="-4.277417">
        <ele>1694.0</ele>
        <time>2014-06-30T15:54:25Z</time>
      </trkpt>
      <trkpt lat="40.821617" lon="-4.277267">
        <ele>1693.0</ele>
        <time>2014-06-30T15:54:26Z</time>
      </trkpt>
      <trkpt lat="40.821717" lon="-4.277117">
        <ele>1691.0</ele>
        <time>2014-06-30T15:54:27Z</time>
      </trkpt>
      <trkpt lat="40.821800" lon="-4.276983">
        <ele>1691.0</ele>
        <time>2014-06-30T15:54:28Z</time>
      </trkpt>
      <trkpt lat="40.821883" lon="-4.276867">
        <ele>1691.0</ele>
        <time>2014-06-30T15:54:29Z</time>
      </trkpt>
      <trkpt lat="40.821983" lon="-4.276767">
        <ele>1690.0</ele>
        <time>2014-06-30T15:54:30Z</time>
      </trkpt>
      <trkpt lat="40.822067" lon="-4.276650">
        <ele>1690.0</ele>
        <time>2014-06-30T15:54:31Z</time>
      </trkpt>
      <trkpt lat="40.822150" lon="-4.276550">
        <ele>1689.0</ele>
        <time>2014-06-30T15:54:32Z</time>
      </trkpt>
      <trkpt lat="40.822250" lon="-4.276433">
        <ele>1689.0</ele>
        <time>2014-06-30T15:54:33Z</time>
      </trkpt>
      <trkpt lat="40.822333" lon="-4.276333">
        <ele>1689.0</ele>
        <time>2014-06-30T15:54:34Z</time>
      </trkpt>
      <trkpt lat="40.822400" lon="-4.276233">
        <ele>1689.0</ele>
        <time>2014-06-30T15:54:35Z</time>
      </trkpt>
      <trkpt lat="40.822483" lon="-4.276133">
        <ele>1689.0</ele>
        <time>2014-06-30T15:54:36Z</time>
      </trkpt>
      <trkpt lat="40.822550" lon="-4.276033">
        <ele>1689.0</ele>
        <time>2014-06-30T15:54:37Z</time>
      </trkpt>
      <trkpt lat="40.822633" lon="-4.275917">
        <ele>1688.0</ele>
        <time>2014-06-30T15:54:38Z</time>
      </trkpt>
      <trkpt lat="40.822700" lon="-4.275783">
        <ele>1688.0</ele>
        <time>2014-06-30T15:54:39Z</time>
      </trkpt>
      <trkpt lat="40.822783" lon="-4.275667">
        <ele>1687.0</ele>
        <time>2014-06-30T15:54:40Z</time>
      </trkpt>
      <trkpt lat="40.822850" lon="-4.275550">
        <ele>1687.0</ele>
        <time>2014-06-30T15:54:41Z</time>
      </trkpt>
      <trkpt lat="40.822933" lon="-4.275433">
        <ele>1686.0</ele>
        <time>2014-06-30T15:54:42Z</time>
      </trkpt>
      <trkpt lat="40.823017" lon="-4.275317">
        <ele>1685.0</ele>
        <time>2014-06-30T15:54:43Z</time>
      </trkpt>
      <trkpt lat="40.823117" lon="-4.275200">
        <ele>1684.0</ele>
        <time>2014-06-30T15:54:44Z</time>
      </trkpt>
      <trkpt lat="40.823200" lon="-4.275083">
        <ele>1683.0</ele>
        <time>2014-06-30T15:54:45Z</time>
      </trkpt>
      <trkpt lat="40.823283" lon="-4.274983">
        <ele>1683.0</ele>
        <time>2014-06-30T15:54:46Z</time>
      </trkpt>
      <trkpt lat="40.823367" lon="-4.274900">
        <ele>1682.0</ele>
        <time>2014-06-30T15:54:47Z</time>
      </trkpt>
      <trkpt lat="40.823450" lon="-4.274817">
        <ele>1681.0</ele>
        <time>2014-06-30T15:54:48Z</time>
      </trkpt>
      <trkpt lat="40.823533" lon="-4.274733">
        <ele>1679.0</ele>
        <time>2014-06-30T15:54:49Z</time>
      </trkpt>
      <trkpt lat="40.823633" lon="-4.274633">
        <ele>1678.0</ele>
        <time>2014-06-30T15:54:50Z</time>
      </trkpt>
      <trkpt lat="40.823717" lon="-4.274533">
        <ele>1676.0</ele>
        <time>2014-06-30T15:54:51Z</time>
      </trkpt>
      <trkpt lat="40.823817" lon="-4.274417">
        <ele>1674.0</ele>
        <time>2014-06-30T15:54:52Z</time>
      </trkpt>
      <trkpt lat="40.823900" lon="-4.274300">
        <ele>1673.0</ele>
        <time>2014-06-30T15:54:53Z</time>
      </trkpt>
      <trkpt lat="40.823983" lon="-4.274183">
        <ele>1672.0</ele>
        <time>2014-06-30T15:54:54Z</time>
      </trkpt>
      <trkpt lat="40.824083" lon="-4.274083">
        <ele>1670.0</ele>
        <time>2014-06-30T15:54:55Z</time>
      </trkpt>
      <trkpt lat="40.824167" lon="-4.273967">
        <ele>1668.0</ele>
        <time>2014-06-30T15:54:56Z</time>
      </trkpt>
      <trkpt lat="40.824267" lon="-4.273850">
        <ele>1666.0</ele>
        <time>2014-06-30T15:54:57Z</time>
      </trkpt>
      <trkpt lat="40.824367" lon="-4.273733">
        <ele>1665.0</ele>
        <time>2014-06-30T15:54:58Z</time>
      </trkpt>
      <trkpt lat="40.824467" lon="-4.273617">
        <ele>1663.0</ele>
        <time>2014-06-30T15:54:59Z</time>
      </trkpt>
      <trkpt lat="40.824550" lon="-4.273517">
        <ele>1663.0</ele>
        <time>2014-06-30T15:55:00Z</time>
      </trkpt>
      <trkpt lat="40.824650" lon="-4.273433">
        <ele>1662.0</ele>
        <time>2014-06-30T15:55:01Z</time>
      </trkpt>
      <trkpt lat="40.824750" lon="-4.273367">
        <ele>1661.0</ele>
        <time>2014-06-30T15:55:02Z</time>
      </trkpt>
      <trkpt lat="40.824850" lon="-4.273300">
        <ele>1660.0</ele>
        <time>2014-06-30T15:55:03Z</time>
      </trkpt>
      <trkpt lat="40.824967" lon="-4.273250">
        <ele>1659.0</ele>
        <time>2014-06-30T15:55:04Z</time>
      </trkpt>
      <trkpt lat="40.825067" lon="-4.273183">
        <ele>1659.0</ele>
        <time>2014-06-30T15:55:05Z</time>
      </trkpt>
      <trkpt lat="40.825183" lon="-4.273150">
        <ele>1658.0</ele>
        <time>2014-06-30T15:55:06Z</time>
      </trkpt>
      <trkpt lat="40.825283" lon="-4.273083">
        <ele>1657.0</ele>
        <time>2014-06-30T15:55:07Z</time>
      </trkpt>
      <trkpt lat="40.825367" lon="-4.273017">
        <ele>1657.0</ele>
        <time>2014-06-30T15:55:08Z</time>
      </trkpt>
      <trkpt lat="40.825467" lon="-4.272917">
        <ele>1657.0</ele>
        <time>2014-06-30T15:55:09Z</time>
      </trkpt>
      <trkpt lat="40.825550" lon="-4.272817">
        <ele>1656.0</ele>
        <time>2014-06-30T15:55:10Z</time>
      </trkpt>
      <trkpt lat="40.825633" lon="-4.272717">
        <ele>1655.0</ele>
        <time>2014-06-30T15:55:11Z</time>
      </trkpt>
      <trkpt lat="40.825733" lon="-4.272617">
        <ele>1654.0</ele>
        <time>2014-06-30T15:55:12Z</time>
      </trkpt>
      <trkpt lat="40.825817" lon="-4.272533">
        <ele>1653.0</ele>
        <time>2014-06-30T15:55:13Z</time>
      </trkpt>
      <trkpt lat="40.825900" lon="-4.272433">
        <ele>1653.0</ele>
        <time>2014-06-30T15:55:14Z</time>
      </trkpt>
      <trkpt lat="40.825983" lon="-4.272350">
        <ele>1653.0</ele>
        <time>2014-06-30T15:55:15Z</time>
      </trkpt>
      <trkpt lat="40.826067" lon="-4.272267">
        <ele>1653.0</ele>
        <time>2014-06-30T15:55:16Z</time>
      </trkpt>
      <trkpt lat="40.826150" lon="-4.272167">
        <ele>1652.0</ele>
        <time>2014-06-30T15:55:17Z</time>
      </trkpt>
      <trkpt lat="40.826250" lon="-4.272067">
        <ele>1651.0</ele>
        <time>2014-06-30T15:55:18Z</time>
      </trkpt>
      <trkpt lat="40.826350" lon="-4.271967">
        <ele>1651.0</ele>
        <time>2014-06-30T15:55:19Z</time>
      </trkpt>
      <trkpt lat="40.826450" lon="-4.271850">
        <ele>1650.0</ele>
        <time>2014-06-30T15:55:20Z</time>
      </trkpt>
      <trkpt lat="40.826533" lon="-4.271733">
        <ele>1651.0</ele>
        <time>2014-06-30T15:55:21Z</time>
      </trkpt>
      <trkpt lat="40.826617" lon="-4.271617">
        <ele>1652.0</ele>
        <time>2014-06-30T15:55:22Z</time>
      </trkpt>
      <trkpt lat="40.826700" lon="-4.271500">
        <ele>1652.0</ele>
        <time>2014-06-30T15:55:23Z</time>
      </trkpt>
      <trkpt lat="40.826767" lon="-4.271383">
        <ele>1652.0</ele>
        <time>2014-06-30T15:55:24Z</time>
      </trkpt>
      <trkpt lat="40.826850" lon="-4.271267">
        <ele>1652.0</ele>
        <time>2014-06-30T15:55:25Z</time>
      </trkpt>
      <trkpt lat="40.826933" lon="-4.271150">
        <ele>1652.0</ele>
        <time>2014-06-30T15:55:26Z</time>
      </trkpt>
      <trkpt lat="40.827017" lon="-4.271067">
        <ele>1652.0</ele>
        <time>2014-06-30T15:55:27Z</time>
      </trkpt>
      <trkpt lat="40.827100" lon="-4.270967">
        <ele>1652.0</ele>
        <time>2014-06-30T15:55:28Z</time>
      </trkpt>
      <trkpt lat="40.827183" lon="-4.270883">
        <ele>1652.0</ele>
        <time>2014-06-30T15:55:29Z</time>
      </trkpt>
      <trkpt lat="40.827250" lon="-4.270783">
        <ele>1652.0</ele>
        <time>2014-06-30T15:55:30Z</time>
      </trkpt>
      <trkpt lat="40.827317" lon="-4.270700">
        <ele>1652.0</ele>
        <time>2014-06-30T15:55:31Z</time>
      </trkpt>
      <trkpt lat="40.827383" lon="-4.270617">
        <ele>1653.0</ele>
        <time>2014-06-30T15:55:32Z</time>
      </trkpt>
      <trkpt lat="40.827450" lon="-4.270533">
        <ele>1653.0</ele>
        <time>2014-06-30T15:55:33Z</time>
      </trkpt>
      <trkpt lat="40.827533" lon="-4.270450">
        <ele>1653.0</ele>
        <time>2014-06-30T15:55:34Z</time>
      </trkpt>
      <trkpt lat="40.827600" lon="-4.270367">
        <ele>1653.0</ele>
        <time>2014-06-30T15:55:35Z</time>
      </trkpt>
      <trkpt lat="40.827667" lon="-4.270300">
        <ele>1653.0</ele>
        <time>2014-06-30T15:55:36Z</time>
      </trkpt>
      <trkpt lat="40.827750" lon="-4.270233">
        <ele>1652.0</ele>
        <time>2014-06-30T15:55:37Z</time>
      </trkpt>
      <trkpt lat="40.827817" lon="-4.270133">
        <ele>1652.0</ele>
        <time>2014-06-30T15:55:38Z</time>
      </trkpt>
      <trkpt lat="40.827900" lon="-4.270050">
        <ele>1652.0</ele>
        <time>2014-06-30T15:55:39Z</time>
      </trkpt>
      <trkpt lat="40.827967" lon="-4.269967">
        <ele>1652.0</ele>
        <time>2014-06-30T15:55:40Z</time>
      </trkpt>
      <trkpt lat="40.828050" lon="-4.269900">
        <ele>1652.0</ele>
        <time>2014-06-30T15:55:41Z</time>
      </trkpt>
      <trkpt lat="40.828133" lon="-4.269817">
        <ele>1651.0</ele>
        <time>2014-06-30T15:55:42Z</time>
      </trkpt>
      <trkpt lat="40.828200" lon="-4.269733">
        <ele>1651.0</ele>
        <time>2014-06-30T15:55:43Z</time>
      </trkpt>
      <trkpt lat="40.828283" lon="-4.269667">
        <ele>1650.0</ele>
        <time>2014-06-30T15:55:44Z</time>
      </trkpt>
      <trkpt lat="40.828350" lon="-4.269583">
        <ele>1650.0</ele>
        <time>2014-06-30T15:55:45Z</time>
      </trkpt>
      <trkpt lat="40.828400" lon="-4.269483">
        <ele>1650.0</ele>
        <time>2014-06-30T15:55:46Z</time>
      </trkpt>
      <trkpt lat="40.828450" lon="-4.269350">
        <ele>1650.0</ele>
        <time>2014-06-30T15:55:47Z</time>
      </trkpt>
      <trkpt lat="40.828483" lon="-4.269183">
        <ele>1648.0</ele>
        <time>2014-06-30T15:55:48Z</time>
      </trkpt>
      <trkpt lat="40.828500" lon="-4.269000">
        <ele>1647.0</ele>
        <time>2014-06-30T15:55:49Z</time>
      </trkpt>
      <trkpt lat="40.828500" lon="-4.268817">
        <ele>1646.0</ele>
        <time>2014-06-30T15:55:50Z</time>
      </trkpt>
      <trkpt lat="40.828500" lon="-4.268650">
        <ele>1645.0</ele>
        <time>2014-06-30T15:55:51Z</time>
      </trkpt>
      <trkpt lat="40.828500" lon="-4.268483">
        <ele>1644.0</ele>
        <time>2014-06-30T15:55:52Z</time>
      </trkpt>
      <trkpt lat="40.828533" lon="-4.268317">
        <ele>1643.0</ele>
        <time>2014-06-30T15:55:53Z</time>
      </trkpt>
      <trkpt lat="40.828567" lon="-4.268167">
        <ele>1642.0</ele>
        <time>2014-06-30T15:55:54Z</time>
      </trkpt>
      <trkpt lat="40.828600" lon="-4.268000">
        <ele>1639.0</ele>
        <time>2014-06-30T15:55:55Z</time>
      </trkpt>
      <trkpt lat="40.828633" lon="-4.267850">
        <ele>1637.0</ele>
        <time>2014-06-30T15:55:56Z</time>
      </trkpt>
      <trkpt lat="40.828667" lon="-4.267700">
        <ele>1635.0</ele>
        <time>2014-06-30T15:55:57Z</time>
      </trkpt>
      <trkpt lat="40.828717" lon="-4.267550">
        <ele>1633.0</ele>
        <time>2014-06-30T15:55:58Z</time>
      </trkpt>
      <trkpt lat="40.828767" lon="-4.267433">
        <ele>1631.0</ele>
        <time>2014-06-30T15:55:59Z</time>
      </trkpt>
      <trkpt lat="40.828817" lon="-4.267317">
        <ele>1630.0</ele>
        <time>2014-06-30T15:56:00Z</time>
      </trkpt>
      <trkpt lat="40.828867" lon="-4.267200">
        <ele>1628.0</ele>
        <time>2014-06-30T15:56:01Z</time>
      </trkpt>
      <trkpt lat="40.828900" lon="-4.267083">
        <ele>1627.0</ele>
        <time>2014-06-30T15:56:02Z</time>
      </trkpt>
      <trkpt lat="40.828933" lon="-4.266983">
        <ele>1626.0</ele>
        <time>2014-06-30T15:56:03Z</time>
      </trkpt>
      <trkpt lat="40.829000" lon="-4.266883">
        <ele>1624.0</ele>
        <time>2014-06-30T15:56:04Z</time>
      </trkpt>
      <trkpt lat="40.829050" lon="-4.266783">
        <ele>1622.0</ele>
        <time>2014-06-30T15:56:05Z</time>
      </trkpt>
      <trkpt lat="40.829117" lon="-4.266683">
        <ele>1620.0</ele>
        <time>2014-06-30T15:56:06Z</time>
      </trkpt>
      <trkpt lat="40.829183" lon="-4.266600">
        <ele>1618.0</ele>
        <time>2014-06-30T15:56:07Z</time>
      </trkpt>
      <trkpt lat="40.829267" lon="-4.266500">
        <ele>1615.0</ele>
        <time>2014-06-30T15:56:08Z</time>
      </trkpt>
      <trkpt lat="40.829333" lon="-4.266417">
        <ele>1612.0</ele>
        <time>2014-06-30T15:56:09Z</time>
      </trkpt>
      <trkpt lat="40.829417" lon="-4.266333">
        <ele>1609.0</ele>
        <time>2014-06-30T15:56:10Z</time>
      </trkpt>
      <trkpt lat="40.829500" lon="-4.266250">
        <ele>1607.0</ele>
        <time>2014-06-30T15:56:11Z</time>
      </trkpt>
      <trkpt lat="40.829583" lon="-4.266167">
        <ele>1604.0</ele>
        <time>2014-06-30T15:56:12Z</time>
      </trkpt>
      <trkpt lat="40.829650" lon="-4.266067">
        <ele>1602.0</ele>
        <time>2014-06-30T15:56:13Z</time>
      </trkpt>
      <trkpt lat="40.829717" lon="-4.265983">
        <ele>1600.0</ele>
        <time>2014-06-30T15:56:14Z</time>
      </trkpt>
      <trkpt lat="40.829783" lon="-4.265883">
        <ele>1596.0</ele>
        <time>2014-06-30T15:56:15Z</time>
      </trkpt>
      <trkpt lat="40.829867" lon="-4.265767">
        <ele>1593.0</ele>
        <time>2014-06-30T15:56:16Z</time>
      </trkpt>
      <trkpt lat="40.829950" lon="-4.265650">
        <ele>1590.0</ele>
        <time>2014-06-30T15:56:17Z</time>
      </trkpt>
      <trkpt lat="40.830017" lon="-4.265517">
        <ele>1587.0</ele>
        <time>2014-06-30T15:56:18Z</time>
      </trkpt>
      <trkpt lat="40.830100" lon="-4.265383">
        <ele>1585.0</ele>
        <time>2014-06-30T15:56:19Z</time>
      </trkpt>
      <trkpt lat="40.830167" lon="-4.265267">
        <ele>1583.0</ele>
        <time>2014-06-30T15:56:20Z</time>
      </trkpt>
      <trkpt lat="40.830233" lon="-4.265117">
        <ele>1581.0</ele>
        <time>2014-06-30T15:56:21Z</time>
      </trkpt>
      <trkpt lat="40.830300" lon="-4.264950">
        <ele>1578.0</ele>
        <time>2014-06-30T15:56:22Z</time>
      </trkpt>
      <trkpt lat="40.830350" lon="-4.264783">
        <ele>1576.0</ele>
        <time>2014-06-30T15:56:23Z</time>
      </trkpt>
      <trkpt lat="40.830383" lon="-4.264600">
        <ele>1574.0</ele>
        <time>2014-06-30T15:56:24Z</time>
      </trkpt>
      <trkpt lat="40.830433" lon="-4.264450">
        <ele>1572.0</ele>
        <time>2014-06-30T15:56:25Z</time>
      </trkpt>
      <trkpt lat="40.830483" lon="-4.264300">
        <ele>1571.0</ele>
        <time>2014-06-30T15:56:26Z</time>
      </trkpt>
      <trkpt lat="40.830533" lon="-4.264167">
        <ele>1571.0</ele>
        <time>2014-06-30T15:56:27Z</time>
      </trkpt>
      <trkpt lat="40.830600" lon="-4.264050">
        <ele>1571.0</ele>
        <time>2014-06-30T15:56:28Z</time>
      </trkpt>
      <trkpt lat="40.830650" lon="-4.263950">
        <ele>1570.0</ele>
        <time>2014-06-30T15:56:29Z</time>
      </trkpt>
      <trkpt lat="40.830717" lon="-4.263833">
        <ele>1569.0</ele>
        <time>2014-06-30T15:56:30Z</time>
      </trkpt>
      <trkpt lat="40.830767" lon="-4.263717">
        <ele>1568.0</ele>
        <time>2014-06-30T15:56:31Z</time>
      </trkpt>
      <trkpt lat="40.830817" lon="-4.263600">
        <ele>1567.0</ele>
        <time>2014-06-30T15:56:32Z</time>
      </trkpt>
      <trkpt lat="40.830883" lon="-4.263467">
        <ele>1565.0</ele>
        <time>2014-06-30T15:56:33Z</time>
      </trkpt>
      <trkpt lat="40.830950" lon="-4.263350">
        <ele>1563.0</ele>
        <time>2014-06-30T15:56:34Z</time>
      </trkpt>
      <trkpt lat="40.831000" lon="-4.263233">
        <ele>1562.0</ele>
        <time>2014-06-30T15:56:35Z</time>
      </trkpt>
      <trkpt lat="40.831067" lon="-4.263150">
        <ele>1559.0</ele>
        <time>2014-06-30T15:56:36Z</time>
      </trkpt>
      <trkpt lat="40.831133" lon="-4.263033">
        <ele>1556.0</ele>
        <time>2014-06-30T15:56:37Z</time>
      </trkpt>
      <trkpt lat="40.831217" lon="-4.262933">
        <ele>1554.0</ele>
        <time>2014-06-30T15:56:38Z</time>
      </trkpt>
      <trkpt lat="40.831283" lon="-4.262817">
        <ele>1551.0</ele>
        <time>2014-06-30T15:56:39Z</time>
      </trkpt>
      <trkpt lat="40.831350" lon="-4.262683">
        <ele>1550.0</ele>
        <time>2014-06-30T15:56:40Z</time>
      </trkpt>
      <trkpt lat="40.831400" lon="-4.262550">
        <ele>1548.0</ele>
        <time>2014-06-30T15:56:41Z</time>
      </trkpt>
      <trkpt lat="40.831450" lon="-4.262417">
        <ele>1548.0</ele>
        <time>2014-06-30T15:56:42Z</time>
      </trkpt>
      <trkpt lat="40.831517" lon="-4.262283">
        <ele>1547.0</ele>
        <time>2014-06-30T15:56:43Z</time>
      </trkpt>
      <trkpt lat="40.831567" lon="-4.262167">
        <ele>1547.0</ele>
        <time>2014-06-30T15:56:44Z</time>
      </trkpt>
      <trkpt lat="40.831633" lon="-4.262067">
        <ele>1546.0</ele>
        <time>2014-06-30T15:56:45Z</time>
      </trkpt>
      <trkpt lat="40.831700" lon="-4.261967">
        <ele>1547.0</ele>
        <time>2014-06-30T15:56:46Z</time>
      </trkpt>
      <trkpt lat="40.831767" lon="-4.261867">
        <ele>1547.0</ele>
        <time>2014-06-30T15:56:47Z</time>
      </trkpt>
      <trkpt lat="40.831833" lon="-4.261750">
        <ele>1546.0</ele>
        <time>2014-06-30T15:56:48Z</time>
      </trkpt>
      <trkpt lat="40.831900" lon="-4.261633">
        <ele>1546.0</ele>
        <time>2014-06-30T15:56:49Z</time>
      </trkpt>
      <trkpt lat="40.831967" lon="-4.261517">
        <ele>1546.0</ele>
        <time>2014-06-30T15:56:50Z</time>
      </trkpt>
      <trkpt lat="40.832017" lon="-4.261383">
        <ele>1546.0</ele>
        <time>2014-06-30T15:56:51Z</time>
      </trkpt>
      <trkpt lat="40.832067" lon="-4.261267">
        <ele>1547.0</ele>
        <time>2014-06-30T15:56:52Z</time>
      </trkpt>
      <trkpt lat="40.832117" lon="-4.261150">
        <ele>1547.0</ele>
        <time>2014-06-30T15:56:53Z</time>
      </trkpt>
      <trkpt lat="40.832167" lon="-4.261050">
        <ele>1546.0</ele>
        <time>2014-06-30T15:56:54Z</time>
      </trkpt>
      <trkpt lat="40.832233" lon="-4.260933">
        <ele>1545.0</ele>
        <time>2014-06-30T15:56:55Z</time>
      </trkpt>
      <trkpt lat="40.832300" lon="-4.260817">
        <ele>1545.0</ele>
        <time>2014-06-30T15:56:56Z</time>
      </trkpt>
      <trkpt lat="40.832383" lon="-4.260683">
        <ele>1543.0</ele>
        <time>2014-06-30T15:56:57Z</time>
      </trkpt>
      <trkpt lat="40.832467" lon="-4.260567">
        <ele>1542.0</ele>
        <time>2014-06-30T15:56:58Z</time>
      </trkpt>
      <trkpt lat="40.832533" lon="-4.260417">
        <ele>1541.0</ele>
        <time>2014-06-30T15:56:59Z</time>
      </trkpt>
      <trkpt lat="40.832583" lon="-4.260250">
        <ele>1540.0</ele>
        <time>2014-06-30T15:57:00Z</time>
      </trkpt>
      <trkpt lat="40.832617" lon="-4.260083">
        <ele>1539.0</ele>
        <time>2014-06-30T15:57:01Z</time>
      </trkpt>
      <trkpt lat="40.832633" lon="-4.259900">
        <ele>1538.0</ele>
        <time>2014-06-30T15:57:02Z</time>
      </trkpt>
      <trkpt lat="40.832667" lon="-4.259733">
        <ele>1538.0</ele>
        <time>2014-06-30T15:57:03Z</time>
      </trkpt>
      <trkpt lat="40.832700" lon="-4.259583">
        <ele>1538.0</ele>
        <time>2014-06-30T15:57:04Z</time>
      </trkpt>
      <trkpt lat="40.832733" lon="-4.259417">
        <ele>1538.0</ele>
        <time>2014-06-30T15:57:05Z</time>
      </trkpt>
      <trkpt lat="40.832783" lon="-4.259267">
        <ele>1537.0</ele>
        <time>2014-06-30T15:57:06Z</time>
      </trkpt>
      <trkpt lat="40.832833" lon="-4.259100">
        <ele>1536.0</ele>
        <time>2014-06-30T15:57:07Z</time>
      </trkpt>
      <trkpt lat="40.832883" lon="-4.258950">
        <ele>1537.0</ele>
        <time>2014-06-30T15:57:08Z</time>
      </trkpt>
      <trkpt lat="40.832917" lon="-4.258800">
        <ele>1537.0</ele>
        <time>2014-06-30T15:57:09Z</time>
      </trkpt>
      <trkpt lat="40.832950" lon="-4.258650">
        <ele>1537.0</ele>
        <time>2014-06-30T15:57:10Z</time>
      </trkpt>
      <trkpt lat="40.833000" lon="-4.258500">
        <ele>1536.0</ele>
        <time>2014-06-30T15:57:11Z</time>
      </trkpt>
      <trkpt lat="40.833050" lon="-4.258333">
        <ele>1536.0</ele>
        <time>2014-06-30T15:57:12Z</time>
      </trkpt>
      <trkpt lat="40.833100" lon="-4.258183">
        <ele>1536.0</ele>
        <time>2014-06-30T15:57:13Z</time>
      </trkpt>
      <trkpt lat="40.833133" lon="-4.258017">
        <ele>1536.0</ele>
        <time>2014-06-30T15:57:14Z</time>
      </trkpt>
      <trkpt lat="40.833183" lon="-4.257850">
        <ele>1537.0</ele>
        <time>2014-06-30T15:57:15Z</time>
      </trkpt>
      <trkpt lat="40.833200" lon="-4.257683">
        <ele>1539.0</ele>
        <time>2014-06-30T15:57:16Z</time>
      </trkpt>
      <trkpt lat="40.833217" lon="-4.257517">
        <ele>1544.0</ele>
        <time>2014-06-30T15:57:17Z</time>
      </trkpt>
      <trkpt lat="40.833217" lon="-4.257367">
        <ele>1546.0</ele>
        <time>2014-06-30T15:57:18Z</time>
      </trkpt>
      <trkpt lat="40.833233" lon="-4.257217">
        <ele>1547.0</ele>
        <time>2014-06-30T15:57:19Z</time>
      </trkpt>
      <trkpt lat="40.833233" lon="-4.257050">
        <ele>1548.0</ele>
        <time>2014-06-30T15:57:20Z</time>
      </trkpt>
      <trkpt lat="40.833200" lon="-4.256850">
        <ele>1549.0</ele>
        <time>2014-06-30T15:57:21Z</time>
      </trkpt>
      <trkpt lat="40.833150" lon="-4.256667">
        <ele>1550.0</ele>
        <time>2014-06-30T15:57:22Z</time>
      </trkpt>
      <trkpt lat="40.833067" lon="-4.256500">
        <ele>1551.0</ele>
        <time>2014-06-30T15:57:23Z</time>
      </trkpt>
      <trkpt lat="40.832967" lon="-4.256383">
        <ele>1551.0</ele>
        <time>2014-06-30T15:57:24Z</time>
      </trkpt>
      <trkpt lat="40.832850" lon="-4.256300">
        <ele>1552.0</ele>
        <time>2014-06-30T15:57:25Z</time>
      </trkpt>
      <trkpt lat="40.832750" lon="-4.256250">
        <ele>1553.0</ele>
        <time>2014-06-30T15:57:26Z</time>
      </trkpt>
      <trkpt lat="40.832667" lon="-4.256217">
        <ele>1555.0</ele>
        <time>2014-06-30T15:57:27Z</time>
      </trkpt>
      <trkpt lat="40.832583" lon="-4.256217">
        <ele>1557.0</ele>
        <time>2014-06-30T15:57:28Z</time>
      </trkpt>
      <trkpt lat="40.832500" lon="-4.256217">
        <ele>1558.0</ele>
        <time>2014-06-30T15:57:29Z</time>
      </trkpt>
      <trkpt lat="40.832433" lon="-4.256233">
        <ele>1560.0</ele>
        <time>2014-06-30T15:57:30Z</time>
      </trkpt>
      <trkpt lat="40.832367" lon="-4.256250">
        <ele>1561.0</ele>
        <time>2014-06-30T15:57:31Z</time>
      </trkpt>
      <trkpt lat="40.832317" lon="-4.256283">
        <ele>1563.0</ele>
        <time>2014-06-30T15:57:32Z</time>
      </trkpt>
      <trkpt lat="40.832300" lon="-4.256333">
        <ele>1564.0</ele>
        <time>2014-06-30T15:57:33Z</time>
      </trkpt>
      <trkpt lat="40.832300" lon="-4.256383">
        <ele>1564.0</ele>
        <time>2014-06-30T15:57:34Z</time>
      </trkpt>
      <trkpt lat="40.832317" lon="-4.256417">
        <ele>1565.0</ele>
        <time>2014-06-30T15:57:35Z</time>
      </trkpt>
      <trkpt lat="40.832350" lon="-4.256467">
        <ele>1565.0</ele>
        <time>2014-06-30T15:57:36Z</time>
      </trkpt>
      <trkpt lat="40.832400" lon="-4.256483">
        <ele>1567.0</ele>
        <time>2014-06-30T15:57:37Z</time>
      </trkpt>
      <trkpt lat="40.832433" lon="-4.256483">
        <ele>1567.0</ele>
        <time>2014-06-30T15:57:38Z</time>
      </trkpt>
      <trkpt lat="40.832467" lon="-4.256450">
        <ele>1568.0</ele>
        <time>2014-06-30T15:57:39Z</time>
      </trkpt>
      <trkpt lat="40.832517" lon="-4.256417">
        <ele>1569.0</ele>
        <time>2014-06-30T15:57:40Z</time>
      </trkpt>
      <trkpt lat="40.832567" lon="-4.256367">
        <ele>1565.0</ele>
        <time>2014-06-30T15:57:41Z</time>
      </trkpt>
      <trkpt lat="40.832600" lon="-4.256333">
        <ele>1566.0</ele>
        <time>2014-06-30T15:57:42Z</time>
      </trkpt>
      <trkpt lat="40.832633" lon="-4.256317">
        <ele>1566.0</ele>
        <time>2014-06-30T15:57:43Z</time>
      </trkpt>
      <trkpt lat="40.832667" lon="-4.256333">
        <ele>1566.0</ele>
        <time>2014-06-30T15:57:44Z</time>
      </trkpt>
      <trkpt lat="40.832700" lon="-4.256333">
        <ele>1564.0</ele>
        <time>2014-06-30T15:57:45Z</time>
      </trkpt>
      <trkpt lat="40.832750" lon="-4.256333">
        <ele>1564.0</ele>
        <time>2014-06-30T15:57:46Z</time>
      </trkpt>
      <trkpt lat="40.832800" lon="-4.256333">
        <ele>1563.0</ele>
        <time>2014-06-30T15:57:47Z</time>
      </trkpt>
      <trkpt lat="40.832850" lon="-4.256317">
        <ele>1562.0</ele>
        <time>2014-06-30T15:57:48Z</time>
      </trkpt>
      <trkpt lat="40.832900" lon="-4.256283">
        <ele>1562.0</ele>
        <time>2014-06-30T15:57:49Z</time>
      </trkpt>
      <trkpt lat="40.832950" lon="-4.256250">
        <ele>1562.0</ele>
        <time>2014-06-30T15:57:50Z</time>
      </trkpt>
      <trkpt lat="40.833000" lon="-4.256217">
        <ele>1561.0</ele>
        <time>2014-06-30T15:57:51Z</time>
      </trkpt>
      <trkpt lat="40.833033" lon="-4.256183">
        <ele>1561.0</ele>
        <time>2014-06-30T15:57:52Z</time>
      </trkpt>
      <trkpt lat="40.833067" lon="-4.256167">
        <ele>1560.0</ele>
        <time>2014-06-30T15:57:53Z</time>
      </trkpt>
      <trkpt lat="40.833100" lon="-4.256133">
        <ele>1559.0</ele>
        <time>2014-06-30T15:57:54Z</time>
      </trkpt>
      <trkpt lat="40.833133" lon="-4.256117">
        <ele>1557.0</ele>
        <time>2014-06-30T15:57:55Z</time>
      </trkpt>
      <trkpt lat="40.833183" lon="-4.256100">
        <ele>1556.0</ele>
        <time>2014-06-30T15:57:56Z</time>
      </trkpt>
      <trkpt lat="40.833233" lon="-4.256100">
        <ele>1555.0</ele>
        <time>2014-06-30T15:57:57Z</time>
      </trkpt>
      <trkpt lat="40.833267" lon="-4.256083">
        <ele>1555.0</ele>
        <time>2014-06-30T15:57:58Z</time>
      </trkpt>
      <trkpt lat="40.833300" lon="-4.256050">
        <ele>1554.0</ele>
        <time>2014-06-30T15:57:59Z</time>
      </trkpt>
      <trkpt lat="40.833350" lon="-4.256033">
        <ele>1554.0</ele>
        <time>2014-06-30T15:58:00Z</time>
      </trkpt>
      <trkpt lat="40.833383" lon="-4.256000">
        <ele>1554.0</ele>
        <time>2014-06-30T15:58:01Z</time>
      </trkpt>
      <trkpt lat="40.833400" lon="-4.255983">
        <ele>1553.0</ele>
        <time>2014-06-30T15:58:02Z</time>
      </trkpt>
      <trkpt lat="40.833433" lon="-4.255983">
        <ele>1552.0</ele>
        <time>2014-06-30T15:58:03Z</time>
      </trkpt>
      <trkpt lat="40.833483" lon="-4.255967">
        <ele>1551.0</ele>
        <time>2014-06-30T15:58:04Z</time>
      </trkpt>
      <trkpt lat="40.833517" lon="-4.255950">
        <ele>1550.0</ele>
        <time>2014-06-30T15:58:05Z</time>
      </trkpt>
      <trkpt lat="40.833567" lon="-4.255917">
        <ele>1550.0</ele>
        <time>2014-06-30T15:58:06Z</time>
      </trkpt>
      <trkpt lat="40.833617" lon="-4.255900">
        <ele>1549.0</ele>
        <time>2014-06-30T15:58:07Z</time>
      </trkpt>
      <trkpt lat="40.833667" lon="-4.255867">
        <ele>1549.0</ele>
        <time>2014-06-30T15:58:08Z</time>
      </trkpt>
      <trkpt lat="40.833717" lon="-4.255867">
        <ele>1549.0</ele>
        <time>2014-06-30T15:58:09Z</time>
      </trkpt>
      <trkpt lat="40.833767" lon="-4.255850">
        <ele>1549.0</ele>
        <time>2014-06-30T15:58:10Z</time>
      </trkpt>
      <trkpt lat="40.833833" lon="-4.255850">
        <ele>1549.0</ele>
        <time>2014-06-30T15:58:11Z</time>
      </trkpt>
      <trkpt lat="40.833883" lon="-4.255817">
        <ele>1549.0</ele>
        <time>2014-06-30T15:58:12Z</time>
      </trkpt>
      <trkpt lat="40.833950" lon="-4.255817">
        <ele>1550.0</ele>
        <time>2014-06-30T15:58:13Z</time>
      </trkpt>
      <trkpt lat="40.834017" lon="-4.255800">
        <ele>1550.0</ele>
        <time>2014-06-30T15:58:14Z</time>
      </trkpt>
      <trkpt lat="40.834100" lon="-4.255783">
        <ele>1552.0</ele>
        <time>2014-06-30T15:58:15Z</time>
      </trkpt>
      <trkpt lat="40.834150" lon="-4.255783">
        <ele>1553.0</ele>
        <time>2014-06-30T15:58:16Z</time>
      </trkpt>
      <trkpt lat="40.834183" lon="-4.255783">
        <ele>1555.0</ele>
        <time>2014-06-30T15:58:17Z</time>
      </trkpt>
      <trkpt lat="40.834233" lon="-4.255800">
        <ele>1558.0</ele>
        <time>2014-06-30T15:58:18Z</time>
      </trkpt>
      <trkpt lat="40.834267" lon="-4.255817">
        <ele>1561.0</ele>
        <time>2014-06-30T15:58:19Z</time>
      </trkpt>
      <trkpt lat="40.834317" lon="-4.255817">
        <ele>1563.0</ele>
        <time>2014-06-30T15:58:20Z</time>
      </trkpt>
      <trkpt lat="40.834367" lon="-4.255833">
        <ele>1564.0</ele>
        <time>2014-06-30T15:58:21Z</time>
      </trkpt>
      <trkpt lat="40.834417" lon="-4.255833">
        <ele>1566.0</ele>
        <time>2014-06-30T15:58:22Z</time>
      </trkpt>
      <trkpt lat="40.834483" lon="-4.255833">
        <ele>1567.0</ele>
        <time>2014-06-30T15:58:23Z</time>
      </trkpt>
      <trkpt lat="40.834533" lon="-4.255850">
        <ele>1569.0</ele>
        <time>2014-06-30T15:58:24Z</time>
      </trkpt>
      <trkpt lat="40.834567" lon="-4.255850">
        <ele>1572.0</ele>
        <time>2014-06-30T15:58:25Z</time>
      </trkpt>
      <trkpt lat="40.834600" lon="-4.255850">
        <ele>1575.0</ele>
        <time>2014-06-30T15:58:26Z</time>
      </trkpt>
      <trkpt lat="40.834633" lon="-4.255850">
        <ele>1577.0</ele>
        <time>2014-06-30T15:58:27Z</time>
      </trkpt>
      <trkpt lat="40.834667" lon="-4.255833">
        <ele>1578.0</ele>
        <time>2014-06-30T15:58:28Z</time>
      </trkpt>
      <trkpt lat="40.834717" lon="-4.255817">
        <ele>1579.0</ele>
        <time>2014-06-30T15:58:29Z</time>
      </trkpt>
      <trkpt lat="40.834767" lon="-4.255800">
        <ele>1580.0</ele>
        <time>2014-06-30T15:58:30Z</time>
      </trkpt>
      <trkpt lat="40.834833" lon="-4.255767">
        <ele>1581.0</ele>
        <time>2014-06-30T15:58:31Z</time>
      </trkpt>
      <trkpt lat="40.834917" lon="-4.255717">
        <ele>1582.0</ele>
        <time>2014-06-30T15:58:32Z</time>
      </trkpt>
      <trkpt lat="40.834983" lon="-4.255617">
        <ele>1582.0</ele>
        <time>2014-06-30T15:58:33Z</time>
      </trkpt>
      <trkpt lat="40.835050" lon="-4.255483">
        <ele>1582.0</ele>
        <time>2014-06-30T15:58:34Z</time>
      </trkpt>
      <trkpt lat="40.835100" lon="-4.255317">
        <ele>1583.0</ele>
        <time>2014-06-30T15:58:35Z</time>
      </trkpt>
      <trkpt lat="40.835133" lon="-4.255150">
        <ele>1584.0</ele>
        <time>2014-06-30T15:58:36Z</time>
      </trkpt>
      <trkpt lat="40.835133" lon="-4.254983">
        <ele>1584.0</ele>
        <time>2014-06-30T15:58:37Z</time>
      </trkpt>
      <trkpt lat="40.835100" lon="-4.254817">
        <ele>1585.0</ele>
        <time>2014-06-30T15:58:38Z</time>
      </trkpt>
      <trkpt lat="40.835067" lon="-4.254650">
        <ele>1584.0</ele>
        <time>2014-06-30T15:58:39Z</time>
      </trkpt>
      <trkpt lat="40.835033" lon="-4.254467">
        <ele>1584.0</ele>
        <time>2014-06-30T15:58:40Z</time>
      </trkpt>
      <trkpt lat="40.835000" lon="-4.254300">
        <ele>1583.0</ele>
        <time>2014-06-30T15:58:41Z</time>
      </trkpt>
      <trkpt lat="40.834950" lon="-4.254133">
        <ele>1583.0</ele>
        <time>2014-06-30T15:58:42Z</time>
      </trkpt>
      <trkpt lat="40.834883" lon="-4.253983">
        <ele>1582.0</ele>
        <time>2014-06-30T15:58:43Z</time>
      </trkpt>
      <trkpt lat="40.834817" lon="-4.253867">
        <ele>1581.0</ele>
        <time>2014-06-30T15:58:44Z</time>
      </trkpt>
      <trkpt lat="40.834717" lon="-4.253767">
        <ele>1580.0</ele>
        <time>2014-06-30T15:58:45Z</time>
      </trkpt>
      <trkpt lat="40.834617" lon="-4.253700">
        <ele>1579.0</ele>
        <time>2014-06-30T15:58:46Z</time>
      </trkpt>
      <trkpt lat="40.834533" lon="-4.253683">
        <ele>1579.0</ele>
        <time>2014-06-30T15:58:47Z</time>
      </trkpt>
      <trkpt lat="40.834450" lon="-4.253683">
        <ele>1579.0</ele>
        <time>2014-06-30T15:58:48Z</time>
      </trkpt>
      <trkpt lat="40.834383" lon="-4.253717">
        <ele>1579.0</ele>
        <time>2014-06-30T15:58:49Z</time>
      </trkpt>
      <trkpt lat="40.834350" lon="-4.253750">
        <ele>1579.0</ele>
        <time>2014-06-30T15:58:50Z</time>
      </trkpt>
      <trkpt lat="40.834300" lon="-4.253800">
        <ele>1579.0</ele>
        <time>2014-06-30T15:58:51Z</time>
      </trkpt>
      <trkpt lat="40.834283" lon="-4.253850">
        <ele>1579.0</ele>
        <time>2014-06-30T15:58:52Z</time>
      </trkpt>
      <trkpt lat="40.834250" lon="-4.253900">
        <ele>1579.0</ele>
        <time>2014-06-30T15:58:53Z</time>
      </trkpt>
      <trkpt lat="40.834200" lon="-4.253933">
        <ele>1581.0</ele>
        <time>2014-06-30T15:58:54Z</time>
      </trkpt>
      <trkpt lat="40.834150" lon="-4.253950">
        <ele>1582.0</ele>
        <time>2014-06-30T15:58:55Z</time>
      </trkpt>
      <trkpt lat="40.834117" lon="-4.253983">
        <ele>1584.0</ele>
        <time>2014-06-30T15:58:56Z</time>
      </trkpt>
      <trkpt lat="40.834100" lon="-4.254017">
        <ele>1585.0</ele>
        <time>2014-06-30T15:58:57Z</time>
      </trkpt>
      <trkpt lat="40.834083" lon="-4.254050">
        <ele>1587.0</ele>
        <time>2014-06-30T15:58:58Z</time>
      </trkpt>
      <trkpt lat="40.834050" lon="-4.254067">
        <ele>1589.0</ele>
        <time>2014-06-30T15:58:59Z</time>
      </trkpt>
      <trkpt lat="40.834033" lon="-4.254100">
        <ele>1590.0</ele>
        <time>2014-06-30T15:59:00Z</time>
      </trkpt>
      <trkpt lat="40.834000" lon="-4.254133">
        <ele>1592.0</ele>
        <time>2014-06-30T15:59:01Z</time>
      </trkpt>
      <trkpt lat="40.833950" lon="-4.254167">
        <ele>1593.0</ele>
        <time>2014-06-30T15:59:02Z</time>
      </trkpt>
      <trkpt lat="40.833917" lon="-4.254217">
        <ele>1595.0</ele>
        <time>2014-06-30T15:59:03Z</time>
      </trkpt>
      <trkpt lat="40.833900" lon="-4.254267">
        <ele>1595.0</ele>
        <time>2014-06-30T15:59:04Z</time>
      </trkpt>
      <trkpt lat="40.833883" lon="-4.254317">
        <ele>1597.0</ele>
        <time>2014-06-30T15:59:05Z</time>
      </trkpt>
      <trkpt lat="40.833900" lon="-4.254383">
        <ele>1598.0</ele>
        <time>2014-06-30T15:59:06Z</time>
      </trkpt>
      <trkpt lat="40.833917" lon="-4.254417">
        <ele>1600.0</ele>
        <time>2014-06-30T15:59:07Z</time>
      </trkpt>
      <trkpt lat="40.833950" lon="-4.254450">
        <ele>1601.0</ele>
        <time>2014-06-30T15:59:08Z</time>
      </trkpt>
      <trkpt lat="40.833983" lon="-4.254467">
        <ele>1604.0</ele>
        <time>2014-06-30T15:59:09Z</time>
      </trkpt>
      <trkpt lat="40.834000" lon="-4.254483">
        <ele>1606.0</ele>
        <time>2014-06-30T15:59:10Z</time>
      </trkpt>
      <trkpt lat="40.834033" lon="-4.254517">
        <ele>1608.0</ele>
        <time>2014-06-30T15:59:11Z</time>
      </trkpt>
      <trkpt lat="40.834050" lon="-4.254550">
        <ele>1609.0</ele>
        <time>2014-06-30T15:59:12Z</time>
      </trkpt>
      <trkpt lat="40.834083" lon="-4.254600">
        <ele>1610.0</ele>
        <time>2014-06-30T15:59:13Z</time>
      </trkpt>
      <trkpt lat="40.834117" lon="-4.254617">
        <ele>1612.0</ele>
        <time>2014-06-30T15:59:14Z</time>
      </trkpt>
      <trkpt lat="40.834183" lon="-4.254600">
        <ele>1614.0</ele>
        <time>2014-06-30T15:59:15Z</time>
      </trkpt>
      <trkpt lat="40.834233" lon="-4.254550">
        <ele>1616.0</ele>
        <time>2014-06-30T15:59:16Z</time>
      </trkpt>
      <trkpt lat="40.834300" lon="-4.254467">
        <ele>1618.0</ele>
        <time>2014-06-30T15:59:17Z</time>
      </trkpt>
      <trkpt lat="40.834350" lon="-4.254367">
        <ele>1620.0</ele>
        <time>2014-06-30T15:59:18Z</time>
      </trkpt>
      <trkpt lat="40.834400" lon="-4.254233">
        <ele>1621.0</ele>
        <time>2014-06-30T15:59:19Z</time>
      </trkpt>
      <trkpt lat="40.834417" lon="-4.254100">
        <ele>1623.0</ele>
        <time>2014-06-30T15:59:20Z</time>
      </trkpt>
      <trkpt lat="40.834417" lon="-4.253933">
        <ele>1624.0</ele>
        <time>2014-06-30T15:59:21Z</time>
      </trkpt>
      <trkpt lat="40.834383" lon="-4.253767">
        <ele>1625.0</ele>
        <time>2014-06-30T15:59:22Z</time>
      </trkpt>
      <trkpt lat="40.834317" lon="-4.253617">
        <ele>1625.0</ele>
        <time>2014-06-30T15:59:23Z</time>
      </trkpt>
      <trkpt lat="40.834233" lon="-4.253500">
        <ele>1627.0</ele>
        <time>2014-06-30T15:59:24Z</time>
      </trkpt>
      <trkpt lat="40.834150" lon="-4.253417">
        <ele>1629.0</ele>
        <time>2014-06-30T15:59:25Z</time>
      </trkpt>
      <trkpt lat="40.834067" lon="-4.253367">
        <ele>1631.0</ele>
        <time>2014-06-30T15:59:26Z</time>
      </trkpt>
      <trkpt lat="40.833983" lon="-4.253317">
        <ele>1633.0</ele>
        <time>2014-06-30T15:59:27Z</time>
      </trkpt>
      <trkpt lat="40.833900" lon="-4.253300">
        <ele>1635.0</ele>
        <time>2014-06-30T15:59:28Z</time>
      </trkpt>
      <trkpt lat="40.833833" lon="-4.253283">
        <ele>1637.0</ele>
        <time>2014-06-30T15:59:29Z</time>
      </trkpt>
      <trkpt lat="40.833783" lon="-4.253300">
        <ele>1640.0</ele>
        <time>2014-06-30T15:59:30Z</time>
      </trkpt>
      <trkpt lat="40.833733" lon="-4.253317">
        <ele>1641.0</ele>
        <time>2014-06-30T15:59:31Z</time>
      </trkpt>
      <trkpt lat="40.833667" lon="-4.253350">
        <ele>1642.0</ele>
        <time>2014-06-30T15:59:32Z</time>
      </trkpt>
      <trkpt lat="40.833633" lon="-4.253383">
        <ele>1644.0</ele>
        <time>2014-06-30T15:59:33Z</time>
      </trkpt>
      <trkpt lat="40.833600" lon="-4.253417">
        <ele>1646.0</ele>
        <time>2014-06-30T15:59:34Z</time>
      </trkpt>
      <trkpt lat="40.833567" lon="-4.253450">
        <ele>1649.0</ele>
        <time>2014-06-30T15:59:35Z</time>
      </trkpt>
      <trkpt lat="40.833567" lon="-4.253467">
        <ele>1651.0</ele>
        <time>2014-06-30T15:59:36Z</time>
      </trkpt>
      <trkpt lat="40.833583" lon="-4.253500">
        <ele>1652.0</ele>
        <time>2014-06-30T15:59:37Z</time>
      </trkpt>
      <trkpt lat="40.833600" lon="-4.253533">
        <ele>1651.0</ele>
        <time>2014-06-30T15:59:38Z</time>
      </trkpt>
      <trkpt lat="40.833617" lon="-4.253567">
        <ele>1650.0</ele>
        <time>2014-06-30T15:59:39Z</time>
      </trkpt>
      <trkpt lat="40.833650" lon="-4.253600">
        <ele>1650.0</ele>
        <time>2014-06-30T15:59:40Z</time>
      </trkpt>
      <trkpt lat="40.833683" lon="-4.253633">
        <ele>1651.0</ele>
        <time>2014-06-30T15:59:41Z</time>
      </trkpt>
      <trkpt lat="40.833733" lon="-4.253667">
        <ele>1651.0</ele>
        <time>2014-06-30T15:59:42Z</time>
      </trkpt>
      <trkpt lat="40.833783" lon="-4.253683">
        <ele>1650.0</ele>
        <time>2014-06-30T15:59:43Z</time>
      </trkpt>
      <trkpt lat="40.833850" lon="-4.253700">
        <ele>1650.0</ele>
        <time>2014-06-30T15:59:44Z</time>
      </trkpt>
      <trkpt lat="40.833933" lon="-4.253700">
        <ele>1649.0</ele>
        <time>2014-06-30T15:59:45Z</time>
      </trkpt>
      <trkpt lat="40.834000" lon="-4.253683">
        <ele>1648.0</ele>
        <time>2014-06-30T15:59:46Z</time>
      </trkpt>
      <trkpt lat="40.834067" lon="-4.253667">
        <ele>1648.0</ele>
        <time>2014-06-30T15:59:47Z</time>
      </trkpt>
      <trkpt lat="40.834133" lon="-4.253617">
        <ele>1646.0</ele>
        <time>2014-06-30T15:59:48Z</time>
      </trkpt>
      <trkpt lat="40.834200" lon="-4.253550">
        <ele>1646.0</ele>
        <time>2014-06-30T15:59:49Z</time>
      </trkpt>
      <trkpt lat="40.834283" lon="-4.253483">
        <ele>1644.0</ele>
        <time>2014-06-30T15:59:50Z</time>
      </trkpt>
      <trkpt lat="40.834367" lon="-4.253400">
        <ele>1642.0</ele>
        <time>2014-06-30T15:59:51Z</time>
      </trkpt>
      <trkpt lat="40.834450" lon="-4.253300">
        <ele>1641.0</ele>
        <time>2014-06-30T15:59:52Z</time>
      </trkpt>
      <trkpt lat="40.834533" lon="-4.253167">
        <ele>1639.0</ele>
        <time>2014-06-30T15:59:53Z</time>
      </trkpt>
      <trkpt lat="40.834600" lon="-4.253017">
        <ele>1637.0</ele>
        <time>2014-06-30T15:59:54Z</time>
      </trkpt>
      <trkpt lat="40.834650" lon="-4.252850">
        <ele>1635.0</ele>
        <time>2014-06-30T15:59:55Z</time>
      </trkpt>
      <trkpt lat="40.834700" lon="-4.252667">
        <ele>1633.0</ele>
        <time>2014-06-30T15:59:56Z</time>
      </trkpt>
      <trkpt lat="40.834767" lon="-4.252500">
        <ele>1631.0</ele>
        <time>2014-06-30T15:59:57Z</time>
      </trkpt>
      <trkpt lat="40.834833" lon="-4.252333">
        <ele>1630.0</ele>
        <time>2014-06-30T15:59:58Z</time>
      </trkpt>
      <trkpt lat="40.834900" lon="-4.252183">
        <ele>1628.0</ele>
        <time>2014-06-30T15:59:59Z</time>
      </trkpt>
      <trkpt lat="40.834983" lon="-4.252050">
        <ele>1627.0</ele>
        <time>2014-06-30T16:00:00Z</time>
      </trkpt>
      <trkpt lat="40.835067" lon="-4.251933">
        <ele>1625.0</ele>
        <time>2014-06-30T16:00:01Z</time>
      </trkpt>
      <trkpt lat="40.835150" lon="-4.251817">
        <ele>1623.0</ele>
        <time>2014-06-30T16:00:02Z</time>
      </trkpt>
      <trkpt lat="40.835250" lon="-4.251733">
        <ele>1621.0</ele>
        <time>2014-06-30T16:00:03Z</time>
      </trkpt>
      <trkpt lat="40.835367" lon="-4.251650">
        <ele>1620.0</ele>
        <time>2014-06-30T16:00:04Z</time>
      </trkpt>
      <trkpt lat="40.835467" lon="-4.251567">
        <ele>1619.0</ele>
        <time>2014-06-30T16:00:05Z</time>
      </trkpt>
      <trkpt lat="40.835583" lon="-4.251500">
        <ele>1618.0</ele>
        <time>2014-06-30T16:00:06Z</time>
      </trkpt>
      <trkpt lat="40.835683" lon="-4.251450">
        <ele>1618.0</ele>
        <time>2014-06-30T16:00:07Z</time>
      </trkpt>
      <trkpt lat="40.835783" lon="-4.251400">
        <ele>1618.0</ele>
        <time>2014-06-30T16:00:08Z</time>
      </trkpt>
      <trkpt lat="40.835867" lon="-4.251333">
        <ele>1619.0</ele>
        <time>2014-06-30T16:00:09Z</time>
      </trkpt>
      <trkpt lat="40.835933" lon="-4.251267">
        <ele>1621.0</ele>
        <time>2014-06-30T16:00:10Z</time>
      </trkpt>
      <trkpt lat="40.836000" lon="-4.251200">
        <ele>1622.0</ele>
        <time>2014-06-30T16:00:11Z</time>
      </trkpt>
      <trkpt lat="40.836067" lon="-4.251117">
        <ele>1622.0</ele>
        <time>2014-06-30T16:00:12Z</time>
      </trkpt>
      <trkpt lat="40.836133" lon="-4.251033">
        <ele>1622.0</ele>
        <time>2014-06-30T16:00:13Z</time>
      </trkpt>
      <trkpt lat="40.836233" lon="-4.250983">
        <ele>1621.0</ele>
        <time>2014-06-30T16:00:14Z</time>
      </trkpt>
      <trkpt lat="40.836317" lon="-4.250950">
        <ele>1621.0</ele>
        <time>2014-06-30T16:00:15Z</time>
      </trkpt>
      <trkpt lat="40.836383" lon="-4.250933">
        <ele>1621.0</ele>
        <time>2014-06-30T16:00:16Z</time>
      </trkpt>
      <trkpt lat="40.836467" lon="-4.250933">
        <ele>1622.0</ele>
        <time>2014-06-30T16:00:17Z</time>
      </trkpt>
      <trkpt lat="40.836517" lon="-4.250917">
        <ele>1623.0</ele>
        <time>2014-06-30T16:00:18Z</time>
      </trkpt>
      <trkpt lat="40.836567" lon="-4.250917">
        <ele>1625.0</ele>
        <time>2014-06-30T16:00:19Z</time>
      </trkpt>
      <trkpt lat="40.836617" lon="-4.250900">
        <ele>1626.0</ele>
        <time>2014-06-30T16:00:20Z</time>
      </trkpt>
      <trkpt lat="40.836650" lon="-4.250900">
        <ele>1627.0</ele>
        <time>2014-06-30T16:00:21Z</time>
      </trkpt>
      <trkpt lat="40.836717" lon="-4.250883">
        <ele>1628.0</ele>
        <time>2014-06-30T16:00:22Z</time>
      </trkpt>
      <trkpt lat="40.836767" lon="-4.250883">
        <ele>1628.0</ele>
        <time>2014-06-30T16:00:23Z</time>
      </trkpt>
      <trkpt lat="40.836817" lon="-4.250850">
        <ele>1628.0</ele>
        <time>2014-06-30T16:00:24Z</time>
      </trkpt>
      <trkpt lat="40.836883" lon="-4.250817">
        <ele>1629.0</ele>
        <time>2014-06-30T16:00:25Z</time>
      </trkpt>
      <trkpt lat="40.836967" lon="-4.250783">
        <ele>1630.0</ele>
        <time>2014-06-30T16:00:26Z</time>
      </trkpt>
      <trkpt lat="40.837050" lon="-4.250733">
        <ele>1631.0</ele>
        <time>2014-06-30T16:00:27Z</time>
      </trkpt>
      <trkpt lat="40.837117" lon="-4.250683">
        <ele>1632.0</ele>
        <time>2014-06-30T16:00:28Z</time>
      </trkpt>
      <trkpt lat="40.837183" lon="-4.250600">
        <ele>1634.0</ele>
        <time>2014-06-30T16:00:29Z</time>
      </trkpt>
      <trkpt lat="40.837250" lon="-4.250500">
        <ele>1637.0</ele>
        <time>2014-06-30T16:00:30Z</time>
      </trkpt>
      <trkpt lat="40.837317" lon="-4.250383">
        <ele>1637.0</ele>
        <time>2014-06-30T16:00:31Z</time>
      </trkpt>
      <trkpt lat="40.837367" lon="-4.250233">
        <ele>1637.0</ele>
        <time>2014-06-30T16:00:32Z</time>
      </trkpt>
      <trkpt lat="40.837400" lon="-4.250050">
        <ele>1637.0</ele>
        <time>2014-06-30T16:00:33Z</time>
      </trkpt>
      <trkpt lat="40.837417" lon="-4.249850">
        <ele>1638.0</ele>
        <time>2014-06-30T16:00:34Z</time>
      </trkpt>
      <trkpt lat="40.837400" lon="-4.249650">
        <ele>1638.0</ele>
        <time>2014-06-30T16:00:35Z</time>
      </trkpt>
      <trkpt lat="40.837350" lon="-4.249467">
        <ele>1637.0</ele>
        <time>2014-06-30T16:00:36Z</time>
      </trkpt>
      <trkpt lat="40.837267" lon="-4.249333">
        <ele>1637.0</ele>
        <time>2014-06-30T16:00:37Z</time>
      </trkpt>
      <trkpt lat="40.837183" lon="-4.249217">
        <ele>1637.0</ele>
        <time>2014-06-30T16:00:38Z</time>
      </trkpt>
      <trkpt lat="40.837100" lon="-4.249117">
        <ele>1638.0</ele>
        <time>2014-06-30T16:00:39Z</time>
      </trkpt>
      <trkpt lat="40.837017" lon="-4.249050">
        <ele>1638.0</ele>
        <time>2014-06-30T16:00:40Z</time>
      </trkpt>
      <trkpt lat="40.836950" lon="-4.249000">
        <ele>1638.0</ele>
        <time>2014-06-30T16:00:41Z</time>
      </trkpt>
      <trkpt lat="40.836883" lon="-4.248983">
        <ele>1637.0</ele>
        <time>2014-06-30T16:00:42Z</time>
      </trkpt>
      <trkpt lat="40.836817" lon="-4.248983">
        <ele>1637.0</ele>
        <time>2014-06-30T16:00:43Z</time>
      </trkpt>
      <trkpt lat="40.836750" lon="-4.249000">
        <ele>1636.0</ele>
        <time>2014-06-30T16:00:44Z</time>
      </trkpt>
      <trkpt lat="40.836683" lon="-4.249033">
        <ele>1635.0</ele>
        <time>2014-06-30T16:00:45Z</time>
      </trkpt>
      <trkpt lat="40.836650" lon="-4.249067">
        <ele>1635.0</ele>
        <time>2014-06-30T16:00:46Z</time>
      </trkpt>
      <trkpt lat="40.836617" lon="-4.249100">
        <ele>1635.0</ele>
        <time>2014-06-30T16:00:47Z</time>
      </trkpt>
      <trkpt lat="40.836600" lon="-4.249133">
        <ele>1636.0</ele>
        <time>2014-06-30T16:00:48Z</time>
      </trkpt>
      <trkpt lat="40.836600" lon="-4.249183">
        <ele>1635.0</ele>
        <time>2014-06-30T16:00:49Z</time>
      </trkpt>
      <trkpt lat="40.836617" lon="-4.249233">
        <ele>1635.0</ele>
        <time>2014-06-30T16:00:50Z</time>
      </trkpt>
      <trkpt lat="40.836667" lon="-4.249283">
        <ele>1636.0</ele>
        <time>2014-06-30T16:00:51Z</time>
      </trkpt>
      <trkpt lat="40.836717" lon="-4.249317">
        <ele>1637.0</ele>
        <time>2014-06-30T16:00:52Z</time>
      </trkpt>
      <trkpt lat="40.836767" lon="-4.249300">
        <ele>1638.0</ele>
        <time>2014-06-30T16:00:53Z</time>
      </trkpt>
      <trkpt lat="40.836817" lon="-4.249283">
        <ele>1642.0</ele>
        <time>2014-06-30T16:00:54Z</time>
      </trkpt>
      <trkpt lat="40.836850" lon="-4.249250">
        <ele>1643.0</ele>
        <time>2014-06-30T16:00:55Z</time>
      </trkpt>
      <trkpt lat="40.836900" lon="-4.249217">
        <ele>1644.0</ele>
        <time>2014-06-30T16:00:56Z</time>
      </trkpt>
      <trkpt lat="40.836933" lon="-4.249217">
        <ele>1644.0</ele>
        <time>2014-06-30T16:00:57Z</time>
      </trkpt>
      <trkpt lat="40.836983" lon="-4.249217">
        <ele>1644.0</ele>
        <time>2014-06-30T16:00:58Z</time>
      </trkpt>
      <trkpt lat="40.837050" lon="-4.249217">
        <ele>1644.0</ele>
        <time>2014-06-30T16:00:59Z</time>
      </trkpt>
      <trkpt lat="40.837133" lon="-4.249200">
        <ele>1644.0</ele>
        <time>2014-06-30T16:01:00Z</time>
      </trkpt>
      <trkpt lat="40.837217" lon="-4.249183">
        <ele>1644.0</ele>
        <time>2014-06-30T16:01:01Z</time>
      </trkpt>
      <trkpt lat="40.837317" lon="-4.249133">
        <ele>1644.0</ele>
        <time>2014-06-30T16:01:02Z</time>
      </trkpt>
      <trkpt lat="40.837400" lon="-4.249083">
        <ele>1645.0</ele>
        <time>2014-06-30T16:01:03Z</time>
      </trkpt>
      <trkpt lat="40.837467" lon="-4.249033">
        <ele>1646.0</ele>
        <time>2014-06-30T16:01:04Z</time>
      </trkpt>
      <trkpt lat="40.837533" lon="-4.248967">
        <ele>1647.0</ele>
        <time>2014-06-30T16:01:05Z</time>
      </trkpt>
      <trkpt lat="40.837600" lon="-4.248883">
        <ele>1646.0</ele>
        <time>2014-06-30T16:01:06Z</time>
      </trkpt>
      <trkpt lat="40.837650" lon="-4.248800">
        <ele>1646.0</ele>
        <time>2014-06-30T16:01:07Z</time>
      </trkpt>
      <trkpt lat="40.837733" lon="-4.248700">
        <ele>1644.0</ele>
        <time>2014-06-30T16:01:08Z</time>
      </trkpt>
      <trkpt lat="40.837800" lon="-4.248567">
        <ele>1642.0</ele>
        <time>2014-06-30T16:01:09Z</time>
      </trkpt>
      <trkpt lat="40.837867" lon="-4.248400">
        <ele>1638.0</ele>
        <time>2014-06-30T16:01:10Z</time>
      </trkpt>
      <trkpt lat="40.837933" lon="-4.248250">
        <ele>1637.0</ele>
        <time>2014-06-30T16:01:11Z</time>
      </trkpt>
      <trkpt lat="40.837983" lon="-4.248133">
        <ele>1639.0</ele>
        <time>2014-06-30T16:01:12Z</time>
      </trkpt>
      <trkpt lat="40.838033" lon="-4.248050">
        <ele>1639.0</ele>
        <time>2014-06-30T16:01:13Z</time>
      </trkpt>
      <trkpt lat="40.838083" lon="-4.247983">
        <ele>1638.0</ele>
        <time>2014-06-30T16:01:14Z</time>
      </trkpt>
      <trkpt lat="40.838117" lon="-4.247900">
        <ele>1638.0</ele>
        <time>2014-06-30T16:01:15Z</time>
      </trkpt>
      <trkpt lat="40.838167" lon="-4.247800">
        <ele>1637.0</ele>
        <time>2014-06-30T16:01:16Z</time>
      </trkpt>
      <trkpt lat="40.838233" lon="-4.247733">
        <ele>1635.0</ele>
        <time>2014-06-30T16:01:17Z</time>
      </trkpt>
      <trkpt lat="40.838300" lon="-4.247683">
        <ele>1634.0</ele>
        <time>2014-06-30T16:01:18Z</time>
      </trkpt>
      <trkpt lat="40.838383" lon="-4.247650">
        <ele>1632.0</ele>
        <time>2014-06-30T16:01:19Z</time>
      </trkpt>
      <trkpt lat="40.838450" lon="-4.247650">
        <ele>1630.0</ele>
        <time>2014-06-30T16:01:20Z</time>
      </trkpt>
      <trkpt lat="40.838517" lon="-4.247650">
        <ele>1628.0</ele>
        <time>2014-06-30T16:01:21Z</time>
      </trkpt>
      <trkpt lat="40.838583" lon="-4.247633">
        <ele>1626.0</ele>
        <time>2014-06-30T16:01:22Z</time>
      </trkpt>
      <trkpt lat="40.838650" lon="-4.247633">
        <ele>1624.0</ele>
        <time>2014-06-30T16:01:23Z</time>
      </trkpt>
      <trkpt lat="40.838700" lon="-4.247617">
        <ele>1622.0</ele>
        <time>2014-06-30T16:01:24Z</time>
      </trkpt>
      <trkpt lat="40.838750" lon="-4.247600">
        <ele>1620.0</ele>
        <time>2014-06-30T16:01:25Z</time>
      </trkpt>
      <trkpt lat="40.838817" lon="-4.247583">
        <ele>1618.0</ele>
        <time>2014-06-30T16:01:26Z</time>
      </trkpt>
      <trkpt lat="40.838883" lon="-4.247567">
        <ele>1614.0</ele>
        <time>2014-06-30T16:01:27Z</time>
      </trkpt>
      <trkpt lat="40.838950" lon="-4.247550">
        <ele>1610.0</ele>
        <time>2014-06-30T16:01:28Z</time>
      </trkpt>
      <trkpt lat="40.839017" lon="-4.247517">
        <ele>1606.0</ele>
        <time>2014-06-30T16:01:29Z</time>
      </trkpt>
      <trkpt lat="40.839100" lon="-4.247450">
        <ele>1601.0</ele>
        <time>2014-06-30T16:01:30Z</time>
      </trkpt>
      <trkpt lat="40.839183" lon="-4.247383">
        <ele>1597.0</ele>
        <time>2014-06-30T16:01:31Z</time>
      </trkpt>
      <trkpt lat="40.839283" lon="-4.247317">
        <ele>1592.0</ele>
        <time>2014-06-30T16:01:32Z</time>
      </trkpt>
      <trkpt lat="40.839367" lon="-4.247267">
        <ele>1589.0</ele>
        <time>2014-06-30T16:01:33Z</time>
      </trkpt>
      <trkpt lat="40.839450" lon="-4.247200">
        <ele>1585.0</ele>
        <time>2014-06-30T16:01:34Z</time>
      </trkpt>
      <trkpt lat="40.839517" lon="-4.247150">
        <ele>1581.0</ele>
        <time>2014-06-30T16:01:35Z</time>
      </trkpt>
      <trkpt lat="40.839600" lon="-4.247067">
        <ele>1577.0</ele>
        <time>2014-06-30T16:01:36Z</time>
      </trkpt>
      <trkpt lat="40.839683" lon="-4.247000">
        <ele>1573.0</ele>
        <time>2014-06-30T16:01:37Z</time>
      </trkpt>
      <trkpt lat="40.839783" lon="-4.246933">
        <ele>1569.0</ele>
        <time>2014-06-30T16:01:38Z</time>
      </trkpt>
      <trkpt lat="40.839867" lon="-4.246867">
        <ele>1565.0</ele>
        <time>2014-06-30T16:01:39Z</time>
      </trkpt>
      <trkpt lat="40.839967" lon="-4.246817">
        <ele>1561.0</ele>
        <time>2014-06-30T16:01:40Z</time>
      </trkpt>
      <trkpt lat="40.840050" lon="-4.246783">
        <ele>1559.0</ele>
        <time>2014-06-30T16:01:41Z</time>
      </trkpt>
      <trkpt lat="40.840133" lon="-4.246733">
        <ele>1557.0</ele>
        <time>2014-06-30T16:01:42Z</time>
      </trkpt>
      <trkpt lat="40.840200" lon="-4.246683">
        <ele>1555.0</ele>
        <time>2014-06-30T16:01:43Z</time>
      </trkpt>
      <trkpt lat="40.840267" lon="-4.246633">
        <ele>1553.0</ele>
        <time>2014-06-30T16:01:44Z</time>
      </trkpt>
      <trkpt lat="40.840350" lon="-4.246583">
        <ele>1551.0</ele>
        <time>2014-06-30T16:01:45Z</time>
      </trkpt>
      <trkpt lat="40.840417" lon="-4.246550">
        <ele>1548.0</ele>
        <time>2014-06-30T16:01:46Z</time>
      </trkpt>
      <trkpt lat="40.840500" lon="-4.246500">
        <ele>1546.0</ele>
        <time>2014-06-30T16:01:47Z</time>
      </trkpt>
      <trkpt lat="40.840583" lon="-4.246450">
        <ele>1543.0</ele>
        <time>2014-06-30T16:01:48Z</time>
      </trkpt>
      <trkpt lat="40.840667" lon="-4.246400">
        <ele>1542.0</ele>
        <time>2014-06-30T16:01:49Z</time>
      </trkpt>
      <trkpt lat="40.840733" lon="-4.246350">
        <ele>1540.0</ele>
        <time>2014-06-30T16:01:50Z</time>
      </trkpt>
      <trkpt lat="40.840800" lon="-4.246300">
        <ele>1539.0</ele>
        <time>2014-06-30T16:01:51Z</time>
      </trkpt>
      <trkpt lat="40.840883" lon="-4.246250">
        <ele>1537.0</ele>
        <time>2014-06-30T16:01:52Z</time>
      </trkpt>
      <trkpt lat="40.840967" lon="-4.246183">
        <ele>1536.0</ele>
        <time>2014-06-30T16:01:53Z</time>
      </trkpt>
      <trkpt lat="40.841033" lon="-4.246133">
        <ele>1533.0</ele>
        <time>2014-06-30T16:01:54Z</time>
      </trkpt>
      <trkpt lat="40.841117" lon="-4.246083">
        <ele>1532.0</ele>
        <time>2014-06-30T16:01:55Z</time>
      </trkpt>
      <trkpt lat="40.841200" lon="-4.246017">
        <ele>1530.0</ele>
        <time>2014-06-30T16:01:56Z</time>
      </trkpt>
      <trkpt lat="40.841283" lon="-4.245983">
        <ele>1528.0</ele>
        <time>2014-06-30T16:01:57Z</time>
      </trkpt>
      <trkpt lat="40.841350" lon="-4.245933">
        <ele>1527.0</ele>
        <time>2014-06-30T16:01:58Z</time>
      </trkpt>
      <trkpt lat="40.841417" lon="-4.245883">
        <ele>1526.0</ele>
        <time>2014-06-30T16:01:59Z</time>
      </trkpt>
      <trkpt lat="40.841483" lon="-4.245833">
        <ele>1525.0</ele>
        <time>2014-06-30T16:02:00Z</time>
      </trkpt>
      <trkpt lat="40.841533" lon="-4.245800">
        <ele>1524.0</ele>
        <time>2014-06-30T16:02:01Z</time>
      </trkpt>
      <trkpt lat="40.841583" lon="-4.245783">
        <ele>1522.0</ele>
        <time>2014-06-30T16:02:02Z</time>
      </trkpt>
      <trkpt lat="40.841650" lon="-4.245767">
        <ele>1521.0</ele>
        <time>2014-06-30T16:02:03Z</time>
      </trkpt>
      <trkpt lat="40.841717" lon="-4.245733">
        <ele>1519.0</ele>
        <time>2014-06-30T16:02:04Z</time>
      </trkpt>
      <trkpt lat="40.841767" lon="-4.245700">
        <ele>1518.0</ele>
        <time>2014-06-30T16:02:05Z</time>
      </trkpt>
      <trkpt lat="40.841817" lon="-4.245650">
        <ele>1517.0</ele>
        <time>2014-06-30T16:02:06Z</time>
      </trkpt>
      <trkpt lat="40.841867" lon="-4.245600">
        <ele>1517.0</ele>
        <time>2014-06-30T16:02:07Z</time>
      </trkpt>
      <trkpt lat="40.841917" lon="-4.245550">
        <ele>1516.0</ele>
        <time>2014-06-30T16:02:08Z</time>
      </trkpt>
      <trkpt lat="40.841967" lon="-4.245500">
        <ele>1515.0</ele>
        <time>2014-06-30T16:02:09Z</time>
      </trkpt>
      <trkpt lat="40.842033" lon="-4.245450">
        <ele>1514.0</ele>
        <time>2014-06-30T16:02:10Z</time>
      </trkpt>
      <trkpt lat="40.842100" lon="-4.245400">
        <ele>1513.0</ele>
        <time>2014-06-30T16:02:11Z</time>
      </trkpt>
      <trkpt lat="40.842150" lon="-4.245367">
        <ele>1512.0</ele>
        <time>2014-06-30T16:02:12Z</time>
      </trkpt>
      <trkpt lat="40.842200" lon="-4.245333">
        <ele>1511.0</ele>
        <time>2014-06-30T16:02:13Z</time>
      </trkpt>
      <trkpt lat="40.842250" lon="-4.245300">
        <ele>1510.0</ele>
        <time>2014-06-30T16:02:14Z</time>
      </trkpt>
      <trkpt lat="40.842317" lon="-4.245250">
        <ele>1509.0</ele>
        <time>2014-06-30T16:02:15Z</time>
      </trkpt>
      <trkpt lat="40.842367" lon="-4.245217">
        <ele>1507.0</ele>
        <time>2014-06-30T16:02:16Z</time>
      </trkpt>
      <trkpt lat="40.842433" lon="-4.245183">
        <ele>1506.0</ele>
        <time>2014-06-30T16:02:17Z</time>
      </trkpt>
      <trkpt lat="40.842500" lon="-4.245167">
        <ele>1504.0</ele>
        <time>2014-06-30T16:02:18Z</time>
      </trkpt>
      <trkpt lat="40.842567" lon="-4.245133">
        <ele>1503.0</ele>
        <time>2014-06-30T16:02:19Z</time>
      </trkpt>
      <trkpt lat="40.842633" lon="-4.245100">
        <ele>1502.0</ele>
        <time>2014-06-30T16:02:20Z</time>
      </trkpt>
      <trkpt lat="40.842700" lon="-4.245050">
        <ele>1501.0</ele>
        <time>2014-06-30T16:02:21Z</time>
      </trkpt>
      <trkpt lat="40.842767" lon="-4.245000">
        <ele>1499.0</ele>
        <time>2014-06-30T16:02:22Z</time>
      </trkpt>
      <trkpt lat="40.842833" lon="-4.244950">
        <ele>1497.0</ele>
        <time>2014-06-30T16:02:23Z</time>
      </trkpt>
      <trkpt lat="40.842900" lon="-4.244900">
        <ele>1494.0</ele>
        <time>2014-06-30T16:02:24Z</time>
      </trkpt>
      <trkpt lat="40.842967" lon="-4.244850">
        <ele>1492.0</ele>
        <time>2014-06-30T16:02:25Z</time>
      </trkpt>
      <trkpt lat="40.843033" lon="-4.244800">
        <ele>1491.0</ele>
        <time>2014-06-30T16:02:26Z</time>
      </trkpt>
      <trkpt lat="40.843100" lon="-4.244733">
        <ele>1489.0</ele>
        <time>2014-06-30T16:02:27Z</time>
      </trkpt>
      <trkpt lat="40.843167" lon="-4.244683">
        <ele>1488.0</ele>
        <time>2014-06-30T16:02:28Z</time>
      </trkpt>
      <trkpt lat="40.843233" lon="-4.244633">
        <ele>1487.0</ele>
        <time>2014-06-30T16:02:29Z</time>
      </trkpt>
      <trkpt lat="40.843300" lon="-4.244583">
        <ele>1485.0</ele>
        <time>2014-06-30T16:02:30Z</time>
      </trkpt>
      <trkpt lat="40.843367" lon="-4.244533">
        <ele>1484.0</ele>
        <time>2014-06-30T16:02:31Z</time>
      </trkpt>
      <trkpt lat="40.843433" lon="-4.244483">
        <ele>1483.0</ele>
        <time>2014-06-30T16:02:32Z</time>
      </trkpt>
      <trkpt lat="40.843517" lon="-4.244433">
        <ele>1482.0</ele>
        <time>2014-06-30T16:02:33Z</time>
      </trkpt>
      <trkpt lat="40.843583" lon="-4.244383">
        <ele>1480.0</ele>
        <time>2014-06-30T16:02:34Z</time>
      </trkpt>
      <trkpt lat="40.843667" lon="-4.244317">
        <ele>1479.0</ele>
        <time>2014-06-30T16:02:35Z</time>
      </trkpt>
      <trkpt lat="40.843733" lon="-4.244267">
        <ele>1479.0</ele>
        <time>2014-06-30T16:02:36Z</time>
      </trkpt>
      <trkpt lat="40.843817" lon="-4.244200">
        <ele>1478.0</ele>
        <time>2014-06-30T16:02:37Z</time>
      </trkpt>
      <trkpt lat="40.843883" lon="-4.244133">
        <ele>1478.0</ele>
        <time>2014-06-30T16:02:38Z</time>
      </trkpt>
      <trkpt lat="40.843967" lon="-4.244067">
        <ele>1478.0</ele>
        <time>2014-06-30T16:02:39Z</time>
      </trkpt>
      <trkpt lat="40.844050" lon="-4.244017">
        <ele>1477.0</ele>
        <time>2014-06-30T16:02:40Z</time>
      </trkpt>
      <trkpt lat="40.844133" lon="-4.243950">
        <ele>1476.0</ele>
        <time>2014-06-30T16:02:41Z</time>
      </trkpt>
      <trkpt lat="40.844233" lon="-4.243883">
        <ele>1476.0</ele>
        <time>2014-06-30T16:02:42Z</time>
      </trkpt>
      <trkpt lat="40.844317" lon="-4.243833">
        <ele>1475.0</ele>
        <time>2014-06-30T16:02:43Z</time>
      </trkpt>
      <trkpt lat="40.844400" lon="-4.243767">
        <ele>1475.0</ele>
        <time>2014-06-30T16:02:44Z</time>
      </trkpt>
      <trkpt lat="40.844467" lon="-4.243700">
        <ele>1475.0</ele>
        <time>2014-06-30T16:02:45Z</time>
      </trkpt>
      <trkpt lat="40.844533" lon="-4.243633">
        <ele>1476.0</ele>
        <time>2014-06-30T16:02:46Z</time>
      </trkpt>
      <trkpt lat="40.844583" lon="-4.243567">
        <ele>1476.0</ele>
        <time>2014-06-30T16:02:47Z</time>
      </trkpt>
      <trkpt lat="40.844650" lon="-4.243517">
        <ele>1476.0</ele>
        <time>2014-06-30T16:02:48Z</time>
      </trkpt>
      <trkpt lat="40.844717" lon="-4.243450">
        <ele>1476.0</ele>
        <time>2014-06-30T16:02:49Z</time>
      </trkpt>
      <trkpt lat="40.844800" lon="-4.243383">
        <ele>1475.0</ele>
        <time>2014-06-30T16:02:50Z</time>
      </trkpt>
      <trkpt lat="40.844883" lon="-4.243350">
        <ele>1475.0</ele>
        <time>2014-06-30T16:02:51Z</time>
      </trkpt>
      <trkpt lat="40.844967" lon="-4.243317">
        <ele>1474.0</ele>
        <time>2014-06-30T16:02:52Z</time>
      </trkpt>
      <trkpt lat="40.845050" lon="-4.243283">
        <ele>1474.0</ele>
        <time>2014-06-30T16:02:53Z</time>
      </trkpt>
      <trkpt lat="40.845133" lon="-4.243250">
        <ele>1474.0</ele>
        <time>2014-06-30T16:02:54Z</time>
      </trkpt>
      <trkpt lat="40.845217" lon="-4.243183">
        <ele>1475.0</ele>
        <time>2014-06-30T16:02:55Z</time>
      </trkpt>
      <trkpt lat="40.845283" lon="-4.243117">
        <ele>1476.0</ele>
        <time>2014-06-30T16:02:56Z</time>
      </trkpt>
      <trkpt lat="40.845350" lon="-4.243033">
        <ele>1477.0</ele>
        <time>2014-06-30T16:02:57Z</time>
      </trkpt>
      <trkpt lat="40.845400" lon="-4.242967">
        <ele>1478.0</ele>
        <time>2014-06-30T16:02:58Z</time>
      </trkpt>
      <trkpt lat="40.845483" lon="-4.242917">
        <ele>1478.0</ele>
        <time>2014-06-30T16:02:59Z</time>
      </trkpt>
      <trkpt lat="40.845567" lon="-4.242867">
        <ele>1478.0</ele>
        <time>2014-06-30T16:03:00Z</time>
      </trkpt>
      <trkpt lat="40.845650" lon="-4.242817">
        <ele>1478.0</ele>
        <time>2014-06-30T16:03:01Z</time>
      </trkpt>
      <trkpt lat="40.845717" lon="-4.242783">
        <ele>1479.0</ele>
        <time>2014-06-30T16:03:02Z</time>
      </trkpt>
      <trkpt lat="40.845783" lon="-4.242733">
        <ele>1479.0</ele>
        <time>2014-06-30T16:03:03Z</time>
      </trkpt>
      <trkpt lat="40.845867" lon="-4.242683">
        <ele>1480.0</ele>
        <time>2014-06-30T16:03:04Z</time>
      </trkpt>
      <trkpt lat="40.845933" lon="-4.242633">
        <ele>1480.0</ele>
        <time>2014-06-30T16:03:05Z</time>
      </trkpt>
      <trkpt lat="40.846000" lon="-4.242583">
        <ele>1482.0</ele>
        <time>2014-06-30T16:03:06Z</time>
      </trkpt>
      <trkpt lat="40.846083" lon="-4.242567">
        <ele>1483.0</ele>
        <time>2014-06-30T16:03:07Z</time>
      </trkpt>
      <trkpt lat="40.846133" lon="-4.242550">
        <ele>1484.0</ele>
        <time>2014-06-30T16:03:08Z</time>
      </trkpt>
      <trkpt lat="40.846200" lon="-4.242550">
        <ele>1485.0</ele>
        <time>2014-06-30T16:03:09Z</time>
      </trkpt>
      <trkpt lat="40.846267" lon="-4.242567">
        <ele>1486.0</ele>
        <time>2014-06-30T16:03:10Z</time>
      </trkpt>
      <trkpt lat="40.846333" lon="-4.242567">
        <ele>1487.0</ele>
        <time>2014-06-30T16:03:11Z</time>
      </trkpt>
      <trkpt lat="40.846400" lon="-4.242583">
        <ele>1488.0</ele>
        <time>2014-06-30T16:03:12Z</time>
      </trkpt>
      <trkpt lat="40.846450" lon="-4.242617">
        <ele>1490.0</ele>
        <time>2014-06-30T16:03:13Z</time>
      </trkpt>
      <trkpt lat="40.846483" lon="-4.242667">
        <ele>1491.0</ele>
        <time>2014-06-30T16:03:14Z</time>
      </trkpt>
      <trkpt lat="40.846517" lon="-4.242700">
        <ele>1492.0</ele>
        <time>2014-06-30T16:03:15Z</time>
      </trkpt>
      <trkpt lat="40.846533" lon="-4.242750">
        <ele>1493.0</ele>
        <time>2014-06-30T16:03:16Z</time>
      </trkpt>
      <trkpt lat="40.846550" lon="-4.242783">
        <ele>1495.0</ele>
        <time>2014-06-30T16:03:17Z</time>
      </trkpt>
      <trkpt lat="40.846550" lon="-4.242833">
        <ele>1497.0</ele>
        <time>2014-06-30T16:03:18Z</time>
      </trkpt>
      <trkpt lat="40.846550" lon="-4.242883">
        <ele>1498.0</ele>
        <time>2014-06-30T16:03:19Z</time>
      </trkpt>
      <trkpt lat="40.846567" lon="-4.242933">
        <ele>1500.0</ele>
        <time>2014-06-30T16:03:20Z</time>
      </trkpt>
      <trkpt lat="40.846567" lon="-4.242983">
        <ele>1501.0</ele>
        <time>2014-06-30T16:03:21Z</time>
      </trkpt>
      <trkpt lat="40.846583" lon="-4.243033">
        <ele>1503.0</ele>
        <time>2014-06-30T16:03:22Z</time>
      </trkpt>
      <trkpt lat="40.846600" lon="-4.243083">
        <ele>1504.0</ele>
        <time>2014-06-30T16:03:23Z</time>
      </trkpt>
      <trkpt lat="40.846617" lon="-4.243150">
        <ele>1506.0</ele>
        <time>2014-06-30T16:03:24Z</time>
      </trkpt>
      <trkpt lat="40.846617" lon="-4.243217">
        <ele>1508.0</ele>
        <time>2014-06-30T16:03:25Z</time>
      </trkpt>
      <trkpt lat="40.846617" lon="-4.243283">
        <ele>1510.0</ele>
        <time>2014-06-30T16:03:26Z</time>
      </trkpt>
      <trkpt lat="40.846633" lon="-4.243350">
        <ele>1513.0</ele>
        <time>2014-06-30T16:03:27Z</time>
      </trkpt>
      <trkpt lat="40.846633" lon="-4.243417">
        <ele>1516.0</ele>
        <time>2014-06-30T16:03:28Z</time>
      </trkpt>
      <trkpt lat="40.846633" lon="-4.243467">
        <ele>1516.0</ele>
        <time>2014-06-30T16:03:29Z</time>
      </trkpt>
      <trkpt lat="40.846633" lon="-4.243533">
        <ele>1522.0</ele>
        <time>2014-06-30T16:03:30Z</time>
      </trkpt>
      <trkpt lat="40.846633" lon="-4.243583">
        <ele>1524.0</ele>
        <time>2014-06-30T16:03:31Z</time>
      </trkpt>
      <trkpt lat="40.846633" lon="-4.243650">
        <ele>1526.0</ele>
        <time>2014-06-30T16:03:32Z</time>
      </trkpt>
      <trkpt lat="40.846650" lon="-4.243700">
        <ele>1528.0</ele>
        <time>2014-06-30T16:03:33Z</time>
      </trkpt>
      <trkpt lat="40.846667" lon="-4.243750">
        <ele>1529.0</ele>
        <time>2014-06-30T16:03:34Z</time>
      </trkpt>
      <trkpt lat="40.846667" lon="-4.243817">
        <ele>1530.0</ele>
        <time>2014-06-30T16:03:35Z</time>
      </trkpt>
      <trkpt lat="40.846667" lon="-4.243867">
        <ele>1531.0</ele>
        <time>2014-06-30T16:03:36Z</time>
      </trkpt>
      <trkpt lat="40.846667" lon="-4.243933">
        <ele>1532.0</ele>
        <time>2014-06-30T16:03:37Z</time>
      </trkpt>
      <trkpt lat="40.846683" lon="-4.244000">
        <ele>1533.0</ele>
        <time>2014-06-30T16:03:38Z</time>
      </trkpt>
      <trkpt lat="40.846683" lon="-4.244067">
        <ele>1534.0</ele>
        <time>2014-06-30T16:03:39Z</time>
      </trkpt>
      <trkpt lat="40.846700" lon="-4.244117">
        <ele>1536.0</ele>
        <time>2014-06-30T16:03:40Z</time>
      </trkpt>
      <trkpt lat="40.846717" lon="-4.244167">
        <ele>1536.0</ele>
        <time>2014-06-30T16:03:41Z</time>
      </trkpt>
      <trkpt lat="40.846733" lon="-4.244217">
        <ele>1537.0</ele>
        <time>2014-06-30T16:03:42Z</time>
      </trkpt>
      <trkpt lat="40.846767" lon="-4.244300">
        <ele>1538.0</ele>
        <time>2014-06-30T16:03:43Z</time>
      </trkpt>
      <trkpt lat="40.846783" lon="-4.244350">
        <ele>1539.0</ele>
        <time>2014-06-30T16:03:44Z</time>
      </trkpt>
      <trkpt lat="40.846817" lon="-4.244400">
        <ele>1540.0</ele>
        <time>2014-06-30T16:03:45Z</time>
      </trkpt>
      <trkpt lat="40.846833" lon="-4.244450">
        <ele>1543.0</ele>
        <time>2014-06-30T16:03:46Z</time>
      </trkpt>
      <trkpt lat="40.846850" lon="-4.244483">
        <ele>1546.0</ele>
        <time>2014-06-30T16:03:47Z</time>
      </trkpt>
      <trkpt lat="40.846867" lon="-4.244533">
        <ele>1548.0</ele>
        <time>2014-06-30T16:03:48Z</time>
      </trkpt>
      <trkpt lat="40.846883" lon="-4.244567">
        <ele>1549.0</ele>
        <time>2014-06-30T16:03:49Z</time>
      </trkpt>
      <trkpt lat="40.846900" lon="-4.244617">
        <ele>1549.0</ele>
        <time>2014-06-30T16:03:50Z</time>
      </trkpt>
      <trkpt lat="40.846917" lon="-4.244667">
        <ele>1550.0</ele>
        <time>2014-06-30T16:03:51Z</time>
      </trkpt>
      <trkpt lat="40.846933" lon="-4.244717">
        <ele>1551.0</ele>
        <time>2014-06-30T16:03:52Z</time>
      </trkpt>
      <trkpt lat="40.846933" lon="-4.244767">
        <ele>1552.0</ele>
        <time>2014-06-30T16:03:53Z</time>
      </trkpt>
      <trkpt lat="40.846933" lon="-4.244817">
        <ele>1553.0</ele>
        <time>2014-06-30T16:03:54Z</time>
      </trkpt>
      <trkpt lat="40.846950" lon="-4.244867">
        <ele>1554.0</ele>
        <time>2014-06-30T16:03:55Z</time>
      </trkpt>
      <trkpt lat="40.846967" lon="-4.244900">
        <ele>1555.0</ele>
        <time>2014-06-30T16:03:56Z</time>
      </trkpt>
      <trkpt lat="40.846983" lon="-4.244967">
        <ele>1557.0</ele>
        <time>2014-06-30T16:03:57Z</time>
      </trkpt>
      <trkpt lat="40.847000" lon="-4.245017">
        <ele>1558.0</ele>
        <time>2014-06-30T16:03:58Z</time>
      </trkpt>
      <trkpt lat="40.847017" lon="-4.245067">
        <ele>1561.0</ele>
        <time>2014-06-30T16:03:59Z</time>
      </trkpt>
      <trkpt lat="40.847050" lon="-4.245083">
        <ele>1564.0</ele>
        <time>2014-06-30T16:04:00Z</time>
      </trkpt>
      <trkpt lat="40.847067" lon="-4.245100">
        <ele>1567.0</ele>
        <time>2014-06-30T16:04:01Z</time>
      </trkpt>
      <trkpt lat="40.847083" lon="-4.245117">
        <ele>1570.0</ele>
        <time>2014-06-30T16:04:02Z</time>
      </trkpt>
      <trkpt lat="40.847100" lon="-4.245150">
        <ele>1571.0</ele>
        <time>2014-06-30T16:04:03Z</time>
      </trkpt>
      <trkpt lat="40.847100" lon="-4.245200">
        <ele>1572.0</ele>
        <time>2014-06-30T16:04:04Z</time>
      </trkpt>
      <trkpt lat="40.847117" lon="-4.245250">
        <ele>1573.0</ele>
        <time>2014-06-30T16:04:05Z</time>
      </trkpt>
      <trkpt lat="40.847117" lon="-4.245283">
        <ele>1574.0</ele>
        <time>2014-06-30T16:04:06Z</time>
      </trkpt>
      <trkpt lat="40.847117" lon="-4.245333">
        <ele>1576.0</ele>
        <time>2014-06-30T16:04:07Z</time>
      </trkpt>
      <trkpt lat="40.847117" lon="-4.245367">
        <ele>1579.0</ele>
        <time>2014-06-30T16:04:08Z</time>
      </trkpt>
      <trkpt lat="40.847133" lon="-4.245400">
        <ele>1581.0</ele>
        <time>2014-06-30T16:04:09Z</time>
      </trkpt>
      <trkpt lat="40.847150" lon="-4.245450">
        <ele>1583.0</ele>
        <time>2014-06-30T16:04:10Z</time>
      </trkpt>
      <trkpt lat="40.847150" lon="-4.245483">
        <ele>1585.0</ele>
        <time>2014-06-30T16:04:11Z</time>
      </trkpt>
      <trkpt lat="40.847167" lon="-4.245533">
        <ele>1587.0</ele>
        <time>2014-06-30T16:04:12Z</time>
      </trkpt>
      <trkpt lat="40.847200" lon="-4.245567">
        <ele>1589.0</ele>
        <time>2014-06-30T16:04:13Z</time>
      </trkpt>
      <trkpt lat="40.847233" lon="-4.245617">
        <ele>1591.0</ele>
        <time>2014-06-30T16:04:14Z</time>
      </trkpt>
      <trkpt lat="40.847250" lon="-4.245650">
        <ele>1593.0</ele>
        <time>2014-06-30T16:04:15Z</time>
      </trkpt>
      <trkpt lat="40.847283" lon="-4.245667">
        <ele>1596.0</ele>
        <time>2014-06-30T16:04:16Z</time>
      </trkpt>
      <trkpt lat="40.847300" lon="-4.245683">
        <ele>1600.0</ele>
        <time>2014-06-30T16:04:17Z</time>
      </trkpt>
      <trkpt lat="40.847317" lon="-4.245683">
        <ele>1602.0</ele>
        <time>2014-06-30T16:04:18Z</time>
      </trkpt>
      <trkpt lat="40.847333" lon="-4.245700">
        <ele>1605.0</ele>
        <time>2014-06-30T16:04:19Z</time>
      </trkpt>
      <trkpt lat="40.847367" lon="-4.245717">
        <ele>1607.0</ele>
        <time>2014-06-30T16:04:20Z</time>
      </trkpt>
      <trkpt lat="40.847417" lon="-4.245733">
        <ele>1609.0</ele>
        <time>2014-06-30T16:04:21Z</time>
      </trkpt>
      <trkpt lat="40.847483" lon="-4.245717">
        <ele>1611.0</ele>
        <time>2014-06-30T16:04:22Z</time>
      </trkpt>
      <trkpt lat="40.847550" lon="-4.245717">
        <ele>1613.0</ele>
        <time>2014-06-30T16:04:23Z</time>
      </trkpt>
      <trkpt lat="40.847650" lon="-4.245683">
        <ele>1615.0</ele>
        <time>2014-06-30T16:04:24Z</time>
      </trkpt>
      <trkpt lat="40.847767" lon="-4.245617">
        <ele>1616.0</ele>
        <time>2014-06-30T16:04:25Z</time>
      </trkpt>
      <trkpt lat="40.847867" lon="-4.245533">
        <ele>1619.0</ele>
        <time>2014-06-30T16:04:26Z</time>
      </trkpt>
      <trkpt lat="40.847950" lon="-4.245433">
        <ele>1622.0</ele>
        <time>2014-06-30T16:04:27Z</time>
      </trkpt>
      <trkpt lat="40.848017" lon="-4.245300">
        <ele>1626.0</ele>
        <time>2014-06-30T16:04:28Z</time>
      </trkpt>
      <trkpt lat="40.848083" lon="-4.245200">
        <ele>1629.0</ele>
        <time>2014-06-30T16:04:29Z</time>
      </trkpt>
      <trkpt lat="40.848150" lon="-4.245083">
        <ele>1632.0</ele>
        <time>2014-06-30T16:04:30Z</time>
      </trkpt>
      <trkpt lat="40.848233" lon="-4.244983">
        <ele>1633.0</ele>
        <time>2014-06-30T16:04:31Z</time>
      </trkpt>
      <trkpt lat="40.848333" lon="-4.244900">
        <ele>1634.0</ele>
        <time>2014-06-30T16:04:32Z</time>
      </trkpt>
      <trkpt lat="40.848417" lon="-4.244800">
        <ele>1635.0</ele>
        <time>2014-06-30T16:04:33Z</time>
      </trkpt>
      <trkpt lat="40.848500" lon="-4.244667">
        <ele>1638.0</ele>
        <time>2014-06-30T16:04:34Z</time>
      </trkpt>
      <trkpt lat="40.848567" lon="-4.244500">
        <ele>1639.0</ele>
        <time>2014-06-30T16:04:35Z</time>
      </trkpt>
      <trkpt lat="40.848633" lon="-4.244317">
        <ele>1641.0</ele>
        <time>2014-06-30T16:04:36Z</time>
      </trkpt>
      <trkpt lat="40.848683" lon="-4.244083">
        <ele>1642.0</ele>
        <time>2014-06-30T16:04:37Z</time>
      </trkpt>
      <trkpt lat="40.848717" lon="-4.243867">
        <ele>1644.0</ele>
        <time>2014-06-30T16:04:38Z</time>
      </trkpt>
      <trkpt lat="40.848717" lon="-4.243650">
        <ele>1646.0</ele>
        <time>2014-06-30T16:04:39Z</time>
      </trkpt>
      <trkpt lat="40.848700" lon="-4.243450">
        <ele>1649.0</ele>
        <time>2014-06-30T16:04:40Z</time>
      </trkpt>
      <trkpt lat="40.848683" lon="-4.243267">
        <ele>1650.0</ele>
        <time>2014-06-30T16:04:41Z</time>
      </trkpt>
      <trkpt lat="40.848667" lon="-4.243083">
        <ele>1652.0</ele>
        <time>2014-06-30T16:04:42Z</time>
      </trkpt>
      <trkpt lat="40.848633" lon="-4.242883">
        <ele>1653.0</ele>
        <time>2014-06-30T16:04:43Z</time>
      </trkpt>
      <trkpt lat="40.848600" lon="-4.242667">
        <ele>1653.0</ele>
        <time>2014-06-30T16:04:44Z</time>
      </trkpt>
      <trkpt lat="40.848567" lon="-4.242467">
        <ele>1655.0</ele>
        <time>2014-06-30T16:04:45Z</time>
      </trkpt>
      <trkpt lat="40.848517" lon="-4.242283">
        <ele>1657.0</ele>
        <time>2014-06-30T16:04:46Z</time>
      </trkpt>
      <trkpt lat="40.848467" lon="-4.242167">
        <ele>1661.0</ele>
        <time>2014-06-30T16:04:47Z</time>
      </trkpt>
      <trkpt lat="40.848400" lon="-4.242083">
        <ele>1664.0</ele>
        <time>2014-06-30T16:04:48Z</time>
      </trkpt>
      <trkpt lat="40.848350" lon="-4.242033">
        <ele>1665.0</ele>
        <time>2014-06-30T16:04:49Z</time>
      </trkpt>
      <trkpt lat="40.848283" lon="-4.241967">
        <ele>1665.0</ele>
        <time>2014-06-30T16:04:50Z</time>
      </trkpt>
      <trkpt lat="40.848217" lon="-4.241917">
        <ele>1667.0</ele>
        <time>2014-06-30T16:04:51Z</time>
      </trkpt>
      <trkpt lat="40.848133" lon="-4.241867">
        <ele>1669.0</ele>
        <time>2014-06-30T16:04:52Z</time>
      </trkpt>
      <trkpt lat="40.848067" lon="-4.241833">
        <ele>1671.0</ele>
        <time>2014-06-30T16:04:53Z</time>
      </trkpt>
      <trkpt lat="40.848017" lon="-4.241817">
        <ele>1673.0</ele>
        <time>2014-06-30T16:04:54Z</time>
      </trkpt>
      <trkpt lat="40.847983" lon="-4.241817">
        <ele>1675.0</ele>
        <time>2014-06-30T16:04:55Z</time>
      </trkpt>
      <trkpt lat="40.847950" lon="-4.241817">
        <ele>1679.0</ele>
        <time>2014-06-30T16:04:56Z</time>
      </trkpt>
      <trkpt lat="40.847933" lon="-4.241833">
        <ele>1681.0</ele>
        <time>2014-06-30T16:04:57Z</time>
      </trkpt>
      <trkpt lat="40.847917" lon="-4.241850">
        <ele>1685.0</ele>
        <time>2014-06-30T16:04:58Z</time>
      </trkpt>
      <trkpt lat="40.847917" lon="-4.241883">
        <ele>1687.0</ele>
        <time>2014-06-30T16:04:59Z</time>
      </trkpt>
      <trkpt lat="40.847917" lon="-4.241900">
        <ele>1690.0</ele>
        <time>2014-06-30T16:05:00Z</time>
      </trkpt>
      <trkpt lat="40.847933" lon="-4.241933">
        <ele>1693.0</ele>
        <time>2014-06-30T16:05:01Z</time>
      </trkpt>
      <trkpt lat="40.847933" lon="-4.241983">
        <ele>1697.0</ele>
        <time>2014-06-30T16:05:02Z</time>
      </trkpt>
      <trkpt lat="40.847933" lon="-4.242000">
        <ele>1701.0</ele>
        <time>2014-06-30T16:05:03Z</time>
      </trkpt>
      <trkpt lat="40.847933" lon="-4.242033">
        <ele>1706.0</ele>
        <time>2014-06-30T16:05:04Z</time>
      </trkpt>
      <trkpt lat="40.847933" lon="-4.242033">
        <ele>1711.0</ele>
        <time>2014-06-30T16:05:05Z</time>
      </trkpt>
      <trkpt lat="40.847933" lon="-4.242033">
        <ele>1715.0</ele>
        <time>2014-06-30T16:05:06Z</time>
      </trkpt>
      <trkpt lat="40.847950" lon="-4.242033">
        <ele>1717.0</ele>
        <time>2014-06-30T16:05:07Z</time>
      </trkpt>
      <trkpt lat="40.847983" lon="-4.242067">
        <ele>1719.0</ele>
        <time>2014-06-30T16:05:08Z</time>
      </trkpt>
      <trkpt lat="40.848017" lon="-4.242067">
        <ele>1721.0</ele>
        <time>2014-06-30T16:05:09Z</time>
      </trkpt>
      <trkpt lat="40.848067" lon="-4.242083">
        <ele>1722.0</ele>
        <time>2014-06-30T16:05:10Z</time>
      </trkpt>
      <trkpt lat="40.848117" lon="-4.242067">
        <ele>1724.0</ele>
        <time>2014-06-30T16:05:11Z</time>
      </trkpt>
      <trkpt lat="40.848183" lon="-4.242067">
        <ele>1726.0</ele>
        <time>2014-06-30T16:05:12Z</time>
      </trkpt>
      <trkpt lat="40.848233" lon="-4.242050">
        <ele>1727.0</ele>
        <time>2014-06-30T16:05:13Z</time>
      </trkpt>
      <trkpt lat="40.848267" lon="-4.242033">
        <ele>1728.0</ele>
        <time>2014-06-30T16:05:14Z</time>
      </trkpt>
      <trkpt lat="40.848300" lon="-4.242017">
        <ele>1729.0</ele>
        <time>2014-06-30T16:05:15Z</time>
      </trkpt>
      <trkpt lat="40.848350" lon="-4.241983">
        <ele>1730.0</ele>
        <time>2014-06-30T16:05:16Z</time>
      </trkpt>
      <trkpt lat="40.848417" lon="-4.241933">
        <ele>1728.0</ele>
        <time>2014-06-30T16:05:17Z</time>
      </trkpt>
      <trkpt lat="40.848500" lon="-4.241850">
        <ele>1727.0</ele>
        <time>2014-06-30T16:05:18Z</time>
      </trkpt>
      <trkpt lat="40.848583" lon="-4.241750">
        <ele>1727.0</ele>
        <time>2014-06-30T16:05:19Z</time>
      </trkpt>
      <trkpt lat="40.848667" lon="-4.241617">
        <ele>1727.0</ele>
        <time>2014-06-30T16:05:20Z</time>
      </trkpt>
      <trkpt lat="40.848733" lon="-4.241450">
        <ele>1727.0</ele>
        <time>2014-06-30T16:05:21Z</time>
      </trkpt>
      <trkpt lat="40.848783" lon="-4.241250">
        <ele>1727.0</ele>
        <time>2014-06-30T16:05:22Z</time>
      </trkpt>
      <trkpt lat="40.848800" lon="-4.241050">
        <ele>1726.0</ele>
        <time>2014-06-30T16:05:23Z</time>
      </trkpt>
      <trkpt lat="40.848800" lon="-4.240833">
        <ele>1726.0</ele>
        <time>2014-06-30T16:05:24Z</time>
      </trkpt>
      <trkpt lat="40.848817" lon="-4.240617">
        <ele>1726.0</ele>
        <time>2014-06-30T16:05:25Z</time>
      </trkpt>
      <trkpt lat="40.848817" lon="-4.240400">
        <ele>1725.0</ele>
        <time>2014-06-30T16:05:26Z</time>
      </trkpt>
      <trkpt lat="40.848817" lon="-4.240200">
        <ele>1725.0</ele>
        <time>2014-06-30T16:05:27Z</time>
      </trkpt>
      <trkpt lat="40.848800" lon="-4.240000">
        <ele>1725.0</ele>
        <time>2014-06-30T16:05:28Z</time>
      </trkpt>
      <trkpt lat="40.848767" lon="-4.239800">
        <ele>1725.0</ele>
        <time>2014-06-30T16:05:29Z</time>
      </trkpt>
      <trkpt lat="40.848733" lon="-4.239583">
        <ele>1725.0</ele>
        <time>2014-06-30T16:05:30Z</time>
      </trkpt>
      <trkpt lat="40.848717" lon="-4.239383">
        <ele>1726.0</ele>
        <time>2014-06-30T16:05:31Z</time>
      </trkpt>
      <trkpt lat="40.848683" lon="-4.239183">
        <ele>1728.0</ele>
        <time>2014-06-30T16:05:32Z</time>
      </trkpt>
      <trkpt lat="40.848667" lon="-4.238983">
        <ele>1730.0</ele>
        <time>2014-06-30T16:05:33Z</time>
      </trkpt>
      <trkpt lat="40.848650" lon="-4.238783">
        <ele>1732.0</ele>
        <time>2014-06-30T16:05:34Z</time>
      </trkpt>
      <trkpt lat="40.848600" lon="-4.238600">
        <ele>1734.0</ele>
        <time>2014-06-30T16:05:35Z</time>
      </trkpt>
      <trkpt lat="40.848533" lon="-4.238417">
        <ele>1736.0</ele>
        <time>2014-06-30T16:05:36Z</time>
      </trkpt>
      <trkpt lat="40.848450" lon="-4.238283">
        <ele>1738.0</ele>
        <time>2014-06-30T16:05:37Z</time>
      </trkpt>
      <trkpt lat="40.848367" lon="-4.238150">
        <ele>1741.0</ele>
        <time>2014-06-30T16:05:38Z</time>
      </trkpt>
      <trkpt lat="40.848283" lon="-4.238067">
        <ele>1744.0</ele>
        <time>2014-06-30T16:05:39Z</time>
      </trkpt>
      <trkpt lat="40.848217" lon="-4.237983">
        <ele>1748.0</ele>
        <time>2014-06-30T16:05:40Z</time>
      </trkpt>
      <trkpt lat="40.848167" lon="-4.237900">
        <ele>1751.0</ele>
        <time>2014-06-30T16:05:41Z</time>
      </trkpt>
      <trkpt lat="40.848100" lon="-4.237833">
        <ele>1754.0</ele>
        <time>2014-06-30T16:05:42Z</time>
      </trkpt>
      <trkpt lat="40.848033" lon="-4.237783">
        <ele>1757.0</ele>
        <time>2014-06-30T16:05:43Z</time>
      </trkpt>
      <trkpt lat="40.847967" lon="-4.237750">
        <ele>1760.0</ele>
        <time>2014-06-30T16:05:44Z</time>
      </trkpt>
      <trkpt lat="40.847933" lon="-4.237750">
        <ele>1763.0</ele>
        <time>2014-06-30T16:05:45Z</time>
      </trkpt>
      <trkpt lat="40.847900" lon="-4.237750">
        <ele>1766.0</ele>
        <time>2014-06-30T16:05:46Z</time>
      </trkpt>
      <trkpt lat="40.847900" lon="-4.237767">
        <ele>1769.0</ele>
        <time>2014-06-30T16:05:47Z</time>
      </trkpt>
      <trkpt lat="40.847917" lon="-4.237800">
        <ele>1771.0</ele>
        <time>2014-06-30T16:05:48Z</time>
      </trkpt>
      <trkpt lat="40.847967" lon="-4.237817">
        <ele>1773.0</ele>
        <time>2014-06-30T16:05:49Z</time>
      </trkpt>
      <trkpt lat="40.848017" lon="-4.237833">
        <ele>1775.0</ele>
        <time>2014-06-30T16:05:50Z</time>
      </trkpt>
      <trkpt lat="40.848100" lon="-4.237833">
        <ele>1777.0</ele>
        <time>2014-06-30T16:05:51Z</time>
      </trkpt>
      <trkpt lat="40.848183" lon="-4.237817">
        <ele>1780.0</ele>
        <time>2014-06-30T16:05:52Z</time>
      </trkpt>
      <trkpt lat="40.848283" lon="-4.237767">
        <ele>1782.0</ele>
        <time>2014-06-30T16:05:53Z</time>
      </trkpt>
      <trkpt lat="40.848367" lon="-4.237683">
        <ele>1784.0</ele>
        <time>2014-06-30T16:05:54Z</time>
      </trkpt>
      <trkpt lat="40.848450" lon="-4.237583">
        <ele>1786.0</ele>
        <time>2014-06-30T16:05:55Z</time>
      </trkpt>
      <trkpt lat="40.848533" lon="-4.237483">
        <ele>1789.0</ele>
        <time>2014-06-30T16:05:56Z</time>
      </trkpt>
      <trkpt lat="40.848617" lon="-4.237400">
        <ele>1791.0</ele>
        <time>2014-06-30T16:05:57Z</time>
      </trkpt>
      <trkpt lat="40.848700" lon="-4.237300">
        <ele>1794.0</ele>
        <time>2014-06-30T16:05:58Z</time>
      </trkpt>
      <trkpt lat="40.848800" lon="-4.237217">
        <ele>1796.0</ele>
        <time>2014-06-30T16:05:59Z</time>
      </trkpt>
      <trkpt lat="40.848883" lon="-4.237133">
        <ele>1796.0</ele>
        <time>2014-06-30T16:06:00Z</time>
      </trkpt>
      <trkpt lat="40.848967" lon="-4.237050">
        <ele>1796.0</ele>
        <time>2014-06-30T16:06:01Z</time>
      </trkpt>
      <trkpt lat="40.849033" lon="-4.236933">
        <ele>1796.0</ele>
        <time>2014-06-30T16:06:02Z</time>
      </trkpt>
      <trkpt lat="40.849117" lon="-4.236817">
        <ele>1796.0</ele>
        <time>2014-06-30T16:06:03Z</time>
      </trkpt>
      <trkpt lat="40.849183" lon="-4.236667">
        <ele>1796.0</ele>
        <time>2014-06-30T16:06:04Z</time>
      </trkpt>
      <trkpt lat="40.849267" lon="-4.236500">
        <ele>1796.0</ele>
        <time>2014-06-30T16:06:05Z</time>
      </trkpt>
      <trkpt lat="40.849317" lon="-4.236317">
        <ele>1795.0</ele>
        <time>2014-06-30T16:06:06Z</time>
      </trkpt>
      <trkpt lat="40.849367" lon="-4.236133">
        <ele>1795.0</ele>
        <time>2014-06-30T16:06:07Z</time>
      </trkpt>
      <trkpt lat="40.849400" lon="-4.235950">
        <ele>1796.0</ele>
        <time>2014-06-30T16:06:08Z</time>
      </trkpt>
      <trkpt lat="40.849417" lon="-4.235733">
        <ele>1796.0</ele>
        <time>2014-06-30T16:06:09Z</time>
      </trkpt>
      <trkpt lat="40.849400" lon="-4.235517">
        <ele>1796.0</ele>
        <time>2014-06-30T16:06:10Z</time>
      </trkpt>
      <trkpt lat="40.849367" lon="-4.235300">
        <ele>1796.0</ele>
        <time>2014-06-30T16:06:11Z</time>
      </trkpt>
      <trkpt lat="40.849333" lon="-4.235083">
        <ele>1796.0</ele>
        <time>2014-06-30T16:06:12Z</time>
      </trkpt>
      <trkpt lat="40.849300" lon="-4.234883">
        <ele>1796.0</ele>
        <time>2014-06-30T16:06:13Z</time>
      </trkpt>
      <trkpt lat="40.849250" lon="-4.234700">
        <ele>1797.0</ele>
        <time>2014-06-30T16:06:14Z</time>
      </trkpt>
      <trkpt lat="40.849167" lon="-4.234517">
        <ele>1795.0</ele>
        <time>2014-06-30T16:06:15Z</time>
      </trkpt>
      <trkpt lat="40.849083" lon="-4.234350">
        <ele>1794.0</ele>
        <time>2014-06-30T16:06:16Z</time>
      </trkpt>
      <trkpt lat="40.849000" lon="-4.234217">
        <ele>1792.0</ele>
        <time>2014-06-30T16:06:17Z</time>
      </trkpt>
      <trkpt lat="40.848900" lon="-4.234100">
        <ele>1791.0</ele>
        <time>2014-06-30T16:06:18Z</time>
      </trkpt>
      <trkpt lat="40.848783" lon="-4.234000">
        <ele>1791.0</ele>
        <time>2014-06-30T16:06:19Z</time>
      </trkpt>
      <trkpt lat="40.848683" lon="-4.233933">
        <ele>1790.0</ele>
        <time>2014-06-30T16:06:20Z</time>
      </trkpt>
      <trkpt lat="40.848583" lon="-4.233867">
        <ele>1790.0</ele>
        <time>2014-06-30T16:06:21Z</time>
      </trkpt>
      <trkpt lat="40.848483" lon="-4.233800">
        <ele>1792.0</ele>
        <time>2014-06-30T16:06:22Z</time>
      </trkpt>
      <trkpt lat="40.848400" lon="-4.233717">
        <ele>1794.0</ele>
        <time>2014-06-30T16:06:23Z</time>
      </trkpt>
      <trkpt lat="40.848333" lon="-4.233650">
        <ele>1796.0</ele>
        <time>2014-06-30T16:06:24Z</time>
      </trkpt>
      <trkpt lat="40.848283" lon="-4.233600">
        <ele>1800.0</ele>
        <time>2014-06-30T16:06:25Z</time>
      </trkpt>
      <trkpt lat="40.848250" lon="-4.233583">
        <ele>1802.0</ele>
        <time>2014-06-30T16:06:26Z</time>
      </trkpt>
      <trkpt lat="40.848233" lon="-4.233567">
        <ele>1804.0</ele>
        <time>2014-06-30T16:06:27Z</time>
      </trkpt>
      <trkpt lat="40.848217" lon="-4.233567">
        <ele>1806.0</ele>
        <time>2014-06-30T16:06:28Z</time>
      </trkpt>
      <trkpt lat="40.848183" lon="-4.233567">
        <ele>1805.0</ele>
        <time>2014-06-30T16:06:29Z</time>
      </trkpt>
      <trkpt lat="40.848150" lon="-4.233567">
        <ele>1806.0</ele>
        <time>2014-06-30T16:06:30Z</time>
      </trkpt>
      <trkpt lat="40.848117" lon="-4.233583">
        <ele>1807.0</ele>
        <time>2014-06-30T16:06:31Z</time>
      </trkpt>
      <trkpt lat="40.848117" lon="-4.233583">
        <ele>1808.0</ele>
        <time>2014-06-30T16:06:32Z</time>
      </trkpt>
      <trkpt lat="40.848133" lon="-4.233567">
        <ele>1809.0</ele>
        <time>2014-06-30T16:06:33Z</time>
      </trkpt>
      <trkpt lat="40.848150" lon="-4.233550">
        <ele>1810.0</ele>
        <time>2014-06-30T16:06:34Z</time>
      </trkpt>
      <trkpt lat="40.848200" lon="-4.233517">
        <ele>1811.0</ele>
        <time>2014-06-30T16:06:35Z</time>
      </trkpt>
      <trkpt lat="40.848233" lon="-4.233483">
        <ele>1812.0</ele>
        <time>2014-06-30T16:06:36Z</time>
      </trkpt>
      <trkpt lat="40.848283" lon="-4.233450">
        <ele>1811.0</ele>
        <time>2014-06-30T16:06:37Z</time>
      </trkpt>
      <trkpt lat="40.848333" lon="-4.233433">
        <ele>1811.0</ele>
        <time>2014-06-30T16:06:38Z</time>
      </trkpt>
      <trkpt lat="40.848400" lon="-4.233383">
        <ele>1811.0</ele>
        <time>2014-06-30T16:06:39Z</time>
      </trkpt>
      <trkpt lat="40.848500" lon="-4.233333">
        <ele>1812.0</ele>
        <time>2014-06-30T16:06:40Z</time>
      </trkpt>
      <trkpt lat="40.848583" lon="-4.233267">
        <ele>1813.0</ele>
        <time>2014-06-30T16:06:41Z</time>
      </trkpt>
      <trkpt lat="40.848683" lon="-4.233183">
        <ele>1814.0</ele>
        <time>2014-06-30T16:06:42Z</time>
      </trkpt>
      <trkpt lat="40.848750" lon="-4.233133">
        <ele>1815.0</ele>
        <time>2014-06-30T16:06:43Z</time>
      </trkpt>
      <trkpt lat="40.848817" lon="-4.233067">
        <ele>1817.0</ele>
        <time>2014-06-30T16:06:44Z</time>
      </trkpt>
      <trkpt lat="40.848883" lon="-4.233000">
        <ele>1817.0</ele>
        <time>2014-06-30T16:06:45Z</time>
      </trkpt>
      <trkpt lat="40.848967" lon="-4.232900">
        <ele>1817.0</ele>
        <time>2014-06-30T16:06:46Z</time>
      </trkpt>
      <trkpt lat="40.849033" lon="-4.232800">
        <ele>1816.0</ele>
        <time>2014-06-30T16:06:47Z</time>
      </trkpt>
      <trkpt lat="40.849100" lon="-4.232667">
        <ele>1816.0</ele>
        <time>2014-06-30T16:06:48Z</time>
      </trkpt>
      <trkpt lat="40.849167" lon="-4.232500">
        <ele>1816.0</ele>
        <time>2014-06-30T16:06:49Z</time>
      </trkpt>
      <trkpt lat="40.849233" lon="-4.232333">
        <ele>1816.0</ele>
        <time>2014-06-30T16:06:50Z</time>
      </trkpt>
      <trkpt lat="40.849267" lon="-4.232133">
        <ele>1816.0</ele>
        <time>2014-06-30T16:06:51Z</time>
      </trkpt>
      <trkpt lat="40.849283" lon="-4.231950">
        <ele>1816.0</ele>
        <time>2014-06-30T16:06:52Z</time>
      </trkpt>
      <trkpt lat="40.849267" lon="-4.231733">
        <ele>1816.0</ele>
        <time>2014-06-30T16:06:53Z</time>
      </trkpt>
      <trkpt lat="40.849233" lon="-4.231533">
        <ele>1816.0</ele>
        <time>2014-06-30T16:06:54Z</time>
      </trkpt>
      <trkpt lat="40.849183" lon="-4.231333">
        <ele>1815.0</ele>
        <time>2014-06-30T16:06:55Z</time>
      </trkpt>
      <trkpt lat="40.849133" lon="-4.231133">
        <ele>1814.0</ele>
        <time>2014-06-30T16:06:56Z</time>
      </trkpt>
      <trkpt lat="40.849067" lon="-4.230950">
        <ele>1814.0</ele>
        <time>2014-06-30T16:06:57Z</time>
      </trkpt>
      <trkpt lat="40.849000" lon="-4.230800">
        <ele>1813.0</ele>
        <time>2014-06-30T16:06:58Z</time>
      </trkpt>
      <trkpt lat="40.848900" lon="-4.230667">
        <ele>1813.0</ele>
        <time>2014-06-30T16:06:59Z</time>
      </trkpt>
      <trkpt lat="40.848800" lon="-4.230567">
        <ele>1812.0</ele>
        <time>2014-06-30T16:07:00Z</time>
      </trkpt>
      <trkpt lat="40.848700" lon="-4.230500">
        <ele>1811.0</ele>
        <time>2014-06-30T16:07:01Z</time>
      </trkpt>
      <trkpt lat="40.848617" lon="-4.230450">
        <ele>1810.0</ele>
        <time>2014-06-30T16:07:02Z</time>
      </trkpt>
      <trkpt lat="40.848517" lon="-4.230433">
        <ele>1809.0</ele>
        <time>2014-06-30T16:07:03Z</time>
      </trkpt>
      <trkpt lat="40.848450" lon="-4.230417">
        <ele>1808.0</ele>
        <time>2014-06-30T16:07:04Z</time>
      </trkpt>
      <trkpt lat="40.848367" lon="-4.230417">
        <ele>1807.0</ele>
        <time>2014-06-30T16:07:05Z</time>
      </trkpt>
      <trkpt lat="40.848317" lon="-4.230417">
        <ele>1807.0</ele>
        <time>2014-06-30T16:07:06Z</time>
      </trkpt>
      <trkpt lat="40.848267" lon="-4.230417">
        <ele>1806.0</ele>
        <time>2014-06-30T16:07:07Z</time>
      </trkpt>
      <trkpt lat="40.848267" lon="-4.230400">
        <ele>1808.0</ele>
        <time>2014-06-30T16:07:08Z</time>
      </trkpt>
      <trkpt lat="40.848250" lon="-4.230400">
        <ele>1810.0</ele>
        <time>2014-06-30T16:07:09Z</time>
      </trkpt>
      <trkpt lat="40.848250" lon="-4.230367">
        <ele>1812.0</ele>
        <time>2014-06-30T16:07:10Z</time>
      </trkpt>
      <trkpt lat="40.848250" lon="-4.230350">
        <ele>1813.0</ele>
        <time>2014-06-30T16:07:11Z</time>
      </trkpt>
      <trkpt lat="40.848267" lon="-4.230333">
        <ele>1814.0</ele>
        <time>2014-06-30T16:07:12Z</time>
      </trkpt>
      <trkpt lat="40.848267" lon="-4.230333">
        <ele>1814.0</ele>
        <time>2014-06-30T16:07:13Z</time>
      </trkpt>
      <trkpt lat="40.848283" lon="-4.230333">
        <ele>1813.0</ele>
        <time>2014-06-30T16:07:14Z</time>
      </trkpt>
      <trkpt lat="40.848300" lon="-4.230333">
        <ele>1813.0</ele>
        <time>2014-06-30T16:07:15Z</time>
      </trkpt>
      <trkpt lat="40.848333" lon="-4.230333">
        <ele>1813.0</ele>
        <time>2014-06-30T16:07:16Z</time>
      </trkpt>
      <trkpt lat="40.848350" lon="-4.230317">
        <ele>1812.0</ele>
        <time>2014-06-30T16:07:17Z</time>
      </trkpt>
      <trkpt lat="40.848383" lon="-4.230300">
        <ele>1812.0</ele>
        <time>2014-06-30T16:07:18Z</time>
      </trkpt>
      <trkpt lat="40.848433" lon="-4.230283">
        <ele>1811.0</ele>
        <time>2014-06-30T16:07:19Z</time>
      </trkpt>
      <trkpt lat="40.848483" lon="-4.230267">
        <ele>1809.0</ele>
        <time>2014-06-30T16:07:20Z</time>
      </trkpt>
      <trkpt lat="40.848533" lon="-4.230267">
        <ele>1807.0</ele>
        <time>2014-06-30T16:07:21Z</time>
      </trkpt>
      <trkpt lat="40.848583" lon="-4.230267">
        <ele>1806.0</ele>
        <time>2014-06-30T16:07:22Z</time>
      </trkpt>
      <trkpt lat="40.848633" lon="-4.230250">
        <ele>1805.0</ele>
        <time>2014-06-30T16:07:23Z</time>
      </trkpt>
      <trkpt lat="40.848700" lon="-4.230217">
        <ele>1804.0</ele>
        <time>2014-06-30T16:07:24Z</time>
      </trkpt>
      <trkpt lat="40.848750" lon="-4.230183">
        <ele>1803.0</ele>
        <time>2014-06-30T16:07:25Z</time>
      </trkpt>
      <trkpt lat="40.848800" lon="-4.230167">
        <ele>1802.0</ele>
        <time>2014-06-30T16:07:26Z</time>
      </trkpt>
      <trkpt lat="40.848867" lon="-4.230133">
        <ele>1801.0</ele>
        <time>2014-06-30T16:07:27Z</time>
      </trkpt>
      <trkpt lat="40.848933" lon="-4.230100">
        <ele>1800.0</ele>
        <time>2014-06-30T16:07:28Z</time>
      </trkpt>
      <trkpt lat="40.849000" lon="-4.230067">
        <ele>1800.0</ele>
        <time>2014-06-30T16:07:29Z</time>
      </trkpt>
      <trkpt lat="40.849067" lon="-4.230033">
        <ele>1799.0</ele>
        <time>2014-06-30T16:07:30Z</time>
      </trkpt>
      <trkpt lat="40.849133" lon="-4.229983">
        <ele>1798.0</ele>
        <time>2014-06-30T16:07:31Z</time>
      </trkpt>
      <trkpt lat="40.849200" lon="-4.229933">
        <ele>1798.0</ele>
        <time>2014-06-30T16:07:32Z</time>
      </trkpt>
      <trkpt lat="40.849267" lon="-4.229900">
        <ele>1798.0</ele>
        <time>2014-06-30T16:07:33Z</time>
      </trkpt>
      <trkpt lat="40.849333" lon="-4.229867">
        <ele>1797.0</ele>
        <time>2014-06-30T16:07:34Z</time>
      </trkpt>
      <trkpt lat="40.849400" lon="-4.229817">
        <ele>1797.0</ele>
        <time>2014-06-30T16:07:35Z</time>
      </trkpt>
      <trkpt lat="40.849467" lon="-4.229750">
        <ele>1796.0</ele>
        <time>2014-06-30T16:07:36Z</time>
      </trkpt>
      <trkpt lat="40.849533" lon="-4.229667">
        <ele>1796.0</ele>
        <time>2014-06-30T16:07:37Z</time>
      </trkpt>
      <trkpt lat="40.849600" lon="-4.229600">
        <ele>1795.0</ele>
        <time>2014-06-30T16:07:38Z</time>
      </trkpt>
      <trkpt lat="40.849667" lon="-4.229533">
        <ele>1794.0</ele>
        <time>2014-06-30T16:07:39Z</time>
      </trkpt>
      <trkpt lat="40.849750" lon="-4.229483">
        <ele>1793.0</ele>
        <time>2014-06-30T16:07:40Z</time>
      </trkpt>
      <trkpt lat="40.849817" lon="-4.229417">
        <ele>1792.0</ele>
        <time>2014-06-30T16:07:41Z</time>
      </trkpt>
      <trkpt lat="40.849900" lon="-4.229350">
        <ele>1790.0</ele>
        <time>2014-06-30T16:07:42Z</time>
      </trkpt>
      <trkpt lat="40.849967" lon="-4.229267">
        <ele>1788.0</ele>
        <time>2014-06-30T16:07:43Z</time>
      </trkpt>
      <trkpt lat="40.850050" lon="-4.229200">
        <ele>1786.0</ele>
        <time>2014-06-30T16:07:44Z</time>
      </trkpt>
      <trkpt lat="40.850133" lon="-4.229133">
        <ele>1785.0</ele>
        <time>2014-06-30T16:07:45Z</time>
      </trkpt>
      <trkpt lat="40.850200" lon="-4.229050">
        <ele>1783.0</ele>
        <time>2014-06-30T16:07:46Z</time>
      </trkpt>
      <trkpt lat="40.850283" lon="-4.228967">
        <ele>1782.0</ele>
        <time>2014-06-30T16:07:47Z</time>
      </trkpt>
      <trkpt lat="40.850350" lon="-4.228883">
        <ele>1781.0</ele>
        <time>2014-06-30T16:07:48Z</time>
      </trkpt>
      <trkpt lat="40.850433" lon="-4.228783">
        <ele>1780.0</ele>
        <time>2014-06-30T16:07:49Z</time>
      </trkpt>
      <trkpt lat="40.850500" lon="-4.228700">
        <ele>1779.0</ele>
        <time>2014-06-30T16:07:50Z</time>
      </trkpt>
      <trkpt lat="40.850583" lon="-4.228617">
        <ele>1778.0</ele>
        <time>2014-06-30T16:07:51Z</time>
      </trkpt>
      <trkpt lat="40.850650" lon="-4.228517">
        <ele>1777.0</ele>
        <time>2014-06-30T16:07:52Z</time>
      </trkpt>
      <trkpt lat="40.850733" lon="-4.228433">
        <ele>1777.0</ele>
        <time>2014-06-30T16:07:53Z</time>
      </trkpt>
      <trkpt lat="40.850800" lon="-4.228350">
        <ele>1776.0</ele>
        <time>2014-06-30T16:07:54Z</time>
      </trkpt>
      <trkpt lat="40.850883" lon="-4.228283">
        <ele>1775.0</ele>
        <time>2014-06-30T16:07:55Z</time>
      </trkpt>
      <trkpt lat="40.850967" lon="-4.228217">
        <ele>1774.0</ele>
        <time>2014-06-30T16:07:56Z</time>
      </trkpt>
      <trkpt lat="40.851050" lon="-4.228167">
        <ele>1772.0</ele>
        <time>2014-06-30T16:07:57Z</time>
      </trkpt>
      <trkpt lat="40.851133" lon="-4.228117">
        <ele>1770.0</ele>
        <time>2014-06-30T16:07:58Z</time>
      </trkpt>
      <trkpt lat="40.851217" lon="-4.228067">
        <ele>1769.0</ele>
        <time>2014-06-30T16:07:59Z</time>
      </trkpt>
      <trkpt lat="40.851283" lon="-4.228033">
        <ele>1768.0</ele>
        <time>2014-06-30T16:08:00Z</time>
      </trkpt>
      <trkpt lat="40.851350" lon="-4.228000">
        <ele>1766.0</ele>
        <time>2014-06-30T16:08:01Z</time>
      </trkpt>
      <trkpt lat="40.851417" lon="-4.227967">
        <ele>1764.0</ele>
        <time>2014-06-30T16:08:02Z</time>
      </trkpt>
      <trkpt lat="40.851500" lon="-4.227933">
        <ele>1761.0</ele>
        <time>2014-06-30T16:08:03Z</time>
      </trkpt>
      <trkpt lat="40.851583" lon="-4.227900">
        <ele>1759.0</ele>
        <time>2014-06-30T16:08:04Z</time>
      </trkpt>
      <trkpt lat="40.851667" lon="-4.227867">
        <ele>1756.0</ele>
        <time>2014-06-30T16:08:05Z</time>
      </trkpt>
      <trkpt lat="40.851750" lon="-4.227850">
        <ele>1753.0</ele>
        <time>2014-06-30T16:08:06Z</time>
      </trkpt>
      <trkpt lat="40.851833" lon="-4.227800">
        <ele>1751.0</ele>
        <time>2014-06-30T16:08:07Z</time>
      </trkpt>
      <trkpt lat="40.851900" lon="-4.227767">
        <ele>1749.0</ele>
        <time>2014-06-30T16:08:08Z</time>
      </trkpt>
      <trkpt lat="40.851983" lon="-4.227717">
        <ele>1746.0</ele>
        <time>2014-06-30T16:08:09Z</time>
      </trkpt>
      <trkpt lat="40.852067" lon="-4.227683">
        <ele>1743.0</ele>
        <time>2014-06-30T16:08:10Z</time>
      </trkpt>
      <trkpt lat="40.852150" lon="-4.227667">
        <ele>1741.0</ele>
        <time>2014-06-30T16:08:11Z</time>
      </trkpt>
      <trkpt lat="40.852233" lon="-4.227633">
        <ele>1740.0</ele>
        <time>2014-06-30T16:08:12Z</time>
      </trkpt>
      <trkpt lat="40.852317" lon="-4.227600">
        <ele>1740.0</ele>
        <time>2014-06-30T16:08:13Z</time>
      </trkpt>
      <trkpt lat="40.852367" lon="-4.227550">
        <ele>1740.0</ele>
        <time>2014-06-30T16:08:14Z</time>
      </trkpt>
      <trkpt lat="40.852433" lon="-4.227517">
        <ele>1738.0</ele>
        <time>2014-06-30T16:08:15Z</time>
      </trkpt>
      <trkpt lat="40.852500" lon="-4.227467">
        <ele>1736.0</ele>
        <time>2014-06-30T16:08:16Z</time>
      </trkpt>
      <trkpt lat="40.852583" lon="-4.227433">
        <ele>1733.0</ele>
        <time>2014-06-30T16:08:17Z</time>
      </trkpt>
      <trkpt lat="40.852667" lon="-4.227400">
        <ele>1730.0</ele>
        <time>2014-06-30T16:08:18Z</time>
      </trkpt>
      <trkpt lat="40.852767" lon="-4.227367">
        <ele>1728.0</ele>
        <time>2014-06-30T16:08:19Z</time>
      </trkpt>
      <trkpt lat="40.852850" lon="-4.227317">
        <ele>1726.0</ele>
        <time>2014-06-30T16:08:20Z</time>
      </trkpt>
      <trkpt lat="40.852917" lon="-4.227250">
        <ele>1726.0</ele>
        <time>2014-06-30T16:08:21Z</time>
      </trkpt>
      <trkpt lat="40.853000" lon="-4.227183">
        <ele>1724.0</ele>
        <time>2014-06-30T16:08:22Z</time>
      </trkpt>
      <trkpt lat="40.853067" lon="-4.227117">
        <ele>1723.0</ele>
        <time>2014-06-30T16:08:23Z</time>
      </trkpt>
      <trkpt lat="40.853150" lon="-4.227067">
        <ele>1721.0</ele>
        <time>2014-06-30T16:08:24Z</time>
      </trkpt>
      <trkpt lat="40.853250" lon="-4.227000">
        <ele>1719.0</ele>
        <time>2014-06-30T16:08:25Z</time>
      </trkpt>
      <trkpt lat="40.853333" lon="-4.226933">
        <ele>1717.0</ele>
        <time>2014-06-30T16:08:26Z</time>
      </trkpt>
      <trkpt lat="40.853417" lon="-4.226867">
        <ele>1716.0</ele>
        <time>2014-06-30T16:08:27Z</time>
      </trkpt>
      <trkpt lat="40.853483" lon="-4.226817">
        <ele>1715.0</ele>
        <time>2014-06-30T16:08:28Z</time>
      </trkpt>
      <trkpt lat="40.853567" lon="-4.226767">
        <ele>1714.0</ele>
        <time>2014-06-30T16:08:29Z</time>
      </trkpt>
      <trkpt lat="40.853633" lon="-4.226733">
        <ele>1713.0</ele>
        <time>2014-06-30T16:08:30Z</time>
      </trkpt>
      <trkpt lat="40.853717" lon="-4.226700">
        <ele>1711.0</ele>
        <time>2014-06-30T16:08:31Z</time>
      </trkpt>
      <trkpt lat="40.853783" lon="-4.226683">
        <ele>1710.0</ele>
        <time>2014-06-30T16:08:32Z</time>
      </trkpt>
      <trkpt lat="40.853867" lon="-4.226650">
        <ele>1708.0</ele>
        <time>2014-06-30T16:08:33Z</time>
      </trkpt>
      <trkpt lat="40.853950" lon="-4.226600">
        <ele>1707.0</ele>
        <time>2014-06-30T16:08:34Z</time>
      </trkpt>
      <trkpt lat="40.854000" lon="-4.226567">
        <ele>1705.0</ele>
        <time>2014-06-30T16:08:35Z</time>
      </trkpt>
      <trkpt lat="40.854083" lon="-4.226550">
        <ele>1708.0</ele>
        <time>2014-06-30T16:08:36Z</time>
      </trkpt>
      <trkpt lat="40.854150" lon="-4.226533">
        <ele>1706.0</ele>
        <time>2014-06-30T16:08:37Z</time>
      </trkpt>
      <trkpt lat="40.854233" lon="-4.226517">
        <ele>1705.0</ele>
        <time>2014-06-30T16:08:38Z</time>
      </trkpt>
      <trkpt lat="40.854317" lon="-4.226500">
        <ele>1704.0</ele>
        <time>2014-06-30T16:08:39Z</time>
      </trkpt>
      <trkpt lat="40.854400" lon="-4.226483">
        <ele>1702.0</ele>
        <time>2014-06-30T16:08:40Z</time>
      </trkpt>
      <trkpt lat="40.854483" lon="-4.226450">
        <ele>1701.0</ele>
        <time>2014-06-30T16:08:41Z</time>
      </trkpt>
      <trkpt lat="40.854583" lon="-4.226417">
        <ele>1700.0</ele>
        <time>2014-06-30T16:08:42Z</time>
      </trkpt>
      <trkpt lat="40.854667" lon="-4.226367">
        <ele>1699.0</ele>
        <time>2014-06-30T16:08:43Z</time>
      </trkpt>
      <trkpt lat="40.854783" lon="-4.226300">
        <ele>1699.0</ele>
        <time>2014-06-30T16:08:44Z</time>
      </trkpt>
      <trkpt lat="40.854883" lon="-4.226217">
        <ele>1700.0</ele>
        <time>2014-06-30T16:08:45Z</time>
      </trkpt>
      <trkpt lat="40.854967" lon="-4.226133">
        <ele>1701.0</ele>
        <time>2014-06-30T16:08:46Z</time>
      </trkpt>
      <trkpt lat="40.855050" lon="-4.226033">
        <ele>1703.0</ele>
        <time>2014-06-30T16:08:47Z</time>
      </trkpt>
      <trkpt lat="40.855117" lon="-4.225933">
        <ele>1705.0</ele>
        <time>2014-06-30T16:08:48Z</time>
      </trkpt>
      <trkpt lat="40.855183" lon="-4.225833">
        <ele>1705.0</ele>
        <time>2014-06-30T16:08:49Z</time>
      </trkpt>
      <trkpt lat="40.855250" lon="-4.225750">
        <ele>1706.0</ele>
        <time>2014-06-30T16:08:50Z</time>
      </trkpt>
      <trkpt lat="40.855317" lon="-4.225650">
        <ele>1705.0</ele>
        <time>2014-06-30T16:08:51Z</time>
      </trkpt>
      <trkpt lat="40.855417" lon="-4.225567">
        <ele>1703.0</ele>
        <time>2014-06-30T16:08:52Z</time>
      </trkpt>
      <trkpt lat="40.855500" lon="-4.225467">
        <ele>1702.0</ele>
        <time>2014-06-30T16:08:53Z</time>
      </trkpt>
      <trkpt lat="40.855583" lon="-4.225350">
        <ele>1700.0</ele>
        <time>2014-06-30T16:08:54Z</time>
      </trkpt>
      <trkpt lat="40.855650" lon="-4.225217">
        <ele>1699.0</ele>
        <time>2014-06-30T16:08:55Z</time>
      </trkpt>
      <trkpt lat="40.855717" lon="-4.225083">
        <ele>1698.0</ele>
        <time>2014-06-30T16:08:56Z</time>
      </trkpt>
      <trkpt lat="40.855767" lon="-4.224950">
        <ele>1696.0</ele>
        <time>2014-06-30T16:08:57Z</time>
      </trkpt>
      <trkpt lat="40.855833" lon="-4.224817">
        <ele>1695.0</ele>
        <time>2014-06-30T16:08:58Z</time>
      </trkpt>
      <trkpt lat="40.855900" lon="-4.224683">
        <ele>1693.0</ele>
        <time>2014-06-30T16:08:59Z</time>
      </trkpt>
      <trkpt lat="40.855967" lon="-4.224583">
        <ele>1692.0</ele>
        <time>2014-06-30T16:09:00Z</time>
      </trkpt>
      <trkpt lat="40.856050" lon="-4.224483">
        <ele>1690.0</ele>
        <time>2014-06-30T16:09:01Z</time>
      </trkpt>
      <trkpt lat="40.856133" lon="-4.224383">
        <ele>1687.0</ele>
        <time>2014-06-30T16:09:02Z</time>
      </trkpt>
      <trkpt lat="40.856233" lon="-4.224267">
        <ele>1686.0</ele>
        <time>2014-06-30T16:09:03Z</time>
      </trkpt>
      <trkpt lat="40.856300" lon="-4.224150">
        <ele>1684.0</ele>
        <time>2014-06-30T16:09:04Z</time>
      </trkpt>
      <trkpt lat="40.856383" lon="-4.224050">
        <ele>1683.0</ele>
        <time>2014-06-30T16:09:05Z</time>
      </trkpt>
      <trkpt lat="40.856450" lon="-4.223933">
        <ele>1682.0</ele>
        <time>2014-06-30T16:09:06Z</time>
      </trkpt>
      <trkpt lat="40.856533" lon="-4.223817">
        <ele>1680.0</ele>
        <time>2014-06-30T16:09:07Z</time>
      </trkpt>
      <trkpt lat="40.856600" lon="-4.223700">
        <ele>1678.0</ele>
        <time>2014-06-30T16:09:08Z</time>
      </trkpt>
      <trkpt lat="40.856700" lon="-4.223583">
        <ele>1676.0</ele>
        <time>2014-06-30T16:09:09Z</time>
      </trkpt>
      <trkpt lat="40.856783" lon="-4.223467">
        <ele>1675.0</ele>
        <time>2014-06-30T16:09:10Z</time>
      </trkpt>
      <trkpt lat="40.856850" lon="-4.223367">
        <ele>1674.0</ele>
        <time>2014-06-30T16:09:11Z</time>
      </trkpt>
      <trkpt lat="40.856933" lon="-4.223267">
        <ele>1673.0</ele>
        <time>2014-06-30T16:09:12Z</time>
      </trkpt>
      <trkpt lat="40.857017" lon="-4.223150">
        <ele>1672.0</ele>
        <time>2014-06-30T16:09:13Z</time>
      </trkpt>
      <trkpt lat="40.857100" lon="-4.223050">
        <ele>1670.0</ele>
        <time>2014-06-30T16:09:14Z</time>
      </trkpt>
      <trkpt lat="40.857167" lon="-4.222933">
        <ele>1669.0</ele>
        <time>2014-06-30T16:09:15Z</time>
      </trkpt>
      <trkpt lat="40.857250" lon="-4.222817">
        <ele>1668.0</ele>
        <time>2014-06-30T16:09:16Z</time>
      </trkpt>
      <trkpt lat="40.857333" lon="-4.222700">
        <ele>1667.0</ele>
        <time>2014-06-30T16:09:17Z</time>
      </trkpt>
      <trkpt lat="40.857417" lon="-4.222583">
        <ele>1668.0</ele>
        <time>2014-06-30T16:09:18Z</time>
      </trkpt>
      <trkpt lat="40.857483" lon="-4.222483">
        <ele>1668.0</ele>
        <time>2014-06-30T16:09:19Z</time>
      </trkpt>
      <trkpt lat="40.857550" lon="-4.222367">
        <ele>1668.0</ele>
        <time>2014-06-30T16:09:20Z</time>
      </trkpt>
      <trkpt lat="40.857633" lon="-4.222267">
        <ele>1667.0</ele>
        <time>2014-06-30T16:09:21Z</time>
      </trkpt>
      <trkpt lat="40.857717" lon="-4.222150">
        <ele>1666.0</ele>
        <time>2014-06-30T16:09:22Z</time>
      </trkpt>
      <trkpt lat="40.857800" lon="-4.222033">
        <ele>1665.0</ele>
        <time>2014-06-30T16:09:23Z</time>
      </trkpt>
      <trkpt lat="40.857883" lon="-4.221933">
        <ele>1664.0</ele>
        <time>2014-06-30T16:09:24Z</time>
      </trkpt>
      <trkpt lat="40.857967" lon="-4.221850">
        <ele>1663.0</ele>
        <time>2014-06-30T16:09:25Z</time>
      </trkpt>
      <trkpt lat="40.858050" lon="-4.221750">
        <ele>1662.0</ele>
        <time>2014-06-30T16:09:26Z</time>
      </trkpt>
      <trkpt lat="40.858117" lon="-4.221650">
        <ele>1661.0</ele>
        <time>2014-06-30T16:09:27Z</time>
      </trkpt>
      <trkpt lat="40.858183" lon="-4.221567">
        <ele>1660.0</ele>
        <time>2014-06-30T16:09:28Z</time>
      </trkpt>
      <trkpt lat="40.858267" lon="-4.221483">
        <ele>1659.0</ele>
        <time>2014-06-30T16:09:29Z</time>
      </trkpt>
      <trkpt lat="40.858333" lon="-4.221400">
        <ele>1657.0</ele>
        <time>2014-06-30T16:09:30Z</time>
      </trkpt>
      <trkpt lat="40.858417" lon="-4.221317">
        <ele>1655.0</ele>
        <time>2014-06-30T16:09:31Z</time>
      </trkpt>
      <trkpt lat="40.858500" lon="-4.221217">
        <ele>1654.0</ele>
        <time>2014-06-30T16:09:32Z</time>
      </trkpt>
      <trkpt lat="40.858567" lon="-4.221133">
        <ele>1653.0</ele>
        <time>2014-06-30T16:09:33Z</time>
      </trkpt>
      <trkpt lat="40.858633" lon="-4.221050">
        <ele>1653.0</ele>
        <time>2014-06-30T16:09:34Z</time>
      </trkpt>
      <trkpt lat="40.858700" lon="-4.220967">
        <ele>1652.0</ele>
        <time>2014-06-30T16:09:35Z</time>
      </trkpt>
      <trkpt lat="40.858783" lon="-4.220900">
        <ele>1650.0</ele>
        <time>2014-06-30T16:09:36Z</time>
      </trkpt>
      <trkpt lat="40.858850" lon="-4.220833">
        <ele>1649.0</ele>
        <time>2014-06-30T16:09:37Z</time>
      </trkpt>
      <trkpt lat="40.858917" lon="-4.220767">
        <ele>1648.0</ele>
        <time>2014-06-30T16:09:38Z</time>
      </trkpt>
      <trkpt lat="40.858983" lon="-4.220683">
        <ele>1646.0</ele>
        <time>2014-06-30T16:09:39Z</time>
      </trkpt>
      <trkpt lat="40.859050" lon="-4.220600">
        <ele>1645.0</ele>
        <time>2014-06-30T16:09:40Z</time>
      </trkpt>
      <trkpt lat="40.859100" lon="-4.220517">
        <ele>1644.0</ele>
        <time>2014-06-30T16:09:41Z</time>
      </trkpt>
      <trkpt lat="40.859167" lon="-4.220433">
        <ele>1642.0</ele>
        <time>2014-06-30T16:09:42Z</time>
      </trkpt>
      <trkpt lat="40.859233" lon="-4.220333">
        <ele>1641.0</ele>
        <time>2014-06-30T16:09:43Z</time>
      </trkpt>
      <trkpt lat="40.859283" lon="-4.220250">
        <ele>1639.0</ele>
        <time>2014-06-30T16:09:44Z</time>
      </trkpt>
      <trkpt lat="40.859350" lon="-4.220167">
        <ele>1637.0</ele>
        <time>2014-06-30T16:09:45Z</time>
      </trkpt>
      <trkpt lat="40.859417" lon="-4.220083">
        <ele>1634.0</ele>
        <time>2014-06-30T16:09:46Z</time>
      </trkpt>
      <trkpt lat="40.859483" lon="-4.219983">
        <ele>1632.0</ele>
        <time>2014-06-30T16:09:47Z</time>
      </trkpt>
      <trkpt lat="40.859550" lon="-4.219883">
        <ele>1631.0</ele>
        <time>2014-06-30T16:09:48Z</time>
      </trkpt>
      <trkpt lat="40.859600" lon="-4.219800">
        <ele>1631.0</ele>
        <time>2014-06-30T16:09:49Z</time>
      </trkpt>
      <trkpt lat="40.859650" lon="-4.219717">
        <ele>1631.0</ele>
        <time>2014-06-30T16:09:50Z</time>
      </trkpt>
      <trkpt lat="40.859700" lon="-4.219650">
        <ele>1631.0</ele>
        <time>2014-06-30T16:09:51Z</time>
      </trkpt>
      <trkpt lat="40.859750" lon="-4.219567">
        <ele>1629.0</ele>
        <time>2014-06-30T16:09:52Z</time>
      </trkpt>
      <trkpt lat="40.859800" lon="-4.219467">
        <ele>1627.0</ele>
        <time>2014-06-30T16:09:53Z</time>
      </trkpt>
      <trkpt lat="40.859867" lon="-4.219367">
        <ele>1624.0</ele>
        <time>2014-06-30T16:09:54Z</time>
      </trkpt>
      <trkpt lat="40.859933" lon="-4.219250">
        <ele>1622.0</ele>
        <time>2014-06-30T16:09:55Z</time>
      </trkpt>
      <trkpt lat="40.859983" lon="-4.219133">
        <ele>1620.0</ele>
        <time>2014-06-30T16:09:56Z</time>
      </trkpt>
      <trkpt lat="40.860017" lon="-4.219017">
        <ele>1618.0</ele>
        <time>2014-06-30T16:09:57Z</time>
      </trkpt>
      <trkpt lat="40.860050" lon="-4.218883">
        <ele>1616.0</ele>
        <time>2014-06-30T16:09:58Z</time>
      </trkpt>
      <trkpt lat="40.860100" lon="-4.218750">
        <ele>1613.0</ele>
        <time>2014-06-30T16:09:59Z</time>
      </trkpt>
      <trkpt lat="40.860167" lon="-4.218650">
        <ele>1610.0</ele>
        <time>2014-06-30T16:10:00Z</time>
      </trkpt>
      <trkpt lat="40.860250" lon="-4.218550">
        <ele>1607.0</ele>
        <time>2014-06-30T16:10:01Z</time>
      </trkpt>
      <trkpt lat="40.860317" lon="-4.218450">
        <ele>1605.0</ele>
        <time>2014-06-30T16:10:02Z</time>
      </trkpt>
      <trkpt lat="40.860383" lon="-4.218350">
        <ele>1604.0</ele>
        <time>2014-06-30T16:10:03Z</time>
      </trkpt>
      <trkpt lat="40.860433" lon="-4.218267">
        <ele>1602.0</ele>
        <time>2014-06-30T16:10:04Z</time>
      </trkpt>
      <trkpt lat="40.860483" lon="-4.218167">
        <ele>1601.0</ele>
        <time>2014-06-30T16:10:05Z</time>
      </trkpt>
      <trkpt lat="40.860533" lon="-4.218067">
        <ele>1598.0</ele>
        <time>2014-06-30T16:10:06Z</time>
      </trkpt>
      <trkpt lat="40.860600" lon="-4.217967">
        <ele>1595.0</ele>
        <time>2014-06-30T16:10:07Z</time>
      </trkpt>
      <trkpt lat="40.860667" lon="-4.217867">
        <ele>1592.0</ele>
        <time>2014-06-30T16:10:08Z</time>
      </trkpt>
      <trkpt lat="40.860750" lon="-4.217783">
        <ele>1589.0</ele>
        <time>2014-06-30T16:10:09Z</time>
      </trkpt>
      <trkpt lat="40.860817" lon="-4.217700">
        <ele>1586.0</ele>
        <time>2014-06-30T16:10:10Z</time>
      </trkpt>
      <trkpt lat="40.860883" lon="-4.217617">
        <ele>1584.0</ele>
        <time>2014-06-30T16:10:11Z</time>
      </trkpt>
      <trkpt lat="40.860950" lon="-4.217517">
        <ele>1581.0</ele>
        <time>2014-06-30T16:10:12Z</time>
      </trkpt>
      <trkpt lat="40.861000" lon="-4.217400">
        <ele>1579.0</ele>
        <time>2014-06-30T16:10:13Z</time>
      </trkpt>
      <trkpt lat="40.861050" lon="-4.217300">
        <ele>1576.0</ele>
        <time>2014-06-30T16:10:14Z</time>
      </trkpt>
      <trkpt lat="40.861100" lon="-4.217183">
        <ele>1573.0</ele>
        <time>2014-06-30T16:10:15Z</time>
      </trkpt>
      <trkpt lat="40.861150" lon="-4.217050">
        <ele>1569.0</ele>
        <time>2014-06-30T16:10:16Z</time>
      </trkpt>
      <trkpt lat="40.861200" lon="-4.216917">
        <ele>1566.0</ele>
        <time>2014-06-30T16:10:17Z</time>
      </trkpt>
      <trkpt lat="40.861250" lon="-4.216783">
        <ele>1563.0</ele>
        <time>2014-06-30T16:10:18Z</time>
      </trkpt>
      <trkpt lat="40.861317" lon="-4.216650">
        <ele>1561.0</ele>
        <time>2014-06-30T16:10:19Z</time>
      </trkpt>
      <trkpt lat="40.861367" lon="-4.216533">
        <ele>1559.0</ele>
        <time>2014-06-30T16:10:20Z</time>
      </trkpt>
      <trkpt lat="40.861400" lon="-4.216417">
        <ele>1557.0</ele>
        <time>2014-06-30T16:10:21Z</time>
      </trkpt>
      <trkpt lat="40.861467" lon="-4.216300">
        <ele>1554.0</ele>
        <time>2014-06-30T16:10:22Z</time>
      </trkpt>
      <trkpt lat="40.861517" lon="-4.216167">
        <ele>1552.0</ele>
        <time>2014-06-30T16:10:23Z</time>
      </trkpt>
      <trkpt lat="40.861583" lon="-4.216033">
        <ele>1549.0</ele>
        <time>2014-06-30T16:10:24Z</time>
      </trkpt>
      <trkpt lat="40.861633" lon="-4.215900">
        <ele>1545.0</ele>
        <time>2014-06-30T16:10:25Z</time>
      </trkpt>
      <trkpt lat="40.861700" lon="-4.215750">
        <ele>1542.0</ele>
        <time>2014-06-30T16:10:26Z</time>
      </trkpt>
      <trkpt lat="40.861767" lon="-4.215600">
        <ele>1539.0</ele>
        <time>2014-06-30T16:10:27Z</time>
      </trkpt>
      <trkpt lat="40.861833" lon="-4.215467">
        <ele>1537.0</ele>
        <time>2014-06-30T16:10:28Z</time>
      </trkpt>
      <trkpt lat="40.861900" lon="-4.215333">
        <ele>1534.0</ele>
        <time>2014-06-30T16:10:29Z</time>
      </trkpt>
      <trkpt lat="40.861950" lon="-4.215217">
        <ele>1532.0</ele>
        <time>2014-06-30T16:10:30Z</time>
      </trkpt>
      <trkpt lat="40.862017" lon="-4.215083">
        <ele>1529.0</ele>
        <time>2014-06-30T16:10:31Z</time>
      </trkpt>
      <trkpt lat="40.862083" lon="-4.214967">
        <ele>1527.0</ele>
        <time>2014-06-30T16:10:32Z</time>
      </trkpt>
      <trkpt lat="40.862150" lon="-4.214833">
        <ele>1524.0</ele>
        <time>2014-06-30T16:10:33Z</time>
      </trkpt>
      <trkpt lat="40.862200" lon="-4.214700">
        <ele>1521.0</ele>
        <time>2014-06-30T16:10:34Z</time>
      </trkpt>
      <trkpt lat="40.862267" lon="-4.214567">
        <ele>1518.0</ele>
        <time>2014-06-30T16:10:35Z</time>
      </trkpt>
      <trkpt lat="40.862333" lon="-4.214433">
        <ele>1515.0</ele>
        <time>2014-06-30T16:10:36Z</time>
      </trkpt>
      <trkpt lat="40.862383" lon="-4.214300">
        <ele>1512.0</ele>
        <time>2014-06-30T16:10:37Z</time>
      </trkpt>
      <trkpt lat="40.862450" lon="-4.214150">
        <ele>1509.0</ele>
        <time>2014-06-30T16:10:38Z</time>
      </trkpt>
      <trkpt lat="40.862517" lon="-4.214017">
        <ele>1506.0</ele>
        <time>2014-06-30T16:10:39Z</time>
      </trkpt>
      <trkpt lat="40.862583" lon="-4.213883">
        <ele>1503.0</ele>
        <time>2014-06-30T16:10:40Z</time>
      </trkpt>
      <trkpt lat="40.862650" lon="-4.213750">
        <ele>1500.0</ele>
        <time>2014-06-30T16:10:41Z</time>
      </trkpt>
      <trkpt lat="40.862700" lon="-4.213633">
        <ele>1497.0</ele>
        <time>2014-06-30T16:10:42Z</time>
      </trkpt>
      <trkpt lat="40.862767" lon="-4.213500">
        <ele>1494.0</ele>
        <time>2014-06-30T16:10:43Z</time>
      </trkpt>
      <trkpt lat="40.862817" lon="-4.213383">
        <ele>1491.0</ele>
        <time>2014-06-30T16:10:44Z</time>
      </trkpt>
      <trkpt lat="40.862883" lon="-4.213250">
        <ele>1487.0</ele>
        <time>2014-06-30T16:10:45Z</time>
      </trkpt>
      <trkpt lat="40.862967" lon="-4.213133">
        <ele>1483.0</ele>
        <time>2014-06-30T16:10:46Z</time>
      </trkpt>
      <trkpt lat="40.863033" lon="-4.213000">
        <ele>1480.0</ele>
        <time>2014-06-30T16:10:47Z</time>
      </trkpt>
      <trkpt lat="40.863117" lon="-4.212867">
        <ele>1476.0</ele>
        <time>2014-06-30T16:10:48Z</time>
      </trkpt>
      <trkpt lat="40.863200" lon="-4.212733">
        <ele>1472.0</ele>
        <time>2014-06-30T16:10:49Z</time>
      </trkpt>
      <trkpt lat="40.863267" lon="-4.212617">
        <ele>1469.0</ele>
        <time>2014-06-30T16:10:50Z</time>
      </trkpt>
      <trkpt lat="40.863333" lon="-4.212500">
        <ele>1467.0</ele>
        <time>2014-06-30T16:10:51Z</time>
      </trkpt>
      <trkpt lat="40.863400" lon="-4.212367">
        <ele>1464.0</ele>
        <time>2014-06-30T16:10:52Z</time>
      </trkpt>
      <trkpt lat="40.863450" lon="-4.212233">
        <ele>1461.0</ele>
        <time>2014-06-30T16:10:53Z</time>
      </trkpt>
      <trkpt lat="40.863517" lon="-4.212100">
        <ele>1458.0</ele>
        <time>2014-06-30T16:10:54Z</time>
      </trkpt>
      <trkpt lat="40.863583" lon="-4.211967">
        <ele>1454.0</ele>
        <time>2014-06-30T16:10:55Z</time>
      </trkpt>
      <trkpt lat="40.863650" lon="-4.211833">
        <ele>1450.0</ele>
        <time>2014-06-30T16:10:56Z</time>
      </trkpt>
      <trkpt lat="40.863717" lon="-4.211700">
        <ele>1447.0</ele>
        <time>2014-06-30T16:10:57Z</time>
      </trkpt>
      <trkpt lat="40.863767" lon="-4.211567">
        <ele>1443.0</ele>
        <time>2014-06-30T16:10:58Z</time>
      </trkpt>
      <trkpt lat="40.863833" lon="-4.211433">
        <ele>1439.0</ele>
        <time>2014-06-30T16:10:59Z</time>
      </trkpt>
      <trkpt lat="40.863900" lon="-4.211300">
        <ele>1436.0</ele>
        <time>2014-06-30T16:11:00Z</time>
      </trkpt>
      <trkpt lat="40.863967" lon="-4.211167">
        <ele>1432.0</ele>
        <time>2014-06-30T16:11:01Z</time>
      </trkpt>
      <trkpt lat="40.864033" lon="-4.211033">
        <ele>1429.0</ele>
        <time>2014-06-30T16:11:02Z</time>
      </trkpt>
      <trkpt lat="40.864083" lon="-4.210883">
        <ele>1426.0</ele>
        <time>2014-06-30T16:11:03Z</time>
      </trkpt>
      <trkpt lat="40.864150" lon="-4.210733">
        <ele>1423.0</ele>
        <time>2014-06-30T16:11:04Z</time>
      </trkpt>
      <trkpt lat="40.864217" lon="-4.210583">
        <ele>1421.0</ele>
        <time>2014-06-30T16:11:05Z</time>
      </trkpt>
      <trkpt lat="40.864267" lon="-4.210433">
        <ele>1418.0</ele>
        <time>2014-06-30T16:11:06Z</time>
      </trkpt>
      <trkpt lat="40.864333" lon="-4.210283">
        <ele>1416.0</ele>
        <time>2014-06-30T16:11:07Z</time>
      </trkpt>
      <trkpt lat="40.864417" lon="-4.210150">
        <ele>1412.0</ele>
        <time>2014-06-30T16:11:08Z</time>
      </trkpt>
      <trkpt lat="40.864500" lon="-4.210000">
        <ele>1409.0</ele>
        <time>2014-06-30T16:11:09Z</time>
      </trkpt>
      <trkpt lat="40.864567" lon="-4.209850">
        <ele>1406.0</ele>
        <time>2014-06-30T16:11:10Z</time>
      </trkpt>
      <trkpt lat="40.864633" lon="-4.209717">
        <ele>1403.0</ele>
        <time>2014-06-30T16:11:11Z</time>
      </trkpt>
      <trkpt lat="40.864683" lon="-4.209567">
        <ele>1400.0</ele>
        <time>2014-06-30T16:11:12Z</time>
      </trkpt>
      <trkpt lat="40.864750" lon="-4.209400">
        <ele>1397.0</ele>
        <time>2014-06-30T16:11:13Z</time>
      </trkpt>
      <trkpt lat="40.864817" lon="-4.209250">
        <ele>1393.0</ele>
        <time>2014-06-30T16:11:14Z</time>
      </trkpt>
      <trkpt lat="40.864883" lon="-4.209100">
        <ele>1390.0</ele>
        <time>2014-06-30T16:11:15Z</time>
      </trkpt>
      <trkpt lat="40.864950" lon="-4.208950">
        <ele>1386.0</ele>
        <time>2014-06-30T16:11:16Z</time>
      </trkpt>
      <trkpt lat="40.865017" lon="-4.208817">
        <ele>1384.0</ele>
        <time>2014-06-30T16:11:17Z</time>
      </trkpt>
      <trkpt lat="40.865083" lon="-4.208683">
        <ele>1382.0</ele>
        <time>2014-06-30T16:11:18Z</time>
      </trkpt>
      <trkpt lat="40.865150" lon="-4.208567">
        <ele>1379.0</ele>
        <time>2014-06-30T16:11:19Z</time>
      </trkpt>
      <trkpt lat="40.865233" lon="-4.208450">
        <ele>1376.0</ele>
        <time>2014-06-30T16:11:20Z</time>
      </trkpt>
      <trkpt lat="40.865300" lon="-4.208333">
        <ele>1373.0</ele>
        <time>2014-06-30T16:11:21Z</time>
      </trkpt>
      <trkpt lat="40.865367" lon="-4.208217">
        <ele>1370.0</ele>
        <time>2014-06-30T16:11:22Z</time>
      </trkpt>
      <trkpt lat="40.865433" lon="-4.208083">
        <ele>1368.0</ele>
        <time>2014-06-30T16:11:23Z</time>
      </trkpt>
      <trkpt lat="40.865517" lon="-4.207950">
        <ele>1365.0</ele>
        <time>2014-06-30T16:11:24Z</time>
      </trkpt>
      <trkpt lat="40.865583" lon="-4.207833">
        <ele>1362.0</ele>
        <time>2014-06-30T16:11:25Z</time>
      </trkpt>
      <trkpt lat="40.865667" lon="-4.207750">
        <ele>1359.0</ele>
        <time>2014-06-30T16:11:26Z</time>
      </trkpt>
      <trkpt lat="40.865733" lon="-4.207650">
        <ele>1357.0</ele>
        <time>2014-06-30T16:11:27Z</time>
      </trkpt>
      <trkpt lat="40.865800" lon="-4.207550">
        <ele>1355.0</ele>
        <time>2014-06-30T16:11:28Z</time>
      </trkpt>
      <trkpt lat="40.865850" lon="-4.207433">
        <ele>1352.0</ele>
        <time>2014-06-30T16:11:29Z</time>
      </trkpt>
      <trkpt lat="40.865917" lon="-4.207317">
        <ele>1349.0</ele>
        <time>2014-06-30T16:11:30Z</time>
      </trkpt>
      <trkpt lat="40.865983" lon="-4.207183">
        <ele>1346.0</ele>
        <time>2014-06-30T16:11:31Z</time>
      </trkpt>
      <trkpt lat="40.866067" lon="-4.207067">
        <ele>1343.0</ele>
        <time>2014-06-30T16:11:32Z</time>
      </trkpt>
      <trkpt lat="40.866133" lon="-4.206950">
        <ele>1340.0</ele>
        <time>2014-06-30T16:11:33Z</time>
      </trkpt>
      <trkpt lat="40.866200" lon="-4.206817">
        <ele>1338.0</ele>
        <time>2014-06-30T16:11:34Z</time>
      </trkpt>
      <trkpt lat="40.866267" lon="-4.206683">
        <ele>1336.0</ele>
        <time>2014-06-30T16:11:35Z</time>
      </trkpt>
      <trkpt lat="40.866333" lon="-4.206567">
        <ele>1333.0</ele>
        <time>2014-06-30T16:11:36Z</time>
      </trkpt>
      <trkpt lat="40.866400" lon="-4.206433">
        <ele>1330.0</ele>
        <time>2014-06-30T16:11:37Z</time>
      </trkpt>
      <trkpt lat="40.866483" lon="-4.206317">
        <ele>1327.0</ele>
        <time>2014-06-30T16:11:38Z</time>
      </trkpt>
      <trkpt lat="40.866567" lon="-4.206200">
        <ele>1324.0</ele>
        <time>2014-06-30T16:11:39Z</time>
      </trkpt>
      <trkpt lat="40.866650" lon="-4.206083">
        <ele>1321.0</ele>
        <time>2014-06-30T16:11:40Z</time>
      </trkpt>
      <trkpt lat="40.866733" lon="-4.205967">
        <ele>1319.0</ele>
        <time>2014-06-30T16:11:41Z</time>
      </trkpt>
      <trkpt lat="40.866800" lon="-4.205850">
        <ele>1316.0</ele>
        <time>2014-06-30T16:11:42Z</time>
      </trkpt>
      <trkpt lat="40.866867" lon="-4.205717">
        <ele>1314.0</ele>
        <time>2014-06-30T16:11:43Z</time>
      </trkpt>
      <trkpt lat="40.866933" lon="-4.205600">
        <ele>1311.0</ele>
        <time>2014-06-30T16:11:44Z</time>
      </trkpt>
      <trkpt lat="40.867000" lon="-4.205467">
        <ele>1308.0</ele>
        <time>2014-06-30T16:11:45Z</time>
      </trkpt>
      <trkpt lat="40.867083" lon="-4.205333">
        <ele>1304.0</ele>
        <time>2014-06-30T16:11:46Z</time>
      </trkpt>
      <trkpt lat="40.867150" lon="-4.205183">
        <ele>1301.0</ele>
        <time>2014-06-30T16:11:47Z</time>
      </trkpt>
      <trkpt lat="40.867217" lon="-4.205050">
        <ele>1298.0</ele>
        <time>2014-06-30T16:11:48Z</time>
      </trkpt>
      <trkpt lat="40.867283" lon="-4.204900">
        <ele>1295.0</ele>
        <time>2014-06-30T16:11:49Z</time>
      </trkpt>
      <trkpt lat="40.867350" lon="-4.204767">
        <ele>1292.0</ele>
        <time>2014-06-30T16:11:50Z</time>
      </trkpt>
      <trkpt lat="40.867417" lon="-4.204633">
        <ele>1290.0</ele>
        <time>2014-06-30T16:11:51Z</time>
      </trkpt>
      <trkpt lat="40.867467" lon="-4.204483">
        <ele>1287.0</ele>
        <time>2014-06-30T16:11:52Z</time>
      </trkpt>
      <trkpt lat="40.867533" lon="-4.204350">
        <ele>1285.0</ele>
        <time>2014-06-30T16:11:53Z</time>
      </trkpt>
      <trkpt lat="40.867600" lon="-4.204200">
        <ele>1283.0</ele>
        <time>2014-06-30T16:11:54Z</time>
      </trkpt>
      <trkpt lat="40.867650" lon="-4.204050">
        <ele>1281.0</ele>
        <time>2014-06-30T16:11:55Z</time>
      </trkpt>
      <trkpt lat="40.867717" lon="-4.203933">
        <ele>1279.0</ele>
        <time>2014-06-30T16:11:56Z</time>
      </trkpt>
      <trkpt lat="40.867800" lon="-4.203800">
        <ele>1277.0</ele>
        <time>2014-06-30T16:11:57Z</time>
      </trkpt>
      <trkpt lat="40.867867" lon="-4.203650">
        <ele>1275.0</ele>
        <time>2014-06-30T16:11:58Z</time>
      </trkpt>
      <trkpt lat="40.867933" lon="-4.203517">
        <ele>1274.0</ele>
        <time>2014-06-30T16:11:59Z</time>
      </trkpt>
      <trkpt lat="40.868017" lon="-4.203383">
        <ele>1273.0</ele>
        <time>2014-06-30T16:12:00Z</time>
      </trkpt>
      <trkpt lat="40.868083" lon="-4.203250">
        <ele>1272.0</ele>
        <time>2014-06-30T16:12:01Z</time>
      </trkpt>
      <trkpt lat="40.868150" lon="-4.203117">
        <ele>1271.0</ele>
        <time>2014-06-30T16:12:02Z</time>
      </trkpt>
      <trkpt lat="40.868217" lon="-4.202983">
        <ele>1270.0</ele>
        <time>2014-06-30T16:12:03Z</time>
      </trkpt>
      <trkpt lat="40.868283" lon="-4.202850">
        <ele>1268.0</ele>
        <time>2014-06-30T16:12:04Z</time>
      </trkpt>
      <trkpt lat="40.868367" lon="-4.202717">
        <ele>1267.0</ele>
        <time>2014-06-30T16:12:05Z</time>
      </trkpt>
      <trkpt lat="40.868433" lon="-4.202583">
        <ele>1265.0</ele>
        <time>2014-06-30T16:12:06Z</time>
      </trkpt>
      <trkpt lat="40.868500" lon="-4.202433">
        <ele>1263.0</ele>
        <time>2014-06-30T16:12:07Z</time>
      </trkpt>
      <trkpt lat="40.868567" lon="-4.202300">
        <ele>1262.0</ele>
        <time>2014-06-30T16:12:08Z</time>
      </trkpt>
      <trkpt lat="40.868650" lon="-4.202183">
        <ele>1261.0</ele>
        <time>2014-06-30T16:12:09Z</time>
      </trkpt>
      <trkpt lat="40.868700" lon="-4.202050">
        <ele>1260.0</ele>
        <time>2014-06-30T16:12:10Z</time>
      </trkpt>
      <trkpt lat="40.868767" lon="-4.201917">
        <ele>1259.0</ele>
        <time>2014-06-30T16:12:11Z</time>
      </trkpt>
      <trkpt lat="40.868850" lon="-4.201767">
        <ele>1258.0</ele>
        <time>2014-06-30T16:12:12Z</time>
      </trkpt>
      <trkpt lat="40.868917" lon="-4.201617">
        <ele>1257.0</ele>
        <time>2014-06-30T16:12:13Z</time>
      </trkpt>
      <trkpt lat="40.868983" lon="-4.201467">
        <ele>1257.0</ele>
        <time>2014-06-30T16:12:14Z</time>
      </trkpt>
      <trkpt lat="40.869050" lon="-4.201333">
        <ele>1257.0</ele>
        <time>2014-06-30T16:12:15Z</time>
      </trkpt>
      <trkpt lat="40.869133" lon="-4.201200">
        <ele>1258.0</ele>
        <time>2014-06-30T16:12:16Z</time>
      </trkpt>
      <trkpt lat="40.869200" lon="-4.201067">
        <ele>1259.0</ele>
        <time>2014-06-30T16:12:17Z</time>
      </trkpt>
      <trkpt lat="40.869267" lon="-4.200933">
        <ele>1262.0</ele>
        <time>2014-06-30T16:12:18Z</time>
      </trkpt>
      <trkpt lat="40.869317" lon="-4.200817">
        <ele>1265.0</ele>
        <time>2014-06-30T16:12:19Z</time>
      </trkpt>
      <trkpt lat="40.869383" lon="-4.200717">
        <ele>1267.0</ele>
        <time>2014-06-30T16:12:20Z</time>
      </trkpt>
      <trkpt lat="40.869433" lon="-4.200617">
        <ele>1269.0</ele>
        <time>2014-06-30T16:12:21Z</time>
      </trkpt>
      <trkpt lat="40.869500" lon="-4.200550">
        <ele>1271.0</ele>
        <time>2014-06-30T16:12:22Z</time>
      </trkpt>
      <trkpt lat="40.869567" lon="-4.200500">
        <ele>1273.0</ele>
        <time>2014-06-30T16:12:23Z</time>
      </trkpt>
      <trkpt lat="40.869617" lon="-4.200517">
        <ele>1274.0</ele>
        <time>2014-06-30T16:12:24Z</time>
      </trkpt>
      <trkpt lat="40.869650" lon="-4.200550">
        <ele>1273.0</ele>
        <time>2014-06-30T16:12:25Z</time>
      </trkpt>
      <trkpt lat="40.869633" lon="-4.200617">
        <ele>1272.0</ele>
        <time>2014-06-30T16:12:26Z</time>
      </trkpt>
      <trkpt lat="40.869600" lon="-4.200667">
        <ele>1272.0</ele>
        <time>2014-06-30T16:12:27Z</time>
      </trkpt>
      <trkpt lat="40.869517" lon="-4.200683">
        <ele>1273.0</ele>
        <time>2014-06-30T16:12:28Z</time>
      </trkpt>
      <trkpt lat="40.869433" lon="-4.200667">
        <ele>1273.0</ele>
        <time>2014-06-30T16:12:29Z</time>
      </trkpt>
      <trkpt lat="40.869333" lon="-4.200633">
        <ele>1274.0</ele>
        <time>2014-06-30T16:12:30Z</time>
      </trkpt>
      <trkpt lat="40.869233" lon="-4.200567">
        <ele>1275.0</ele>
        <time>2014-06-30T16:12:31Z</time>
      </trkpt>
      <trkpt lat="40.869133" lon="-4.200467">
        <ele>1276.0</ele>
        <time>2014-06-30T16:12:32Z</time>
      </trkpt>
      <trkpt lat="40.869067" lon="-4.200350">
        <ele>1278.0</ele>
        <time>2014-06-30T16:12:33Z</time>
      </trkpt>
      <trkpt lat="40.869000" lon="-4.200200">
        <ele>1279.0</ele>
        <time>2014-06-30T16:12:34Z</time>
      </trkpt>
      <trkpt lat="40.868950" lon="-4.200033">
        <ele>1281.0</ele>
        <time>2014-06-30T16:12:35Z</time>
      </trkpt>
      <trkpt lat="40.868917" lon="-4.199850">
        <ele>1282.0</ele>
        <time>2014-06-30T16:12:36Z</time>
      </trkpt>
      <trkpt lat="40.868917" lon="-4.199650">
        <ele>1284.0</ele>
        <time>2014-06-30T16:12:37Z</time>
      </trkpt>
      <trkpt lat="40.868917" lon="-4.199467">
        <ele>1286.0</ele>
        <time>2014-06-30T16:12:38Z</time>
      </trkpt>
      <trkpt lat="40.868917" lon="-4.199300">
        <ele>1290.0</ele>
        <time>2014-06-30T16:12:39Z</time>
      </trkpt>
      <trkpt lat="40.868900" lon="-4.199133">
        <ele>1292.0</ele>
        <time>2014-06-30T16:12:40Z</time>
      </trkpt>
      <trkpt lat="40.868917" lon="-4.198983">
        <ele>1294.0</ele>
        <time>2014-06-30T16:12:41Z</time>
      </trkpt>
      <trkpt lat="40.868917" lon="-4.198833">
        <ele>1295.0</ele>
        <time>2014-06-30T16:12:42Z</time>
      </trkpt>
      <trkpt lat="40.868950" lon="-4.198683">
        <ele>1297.0</ele>
        <time>2014-06-30T16:12:43Z</time>
      </trkpt>
      <trkpt lat="40.869000" lon="-4.198533">
        <ele>1297.0</ele>
        <time>2014-06-30T16:12:44Z</time>
      </trkpt>
      <trkpt lat="40.869050" lon="-4.198383">
        <ele>1299.0</ele>
        <time>2014-06-30T16:12:45Z</time>
      </trkpt>
      <trkpt lat="40.869100" lon="-4.198267">
        <ele>1301.0</ele>
        <time>2014-06-30T16:12:46Z</time>
      </trkpt>
      <trkpt lat="40.869150" lon="-4.198183">
        <ele>1303.0</ele>
        <time>2014-06-30T16:12:47Z</time>
      </trkpt>
      <trkpt lat="40.869200" lon="-4.198133">
        <ele>1305.0</ele>
        <time>2014-06-30T16:12:48Z</time>
      </trkpt>
      <trkpt lat="40.869267" lon="-4.198100">
        <ele>1306.0</ele>
        <time>2014-06-30T16:12:49Z</time>
      </trkpt>
      <trkpt lat="40.869300" lon="-4.198083">
        <ele>1307.0</ele>
        <time>2014-06-30T16:12:50Z</time>
      </trkpt>
      <trkpt lat="40.869350" lon="-4.198083">
        <ele>1308.0</ele>
        <time>2014-06-30T16:12:51Z</time>
      </trkpt>
      <trkpt lat="40.869367" lon="-4.198083">
        <ele>1305.0</ele>
        <time>2014-06-30T16:12:52Z</time>
      </trkpt>
      <trkpt lat="40.869383" lon="-4.198083">
        <ele>1305.0</ele>
        <time>2014-06-30T16:12:53Z</time>
      </trkpt>
      <trkpt lat="40.869417" lon="-4.198100">
        <ele>1305.0</ele>
        <time>2014-06-30T16:12:54Z</time>
      </trkpt>
      <trkpt lat="40.869467" lon="-4.198100">
        <ele>1305.0</ele>
        <time>2014-06-30T16:12:55Z</time>
      </trkpt>
      <trkpt lat="40.869500" lon="-4.198067">
        <ele>1305.0</ele>
        <time>2014-06-30T16:12:56Z</time>
      </trkpt>
      <trkpt lat="40.869550" lon="-4.198017">
        <ele>1306.0</ele>
        <time>2014-06-30T16:12:57Z</time>
      </trkpt>
      <trkpt lat="40.869617" lon="-4.197950">
        <ele>1305.0</ele>
        <time>2014-06-30T16:12:58Z</time>
      </trkpt>
      <trkpt lat="40.869683" lon="-4.197867">
        <ele>1304.0</ele>
        <time>2014-06-30T16:12:59Z</time>
      </trkpt>
      <trkpt lat="40.869750" lon="-4.197783">
        <ele>1303.0</ele>
        <time>2014-06-30T16:13:00Z</time>
      </trkpt>
      <trkpt lat="40.869817" lon="-4.197683">
        <ele>1302.0</ele>
        <time>2014-06-30T16:13:01Z</time>
      </trkpt>
      <trkpt lat="40.869883" lon="-4.197583">
        <ele>1302.0</ele>
        <time>2014-06-30T16:13:02Z</time>
      </trkpt>
      <trkpt lat="40.869933" lon="-4.197483">
        <ele>1302.0</ele>
        <time>2014-06-30T16:13:03Z</time>
      </trkpt>
      <trkpt lat="40.869983" lon="-4.197367">
        <ele>1302.0</ele>
        <time>2014-06-30T16:13:04Z</time>
      </trkpt>
      <trkpt lat="40.870033" lon="-4.197267">
        <ele>1302.0</ele>
        <time>2014-06-30T16:13:05Z</time>
      </trkpt>
      <trkpt lat="40.870100" lon="-4.197167">
        <ele>1301.0</ele>
        <time>2014-06-30T16:13:06Z</time>
      </trkpt>
      <trkpt lat="40.870150" lon="-4.197067">
        <ele>1301.0</ele>
        <time>2014-06-30T16:13:07Z</time>
      </trkpt>
      <trkpt lat="40.870200" lon="-4.196967">
        <ele>1302.0</ele>
        <time>2014-06-30T16:13:08Z</time>
      </trkpt>
      <trkpt lat="40.870233" lon="-4.196867">
        <ele>1301.0</ele>
        <time>2014-06-30T16:13:09Z</time>
      </trkpt>
      <trkpt lat="40.870267" lon="-4.196783">
        <ele>1301.0</ele>
        <time>2014-06-30T16:13:10Z</time>
      </trkpt>
      <trkpt lat="40.870317" lon="-4.196683">
        <ele>1299.0</ele>
        <time>2014-06-30T16:13:11Z</time>
      </trkpt>
      <trkpt lat="40.870367" lon="-4.196600">
        <ele>1297.0</ele>
        <time>2014-06-30T16:13:12Z</time>
      </trkpt>
      <trkpt lat="40.870417" lon="-4.196517">
        <ele>1294.0</ele>
        <time>2014-06-30T16:13:13Z</time>
      </trkpt>
      <trkpt lat="40.870483" lon="-4.196417">
        <ele>1292.0</ele>
        <time>2014-06-30T16:13:14Z</time>
      </trkpt>
      <trkpt lat="40.870533" lon="-4.196317">
        <ele>1290.0</ele>
        <time>2014-06-30T16:13:15Z</time>
      </trkpt>
      <trkpt lat="40.870600" lon="-4.196233">
        <ele>1289.0</ele>
        <time>2014-06-30T16:13:16Z</time>
      </trkpt>
      <trkpt lat="40.870650" lon="-4.196133">
        <ele>1287.0</ele>
        <time>2014-06-30T16:13:17Z</time>
      </trkpt>
      <trkpt lat="40.870683" lon="-4.196033">
        <ele>1286.0</ele>
        <time>2014-06-30T16:13:18Z</time>
      </trkpt>
      <trkpt lat="40.870733" lon="-4.195933">
        <ele>1285.0</ele>
        <time>2014-06-30T16:13:19Z</time>
      </trkpt>
      <trkpt lat="40.870800" lon="-4.195817">
        <ele>1284.0</ele>
        <time>2014-06-30T16:13:20Z</time>
      </trkpt>
      <trkpt lat="40.870867" lon="-4.195717">
        <ele>1283.0</ele>
        <time>2014-06-30T16:13:21Z</time>
      </trkpt>
      <trkpt lat="40.870933" lon="-4.195600">
        <ele>1283.0</ele>
        <time>2014-06-30T16:13:22Z</time>
      </trkpt>
      <trkpt lat="40.871000" lon="-4.195500">
        <ele>1283.0</ele>
        <time>2014-06-30T16:13:23Z</time>
      </trkpt>
      <trkpt lat="40.871050" lon="-4.195417">
        <ele>1283.0</ele>
        <time>2014-06-30T16:13:24Z</time>
      </trkpt>
      <trkpt lat="40.871100" lon="-4.195333">
        <ele>1283.0</ele>
        <time>2014-06-30T16:13:25Z</time>
      </trkpt>
      <trkpt lat="40.871150" lon="-4.195250">
        <ele>1281.0</ele>
        <time>2014-06-30T16:13:26Z</time>
      </trkpt>
      <trkpt lat="40.871217" lon="-4.195167">
        <ele>1280.0</ele>
        <time>2014-06-30T16:13:27Z</time>
      </trkpt>
      <trkpt lat="40.871283" lon="-4.195067">
        <ele>1279.0</ele>
        <time>2014-06-30T16:13:28Z</time>
      </trkpt>
      <trkpt lat="40.871350" lon="-4.194983">
        <ele>1279.0</ele>
        <time>2014-06-30T16:13:29Z</time>
      </trkpt>
      <trkpt lat="40.871400" lon="-4.194900">
        <ele>1278.0</ele>
        <time>2014-06-30T16:13:30Z</time>
      </trkpt>
      <trkpt lat="40.871467" lon="-4.194800">
        <ele>1277.0</ele>
        <time>2014-06-30T16:13:31Z</time>
      </trkpt>
      <trkpt lat="40.871533" lon="-4.194717">
        <ele>1275.0</ele>
        <time>2014-06-30T16:13:32Z</time>
      </trkpt>
      <trkpt lat="40.871600" lon="-4.194633">
        <ele>1273.0</ele>
        <time>2014-06-30T16:13:33Z</time>
      </trkpt>
      <trkpt lat="40.871667" lon="-4.194550">
        <ele>1271.0</ele>
        <time>2014-06-30T16:13:34Z</time>
      </trkpt>
      <trkpt lat="40.871733" lon="-4.194467">
        <ele>1269.0</ele>
        <time>2014-06-30T16:13:35Z</time>
      </trkpt>
      <trkpt lat="40.871800" lon="-4.194383">
        <ele>1268.0</ele>
        <time>2014-06-30T16:13:36Z</time>
      </trkpt>
      <trkpt lat="40.871883" lon="-4.194267">
        <ele>1266.0</ele>
        <time>2014-06-30T16:13:37Z</time>
      </trkpt>
      <trkpt lat="40.871950" lon="-4.194183">
        <ele>1267.0</ele>
        <time>2014-06-30T16:13:38Z</time>
      </trkpt>
      <trkpt lat="40.872017" lon="-4.194100">
        <ele>1266.0</ele>
        <time>2014-06-30T16:13:39Z</time>
      </trkpt>
      <trkpt lat="40.872083" lon="-4.194017">
        <ele>1265.0</ele>
        <time>2014-06-30T16:13:40Z</time>
      </trkpt>
      <trkpt lat="40.872150" lon="-4.193900">
        <ele>1264.0</ele>
        <time>2014-06-30T16:13:41Z</time>
      </trkpt>
      <trkpt lat="40.872217" lon="-4.193783">
        <ele>1262.0</ele>
        <time>2014-06-30T16:13:42Z</time>
      </trkpt>
      <trkpt lat="40.872300" lon="-4.193650">
        <ele>1261.0</ele>
        <time>2014-06-30T16:13:43Z</time>
      </trkpt>
      <trkpt lat="40.872367" lon="-4.193533">
        <ele>1260.0</ele>
        <time>2014-06-30T16:13:44Z</time>
      </trkpt>
      <trkpt lat="40.872450" lon="-4.193433">
        <ele>1259.0</ele>
        <time>2014-06-30T16:13:45Z</time>
      </trkpt>
      <trkpt lat="40.872517" lon="-4.193333">
        <ele>1258.0</ele>
        <time>2014-06-30T16:13:46Z</time>
      </trkpt>
      <trkpt lat="40.872583" lon="-4.193233">
        <ele>1258.0</ele>
        <time>2014-06-30T16:13:47Z</time>
      </trkpt>
      <trkpt lat="40.872650" lon="-4.193117">
        <ele>1257.0</ele>
        <time>2014-06-30T16:13:48Z</time>
      </trkpt>
      <trkpt lat="40.872717" lon="-4.193000">
        <ele>1256.0</ele>
        <time>2014-06-30T16:13:49Z</time>
      </trkpt>
      <trkpt lat="40.872800" lon="-4.192900">
        <ele>1254.0</ele>
        <time>2014-06-30T16:13:50Z</time>
      </trkpt>
      <trkpt lat="40.872867" lon="-4.192783">
        <ele>1251.0</ele>
        <time>2014-06-30T16:13:51Z</time>
      </trkpt>
      <trkpt lat="40.872950" lon="-4.192683">
        <ele>1250.0</ele>
        <time>2014-06-30T16:13:52Z</time>
      </trkpt>
      <trkpt lat="40.873033" lon="-4.192583">
        <ele>1248.0</ele>
        <time>2014-06-30T16:13:53Z</time>
      </trkpt>
      <trkpt lat="40.873100" lon="-4.192500">
        <ele>1247.0</ele>
        <time>2014-06-30T16:13:54Z</time>
      </trkpt>
      <trkpt lat="40.873167" lon="-4.192400">
        <ele>1246.0</ele>
        <time>2014-06-30T16:13:55Z</time>
      </trkpt>
      <trkpt lat="40.873233" lon="-4.192300">
        <ele>1244.0</ele>
        <time>2014-06-30T16:13:56Z</time>
      </trkpt>
      <trkpt lat="40.873300" lon="-4.192200">
        <ele>1242.0</ele>
        <time>2014-06-30T16:13:57Z</time>
      </trkpt>
      <trkpt lat="40.873383" lon="-4.192100">
        <ele>1241.0</ele>
        <time>2014-06-30T16:13:58Z</time>
      </trkpt>
      <trkpt lat="40.873450" lon="-4.192017">
        <ele>1239.0</ele>
        <time>2014-06-30T16:13:59Z</time>
      </trkpt>
      <trkpt lat="40.873533" lon="-4.191917">
        <ele>1237.0</ele>
        <time>2014-06-30T16:14:00Z</time>
      </trkpt>
      <trkpt lat="40.873600" lon="-4.191850">
        <ele>1235.0</ele>
        <time>2014-06-30T16:14:01Z</time>
      </trkpt>
      <trkpt lat="40.873683" lon="-4.191767">
        <ele>1233.0</ele>
        <time>2014-06-30T16:14:02Z</time>
      </trkpt>
      <trkpt lat="40.873750" lon="-4.191683">
        <ele>1231.0</ele>
        <time>2014-06-30T16:14:03Z</time>
      </trkpt>
      <trkpt lat="40.873833" lon="-4.191600">
        <ele>1228.0</ele>
        <time>2014-06-30T16:14:04Z</time>
      </trkpt>
      <trkpt lat="40.873917" lon="-4.191517">
        <ele>1226.0</ele>
        <time>2014-06-30T16:14:05Z</time>
      </trkpt>
      <trkpt lat="40.874000" lon="-4.191450">
        <ele>1224.0</ele>
        <time>2014-06-30T16:14:06Z</time>
      </trkpt>
      <trkpt lat="40.874083" lon="-4.191367">
        <ele>1222.0</ele>
        <time>2014-06-30T16:14:07Z</time>
      </trkpt>
      <trkpt lat="40.874167" lon="-4.191283">
        <ele>1219.0</ele>
        <time>2014-06-30T16:14:08Z</time>
      </trkpt>
      <trkpt lat="40.874233" lon="-4.191200">
        <ele>1216.0</ele>
        <time>2014-06-30T16:14:09Z</time>
      </trkpt>
      <trkpt lat="40.874317" lon="-4.191117">
        <ele>1214.0</ele>
        <time>2014-06-30T16:14:10Z</time>
      </trkpt>
      <trkpt lat="40.874417" lon="-4.191033">
        <ele>1211.0</ele>
        <time>2014-06-30T16:14:11Z</time>
      </trkpt>
      <trkpt lat="40.874500" lon="-4.190950">
        <ele>1208.0</ele>
        <time>2014-06-30T16:14:12Z</time>
      </trkpt>
      <trkpt lat="40.874567" lon="-4.190867">
        <ele>1206.0</ele>
        <time>2014-06-30T16:14:13Z</time>
      </trkpt>
      <trkpt lat="40.874650" lon="-4.190783">
        <ele>1203.0</ele>
        <time>2014-06-30T16:14:14Z</time>
      </trkpt>
      <trkpt lat="40.874733" lon="-4.190717">
        <ele>1201.0</ele>
        <time>2014-06-30T16:14:15Z</time>
      </trkpt>
      <trkpt lat="40.874817" lon="-4.190633">
        <ele>1197.0</ele>
        <time>2014-06-30T16:14:16Z</time>
      </trkpt>
      <trkpt lat="40.874900" lon="-4.190550">
        <ele>1194.0</ele>
        <time>2014-06-30T16:14:17Z</time>
      </trkpt>
      <trkpt lat="40.875000" lon="-4.190467">
        <ele>1190.0</ele>
        <time>2014-06-30T16:14:18Z</time>
      </trkpt>
      <trkpt lat="40.875083" lon="-4.190367">
        <ele>1187.0</ele>
        <time>2014-06-30T16:14:19Z</time>
      </trkpt>
      <trkpt lat="40.875183" lon="-4.190283">
        <ele>1185.0</ele>
        <time>2014-06-30T16:14:20Z</time>
      </trkpt>
      <trkpt lat="40.875267" lon="-4.190200">
        <ele>1182.0</ele>
        <time>2014-06-30T16:14:21Z</time>
      </trkpt>
      <trkpt lat="40.875333" lon="-4.190100">
        <ele>1179.0</ele>
        <time>2014-06-30T16:14:22Z</time>
      </trkpt>
      <trkpt lat="40.875417" lon="-4.190000">
        <ele>1176.0</ele>
        <time>2014-06-30T16:14:23Z</time>
      </trkpt>
      <trkpt lat="40.875500" lon="-4.189900">
        <ele>1172.0</ele>
        <time>2014-06-30T16:14:24Z</time>
      </trkpt>
      <trkpt lat="40.875583" lon="-4.189800">
        <ele>1169.0</ele>
        <time>2014-06-30T16:14:25Z</time>
      </trkpt>
      <trkpt lat="40.875667" lon="-4.189717">
        <ele>1166.0</ele>
        <time>2014-06-30T16:14:26Z</time>
      </trkpt>
      <trkpt lat="40.875733" lon="-4.189633">
        <ele>1163.0</ele>
        <time>2014-06-30T16:14:27Z</time>
      </trkpt>
      <trkpt lat="40.875817" lon="-4.189550">
        <ele>1160.0</ele>
        <time>2014-06-30T16:14:28Z</time>
      </trkpt>
      <trkpt lat="40.875900" lon="-4.189450">
        <ele>1156.0</ele>
        <time>2014-06-30T16:14:29Z</time>
      </trkpt>
      <trkpt lat="40.875983" lon="-4.189367">
        <ele>1153.0</ele>
        <time>2014-06-30T16:14:30Z</time>
      </trkpt>
      <trkpt lat="40.876067" lon="-4.189283">
        <ele>1150.0</ele>
        <time>2014-06-30T16:14:31Z</time>
      </trkpt>
      <trkpt lat="40.876150" lon="-4.189200">
        <ele>1147.0</ele>
        <time>2014-06-30T16:14:32Z</time>
      </trkpt>
      <trkpt lat="40.876233" lon="-4.189117">
        <ele>1145.0</ele>
        <time>2014-06-30T16:14:33Z</time>
      </trkpt>
      <trkpt lat="40.876317" lon="-4.189050">
        <ele>1143.0</ele>
        <time>2014-06-30T16:14:34Z</time>
      </trkpt>
      <trkpt lat="40.876383" lon="-4.189000">
        <ele>1141.0</ele>
        <time>2014-06-30T16:14:35Z</time>
      </trkpt>
      <trkpt lat="40.876450" lon="-4.188950">
        <ele>1139.0</ele>
        <time>2014-06-30T16:14:36Z</time>
      </trkpt>
      <trkpt lat="40.876533" lon="-4.188917">
        <ele>1137.0</ele>
        <time>2014-06-30T16:14:37Z</time>
      </trkpt>
      <trkpt lat="40.876617" lon="-4.188867">
        <ele>1135.0</ele>
        <time>2014-06-30T16:14:38Z</time>
      </trkpt>
      <trkpt lat="40.876700" lon="-4.188833">
        <ele>1133.0</ele>
        <time>2014-06-30T16:14:39Z</time>
      </trkpt>
      <trkpt lat="40.876783" lon="-4.188800">
        <ele>1131.0</ele>
        <time>2014-06-30T16:14:40Z</time>
      </trkpt>
      <trkpt lat="40.876867" lon="-4.188767">
        <ele>1129.0</ele>
        <time>2014-06-30T16:14:41Z</time>
      </trkpt>
      <trkpt lat="40.876950" lon="-4.188733">
        <ele>1127.0</ele>
        <time>2014-06-30T16:14:42Z</time>
      </trkpt>
      <trkpt lat="40.877033" lon="-4.188683">
        <ele>1125.0</ele>
        <time>2014-06-30T16:14:43Z</time>
      </trkpt>
      <trkpt lat="40.877133" lon="-4.188633">
        <ele>1123.0</ele>
        <time>2014-06-30T16:14:44Z</time>
      </trkpt>
      <trkpt lat="40.877217" lon="-4.188567">
        <ele>1120.0</ele>
        <time>2014-06-30T16:14:45Z</time>
      </trkpt>
      <trkpt lat="40.877300" lon="-4.188500">
        <ele>1117.0</ele>
        <time>2014-06-30T16:14:46Z</time>
      </trkpt>
      <trkpt lat="40.877383" lon="-4.188433">
        <ele>1115.0</ele>
        <time>2014-06-30T16:14:47Z</time>
      </trkpt>
      <trkpt lat="40.877483" lon="-4.188367">
        <ele>1112.0</ele>
        <time>2014-06-30T16:14:48Z</time>
      </trkpt>
      <trkpt lat="40.877567" lon="-4.188300">
        <ele>1109.0</ele>
        <time>2014-06-30T16:14:49Z</time>
      </trkpt>
      <trkpt lat="40.877667" lon="-4.188217">
        <ele>1109.0</ele>
        <time>2014-06-30T16:14:50Z</time>
      </trkpt>
      <trkpt lat="40.877750" lon="-4.188150">
        <ele>1104.0</ele>
        <time>2014-06-30T16:14:51Z</time>
      </trkpt>
      <trkpt lat="40.877817" lon="-4.188083">
        <ele>1101.0</ele>
        <time>2014-06-30T16:14:52Z</time>
      </trkpt>
      <trkpt lat="40.877900" lon="-4.188033">
        <ele>1099.0</ele>
        <time>2014-06-30T16:14:53Z</time>
      </trkpt>
      <trkpt lat="40.877983" lon="-4.187983">
        <ele>1097.0</ele>
        <time>2014-06-30T16:14:54Z</time>
      </trkpt>
      <trkpt lat="40.878067" lon="-4.187917">
        <ele>1094.0</ele>
        <time>2014-06-30T16:14:55Z</time>
      </trkpt>
      <trkpt lat="40.878150" lon="-4.187833">
        <ele>1091.0</ele>
        <time>2014-06-30T16:14:56Z</time>
      </trkpt>
      <trkpt lat="40.878233" lon="-4.187783">
        <ele>1090.0</ele>
        <time>2014-06-30T16:14:57Z</time>
      </trkpt>
      <trkpt lat="40.878317" lon="-4.187750">
        <ele>1088.0</ele>
        <time>2014-06-30T16:14:58Z</time>
      </trkpt>
      <trkpt lat="40.878400" lon="-4.187717">
        <ele>1088.0</ele>
        <time>2014-06-30T16:14:59Z</time>
      </trkpt>
      <trkpt lat="40.878467" lon="-4.187700">
        <ele>1088.0</ele>
        <time>2014-06-30T16:15:00Z</time>
      </trkpt>
      <trkpt lat="40.878550" lon="-4.187650">
        <ele>1088.0</ele>
        <time>2014-06-30T16:15:01Z</time>
      </trkpt>
      <trkpt lat="40.878617" lon="-4.187600">
        <ele>1087.0</ele>
        <time>2014-06-30T16:15:02Z</time>
      </trkpt>
      <trkpt lat="40.878700" lon="-4.187550">
        <ele>1086.0</ele>
        <time>2014-06-30T16:15:03Z</time>
      </trkpt>
      <trkpt lat="40.878783" lon="-4.187517">
        <ele>1085.0</ele>
        <time>2014-06-30T16:15:04Z</time>
      </trkpt>
      <trkpt lat="40.878867" lon="-4.187467">
        <ele>1084.0</ele>
        <time>2014-06-30T16:15:05Z</time>
      </trkpt>
      <trkpt lat="40.878967" lon="-4.187417">
        <ele>1086.0</ele>
        <time>2014-06-30T16:15:06Z</time>
      </trkpt>
      <trkpt lat="40.879050" lon="-4.187383">
        <ele>1086.0</ele>
        <time>2014-06-30T16:15:07Z</time>
      </trkpt>
      <trkpt lat="40.879133" lon="-4.187367">
        <ele>1087.0</ele>
        <time>2014-06-30T16:15:08Z</time>
      </trkpt>
      <trkpt lat="40.879217" lon="-4.187367">
        <ele>1088.0</ele>
        <time>2014-06-30T16:15:09Z</time>
      </trkpt>
      <trkpt lat="40.879283" lon="-4.187367">
        <ele>1089.0</ele>
        <time>2014-06-30T16:15:10Z</time>
      </trkpt>
      <trkpt lat="40.879333" lon="-4.187367">
        <ele>1091.0</ele>
        <time>2014-06-30T16:15:11Z</time>
      </trkpt>
      <trkpt lat="40.879383" lon="-4.187350">
        <ele>1094.0</ele>
        <time>2014-06-30T16:15:12Z</time>
      </trkpt>
      <trkpt lat="40.879433" lon="-4.187350">
        <ele>1096.0</ele>
        <time>2014-06-30T16:15:13Z</time>
      </trkpt>
      <trkpt lat="40.879483" lon="-4.187350">
        <ele>1097.0</ele>
        <time>2014-06-30T16:15:14Z</time>
      </trkpt>
      <trkpt lat="40.879533" lon="-4.187350">
        <ele>1098.0</ele>
        <time>2014-06-30T16:15:15Z</time>
      </trkpt>
      <trkpt lat="40.879583" lon="-4.187367">
        <ele>1099.0</ele>
        <time>2014-06-30T16:15:16Z</time>
      </trkpt>
      <trkpt lat="40.879650" lon="-4.187383">
        <ele>1100.0</ele>
        <time>2014-06-30T16:15:17Z</time>
      </trkpt>
      <trkpt lat="40.879683" lon="-4.187400">
        <ele>1101.0</ele>
        <time>2014-06-30T16:15:18Z</time>
      </trkpt>
      <trkpt lat="40.879733" lon="-4.187417">
        <ele>1101.0</ele>
        <time>2014-06-30T16:15:19Z</time>
      </trkpt>
      <trkpt lat="40.879783" lon="-4.187417">
        <ele>1101.0</ele>
        <time>2014-06-30T16:15:20Z</time>
      </trkpt>
      <trkpt lat="40.879850" lon="-4.187417">
        <ele>1100.0</ele>
        <time>2014-06-30T16:15:21Z</time>
      </trkpt>
      <trkpt lat="40.879917" lon="-4.187417">
        <ele>1099.0</ele>
        <time>2014-06-30T16:15:22Z</time>
      </trkpt>
      <trkpt lat="40.879983" lon="-4.187400">
        <ele>1099.0</ele>
        <time>2014-06-30T16:15:23Z</time>
      </trkpt>
      <trkpt lat="40.880050" lon="-4.187400">
        <ele>1098.0</ele>
        <time>2014-06-30T16:15:24Z</time>
      </trkpt>
      <trkpt lat="40.880100" lon="-4.187417">
        <ele>1099.0</ele>
        <time>2014-06-30T16:15:25Z</time>
      </trkpt>
      <trkpt lat="40.880133" lon="-4.187417">
        <ele>1099.0</ele>
        <time>2014-06-30T16:15:26Z</time>
      </trkpt>
      <trkpt lat="40.880167" lon="-4.187433">
        <ele>1099.0</ele>
        <time>2014-06-30T16:15:27Z</time>
      </trkpt>
      <trkpt lat="40.880200" lon="-4.187450">
        <ele>1098.0</ele>
        <time>2014-06-30T16:15:28Z</time>
      </trkpt>
      <trkpt lat="40.880233" lon="-4.187483">
        <ele>1097.0</ele>
        <time>2014-06-30T16:15:29Z</time>
      </trkpt>
      <trkpt lat="40.880267" lon="-4.187517">
        <ele>1096.0</ele>
        <time>2014-06-30T16:15:30Z</time>
      </trkpt>
      <trkpt lat="40.880317" lon="-4.187550">
        <ele>1095.0</ele>
        <time>2014-06-30T16:15:31Z</time>
      </trkpt>
      <trkpt lat="40.880367" lon="-4.187567">
        <ele>1095.0</ele>
        <time>2014-06-30T16:15:32Z</time>
      </trkpt>
      <trkpt lat="40.880417" lon="-4.187567">
        <ele>1094.0</ele>
        <time>2014-06-30T16:15:33Z</time>
      </trkpt>
      <trkpt lat="40.880483" lon="-4.187550">
        <ele>1094.0</ele>
        <time>2014-06-30T16:15:34Z</time>
      </trkpt>
      <trkpt lat="40.880550" lon="-4.187533">
        <ele>1093.0</ele>
        <time>2014-06-30T16:15:35Z</time>
      </trkpt>
      <trkpt lat="40.880617" lon="-4.187517">
        <ele>1092.0</ele>
        <time>2014-06-30T16:15:36Z</time>
      </trkpt>
      <trkpt lat="40.880683" lon="-4.187483">
        <ele>1092.0</ele>
        <time>2014-06-30T16:15:37Z</time>
      </trkpt>
      <trkpt lat="40.880750" lon="-4.187467">
        <ele>1092.0</ele>
        <time>2014-06-30T16:15:38Z</time>
      </trkpt>
      <trkpt lat="40.880817" lon="-4.187450">
        <ele>1092.0</ele>
        <time>2014-06-30T16:15:39Z</time>
      </trkpt>
      <trkpt lat="40.880867" lon="-4.187433">
        <ele>1093.0</ele>
        <time>2014-06-30T16:15:40Z</time>
      </trkpt>
      <trkpt lat="40.880933" lon="-4.187400">
        <ele>1093.0</ele>
        <time>2014-06-30T16:15:41Z</time>
      </trkpt>
      <trkpt lat="40.881017" lon="-4.187367">
        <ele>1093.0</ele>
        <time>2014-06-30T16:15:42Z</time>
      </trkpt>
      <trkpt lat="40.881100" lon="-4.187317">
        <ele>1093.0</ele>
        <time>2014-06-30T16:15:43Z</time>
      </trkpt>
      <trkpt lat="40.881167" lon="-4.187250">
        <ele>1093.0</ele>
        <time>2014-06-30T16:15:44Z</time>
      </trkpt>
      <trkpt lat="40.881233" lon="-4.187167">
        <ele>1093.0</ele>
        <time>2014-06-30T16:15:45Z</time>
      </trkpt>
      <trkpt lat="40.881283" lon="-4.187067">
        <ele>1095.0</ele>
        <time>2014-06-30T16:15:46Z</time>
      </trkpt>
      <trkpt lat="40.881317" lon="-4.186967">
        <ele>1098.0</ele>
        <time>2014-06-30T16:15:47Z</time>
      </trkpt>
      <trkpt lat="40.881317" lon="-4.186850">
        <ele>1100.0</ele>
        <time>2014-06-30T16:15:48Z</time>
      </trkpt>
      <trkpt lat="40.881317" lon="-4.186717">
        <ele>1102.0</ele>
        <time>2014-06-30T16:15:49Z</time>
      </trkpt>
      <trkpt lat="40.881283" lon="-4.186583">
        <ele>1104.0</ele>
        <time>2014-06-30T16:15:50Z</time>
      </trkpt>
      <trkpt lat="40.881217" lon="-4.186433">
        <ele>1105.0</ele>
        <time>2014-06-30T16:15:51Z</time>
      </trkpt>
      <trkpt lat="40.881150" lon="-4.186317">
        <ele>1106.0</ele>
        <time>2014-06-30T16:15:52Z</time>
      </trkpt>
      <trkpt lat="40.881050" lon="-4.186200">
        <ele>1107.0</ele>
        <time>2014-06-30T16:15:53Z</time>
      </trkpt>
      <trkpt lat="40.880933" lon="-4.186133">
        <ele>1109.0</ele>
        <time>2014-06-30T16:15:54Z</time>
      </trkpt>
      <trkpt lat="40.880817" lon="-4.186067">
        <ele>1110.0</ele>
        <time>2014-06-30T16:15:55Z</time>
      </trkpt>
      <trkpt lat="40.880700" lon="-4.186050">
        <ele>1111.0</ele>
        <time>2014-06-30T16:15:56Z</time>
      </trkpt>
      <trkpt lat="40.880583" lon="-4.186067">
        <ele>1113.0</ele>
        <time>2014-06-30T16:15:57Z</time>
      </trkpt>
      <trkpt lat="40.880500" lon="-4.186133">
        <ele>1114.0</ele>
        <time>2014-06-30T16:15:58Z</time>
      </trkpt>
      <trkpt lat="40.880433" lon="-4.186200">
        <ele>1115.0</ele>
        <time>2014-06-30T16:15:59Z</time>
      </trkpt>
      <trkpt lat="40.880383" lon="-4.186283">
        <ele>1116.0</ele>
        <time>2014-06-30T16:16:00Z</time>
      </trkpt>
      <trkpt lat="40.880350" lon="-4.186367">
        <ele>1117.0</ele>
        <time>2014-06-30T16:16:01Z</time>
      </trkpt>
      <trkpt lat="40.880333" lon="-4.186450">
        <ele>1118.0</ele>
        <time>2014-06-30T16:16:02Z</time>
      </trkpt>
      <trkpt lat="40.880333" lon="-4.186517">
        <ele>1120.0</ele>
        <time>2014-06-30T16:16:03Z</time>
      </trkpt>
      <trkpt lat="40.880333" lon="-4.186567">
        <ele>1121.0</ele>
        <time>2014-06-30T16:16:04Z</time>
      </trkpt>
      <trkpt lat="40.880333" lon="-4.186633">
        <ele>1122.0</ele>
        <time>2014-06-30T16:16:05Z</time>
      </trkpt>
      <trkpt lat="40.880350" lon="-4.186683">
        <ele>1122.0</ele>
        <time>2014-06-30T16:16:06Z</time>
      </trkpt>
      <trkpt lat="40.880367" lon="-4.186750">
        <ele>1122.0</ele>
        <time>2014-06-30T16:16:07Z</time>
      </trkpt>
      <trkpt lat="40.880383" lon="-4.186783">
        <ele>1123.0</ele>
        <time>2014-06-30T16:16:08Z</time>
      </trkpt>
      <trkpt lat="40.880417" lon="-4.186833">
        <ele>1123.0</ele>
        <time>2014-06-30T16:16:09Z</time>
      </trkpt>
      <trkpt lat="40.880467" lon="-4.186850">
        <ele>1124.0</ele>
        <time>2014-06-30T16:16:10Z</time>
      </trkpt>
      <trkpt lat="40.880533" lon="-4.186850">
        <ele>1122.0</ele>
        <time>2014-06-30T16:16:11Z</time>
      </trkpt>
      <trkpt lat="40.880600" lon="-4.186850">
        <ele>1122.0</ele>
        <time>2014-06-30T16:16:12Z</time>
      </trkpt>
      <trkpt lat="40.880683" lon="-4.186833">
        <ele>1122.0</ele>
        <time>2014-06-30T16:16:13Z</time>
      </trkpt>
      <trkpt lat="40.880750" lon="-4.186817">
        <ele>1122.0</ele>
        <time>2014-06-30T16:16:14Z</time>
      </trkpt>
      <trkpt lat="40.880817" lon="-4.186800">
        <ele>1123.0</ele>
        <time>2014-06-30T16:16:15Z</time>
      </trkpt>
      <trkpt lat="40.880900" lon="-4.186783">
        <ele>1122.0</ele>
        <time>2014-06-30T16:16:16Z</time>
      </trkpt>
      <trkpt lat="40.880983" lon="-4.186767">
        <ele>1122.0</ele>
        <time>2014-06-30T16:16:17Z</time>
      </trkpt>
      <trkpt lat="40.881067" lon="-4.186750">
        <ele>1122.0</ele>
        <time>2014-06-30T16:16:18Z</time>
      </trkpt>
      <trkpt lat="40.881150" lon="-4.186733">
        <ele>1122.0</ele>
        <time>2014-06-30T16:16:19Z</time>
      </trkpt>
      <trkpt lat="40.881233" lon="-4.186733">
        <ele>1122.0</ele>
        <time>2014-06-30T16:16:20Z</time>
      </trkpt>
      <trkpt lat="40.881317" lon="-4.186717">
        <ele>1123.0</ele>
        <time>2014-06-30T16:16:21Z</time>
      </trkpt>
      <trkpt lat="40.881400" lon="-4.186717">
        <ele>1124.0</ele>
        <time>2014-06-30T16:16:22Z</time>
      </trkpt>
      <trkpt lat="40.881467" lon="-4.186700">
        <ele>1125.0</ele>
        <time>2014-06-30T16:16:23Z</time>
      </trkpt>
      <trkpt lat="40.881517" lon="-4.186667">
        <ele>1127.0</ele>
        <time>2014-06-30T16:16:24Z</time>
      </trkpt>
      <trkpt lat="40.881567" lon="-4.186617">
        <ele>1130.0</ele>
        <time>2014-06-30T16:16:25Z</time>
      </trkpt>
      <trkpt lat="40.881600" lon="-4.186583">
        <ele>1132.0</ele>
        <time>2014-06-30T16:16:26Z</time>
      </trkpt>
      <trkpt lat="40.881633" lon="-4.186533">
        <ele>1134.0</ele>
        <time>2014-06-30T16:16:27Z</time>
      </trkpt>
      <trkpt lat="40.881667" lon="-4.186483">
        <ele>1136.0</ele>
        <time>2014-06-30T16:16:28Z</time>
      </trkpt>
      <trkpt lat="40.881717" lon="-4.186450">
        <ele>1138.0</ele>
        <time>2014-06-30T16:16:29Z</time>
      </trkpt>
      <trkpt lat="40.881767" lon="-4.186383">
        <ele>1140.0</ele>
        <time>2014-06-30T16:16:30Z</time>
      </trkpt>
      <trkpt lat="40.881817" lon="-4.186317">
        <ele>1143.0</ele>
        <time>2014-06-30T16:16:31Z</time>
      </trkpt>
      <trkpt lat="40.881867" lon="-4.186233">
        <ele>1144.0</ele>
        <time>2014-06-30T16:16:32Z</time>
      </trkpt>
      <trkpt lat="40.881917" lon="-4.186167">
        <ele>1144.0</ele>
        <time>2014-06-30T16:16:33Z</time>
      </trkpt>
      <trkpt lat="40.881950" lon="-4.186083">
        <ele>1144.0</ele>
        <time>2014-06-30T16:16:34Z</time>
      </trkpt>
      <trkpt lat="40.882000" lon="-4.186000">
        <ele>1144.0</ele>
        <time>2014-06-30T16:16:35Z</time>
      </trkpt>
      <trkpt lat="40.882050" lon="-4.185917">
        <ele>1144.0</ele>
        <time>2014-06-30T16:16:36Z</time>
      </trkpt>
      <trkpt lat="40.882117" lon="-4.185850">
        <ele>1143.0</ele>
        <time>2014-06-30T16:16:37Z</time>
      </trkpt>
      <trkpt lat="40.882183" lon="-4.185783">
        <ele>1142.0</ele>
        <time>2014-06-30T16:16:38Z</time>
      </trkpt>
      <trkpt lat="40.882233" lon="-4.185717">
        <ele>1141.0</ele>
        <time>2014-06-30T16:16:39Z</time>
      </trkpt>
      <trkpt lat="40.882283" lon="-4.185650">
        <ele>1140.0</ele>
        <time>2014-06-30T16:16:40Z</time>
      </trkpt>
      <trkpt lat="40.882350" lon="-4.185567">
        <ele>1139.0</ele>
        <time>2014-06-30T16:16:41Z</time>
      </trkpt>
      <trkpt lat="40.882400" lon="-4.185467">
        <ele>1138.0</ele>
        <time>2014-06-30T16:16:42Z</time>
      </trkpt>
      <trkpt lat="40.882450" lon="-4.185367">
        <ele>1137.0</ele>
        <time>2014-06-30T16:16:43Z</time>
      </trkpt>
      <trkpt lat="40.882483" lon="-4.185267">
        <ele>1135.0</ele>
        <time>2014-06-30T16:16:44Z</time>
      </trkpt>
      <trkpt lat="40.882517" lon="-4.185167">
        <ele>1135.0</ele>
        <time>2014-06-30T16:16:45Z</time>
      </trkpt>
      <trkpt lat="40.882550" lon="-4.185067">
        <ele>1134.0</ele>
        <time>2014-06-30T16:16:46Z</time>
      </trkpt>
      <trkpt lat="40.882600" lon="-4.184983">
        <ele>1133.0</ele>
        <time>2014-06-30T16:16:47Z</time>
      </trkpt>
      <trkpt lat="40.882650" lon="-4.184900">
        <ele>1132.0</ele>
        <time>2014-06-30T16:16:48Z</time>
      </trkpt>
      <trkpt lat="40.882700" lon="-4.184817">
        <ele>1131.0</ele>
        <time>2014-06-30T16:16:49Z</time>
      </trkpt>
      <trkpt lat="40.882733" lon="-4.184767">
        <ele>1130.0</ele>
        <time>2014-06-30T16:16:50Z</time>
      </trkpt>
      <trkpt lat="40.882783" lon="-4.184700">
        <ele>1130.0</ele>
        <time>2014-06-30T16:16:51Z</time>
      </trkpt>
      <trkpt lat="40.882833" lon="-4.184617">
        <ele>1129.0</ele>
        <time>2014-06-30T16:16:52Z</time>
      </trkpt>
      <trkpt lat="40.882883" lon="-4.184550">
        <ele>1130.0</ele>
        <time>2014-06-30T16:16:53Z</time>
      </trkpt>
      <trkpt lat="40.882950" lon="-4.184467">
        <ele>1129.0</ele>
        <time>2014-06-30T16:16:54Z</time>
      </trkpt>
      <trkpt lat="40.883000" lon="-4.184383">
        <ele>1128.0</ele>
        <time>2014-06-30T16:16:55Z</time>
      </trkpt>
      <trkpt lat="40.883050" lon="-4.184300">
        <ele>1128.0</ele>
        <time>2014-06-30T16:16:56Z</time>
      </trkpt>
      <trkpt lat="40.883083" lon="-4.184233">
        <ele>1128.0</ele>
        <time>2014-06-30T16:16:57Z</time>
      </trkpt>
      <trkpt lat="40.883133" lon="-4.184150">
        <ele>1128.0</ele>
        <time>2014-06-30T16:16:58Z</time>
      </trkpt>
      <trkpt lat="40.883167" lon="-4.184083">
        <ele>1127.0</ele>
        <time>2014-06-30T16:16:59Z</time>
      </trkpt>
      <trkpt lat="40.883217" lon="-4.184017">
        <ele>1126.0</ele>
        <time>2014-06-30T16:17:00Z</time>
      </trkpt>
      <trkpt lat="40.883267" lon="-4.183967">
        <ele>1125.0</ele>
        <time>2014-06-30T16:17:01Z</time>
      </trkpt>
      <trkpt lat="40.883317" lon="-4.183933">
        <ele>1123.0</ele>
        <time>2014-06-30T16:17:02Z</time>
      </trkpt>
      <trkpt lat="40.883350" lon="-4.183900">
        <ele>1122.0</ele>
        <time>2014-06-30T16:17:03Z</time>
      </trkpt>
      <trkpt lat="40.883400" lon="-4.183867">
        <ele>1121.0</ele>
        <time>2014-06-30T16:17:04Z</time>
      </trkpt>
      <trkpt lat="40.883467" lon="-4.183817">
        <ele>1120.0</ele>
        <time>2014-06-30T16:17:05Z</time>
      </trkpt>
      <trkpt lat="40.883517" lon="-4.183783">
        <ele>1120.0</ele>
        <time>2014-06-30T16:17:06Z</time>
      </trkpt>
      <trkpt lat="40.883567" lon="-4.183733">
        <ele>1119.0</ele>
        <time>2014-06-30T16:17:07Z</time>
      </trkpt>
      <trkpt lat="40.883600" lon="-4.183700">
        <ele>1117.0</ele>
        <time>2014-06-30T16:17:08Z</time>
      </trkpt>
      <trkpt lat="40.883633" lon="-4.183633">
        <ele>1115.0</ele>
        <time>2014-06-30T16:17:09Z</time>
      </trkpt>
      <trkpt lat="40.883667" lon="-4.183567">
        <ele>1112.0</ele>
        <time>2014-06-30T16:17:10Z</time>
      </trkpt>
      <trkpt lat="40.883717" lon="-4.183517">
        <ele>1111.0</ele>
        <time>2014-06-30T16:17:11Z</time>
      </trkpt>
      <trkpt lat="40.883750" lon="-4.183467">
        <ele>1110.0</ele>
        <time>2014-06-30T16:17:12Z</time>
      </trkpt>
      <trkpt lat="40.883783" lon="-4.183450">
        <ele>1111.0</ele>
        <time>2014-06-30T16:17:13Z</time>
      </trkpt>
      <trkpt lat="40.883817" lon="-4.183417">
        <ele>1111.0</ele>
        <time>2014-06-30T16:17:14Z</time>
      </trkpt>
      <trkpt lat="40.883850" lon="-4.183400">
        <ele>1110.0</ele>
        <time>2014-06-30T16:17:15Z</time>
      </trkpt>
      <trkpt lat="40.883900" lon="-4.183367">
        <ele>1109.0</ele>
        <time>2014-06-30T16:17:16Z</time>
      </trkpt>
      <trkpt lat="40.883950" lon="-4.183333">
        <ele>1108.0</ele>
        <time>2014-06-30T16:17:17Z</time>
      </trkpt>
      <trkpt lat="40.884000" lon="-4.183300">
        <ele>1108.0</ele>
        <time>2014-06-30T16:17:18Z</time>
      </trkpt>
      <trkpt lat="40.884050" lon="-4.183250">
        <ele>1108.0</ele>
        <time>2014-06-30T16:17:19Z</time>
      </trkpt>
      <trkpt lat="40.884100" lon="-4.183200">
        <ele>1108.0</ele>
        <time>2014-06-30T16:17:20Z</time>
      </trkpt>
      <trkpt lat="40.884133" lon="-4.183150">
        <ele>1107.0</ele>
        <time>2014-06-30T16:17:21Z</time>
      </trkpt>
      <trkpt lat="40.884183" lon="-4.183100">
        <ele>1107.0</ele>
        <time>2014-06-30T16:17:22Z</time>
      </trkpt>
      <trkpt lat="40.884217" lon="-4.183050">
        <ele>1106.0</ele>
        <time>2014-06-30T16:17:23Z</time>
      </trkpt>
      <trkpt lat="40.884267" lon="-4.183000">
        <ele>1106.0</ele>
        <time>2014-06-30T16:17:24Z</time>
      </trkpt>
      <trkpt lat="40.884317" lon="-4.182967">
        <ele>1106.0</ele>
        <time>2014-06-30T16:17:25Z</time>
      </trkpt>
      <trkpt lat="40.884383" lon="-4.182933">
        <ele>1106.0</ele>
        <time>2014-06-30T16:17:26Z</time>
      </trkpt>
      <trkpt lat="40.884433" lon="-4.182900">
        <ele>1106.0</ele>
        <time>2014-06-30T16:17:27Z</time>
      </trkpt>
      <trkpt lat="40.884500" lon="-4.182883">
        <ele>1106.0</ele>
        <time>2014-06-30T16:17:28Z</time>
      </trkpt>
      <trkpt lat="40.884550" lon="-4.182850">
        <ele>1106.0</ele>
        <time>2014-06-30T16:17:29Z</time>
      </trkpt>
      <trkpt lat="40.884600" lon="-4.182817">
        <ele>1107.0</ele>
        <time>2014-06-30T16:17:30Z</time>
      </trkpt>
      <trkpt lat="40.884650" lon="-4.182767">
        <ele>1107.0</ele>
        <time>2014-06-30T16:17:31Z</time>
      </trkpt>
      <trkpt lat="40.884683" lon="-4.182700">
        <ele>1108.0</ele>
        <time>2014-06-30T16:17:32Z</time>
      </trkpt>
      <trkpt lat="40.884717" lon="-4.182617">
        <ele>1109.0</ele>
        <time>2014-06-30T16:17:33Z</time>
      </trkpt>
      <trkpt lat="40.884767" lon="-4.182550">
        <ele>1109.0</ele>
        <time>2014-06-30T16:17:34Z</time>
      </trkpt>
      <trkpt lat="40.884817" lon="-4.182483">
        <ele>1109.0</ele>
        <time>2014-06-30T16:17:35Z</time>
      </trkpt>
      <trkpt lat="40.884883" lon="-4.182417">
        <ele>1109.0</ele>
        <time>2014-06-30T16:17:36Z</time>
      </trkpt>
      <trkpt lat="40.884933" lon="-4.182350">
        <ele>1109.0</ele>
        <time>2014-06-30T16:17:37Z</time>
      </trkpt>
      <trkpt lat="40.884983" lon="-4.182283">
        <ele>1109.0</ele>
        <time>2014-06-30T16:17:38Z</time>
      </trkpt>
      <trkpt lat="40.885017" lon="-4.182233">
        <ele>1108.0</ele>
        <time>2014-06-30T16:17:39Z</time>
      </trkpt>
      <trkpt lat="40.885067" lon="-4.182183">
        <ele>1108.0</ele>
        <time>2014-06-30T16:17:40Z</time>
      </trkpt>
      <trkpt lat="40.885117" lon="-4.182133">
        <ele>1107.0</ele>
        <time>2014-06-30T16:17:41Z</time>
      </trkpt>
      <trkpt lat="40.885167" lon="-4.182100">
        <ele>1107.0</ele>
        <time>2014-06-30T16:17:42Z</time>
      </trkpt>
      <trkpt lat="40.885200" lon="-4.182050">
        <ele>1107.0</ele>
        <time>2014-06-30T16:17:43Z</time>
      </trkpt>
      <trkpt lat="40.885233" lon="-4.182000">
        <ele>1106.0</ele>
        <time>2014-06-30T16:17:44Z</time>
      </trkpt>
      <trkpt lat="40.885250" lon="-4.181933">
        <ele>1106.0</ele>
        <time>2014-06-30T16:17:45Z</time>
      </trkpt>
      <trkpt lat="40.885300" lon="-4.181867">
        <ele>1105.0</ele>
        <time>2014-06-30T16:17:46Z</time>
      </trkpt>
      <trkpt lat="40.885333" lon="-4.181783">
        <ele>1103.0</ele>
        <time>2014-06-30T16:17:47Z</time>
      </trkpt>
      <trkpt lat="40.885367" lon="-4.181733">
        <ele>1102.0</ele>
        <time>2014-06-30T16:17:48Z</time>
      </trkpt>
      <trkpt lat="40.885400" lon="-4.181683">
        <ele>1101.0</ele>
        <time>2014-06-30T16:17:49Z</time>
      </trkpt>
      <trkpt lat="40.885433" lon="-4.181650">
        <ele>1101.0</ele>
        <time>2014-06-30T16:17:50Z</time>
      </trkpt>
      <trkpt lat="40.885467" lon="-4.181617">
        <ele>1100.0</ele>
        <time>2014-06-30T16:17:51Z</time>
      </trkpt>
      <trkpt lat="40.885500" lon="-4.181583">
        <ele>1098.0</ele>
        <time>2014-06-30T16:17:52Z</time>
      </trkpt>
      <trkpt lat="40.885533" lon="-4.181533">
        <ele>1096.0</ele>
        <time>2014-06-30T16:17:53Z</time>
      </trkpt>
      <trkpt lat="40.885567" lon="-4.181467">
        <ele>1094.0</ele>
        <time>2014-06-30T16:17:54Z</time>
      </trkpt>
      <trkpt lat="40.885617" lon="-4.181417">
        <ele>1092.0</ele>
        <time>2014-06-30T16:17:55Z</time>
      </trkpt>
      <trkpt lat="40.885650" lon="-4.181383">
        <ele>1091.0</ele>
        <time>2014-06-30T16:17:56Z</time>
      </trkpt>
      <trkpt lat="40.885700" lon="-4.181333">
        <ele>1090.0</ele>
        <time>2014-06-30T16:17:57Z</time>
      </trkpt>
      <trkpt lat="40.885733" lon="-4.181300">
        <ele>1088.0</ele>
        <time>2014-06-30T16:17:58Z</time>
      </trkpt>
      <trkpt lat="40.885783" lon="-4.181267">
        <ele>1086.0</ele>
        <time>2014-06-30T16:17:59Z</time>
      </trkpt>
      <trkpt lat="40.885833" lon="-4.181217">
        <ele>1084.0</ele>
        <time>2014-06-30T16:18:00Z</time>
      </trkpt>
      <trkpt lat="40.885900" lon="-4.181183">
        <ele>1082.0</ele>
        <time>2014-06-30T16:18:01Z</time>
      </trkpt>
      <trkpt lat="40.885933" lon="-4.181150">
        <ele>1081.0</ele>
        <time>2014-06-30T16:18:02Z</time>
      </trkpt>
      <trkpt lat="40.885983" lon="-4.181100">
        <ele>1079.0</ele>
        <time>2014-06-30T16:18:03Z</time>
      </trkpt>
      <trkpt lat="40.886033" lon="-4.181083">
        <ele>1078.0</ele>
        <time>2014-06-30T16:18:04Z</time>
      </trkpt>
      <trkpt lat="40.886083" lon="-4.181083">
        <ele>1076.0</ele>
        <time>2014-06-30T16:18:05Z</time>
      </trkpt>
      <trkpt lat="40.886150" lon="-4.181067">
        <ele>1075.0</ele>
        <time>2014-06-30T16:18:06Z</time>
      </trkpt>
      <trkpt lat="40.886200" lon="-4.181033">
        <ele>1075.0</ele>
        <time>2014-06-30T16:18:07Z</time>
      </trkpt>
      <trkpt lat="40.886250" lon="-4.181000">
        <ele>1076.0</ele>
        <time>2014-06-30T16:18:08Z</time>
      </trkpt>
      <trkpt lat="40.886300" lon="-4.180933">
        <ele>1075.0</ele>
        <time>2014-06-30T16:18:09Z</time>
      </trkpt>
      <trkpt lat="40.886333" lon="-4.180867">
        <ele>1074.0</ele>
        <time>2014-06-30T16:18:10Z</time>
      </trkpt>
      <trkpt lat="40.886367" lon="-4.180800">
        <ele>1074.0</ele>
        <time>2014-06-30T16:18:11Z</time>
      </trkpt>
      <trkpt lat="40.886433" lon="-4.180750">
        <ele>1075.0</ele>
        <time>2014-06-30T16:18:12Z</time>
      </trkpt>
      <trkpt lat="40.886500" lon="-4.180700">
        <ele>1075.0</ele>
        <time>2014-06-30T16:18:13Z</time>
      </trkpt>
      <trkpt lat="40.886550" lon="-4.180633">
        <ele>1076.0</ele>
        <time>2014-06-30T16:18:14Z</time>
      </trkpt>
      <trkpt lat="40.886600" lon="-4.180583">
        <ele>1077.0</ele>
        <time>2014-06-30T16:18:15Z</time>
      </trkpt>
      <trkpt lat="40.886650" lon="-4.180550">
        <ele>1078.0</ele>
        <time>2014-06-30T16:18:16Z</time>
      </trkpt>
      <trkpt lat="40.886683" lon="-4.180517">
        <ele>1079.0</ele>
        <time>2014-06-30T16:18:17Z</time>
      </trkpt>
      <trkpt lat="40.886733" lon="-4.180483">
        <ele>1079.0</ele>
        <time>2014-06-30T16:18:18Z</time>
      </trkpt>
      <trkpt lat="40.886783" lon="-4.180450">
        <ele>1080.0</ele>
        <time>2014-06-30T16:18:19Z</time>
      </trkpt>
      <trkpt lat="40.886833" lon="-4.180383">
        <ele>1082.0</ele>
        <time>2014-06-30T16:18:20Z</time>
      </trkpt>
      <trkpt lat="40.886850" lon="-4.180317">
        <ele>1083.0</ele>
        <time>2014-06-30T16:18:21Z</time>
      </trkpt>
      <trkpt lat="40.886867" lon="-4.180267">
        <ele>1085.0</ele>
        <time>2014-06-30T16:18:22Z</time>
      </trkpt>
      <trkpt lat="40.886900" lon="-4.180217">
        <ele>1085.0</ele>
        <time>2014-06-30T16:18:23Z</time>
      </trkpt>
      <trkpt lat="40.886917" lon="-4.180183">
        <ele>1085.0</ele>
        <time>2014-06-30T16:18:24Z</time>
      </trkpt>
      <trkpt lat="40.886950" lon="-4.180167">
        <ele>1084.0</ele>
        <time>2014-06-30T16:18:25Z</time>
      </trkpt>
      <trkpt lat="40.886983" lon="-4.180150">
        <ele>1084.0</ele>
        <time>2014-06-30T16:18:26Z</time>
      </trkpt>
      <trkpt lat="40.887017" lon="-4.180150">
        <ele>1084.0</ele>
        <time>2014-06-30T16:18:27Z</time>
      </trkpt>
      <trkpt lat="40.887017" lon="-4.180133">
        <ele>1084.0</ele>
        <time>2014-06-30T16:18:28Z</time>
      </trkpt>
      <trkpt lat="40.887033" lon="-4.180117">
        <ele>1084.0</ele>
        <time>2014-06-30T16:18:29Z</time>
      </trkpt>
      <trkpt lat="40.887050" lon="-4.180100">
        <ele>1082.0</ele>
        <time>2014-06-30T16:18:30Z</time>
      </trkpt>
      <trkpt lat="40.887067" lon="-4.180100">
        <ele>1081.0</ele>
        <time>2014-06-30T16:18:31Z</time>
      </trkpt>
      <trkpt lat="40.887083" lon="-4.180083">
        <ele>1080.0</ele>
        <time>2014-06-30T16:18:32Z</time>
      </trkpt>
      <trkpt lat="40.887083" lon="-4.180067">
        <ele>1079.0</ele>
        <time>2014-06-30T16:18:33Z</time>
      </trkpt>
      <trkpt lat="40.887083" lon="-4.180067">
        <ele>1078.0</ele>
        <time>2014-06-30T16:18:34Z</time>
      </trkpt>
      <trkpt lat="40.887083" lon="-4.180067">
        <ele>1077.0</ele>
        <time>2014-06-30T16:18:35Z</time>
      </trkpt>
      <trkpt lat="40.887083" lon="-4.180083">
        <ele>1075.0</ele>
        <time>2014-06-30T16:18:36Z</time>
      </trkpt>
      <trkpt lat="40.887083" lon="-4.180100">
        <ele>1072.0</ele>
        <time>2014-06-30T16:18:37Z</time>
      </trkpt>
      <trkpt lat="40.887117" lon="-4.180100">
        <ele>1070.0</ele>
        <time>2014-06-30T16:18:38Z</time>
      </trkpt>
      <trkpt lat="40.887150" lon="-4.180083">
        <ele>1066.0</ele>
        <time>2014-06-30T16:18:39Z</time>
      </trkpt>
      <trkpt lat="40.887200" lon="-4.180050">
        <ele>1064.0</ele>
        <time>2014-06-30T16:18:40Z</time>
      </trkpt>
      <trkpt lat="40.887233" lon="-4.180017">
        <ele>1062.0</ele>
        <time>2014-06-30T16:18:41Z</time>
      </trkpt>
      <trkpt lat="40.887250" lon="-4.179983">
        <ele>1061.0</ele>
        <time>2014-06-30T16:18:42Z</time>
      </trkpt>
      <trkpt lat="40.887267" lon="-4.179967">
        <ele>1061.0</ele>
        <time>2014-06-30T16:18:43Z</time>
      </trkpt>
      <trkpt lat="40.887283" lon="-4.179967">
        <ele>1060.0</ele>
        <time>2014-06-30T16:18:44Z</time>
      </trkpt>
      <trkpt lat="40.887317" lon="-4.179967">
        <ele>1058.0</ele>
        <time>2014-06-30T16:18:45Z</time>
      </trkpt>
      <trkpt lat="40.887317" lon="-4.180000">
        <ele>1057.0</ele>
        <time>2014-06-30T16:18:46Z</time>
      </trkpt>
      <trkpt lat="40.887317" lon="-4.180033">
        <ele>1055.0</ele>
        <time>2014-06-30T16:18:47Z</time>
      </trkpt>
      <trkpt lat="40.887317" lon="-4.180083">
        <ele>1054.0</ele>
        <time>2014-06-30T16:18:48Z</time>
      </trkpt>
      <trkpt lat="40.887333" lon="-4.180117">
        <ele>1052.0</ele>
        <time>2014-06-30T16:18:49Z</time>
      </trkpt>
      <trkpt lat="40.887350" lon="-4.180133">
        <ele>1051.0</ele>
        <time>2014-06-30T16:18:50Z</time>
      </trkpt>
      <trkpt lat="40.887367" lon="-4.180150">
        <ele>1050.0</ele>
        <time>2014-06-30T16:18:51Z</time>
      </trkpt>
      <trkpt lat="40.887383" lon="-4.180150">
        <ele>1049.0</ele>
        <time>2014-06-30T16:18:52Z</time>
      </trkpt>
      <trkpt lat="40.887400" lon="-4.180183">
        <ele>1047.0</ele>
        <time>2014-06-30T16:18:53Z</time>
      </trkpt>
      <trkpt lat="40.887417" lon="-4.180200">
        <ele>1045.0</ele>
        <time>2014-06-30T16:18:54Z</time>
      </trkpt>
      <trkpt lat="40.887433" lon="-4.180233">
        <ele>1043.0</ele>
        <time>2014-06-30T16:18:55Z</time>
      </trkpt>
      <trkpt lat="40.887433" lon="-4.180267">
        <ele>1042.0</ele>
        <time>2014-06-30T16:18:56Z</time>
      </trkpt>
      <trkpt lat="40.887450" lon="-4.180300">
        <ele>1042.0</ele>
        <time>2014-06-30T16:18:57Z</time>
      </trkpt>
      <trkpt lat="40.887450" lon="-4.180333">
        <ele>1042.0</ele>
        <time>2014-06-30T16:18:58Z</time>
      </trkpt>
      <trkpt lat="40.887450" lon="-4.180367">
        <ele>1041.0</ele>
        <time>2014-06-30T16:18:59Z</time>
      </trkpt>
      <trkpt lat="40.887467" lon="-4.180383">
        <ele>1041.0</ele>
        <time>2014-06-30T16:19:00Z</time>
      </trkpt>
      <trkpt lat="40.887483" lon="-4.180400">
        <ele>1040.0</ele>
        <time>2014-06-30T16:19:01Z</time>
      </trkpt>
      <trkpt lat="40.887500" lon="-4.180417">
        <ele>1039.0</ele>
        <time>2014-06-30T16:19:02Z</time>
      </trkpt>
      <trkpt lat="40.887533" lon="-4.180433">
        <ele>1038.0</ele>
        <time>2014-06-30T16:19:03Z</time>
      </trkpt>
      <trkpt lat="40.887567" lon="-4.180450">
        <ele>1036.0</ele>
        <time>2014-06-30T16:19:04Z</time>
      </trkpt>
      <trkpt lat="40.887600" lon="-4.180467">
        <ele>1035.0</ele>
        <time>2014-06-30T16:19:05Z</time>
      </trkpt>
      <trkpt lat="40.887633" lon="-4.180483">
        <ele>1034.0</ele>
        <time>2014-06-30T16:19:06Z</time>
      </trkpt>
      <trkpt lat="40.887650" lon="-4.180500">
        <ele>1033.0</ele>
        <time>2014-06-30T16:19:07Z</time>
      </trkpt>
      <trkpt lat="40.887667" lon="-4.180517">
        <ele>1031.0</ele>
        <time>2014-06-30T16:19:08Z</time>
      </trkpt>
      <trkpt lat="40.887700" lon="-4.180550">
        <ele>1030.0</ele>
        <time>2014-06-30T16:19:09Z</time>
      </trkpt>
      <trkpt lat="40.887717" lon="-4.180600">
        <ele>1029.0</ele>
        <time>2014-06-30T16:19:10Z</time>
      </trkpt>
      <trkpt lat="40.887733" lon="-4.180633">
        <ele>1028.0</ele>
        <time>2014-06-30T16:19:11Z</time>
      </trkpt>
      <trkpt lat="40.887733" lon="-4.180700">
        <ele>1027.0</ele>
        <time>2014-06-30T16:19:12Z</time>
      </trkpt>
      <trkpt lat="40.887733" lon="-4.180733">
        <ele>1028.0</ele>
        <time>2014-06-30T16:19:13Z</time>
      </trkpt>
      <trkpt lat="40.887750" lon="-4.180750">
        <ele>1029.0</ele>
        <time>2014-06-30T16:19:14Z</time>
      </trkpt>
      <trkpt lat="40.887783" lon="-4.180767">
        <ele>1028.0</ele>
        <time>2014-06-30T16:19:15Z</time>
      </trkpt>
      <trkpt lat="40.887817" lon="-4.180733">
        <ele>1027.0</ele>
        <time>2014-06-30T16:19:16Z</time>
      </trkpt>
      <trkpt lat="40.887883" lon="-4.180667">
        <ele>1026.0</ele>
        <time>2014-06-30T16:19:17Z</time>
      </trkpt>
      <trkpt lat="40.887933" lon="-4.180583">
        <ele>1026.0</ele>
        <time>2014-06-30T16:19:18Z</time>
      </trkpt>
      <trkpt lat="40.887967" lon="-4.180467">
        <ele>1025.0</ele>
        <time>2014-06-30T16:19:19Z</time>
      </trkpt>
      <trkpt lat="40.887967" lon="-4.180317">
        <ele>1024.0</ele>
        <time>2014-06-30T16:19:20Z</time>
      </trkpt>
      <trkpt lat="40.887950" lon="-4.180183">
        <ele>1024.0</ele>
        <time>2014-06-30T16:19:21Z</time>
      </trkpt>
      <trkpt lat="40.887933" lon="-4.180033">
        <ele>1024.0</ele>
        <time>2014-06-30T16:19:22Z</time>
      </trkpt>
      <trkpt lat="40.887900" lon="-4.179883">
        <ele>1025.0</ele>
        <time>2014-06-30T16:19:23Z</time>
      </trkpt>
      <trkpt lat="40.887850" lon="-4.179733">
        <ele>1024.0</ele>
        <time>2014-06-30T16:19:24Z</time>
      </trkpt>
      <trkpt lat="40.887800" lon="-4.179583">
        <ele>1025.0</ele>
        <time>2014-06-30T16:19:25Z</time>
      </trkpt>
      <trkpt lat="40.887783" lon="-4.179450">
        <ele>1025.0</ele>
        <time>2014-06-30T16:19:26Z</time>
      </trkpt>
      <trkpt lat="40.887783" lon="-4.179317">
        <ele>1025.0</ele>
        <time>2014-06-30T16:19:27Z</time>
      </trkpt>
      <trkpt lat="40.887817" lon="-4.179217">
        <ele>1025.0</ele>
        <time>2014-06-30T16:19:28Z</time>
      </trkpt>
      <trkpt lat="40.887850" lon="-4.179167">
        <ele>1025.0</ele>
        <time>2014-06-30T16:19:29Z</time>
      </trkpt>
      <trkpt lat="40.887883" lon="-4.179133">
        <ele>1024.0</ele>
        <time>2014-06-30T16:19:30Z</time>
      </trkpt>
      <trkpt lat="40.887900" lon="-4.179167">
        <ele>1024.0</ele>
        <time>2014-06-30T16:19:31Z</time>
      </trkpt>
      <trkpt lat="40.887917" lon="-4.179217">
        <ele>1022.0</ele>
        <time>2014-06-30T16:19:32Z</time>
      </trkpt>
      <trkpt lat="40.887900" lon="-4.179283">
        <ele>1020.0</ele>
        <time>2014-06-30T16:19:33Z</time>
      </trkpt>
      <trkpt lat="40.887883" lon="-4.179350">
        <ele>1021.0</ele>
        <time>2014-06-30T16:19:34Z</time>
      </trkpt>
      <trkpt lat="40.887867" lon="-4.179417">
        <ele>1021.0</ele>
        <time>2014-06-30T16:19:35Z</time>
      </trkpt>
      <trkpt lat="40.887833" lon="-4.179467">
        <ele>1021.0</ele>
        <time>2014-06-30T16:19:36Z</time>
      </trkpt>
      <trkpt lat="40.887817" lon="-4.179533">
        <ele>1020.0</ele>
        <time>2014-06-30T16:19:37Z</time>
      </trkpt>
      <trkpt lat="40.887817" lon="-4.179583">
        <ele>1020.0</ele>
        <time>2014-06-30T16:19:38Z</time>
      </trkpt>
      <trkpt lat="40.887833" lon="-4.179617">
        <ele>1019.0</ele>
        <time>2014-06-30T16:19:39Z</time>
      </trkpt>
      <trkpt lat="40.887850" lon="-4.179633">
        <ele>1018.0</ele>
        <time>2014-06-30T16:19:40Z</time>
      </trkpt>
      <trkpt lat="40.887867" lon="-4.179617">
        <ele>1018.0</ele>
        <time>2014-06-30T16:19:41Z</time>
      </trkpt>
      <trkpt lat="40.887900" lon="-4.179600">
        <ele>1018.0</ele>
        <time>2014-06-30T16:19:42Z</time>
      </trkpt>
      <trkpt lat="40.887950" lon="-4.179567">
        <ele>1018.0</ele>
        <time>2014-06-30T16:19:43Z</time>
      </trkpt>
      <trkpt lat="40.888000" lon="-4.179517">
        <ele>1017.0</ele>
        <time>2014-06-30T16:19:44Z</time>
      </trkpt>
      <trkpt lat="40.888050" lon="-4.179450">
        <ele>1017.0</ele>
        <time>2014-06-30T16:19:45Z</time>
      </trkpt>
      <trkpt lat="40.888100" lon="-4.179383">
        <ele>1017.0</ele>
        <time>2014-06-30T16:19:46Z</time>
      </trkpt>
      <trkpt lat="40.888117" lon="-4.179300">
        <ele>1018.0</ele>
        <time>2014-06-30T16:19:47Z</time>
      </trkpt>
      <trkpt lat="40.888133" lon="-4.179217">
        <ele>1018.0</ele>
        <time>2014-06-30T16:19:48Z</time>
      </trkpt>
      <trkpt lat="40.888133" lon="-4.179133">
        <ele>1018.0</ele>
        <time>2014-06-30T16:19:49Z</time>
      </trkpt>
      <trkpt lat="40.888150" lon="-4.179083">
        <ele>1018.0</ele>
        <time>2014-06-30T16:19:50Z</time>
      </trkpt>
      <trkpt lat="40.888167" lon="-4.179067">
        <ele>1017.0</ele>
        <time>2014-06-30T16:19:51Z</time>
      </trkpt>
      <trkpt lat="40.888200" lon="-4.179083">
        <ele>1016.0</ele>
        <time>2014-06-30T16:19:52Z</time>
      </trkpt>
      <trkpt lat="40.888217" lon="-4.179117">
        <ele>1015.0</ele>
        <time>2014-06-30T16:19:53Z</time>
      </trkpt>
      <trkpt lat="40.888233" lon="-4.179167">
        <ele>1014.0</ele>
        <time>2014-06-30T16:19:54Z</time>
      </trkpt>
      <trkpt lat="40.888217" lon="-4.179217">
        <ele>1014.0</ele>
        <time>2014-06-30T16:19:55Z</time>
      </trkpt>
      <trkpt lat="40.888200" lon="-4.179250">
        <ele>1014.0</ele>
        <time>2014-06-30T16:19:56Z</time>
      </trkpt>
      <trkpt lat="40.888183" lon="-4.179300">
        <ele>1013.0</ele>
        <time>2014-06-30T16:19:57Z</time>
      </trkpt>
      <trkpt lat="40.888167" lon="-4.179350">
        <ele>1013.0</ele>
        <time>2014-06-30T16:19:58Z</time>
      </trkpt>
      <trkpt lat="40.888133" lon="-4.179417">
        <ele>1012.0</ele>
        <time>2014-06-30T16:19:59Z</time>
      </trkpt>
      <trkpt lat="40.888133" lon="-4.179483">
        <ele>1011.0</ele>
        <time>2014-06-30T16:20:00Z</time>
      </trkpt>
      <trkpt lat="40.888150" lon="-4.179533">
        <ele>1011.0</ele>
        <time>2014-06-30T16:20:01Z</time>
      </trkpt>
      <trkpt lat="40.888167" lon="-4.179533">
        <ele>1010.0</ele>
        <time>2014-06-30T16:20:02Z</time>
      </trkpt>
      <trkpt lat="40.888200" lon="-4.179517">
        <ele>1010.0</ele>
        <time>2014-06-30T16:20:03Z</time>
      </trkpt>
      <trkpt lat="40.888200" lon="-4.179433">
        <ele>1010.0</ele>
        <time>2014-06-30T16:20:04Z</time>
      </trkpt>
      <trkpt lat="40.888217" lon="-4.179333">
        <ele>1009.0</ele>
        <time>2014-06-30T16:20:05Z</time>
      </trkpt>
      <trkpt lat="40.888233" lon="-4.179233">
        <ele>1008.0</ele>
        <time>2014-06-30T16:20:06Z</time>
      </trkpt>
      <trkpt lat="40.888250" lon="-4.179133">
        <ele>1007.0</ele>
        <time>2014-06-30T16:20:07Z</time>
      </trkpt>
      <trkpt lat="40.888267" lon="-4.179033">
        <ele>1005.0</ele>
        <time>2014-06-30T16:20:08Z</time>
      </trkpt>
      <trkpt lat="40.888283" lon="-4.178950">
        <ele>1004.0</ele>
        <time>2014-06-30T16:20:09Z</time>
      </trkpt>
      <trkpt lat="40.888300" lon="-4.178900">
        <ele>1003.0</ele>
        <time>2014-06-30T16:20:10Z</time>
      </trkpt>
      <trkpt lat="40.888317" lon="-4.178883">
        <ele>1001.0</ele>
        <time>2014-06-30T16:20:11Z</time>
      </trkpt>
      <trkpt lat="40.888367" lon="-4.178867">
        <ele>1000.0</ele>
        <time>2014-06-30T16:20:12Z</time>
      </trkpt>
      <trkpt lat="40.888400" lon="-4.178867">
        <ele>997.0</ele>
        <time>2014-06-30T16:20:13Z</time>
      </trkpt>
      <trkpt lat="40.888433" lon="-4.178900">
        <ele>997.0</ele>
        <time>2014-06-30T16:20:14Z</time>
      </trkpt>
      <trkpt lat="40.888450" lon="-4.178967">
        <ele>995.0</ele>
        <time>2014-06-30T16:20:15Z</time>
      </trkpt>
      <trkpt lat="40.888433" lon="-4.179033">
        <ele>994.0</ele>
        <time>2014-06-30T16:20:16Z</time>
      </trkpt>
      <trkpt lat="40.888417" lon="-4.179100">
        <ele>993.0</ele>
        <time>2014-06-30T16:20:17Z</time>
      </trkpt>
      <trkpt lat="40.888383" lon="-4.179183">
        <ele>992.0</ele>
        <time>2014-06-30T16:20:18Z</time>
      </trkpt>
      <trkpt lat="40.888333" lon="-4.179250">
        <ele>990.0</ele>
        <time>2014-06-30T16:20:19Z</time>
      </trkpt>
      <trkpt lat="40.888317" lon="-4.179300">
        <ele>989.0</ele>
        <time>2014-06-30T16:20:20Z</time>
      </trkpt>
      <trkpt lat="40.888333" lon="-4.179333">
        <ele>986.0</ele>
        <time>2014-06-30T16:20:21Z</time>
      </trkpt>
      <trkpt lat="40.888367" lon="-4.179350">
        <ele>984.0</ele>
        <time>2014-06-30T16:20:22Z</time>
      </trkpt>
      <trkpt lat="40.888400" lon="-4.179317">
        <ele>981.0</ele>
        <time>2014-06-30T16:20:23Z</time>
      </trkpt>
      <trkpt lat="40.888433" lon="-4.179233">
        <ele>979.0</ele>
        <time>2014-06-30T16:20:24Z</time>
      </trkpt>
      <trkpt lat="40.888467" lon="-4.179133">
        <ele>976.0</ele>
        <time>2014-06-30T16:20:25Z</time>
      </trkpt>
      <trkpt lat="40.888483" lon="-4.179033">
        <ele>974.0</ele>
        <time>2014-06-30T16:20:26Z</time>
      </trkpt>
      <trkpt lat="40.888500" lon="-4.178933">
        <ele>977.0</ele>
        <time>2014-06-30T16:20:27Z</time>
      </trkpt>
      <trkpt lat="40.888500" lon="-4.178833">
        <ele>976.0</ele>
        <time>2014-06-30T16:20:28Z</time>
      </trkpt>
      <trkpt lat="40.888500" lon="-4.178750">
        <ele>977.0</ele>
        <time>2014-06-30T16:20:29Z</time>
      </trkpt>
      <trkpt lat="40.888500" lon="-4.178667">
        <ele>976.0</ele>
        <time>2014-06-30T16:20:30Z</time>
      </trkpt>
      <trkpt lat="40.888517" lon="-4.178583">
        <ele>976.0</ele>
        <time>2014-06-30T16:20:31Z</time>
      </trkpt>
      <trkpt lat="40.888550" lon="-4.178483">
        <ele>975.0</ele>
        <time>2014-06-30T16:20:32Z</time>
      </trkpt>
      <trkpt lat="40.888583" lon="-4.178400">
        <ele>974.0</ele>
        <time>2014-06-30T16:20:33Z</time>
      </trkpt>
      <trkpt lat="40.888600" lon="-4.178333">
        <ele>974.0</ele>
        <time>2014-06-30T16:20:34Z</time>
      </trkpt>
      <trkpt lat="40.888600" lon="-4.178283">
        <ele>973.0</ele>
        <time>2014-06-30T16:20:35Z</time>
      </trkpt>
      <trkpt lat="40.888617" lon="-4.178250">
        <ele>972.0</ele>
        <time>2014-06-30T16:20:36Z</time>
      </trkpt>
      <trkpt lat="40.888633" lon="-4.178250">
        <ele>970.0</ele>
        <time>2014-06-30T16:20:37Z</time>
      </trkpt>
      <trkpt lat="40.888667" lon="-4.178267">
        <ele>967.0</ele>
        <time>2014-06-30T16:20:38Z</time>
      </trkpt>
      <trkpt lat="40.888717" lon="-4.178283">
        <ele>965.0</ele>
        <time>2014-06-30T16:20:39Z</time>
      </trkpt>
      <trkpt lat="40.888750" lon="-4.178300">
        <ele>963.0</ele>
        <time>2014-06-30T16:20:40Z</time>
      </trkpt>
      <trkpt lat="40.888767" lon="-4.178300">
        <ele>962.0</ele>
        <time>2014-06-30T16:20:41Z</time>
      </trkpt>
      <trkpt lat="40.888800" lon="-4.178300">
        <ele>961.0</ele>
        <time>2014-06-30T16:20:42Z</time>
      </trkpt>
      <trkpt lat="40.888833" lon="-4.178283">
        <ele>960.0</ele>
        <time>2014-06-30T16:20:43Z</time>
      </trkpt>
      <trkpt lat="40.888867" lon="-4.178267">
        <ele>959.0</ele>
        <time>2014-06-30T16:20:44Z</time>
      </trkpt>
      <trkpt lat="40.888900" lon="-4.178267">
        <ele>957.0</ele>
        <time>2014-06-30T16:20:45Z</time>
      </trkpt>
      <trkpt lat="40.888933" lon="-4.178267">
        <ele>956.0</ele>
        <time>2014-06-30T16:20:46Z</time>
      </trkpt>
      <trkpt lat="40.888967" lon="-4.178267">
        <ele>954.0</ele>
        <time>2014-06-30T16:20:47Z</time>
      </trkpt>
      <trkpt lat="40.889000" lon="-4.178267">
        <ele>952.0</ele>
        <time>2014-06-30T16:20:48Z</time>
      </trkpt>
      <trkpt lat="40.889050" lon="-4.178267">
        <ele>950.0</ele>
        <time>2014-06-30T16:20:49Z</time>
      </trkpt>
      <trkpt lat="40.889067" lon="-4.178283">
        <ele>949.0</ele>
        <time>2014-06-30T16:20:50Z</time>
      </trkpt>
      <trkpt lat="40.889067" lon="-4.178300">
        <ele>947.0</ele>
        <time>2014-06-30T16:20:51Z</time>
      </trkpt>
      <trkpt lat="40.889067" lon="-4.178300">
        <ele>946.0</ele>
        <time>2014-06-30T16:20:52Z</time>
      </trkpt>
      <trkpt lat="40.889083" lon="-4.178300">
        <ele>945.0</ele>
        <time>2014-06-30T16:20:53Z</time>
      </trkpt>
      <trkpt lat="40.889083" lon="-4.178300">
        <ele>944.0</ele>
        <time>2014-06-30T16:20:54Z</time>
      </trkpt>
      <trkpt lat="40.889083" lon="-4.178283">
        <ele>945.0</ele>
        <time>2014-06-30T16:20:55Z</time>
      </trkpt>
      <trkpt lat="40.889083" lon="-4.178283">
        <ele>945.0</ele>
        <time>2014-06-30T16:20:56Z</time>
      </trkpt>
      <trkpt lat="40.889083" lon="-4.178283">
        <ele>945.0</ele>
        <time>2014-06-30T16:20:57Z</time>
      </trkpt>
      <trkpt lat="40.889083" lon="-4.178267">
        <ele>945.0</ele>
        <time>2014-06-30T16:20:58Z</time>
      </trkpt>
      <trkpt lat="40.889083" lon="-4.178267">
        <ele>945.0</ele>
        <time>2014-06-30T16:20:59Z</time>
      </trkpt>
      <trkpt lat="40.889067" lon="-4.178267">
        <ele>945.0</ele>
        <time>2014-06-30T16:21:00Z</time>
      </trkpt>
      <trkpt lat="40.889067" lon="-4.178267">
        <ele>945.0</ele>
        <time>2014-06-30T16:21:01Z</time>
      </trkpt>
      <trkpt lat="40.889067" lon="-4.178267">
        <ele>945.0</ele>
        <time>2014-06-30T16:21:02Z</time>
      </trkpt>
      <trkpt lat="40.889067" lon="-4.178267">
        <ele>946.0</ele>
        <time>2014-06-30T16:21:03Z</time>
      </trkpt>
      <trkpt lat="40.889067" lon="-4.178267">
        <ele>946.0</ele>
        <time>2014-06-30T16:21:04Z</time>
      </trkpt>
      <trkpt lat="40.889067" lon="-4.178267">
        <ele>946.0</ele>
        <time>2014-06-30T16:21:05Z</time>
      </trkpt>
      <trkpt lat="40.889067" lon="-4.178267">
        <ele>946.0</ele>
        <time>2014-06-30T16:21:06Z</time>
      </trkpt>
      <trkpt lat="40.889083" lon="-4.178267">
        <ele>946.0</ele>
        <time>2014-06-30T16:21:07Z</time>
      </trkpt>
      <trkpt lat="40.889083" lon="-4.178267">
        <ele>947.0</ele>
        <time>2014-06-30T16:21:08Z</time>
      </trkpt>
      <trkpt lat="40.889083" lon="-4.178267">
        <ele>947.0</ele>
        <time>2014-06-30T16:21:09Z</time>
      </trkpt>
      <trkpt lat="40.889083" lon="-4.178267">
        <ele>947.0</ele>
        <time>2014-06-30T16:21:10Z</time>
      </trkpt>
      <trkpt lat="40.889083" lon="-4.178267">
        <ele>947.0</ele>
        <time>2014-06-30T16:21:11Z</time>
      </trkpt>
      <trkpt lat="40.889083" lon="-4.178267">
        <ele>947.0</ele>
        <time>2014-06-30T16:21:12Z</time>
      </trkpt>
      <trkpt lat="40.889083" lon="-4.178267">
        <ele>947.0</ele>
        <time>2014-06-30T16:21:13Z</time>
      </trkpt>
      <trkpt lat="40.889083" lon="-4.178267">
        <ele>947.0</ele>
        <time>2014-06-30T16:21:14Z</time>
      </trkpt>
      <trkpt lat="40.889083" lon="-4.178267">
        <ele>948.0</ele>
        <time>2014-06-30T16:21:15Z</time>
      </trkpt>
      <trkpt lat="40.889083" lon="-4.178267">
        <ele>948.0</ele>
        <time>2014-06-30T16:21:16Z</time>
      </trkpt>
      <trkpt lat="40.889083" lon="-4.178267">
        <ele>948.0</ele>
        <time>2014-06-30T16:21:17Z</time>
      </trkpt>
      <trkpt lat="40.889083" lon="-4.178283">
        <ele>949.0</ele>
        <time>2014-06-30T16:21:18Z</time>
      </trkpt>
      <trkpt lat="40.889083" lon="-4.178283">
        <ele>949.0</ele>
        <time>2014-06-30T16:21:19Z</time>
      </trkpt>
      <trkpt lat="40.889083" lon="-4.178283">
        <ele>948.0</ele>
        <time>2014-06-30T16:21:20Z</time>
      </trkpt>
      <trkpt lat="40.889083" lon="-4.178283">
        <ele>948.0</ele>
        <time>2014-06-30T16:21:21Z</time>
      </trkpt>
      <trkpt lat="40.889083" lon="-4.178283">
        <ele>949.0</ele>
        <time>2014-06-30T16:21:22Z</time>
      </trkpt>
      <trkpt lat="40.889083" lon="-4.178283">
        <ele>949.0</ele>
        <time>2014-06-30T16:21:23Z</time>
      </trkpt>
      <trkpt lat="40.889083" lon="-4.178283">
        <ele>949.0</ele>
        <time>2014-06-30T16:21:24Z</time>
      </trkpt>
      <trkpt lat="40.889083" lon="-4.178283">
        <ele>948.0</ele>
        <time>2014-06-30T16:21:25Z</time>
      </trkpt>
      <trkpt lat="40.889083" lon="-4.178283">
        <ele>948.0</ele>
        <time>2014-06-30T16:21:26Z</time>
      </trkpt>
      <trkpt lat="40.889083" lon="-4.178283">
        <ele>948.0</ele>
        <time>2014-06-30T16:21:27Z</time>
      </trkpt>
      <trkpt lat="40.889083" lon="-4.178283">
        <ele>948.0</ele>
        <time>2014-06-30T16:21:28Z</time>
      </trkpt>
      <trkpt lat="40.889083" lon="-4.178283">
        <ele>948.0</ele>
        <time>2014-06-30T16:21:29Z</time>
      </trkpt>
      <trkpt lat="40.889083" lon="-4.178283">
        <ele>948.0</ele>
        <time>2014-06-30T16:21:30Z</time>
      </trkpt>
      <trkpt lat="40.889083" lon="-4.178283">
        <ele>949.0</ele>
        <time>2014-06-30T16:21:31Z</time>
      </trkpt>
      <trkpt lat="40.889083" lon="-4.178283">
        <ele>949.0</ele>
        <time>2014-06-30T16:21:32Z</time>
      </trkpt>
      <trkpt lat="40.889083" lon="-4.178267">
        <ele>949.0</ele>
        <time>2014-06-30T16:21:33Z</time>
      </trkpt>
      <trkpt lat="40.889083" lon="-4.178267">
        <ele>949.0</ele>
        <time>2014-06-30T16:21:34Z</time>
      </trkpt>
      <trkpt lat="40.889083" lon="-4.178267">
        <ele>949.0</ele>
        <time>2014-06-30T16:21:35Z</time>
      </trkpt>
      <trkpt lat="40.889083" lon="-4.178267">
        <ele>949.0</ele>
        <time>2014-06-30T16:21:36Z</time>
      </trkpt>
      <trkpt lat="40.889083" lon="-4.178267">
        <ele>949.0</ele>
        <time>2014-06-30T16:21:37Z</time>
      </trkpt>
      <trkpt lat="40.889083" lon="-4.178267">
        <ele>950.0</ele>
        <time>2014-06-30T16:21:38Z</time>
      </trkpt>
      <trkpt lat="40.889083" lon="-4.178267">
        <ele>950.0</ele>
        <time>2014-06-30T16:21:39Z</time>
      </trkpt>
      <trkpt lat="40.889083" lon="-4.178283">
        <ele>950.0</ele>
        <time>2014-06-30T16:21:40Z</time>
      </trkpt>
      <trkpt lat="40.889083" lon="-4.178283">
        <ele>950.0</ele>
        <time>2014-06-30T16:21:41Z</time>
      </trkpt>
      <trkpt lat="40.889083" lon="-4.178283">
        <ele>950.0</ele>
        <time>2014-06-30T16:21:42Z</time>
      </trkpt>
      <trkpt lat="40.889083" lon="-4.178283">
        <ele>950.0</ele>
        <time>2014-06-30T16:21:43Z</time>
      </trkpt>
      <trkpt lat="40.889067" lon="-4.178283">
        <ele>950.0</ele>
        <time>2014-06-30T16:21:44Z</time>
      </trkpt>
      <trkpt lat="40.889067" lon="-4.178267">
        <ele>950.0</ele>
        <time>2014-06-30T16:21:45Z</time>
      </trkpt>
      <trkpt lat="40.889067" lon="-4.178267">
        <ele>950.0</ele>
        <time>2014-06-30T16:21:46Z</time>
      </trkpt>
      <trkpt lat="40.889067" lon="-4.178267">
        <ele>950.0</ele>
        <time>2014-06-30T16:21:47Z</time>
      </trkpt>
      <trkpt lat="40.889067" lon="-4.178267">
        <ele>950.0</ele>
        <time>2014-06-30T16:21:48Z</time>
      </trkpt>
      <trkpt lat="40.889067" lon="-4.178267">
        <ele>950.0</ele>
        <time>2014-06-30T16:21:49Z</time>
      </trkpt>
      <trkpt lat="40.889067" lon="-4.178267">
        <ele>950.0</ele>
        <time>2014-06-30T16:21:50Z</time>
      </trkpt>
      <trkpt lat="40.889067" lon="-4.178267">
        <ele>949.0</ele>
        <time>2014-06-30T16:21:51Z</time>
      </trkpt>
      <trkpt lat="40.889067" lon="-4.178267">
        <ele>949.0</ele>
        <time>2014-06-30T16:21:52Z</time>
      </trkpt>
      <trkpt lat="40.889067" lon="-4.178267">
        <ele>949.0</ele>
        <time>2014-06-30T16:21:53Z</time>
      </trkpt>
      <trkpt lat="40.889067" lon="-4.178267">
        <ele>949.0</ele>
        <time>2014-06-30T16:21:54Z</time>
      </trkpt>
      <trkpt lat="40.889067" lon="-4.178267">
        <ele>949.0</ele>
        <time>2014-06-30T16:21:55Z</time>
      </trkpt>
      <trkpt lat="40.889067" lon="-4.178267">
        <ele>949.0</ele>
        <time>2014-06-30T16:21:56Z</time>
      </trkpt>
      <trkpt lat="40.889067" lon="-4.178250">
        <ele>949.0</ele>
        <time>2014-06-30T16:21:57Z</time>
      </trkpt>
      <trkpt lat="40.889083" lon="-4.178267">
        <ele>949.0</ele>
        <time>2014-06-30T16:21:58Z</time>
      </trkpt>
      <trkpt lat="40.889067" lon="-4.178267">
        <ele>948.0</ele>
        <time>2014-06-30T16:21:59Z</time>
      </trkpt>
      <trkpt lat="40.889083" lon="-4.178267">
        <ele>947.0</ele>
        <time>2014-06-30T16:22:00Z</time>
      </trkpt>
      <trkpt lat="40.889083" lon="-4.178267">
        <ele>947.0</ele>
        <time>2014-06-30T16:22:01Z</time>
      </trkpt>
      <trkpt lat="40.889083" lon="-4.178267">
        <ele>946.0</ele>
        <time>2014-06-30T16:22:02Z</time>
      </trkpt>
      <trkpt lat="40.889083" lon="-4.178267">
        <ele>946.0</ele>
        <time>2014-06-30T16:22:03Z</time>
      </trkpt>
      <trkpt lat="40.889083" lon="-4.178267">
        <ele>946.0</ele>
        <time>2014-06-30T16:22:04Z</time>
      </trkpt>
      <trkpt lat="40.889083" lon="-4.178267">
        <ele>945.0</ele>
        <time>2014-06-30T16:22:05Z</time>
      </trkpt>
      <trkpt lat="40.889083" lon="-4.178267">
        <ele>945.0</ele>
        <time>2014-06-30T16:22:06Z</time>
      </trkpt>
      <trkpt lat="40.889083" lon="-4.178267">
        <ele>944.0</ele>
        <time>2014-06-30T16:22:07Z</time>
      </trkpt>
      <trkpt lat="40.889083" lon="-4.178267">
        <ele>944.0</ele>
        <time>2014-06-30T16:22:08Z</time>
      </trkpt>
      <trkpt lat="40.889083" lon="-4.178267">
        <ele>943.0</ele>
        <time>2014-06-30T16:22:09Z</time>
      </trkpt>
      <trkpt lat="40.889083" lon="-4.178267">
        <ele>943.0</ele>
        <time>2014-06-30T16:22:10Z</time>
      </trkpt>
      <trkpt lat="40.889083" lon="-4.178267">
        <ele>943.0</ele>
        <time>2014-06-30T16:22:11Z</time>
      </trkpt>
      <trkpt lat="40.889083" lon="-4.178267">
        <ele>943.0</ele>
        <time>2014-06-30T16:22:12Z</time>
      </trkpt>
      <trkpt lat="40.889083" lon="-4.178267">
        <ele>943.0</ele>
        <time>2014-06-30T16:22:13Z</time>
      </trkpt>
      <trkpt lat="40.889083" lon="-4.178267">
        <ele>942.0</ele>
        <time>2014-06-30T16:22:14Z</time>
      </trkpt>
      <trkpt lat="40.889083" lon="-4.178267">
        <ele>942.0</ele>
        <time>2014-06-30T16:22:15Z</time>
      </trkpt>
      <trkpt lat="40.889083" lon="-4.178267">
        <ele>942.0</ele>
        <time>2014-06-30T16:22:16Z</time>
      </trkpt>
      <trkpt lat="40.889083" lon="-4.178267">
        <ele>942.0</ele>
        <time>2014-06-30T16:22:17Z</time>
      </trkpt>
      <trkpt lat="40.889083" lon="-4.178267">
        <ele>943.0</ele>
        <time>2014-06-30T16:22:18Z</time>
      </trkpt>
      <trkpt lat="40.889083" lon="-4.178267">
        <ele>943.0</ele>
        <time>2014-06-30T16:22:19Z</time>
      </trkpt>
      <trkpt lat="40.889083" lon="-4.178267">
        <ele>943.0</ele>
        <time>2014-06-30T16:22:20Z</time>
      </trkpt>
      <trkpt lat="40.889083" lon="-4.178267">
        <ele>944.0</ele>
        <time>2014-06-30T16:22:21Z</time>
      </trkpt>
      <trkpt lat="40.889083" lon="-4.178267">
        <ele>944.0</ele>
        <time>2014-06-30T16:22:22Z</time>
      </trkpt>
      <trkpt lat="40.889083" lon="-4.178267">
        <ele>943.0</ele>
        <time>2014-06-30T16:22:23Z</time>
      </trkpt>
      <trkpt lat="40.889083" lon="-4.178267">
        <ele>943.0</ele>
        <time>2014-06-30T16:22:24Z</time>
      </trkpt>
      <trkpt lat="40.889083" lon="-4.178267">
        <ele>943.0</ele>
        <time>2014-06-30T16:22:25Z</time>
      </trkpt>
      <trkpt lat="40.889083" lon="-4.178267">
        <ele>943.0</ele>
        <time>2014-06-30T16:22:26Z</time>
      </trkpt>
      <trkpt lat="40.889083" lon="-4.178267">
        <ele>944.0</ele>
        <time>2014-06-30T16:22:27Z</time>
      </trkpt>
      <trkpt lat="40.889083" lon="-4.178267">
        <ele>944.0</ele>
        <time>2014-06-30T16:22:28Z</time>
      </trkpt>
      <trkpt lat="40.889083" lon="-4.178267">
        <ele>944.0</ele>
        <time>2014-06-30T16:22:29Z</time>
      </trkpt>
      <trkpt lat="40.889083" lon="-4.178267">
        <ele>945.0</ele>
        <time>2014-06-30T16:22:30Z</time>
      </trkpt>
      <trkpt lat="40.889083" lon="-4.178283">
        <ele>945.0</ele>
        <time>2014-06-30T16:22:31Z</time>
      </trkpt>
      <trkpt lat="40.889083" lon="-4.178283">
        <ele>946.0</ele>
        <time>2014-06-30T16:22:32Z</time>
      </trkpt>
      <trkpt lat="40.889083" lon="-4.178267">
        <ele>946.0</ele>
        <time>2014-06-30T16:22:33Z</time>
      </trkpt>
      <trkpt lat="40.889067" lon="-4.178267">
        <ele>946.0</ele>
        <time>2014-06-30T16:22:34Z</time>
      </trkpt>
      <trkpt lat="40.889067" lon="-4.178250">
        <ele>947.0</ele>
        <time>2014-06-30T16:22:35Z</time>
      </trkpt>
      <trkpt lat="40.889067" lon="-4.178250">
        <ele>947.0</ele>
        <time>2014-06-30T16:22:36Z</time>
      </trkpt>
      <trkpt lat="40.889067" lon="-4.178250">
        <ele>947.0</ele>
        <time>2014-06-30T16:22:37Z</time>
      </trkpt>
      <trkpt lat="40.889067" lon="-4.178233">
        <ele>947.0</ele>
        <time>2014-06-30T16:22:38Z</time>
      </trkpt>
      <trkpt lat="40.889067" lon="-4.178233">
        <ele>948.0</ele>
        <time>2014-06-30T16:22:39Z</time>
      </trkpt>
      <trkpt lat="40.889067" lon="-4.178233">
        <ele>948.0</ele>
        <time>2014-06-30T16:22:40Z</time>
      </trkpt>
      <trkpt lat="40.889067" lon="-4.178233">
        <ele>948.0</ele>
        <time>2014-06-30T16:22:41Z</time>
      </trkpt>
      <trkpt lat="40.889050" lon="-4.178233">
        <ele>948.0</ele>
        <time>2014-06-30T16:22:42Z</time>
      </trkpt>
      <trkpt lat="40.889050" lon="-4.178233">
        <ele>948.0</ele>
        <time>2014-06-30T16:22:43Z</time>
      </trkpt>
      <trkpt lat="40.889050" lon="-4.178233">
        <ele>948.0</ele>
        <time>2014-06-30T16:22:44Z</time>
      </trkpt>
      <trkpt lat="40.889050" lon="-4.178233">
        <ele>948.0</ele>
        <time>2014-06-30T16:22:45Z</time>
      </trkpt>
      <trkpt lat="40.889050" lon="-4.178233">
        <ele>948.0</ele>
        <time>2014-06-30T16:22:46Z</time>
      </trkpt>
      <trkpt lat="40.889050" lon="-4.178233">
        <ele>948.0</ele>
        <time>2014-06-30T16:22:47Z</time>
      </trkpt>
      <trkpt lat="40.889050" lon="-4.178233">
        <ele>948.0</ele>
        <time>2014-06-30T16:22:48Z</time>
      </trkpt>
      <trkpt lat="40.889050" lon="-4.178233">
        <ele>948.0</ele>
        <time>2014-06-30T16:22:49Z</time>
      </trkpt>
      <trkpt lat="40.889050" lon="-4.178233">
        <ele>947.0</ele>
        <time>2014-06-30T16:22:50Z</time>
      </trkpt>
      <trkpt lat="40.889050" lon="-4.178233">
        <ele>948.0</ele>
        <time>2014-06-30T16:22:51Z</time>
      </trkpt>
      <trkpt lat="40.889050" lon="-4.178233">
        <ele>948.0</ele>
        <time>2014-06-30T16:22:52Z</time>
      </trkpt>
      <trkpt lat="40.889050" lon="-4.178233">
        <ele>948.0</ele>
        <time>2014-06-30T16:22:53Z</time>
      </trkpt>
      <trkpt lat="40.889050" lon="-4.178233">
        <ele>948.0</ele>
        <time>2014-06-30T16:22:54Z</time>
      </trkpt>
      <trkpt lat="40.889050" lon="-4.178233">
        <ele>948.0</ele>
        <time>2014-06-30T16:22:55Z</time>
      </trkpt>
      <trkpt lat="40.889050" lon="-4.178233">
        <ele>948.0</ele>
        <time>2014-06-30T16:22:56Z</time>
      </trkpt>
      <trkpt lat="40.889050" lon="-4.178250">
        <ele>947.0</ele>
        <time>2014-06-30T16:22:57Z</time>
      </trkpt>
      <trkpt lat="40.889067" lon="-4.178250">
        <ele>947.0</ele>
        <time>2014-06-30T16:22:58Z</time>
      </trkpt>
      <trkpt lat="40.889067" lon="-4.178267">
        <ele>946.0</ele>
        <time>2014-06-30T16:22:59Z</time>
      </trkpt>
      <trkpt lat="40.889083" lon="-4.178267">
        <ele>946.0</ele>
        <time>2014-06-30T16:23:00Z</time>
      </trkpt>
      <trkpt lat="40.889083" lon="-4.178267">
        <ele>946.0</ele>
        <time>2014-06-30T16:23:01Z</time>
      </trkpt>
      <trkpt lat="40.889083" lon="-4.178283">
        <ele>945.0</ele>
        <time>2014-06-30T16:23:02Z</time>
      </trkpt>
      <trkpt lat="40.889083" lon="-4.178283">
        <ele>945.0</ele>
        <time>2014-06-30T16:23:03Z</time>
      </trkpt>
      <trkpt lat="40.889100" lon="-4.178300">
        <ele>944.0</ele>
        <time>2014-06-30T16:23:04Z</time>
      </trkpt>
      <trkpt lat="40.889117" lon="-4.178300">
        <ele>943.0</ele>
        <time>2014-06-30T16:23:05Z</time>
      </trkpt>
      <trkpt lat="40.889117" lon="-4.178317">
        <ele>943.0</ele>
        <time>2014-06-30T16:23:06Z</time>
      </trkpt>
      <trkpt lat="40.889133" lon="-4.178317">
        <ele>943.0</ele>
        <time>2014-06-30T16:23:07Z</time>
      </trkpt>
      <trkpt lat="40.889133" lon="-4.178333">
        <ele>943.0</ele>
        <time>2014-06-30T16:23:08Z</time>
      </trkpt>
      <trkpt lat="40.889150" lon="-4.178350">
        <ele>943.0</ele>
        <time>2014-06-30T16:23:09Z</time>
      </trkpt>
      <trkpt lat="40.889150" lon="-4.178350">
        <ele>943.0</ele>
        <time>2014-06-30T16:23:10Z</time>
      </trkpt>
      <trkpt lat="40.889167" lon="-4.178367">
        <ele>942.0</ele>
        <time>2014-06-30T16:23:11Z</time>
      </trkpt>
      <trkpt lat="40.889167" lon="-4.178367">
        <ele>942.0</ele>
        <time>2014-06-30T16:23:12Z</time>
      </trkpt>
      <trkpt lat="40.889183" lon="-4.178383">
        <ele>942.0</ele>
        <time>2014-06-30T16:23:13Z</time>
      </trkpt>
      <trkpt lat="40.889183" lon="-4.178383">
        <ele>942.0</ele>
        <time>2014-06-30T16:23:14Z</time>
      </trkpt>
      <trkpt lat="40.889183" lon="-4.178400">
        <ele>942.0</ele>
        <time>2014-06-30T16:23:15Z</time>
      </trkpt>
      <trkpt lat="40.889200" lon="-4.178417">
        <ele>941.0</ele>
        <time>2014-06-30T16:23:16Z</time>
      </trkpt>
      <trkpt lat="40.889200" lon="-4.178417">
        <ele>941.0</ele>
        <time>2014-06-30T16:23:17Z</time>
      </trkpt>
      <trkpt lat="40.889217" lon="-4.178433">
        <ele>941.0</ele>
        <time>2014-06-30T16:23:18Z</time>
      </trkpt>
      <trkpt lat="40.889200" lon="-4.178450">
        <ele>942.0</ele>
        <time>2014-06-30T16:23:19Z</time>
      </trkpt>
      <trkpt lat="40.889200" lon="-4.178450">
        <ele>942.0</ele>
        <time>2014-06-30T16:23:20Z</time>
      </trkpt>
      <trkpt lat="40.889200" lon="-4.178467">
        <ele>942.0</ele>
        <time>2014-06-30T16:23:21Z</time>
      </trkpt>
      <trkpt lat="40.889200" lon="-4.178467">
        <ele>942.0</ele>
        <time>2014-06-30T16:23:22Z</time>
      </trkpt>
      <trkpt lat="40.889200" lon="-4.178450">
        <ele>942.0</ele>
        <time>2014-06-30T16:23:23Z</time>
      </trkpt>
      <trkpt lat="40.889200" lon="-4.178450">
        <ele>942.0</ele>
        <time>2014-06-30T16:23:24Z</time>
      </trkpt>
      <trkpt lat="40.889200" lon="-4.178467">
        <ele>942.0</ele>
        <time>2014-06-30T16:23:25Z</time>
      </trkpt>
      <trkpt lat="40.889183" lon="-4.178467">
        <ele>942.0</ele>
        <time>2014-06-30T16:23:26Z</time>
      </trkpt>
    </trkseg>
  </trk>
</gpx>
